<?xml version="1.0" encoding="utf-8"?>
<gpx xmlns:xsi="http://www.w3.org/2001/XMLSchema-instance" xmlns:xsd="http://www.w3.org/2001/XMLSchema" version="1.1" creator="Shapelink.com" xmlns="http://www.topografix.com/GPX/1/1" xmlns:gpxtpx="http://www.garmin.com/xmlschemas/TrackPointExtension/v1">
  <metadata>
    <name>Sykling 46.76 km, 2013-05-16</name>
    <desc></desc>
    <author><name>Mikael Blom</name></author> 
    <time>2013-05-16T15:49:07Z</time>
  </metadata>
  <trk>
    <name>Sykling 46.76 km, 2013-05-16</name>
    <trkseg>
      <trkpt lat="59.9789123" lon="17.7395144">
        <ele>20.8057</ele>
        <time>2013-05-16T15:49:07Z</time>
      </trkpt>
      <trkpt lat="59.9792931" lon="17.7390485">
        <ele>38.5901</ele>
        <time>2013-05-16T15:49:51Z</time>
      </trkpt>
      <trkpt lat="59.9792733" lon="17.7390579">
        <ele>39.0707</ele>
        <time>2013-05-16T15:49:52Z</time>
      </trkpt>
      <trkpt lat="59.9792526" lon="17.7390734">
        <ele>39.0707</ele>
        <time>2013-05-16T15:49:53Z</time>
      </trkpt>
      <trkpt lat="59.9792296" lon="17.7390925">
        <ele>39.0707</ele>
        <time>2013-05-16T15:49:54Z</time>
      </trkpt>
      <trkpt lat="59.9792023" lon="17.739112">
        <ele>39.0707</ele>
        <time>2013-05-16T15:49:55Z</time>
      </trkpt>
      <trkpt lat="59.9791728" lon="17.7391267">
        <ele>39.0707</ele>
        <time>2013-05-16T15:49:56Z</time>
      </trkpt>
      <trkpt lat="59.9791346" lon="17.7391334">
        <ele>38.5901</ele>
        <time>2013-05-16T15:49:57Z</time>
      </trkpt>
      <trkpt lat="59.9790945" lon="17.7391487">
        <ele>38.5901</ele>
        <time>2013-05-16T15:49:58Z</time>
      </trkpt>
      <trkpt lat="59.9790545" lon="17.7391655">
        <ele>39.0707</ele>
        <time>2013-05-16T15:49:59Z</time>
      </trkpt>
      <trkpt lat="59.9790132" lon="17.7391772">
        <ele>39.0707</ele>
        <time>2013-05-16T15:50:00Z</time>
      </trkpt>
      <trkpt lat="59.9789723" lon="17.739199">
        <ele>39.0707</ele>
        <time>2013-05-16T15:50:01Z</time>
      </trkpt>
      <trkpt lat="59.9789287" lon="17.7392184">
        <ele>39.0707</ele>
        <time>2013-05-16T15:50:02Z</time>
      </trkpt>
      <trkpt lat="59.9788843" lon="17.7392409">
        <ele>38.5901</ele>
        <time>2013-05-16T15:50:03Z</time>
      </trkpt>
      <trkpt lat="59.9788365" lon="17.7392503">
        <ele>38.1094</ele>
        <time>2013-05-16T15:50:04Z</time>
      </trkpt>
      <trkpt lat="59.9787851" lon="17.7392481">
        <ele>37.6287</ele>
        <time>2013-05-16T15:50:05Z</time>
      </trkpt>
      <trkpt lat="59.9787315" lon="17.7392358">
        <ele>37.6287</ele>
        <time>2013-05-16T15:50:06Z</time>
      </trkpt>
      <trkpt lat="59.9786745" lon="17.739215">
        <ele>37.6287</ele>
        <time>2013-05-16T15:50:07Z</time>
      </trkpt>
      <trkpt lat="59.9786191" lon="17.7391994">
        <ele>37.6287</ele>
        <time>2013-05-16T15:50:08Z</time>
      </trkpt>
      <trkpt lat="59.978565" lon="17.7391865">
        <ele>37.6287</ele>
        <time>2013-05-16T15:50:09Z</time>
      </trkpt>
      <trkpt lat="59.9785113" lon="17.7391721">
        <ele>37.6287</ele>
        <time>2013-05-16T15:50:10Z</time>
      </trkpt>
      <trkpt lat="59.9784564" lon="17.7391622">
        <ele>37.6287</ele>
        <time>2013-05-16T15:50:11Z</time>
      </trkpt>
      <trkpt lat="59.9783982" lon="17.7391555">
        <ele>38.1094</ele>
        <time>2013-05-16T15:50:12Z</time>
      </trkpt>
      <trkpt lat="59.9783413" lon="17.7391461">
        <ele>37.6287</ele>
        <time>2013-05-16T15:50:13Z</time>
      </trkpt>
      <trkpt lat="59.9782835" lon="17.7391305">
        <ele>37.6287</ele>
        <time>2013-05-16T15:50:14Z</time>
      </trkpt>
      <trkpt lat="59.9782262" lon="17.7391181">
        <ele>37.6287</ele>
        <time>2013-05-16T15:50:15Z</time>
      </trkpt>
      <trkpt lat="59.9781675" lon="17.7391039">
        <ele>37.1481</ele>
        <time>2013-05-16T15:50:16Z</time>
      </trkpt>
      <trkpt lat="59.9781081" lon="17.739084">
        <ele>37.1481</ele>
        <time>2013-05-16T15:50:17Z</time>
      </trkpt>
      <trkpt lat="59.9780472" lon="17.7390548">
        <ele>37.1481</ele>
        <time>2013-05-16T15:50:18Z</time>
      </trkpt>
      <trkpt lat="59.9779855" lon="17.739021">
        <ele>37.1481</ele>
        <time>2013-05-16T15:50:19Z</time>
      </trkpt>
      <trkpt lat="59.9779223" lon="17.7389845">
        <ele>37.1481</ele>
        <time>2013-05-16T15:50:20Z</time>
      </trkpt>
      <trkpt lat="59.9778575" lon="17.7389471">
        <ele>37.1481</ele>
        <time>2013-05-16T15:50:21Z</time>
      </trkpt>
      <trkpt lat="59.9777938" lon="17.738919">
        <ele>37.1481</ele>
        <time>2013-05-16T15:50:22Z</time>
      </trkpt>
      <trkpt lat="59.9777285" lon="17.738899">
        <ele>36.6675</ele>
        <time>2013-05-16T15:50:23Z</time>
      </trkpt>
      <trkpt lat="59.9776603" lon="17.7388879">
        <ele>36.1868</ele>
        <time>2013-05-16T15:50:24Z</time>
      </trkpt>
      <trkpt lat="59.9775887" lon="17.7388876">
        <ele>35.7061</ele>
        <time>2013-05-16T15:50:25Z</time>
      </trkpt>
      <trkpt lat="59.9775182" lon="17.7389011">
        <ele>35.2255</ele>
        <time>2013-05-16T15:50:26Z</time>
      </trkpt>
      <trkpt lat="59.9774442" lon="17.7389275">
        <ele>35.2255</ele>
        <time>2013-05-16T15:50:27Z</time>
      </trkpt>
      <trkpt lat="59.977373" lon="17.7389613">
        <ele>34.7449</ele>
        <time>2013-05-16T15:50:28Z</time>
      </trkpt>
      <trkpt lat="59.9772944" lon="17.7390019">
        <ele>34.2642</ele>
        <time>2013-05-16T15:50:29Z</time>
      </trkpt>
      <trkpt lat="59.9772137" lon="17.7390466">
        <ele>33.3029</ele>
        <time>2013-05-16T15:50:30Z</time>
      </trkpt>
      <trkpt lat="59.9771344" lon="17.7390906">
        <ele>32.3416</ele>
        <time>2013-05-16T15:50:31Z</time>
      </trkpt>
      <trkpt lat="59.9770525" lon="17.739133">
        <ele>31.8607</ele>
        <time>2013-05-16T15:50:32Z</time>
      </trkpt>
      <trkpt lat="59.9769701" lon="17.7391715">
        <ele>31.8607</ele>
        <time>2013-05-16T15:50:33Z</time>
      </trkpt>
      <trkpt lat="59.9768867" lon="17.739216">
        <ele>31.8607</ele>
        <time>2013-05-16T15:50:34Z</time>
      </trkpt>
      <trkpt lat="59.9768058" lon="17.7392575">
        <ele>31.8607</ele>
        <time>2013-05-16T15:50:35Z</time>
      </trkpt>
      <trkpt lat="59.9767268" lon="17.7393023">
        <ele>30.8995</ele>
        <time>2013-05-16T15:50:36Z</time>
      </trkpt>
      <trkpt lat="59.9766444" lon="17.7393555">
        <ele>29.9381</ele>
        <time>2013-05-16T15:50:37Z</time>
      </trkpt>
      <trkpt lat="59.9765641" lon="17.7394251">
        <ele>29.4575</ele>
        <time>2013-05-16T15:50:38Z</time>
      </trkpt>
      <trkpt lat="59.9764865" lon="17.7395061">
        <ele>28.9769</ele>
        <time>2013-05-16T15:50:39Z</time>
      </trkpt>
      <trkpt lat="59.976417" lon="17.739607">
        <ele>28.0155</ele>
        <time>2013-05-16T15:50:40Z</time>
      </trkpt>
      <trkpt lat="59.9763482" lon="17.7396895">
        <ele>27.5349</ele>
        <time>2013-05-16T15:50:41Z</time>
      </trkpt>
      <trkpt lat="59.9762783" lon="17.7397397">
        <ele>27.0543</ele>
        <time>2013-05-16T15:50:42Z</time>
      </trkpt>
      <trkpt lat="59.9762088" lon="17.7397481">
        <ele>26.5736</ele>
        <time>2013-05-16T15:50:43Z</time>
      </trkpt>
      <trkpt lat="59.9761393" lon="17.7397123">
        <ele>25.6123</ele>
        <time>2013-05-16T15:50:44Z</time>
      </trkpt>
      <trkpt lat="59.976073" lon="17.7396392">
        <ele>25.1317</ele>
        <time>2013-05-16T15:50:45Z</time>
      </trkpt>
      <trkpt lat="59.9760098" lon="17.739536">
        <ele>24.651</ele>
        <time>2013-05-16T15:50:46Z</time>
      </trkpt>
      <trkpt lat="59.9759488" lon="17.739414">
        <ele>24.1703</ele>
        <time>2013-05-16T15:50:47Z</time>
      </trkpt>
      <trkpt lat="59.9758908" lon="17.7392885">
        <ele>24.1703</ele>
        <time>2013-05-16T15:50:48Z</time>
      </trkpt>
      <trkpt lat="59.9758296" lon="17.7391667">
        <ele>24.1703</ele>
        <time>2013-05-16T15:50:49Z</time>
      </trkpt>
      <trkpt lat="59.9757678" lon="17.7390491">
        <ele>23.6896</ele>
        <time>2013-05-16T15:50:50Z</time>
      </trkpt>
      <trkpt lat="59.9757076" lon="17.7389317">
        <ele>23.6896</ele>
        <time>2013-05-16T15:50:51Z</time>
      </trkpt>
      <trkpt lat="59.9756437" lon="17.7388182">
        <ele>23.6896</ele>
        <time>2013-05-16T15:50:52Z</time>
      </trkpt>
      <trkpt lat="59.9755781" lon="17.738709">
        <ele>23.6896</ele>
        <time>2013-05-16T15:50:53Z</time>
      </trkpt>
      <trkpt lat="59.9755152" lon="17.738599">
        <ele>23.6896</ele>
        <time>2013-05-16T15:50:54Z</time>
      </trkpt>
      <trkpt lat="59.9754535" lon="17.7384892">
        <ele>23.209</ele>
        <time>2013-05-16T15:50:55Z</time>
      </trkpt>
      <trkpt lat="59.9753924" lon="17.7383792">
        <ele>23.6896</ele>
        <time>2013-05-16T15:50:56Z</time>
      </trkpt>
      <trkpt lat="59.9753318" lon="17.7382685">
        <ele>23.209</ele>
        <time>2013-05-16T15:50:57Z</time>
      </trkpt>
      <trkpt lat="59.9752713" lon="17.7381592">
        <ele>23.209</ele>
        <time>2013-05-16T15:50:58Z</time>
      </trkpt>
      <trkpt lat="59.9752111" lon="17.7380521">
        <ele>23.209</ele>
        <time>2013-05-16T15:50:59Z</time>
      </trkpt>
      <trkpt lat="59.9751508" lon="17.7379479">
        <ele>23.209</ele>
        <time>2013-05-16T15:51:00Z</time>
      </trkpt>
      <trkpt lat="59.9750909" lon="17.7378437">
        <ele>23.6896</ele>
        <time>2013-05-16T15:51:01Z</time>
      </trkpt>
      <trkpt lat="59.9750322" lon="17.7377318">
        <ele>23.6896</ele>
        <time>2013-05-16T15:51:02Z</time>
      </trkpt>
      <trkpt lat="59.9749749" lon="17.73762">
        <ele>23.6896</ele>
        <time>2013-05-16T15:51:03Z</time>
      </trkpt>
      <trkpt lat="59.9749179" lon="17.7375044">
        <ele>23.6896</ele>
        <time>2013-05-16T15:51:04Z</time>
      </trkpt>
      <trkpt lat="59.9748619" lon="17.7373848">
        <ele>23.6896</ele>
        <time>2013-05-16T15:51:05Z</time>
      </trkpt>
      <trkpt lat="59.9748106" lon="17.7372604">
        <ele>23.6896</ele>
        <time>2013-05-16T15:51:06Z</time>
      </trkpt>
      <trkpt lat="59.9747617" lon="17.7371305">
        <ele>23.6896</ele>
        <time>2013-05-16T15:51:07Z</time>
      </trkpt>
      <trkpt lat="59.9747143" lon="17.7369968">
        <ele>24.1703</ele>
        <time>2013-05-16T15:51:08Z</time>
      </trkpt>
      <trkpt lat="59.974669" lon="17.7368606">
        <ele>24.651</ele>
        <time>2013-05-16T15:51:09Z</time>
      </trkpt>
      <trkpt lat="59.9746253" lon="17.7367242">
        <ele>24.651</ele>
        <time>2013-05-16T15:51:10Z</time>
      </trkpt>
      <trkpt lat="59.9745853" lon="17.7365876">
        <ele>24.651</ele>
        <time>2013-05-16T15:51:11Z</time>
      </trkpt>
      <trkpt lat="59.974551" lon="17.7364486">
        <ele>25.1317</ele>
        <time>2013-05-16T15:51:12Z</time>
      </trkpt>
      <trkpt lat="59.9745203" lon="17.7363093">
        <ele>25.1317</ele>
        <time>2013-05-16T15:51:13Z</time>
      </trkpt>
      <trkpt lat="59.9744917" lon="17.7361716">
        <ele>25.1317</ele>
        <time>2013-05-16T15:51:14Z</time>
      </trkpt>
      <trkpt lat="59.9744651" lon="17.7360358">
        <ele>25.1317</ele>
        <time>2013-05-16T15:51:15Z</time>
      </trkpt>
      <trkpt lat="59.9744408" lon="17.7359013">
        <ele>25.1317</ele>
        <time>2013-05-16T15:51:16Z</time>
      </trkpt>
      <trkpt lat="59.9744189" lon="17.7357672">
        <ele>25.1317</ele>
        <time>2013-05-16T15:51:17Z</time>
      </trkpt>
      <trkpt lat="59.9743983" lon="17.7356334">
        <ele>25.1317</ele>
        <time>2013-05-16T15:51:18Z</time>
      </trkpt>
      <trkpt lat="59.9743802" lon="17.7354982">
        <ele>25.1317</ele>
        <time>2013-05-16T15:51:19Z</time>
      </trkpt>
      <trkpt lat="59.9743646" lon="17.7353599">
        <ele>25.1317</ele>
        <time>2013-05-16T15:51:20Z</time>
      </trkpt>
      <trkpt lat="59.9743497" lon="17.7352217">
        <ele>25.1317</ele>
        <time>2013-05-16T15:51:21Z</time>
      </trkpt>
      <trkpt lat="59.9743349" lon="17.7350811">
        <ele>24.651</ele>
        <time>2013-05-16T15:51:22Z</time>
      </trkpt>
      <trkpt lat="59.9743212" lon="17.7349357">
        <ele>23.6896</ele>
        <time>2013-05-16T15:51:23Z</time>
      </trkpt>
      <trkpt lat="59.9743077" lon="17.7347884">
        <ele>23.6896</ele>
        <time>2013-05-16T15:51:24Z</time>
      </trkpt>
      <trkpt lat="59.9742977" lon="17.7346389">
        <ele>23.209</ele>
        <time>2013-05-16T15:51:25Z</time>
      </trkpt>
      <trkpt lat="59.9742917" lon="17.7344876">
        <ele>22.7283</ele>
        <time>2013-05-16T15:51:26Z</time>
      </trkpt>
      <trkpt lat="59.9742904" lon="17.7343352">
        <ele>22.7283</ele>
        <time>2013-05-16T15:51:27Z</time>
      </trkpt>
      <trkpt lat="59.9742938" lon="17.7341824">
        <ele>22.2476</ele>
        <time>2013-05-16T15:51:28Z</time>
      </trkpt>
      <trkpt lat="59.9742998" lon="17.7340302">
        <ele>21.767</ele>
        <time>2013-05-16T15:51:29Z</time>
      </trkpt>
      <trkpt lat="59.9743075" lon="17.7338774">
        <ele>21.767</ele>
        <time>2013-05-16T15:51:30Z</time>
      </trkpt>
      <trkpt lat="59.9743166" lon="17.7337242">
        <ele>21.2864</ele>
        <time>2013-05-16T15:51:31Z</time>
      </trkpt>
      <trkpt lat="59.9743241" lon="17.7335701">
        <ele>21.2864</ele>
        <time>2013-05-16T15:51:32Z</time>
      </trkpt>
      <trkpt lat="59.97433" lon="17.7334153">
        <ele>21.2864</ele>
        <time>2013-05-16T15:51:33Z</time>
      </trkpt>
      <trkpt lat="59.974337" lon="17.7332603">
        <ele>21.2864</ele>
        <time>2013-05-16T15:51:34Z</time>
      </trkpt>
      <trkpt lat="59.9743432" lon="17.733103">
        <ele>21.2864</ele>
        <time>2013-05-16T15:51:35Z</time>
      </trkpt>
      <trkpt lat="59.9743475" lon="17.7329429">
        <ele>21.2864</ele>
        <time>2013-05-16T15:51:36Z</time>
      </trkpt>
      <trkpt lat="59.9743491" lon="17.7327819">
        <ele>21.2864</ele>
        <time>2013-05-16T15:51:37Z</time>
      </trkpt>
      <trkpt lat="59.9743479" lon="17.7326224">
        <ele>21.2864</ele>
        <time>2013-05-16T15:51:38Z</time>
      </trkpt>
      <trkpt lat="59.9743453" lon="17.7324644">
        <ele>21.2864</ele>
        <time>2013-05-16T15:51:39Z</time>
      </trkpt>
      <trkpt lat="59.9743419" lon="17.7323078">
        <ele>21.2864</ele>
        <time>2013-05-16T15:51:40Z</time>
      </trkpt>
      <trkpt lat="59.9743386" lon="17.7321508">
        <ele>21.2864</ele>
        <time>2013-05-16T15:51:41Z</time>
      </trkpt>
      <trkpt lat="59.9743349" lon="17.731993">
        <ele>21.2864</ele>
        <time>2013-05-16T15:51:42Z</time>
      </trkpt>
      <trkpt lat="59.9743315" lon="17.7318349">
        <ele>20.8057</ele>
        <time>2013-05-16T15:51:43Z</time>
      </trkpt>
      <trkpt lat="59.9743294" lon="17.7316751">
        <ele>20.8057</ele>
        <time>2013-05-16T15:51:44Z</time>
      </trkpt>
      <trkpt lat="59.9743288" lon="17.7315141">
        <ele>20.8057</ele>
        <time>2013-05-16T15:51:45Z</time>
      </trkpt>
      <trkpt lat="59.9743309" lon="17.7313527">
        <ele>20.8057</ele>
        <time>2013-05-16T15:51:46Z</time>
      </trkpt>
      <trkpt lat="59.9743365" lon="17.7311913">
        <ele>20.8057</ele>
        <time>2013-05-16T15:51:47Z</time>
      </trkpt>
      <trkpt lat="59.9743449" lon="17.7310299">
        <ele>20.8057</ele>
        <time>2013-05-16T15:51:48Z</time>
      </trkpt>
      <trkpt lat="59.9743547" lon="17.7308683">
        <ele>20.8057</ele>
        <time>2013-05-16T15:51:49Z</time>
      </trkpt>
      <trkpt lat="59.9743656" lon="17.7307065">
        <ele>20.8057</ele>
        <time>2013-05-16T15:51:50Z</time>
      </trkpt>
      <trkpt lat="59.9743781" lon="17.7305448">
        <ele>20.8057</ele>
        <time>2013-05-16T15:51:51Z</time>
      </trkpt>
      <trkpt lat="59.974391" lon="17.7303834">
        <ele>20.8057</ele>
        <time>2013-05-16T15:51:52Z</time>
      </trkpt>
      <trkpt lat="59.9744034" lon="17.7302232">
        <ele>20.8057</ele>
        <time>2013-05-16T15:51:53Z</time>
      </trkpt>
      <trkpt lat="59.9744154" lon="17.7300636">
        <ele>20.8057</ele>
        <time>2013-05-16T15:51:54Z</time>
      </trkpt>
      <trkpt lat="59.9744274" lon="17.7299043">
        <ele>20.8057</ele>
        <time>2013-05-16T15:51:55Z</time>
      </trkpt>
      <trkpt lat="59.974439" lon="17.7297452">
        <ele>20.8057</ele>
        <time>2013-05-16T15:51:56Z</time>
      </trkpt>
      <trkpt lat="59.974448" lon="17.729585">
        <ele>20.8057</ele>
        <time>2013-05-16T15:51:57Z</time>
      </trkpt>
      <trkpt lat="59.9744532" lon="17.7294242">
        <ele>20.8057</ele>
        <time>2013-05-16T15:51:58Z</time>
      </trkpt>
      <trkpt lat="59.974454" lon="17.7292624">
        <ele>20.8057</ele>
        <time>2013-05-16T15:51:59Z</time>
      </trkpt>
      <trkpt lat="59.9744512" lon="17.7290998">
        <ele>20.8057</ele>
        <time>2013-05-16T15:52:00Z</time>
      </trkpt>
      <trkpt lat="59.9744471" lon="17.7289366">
        <ele>20.8057</ele>
        <time>2013-05-16T15:52:01Z</time>
      </trkpt>
      <trkpt lat="59.9744423" lon="17.7287719">
        <ele>20.8057</ele>
        <time>2013-05-16T15:52:02Z</time>
      </trkpt>
      <trkpt lat="59.9744367" lon="17.7286056">
        <ele>20.8057</ele>
        <time>2013-05-16T15:52:03Z</time>
      </trkpt>
      <trkpt lat="59.9744318" lon="17.7284383">
        <ele>20.8057</ele>
        <time>2013-05-16T15:52:04Z</time>
      </trkpt>
      <trkpt lat="59.9744273" lon="17.7282718">
        <ele>20.8057</ele>
        <time>2013-05-16T15:52:05Z</time>
      </trkpt>
      <trkpt lat="59.9744231" lon="17.7281062">
        <ele>20.8057</ele>
        <time>2013-05-16T15:52:06Z</time>
      </trkpt>
      <trkpt lat="59.9744186" lon="17.727939">
        <ele>21.2864</ele>
        <time>2013-05-16T15:52:07Z</time>
      </trkpt>
      <trkpt lat="59.9744153" lon="17.7277699">
        <ele>21.767</ele>
        <time>2013-05-16T15:52:08Z</time>
      </trkpt>
      <trkpt lat="59.9744129" lon="17.727603">
        <ele>22.2476</ele>
        <time>2013-05-16T15:52:09Z</time>
      </trkpt>
      <trkpt lat="59.9744101" lon="17.7274409">
        <ele>22.2476</ele>
        <time>2013-05-16T15:52:10Z</time>
      </trkpt>
      <trkpt lat="59.9744087" lon="17.7272794">
        <ele>24.1703</ele>
        <time>2013-05-16T15:52:11Z</time>
      </trkpt>
      <trkpt lat="59.9744081" lon="17.7271206">
        <ele>25.6123</ele>
        <time>2013-05-16T15:52:12Z</time>
      </trkpt>
      <trkpt lat="59.9744075" lon="17.7269635">
        <ele>26.5736</ele>
        <time>2013-05-16T15:52:13Z</time>
      </trkpt>
      <trkpt lat="59.974407" lon="17.7268038">
        <ele>28.0155</ele>
        <time>2013-05-16T15:52:14Z</time>
      </trkpt>
      <trkpt lat="59.9744033" lon="17.7266465">
        <ele>28.4962</ele>
        <time>2013-05-16T15:52:15Z</time>
      </trkpt>
      <trkpt lat="59.9743987" lon="17.7264891">
        <ele>28.4962</ele>
        <time>2013-05-16T15:52:16Z</time>
      </trkpt>
      <trkpt lat="59.974393" lon="17.7263329">
        <ele>28.9769</ele>
        <time>2013-05-16T15:52:17Z</time>
      </trkpt>
      <trkpt lat="59.9743863" lon="17.7261766">
        <ele>28.9769</ele>
        <time>2013-05-16T15:52:18Z</time>
      </trkpt>
      <trkpt lat="59.9743791" lon="17.7260193">
        <ele>28.9769</ele>
        <time>2013-05-16T15:52:19Z</time>
      </trkpt>
      <trkpt lat="59.9743707" lon="17.7258605">
        <ele>28.9769</ele>
        <time>2013-05-16T15:52:20Z</time>
      </trkpt>
      <trkpt lat="59.9743598" lon="17.7257015">
        <ele>28.9769</ele>
        <time>2013-05-16T15:52:21Z</time>
      </trkpt>
      <trkpt lat="59.9743444" lon="17.7255435">
        <ele>27.5349</ele>
        <time>2013-05-16T15:52:22Z</time>
      </trkpt>
      <trkpt lat="59.9743282" lon="17.7253839">
        <ele>26.5736</ele>
        <time>2013-05-16T15:52:23Z</time>
      </trkpt>
      <trkpt lat="59.97431" lon="17.725224">
        <ele>25.6123</ele>
        <time>2013-05-16T15:52:24Z</time>
      </trkpt>
      <trkpt lat="59.9742886" lon="17.7250635">
        <ele>24.651</ele>
        <time>2013-05-16T15:52:25Z</time>
      </trkpt>
      <trkpt lat="59.9742667" lon="17.7249038">
        <ele>23.6896</ele>
        <time>2013-05-16T15:52:26Z</time>
      </trkpt>
      <trkpt lat="59.9742446" lon="17.7247428">
        <ele>23.209</ele>
        <time>2013-05-16T15:52:27Z</time>
      </trkpt>
      <trkpt lat="59.9742212" lon="17.7245811">
        <ele>22.2476</ele>
        <time>2013-05-16T15:52:28Z</time>
      </trkpt>
      <trkpt lat="59.9741961" lon="17.7244189">
        <ele>21.767</ele>
        <time>2013-05-16T15:52:29Z</time>
      </trkpt>
      <trkpt lat="59.9741719" lon="17.7242565">
        <ele>21.767</ele>
        <time>2013-05-16T15:52:30Z</time>
      </trkpt>
      <trkpt lat="59.9741481" lon="17.7240943">
        <ele>21.767</ele>
        <time>2013-05-16T15:52:31Z</time>
      </trkpt>
      <trkpt lat="59.9741247" lon="17.7239316">
        <ele>21.767</ele>
        <time>2013-05-16T15:52:32Z</time>
      </trkpt>
      <trkpt lat="59.9741008" lon="17.7237689">
        <ele>20.8057</ele>
        <time>2013-05-16T15:52:33Z</time>
      </trkpt>
      <trkpt lat="59.9740774" lon="17.7236071">
        <ele>20.325</ele>
        <time>2013-05-16T15:52:34Z</time>
      </trkpt>
      <trkpt lat="59.9740528" lon="17.7234469">
        <ele>20.325</ele>
        <time>2013-05-16T15:52:35Z</time>
      </trkpt>
      <trkpt lat="59.9740253" lon="17.7232903">
        <ele>19.8444</ele>
        <time>2013-05-16T15:52:36Z</time>
      </trkpt>
      <trkpt lat="59.9739953" lon="17.7231379">
        <ele>19.3638</ele>
        <time>2013-05-16T15:52:37Z</time>
      </trkpt>
      <trkpt lat="59.9739651" lon="17.7229871">
        <ele>19.3638</ele>
        <time>2013-05-16T15:52:38Z</time>
      </trkpt>
      <trkpt lat="59.9739337" lon="17.7228381">
        <ele>19.3638</ele>
        <time>2013-05-16T15:52:39Z</time>
      </trkpt>
      <trkpt lat="59.9738998" lon="17.7226931">
        <ele>19.8444</ele>
        <time>2013-05-16T15:52:40Z</time>
      </trkpt>
      <trkpt lat="59.9738631" lon="17.7225502">
        <ele>19.8444</ele>
        <time>2013-05-16T15:52:41Z</time>
      </trkpt>
      <trkpt lat="59.9738236" lon="17.7224096">
        <ele>19.8444</ele>
        <time>2013-05-16T15:52:42Z</time>
      </trkpt>
      <trkpt lat="59.9737824" lon="17.7222724">
        <ele>20.325</ele>
        <time>2013-05-16T15:52:43Z</time>
      </trkpt>
      <trkpt lat="59.9737405" lon="17.7221372">
        <ele>20.325</ele>
        <time>2013-05-16T15:52:44Z</time>
      </trkpt>
      <trkpt lat="59.9736972" lon="17.7220051">
        <ele>20.325</ele>
        <time>2013-05-16T15:52:45Z</time>
      </trkpt>
      <trkpt lat="59.9736499" lon="17.7218787">
        <ele>20.8057</ele>
        <time>2013-05-16T15:52:46Z</time>
      </trkpt>
      <trkpt lat="59.9736006" lon="17.7217565">
        <ele>20.8057</ele>
        <time>2013-05-16T15:52:47Z</time>
      </trkpt>
      <trkpt lat="59.9735509" lon="17.7216368">
        <ele>20.8057</ele>
        <time>2013-05-16T15:52:48Z</time>
      </trkpt>
      <trkpt lat="59.9735007" lon="17.7215199">
        <ele>20.8057</ele>
        <time>2013-05-16T15:52:49Z</time>
      </trkpt>
      <trkpt lat="59.9734496" lon="17.7214084">
        <ele>21.2864</ele>
        <time>2013-05-16T15:52:50Z</time>
      </trkpt>
      <trkpt lat="59.9733974" lon="17.7213007">
        <ele>21.2864</ele>
        <time>2013-05-16T15:52:51Z</time>
      </trkpt>
      <trkpt lat="59.973345" lon="17.7211948">
        <ele>21.2864</ele>
        <time>2013-05-16T15:52:52Z</time>
      </trkpt>
      <trkpt lat="59.9732913" lon="17.7210923">
        <ele>21.2864</ele>
        <time>2013-05-16T15:52:53Z</time>
      </trkpt>
      <trkpt lat="59.9732353" lon="17.7209955">
        <ele>21.2864</ele>
        <time>2013-05-16T15:52:54Z</time>
      </trkpt>
      <trkpt lat="59.9731779" lon="17.7209034">
        <ele>21.767</ele>
        <time>2013-05-16T15:52:55Z</time>
      </trkpt>
      <trkpt lat="59.9731193" lon="17.720815">
        <ele>21.767</ele>
        <time>2013-05-16T15:52:56Z</time>
      </trkpt>
      <trkpt lat="59.9730593" lon="17.7207303">
        <ele>21.767</ele>
        <time>2013-05-16T15:52:57Z</time>
      </trkpt>
      <trkpt lat="59.9729982" lon="17.7206484">
        <ele>21.767</ele>
        <time>2013-05-16T15:52:58Z</time>
      </trkpt>
      <trkpt lat="59.9729375" lon="17.7205683">
        <ele>22.2476</ele>
        <time>2013-05-16T15:52:59Z</time>
      </trkpt>
      <trkpt lat="59.972876" lon="17.7204906">
        <ele>22.2476</ele>
        <time>2013-05-16T15:53:00Z</time>
      </trkpt>
      <trkpt lat="59.9728137" lon="17.7204162">
        <ele>22.2476</ele>
        <time>2013-05-16T15:53:01Z</time>
      </trkpt>
      <trkpt lat="59.9727508" lon="17.720345">
        <ele>22.7283</ele>
        <time>2013-05-16T15:53:02Z</time>
      </trkpt>
      <trkpt lat="59.9726873" lon="17.7202775">
        <ele>22.7283</ele>
        <time>2013-05-16T15:53:03Z</time>
      </trkpt>
      <trkpt lat="59.9726227" lon="17.7202149">
        <ele>22.7283</ele>
        <time>2013-05-16T15:53:04Z</time>
      </trkpt>
      <trkpt lat="59.9725578" lon="17.7201562">
        <ele>22.7283</ele>
        <time>2013-05-16T15:53:05Z</time>
      </trkpt>
      <trkpt lat="59.9724921" lon="17.7200993">
        <ele>22.7283</ele>
        <time>2013-05-16T15:53:06Z</time>
      </trkpt>
      <trkpt lat="59.9724262" lon="17.7200433">
        <ele>22.7283</ele>
        <time>2013-05-16T15:53:07Z</time>
      </trkpt>
      <trkpt lat="59.9723611" lon="17.7199864">
        <ele>22.7283</ele>
        <time>2013-05-16T15:53:08Z</time>
      </trkpt>
      <trkpt lat="59.9722968" lon="17.7199272">
        <ele>22.7283</ele>
        <time>2013-05-16T15:53:09Z</time>
      </trkpt>
      <trkpt lat="59.9722333" lon="17.7198689">
        <ele>22.7283</ele>
        <time>2013-05-16T15:53:10Z</time>
      </trkpt>
      <trkpt lat="59.9721691" lon="17.7198112">
        <ele>22.7283</ele>
        <time>2013-05-16T15:53:11Z</time>
      </trkpt>
      <trkpt lat="59.9721046" lon="17.719754">
        <ele>22.7283</ele>
        <time>2013-05-16T15:53:12Z</time>
      </trkpt>
      <trkpt lat="59.9720394" lon="17.7196998">
        <ele>22.7283</ele>
        <time>2013-05-16T15:53:13Z</time>
      </trkpt>
      <trkpt lat="59.9719735" lon="17.71965">
        <ele>22.7283</ele>
        <time>2013-05-16T15:53:14Z</time>
      </trkpt>
      <trkpt lat="59.9719108" lon="17.7195952">
        <ele>22.7283</ele>
        <time>2013-05-16T15:53:15Z</time>
      </trkpt>
      <trkpt lat="59.9718497" lon="17.7195368">
        <ele>22.7283</ele>
        <time>2013-05-16T15:53:16Z</time>
      </trkpt>
      <trkpt lat="59.9717886" lon="17.7194778">
        <ele>22.7283</ele>
        <time>2013-05-16T15:53:17Z</time>
      </trkpt>
      <trkpt lat="59.9717263" lon="17.71942">
        <ele>22.7283</ele>
        <time>2013-05-16T15:53:18Z</time>
      </trkpt>
      <trkpt lat="59.9716627" lon="17.7193654">
        <ele>22.7283</ele>
        <time>2013-05-16T15:53:19Z</time>
      </trkpt>
      <trkpt lat="59.9715991" lon="17.7193105">
        <ele>22.7283</ele>
        <time>2013-05-16T15:53:20Z</time>
      </trkpt>
      <trkpt lat="59.9715361" lon="17.7192546">
        <ele>22.7283</ele>
        <time>2013-05-16T15:53:21Z</time>
      </trkpt>
      <trkpt lat="59.9714731" lon="17.7192001">
        <ele>22.7283</ele>
        <time>2013-05-16T15:53:22Z</time>
      </trkpt>
      <trkpt lat="59.9714104" lon="17.7191456">
        <ele>22.7283</ele>
        <time>2013-05-16T15:53:23Z</time>
      </trkpt>
      <trkpt lat="59.9713481" lon="17.7190922">
        <ele>22.7283</ele>
        <time>2013-05-16T15:53:24Z</time>
      </trkpt>
      <trkpt lat="59.9712861" lon="17.7190398">
        <ele>22.7283</ele>
        <time>2013-05-16T15:53:25Z</time>
      </trkpt>
      <trkpt lat="59.9712245" lon="17.7189856">
        <ele>22.7283</ele>
        <time>2013-05-16T15:53:26Z</time>
      </trkpt>
      <trkpt lat="59.9711639" lon="17.7189276">
        <ele>23.209</ele>
        <time>2013-05-16T15:53:27Z</time>
      </trkpt>
      <trkpt lat="59.9711027" lon="17.7188675">
        <ele>23.209</ele>
        <time>2013-05-16T15:53:28Z</time>
      </trkpt>
      <trkpt lat="59.97104" lon="17.7188094">
        <ele>23.209</ele>
        <time>2013-05-16T15:53:29Z</time>
      </trkpt>
      <trkpt lat="59.9709763" lon="17.718752">
        <ele>23.209</ele>
        <time>2013-05-16T15:53:30Z</time>
      </trkpt>
      <trkpt lat="59.9709114" lon="17.7186922">
        <ele>23.209</ele>
        <time>2013-05-16T15:53:31Z</time>
      </trkpt>
      <trkpt lat="59.9708451" lon="17.7186324">
        <ele>23.209</ele>
        <time>2013-05-16T15:53:32Z</time>
      </trkpt>
      <trkpt lat="59.9707775" lon="17.7185711">
        <ele>23.6896</ele>
        <time>2013-05-16T15:53:33Z</time>
      </trkpt>
      <trkpt lat="59.9707097" lon="17.7185096">
        <ele>23.6896</ele>
        <time>2013-05-16T15:53:34Z</time>
      </trkpt>
      <trkpt lat="59.9706425" lon="17.7184495">
        <ele>23.6896</ele>
        <time>2013-05-16T15:53:35Z</time>
      </trkpt>
      <trkpt lat="59.9705754" lon="17.7183904">
        <ele>23.6896</ele>
        <time>2013-05-16T15:53:36Z</time>
      </trkpt>
      <trkpt lat="59.9705087" lon="17.7183304">
        <ele>23.6896</ele>
        <time>2013-05-16T15:53:37Z</time>
      </trkpt>
      <trkpt lat="59.9704417" lon="17.7182702">
        <ele>23.6896</ele>
        <time>2013-05-16T15:53:38Z</time>
      </trkpt>
      <trkpt lat="59.9703744" lon="17.7182086">
        <ele>23.6896</ele>
        <time>2013-05-16T15:53:39Z</time>
      </trkpt>
      <trkpt lat="59.9703075" lon="17.7181454">
        <ele>23.6896</ele>
        <time>2013-05-16T15:53:40Z</time>
      </trkpt>
      <trkpt lat="59.9702402" lon="17.7180848">
        <ele>23.6896</ele>
        <time>2013-05-16T15:53:41Z</time>
      </trkpt>
      <trkpt lat="59.9701729" lon="17.7180263">
        <ele>23.6896</ele>
        <time>2013-05-16T15:53:42Z</time>
      </trkpt>
      <trkpt lat="59.9701056" lon="17.7179686">
        <ele>23.6896</ele>
        <time>2013-05-16T15:53:43Z</time>
      </trkpt>
      <trkpt lat="59.9700381" lon="17.7179108">
        <ele>23.6896</ele>
        <time>2013-05-16T15:53:44Z</time>
      </trkpt>
      <trkpt lat="59.9699714" lon="17.71785">
        <ele>24.1703</ele>
        <time>2013-05-16T15:53:45Z</time>
      </trkpt>
      <trkpt lat="59.9699046" lon="17.7177891">
        <ele>24.1703</ele>
        <time>2013-05-16T15:53:46Z</time>
      </trkpt>
      <trkpt lat="59.9698371" lon="17.717732">
        <ele>24.1703</ele>
        <time>2013-05-16T15:53:47Z</time>
      </trkpt>
      <trkpt lat="59.9697689" lon="17.7176766">
        <ele>24.1703</ele>
        <time>2013-05-16T15:53:48Z</time>
      </trkpt>
      <trkpt lat="59.9697006" lon="17.7176227">
        <ele>24.1703</ele>
        <time>2013-05-16T15:53:49Z</time>
      </trkpt>
      <trkpt lat="59.9696327" lon="17.7175734">
        <ele>24.651</ele>
        <time>2013-05-16T15:53:50Z</time>
      </trkpt>
      <trkpt lat="59.9695661" lon="17.7175291">
        <ele>24.651</ele>
        <time>2013-05-16T15:53:51Z</time>
      </trkpt>
      <trkpt lat="59.969501" lon="17.7174881">
        <ele>24.651</ele>
        <time>2013-05-16T15:53:52Z</time>
      </trkpt>
      <trkpt lat="59.9694384" lon="17.7174478">
        <ele>24.651</ele>
        <time>2013-05-16T15:53:53Z</time>
      </trkpt>
      <trkpt lat="59.9693771" lon="17.7174102">
        <ele>24.651</ele>
        <time>2013-05-16T15:53:54Z</time>
      </trkpt>
      <trkpt lat="59.969316" lon="17.7173784">
        <ele>25.1317</ele>
        <time>2013-05-16T15:53:55Z</time>
      </trkpt>
      <trkpt lat="59.9692555" lon="17.7173494">
        <ele>25.1317</ele>
        <time>2013-05-16T15:53:56Z</time>
      </trkpt>
      <trkpt lat="59.9691959" lon="17.7173228">
        <ele>25.1317</ele>
        <time>2013-05-16T15:53:57Z</time>
      </trkpt>
      <trkpt lat="59.9691367" lon="17.7173009">
        <ele>25.6123</ele>
        <time>2013-05-16T15:53:58Z</time>
      </trkpt>
      <trkpt lat="59.9690784" lon="17.7172781">
        <ele>25.6123</ele>
        <time>2013-05-16T15:53:59Z</time>
      </trkpt>
      <trkpt lat="59.9690207" lon="17.7172529">
        <ele>25.6123</ele>
        <time>2013-05-16T15:54:00Z</time>
      </trkpt>
      <trkpt lat="59.9689623" lon="17.7172296">
        <ele>25.6123</ele>
        <time>2013-05-16T15:54:01Z</time>
      </trkpt>
      <trkpt lat="59.9689036" lon="17.7172048">
        <ele>25.6123</ele>
        <time>2013-05-16T15:54:02Z</time>
      </trkpt>
      <trkpt lat="59.9688445" lon="17.7171773">
        <ele>25.6123</ele>
        <time>2013-05-16T15:54:03Z</time>
      </trkpt>
      <trkpt lat="59.9687846" lon="17.7171525">
        <ele>25.6123</ele>
        <time>2013-05-16T15:54:04Z</time>
      </trkpt>
      <trkpt lat="59.9687243" lon="17.7171289">
        <ele>25.6123</ele>
        <time>2013-05-16T15:54:05Z</time>
      </trkpt>
      <trkpt lat="59.9686637" lon="17.7171011">
        <ele>25.6123</ele>
        <time>2013-05-16T15:54:06Z</time>
      </trkpt>
      <trkpt lat="59.9686022" lon="17.7170716">
        <ele>25.6123</ele>
        <time>2013-05-16T15:54:07Z</time>
      </trkpt>
      <trkpt lat="59.9685392" lon="17.7170415">
        <ele>25.6123</ele>
        <time>2013-05-16T15:54:08Z</time>
      </trkpt>
      <trkpt lat="59.9684749" lon="17.7170069">
        <ele>25.1317</ele>
        <time>2013-05-16T15:54:09Z</time>
      </trkpt>
      <trkpt lat="59.9684092" lon="17.7169662">
        <ele>25.1317</ele>
        <time>2013-05-16T15:54:10Z</time>
      </trkpt>
      <trkpt lat="59.9683423" lon="17.7169198">
        <ele>25.1317</ele>
        <time>2013-05-16T15:54:11Z</time>
      </trkpt>
      <trkpt lat="59.968274" lon="17.7168668">
        <ele>25.1317</ele>
        <time>2013-05-16T15:54:12Z</time>
      </trkpt>
      <trkpt lat="59.9682058" lon="17.716806">
        <ele>24.651</ele>
        <time>2013-05-16T15:54:13Z</time>
      </trkpt>
      <trkpt lat="59.9681381" lon="17.716734">
        <ele>24.1703</ele>
        <time>2013-05-16T15:54:14Z</time>
      </trkpt>
      <trkpt lat="59.9680708" lon="17.716649">
        <ele>24.1703</ele>
        <time>2013-05-16T15:54:15Z</time>
      </trkpt>
      <trkpt lat="59.9680038" lon="17.7165525">
        <ele>23.6896</ele>
        <time>2013-05-16T15:54:16Z</time>
      </trkpt>
      <trkpt lat="59.9679367" lon="17.7164456">
        <ele>23.209</ele>
        <time>2013-05-16T15:54:17Z</time>
      </trkpt>
      <trkpt lat="59.9678735" lon="17.7163252">
        <ele>23.209</ele>
        <time>2013-05-16T15:54:18Z</time>
      </trkpt>
      <trkpt lat="59.9678082" lon="17.7161965">
        <ele>22.2476</ele>
        <time>2013-05-16T15:54:19Z</time>
      </trkpt>
      <trkpt lat="59.9677479" lon="17.7160535">
        <ele>21.767</ele>
        <time>2013-05-16T15:54:20Z</time>
      </trkpt>
      <trkpt lat="59.9676919" lon="17.7159004">
        <ele>21.2864</ele>
        <time>2013-05-16T15:54:21Z</time>
      </trkpt>
      <trkpt lat="59.9676407" lon="17.715738">
        <ele>21.2864</ele>
        <time>2013-05-16T15:54:22Z</time>
      </trkpt>
      <trkpt lat="59.9675926" lon="17.715572">
        <ele>20.8057</ele>
        <time>2013-05-16T15:54:23Z</time>
      </trkpt>
      <trkpt lat="59.9675485" lon="17.7154016">
        <ele>20.325</ele>
        <time>2013-05-16T15:54:24Z</time>
      </trkpt>
      <trkpt lat="59.9674994" lon="17.7152271">
        <ele>20.8057</ele>
        <time>2013-05-16T15:54:25Z</time>
      </trkpt>
      <trkpt lat="59.967485" lon="17.7149985">
        <ele>20.8057</ele>
        <time>2013-05-16T15:54:26Z</time>
      </trkpt>
      <trkpt lat="59.9674772" lon="17.7148265">
        <ele>21.2864</ele>
        <time>2013-05-16T15:54:27Z</time>
      </trkpt>
      <trkpt lat="59.9674518" lon="17.7146639">
        <ele>21.767</ele>
        <time>2013-05-16T15:54:28Z</time>
      </trkpt>
      <trkpt lat="59.9674337" lon="17.7145129">
        <ele>21.767</ele>
        <time>2013-05-16T15:54:29Z</time>
      </trkpt>
      <trkpt lat="59.9674216" lon="17.7143743">
        <ele>21.767</ele>
        <time>2013-05-16T15:54:30Z</time>
      </trkpt>
      <trkpt lat="59.9674113" lon="17.7142337">
        <ele>22.2476</ele>
        <time>2013-05-16T15:54:31Z</time>
      </trkpt>
      <trkpt lat="59.9673983" lon="17.7141008">
        <ele>22.7283</ele>
        <time>2013-05-16T15:54:32Z</time>
      </trkpt>
      <trkpt lat="59.9673835" lon="17.7139747">
        <ele>23.209</ele>
        <time>2013-05-16T15:54:33Z</time>
      </trkpt>
      <trkpt lat="59.9673777" lon="17.7138499">
        <ele>23.6896</ele>
        <time>2013-05-16T15:54:34Z</time>
      </trkpt>
      <trkpt lat="59.9673718" lon="17.7137413">
        <ele>23.6896</ele>
        <time>2013-05-16T15:54:35Z</time>
      </trkpt>
      <trkpt lat="59.9673616" lon="17.7136357">
        <ele>24.1703</ele>
        <time>2013-05-16T15:54:36Z</time>
      </trkpt>
      <trkpt lat="59.9673592" lon="17.7135287">
        <ele>24.1703</ele>
        <time>2013-05-16T15:54:37Z</time>
      </trkpt>
      <trkpt lat="59.9673466" lon="17.7134257">
        <ele>24.651</ele>
        <time>2013-05-16T15:54:38Z</time>
      </trkpt>
      <trkpt lat="59.9673284" lon="17.7133322">
        <ele>24.651</ele>
        <time>2013-05-16T15:54:39Z</time>
      </trkpt>
      <trkpt lat="59.9673103" lon="17.7132399">
        <ele>25.1317</ele>
        <time>2013-05-16T15:54:40Z</time>
      </trkpt>
      <trkpt lat="59.9672931" lon="17.7131487">
        <ele>25.1317</ele>
        <time>2013-05-16T15:54:41Z</time>
      </trkpt>
      <trkpt lat="59.9672746" lon="17.7130581">
        <ele>25.1317</ele>
        <time>2013-05-16T15:54:42Z</time>
      </trkpt>
      <trkpt lat="59.9672549" lon="17.7129672">
        <ele>25.1317</ele>
        <time>2013-05-16T15:54:43Z</time>
      </trkpt>
      <trkpt lat="59.9672346" lon="17.7128768">
        <ele>25.6123</ele>
        <time>2013-05-16T15:54:44Z</time>
      </trkpt>
      <trkpt lat="59.9672131" lon="17.7127871">
        <ele>25.6123</ele>
        <time>2013-05-16T15:54:45Z</time>
      </trkpt>
      <trkpt lat="59.9671911" lon="17.7126984">
        <ele>25.6123</ele>
        <time>2013-05-16T15:54:46Z</time>
      </trkpt>
      <trkpt lat="59.9671679" lon="17.7126115">
        <ele>26.0929</ele>
        <time>2013-05-16T15:54:47Z</time>
      </trkpt>
      <trkpt lat="59.9671439" lon="17.7125253">
        <ele>26.0929</ele>
        <time>2013-05-16T15:54:48Z</time>
      </trkpt>
      <trkpt lat="59.9671192" lon="17.7124388">
        <ele>26.5736</ele>
        <time>2013-05-16T15:54:49Z</time>
      </trkpt>
      <trkpt lat="59.9670912" lon="17.7123556">
        <ele>27.0543</ele>
        <time>2013-05-16T15:54:50Z</time>
      </trkpt>
      <trkpt lat="59.9670601" lon="17.7122746">
        <ele>27.0543</ele>
        <time>2013-05-16T15:54:51Z</time>
      </trkpt>
      <trkpt lat="59.9670269" lon="17.7121931">
        <ele>27.5349</ele>
        <time>2013-05-16T15:54:52Z</time>
      </trkpt>
      <trkpt lat="59.9669928" lon="17.7121101">
        <ele>27.5349</ele>
        <time>2013-05-16T15:54:53Z</time>
      </trkpt>
      <trkpt lat="59.9669567" lon="17.712026">
        <ele>27.5349</ele>
        <time>2013-05-16T15:54:54Z</time>
      </trkpt>
      <trkpt lat="59.9669207" lon="17.7119397">
        <ele>27.0543</ele>
        <time>2013-05-16T15:54:55Z</time>
      </trkpt>
      <trkpt lat="59.9668883" lon="17.7118481">
        <ele>27.0543</ele>
        <time>2013-05-16T15:54:56Z</time>
      </trkpt>
      <trkpt lat="59.9668566" lon="17.7117563">
        <ele>27.0543</ele>
        <time>2013-05-16T15:54:57Z</time>
      </trkpt>
      <trkpt lat="59.966824" lon="17.7116639">
        <ele>26.5736</ele>
        <time>2013-05-16T15:54:58Z</time>
      </trkpt>
      <trkpt lat="59.9667883" lon="17.7115691">
        <ele>26.5736</ele>
        <time>2013-05-16T15:54:59Z</time>
      </trkpt>
      <trkpt lat="59.9667523" lon="17.7114745">
        <ele>26.0929</ele>
        <time>2013-05-16T15:55:00Z</time>
      </trkpt>
      <trkpt lat="59.9667156" lon="17.7113756">
        <ele>26.0929</ele>
        <time>2013-05-16T15:55:01Z</time>
      </trkpt>
      <trkpt lat="59.9666793" lon="17.7112751">
        <ele>26.0929</ele>
        <time>2013-05-16T15:55:02Z</time>
      </trkpt>
      <trkpt lat="59.9666487" lon="17.7111699">
        <ele>26.0929</ele>
        <time>2013-05-16T15:55:03Z</time>
      </trkpt>
      <trkpt lat="59.9666195" lon="17.7110642">
        <ele>25.6123</ele>
        <time>2013-05-16T15:55:04Z</time>
      </trkpt>
      <trkpt lat="59.9665889" lon="17.7109584">
        <ele>25.6123</ele>
        <time>2013-05-16T15:55:05Z</time>
      </trkpt>
      <trkpt lat="59.9665577" lon="17.7108537">
        <ele>25.6123</ele>
        <time>2013-05-16T15:55:06Z</time>
      </trkpt>
      <trkpt lat="59.9665282" lon="17.7107488">
        <ele>25.1317</ele>
        <time>2013-05-16T15:55:07Z</time>
      </trkpt>
      <trkpt lat="59.9664997" lon="17.7106429">
        <ele>24.651</ele>
        <time>2013-05-16T15:55:08Z</time>
      </trkpt>
      <trkpt lat="59.9664706" lon="17.7105353">
        <ele>24.1703</ele>
        <time>2013-05-16T15:55:09Z</time>
      </trkpt>
      <trkpt lat="59.9664395" lon="17.7104266">
        <ele>23.6896</ele>
        <time>2013-05-16T15:55:10Z</time>
      </trkpt>
      <trkpt lat="59.9664058" lon="17.710315">
        <ele>23.6896</ele>
        <time>2013-05-16T15:55:11Z</time>
      </trkpt>
      <trkpt lat="59.9663697" lon="17.7102017">
        <ele>23.209</ele>
        <time>2013-05-16T15:55:12Z</time>
      </trkpt>
      <trkpt lat="59.966335" lon="17.7100852">
        <ele>23.209</ele>
        <time>2013-05-16T15:55:13Z</time>
      </trkpt>
      <trkpt lat="59.9662992" lon="17.7099686">
        <ele>23.209</ele>
        <time>2013-05-16T15:55:14Z</time>
      </trkpt>
      <trkpt lat="59.9662653" lon="17.7098508">
        <ele>22.7283</ele>
        <time>2013-05-16T15:55:15Z</time>
      </trkpt>
      <trkpt lat="59.9662318" lon="17.7097323">
        <ele>22.7283</ele>
        <time>2013-05-16T15:55:16Z</time>
      </trkpt>
      <trkpt lat="59.9661978" lon="17.7096154">
        <ele>22.7283</ele>
        <time>2013-05-16T15:55:17Z</time>
      </trkpt>
      <trkpt lat="59.9661626" lon="17.7094967">
        <ele>22.7283</ele>
        <time>2013-05-16T15:55:18Z</time>
      </trkpt>
      <trkpt lat="59.9661251" lon="17.7093766">
        <ele>22.2476</ele>
        <time>2013-05-16T15:55:19Z</time>
      </trkpt>
      <trkpt lat="59.9660878" lon="17.7092552">
        <ele>22.2476</ele>
        <time>2013-05-16T15:55:20Z</time>
      </trkpt>
      <trkpt lat="59.9660516" lon="17.7091322">
        <ele>22.2476</ele>
        <time>2013-05-16T15:55:21Z</time>
      </trkpt>
      <trkpt lat="59.9660137" lon="17.7090078">
        <ele>22.2476</ele>
        <time>2013-05-16T15:55:22Z</time>
      </trkpt>
      <trkpt lat="59.9659755" lon="17.7088834">
        <ele>22.2476</ele>
        <time>2013-05-16T15:55:23Z</time>
      </trkpt>
      <trkpt lat="59.9659361" lon="17.7087591">
        <ele>22.7283</ele>
        <time>2013-05-16T15:55:24Z</time>
      </trkpt>
      <trkpt lat="59.9658936" lon="17.7086389">
        <ele>22.7283</ele>
        <time>2013-05-16T15:55:25Z</time>
      </trkpt>
      <trkpt lat="59.9658501" lon="17.7085216">
        <ele>22.7283</ele>
        <time>2013-05-16T15:55:26Z</time>
      </trkpt>
      <trkpt lat="59.9658029" lon="17.7084111">
        <ele>22.7283</ele>
        <time>2013-05-16T15:55:27Z</time>
      </trkpt>
      <trkpt lat="59.9657522" lon="17.7083084">
        <ele>22.7283</ele>
        <time>2013-05-16T15:55:28Z</time>
      </trkpt>
      <trkpt lat="59.9656976" lon="17.7082148">
        <ele>22.7283</ele>
        <time>2013-05-16T15:55:29Z</time>
      </trkpt>
      <trkpt lat="59.9656397" lon="17.7081317">
        <ele>22.7283</ele>
        <time>2013-05-16T15:55:30Z</time>
      </trkpt>
      <trkpt lat="59.9655793" lon="17.7080572">
        <ele>22.7283</ele>
        <time>2013-05-16T15:55:31Z</time>
      </trkpt>
      <trkpt lat="59.9655184" lon="17.7079893">
        <ele>22.7283</ele>
        <time>2013-05-16T15:55:32Z</time>
      </trkpt>
      <trkpt lat="59.9654549" lon="17.7079293">
        <ele>22.7283</ele>
        <time>2013-05-16T15:55:33Z</time>
      </trkpt>
      <trkpt lat="59.9653902" lon="17.7078759">
        <ele>22.7283</ele>
        <time>2013-05-16T15:55:34Z</time>
      </trkpt>
      <trkpt lat="59.9653255" lon="17.7078251">
        <ele>23.209</ele>
        <time>2013-05-16T15:55:35Z</time>
      </trkpt>
      <trkpt lat="59.9652611" lon="17.707776">
        <ele>23.209</ele>
        <time>2013-05-16T15:55:36Z</time>
      </trkpt>
      <trkpt lat="59.9651973" lon="17.7077275">
        <ele>23.6896</ele>
        <time>2013-05-16T15:55:37Z</time>
      </trkpt>
      <trkpt lat="59.965134" lon="17.707678">
        <ele>23.6896</ele>
        <time>2013-05-16T15:55:38Z</time>
      </trkpt>
      <trkpt lat="59.9650708" lon="17.7076298">
        <ele>23.6896</ele>
        <time>2013-05-16T15:55:39Z</time>
      </trkpt>
      <trkpt lat="59.9650067" lon="17.7075848">
        <ele>24.1703</ele>
        <time>2013-05-16T15:55:40Z</time>
      </trkpt>
      <trkpt lat="59.9649426" lon="17.7075422">
        <ele>24.651</ele>
        <time>2013-05-16T15:55:41Z</time>
      </trkpt>
      <trkpt lat="59.9648799" lon="17.7074998">
        <ele>24.651</ele>
        <time>2013-05-16T15:55:42Z</time>
      </trkpt>
      <trkpt lat="59.9648189" lon="17.7074568">
        <ele>25.1317</ele>
        <time>2013-05-16T15:55:43Z</time>
      </trkpt>
      <trkpt lat="59.9647592" lon="17.7074129">
        <ele>25.1317</ele>
        <time>2013-05-16T15:55:44Z</time>
      </trkpt>
      <trkpt lat="59.9646992" lon="17.7073732">
        <ele>25.6123</ele>
        <time>2013-05-16T15:55:45Z</time>
      </trkpt>
      <trkpt lat="59.9646388" lon="17.7073371">
        <ele>25.6123</ele>
        <time>2013-05-16T15:55:46Z</time>
      </trkpt>
      <trkpt lat="59.964579" lon="17.7073012">
        <ele>25.6123</ele>
        <time>2013-05-16T15:55:47Z</time>
      </trkpt>
      <trkpt lat="59.9645189" lon="17.707268">
        <ele>25.6123</ele>
        <time>2013-05-16T15:55:48Z</time>
      </trkpt>
      <trkpt lat="59.9644572" lon="17.7072409">
        <ele>26.0929</ele>
        <time>2013-05-16T15:55:49Z</time>
      </trkpt>
      <trkpt lat="59.9643954" lon="17.7072153">
        <ele>26.0929</ele>
        <time>2013-05-16T15:55:50Z</time>
      </trkpt>
      <trkpt lat="59.9643333" lon="17.7071917">
        <ele>26.0929</ele>
        <time>2013-05-16T15:55:51Z</time>
      </trkpt>
      <trkpt lat="59.964271" lon="17.7071703">
        <ele>26.0929</ele>
        <time>2013-05-16T15:55:52Z</time>
      </trkpt>
      <trkpt lat="59.964209" lon="17.7071517">
        <ele>26.5736</ele>
        <time>2013-05-16T15:55:53Z</time>
      </trkpt>
      <trkpt lat="59.9641467" lon="17.7071354">
        <ele>26.5736</ele>
        <time>2013-05-16T15:55:54Z</time>
      </trkpt>
      <trkpt lat="59.9640845" lon="17.7071196">
        <ele>26.5736</ele>
        <time>2013-05-16T15:55:55Z</time>
      </trkpt>
      <trkpt lat="59.9640215" lon="17.7071073">
        <ele>26.5736</ele>
        <time>2013-05-16T15:55:56Z</time>
      </trkpt>
      <trkpt lat="59.9639571" lon="17.7070964">
        <ele>26.5736</ele>
        <time>2013-05-16T15:55:57Z</time>
      </trkpt>
      <trkpt lat="59.9638916" lon="17.707084">
        <ele>26.5736</ele>
        <time>2013-05-16T15:55:58Z</time>
      </trkpt>
      <trkpt lat="59.9638251" lon="17.7070757">
        <ele>26.5736</ele>
        <time>2013-05-16T15:55:59Z</time>
      </trkpt>
      <trkpt lat="59.9637572" lon="17.7070694">
        <ele>26.5736</ele>
        <time>2013-05-16T15:56:00Z</time>
      </trkpt>
      <trkpt lat="59.963689" lon="17.7070652">
        <ele>26.5736</ele>
        <time>2013-05-16T15:56:01Z</time>
      </trkpt>
      <trkpt lat="59.9636207" lon="17.7070611">
        <ele>26.5736</ele>
        <time>2013-05-16T15:56:02Z</time>
      </trkpt>
      <trkpt lat="59.9635521" lon="17.7070543">
        <ele>26.5736</ele>
        <time>2013-05-16T15:56:03Z</time>
      </trkpt>
      <trkpt lat="59.9634838" lon="17.7070482">
        <ele>26.5736</ele>
        <time>2013-05-16T15:56:04Z</time>
      </trkpt>
      <trkpt lat="59.9634159" lon="17.7070446">
        <ele>26.5736</ele>
        <time>2013-05-16T15:56:05Z</time>
      </trkpt>
      <trkpt lat="59.9633489" lon="17.707043">
        <ele>26.5736</ele>
        <time>2013-05-16T15:56:06Z</time>
      </trkpt>
      <trkpt lat="59.9632828" lon="17.7070414">
        <ele>26.0929</ele>
        <time>2013-05-16T15:56:07Z</time>
      </trkpt>
      <trkpt lat="59.9632174" lon="17.7070396">
        <ele>26.0929</ele>
        <time>2013-05-16T15:56:08Z</time>
      </trkpt>
      <trkpt lat="59.9631519" lon="17.7070372">
        <ele>26.5736</ele>
        <time>2013-05-16T15:56:09Z</time>
      </trkpt>
      <trkpt lat="59.9630875" lon="17.707035">
        <ele>26.5736</ele>
        <time>2013-05-16T15:56:10Z</time>
      </trkpt>
      <trkpt lat="59.9630228" lon="17.7070376">
        <ele>27.0543</ele>
        <time>2013-05-16T15:56:11Z</time>
      </trkpt>
      <trkpt lat="59.9629576" lon="17.7070438">
        <ele>27.5349</ele>
        <time>2013-05-16T15:56:12Z</time>
      </trkpt>
      <trkpt lat="59.9628949" lon="17.7070446">
        <ele>27.5349</ele>
        <time>2013-05-16T15:56:13Z</time>
      </trkpt>
      <trkpt lat="59.9628326" lon="17.7070429">
        <ele>27.5349</ele>
        <time>2013-05-16T15:56:14Z</time>
      </trkpt>
      <trkpt lat="59.9627719" lon="17.7070376">
        <ele>28.0155</ele>
        <time>2013-05-16T15:56:15Z</time>
      </trkpt>
      <trkpt lat="59.962712" lon="17.7070351">
        <ele>28.0155</ele>
        <time>2013-05-16T15:56:16Z</time>
      </trkpt>
      <trkpt lat="59.962654" lon="17.7070258">
        <ele>28.4962</ele>
        <time>2013-05-16T15:56:17Z</time>
      </trkpt>
      <trkpt lat="59.9625964" lon="17.7070103">
        <ele>28.4962</ele>
        <time>2013-05-16T15:56:18Z</time>
      </trkpt>
      <trkpt lat="59.962539" lon="17.7069904">
        <ele>28.4962</ele>
        <time>2013-05-16T15:56:19Z</time>
      </trkpt>
      <trkpt lat="59.9624811" lon="17.7069681">
        <ele>28.4962</ele>
        <time>2013-05-16T15:56:20Z</time>
      </trkpt>
      <trkpt lat="59.9624233" lon="17.7069451">
        <ele>28.4962</ele>
        <time>2013-05-16T15:56:21Z</time>
      </trkpt>
      <trkpt lat="59.9623642" lon="17.7069231">
        <ele>28.9769</ele>
        <time>2013-05-16T15:56:22Z</time>
      </trkpt>
      <trkpt lat="59.9623043" lon="17.7068984">
        <ele>28.9769</ele>
        <time>2013-05-16T15:56:23Z</time>
      </trkpt>
      <trkpt lat="59.9622461" lon="17.7068658">
        <ele>28.9769</ele>
        <time>2013-05-16T15:56:24Z</time>
      </trkpt>
      <trkpt lat="59.962187" lon="17.706833">
        <ele>28.9769</ele>
        <time>2013-05-16T15:56:25Z</time>
      </trkpt>
      <trkpt lat="59.9621265" lon="17.7067987">
        <ele>28.4962</ele>
        <time>2013-05-16T15:56:26Z</time>
      </trkpt>
      <trkpt lat="59.9620656" lon="17.7067622">
        <ele>28.4962</ele>
        <time>2013-05-16T15:56:27Z</time>
      </trkpt>
      <trkpt lat="59.9620049" lon="17.7067233">
        <ele>28.9769</ele>
        <time>2013-05-16T15:56:28Z</time>
      </trkpt>
      <trkpt lat="59.9619437" lon="17.7066825">
        <ele>28.9769</ele>
        <time>2013-05-16T15:56:29Z</time>
      </trkpt>
      <trkpt lat="59.9618821" lon="17.7066398">
        <ele>28.4962</ele>
        <time>2013-05-16T15:56:30Z</time>
      </trkpt>
      <trkpt lat="59.9618206" lon="17.7065936">
        <ele>28.4962</ele>
        <time>2013-05-16T15:56:31Z</time>
      </trkpt>
      <trkpt lat="59.9617607" lon="17.7065403">
        <ele>28.4962</ele>
        <time>2013-05-16T15:56:32Z</time>
      </trkpt>
      <trkpt lat="59.9617014" lon="17.7064783">
        <ele>28.4962</ele>
        <time>2013-05-16T15:56:33Z</time>
      </trkpt>
      <trkpt lat="59.9616416" lon="17.7064141">
        <ele>28.4962</ele>
        <time>2013-05-16T15:56:34Z</time>
      </trkpt>
      <trkpt lat="59.9615825" lon="17.7063457">
        <ele>28.4962</ele>
        <time>2013-05-16T15:56:35Z</time>
      </trkpt>
      <trkpt lat="59.9615262" lon="17.7062685">
        <ele>28.4962</ele>
        <time>2013-05-16T15:56:36Z</time>
      </trkpt>
      <trkpt lat="59.9614709" lon="17.7061857">
        <ele>28.4962</ele>
        <time>2013-05-16T15:56:37Z</time>
      </trkpt>
      <trkpt lat="59.9614173" lon="17.7060971">
        <ele>28.4962</ele>
        <time>2013-05-16T15:56:38Z</time>
      </trkpt>
      <trkpt lat="59.9613641" lon="17.7060048">
        <ele>28.4962</ele>
        <time>2013-05-16T15:56:39Z</time>
      </trkpt>
      <trkpt lat="59.9613134" lon="17.7059089">
        <ele>28.4962</ele>
        <time>2013-05-16T15:56:40Z</time>
      </trkpt>
      <trkpt lat="59.9612621" lon="17.7058127">
        <ele>28.4962</ele>
        <time>2013-05-16T15:56:41Z</time>
      </trkpt>
      <trkpt lat="59.9612096" lon="17.7057167">
        <ele>28.9769</ele>
        <time>2013-05-16T15:56:42Z</time>
      </trkpt>
      <trkpt lat="59.9611678" lon="17.7056058">
        <ele>28.9769</ele>
        <time>2013-05-16T15:56:43Z</time>
      </trkpt>
      <trkpt lat="59.9611086" lon="17.7055118">
        <ele>29.4575</ele>
        <time>2013-05-16T15:56:44Z</time>
      </trkpt>
      <trkpt lat="59.9610518" lon="17.7054226">
        <ele>29.4575</ele>
        <time>2013-05-16T15:56:45Z</time>
      </trkpt>
      <trkpt lat="59.9609908" lon="17.7053339">
        <ele>28.9769</ele>
        <time>2013-05-16T15:56:46Z</time>
      </trkpt>
      <trkpt lat="59.9609288" lon="17.7052483">
        <ele>28.9769</ele>
        <time>2013-05-16T15:56:47Z</time>
      </trkpt>
      <trkpt lat="59.9608727" lon="17.7051801">
        <ele>29.9381</ele>
        <time>2013-05-16T15:56:48Z</time>
      </trkpt>
      <trkpt lat="59.9608084" lon="17.7051007">
        <ele>29.9381</ele>
        <time>2013-05-16T15:56:49Z</time>
      </trkpt>
      <trkpt lat="59.9607419" lon="17.7050237">
        <ele>30.4188</ele>
        <time>2013-05-16T15:56:50Z</time>
      </trkpt>
      <trkpt lat="59.9606783" lon="17.7049428">
        <ele>30.4188</ele>
        <time>2013-05-16T15:56:51Z</time>
      </trkpt>
      <trkpt lat="59.9606133" lon="17.7048569">
        <ele>29.9381</ele>
        <time>2013-05-16T15:56:52Z</time>
      </trkpt>
      <trkpt lat="59.9605484" lon="17.7047762">
        <ele>29.9381</ele>
        <time>2013-05-16T15:56:53Z</time>
      </trkpt>
      <trkpt lat="59.9604835" lon="17.7046963">
        <ele>29.9381</ele>
        <time>2013-05-16T15:56:54Z</time>
      </trkpt>
      <trkpt lat="59.9604176" lon="17.7046159">
        <ele>29.4575</ele>
        <time>2013-05-16T15:56:55Z</time>
      </trkpt>
      <trkpt lat="59.9603519" lon="17.7045362">
        <ele>29.4575</ele>
        <time>2013-05-16T15:56:56Z</time>
      </trkpt>
      <trkpt lat="59.9602868" lon="17.7044585">
        <ele>28.9769</ele>
        <time>2013-05-16T15:56:57Z</time>
      </trkpt>
      <trkpt lat="59.9602174" lon="17.704384">
        <ele>28.9769</ele>
        <time>2013-05-16T15:56:58Z</time>
      </trkpt>
      <trkpt lat="59.9601549" lon="17.7043047">
        <ele>28.9769</ele>
        <time>2013-05-16T15:56:59Z</time>
      </trkpt>
      <trkpt lat="59.9600929" lon="17.7042244">
        <ele>28.9769</ele>
        <time>2013-05-16T15:57:00Z</time>
      </trkpt>
      <trkpt lat="59.9600425" lon="17.7041312">
        <ele>28.9769</ele>
        <time>2013-05-16T15:57:01Z</time>
      </trkpt>
      <trkpt lat="59.9599956" lon="17.7040328">
        <ele>28.9769</ele>
        <time>2013-05-16T15:57:02Z</time>
      </trkpt>
      <trkpt lat="59.9599489" lon="17.7039318">
        <ele>28.0155</ele>
        <time>2013-05-16T15:57:03Z</time>
      </trkpt>
      <trkpt lat="59.9598878" lon="17.7038147">
        <ele>28.4962</ele>
        <time>2013-05-16T15:57:04Z</time>
      </trkpt>
      <trkpt lat="59.9598298" lon="17.7037093">
        <ele>28.4962</ele>
        <time>2013-05-16T15:57:05Z</time>
      </trkpt>
      <trkpt lat="59.959821" lon="17.7035858">
        <ele>28.9769</ele>
        <time>2013-05-16T15:57:06Z</time>
      </trkpt>
      <trkpt lat="59.9597955" lon="17.7034749">
        <ele>28.4962</ele>
        <time>2013-05-16T15:57:07Z</time>
      </trkpt>
      <trkpt lat="59.9597597" lon="17.7033583">
        <ele>28.0155</ele>
        <time>2013-05-16T15:57:08Z</time>
      </trkpt>
      <trkpt lat="59.9597345" lon="17.7032428">
        <ele>27.0543</ele>
        <time>2013-05-16T15:57:09Z</time>
      </trkpt>
      <trkpt lat="59.9597008" lon="17.7031282">
        <ele>27.0543</ele>
        <time>2013-05-16T15:57:10Z</time>
      </trkpt>
      <trkpt lat="59.959683" lon="17.7030035">
        <ele>28.0155</ele>
        <time>2013-05-16T15:57:11Z</time>
      </trkpt>
      <trkpt lat="59.9596564" lon="17.702888">
        <ele>28.9769</ele>
        <time>2013-05-16T15:57:12Z</time>
      </trkpt>
      <trkpt lat="59.959616" lon="17.7027833">
        <ele>29.4575</ele>
        <time>2013-05-16T15:57:13Z</time>
      </trkpt>
      <trkpt lat="59.9595826" lon="17.7026754">
        <ele>29.9381</ele>
        <time>2013-05-16T15:57:14Z</time>
      </trkpt>
      <trkpt lat="59.9595522" lon="17.7025637">
        <ele>30.8995</ele>
        <time>2013-05-16T15:57:15Z</time>
      </trkpt>
      <trkpt lat="59.9595237" lon="17.7024497">
        <ele>31.8607</ele>
        <time>2013-05-16T15:57:16Z</time>
      </trkpt>
      <trkpt lat="59.9594895" lon="17.7023424">
        <ele>32.3416</ele>
        <time>2013-05-16T15:57:17Z</time>
      </trkpt>
      <trkpt lat="59.9594564" lon="17.7022325">
        <ele>32.3416</ele>
        <time>2013-05-16T15:57:18Z</time>
      </trkpt>
      <trkpt lat="59.9594268" lon="17.7021183">
        <ele>32.8223</ele>
        <time>2013-05-16T15:57:19Z</time>
      </trkpt>
      <trkpt lat="59.9593982" lon="17.7020026">
        <ele>32.8223</ele>
        <time>2013-05-16T15:57:20Z</time>
      </trkpt>
      <trkpt lat="59.959368" lon="17.7018867">
        <ele>32.8223</ele>
        <time>2013-05-16T15:57:21Z</time>
      </trkpt>
      <trkpt lat="59.9593411" lon="17.7017704">
        <ele>32.8223</ele>
        <time>2013-05-16T15:57:22Z</time>
      </trkpt>
      <trkpt lat="59.9593153" lon="17.701655">
        <ele>32.8223</ele>
        <time>2013-05-16T15:57:23Z</time>
      </trkpt>
      <trkpt lat="59.9592888" lon="17.7015383">
        <ele>33.3029</ele>
        <time>2013-05-16T15:57:24Z</time>
      </trkpt>
      <trkpt lat="59.9592636" lon="17.7014158">
        <ele>33.3029</ele>
        <time>2013-05-16T15:57:25Z</time>
      </trkpt>
      <trkpt lat="59.9592413" lon="17.7012856">
        <ele>31.8607</ele>
        <time>2013-05-16T15:57:26Z</time>
      </trkpt>
      <trkpt lat="59.9592225" lon="17.7011521">
        <ele>30.8995</ele>
        <time>2013-05-16T15:57:27Z</time>
      </trkpt>
      <trkpt lat="59.9592051" lon="17.7010162">
        <ele>29.9381</ele>
        <time>2013-05-16T15:57:28Z</time>
      </trkpt>
      <trkpt lat="59.9591895" lon="17.7008758">
        <ele>28.9769</ele>
        <time>2013-05-16T15:57:29Z</time>
      </trkpt>
      <trkpt lat="59.9591753" lon="17.7007336">
        <ele>28.0155</ele>
        <time>2013-05-16T15:57:30Z</time>
      </trkpt>
      <trkpt lat="59.95916" lon="17.7005907">
        <ele>27.0543</ele>
        <time>2013-05-16T15:57:31Z</time>
      </trkpt>
      <trkpt lat="59.9591445" lon="17.7004476">
        <ele>26.5736</ele>
        <time>2013-05-16T15:57:32Z</time>
      </trkpt>
      <trkpt lat="59.9591313" lon="17.7003052">
        <ele>26.0929</ele>
        <time>2013-05-16T15:57:33Z</time>
      </trkpt>
      <trkpt lat="59.9591204" lon="17.7001642">
        <ele>26.0929</ele>
        <time>2013-05-16T15:57:34Z</time>
      </trkpt>
      <trkpt lat="59.9591081" lon="17.7000263">
        <ele>25.6123</ele>
        <time>2013-05-16T15:57:35Z</time>
      </trkpt>
      <trkpt lat="59.9590935" lon="17.6998909">
        <ele>25.1317</ele>
        <time>2013-05-16T15:57:36Z</time>
      </trkpt>
      <trkpt lat="59.9590797" lon="17.6997553">
        <ele>25.1317</ele>
        <time>2013-05-16T15:57:37Z</time>
      </trkpt>
      <trkpt lat="59.9590678" lon="17.6996193">
        <ele>24.651</ele>
        <time>2013-05-16T15:57:38Z</time>
      </trkpt>
      <trkpt lat="59.9590593" lon="17.699484">
        <ele>24.651</ele>
        <time>2013-05-16T15:57:39Z</time>
      </trkpt>
      <trkpt lat="59.9590539" lon="17.6993495">
        <ele>24.651</ele>
        <time>2013-05-16T15:57:40Z</time>
      </trkpt>
      <trkpt lat="59.9590472" lon="17.6992158">
        <ele>24.651</ele>
        <time>2013-05-16T15:57:41Z</time>
      </trkpt>
      <trkpt lat="59.9590401" lon="17.6990819">
        <ele>24.651</ele>
        <time>2013-05-16T15:57:42Z</time>
      </trkpt>
      <trkpt lat="59.9590362" lon="17.6989489">
        <ele>24.651</ele>
        <time>2013-05-16T15:57:43Z</time>
      </trkpt>
      <trkpt lat="59.9590337" lon="17.6988155">
        <ele>24.1703</ele>
        <time>2013-05-16T15:57:44Z</time>
      </trkpt>
      <trkpt lat="59.9590316" lon="17.6986812">
        <ele>24.1703</ele>
        <time>2013-05-16T15:57:45Z</time>
      </trkpt>
      <trkpt lat="59.9590299" lon="17.6985464">
        <ele>24.1703</ele>
        <time>2013-05-16T15:57:46Z</time>
      </trkpt>
      <trkpt lat="59.9590277" lon="17.6984106">
        <ele>24.1703</ele>
        <time>2013-05-16T15:57:47Z</time>
      </trkpt>
      <trkpt lat="59.9590243" lon="17.6982715">
        <ele>24.1703</ele>
        <time>2013-05-16T15:57:48Z</time>
      </trkpt>
      <trkpt lat="59.95902" lon="17.6981289">
        <ele>24.1703</ele>
        <time>2013-05-16T15:57:49Z</time>
      </trkpt>
      <trkpt lat="59.9590107" lon="17.6979863">
        <ele>23.6896</ele>
        <time>2013-05-16T15:57:50Z</time>
      </trkpt>
      <trkpt lat="59.9589968" lon="17.6978416">
        <ele>23.6896</ele>
        <time>2013-05-16T15:57:51Z</time>
      </trkpt>
      <trkpt lat="59.95898" lon="17.6976907">
        <ele>23.209</ele>
        <time>2013-05-16T15:57:52Z</time>
      </trkpt>
      <trkpt lat="59.9589606" lon="17.6975339">
        <ele>22.7283</ele>
        <time>2013-05-16T15:57:53Z</time>
      </trkpt>
      <trkpt lat="59.9589368" lon="17.6973763">
        <ele>22.2476</ele>
        <time>2013-05-16T15:57:54Z</time>
      </trkpt>
      <trkpt lat="59.9589093" lon="17.6972184">
        <ele>22.2476</ele>
        <time>2013-05-16T15:57:55Z</time>
      </trkpt>
      <trkpt lat="59.9588806" lon="17.697061">
        <ele>22.2476</ele>
        <time>2013-05-16T15:57:56Z</time>
      </trkpt>
      <trkpt lat="59.9588497" lon="17.696906">
        <ele>21.767</ele>
        <time>2013-05-16T15:57:57Z</time>
      </trkpt>
      <trkpt lat="59.9588159" lon="17.6967563">
        <ele>21.767</ele>
        <time>2013-05-16T15:57:58Z</time>
      </trkpt>
      <trkpt lat="59.9587793" lon="17.6966129">
        <ele>21.767</ele>
        <time>2013-05-16T15:57:59Z</time>
      </trkpt>
      <trkpt lat="59.9587404" lon="17.696476">
        <ele>21.767</ele>
        <time>2013-05-16T15:58:00Z</time>
      </trkpt>
      <trkpt lat="59.9586989" lon="17.6963454">
        <ele>21.767</ele>
        <time>2013-05-16T15:58:01Z</time>
      </trkpt>
      <trkpt lat="59.9586554" lon="17.6962201">
        <ele>21.767</ele>
        <time>2013-05-16T15:58:02Z</time>
      </trkpt>
      <trkpt lat="59.9586107" lon="17.696098">
        <ele>21.2864</ele>
        <time>2013-05-16T15:58:03Z</time>
      </trkpt>
      <trkpt lat="59.9585648" lon="17.6959767">
        <ele>21.2864</ele>
        <time>2013-05-16T15:58:04Z</time>
      </trkpt>
      <trkpt lat="59.9585172" lon="17.695857">
        <ele>21.2864</ele>
        <time>2013-05-16T15:58:05Z</time>
      </trkpt>
      <trkpt lat="59.9584685" lon="17.6957368">
        <ele>21.2864</ele>
        <time>2013-05-16T15:58:06Z</time>
      </trkpt>
      <trkpt lat="59.9584192" lon="17.6956146">
        <ele>21.2864</ele>
        <time>2013-05-16T15:58:07Z</time>
      </trkpt>
      <trkpt lat="59.9583711" lon="17.6954918">
        <ele>20.8057</ele>
        <time>2013-05-16T15:58:08Z</time>
      </trkpt>
      <trkpt lat="59.9583239" lon="17.6953701">
        <ele>20.8057</ele>
        <time>2013-05-16T15:58:09Z</time>
      </trkpt>
      <trkpt lat="59.9582761" lon="17.6952488">
        <ele>20.8057</ele>
        <time>2013-05-16T15:58:10Z</time>
      </trkpt>
      <trkpt lat="59.9582284" lon="17.695128">
        <ele>20.8057</ele>
        <time>2013-05-16T15:58:11Z</time>
      </trkpt>
      <trkpt lat="59.9581814" lon="17.695008">
        <ele>20.8057</ele>
        <time>2013-05-16T15:58:12Z</time>
      </trkpt>
      <trkpt lat="59.9581358" lon="17.6948877">
        <ele>20.8057</ele>
        <time>2013-05-16T15:58:13Z</time>
      </trkpt>
      <trkpt lat="59.9580917" lon="17.694765">
        <ele>20.8057</ele>
        <time>2013-05-16T15:58:14Z</time>
      </trkpt>
      <trkpt lat="59.9580483" lon="17.6946413">
        <ele>20.8057</ele>
        <time>2013-05-16T15:58:15Z</time>
      </trkpt>
      <trkpt lat="59.9580054" lon="17.6945142">
        <ele>20.8057</ele>
        <time>2013-05-16T15:58:16Z</time>
      </trkpt>
      <trkpt lat="59.9579623" lon="17.6943868">
        <ele>20.8057</ele>
        <time>2013-05-16T15:58:17Z</time>
      </trkpt>
      <trkpt lat="59.9579179" lon="17.6942603">
        <ele>20.8057</ele>
        <time>2013-05-16T15:58:18Z</time>
      </trkpt>
      <trkpt lat="59.9578728" lon="17.6941327">
        <ele>20.8057</ele>
        <time>2013-05-16T15:58:19Z</time>
      </trkpt>
      <trkpt lat="59.9578282" lon="17.6940041">
        <ele>20.8057</ele>
        <time>2013-05-16T15:58:20Z</time>
      </trkpt>
      <trkpt lat="59.957784" lon="17.6938766">
        <ele>20.8057</ele>
        <time>2013-05-16T15:58:21Z</time>
      </trkpt>
      <trkpt lat="59.9577397" lon="17.6937504">
        <ele>20.8057</ele>
        <time>2013-05-16T15:58:22Z</time>
      </trkpt>
      <trkpt lat="59.9576955" lon="17.6936244">
        <ele>20.8057</ele>
        <time>2013-05-16T15:58:23Z</time>
      </trkpt>
      <trkpt lat="59.9576512" lon="17.6934986">
        <ele>20.8057</ele>
        <time>2013-05-16T15:58:24Z</time>
      </trkpt>
      <trkpt lat="59.9576075" lon="17.6933736">
        <ele>20.8057</ele>
        <time>2013-05-16T15:58:25Z</time>
      </trkpt>
      <trkpt lat="59.9575638" lon="17.6932497">
        <ele>20.325</ele>
        <time>2013-05-16T15:58:26Z</time>
      </trkpt>
      <trkpt lat="59.9575201" lon="17.6931249">
        <ele>20.325</ele>
        <time>2013-05-16T15:58:27Z</time>
      </trkpt>
      <trkpt lat="59.9574761" lon="17.6929989">
        <ele>20.8057</ele>
        <time>2013-05-16T15:58:28Z</time>
      </trkpt>
      <trkpt lat="59.9574325" lon="17.6928712">
        <ele>20.8057</ele>
        <time>2013-05-16T15:58:29Z</time>
      </trkpt>
      <trkpt lat="59.9573887" lon="17.6927438">
        <ele>20.8057</ele>
        <time>2013-05-16T15:58:30Z</time>
      </trkpt>
      <trkpt lat="59.9573439" lon="17.6926172">
        <ele>20.8057</ele>
        <time>2013-05-16T15:58:31Z</time>
      </trkpt>
      <trkpt lat="59.9572986" lon="17.69249">
        <ele>20.8057</ele>
        <time>2013-05-16T15:58:32Z</time>
      </trkpt>
      <trkpt lat="59.9572523" lon="17.692364">
        <ele>21.2864</ele>
        <time>2013-05-16T15:58:33Z</time>
      </trkpt>
      <trkpt lat="59.9572065" lon="17.6922367">
        <ele>21.2864</ele>
        <time>2013-05-16T15:58:34Z</time>
      </trkpt>
      <trkpt lat="59.9571604" lon="17.6921082">
        <ele>21.2864</ele>
        <time>2013-05-16T15:58:35Z</time>
      </trkpt>
      <trkpt lat="59.9571159" lon="17.6919802">
        <ele>21.2864</ele>
        <time>2013-05-16T15:58:36Z</time>
      </trkpt>
      <trkpt lat="59.9570718" lon="17.6918554">
        <ele>21.2864</ele>
        <time>2013-05-16T15:58:37Z</time>
      </trkpt>
      <trkpt lat="59.9570279" lon="17.6917311">
        <ele>21.767</ele>
        <time>2013-05-16T15:58:38Z</time>
      </trkpt>
      <trkpt lat="59.9569854" lon="17.6916069">
        <ele>21.767</ele>
        <time>2013-05-16T15:58:39Z</time>
      </trkpt>
      <trkpt lat="59.9569429" lon="17.6914845">
        <ele>21.767</ele>
        <time>2013-05-16T15:58:40Z</time>
      </trkpt>
      <trkpt lat="59.9569004" lon="17.6913626">
        <ele>22.2476</ele>
        <time>2013-05-16T15:58:41Z</time>
      </trkpt>
      <trkpt lat="59.9568588" lon="17.6912419">
        <ele>22.2476</ele>
        <time>2013-05-16T15:58:42Z</time>
      </trkpt>
      <trkpt lat="59.9568192" lon="17.6911223">
        <ele>22.7283</ele>
        <time>2013-05-16T15:58:43Z</time>
      </trkpt>
      <trkpt lat="59.9567821" lon="17.6910053">
        <ele>22.7283</ele>
        <time>2013-05-16T15:58:44Z</time>
      </trkpt>
      <trkpt lat="59.9567465" lon="17.6908944">
        <ele>22.7283</ele>
        <time>2013-05-16T15:58:45Z</time>
      </trkpt>
      <trkpt lat="59.9567114" lon="17.690787">
        <ele>22.7283</ele>
        <time>2013-05-16T15:58:46Z</time>
      </trkpt>
      <trkpt lat="59.9566771" lon="17.6906816">
        <ele>23.209</ele>
        <time>2013-05-16T15:58:47Z</time>
      </trkpt>
      <trkpt lat="59.9566441" lon="17.6905779">
        <ele>23.209</ele>
        <time>2013-05-16T15:58:48Z</time>
      </trkpt>
      <trkpt lat="59.9566165" lon="17.6904811">
        <ele>23.209</ele>
        <time>2013-05-16T15:58:49Z</time>
      </trkpt>
      <trkpt lat="59.9565856" lon="17.6903795">
        <ele>23.6896</ele>
        <time>2013-05-16T15:58:50Z</time>
      </trkpt>
      <trkpt lat="59.9565535" lon="17.690277">
        <ele>24.1703</ele>
        <time>2013-05-16T15:58:51Z</time>
      </trkpt>
      <trkpt lat="59.9565131" lon="17.6901687">
        <ele>24.1703</ele>
        <time>2013-05-16T15:58:52Z</time>
      </trkpt>
      <trkpt lat="59.9564834" lon="17.6900691">
        <ele>24.651</ele>
        <time>2013-05-16T15:58:53Z</time>
      </trkpt>
      <trkpt lat="59.9564696" lon="17.6899527">
        <ele>24.651</ele>
        <time>2013-05-16T15:58:54Z</time>
      </trkpt>
      <trkpt lat="59.9564405" lon="17.6898433">
        <ele>24.651</ele>
        <time>2013-05-16T15:58:55Z</time>
      </trkpt>
      <trkpt lat="59.9564068" lon="17.6896978">
        <ele>24.1703</ele>
        <time>2013-05-16T15:58:56Z</time>
      </trkpt>
      <trkpt lat="59.9563871" lon="17.6895777">
        <ele>24.651</ele>
        <time>2013-05-16T15:58:57Z</time>
      </trkpt>
      <trkpt lat="59.9563569" lon="17.6894498">
        <ele>24.1703</ele>
        <time>2013-05-16T15:58:58Z</time>
      </trkpt>
      <trkpt lat="59.9563182" lon="17.6893373">
        <ele>24.1703</ele>
        <time>2013-05-16T15:58:59Z</time>
      </trkpt>
      <trkpt lat="59.9562814" lon="17.6892252">
        <ele>23.6896</ele>
        <time>2013-05-16T15:59:00Z</time>
      </trkpt>
      <trkpt lat="59.9562448" lon="17.6891141">
        <ele>23.209</ele>
        <time>2013-05-16T15:59:01Z</time>
      </trkpt>
      <trkpt lat="59.9562048" lon="17.6890059">
        <ele>23.209</ele>
        <time>2013-05-16T15:59:02Z</time>
      </trkpt>
      <trkpt lat="59.9561606" lon="17.6889">
        <ele>22.7283</ele>
        <time>2013-05-16T15:59:03Z</time>
      </trkpt>
      <trkpt lat="59.9561151" lon="17.6887919">
        <ele>22.7283</ele>
        <time>2013-05-16T15:59:04Z</time>
      </trkpt>
      <trkpt lat="59.9560727" lon="17.6886772">
        <ele>22.7283</ele>
        <time>2013-05-16T15:59:05Z</time>
      </trkpt>
      <trkpt lat="59.9560362" lon="17.6885514">
        <ele>22.7283</ele>
        <time>2013-05-16T15:59:06Z</time>
      </trkpt>
      <trkpt lat="59.9560082" lon="17.6884115">
        <ele>22.7283</ele>
        <time>2013-05-16T15:59:07Z</time>
      </trkpt>
      <trkpt lat="59.9559847" lon="17.6882655">
        <ele>22.7283</ele>
        <time>2013-05-16T15:59:08Z</time>
      </trkpt>
      <trkpt lat="59.9559604" lon="17.6881168">
        <ele>22.7283</ele>
        <time>2013-05-16T15:59:09Z</time>
      </trkpt>
      <trkpt lat="59.9559381" lon="17.6879693">
        <ele>23.209</ele>
        <time>2013-05-16T15:59:10Z</time>
      </trkpt>
      <trkpt lat="59.9559152" lon="17.6878268">
        <ele>23.209</ele>
        <time>2013-05-16T15:59:11Z</time>
      </trkpt>
      <trkpt lat="59.9558906" lon="17.6876829">
        <ele>23.209</ele>
        <time>2013-05-16T15:59:12Z</time>
      </trkpt>
      <trkpt lat="59.9558686" lon="17.6875366">
        <ele>23.209</ele>
        <time>2013-05-16T15:59:13Z</time>
      </trkpt>
      <trkpt lat="59.9558456" lon="17.6873881">
        <ele>23.209</ele>
        <time>2013-05-16T15:59:14Z</time>
      </trkpt>
      <trkpt lat="59.9558219" lon="17.6872373">
        <ele>22.7283</ele>
        <time>2013-05-16T15:59:15Z</time>
      </trkpt>
      <trkpt lat="59.9557987" lon="17.6870857">
        <ele>22.7283</ele>
        <time>2013-05-16T15:59:16Z</time>
      </trkpt>
      <trkpt lat="59.9557754" lon="17.6869325">
        <ele>22.2476</ele>
        <time>2013-05-16T15:59:17Z</time>
      </trkpt>
      <trkpt lat="59.9557529" lon="17.6867788">
        <ele>22.2476</ele>
        <time>2013-05-16T15:59:18Z</time>
      </trkpt>
      <trkpt lat="59.9557299" lon="17.6866245">
        <ele>21.767</ele>
        <time>2013-05-16T15:59:19Z</time>
      </trkpt>
      <trkpt lat="59.955707" lon="17.6864654">
        <ele>21.767</ele>
        <time>2013-05-16T15:59:20Z</time>
      </trkpt>
      <trkpt lat="59.9556847" lon="17.6863024">
        <ele>21.767</ele>
        <time>2013-05-16T15:59:21Z</time>
      </trkpt>
      <trkpt lat="59.9556629" lon="17.6861386">
        <ele>21.767</ele>
        <time>2013-05-16T15:59:22Z</time>
      </trkpt>
      <trkpt lat="59.9556417" lon="17.6859764">
        <ele>21.767</ele>
        <time>2013-05-16T15:59:23Z</time>
      </trkpt>
      <trkpt lat="59.955621" lon="17.6858133">
        <ele>21.767</ele>
        <time>2013-05-16T15:59:24Z</time>
      </trkpt>
      <trkpt lat="59.9555993" lon="17.6856496">
        <ele>21.2864</ele>
        <time>2013-05-16T15:59:25Z</time>
      </trkpt>
      <trkpt lat="59.9555748" lon="17.6854874">
        <ele>21.2864</ele>
        <time>2013-05-16T15:59:26Z</time>
      </trkpt>
      <trkpt lat="59.9555501" lon="17.6853228">
        <ele>20.8057</ele>
        <time>2013-05-16T15:59:27Z</time>
      </trkpt>
      <trkpt lat="59.9555267" lon="17.6851565">
        <ele>20.8057</ele>
        <time>2013-05-16T15:59:28Z</time>
      </trkpt>
      <trkpt lat="59.9555044" lon="17.6849908">
        <ele>20.8057</ele>
        <time>2013-05-16T15:59:29Z</time>
      </trkpt>
      <trkpt lat="59.9554816" lon="17.684827">
        <ele>20.8057</ele>
        <time>2013-05-16T15:59:30Z</time>
      </trkpt>
      <trkpt lat="59.9554565" lon="17.6846655">
        <ele>20.325</ele>
        <time>2013-05-16T15:59:31Z</time>
      </trkpt>
      <trkpt lat="59.9554293" lon="17.6845055">
        <ele>20.325</ele>
        <time>2013-05-16T15:59:32Z</time>
      </trkpt>
      <trkpt lat="59.9554008" lon="17.6843477">
        <ele>20.325</ele>
        <time>2013-05-16T15:59:33Z</time>
      </trkpt>
      <trkpt lat="59.9553708" lon="17.6841914">
        <ele>19.8444</ele>
        <time>2013-05-16T15:59:34Z</time>
      </trkpt>
      <trkpt lat="59.9553406" lon="17.6840356">
        <ele>19.8444</ele>
        <time>2013-05-16T15:59:35Z</time>
      </trkpt>
      <trkpt lat="59.9553096" lon="17.6838801">
        <ele>19.3638</ele>
        <time>2013-05-16T15:59:36Z</time>
      </trkpt>
      <trkpt lat="59.9552768" lon="17.6837235">
        <ele>18.8831</ele>
        <time>2013-05-16T15:59:37Z</time>
      </trkpt>
      <trkpt lat="59.9552407" lon="17.6835672">
        <ele>18.4023</ele>
        <time>2013-05-16T15:59:38Z</time>
      </trkpt>
      <trkpt lat="59.9552023" lon="17.6834125">
        <ele>18.4023</ele>
        <time>2013-05-16T15:59:39Z</time>
      </trkpt>
      <trkpt lat="59.9551628" lon="17.683259">
        <ele>18.4023</ele>
        <time>2013-05-16T15:59:40Z</time>
      </trkpt>
      <trkpt lat="59.9551235" lon="17.683107">
        <ele>17.9218</ele>
        <time>2013-05-16T15:59:41Z</time>
      </trkpt>
      <trkpt lat="59.9550854" lon="17.6829554">
        <ele>17.9218</ele>
        <time>2013-05-16T15:59:42Z</time>
      </trkpt>
      <trkpt lat="59.9550458" lon="17.6828083">
        <ele>17.4412</ele>
        <time>2013-05-16T15:59:43Z</time>
      </trkpt>
      <trkpt lat="59.9550026" lon="17.6826672">
        <ele>17.4412</ele>
        <time>2013-05-16T15:59:44Z</time>
      </trkpt>
      <trkpt lat="59.9549588" lon="17.6825277">
        <ele>16.9604</ele>
        <time>2013-05-16T15:59:45Z</time>
      </trkpt>
      <trkpt lat="59.9549173" lon="17.6823868">
        <ele>16.9604</ele>
        <time>2013-05-16T15:59:46Z</time>
      </trkpt>
      <trkpt lat="59.9548765" lon="17.6822495">
        <ele>16.9604</ele>
        <time>2013-05-16T15:59:47Z</time>
      </trkpt>
      <trkpt lat="59.954832" lon="17.6821229">
        <ele>16.9604</ele>
        <time>2013-05-16T15:59:48Z</time>
      </trkpt>
      <trkpt lat="59.9547778" lon="17.6820157">
        <ele>16.9604</ele>
        <time>2013-05-16T15:59:49Z</time>
      </trkpt>
      <trkpt lat="59.9547154" lon="17.6819329">
        <ele>16.4797</ele>
        <time>2013-05-16T15:59:50Z</time>
      </trkpt>
      <trkpt lat="59.9546569" lon="17.6818454">
        <ele>16.4797</ele>
        <time>2013-05-16T15:59:51Z</time>
      </trkpt>
      <trkpt lat="59.9546093" lon="17.6817422">
        <ele>16.4797</ele>
        <time>2013-05-16T15:59:52Z</time>
      </trkpt>
      <trkpt lat="59.9545672" lon="17.6816273">
        <ele>16.9604</ele>
        <time>2013-05-16T15:59:53Z</time>
      </trkpt>
      <trkpt lat="59.954527" lon="17.6815113">
        <ele>16.4797</ele>
        <time>2013-05-16T15:59:54Z</time>
      </trkpt>
      <trkpt lat="59.9544882" lon="17.6813952">
        <ele>16.4797</ele>
        <time>2013-05-16T15:59:55Z</time>
      </trkpt>
      <trkpt lat="59.9544486" lon="17.6812761">
        <ele>16.4797</ele>
        <time>2013-05-16T15:59:56Z</time>
      </trkpt>
      <trkpt lat="59.95441" lon="17.6811502">
        <ele>16.4797</ele>
        <time>2013-05-16T15:59:57Z</time>
      </trkpt>
      <trkpt lat="59.9543729" lon="17.6810207">
        <ele>16.4797</ele>
        <time>2013-05-16T15:59:58Z</time>
      </trkpt>
      <trkpt lat="59.9543352" lon="17.6808947">
        <ele>16.4797</ele>
        <time>2013-05-16T15:59:59Z</time>
      </trkpt>
      <trkpt lat="59.9542949" lon="17.6807736">
        <ele>16.4797</ele>
        <time>2013-05-16T16:00:00Z</time>
      </trkpt>
      <trkpt lat="59.9542525" lon="17.6806513">
        <ele>16.9604</ele>
        <time>2013-05-16T16:00:01Z</time>
      </trkpt>
      <trkpt lat="59.9542105" lon="17.6805254">
        <ele>16.9604</ele>
        <time>2013-05-16T16:00:02Z</time>
      </trkpt>
      <trkpt lat="59.9541691" lon="17.680398">
        <ele>16.9604</ele>
        <time>2013-05-16T16:00:03Z</time>
      </trkpt>
      <trkpt lat="59.9541273" lon="17.6802666">
        <ele>17.4412</ele>
        <time>2013-05-16T16:00:04Z</time>
      </trkpt>
      <trkpt lat="59.954084" lon="17.6801386">
        <ele>17.9218</ele>
        <time>2013-05-16T16:00:05Z</time>
      </trkpt>
      <trkpt lat="59.9540405" lon="17.6800101">
        <ele>17.9218</ele>
        <time>2013-05-16T16:00:06Z</time>
      </trkpt>
      <trkpt lat="59.9539975" lon="17.6798807">
        <ele>18.4023</ele>
        <time>2013-05-16T16:00:07Z</time>
      </trkpt>
      <trkpt lat="59.9539561" lon="17.6797521">
        <ele>18.4023</ele>
        <time>2013-05-16T16:00:08Z</time>
      </trkpt>
      <trkpt lat="59.9539157" lon="17.6796258">
        <ele>18.8831</ele>
        <time>2013-05-16T16:00:09Z</time>
      </trkpt>
      <trkpt lat="59.9538748" lon="17.6795033">
        <ele>18.8831</ele>
        <time>2013-05-16T16:00:10Z</time>
      </trkpt>
      <trkpt lat="59.9538353" lon="17.679381">
        <ele>18.8831</ele>
        <time>2013-05-16T16:00:11Z</time>
      </trkpt>
      <trkpt lat="59.9537955" lon="17.6792556">
        <ele>18.4023</ele>
        <time>2013-05-16T16:00:12Z</time>
      </trkpt>
      <trkpt lat="59.9537546" lon="17.6791297">
        <ele>17.9218</ele>
        <time>2013-05-16T16:00:13Z</time>
      </trkpt>
      <trkpt lat="59.9537103" lon="17.6790062">
        <ele>17.9218</ele>
        <time>2013-05-16T16:00:14Z</time>
      </trkpt>
      <trkpt lat="59.9536675" lon="17.6788849">
        <ele>17.4412</ele>
        <time>2013-05-16T16:00:15Z</time>
      </trkpt>
      <trkpt lat="59.9536246" lon="17.6787669">
        <ele>16.9604</ele>
        <time>2013-05-16T16:00:16Z</time>
      </trkpt>
      <trkpt lat="59.9535804" lon="17.6786507">
        <ele>16.9604</ele>
        <time>2013-05-16T16:00:17Z</time>
      </trkpt>
      <trkpt lat="59.9535358" lon="17.6785394">
        <ele>16.4797</ele>
        <time>2013-05-16T16:00:18Z</time>
      </trkpt>
      <trkpt lat="59.953493" lon="17.6784291">
        <ele>15.999</ele>
        <time>2013-05-16T16:00:19Z</time>
      </trkpt>
      <trkpt lat="59.9534526" lon="17.6783178">
        <ele>15.5184</ele>
        <time>2013-05-16T16:00:20Z</time>
      </trkpt>
      <trkpt lat="59.9534116" lon="17.67821">
        <ele>15.0377</ele>
        <time>2013-05-16T16:00:21Z</time>
      </trkpt>
      <trkpt lat="59.9533684" lon="17.6781015">
        <ele>14.0764</ele>
        <time>2013-05-16T16:00:22Z</time>
      </trkpt>
      <trkpt lat="59.9533237" lon="17.6779889">
        <ele>13.5958</ele>
        <time>2013-05-16T16:00:23Z</time>
      </trkpt>
      <trkpt lat="59.9532795" lon="17.6778718">
        <ele>13.1151</ele>
        <time>2013-05-16T16:00:24Z</time>
      </trkpt>
      <trkpt lat="59.9532361" lon="17.6777593">
        <ele>12.1538</ele>
        <time>2013-05-16T16:00:25Z</time>
      </trkpt>
      <trkpt lat="59.9531946" lon="17.6776495">
        <ele>11.6732</ele>
        <time>2013-05-16T16:00:26Z</time>
      </trkpt>
      <trkpt lat="59.9531563" lon="17.6775293">
        <ele>11.6732</ele>
        <time>2013-05-16T16:00:27Z</time>
      </trkpt>
      <trkpt lat="59.9531164" lon="17.6774084">
        <ele>11.1925</ele>
        <time>2013-05-16T16:00:28Z</time>
      </trkpt>
      <trkpt lat="59.9530737" lon="17.6772903">
        <ele>10.7118</ele>
        <time>2013-05-16T16:00:29Z</time>
      </trkpt>
      <trkpt lat="59.9530299" lon="17.677175">
        <ele>10.2312</ele>
        <time>2013-05-16T16:00:30Z</time>
      </trkpt>
      <trkpt lat="59.952986" lon="17.6770578">
        <ele>10.2312</ele>
        <time>2013-05-16T16:00:31Z</time>
      </trkpt>
      <trkpt lat="59.9529432" lon="17.6769384">
        <ele>10.2312</ele>
        <time>2013-05-16T16:00:32Z</time>
      </trkpt>
      <trkpt lat="59.9529008" lon="17.6768237">
        <ele>10.2312</ele>
        <time>2013-05-16T16:00:33Z</time>
      </trkpt>
      <trkpt lat="59.9528554" lon="17.6767167">
        <ele>10.2312</ele>
        <time>2013-05-16T16:00:34Z</time>
      </trkpt>
      <trkpt lat="59.9528097" lon="17.6766153">
        <ele>10.2312</ele>
        <time>2013-05-16T16:00:35Z</time>
      </trkpt>
      <trkpt lat="59.9527662" lon="17.6765126">
        <ele>10.7118</ele>
        <time>2013-05-16T16:00:36Z</time>
      </trkpt>
      <trkpt lat="59.9527285" lon="17.6764092">
        <ele>10.7118</ele>
        <time>2013-05-16T16:00:37Z</time>
      </trkpt>
      <trkpt lat="59.9526938" lon="17.6762993">
        <ele>10.7118</ele>
        <time>2013-05-16T16:00:38Z</time>
      </trkpt>
      <trkpt lat="59.9526575" lon="17.6761866">
        <ele>10.7118</ele>
        <time>2013-05-16T16:00:39Z</time>
      </trkpt>
      <trkpt lat="59.9526194" lon="17.6760732">
        <ele>10.7118</ele>
        <time>2013-05-16T16:00:40Z</time>
      </trkpt>
      <trkpt lat="59.9525793" lon="17.6759513">
        <ele>11.6732</ele>
        <time>2013-05-16T16:00:41Z</time>
      </trkpt>
      <trkpt lat="59.9525356" lon="17.6758354">
        <ele>12.6344</ele>
        <time>2013-05-16T16:00:42Z</time>
      </trkpt>
      <trkpt lat="59.9524931" lon="17.6757251">
        <ele>13.5958</ele>
        <time>2013-05-16T16:00:43Z</time>
      </trkpt>
      <trkpt lat="59.9524539" lon="17.675621">
        <ele>14.0764</ele>
        <time>2013-05-16T16:00:44Z</time>
      </trkpt>
      <trkpt lat="59.9524176" lon="17.6755169">
        <ele>15.0377</ele>
        <time>2013-05-16T16:00:45Z</time>
      </trkpt>
      <trkpt lat="59.9523807" lon="17.6754132">
        <ele>15.999</ele>
        <time>2013-05-16T16:00:46Z</time>
      </trkpt>
      <trkpt lat="59.9523444" lon="17.6753084">
        <ele>16.4797</ele>
        <time>2013-05-16T16:00:47Z</time>
      </trkpt>
      <trkpt lat="59.9523115" lon="17.6752002">
        <ele>16.9604</ele>
        <time>2013-05-16T16:00:48Z</time>
      </trkpt>
      <trkpt lat="59.9522845" lon="17.6750808">
        <ele>17.9218</ele>
        <time>2013-05-16T16:00:49Z</time>
      </trkpt>
      <trkpt lat="59.9522606" lon="17.6749589">
        <ele>17.9218</ele>
        <time>2013-05-16T16:00:50Z</time>
      </trkpt>
      <trkpt lat="59.9522383" lon="17.6748277">
        <ele>17.9218</ele>
        <time>2013-05-16T16:00:51Z</time>
      </trkpt>
      <trkpt lat="59.9522166" lon="17.6746849">
        <ele>17.9218</ele>
        <time>2013-05-16T16:00:52Z</time>
      </trkpt>
      <trkpt lat="59.9521917" lon="17.6745353">
        <ele>17.4412</ele>
        <time>2013-05-16T16:00:53Z</time>
      </trkpt>
      <trkpt lat="59.9521612" lon="17.6743865">
        <ele>16.9604</ele>
        <time>2013-05-16T16:00:54Z</time>
      </trkpt>
      <trkpt lat="59.952127" lon="17.6742457">
        <ele>16.4797</ele>
        <time>2013-05-16T16:00:55Z</time>
      </trkpt>
      <trkpt lat="59.9520949" lon="17.6741047">
        <ele>16.4797</ele>
        <time>2013-05-16T16:00:56Z</time>
      </trkpt>
      <trkpt lat="59.9520663" lon="17.673959">
        <ele>15.999</ele>
        <time>2013-05-16T16:00:57Z</time>
      </trkpt>
      <trkpt lat="59.9520382" lon="17.6738064">
        <ele>15.999</ele>
        <time>2013-05-16T16:00:58Z</time>
      </trkpt>
      <trkpt lat="59.9520116" lon="17.6736537">
        <ele>15.999</ele>
        <time>2013-05-16T16:00:59Z</time>
      </trkpt>
      <trkpt lat="59.9519861" lon="17.6734988">
        <ele>15.999</ele>
        <time>2013-05-16T16:01:00Z</time>
      </trkpt>
      <trkpt lat="59.9519617" lon="17.6733442">
        <ele>15.999</ele>
        <time>2013-05-16T16:01:01Z</time>
      </trkpt>
      <trkpt lat="59.9519379" lon="17.6731899">
        <ele>15.999</ele>
        <time>2013-05-16T16:01:02Z</time>
      </trkpt>
      <trkpt lat="59.9519155" lon="17.6730371">
        <ele>15.999</ele>
        <time>2013-05-16T16:01:03Z</time>
      </trkpt>
      <trkpt lat="59.9518943" lon="17.6728839">
        <ele>15.5184</ele>
        <time>2013-05-16T16:01:04Z</time>
      </trkpt>
      <trkpt lat="59.9518747" lon="17.672731">
        <ele>15.5184</ele>
        <time>2013-05-16T16:01:05Z</time>
      </trkpt>
      <trkpt lat="59.9518557" lon="17.6725761">
        <ele>15.0377</ele>
        <time>2013-05-16T16:01:06Z</time>
      </trkpt>
      <trkpt lat="59.9518369" lon="17.6724181">
        <ele>14.557</ele>
        <time>2013-05-16T16:01:07Z</time>
      </trkpt>
      <trkpt lat="59.9518193" lon="17.6722571">
        <ele>14.0764</ele>
        <time>2013-05-16T16:01:08Z</time>
      </trkpt>
      <trkpt lat="59.9518043" lon="17.6720941">
        <ele>14.0764</ele>
        <time>2013-05-16T16:01:09Z</time>
      </trkpt>
      <trkpt lat="59.9517952" lon="17.6719318">
        <ele>14.0764</ele>
        <time>2013-05-16T16:01:10Z</time>
      </trkpt>
      <trkpt lat="59.9517907" lon="17.671769">
        <ele>13.5958</ele>
        <time>2013-05-16T16:01:11Z</time>
      </trkpt>
      <trkpt lat="59.9517861" lon="17.6716058">
        <ele>13.5958</ele>
        <time>2013-05-16T16:01:12Z</time>
      </trkpt>
      <trkpt lat="59.9517737" lon="17.6714098">
        <ele>13.5958</ele>
        <time>2013-05-16T16:01:13Z</time>
      </trkpt>
      <trkpt lat="59.9517505" lon="17.6712426">
        <ele>13.5958</ele>
        <time>2013-05-16T16:01:14Z</time>
      </trkpt>
      <trkpt lat="59.9517181" lon="17.6710728">
        <ele>13.1151</ele>
        <time>2013-05-16T16:01:15Z</time>
      </trkpt>
      <trkpt lat="59.951699" lon="17.6708915">
        <ele>12.6344</ele>
        <time>2013-05-16T16:01:16Z</time>
      </trkpt>
      <trkpt lat="59.951701" lon="17.6706968">
        <ele>12.6344</ele>
        <time>2013-05-16T16:01:17Z</time>
      </trkpt>
      <trkpt lat="59.9517134" lon="17.6705098">
        <ele>12.1538</ele>
        <time>2013-05-16T16:01:18Z</time>
      </trkpt>
      <trkpt lat="59.9517277" lon="17.6703227">
        <ele>11.6732</ele>
        <time>2013-05-16T16:01:19Z</time>
      </trkpt>
      <trkpt lat="59.9517404" lon="17.6701314">
        <ele>11.6732</ele>
        <time>2013-05-16T16:01:20Z</time>
      </trkpt>
      <trkpt lat="59.9517507" lon="17.6699425">
        <ele>11.1925</ele>
        <time>2013-05-16T16:01:21Z</time>
      </trkpt>
      <trkpt lat="59.9517593" lon="17.6697556">
        <ele>11.1925</ele>
        <time>2013-05-16T16:01:22Z</time>
      </trkpt>
      <trkpt lat="59.9517679" lon="17.6695697">
        <ele>11.1925</ele>
        <time>2013-05-16T16:01:23Z</time>
      </trkpt>
      <trkpt lat="59.9517757" lon="17.6693878">
        <ele>11.1925</ele>
        <time>2013-05-16T16:01:24Z</time>
      </trkpt>
      <trkpt lat="59.9517811" lon="17.6692071">
        <ele>11.1925</ele>
        <time>2013-05-16T16:01:25Z</time>
      </trkpt>
      <trkpt lat="59.9517851" lon="17.6690308">
        <ele>11.1925</ele>
        <time>2013-05-16T16:01:26Z</time>
      </trkpt>
      <trkpt lat="59.9517841" lon="17.6688532">
        <ele>11.1925</ele>
        <time>2013-05-16T16:01:27Z</time>
      </trkpt>
      <trkpt lat="59.9517711" lon="17.6686727">
        <ele>11.1925</ele>
        <time>2013-05-16T16:01:28Z</time>
      </trkpt>
      <trkpt lat="59.9517436" lon="17.6684995">
        <ele>10.7118</ele>
        <time>2013-05-16T16:01:29Z</time>
      </trkpt>
      <trkpt lat="59.9517047" lon="17.6683272">
        <ele>11.1925</ele>
        <time>2013-05-16T16:01:30Z</time>
      </trkpt>
      <trkpt lat="59.9516536" lon="17.6681723">
        <ele>11.1925</ele>
        <time>2013-05-16T16:01:31Z</time>
      </trkpt>
      <trkpt lat="59.9515825" lon="17.6680497">
        <ele>11.1925</ele>
        <time>2013-05-16T16:01:32Z</time>
      </trkpt>
      <trkpt lat="59.9514954" lon="17.667987">
        <ele>11.6732</ele>
        <time>2013-05-16T16:01:33Z</time>
      </trkpt>
      <trkpt lat="59.9514053" lon="17.667988">
        <ele>11.6732</ele>
        <time>2013-05-16T16:01:34Z</time>
      </trkpt>
      <trkpt lat="59.9513189" lon="17.6680169">
        <ele>11.6732</ele>
        <time>2013-05-16T16:01:35Z</time>
      </trkpt>
      <trkpt lat="59.9512343" lon="17.6680461">
        <ele>12.1538</ele>
        <time>2013-05-16T16:01:36Z</time>
      </trkpt>
      <trkpt lat="59.9511526" lon="17.668074">
        <ele>12.1538</ele>
        <time>2013-05-16T16:01:37Z</time>
      </trkpt>
      <trkpt lat="59.9510729" lon="17.6680974">
        <ele>12.1538</ele>
        <time>2013-05-16T16:01:38Z</time>
      </trkpt>
      <trkpt lat="59.9509958" lon="17.6681223">
        <ele>12.6344</ele>
        <time>2013-05-16T16:01:39Z</time>
      </trkpt>
      <trkpt lat="59.9509209" lon="17.6681491">
        <ele>13.1151</ele>
        <time>2013-05-16T16:01:40Z</time>
      </trkpt>
      <trkpt lat="59.9508465" lon="17.6681771">
        <ele>13.1151</ele>
        <time>2013-05-16T16:01:41Z</time>
      </trkpt>
      <trkpt lat="59.9507737" lon="17.6682016">
        <ele>13.5958</ele>
        <time>2013-05-16T16:01:42Z</time>
      </trkpt>
      <trkpt lat="59.9507018" lon="17.668223">
        <ele>14.0764</ele>
        <time>2013-05-16T16:01:43Z</time>
      </trkpt>
      <trkpt lat="59.9506302" lon="17.6682399">
        <ele>14.0764</ele>
        <time>2013-05-16T16:01:44Z</time>
      </trkpt>
      <trkpt lat="59.9505594" lon="17.6682528">
        <ele>14.557</ele>
        <time>2013-05-16T16:01:45Z</time>
      </trkpt>
      <trkpt lat="59.9504896" lon="17.6682606">
        <ele>14.557</ele>
        <time>2013-05-16T16:01:46Z</time>
      </trkpt>
      <trkpt lat="59.9504205" lon="17.6682652">
        <ele>15.0377</ele>
        <time>2013-05-16T16:01:47Z</time>
      </trkpt>
      <trkpt lat="59.9503498" lon="17.6682678">
        <ele>15.5184</ele>
        <time>2013-05-16T16:01:48Z</time>
      </trkpt>
      <trkpt lat="59.9502793" lon="17.6682648">
        <ele>15.999</ele>
        <time>2013-05-16T16:01:49Z</time>
      </trkpt>
      <trkpt lat="59.9502099" lon="17.6682589">
        <ele>15.999</ele>
        <time>2013-05-16T16:01:50Z</time>
      </trkpt>
      <trkpt lat="59.9501412" lon="17.6682467">
        <ele>15.999</ele>
        <time>2013-05-16T16:01:51Z</time>
      </trkpt>
      <trkpt lat="59.9500698" lon="17.668234">
        <ele>16.4797</ele>
        <time>2013-05-16T16:01:52Z</time>
      </trkpt>
      <trkpt lat="59.9499979" lon="17.6682176">
        <ele>16.9604</ele>
        <time>2013-05-16T16:01:53Z</time>
      </trkpt>
      <trkpt lat="59.9499268" lon="17.6681964">
        <ele>16.9604</ele>
        <time>2013-05-16T16:01:54Z</time>
      </trkpt>
      <trkpt lat="59.9498572" lon="17.6681708">
        <ele>17.4412</ele>
        <time>2013-05-16T16:01:55Z</time>
      </trkpt>
      <trkpt lat="59.9497881" lon="17.668143">
        <ele>17.4412</ele>
        <time>2013-05-16T16:01:56Z</time>
      </trkpt>
      <trkpt lat="59.9497188" lon="17.6681134">
        <ele>17.4412</ele>
        <time>2013-05-16T16:01:57Z</time>
      </trkpt>
      <trkpt lat="59.9496482" lon="17.6680807">
        <ele>17.4412</ele>
        <time>2013-05-16T16:01:58Z</time>
      </trkpt>
      <trkpt lat="59.9495773" lon="17.6680443">
        <ele>17.9218</ele>
        <time>2013-05-16T16:01:59Z</time>
      </trkpt>
      <trkpt lat="59.9495047" lon="17.6680029">
        <ele>17.9218</ele>
        <time>2013-05-16T16:02:00Z</time>
      </trkpt>
      <trkpt lat="59.9494322" lon="17.6679632">
        <ele>17.9218</ele>
        <time>2013-05-16T16:02:01Z</time>
      </trkpt>
      <trkpt lat="59.9493602" lon="17.6679228">
        <ele>17.9218</ele>
        <time>2013-05-16T16:02:02Z</time>
      </trkpt>
      <trkpt lat="59.9492889" lon="17.6678814">
        <ele>17.9218</ele>
        <time>2013-05-16T16:02:03Z</time>
      </trkpt>
      <trkpt lat="59.9492187" lon="17.667839">
        <ele>17.9218</ele>
        <time>2013-05-16T16:02:04Z</time>
      </trkpt>
      <trkpt lat="59.9491482" lon="17.6677954">
        <ele>17.9218</ele>
        <time>2013-05-16T16:02:05Z</time>
      </trkpt>
      <trkpt lat="59.9490775" lon="17.6677519">
        <ele>17.9218</ele>
        <time>2013-05-16T16:02:06Z</time>
      </trkpt>
      <trkpt lat="59.9490073" lon="17.6677092">
        <ele>17.9218</ele>
        <time>2013-05-16T16:02:07Z</time>
      </trkpt>
      <trkpt lat="59.9489385" lon="17.6676673">
        <ele>17.9218</ele>
        <time>2013-05-16T16:02:08Z</time>
      </trkpt>
      <trkpt lat="59.9488708" lon="17.6676281">
        <ele>17.9218</ele>
        <time>2013-05-16T16:02:09Z</time>
      </trkpt>
      <trkpt lat="59.9488034" lon="17.6675886">
        <ele>17.9218</ele>
        <time>2013-05-16T16:02:10Z</time>
      </trkpt>
      <trkpt lat="59.9487359" lon="17.6675487">
        <ele>18.4023</ele>
        <time>2013-05-16T16:02:11Z</time>
      </trkpt>
      <trkpt lat="59.9486691" lon="17.6675103">
        <ele>18.4023</ele>
        <time>2013-05-16T16:02:12Z</time>
      </trkpt>
      <trkpt lat="59.9486033" lon="17.667473">
        <ele>18.4023</ele>
        <time>2013-05-16T16:02:13Z</time>
      </trkpt>
      <trkpt lat="59.9485381" lon="17.6674355">
        <ele>18.4023</ele>
        <time>2013-05-16T16:02:14Z</time>
      </trkpt>
      <trkpt lat="59.9484741" lon="17.6673974">
        <ele>18.4023</ele>
        <time>2013-05-16T16:02:15Z</time>
      </trkpt>
      <trkpt lat="59.9484112" lon="17.6673601">
        <ele>18.4023</ele>
        <time>2013-05-16T16:02:16Z</time>
      </trkpt>
      <trkpt lat="59.9483471" lon="17.667324">
        <ele>18.8831</ele>
        <time>2013-05-16T16:02:17Z</time>
      </trkpt>
      <trkpt lat="59.9482814" lon="17.6672873">
        <ele>18.8831</ele>
        <time>2013-05-16T16:02:18Z</time>
      </trkpt>
      <trkpt lat="59.9482156" lon="17.6672504">
        <ele>18.8831</ele>
        <time>2013-05-16T16:02:19Z</time>
      </trkpt>
      <trkpt lat="59.94815" lon="17.6672138">
        <ele>18.8831</ele>
        <time>2013-05-16T16:02:20Z</time>
      </trkpt>
      <trkpt lat="59.9480843" lon="17.667177">
        <ele>19.3638</ele>
        <time>2013-05-16T16:02:21Z</time>
      </trkpt>
      <trkpt lat="59.9480182" lon="17.6671401">
        <ele>19.3638</ele>
        <time>2013-05-16T16:02:22Z</time>
      </trkpt>
      <trkpt lat="59.9479518" lon="17.6671026">
        <ele>19.3638</ele>
        <time>2013-05-16T16:02:23Z</time>
      </trkpt>
      <trkpt lat="59.9478846" lon="17.6670675">
        <ele>19.3638</ele>
        <time>2013-05-16T16:02:24Z</time>
      </trkpt>
      <trkpt lat="59.9478176" lon="17.6670343">
        <ele>19.3638</ele>
        <time>2013-05-16T16:02:25Z</time>
      </trkpt>
      <trkpt lat="59.9477509" lon="17.6670002">
        <ele>19.8444</ele>
        <time>2013-05-16T16:02:26Z</time>
      </trkpt>
      <trkpt lat="59.947683" lon="17.6669669">
        <ele>19.8444</ele>
        <time>2013-05-16T16:02:27Z</time>
      </trkpt>
      <trkpt lat="59.9476147" lon="17.6669348">
        <ele>19.8444</ele>
        <time>2013-05-16T16:02:28Z</time>
      </trkpt>
      <trkpt lat="59.9475466" lon="17.6669012">
        <ele>19.8444</ele>
        <time>2013-05-16T16:02:29Z</time>
      </trkpt>
      <trkpt lat="59.9474787" lon="17.6668664">
        <ele>20.325</ele>
        <time>2013-05-16T16:02:30Z</time>
      </trkpt>
      <trkpt lat="59.947411" lon="17.6668309">
        <ele>20.325</ele>
        <time>2013-05-16T16:02:31Z</time>
      </trkpt>
      <trkpt lat="59.9473432" lon="17.6667957">
        <ele>20.325</ele>
        <time>2013-05-16T16:02:32Z</time>
      </trkpt>
      <trkpt lat="59.9472759" lon="17.6667623">
        <ele>20.325</ele>
        <time>2013-05-16T16:02:33Z</time>
      </trkpt>
      <trkpt lat="59.9472093" lon="17.6667317">
        <ele>20.325</ele>
        <time>2013-05-16T16:02:34Z</time>
      </trkpt>
      <trkpt lat="59.9471433" lon="17.666703">
        <ele>20.325</ele>
        <time>2013-05-16T16:02:35Z</time>
      </trkpt>
      <trkpt lat="59.9470778" lon="17.6666737">
        <ele>20.325</ele>
        <time>2013-05-16T16:02:36Z</time>
      </trkpt>
      <trkpt lat="59.9470126" lon="17.6666433">
        <ele>20.8057</ele>
        <time>2013-05-16T16:02:37Z</time>
      </trkpt>
      <trkpt lat="59.9469473" lon="17.6666123">
        <ele>20.8057</ele>
        <time>2013-05-16T16:02:38Z</time>
      </trkpt>
      <trkpt lat="59.9468824" lon="17.6665811">
        <ele>20.8057</ele>
        <time>2013-05-16T16:02:39Z</time>
      </trkpt>
      <trkpt lat="59.9468174" lon="17.6665548">
        <ele>20.8057</ele>
        <time>2013-05-16T16:02:40Z</time>
      </trkpt>
      <trkpt lat="59.9467522" lon="17.6665329">
        <ele>21.2864</ele>
        <time>2013-05-16T16:02:41Z</time>
      </trkpt>
      <trkpt lat="59.9466861" lon="17.6665154">
        <ele>21.2864</ele>
        <time>2013-05-16T16:02:42Z</time>
      </trkpt>
      <trkpt lat="59.9466198" lon="17.6665059">
        <ele>21.2864</ele>
        <time>2013-05-16T16:02:43Z</time>
      </trkpt>
      <trkpt lat="59.9465526" lon="17.6665019">
        <ele>21.767</ele>
        <time>2013-05-16T16:02:44Z</time>
      </trkpt>
      <trkpt lat="59.9464836" lon="17.6664936">
        <ele>21.767</ele>
        <time>2013-05-16T16:02:45Z</time>
      </trkpt>
      <trkpt lat="59.9464154" lon="17.6664746">
        <ele>21.767</ele>
        <time>2013-05-16T16:02:46Z</time>
      </trkpt>
      <trkpt lat="59.9463491" lon="17.6664456">
        <ele>21.767</ele>
        <time>2013-05-16T16:02:47Z</time>
      </trkpt>
      <trkpt lat="59.9462844" lon="17.6664071">
        <ele>21.767</ele>
        <time>2013-05-16T16:02:48Z</time>
      </trkpt>
      <trkpt lat="59.9462222" lon="17.6663593">
        <ele>22.2476</ele>
        <time>2013-05-16T16:02:49Z</time>
      </trkpt>
      <trkpt lat="59.9461606" lon="17.6663109">
        <ele>22.2476</ele>
        <time>2013-05-16T16:02:50Z</time>
      </trkpt>
      <trkpt lat="59.9460964" lon="17.666275">
        <ele>22.2476</ele>
        <time>2013-05-16T16:02:51Z</time>
      </trkpt>
      <trkpt lat="59.94603" lon="17.6662527">
        <ele>22.2476</ele>
        <time>2013-05-16T16:02:52Z</time>
      </trkpt>
      <trkpt lat="59.9459633" lon="17.6662306">
        <ele>22.2476</ele>
        <time>2013-05-16T16:02:53Z</time>
      </trkpt>
      <trkpt lat="59.9458984" lon="17.6662054">
        <ele>22.2476</ele>
        <time>2013-05-16T16:02:54Z</time>
      </trkpt>
      <trkpt lat="59.945835" lon="17.6661801">
        <ele>22.2476</ele>
        <time>2013-05-16T16:02:55Z</time>
      </trkpt>
      <trkpt lat="59.9457721" lon="17.6661558">
        <ele>22.7283</ele>
        <time>2013-05-16T16:02:56Z</time>
      </trkpt>
      <trkpt lat="59.9457092" lon="17.6661314">
        <ele>22.7283</ele>
        <time>2013-05-16T16:02:57Z</time>
      </trkpt>
      <trkpt lat="59.9456462" lon="17.6661065">
        <ele>22.7283</ele>
        <time>2013-05-16T16:02:58Z</time>
      </trkpt>
      <trkpt lat="59.9455828" lon="17.6660823">
        <ele>22.7283</ele>
        <time>2013-05-16T16:02:59Z</time>
      </trkpt>
      <trkpt lat="59.9455197" lon="17.6660586">
        <ele>22.7283</ele>
        <time>2013-05-16T16:03:00Z</time>
      </trkpt>
      <trkpt lat="59.9454555" lon="17.6660366">
        <ele>22.7283</ele>
        <time>2013-05-16T16:03:01Z</time>
      </trkpt>
      <trkpt lat="59.9453913" lon="17.6660146">
        <ele>23.209</ele>
        <time>2013-05-16T16:03:02Z</time>
      </trkpt>
      <trkpt lat="59.9453274" lon="17.6659906">
        <ele>23.209</ele>
        <time>2013-05-16T16:03:03Z</time>
      </trkpt>
      <trkpt lat="59.9452634" lon="17.6659664">
        <ele>23.209</ele>
        <time>2013-05-16T16:03:04Z</time>
      </trkpt>
      <trkpt lat="59.9452001" lon="17.6659425">
        <ele>23.209</ele>
        <time>2013-05-16T16:03:05Z</time>
      </trkpt>
      <trkpt lat="59.9451362" lon="17.6659182">
        <ele>23.209</ele>
        <time>2013-05-16T16:03:06Z</time>
      </trkpt>
      <trkpt lat="59.9450712" lon="17.6658933">
        <ele>23.209</ele>
        <time>2013-05-16T16:03:07Z</time>
      </trkpt>
      <trkpt lat="59.9450063" lon="17.6658662">
        <ele>23.209</ele>
        <time>2013-05-16T16:03:08Z</time>
      </trkpt>
      <trkpt lat="59.9449415" lon="17.6658397">
        <ele>23.209</ele>
        <time>2013-05-16T16:03:09Z</time>
      </trkpt>
      <trkpt lat="59.9448762" lon="17.6658164">
        <ele>23.209</ele>
        <time>2013-05-16T16:03:10Z</time>
      </trkpt>
      <trkpt lat="59.9448105" lon="17.6657927">
        <ele>23.209</ele>
        <time>2013-05-16T16:03:11Z</time>
      </trkpt>
      <trkpt lat="59.9447442" lon="17.6657661">
        <ele>23.209</ele>
        <time>2013-05-16T16:03:12Z</time>
      </trkpt>
      <trkpt lat="59.944677" lon="17.6657379">
        <ele>23.209</ele>
        <time>2013-05-16T16:03:13Z</time>
      </trkpt>
      <trkpt lat="59.9446102" lon="17.6657099">
        <ele>23.209</ele>
        <time>2013-05-16T16:03:14Z</time>
      </trkpt>
      <trkpt lat="59.9445444" lon="17.665685">
        <ele>23.209</ele>
        <time>2013-05-16T16:03:15Z</time>
      </trkpt>
      <trkpt lat="59.9444796" lon="17.6656616">
        <ele>23.209</ele>
        <time>2013-05-16T16:03:16Z</time>
      </trkpt>
      <trkpt lat="59.944416" lon="17.6656358">
        <ele>23.209</ele>
        <time>2013-05-16T16:03:17Z</time>
      </trkpt>
      <trkpt lat="59.9443526" lon="17.6656088">
        <ele>23.209</ele>
        <time>2013-05-16T16:03:18Z</time>
      </trkpt>
      <trkpt lat="59.9442889" lon="17.6655825">
        <ele>23.209</ele>
        <time>2013-05-16T16:03:19Z</time>
      </trkpt>
      <trkpt lat="59.9442257" lon="17.6655564">
        <ele>23.209</ele>
        <time>2013-05-16T16:03:20Z</time>
      </trkpt>
      <trkpt lat="59.9441624" lon="17.6655301">
        <ele>23.209</ele>
        <time>2013-05-16T16:03:21Z</time>
      </trkpt>
      <trkpt lat="59.9440994" lon="17.6655022">
        <ele>23.209</ele>
        <time>2013-05-16T16:03:22Z</time>
      </trkpt>
      <trkpt lat="59.9440367" lon="17.665472">
        <ele>23.209</ele>
        <time>2013-05-16T16:03:23Z</time>
      </trkpt>
      <trkpt lat="59.9439756" lon="17.6654421">
        <ele>23.6896</ele>
        <time>2013-05-16T16:03:24Z</time>
      </trkpt>
      <trkpt lat="59.9439151" lon="17.6654129">
        <ele>23.6896</ele>
        <time>2013-05-16T16:03:25Z</time>
      </trkpt>
      <trkpt lat="59.9438554" lon="17.6653773">
        <ele>23.6896</ele>
        <time>2013-05-16T16:03:26Z</time>
      </trkpt>
      <trkpt lat="59.9437974" lon="17.6653411">
        <ele>23.6896</ele>
        <time>2013-05-16T16:03:27Z</time>
      </trkpt>
      <trkpt lat="59.9437405" lon="17.6653043">
        <ele>23.6896</ele>
        <time>2013-05-16T16:03:28Z</time>
      </trkpt>
      <trkpt lat="59.9436849" lon="17.6652679">
        <ele>23.6896</ele>
        <time>2013-05-16T16:03:29Z</time>
      </trkpt>
      <trkpt lat="59.9436297" lon="17.6652321">
        <ele>23.6896</ele>
        <time>2013-05-16T16:03:30Z</time>
      </trkpt>
      <trkpt lat="59.9435747" lon="17.6651961">
        <ele>23.6896</ele>
        <time>2013-05-16T16:03:31Z</time>
      </trkpt>
      <trkpt lat="59.9435208" lon="17.6651595">
        <ele>23.6896</ele>
        <time>2013-05-16T16:03:32Z</time>
      </trkpt>
      <trkpt lat="59.9434686" lon="17.6651208">
        <ele>23.6896</ele>
        <time>2013-05-16T16:03:33Z</time>
      </trkpt>
      <trkpt lat="59.9434177" lon="17.665081">
        <ele>23.6896</ele>
        <time>2013-05-16T16:03:34Z</time>
      </trkpt>
      <trkpt lat="59.9433675" lon="17.6650411">
        <ele>23.6896</ele>
        <time>2013-05-16T16:03:35Z</time>
      </trkpt>
      <trkpt lat="59.9433182" lon="17.665001">
        <ele>23.6896</ele>
        <time>2013-05-16T16:03:36Z</time>
      </trkpt>
      <trkpt lat="59.9432679" lon="17.6649609">
        <ele>23.6896</ele>
        <time>2013-05-16T16:03:37Z</time>
      </trkpt>
      <trkpt lat="59.9432172" lon="17.6649189">
        <ele>23.6896</ele>
        <time>2013-05-16T16:03:38Z</time>
      </trkpt>
      <trkpt lat="59.9431671" lon="17.6648743">
        <ele>23.6896</ele>
        <time>2013-05-16T16:03:39Z</time>
      </trkpt>
      <trkpt lat="59.9431172" lon="17.6648265">
        <ele>23.6896</ele>
        <time>2013-05-16T16:03:40Z</time>
      </trkpt>
      <trkpt lat="59.943067" lon="17.6647774">
        <ele>24.1703</ele>
        <time>2013-05-16T16:03:41Z</time>
      </trkpt>
      <trkpt lat="59.9430156" lon="17.6647285">
        <ele>24.1703</ele>
        <time>2013-05-16T16:03:42Z</time>
      </trkpt>
      <trkpt lat="59.9429639" lon="17.664679">
        <ele>24.1703</ele>
        <time>2013-05-16T16:03:43Z</time>
      </trkpt>
      <trkpt lat="59.9429126" lon="17.6646288">
        <ele>24.1703</ele>
        <time>2013-05-16T16:03:44Z</time>
      </trkpt>
      <trkpt lat="59.9428609" lon="17.6645781">
        <ele>24.1703</ele>
        <time>2013-05-16T16:03:45Z</time>
      </trkpt>
      <trkpt lat="59.9428098" lon="17.6645262">
        <ele>24.1703</ele>
        <time>2013-05-16T16:03:46Z</time>
      </trkpt>
      <trkpt lat="59.9427588" lon="17.6644735">
        <ele>24.1703</ele>
        <time>2013-05-16T16:03:47Z</time>
      </trkpt>
      <trkpt lat="59.9427092" lon="17.6644179">
        <ele>24.1703</ele>
        <time>2013-05-16T16:03:48Z</time>
      </trkpt>
      <trkpt lat="59.9426604" lon="17.664361">
        <ele>24.1703</ele>
        <time>2013-05-16T16:03:49Z</time>
      </trkpt>
      <trkpt lat="59.9426117" lon="17.664304">
        <ele>24.1703</ele>
        <time>2013-05-16T16:03:50Z</time>
      </trkpt>
      <trkpt lat="59.9425628" lon="17.6642478">
        <ele>24.1703</ele>
        <time>2013-05-16T16:03:51Z</time>
      </trkpt>
      <trkpt lat="59.9425142" lon="17.6641905">
        <ele>24.1703</ele>
        <time>2013-05-16T16:03:52Z</time>
      </trkpt>
      <trkpt lat="59.9424671" lon="17.6641304">
        <ele>24.651</ele>
        <time>2013-05-16T16:03:53Z</time>
      </trkpt>
      <trkpt lat="59.9424211" lon="17.6640677">
        <ele>24.651</ele>
        <time>2013-05-16T16:03:54Z</time>
      </trkpt>
      <trkpt lat="59.9423754" lon="17.664003">
        <ele>24.651</ele>
        <time>2013-05-16T16:03:55Z</time>
      </trkpt>
      <trkpt lat="59.9423278" lon="17.6639388">
        <ele>24.651</ele>
        <time>2013-05-16T16:03:56Z</time>
      </trkpt>
      <trkpt lat="59.9422801" lon="17.6638746">
        <ele>24.651</ele>
        <time>2013-05-16T16:03:57Z</time>
      </trkpt>
      <trkpt lat="59.942233" lon="17.6638084">
        <ele>24.651</ele>
        <time>2013-05-16T16:03:58Z</time>
      </trkpt>
      <trkpt lat="59.9421843" lon="17.6637408">
        <ele>24.651</ele>
        <time>2013-05-16T16:03:59Z</time>
      </trkpt>
      <trkpt lat="59.9421373" lon="17.663672">
        <ele>24.651</ele>
        <time>2013-05-16T16:04:00Z</time>
      </trkpt>
      <trkpt lat="59.9420896" lon="17.6635981">
        <ele>25.1317</ele>
        <time>2013-05-16T16:04:01Z</time>
      </trkpt>
      <trkpt lat="59.9420417" lon="17.6635224">
        <ele>25.1317</ele>
        <time>2013-05-16T16:04:02Z</time>
      </trkpt>
      <trkpt lat="59.941994" lon="17.6634463">
        <ele>25.1317</ele>
        <time>2013-05-16T16:04:03Z</time>
      </trkpt>
      <trkpt lat="59.9419461" lon="17.6633665">
        <ele>25.1317</ele>
        <time>2013-05-16T16:04:04Z</time>
      </trkpt>
      <trkpt lat="59.9419003" lon="17.6632855">
        <ele>25.1317</ele>
        <time>2013-05-16T16:04:05Z</time>
      </trkpt>
      <trkpt lat="59.9418542" lon="17.6632032">
        <ele>25.1317</ele>
        <time>2013-05-16T16:04:06Z</time>
      </trkpt>
      <trkpt lat="59.9418061" lon="17.6631215">
        <ele>25.1317</ele>
        <time>2013-05-16T16:04:07Z</time>
      </trkpt>
      <trkpt lat="59.9417565" lon="17.6630405">
        <ele>25.1317</ele>
        <time>2013-05-16T16:04:08Z</time>
      </trkpt>
      <trkpt lat="59.9417065" lon="17.6629587">
        <ele>25.6123</ele>
        <time>2013-05-16T16:04:09Z</time>
      </trkpt>
      <trkpt lat="59.9416576" lon="17.6628746">
        <ele>25.6123</ele>
        <time>2013-05-16T16:04:10Z</time>
      </trkpt>
      <trkpt lat="59.9416102" lon="17.6627866">
        <ele>25.6123</ele>
        <time>2013-05-16T16:04:11Z</time>
      </trkpt>
      <trkpt lat="59.9415601" lon="17.6626978">
        <ele>25.6123</ele>
        <time>2013-05-16T16:04:12Z</time>
      </trkpt>
      <trkpt lat="59.9415046" lon="17.6626154">
        <ele>25.6123</ele>
        <time>2013-05-16T16:04:13Z</time>
      </trkpt>
      <trkpt lat="59.9414472" lon="17.6625363">
        <ele>25.6123</ele>
        <time>2013-05-16T16:04:14Z</time>
      </trkpt>
      <trkpt lat="59.9413875" lon="17.6624607">
        <ele>25.6123</ele>
        <time>2013-05-16T16:04:15Z</time>
      </trkpt>
      <trkpt lat="59.941326" lon="17.6623897">
        <ele>25.6123</ele>
        <time>2013-05-16T16:04:16Z</time>
      </trkpt>
      <trkpt lat="59.9412628" lon="17.6623247">
        <ele>25.6123</ele>
        <time>2013-05-16T16:04:17Z</time>
      </trkpt>
      <trkpt lat="59.9411965" lon="17.6622668">
        <ele>25.6123</ele>
        <time>2013-05-16T16:04:18Z</time>
      </trkpt>
      <trkpt lat="59.941127" lon="17.6622159">
        <ele>25.6123</ele>
        <time>2013-05-16T16:04:19Z</time>
      </trkpt>
      <trkpt lat="59.9410559" lon="17.6621713">
        <ele>25.6123</ele>
        <time>2013-05-16T16:04:20Z</time>
      </trkpt>
      <trkpt lat="59.9409837" lon="17.662133">
        <ele>25.6123</ele>
        <time>2013-05-16T16:04:21Z</time>
      </trkpt>
      <trkpt lat="59.94091" lon="17.6621038">
        <ele>25.6123</ele>
        <time>2013-05-16T16:04:22Z</time>
      </trkpt>
      <trkpt lat="59.9408324" lon="17.6620868">
        <ele>25.6123</ele>
        <time>2013-05-16T16:04:23Z</time>
      </trkpt>
      <trkpt lat="59.9407535" lon="17.6620776">
        <ele>25.1317</ele>
        <time>2013-05-16T16:04:24Z</time>
      </trkpt>
      <trkpt lat="59.9406769" lon="17.662061">
        <ele>25.1317</ele>
        <time>2013-05-16T16:04:25Z</time>
      </trkpt>
      <trkpt lat="59.9406019" lon="17.6620242">
        <ele>24.651</ele>
        <time>2013-05-16T16:04:26Z</time>
      </trkpt>
      <trkpt lat="59.9405299" lon="17.6619575">
        <ele>24.651</ele>
        <time>2013-05-16T16:04:27Z</time>
      </trkpt>
      <trkpt lat="59.9404665" lon="17.6618577">
        <ele>24.651</ele>
        <time>2013-05-16T16:04:28Z</time>
      </trkpt>
      <trkpt lat="59.9404101" lon="17.6617304">
        <ele>24.651</ele>
        <time>2013-05-16T16:04:29Z</time>
      </trkpt>
      <trkpt lat="59.9403775" lon="17.6615718">
        <ele>25.1317</ele>
        <time>2013-05-16T16:04:30Z</time>
      </trkpt>
      <trkpt lat="59.9403676" lon="17.6614109">
        <ele>24.651</ele>
        <time>2013-05-16T16:04:31Z</time>
      </trkpt>
      <trkpt lat="59.940366" lon="17.6612475">
        <ele>24.1703</ele>
        <time>2013-05-16T16:04:32Z</time>
      </trkpt>
      <trkpt lat="59.9403842" lon="17.6610571">
        <ele>23.6896</ele>
        <time>2013-05-16T16:04:33Z</time>
      </trkpt>
      <trkpt lat="59.9404094" lon="17.6608736">
        <ele>24.1703</ele>
        <time>2013-05-16T16:04:34Z</time>
      </trkpt>
      <trkpt lat="59.9404488" lon="17.6607333">
        <ele>23.6896</ele>
        <time>2013-05-16T16:04:35Z</time>
      </trkpt>
      <trkpt lat="59.9404858" lon="17.6605857">
        <ele>23.6896</ele>
        <time>2013-05-16T16:04:36Z</time>
      </trkpt>
      <trkpt lat="59.9405122" lon="17.6604332">
        <ele>23.6896</ele>
        <time>2013-05-16T16:04:37Z</time>
      </trkpt>
      <trkpt lat="59.9405303" lon="17.6602858">
        <ele>24.1703</ele>
        <time>2013-05-16T16:04:38Z</time>
      </trkpt>
      <trkpt lat="59.9405254" lon="17.6601599">
        <ele>24.1703</ele>
        <time>2013-05-16T16:04:39Z</time>
      </trkpt>
      <trkpt lat="59.940493" lon="17.6600179">
        <ele>24.1703</ele>
        <time>2013-05-16T16:04:40Z</time>
      </trkpt>
      <trkpt lat="59.9404741" lon="17.6599163">
        <ele>24.651</ele>
        <time>2013-05-16T16:04:41Z</time>
      </trkpt>
      <trkpt lat="59.9404485" lon="17.6598127">
        <ele>24.1703</ele>
        <time>2013-05-16T16:04:42Z</time>
      </trkpt>
      <trkpt lat="59.9403757" lon="17.6596862">
        <ele>24.1703</ele>
        <time>2013-05-16T16:04:43Z</time>
      </trkpt>
      <trkpt lat="59.9403391" lon="17.6595404">
        <ele>23.6896</ele>
        <time>2013-05-16T16:04:44Z</time>
      </trkpt>
      <trkpt lat="59.9403122" lon="17.6593912">
        <ele>23.209</ele>
        <time>2013-05-16T16:04:45Z</time>
      </trkpt>
      <trkpt lat="59.9402849" lon="17.6592309">
        <ele>23.209</ele>
        <time>2013-05-16T16:04:46Z</time>
      </trkpt>
      <trkpt lat="59.94026" lon="17.6590715">
        <ele>23.209</ele>
        <time>2013-05-16T16:04:47Z</time>
      </trkpt>
      <trkpt lat="59.9402293" lon="17.6589171">
        <ele>23.209</ele>
        <time>2013-05-16T16:04:48Z</time>
      </trkpt>
      <trkpt lat="59.9401966" lon="17.6587606">
        <ele>23.209</ele>
        <time>2013-05-16T16:04:49Z</time>
      </trkpt>
      <trkpt lat="59.9401611" lon="17.6586075">
        <ele>23.209</ele>
        <time>2013-05-16T16:04:50Z</time>
      </trkpt>
      <trkpt lat="59.9401268" lon="17.658454">
        <ele>23.209</ele>
        <time>2013-05-16T16:04:51Z</time>
      </trkpt>
      <trkpt lat="59.9400942" lon="17.6583013">
        <ele>23.209</ele>
        <time>2013-05-16T16:04:52Z</time>
      </trkpt>
      <trkpt lat="59.9400628" lon="17.6581527">
        <ele>23.6896</ele>
        <time>2013-05-16T16:04:53Z</time>
      </trkpt>
      <trkpt lat="59.940032" lon="17.6580065">
        <ele>24.1703</ele>
        <time>2013-05-16T16:04:54Z</time>
      </trkpt>
      <trkpt lat="59.9400009" lon="17.6578639">
        <ele>24.1703</ele>
        <time>2013-05-16T16:04:55Z</time>
      </trkpt>
      <trkpt lat="59.939971" lon="17.6577245">
        <ele>24.1703</ele>
        <time>2013-05-16T16:04:56Z</time>
      </trkpt>
      <trkpt lat="59.9399449" lon="17.6575828">
        <ele>24.651</ele>
        <time>2013-05-16T16:04:57Z</time>
      </trkpt>
      <trkpt lat="59.9399181" lon="17.6574413">
        <ele>25.1317</ele>
        <time>2013-05-16T16:04:58Z</time>
      </trkpt>
      <trkpt lat="59.9398911" lon="17.6573027">
        <ele>25.1317</ele>
        <time>2013-05-16T16:04:59Z</time>
      </trkpt>
      <trkpt lat="59.9398624" lon="17.6571678">
        <ele>25.6123</ele>
        <time>2013-05-16T16:05:00Z</time>
      </trkpt>
      <trkpt lat="59.9398328" lon="17.6570318">
        <ele>26.0929</ele>
        <time>2013-05-16T16:05:01Z</time>
      </trkpt>
      <trkpt lat="59.9398034" lon="17.6568932">
        <ele>26.5736</ele>
        <time>2013-05-16T16:05:02Z</time>
      </trkpt>
      <trkpt lat="59.9397751" lon="17.6567488">
        <ele>26.5736</ele>
        <time>2013-05-16T16:05:03Z</time>
      </trkpt>
      <trkpt lat="59.9397476" lon="17.6566032">
        <ele>27.0543</ele>
        <time>2013-05-16T16:05:04Z</time>
      </trkpt>
      <trkpt lat="59.9397199" lon="17.6564536">
        <ele>27.5349</ele>
        <time>2013-05-16T16:05:05Z</time>
      </trkpt>
      <trkpt lat="59.9396911" lon="17.6563007">
        <ele>27.0543</ele>
        <time>2013-05-16T16:05:06Z</time>
      </trkpt>
      <trkpt lat="59.9396638" lon="17.6561484">
        <ele>27.5349</ele>
        <time>2013-05-16T16:05:07Z</time>
      </trkpt>
      <trkpt lat="59.9396353" lon="17.6559986">
        <ele>28.0155</ele>
        <time>2013-05-16T16:05:08Z</time>
      </trkpt>
      <trkpt lat="59.9396083" lon="17.6558512">
        <ele>28.0155</ele>
        <time>2013-05-16T16:05:09Z</time>
      </trkpt>
      <trkpt lat="59.9395808" lon="17.6557059">
        <ele>28.0155</ele>
        <time>2013-05-16T16:05:10Z</time>
      </trkpt>
      <trkpt lat="59.9395523" lon="17.6555626">
        <ele>28.4962</ele>
        <time>2013-05-16T16:05:11Z</time>
      </trkpt>
      <trkpt lat="59.9395243" lon="17.655421">
        <ele>28.4962</ele>
        <time>2013-05-16T16:05:12Z</time>
      </trkpt>
      <trkpt lat="59.9394969" lon="17.6552798">
        <ele>28.4962</ele>
        <time>2013-05-16T16:05:13Z</time>
      </trkpt>
      <trkpt lat="59.9394684" lon="17.6551395">
        <ele>28.4962</ele>
        <time>2013-05-16T16:05:14Z</time>
      </trkpt>
      <trkpt lat="59.9394399" lon="17.654999">
        <ele>28.9769</ele>
        <time>2013-05-16T16:05:15Z</time>
      </trkpt>
      <trkpt lat="59.9394117" lon="17.6548579">
        <ele>28.9769</ele>
        <time>2013-05-16T16:05:16Z</time>
      </trkpt>
      <trkpt lat="59.9393835" lon="17.6547161">
        <ele>28.9769</ele>
        <time>2013-05-16T16:05:17Z</time>
      </trkpt>
      <trkpt lat="59.9393544" lon="17.654574">
        <ele>28.9769</ele>
        <time>2013-05-16T16:05:18Z</time>
      </trkpt>
      <trkpt lat="59.9393248" lon="17.6544306">
        <ele>28.9769</ele>
        <time>2013-05-16T16:05:19Z</time>
      </trkpt>
      <trkpt lat="59.9392952" lon="17.6542839">
        <ele>28.4962</ele>
        <time>2013-05-16T16:05:20Z</time>
      </trkpt>
      <trkpt lat="59.9392656" lon="17.6541364">
        <ele>28.0155</ele>
        <time>2013-05-16T16:05:21Z</time>
      </trkpt>
      <trkpt lat="59.9392351" lon="17.6539879">
        <ele>27.5349</ele>
        <time>2013-05-16T16:05:22Z</time>
      </trkpt>
      <trkpt lat="59.939204" lon="17.6538402">
        <ele>27.5349</ele>
        <time>2013-05-16T16:05:23Z</time>
      </trkpt>
      <trkpt lat="59.9391716" lon="17.6536919">
        <ele>28.0155</ele>
        <time>2013-05-16T16:05:24Z</time>
      </trkpt>
      <trkpt lat="59.9391373" lon="17.6535418">
        <ele>27.5349</ele>
        <time>2013-05-16T16:05:25Z</time>
      </trkpt>
      <trkpt lat="59.9391017" lon="17.6533916">
        <ele>27.0543</ele>
        <time>2013-05-16T16:05:26Z</time>
      </trkpt>
      <trkpt lat="59.9390659" lon="17.6532398">
        <ele>27.0543</ele>
        <time>2013-05-16T16:05:27Z</time>
      </trkpt>
      <trkpt lat="59.9390296" lon="17.6530869">
        <ele>26.5736</ele>
        <time>2013-05-16T16:05:28Z</time>
      </trkpt>
      <trkpt lat="59.9389917" lon="17.6529357">
        <ele>26.5736</ele>
        <time>2013-05-16T16:05:29Z</time>
      </trkpt>
      <trkpt lat="59.9389519" lon="17.6527869">
        <ele>26.0929</ele>
        <time>2013-05-16T16:05:30Z</time>
      </trkpt>
      <trkpt lat="59.9389124" lon="17.6526363">
        <ele>26.0929</ele>
        <time>2013-05-16T16:05:31Z</time>
      </trkpt>
      <trkpt lat="59.9388727" lon="17.652485">
        <ele>25.6123</ele>
        <time>2013-05-16T16:05:32Z</time>
      </trkpt>
      <trkpt lat="59.9388308" lon="17.6523318">
        <ele>25.6123</ele>
        <time>2013-05-16T16:05:33Z</time>
      </trkpt>
      <trkpt lat="59.9387881" lon="17.6521803">
        <ele>25.6123</ele>
        <time>2013-05-16T16:05:34Z</time>
      </trkpt>
      <trkpt lat="59.9387442" lon="17.6520295">
        <ele>25.1317</ele>
        <time>2013-05-16T16:05:35Z</time>
      </trkpt>
      <trkpt lat="59.9386994" lon="17.6518788">
        <ele>25.1317</ele>
        <time>2013-05-16T16:05:36Z</time>
      </trkpt>
      <trkpt lat="59.938653" lon="17.6517292">
        <ele>25.1317</ele>
        <time>2013-05-16T16:05:37Z</time>
      </trkpt>
      <trkpt lat="59.9386059" lon="17.6515806">
        <ele>24.651</ele>
        <time>2013-05-16T16:05:38Z</time>
      </trkpt>
      <trkpt lat="59.938558" lon="17.6514335">
        <ele>24.651</ele>
        <time>2013-05-16T16:05:39Z</time>
      </trkpt>
      <trkpt lat="59.9385093" lon="17.6512874">
        <ele>24.651</ele>
        <time>2013-05-16T16:05:40Z</time>
      </trkpt>
      <trkpt lat="59.9384607" lon="17.6511438">
        <ele>24.1703</ele>
        <time>2013-05-16T16:05:41Z</time>
      </trkpt>
      <trkpt lat="59.9384102" lon="17.6510054">
        <ele>24.1703</ele>
        <time>2013-05-16T16:05:42Z</time>
      </trkpt>
      <trkpt lat="59.9383547" lon="17.6508764">
        <ele>24.1703</ele>
        <time>2013-05-16T16:05:43Z</time>
      </trkpt>
      <trkpt lat="59.9382971" lon="17.6507539">
        <ele>24.1703</ele>
        <time>2013-05-16T16:05:44Z</time>
      </trkpt>
      <trkpt lat="59.9382386" lon="17.6506305">
        <ele>24.1703</ele>
        <time>2013-05-16T16:05:45Z</time>
      </trkpt>
      <trkpt lat="59.9381873" lon="17.6505006">
        <ele>24.1703</ele>
        <time>2013-05-16T16:05:46Z</time>
      </trkpt>
      <trkpt lat="59.9381391" lon="17.6503662">
        <ele>24.1703</ele>
        <time>2013-05-16T16:05:47Z</time>
      </trkpt>
      <trkpt lat="59.9380916" lon="17.6502321">
        <ele>24.1703</ele>
        <time>2013-05-16T16:05:48Z</time>
      </trkpt>
      <trkpt lat="59.9380433" lon="17.6501017">
        <ele>24.1703</ele>
        <time>2013-05-16T16:05:49Z</time>
      </trkpt>
      <trkpt lat="59.9379942" lon="17.6499758">
        <ele>24.651</ele>
        <time>2013-05-16T16:05:50Z</time>
      </trkpt>
      <trkpt lat="59.9379454" lon="17.6498561">
        <ele>24.651</ele>
        <time>2013-05-16T16:05:51Z</time>
      </trkpt>
      <trkpt lat="59.9378953" lon="17.6497434">
        <ele>25.1317</ele>
        <time>2013-05-16T16:05:52Z</time>
      </trkpt>
      <trkpt lat="59.937847" lon="17.649634">
        <ele>25.1317</ele>
        <time>2013-05-16T16:05:53Z</time>
      </trkpt>
      <trkpt lat="59.9378025" lon="17.6495168">
        <ele>25.1317</ele>
        <time>2013-05-16T16:05:54Z</time>
      </trkpt>
      <trkpt lat="59.9377636" lon="17.6493905">
        <ele>25.1317</ele>
        <time>2013-05-16T16:05:55Z</time>
      </trkpt>
      <trkpt lat="59.9377264" lon="17.6492672">
        <ele>25.1317</ele>
        <time>2013-05-16T16:05:56Z</time>
      </trkpt>
      <trkpt lat="59.9376895" lon="17.6491507">
        <ele>25.1317</ele>
        <time>2013-05-16T16:05:57Z</time>
      </trkpt>
      <trkpt lat="59.9376538" lon="17.6490356">
        <ele>25.1317</ele>
        <time>2013-05-16T16:05:58Z</time>
      </trkpt>
      <trkpt lat="59.9376171" lon="17.6489189">
        <ele>25.6123</ele>
        <time>2013-05-16T16:05:59Z</time>
      </trkpt>
      <trkpt lat="59.9375735" lon="17.6488091">
        <ele>26.0929</ele>
        <time>2013-05-16T16:06:00Z</time>
      </trkpt>
      <trkpt lat="59.9375264" lon="17.6487013">
        <ele>26.5736</ele>
        <time>2013-05-16T16:06:01Z</time>
      </trkpt>
      <trkpt lat="59.9374761" lon="17.6485932">
        <ele>27.0543</ele>
        <time>2013-05-16T16:06:02Z</time>
      </trkpt>
      <trkpt lat="59.9374249" lon="17.6484845">
        <ele>27.0543</ele>
        <time>2013-05-16T16:06:03Z</time>
      </trkpt>
      <trkpt lat="59.9373759" lon="17.6483747">
        <ele>27.5349</ele>
        <time>2013-05-16T16:06:04Z</time>
      </trkpt>
      <trkpt lat="59.9373223" lon="17.6482629">
        <ele>27.0543</ele>
        <time>2013-05-16T16:06:05Z</time>
      </trkpt>
      <trkpt lat="59.9372616" lon="17.6481553">
        <ele>27.5349</ele>
        <time>2013-05-16T16:06:06Z</time>
      </trkpt>
      <trkpt lat="59.937199" lon="17.6480591">
        <ele>27.5349</ele>
        <time>2013-05-16T16:06:07Z</time>
      </trkpt>
      <trkpt lat="59.9371357" lon="17.6479736">
        <ele>28.0155</ele>
        <time>2013-05-16T16:06:08Z</time>
      </trkpt>
      <trkpt lat="59.937071" lon="17.6478934">
        <ele>28.4962</ele>
        <time>2013-05-16T16:06:09Z</time>
      </trkpt>
      <trkpt lat="59.9370061" lon="17.6478168">
        <ele>28.4962</ele>
        <time>2013-05-16T16:06:10Z</time>
      </trkpt>
      <trkpt lat="59.9369425" lon="17.6477433">
        <ele>28.4962</ele>
        <time>2013-05-16T16:06:11Z</time>
      </trkpt>
      <trkpt lat="59.9368818" lon="17.6476702">
        <ele>28.4962</ele>
        <time>2013-05-16T16:06:12Z</time>
      </trkpt>
      <trkpt lat="59.9368208" lon="17.6475939">
        <ele>28.4962</ele>
        <time>2013-05-16T16:06:13Z</time>
      </trkpt>
      <trkpt lat="59.9367619" lon="17.6475132">
        <ele>28.4962</ele>
        <time>2013-05-16T16:06:14Z</time>
      </trkpt>
      <trkpt lat="59.9367032" lon="17.6474293">
        <ele>28.4962</ele>
        <time>2013-05-16T16:06:15Z</time>
      </trkpt>
      <trkpt lat="59.9366426" lon="17.6473458">
        <ele>28.4962</ele>
        <time>2013-05-16T16:06:16Z</time>
      </trkpt>
      <trkpt lat="59.9365784" lon="17.6472598">
        <ele>28.9769</ele>
        <time>2013-05-16T16:06:17Z</time>
      </trkpt>
      <trkpt lat="59.9365131" lon="17.6471735">
        <ele>28.9769</ele>
        <time>2013-05-16T16:06:18Z</time>
      </trkpt>
      <trkpt lat="59.9364479" lon="17.6470889">
        <ele>28.9769</ele>
        <time>2013-05-16T16:06:19Z</time>
      </trkpt>
      <trkpt lat="59.9363834" lon="17.6470071">
        <ele>29.4575</ele>
        <time>2013-05-16T16:06:20Z</time>
      </trkpt>
      <trkpt lat="59.9363207" lon="17.6469268">
        <ele>29.9381</ele>
        <time>2013-05-16T16:06:21Z</time>
      </trkpt>
      <trkpt lat="59.9362593" lon="17.6468459">
        <ele>30.4188</ele>
        <time>2013-05-16T16:06:22Z</time>
      </trkpt>
      <trkpt lat="59.9361944" lon="17.6467559">
        <ele>30.4188</ele>
        <time>2013-05-16T16:06:23Z</time>
      </trkpt>
      <trkpt lat="59.9361314" lon="17.6466743">
        <ele>30.8995</ele>
        <time>2013-05-16T16:06:24Z</time>
      </trkpt>
      <trkpt lat="59.9360713" lon="17.6465977">
        <ele>30.8995</ele>
        <time>2013-05-16T16:06:25Z</time>
      </trkpt>
      <trkpt lat="59.9360137" lon="17.6465222">
        <ele>31.3801</ele>
        <time>2013-05-16T16:06:26Z</time>
      </trkpt>
      <trkpt lat="59.9359567" lon="17.646448">
        <ele>31.3801</ele>
        <time>2013-05-16T16:06:27Z</time>
      </trkpt>
      <trkpt lat="59.9358966" lon="17.6463648">
        <ele>31.3801</ele>
        <time>2013-05-16T16:06:28Z</time>
      </trkpt>
      <trkpt lat="59.9358396" lon="17.6462881">
        <ele>31.3801</ele>
        <time>2013-05-16T16:06:29Z</time>
      </trkpt>
      <trkpt lat="59.9357803" lon="17.6462138">
        <ele>31.3801</ele>
        <time>2013-05-16T16:06:30Z</time>
      </trkpt>
      <trkpt lat="59.9357181" lon="17.6461354">
        <ele>31.3801</ele>
        <time>2013-05-16T16:06:31Z</time>
      </trkpt>
      <trkpt lat="59.9356522" lon="17.6460553">
        <ele>31.3801</ele>
        <time>2013-05-16T16:06:32Z</time>
      </trkpt>
      <trkpt lat="59.9355854" lon="17.6459762">
        <ele>31.3801</ele>
        <time>2013-05-16T16:06:33Z</time>
      </trkpt>
      <trkpt lat="59.9355169" lon="17.6458974">
        <ele>31.3801</ele>
        <time>2013-05-16T16:06:34Z</time>
      </trkpt>
      <trkpt lat="59.9354465" lon="17.6458225">
        <ele>31.8607</ele>
        <time>2013-05-16T16:06:35Z</time>
      </trkpt>
      <trkpt lat="59.9353745" lon="17.6457549">
        <ele>31.8607</ele>
        <time>2013-05-16T16:06:36Z</time>
      </trkpt>
      <trkpt lat="59.9353028" lon="17.6456855">
        <ele>31.8607</ele>
        <time>2013-05-16T16:06:37Z</time>
      </trkpt>
      <trkpt lat="59.9352319" lon="17.645606">
        <ele>31.3801</ele>
        <time>2013-05-16T16:06:38Z</time>
      </trkpt>
      <trkpt lat="59.9351647" lon="17.6455233">
        <ele>31.3801</ele>
        <time>2013-05-16T16:06:39Z</time>
      </trkpt>
      <trkpt lat="59.9350954" lon="17.6454381">
        <ele>31.3801</ele>
        <time>2013-05-16T16:06:40Z</time>
      </trkpt>
      <trkpt lat="59.9350239" lon="17.6453567">
        <ele>31.8607</ele>
        <time>2013-05-16T16:06:41Z</time>
      </trkpt>
      <trkpt lat="59.9349529" lon="17.6452775">
        <ele>31.8607</ele>
        <time>2013-05-16T16:06:42Z</time>
      </trkpt>
      <trkpt lat="59.9348812" lon="17.6451967">
        <ele>32.3416</ele>
        <time>2013-05-16T16:06:43Z</time>
      </trkpt>
      <trkpt lat="59.9348103" lon="17.6451185">
        <ele>32.3416</ele>
        <time>2013-05-16T16:06:44Z</time>
      </trkpt>
      <trkpt lat="59.9347354" lon="17.6450453">
        <ele>32.8223</ele>
        <time>2013-05-16T16:06:45Z</time>
      </trkpt>
      <trkpt lat="59.9346628" lon="17.6449702">
        <ele>32.8223</ele>
        <time>2013-05-16T16:06:46Z</time>
      </trkpt>
      <trkpt lat="59.9345935" lon="17.6449029">
        <ele>32.3416</ele>
        <time>2013-05-16T16:06:47Z</time>
      </trkpt>
      <trkpt lat="59.9345223" lon="17.6448232">
        <ele>31.8607</ele>
        <time>2013-05-16T16:06:48Z</time>
      </trkpt>
      <trkpt lat="59.9344557" lon="17.6447361">
        <ele>31.3801</ele>
        <time>2013-05-16T16:06:49Z</time>
      </trkpt>
      <trkpt lat="59.9343888" lon="17.6446187">
        <ele>30.8995</ele>
        <time>2013-05-16T16:06:50Z</time>
      </trkpt>
      <trkpt lat="59.9343187" lon="17.644512">
        <ele>30.8995</ele>
        <time>2013-05-16T16:06:51Z</time>
      </trkpt>
      <trkpt lat="59.9342458" lon="17.6443959">
        <ele>30.4188</ele>
        <time>2013-05-16T16:06:52Z</time>
      </trkpt>
      <trkpt lat="59.9341696" lon="17.6442881">
        <ele>29.9381</ele>
        <time>2013-05-16T16:06:53Z</time>
      </trkpt>
      <trkpt lat="59.9340926" lon="17.644187">
        <ele>29.9381</ele>
        <time>2013-05-16T16:06:54Z</time>
      </trkpt>
      <trkpt lat="59.9340151" lon="17.6440855">
        <ele>29.9381</ele>
        <time>2013-05-16T16:06:55Z</time>
      </trkpt>
      <trkpt lat="59.9339387" lon="17.6439874">
        <ele>29.9381</ele>
        <time>2013-05-16T16:06:56Z</time>
      </trkpt>
      <trkpt lat="59.9338578" lon="17.6438836">
        <ele>29.9381</ele>
        <time>2013-05-16T16:06:57Z</time>
      </trkpt>
      <trkpt lat="59.9337744" lon="17.6437876">
        <ele>29.4575</ele>
        <time>2013-05-16T16:06:58Z</time>
      </trkpt>
      <trkpt lat="59.933691" lon="17.643707">
        <ele>28.9769</ele>
        <time>2013-05-16T16:06:59Z</time>
      </trkpt>
      <trkpt lat="59.9336086" lon="17.6436293">
        <ele>28.4962</ele>
        <time>2013-05-16T16:07:00Z</time>
      </trkpt>
      <trkpt lat="59.9335225" lon="17.6435422">
        <ele>27.5349</ele>
        <time>2013-05-16T16:07:01Z</time>
      </trkpt>
      <trkpt lat="59.9334387" lon="17.6434492">
        <ele>27.0543</ele>
        <time>2013-05-16T16:07:02Z</time>
      </trkpt>
      <trkpt lat="59.933356" lon="17.6433518">
        <ele>27.0543</ele>
        <time>2013-05-16T16:07:03Z</time>
      </trkpt>
      <trkpt lat="59.9332723" lon="17.6432319">
        <ele>26.5736</ele>
        <time>2013-05-16T16:07:04Z</time>
      </trkpt>
      <trkpt lat="59.9331886" lon="17.6430949">
        <ele>25.1317</ele>
        <time>2013-05-16T16:07:05Z</time>
      </trkpt>
      <trkpt lat="59.9331011" lon="17.6429547">
        <ele>24.651</ele>
        <time>2013-05-16T16:07:06Z</time>
      </trkpt>
      <trkpt lat="59.9330091" lon="17.6428253">
        <ele>23.6896</ele>
        <time>2013-05-16T16:07:07Z</time>
      </trkpt>
      <trkpt lat="59.9329155" lon="17.6427036">
        <ele>22.7283</ele>
        <time>2013-05-16T16:07:08Z</time>
      </trkpt>
      <trkpt lat="59.9328252" lon="17.6425745">
        <ele>22.2476</ele>
        <time>2013-05-16T16:07:09Z</time>
      </trkpt>
      <trkpt lat="59.9327415" lon="17.6424315">
        <ele>21.767</ele>
        <time>2013-05-16T16:07:10Z</time>
      </trkpt>
      <trkpt lat="59.9326565" lon="17.6422912">
        <ele>21.2864</ele>
        <time>2013-05-16T16:07:11Z</time>
      </trkpt>
      <trkpt lat="59.9325633" lon="17.64217">
        <ele>20.8057</ele>
        <time>2013-05-16T16:07:12Z</time>
      </trkpt>
      <trkpt lat="59.9324657" lon="17.6420635">
        <ele>20.325</ele>
        <time>2013-05-16T16:07:13Z</time>
      </trkpt>
      <trkpt lat="59.9323676" lon="17.6419633">
        <ele>20.325</ele>
        <time>2013-05-16T16:07:14Z</time>
      </trkpt>
      <trkpt lat="59.9322696" lon="17.6418716">
        <ele>19.8444</ele>
        <time>2013-05-16T16:07:15Z</time>
      </trkpt>
      <trkpt lat="59.9321731" lon="17.6417851">
        <ele>19.8444</ele>
        <time>2013-05-16T16:07:16Z</time>
      </trkpt>
      <trkpt lat="59.9320795" lon="17.6416999">
        <ele>19.8444</ele>
        <time>2013-05-16T16:07:17Z</time>
      </trkpt>
      <trkpt lat="59.9319894" lon="17.6416234">
        <ele>19.8444</ele>
        <time>2013-05-16T16:07:18Z</time>
      </trkpt>
      <trkpt lat="59.9319014" lon="17.6415565">
        <ele>19.8444</ele>
        <time>2013-05-16T16:07:19Z</time>
      </trkpt>
      <trkpt lat="59.9318109" lon="17.6414928">
        <ele>19.3638</ele>
        <time>2013-05-16T16:07:20Z</time>
      </trkpt>
      <trkpt lat="59.9317164" lon="17.6414262">
        <ele>19.3638</ele>
        <time>2013-05-16T16:07:21Z</time>
      </trkpt>
      <trkpt lat="59.9316221" lon="17.641366">
        <ele>19.3638</ele>
        <time>2013-05-16T16:07:22Z</time>
      </trkpt>
      <trkpt lat="59.9315299" lon="17.6413049">
        <ele>19.3638</ele>
        <time>2013-05-16T16:07:23Z</time>
      </trkpt>
      <trkpt lat="59.9314408" lon="17.6412411">
        <ele>19.3638</ele>
        <time>2013-05-16T16:07:24Z</time>
      </trkpt>
      <trkpt lat="59.9313549" lon="17.6411763">
        <ele>18.8831</ele>
        <time>2013-05-16T16:07:25Z</time>
      </trkpt>
      <trkpt lat="59.9312693" lon="17.6411101">
        <ele>18.4023</ele>
        <time>2013-05-16T16:07:26Z</time>
      </trkpt>
      <trkpt lat="59.9311822" lon="17.6410418">
        <ele>17.9218</ele>
        <time>2013-05-16T16:07:27Z</time>
      </trkpt>
      <trkpt lat="59.9310912" lon="17.6409719">
        <ele>17.4412</ele>
        <time>2013-05-16T16:07:28Z</time>
      </trkpt>
      <trkpt lat="59.9309977" lon="17.640905">
        <ele>16.9604</ele>
        <time>2013-05-16T16:07:29Z</time>
      </trkpt>
      <trkpt lat="59.9309039" lon="17.6408495">
        <ele>16.4797</ele>
        <time>2013-05-16T16:07:30Z</time>
      </trkpt>
      <trkpt lat="59.9308093" lon="17.6408152">
        <ele>16.4797</ele>
        <time>2013-05-16T16:07:31Z</time>
      </trkpt>
      <trkpt lat="59.9307122" lon="17.6408092">
        <ele>16.4797</ele>
        <time>2013-05-16T16:07:32Z</time>
      </trkpt>
      <trkpt lat="59.9306197" lon="17.6408174">
        <ele>16.4797</ele>
        <time>2013-05-16T16:07:33Z</time>
      </trkpt>
      <trkpt lat="59.930528" lon="17.6408319">
        <ele>15.999</ele>
        <time>2013-05-16T16:07:34Z</time>
      </trkpt>
      <trkpt lat="59.9304375" lon="17.6408448">
        <ele>15.5184</ele>
        <time>2013-05-16T16:07:35Z</time>
      </trkpt>
      <trkpt lat="59.930347" lon="17.640848">
        <ele>15.5184</ele>
        <time>2013-05-16T16:07:36Z</time>
      </trkpt>
      <trkpt lat="59.9302536" lon="17.6408444">
        <ele>15.0377</ele>
        <time>2013-05-16T16:07:37Z</time>
      </trkpt>
      <trkpt lat="59.9301606" lon="17.6408397">
        <ele>15.0377</ele>
        <time>2013-05-16T16:07:38Z</time>
      </trkpt>
      <trkpt lat="59.9300689" lon="17.6408376">
        <ele>15.0377</ele>
        <time>2013-05-16T16:07:39Z</time>
      </trkpt>
      <trkpt lat="59.9299769" lon="17.6408348">
        <ele>15.0377</ele>
        <time>2013-05-16T16:07:40Z</time>
      </trkpt>
      <trkpt lat="59.9298847" lon="17.6408303">
        <ele>15.5184</ele>
        <time>2013-05-16T16:07:41Z</time>
      </trkpt>
      <trkpt lat="59.9297956" lon="17.6408273">
        <ele>15.5184</ele>
        <time>2013-05-16T16:07:42Z</time>
      </trkpt>
      <trkpt lat="59.9297107" lon="17.6408344">
        <ele>15.0377</ele>
        <time>2013-05-16T16:07:43Z</time>
      </trkpt>
      <trkpt lat="59.9296277" lon="17.6408504">
        <ele>15.0377</ele>
        <time>2013-05-16T16:07:44Z</time>
      </trkpt>
      <trkpt lat="59.9295455" lon="17.6408702">
        <ele>14.557</ele>
        <time>2013-05-16T16:07:45Z</time>
      </trkpt>
      <trkpt lat="59.9294631" lon="17.6408888">
        <ele>14.557</ele>
        <time>2013-05-16T16:07:46Z</time>
      </trkpt>
      <trkpt lat="59.9293797" lon="17.6409038">
        <ele>14.557</ele>
        <time>2013-05-16T16:07:47Z</time>
      </trkpt>
      <trkpt lat="59.9292952" lon="17.6409085">
        <ele>14.557</ele>
        <time>2013-05-16T16:07:48Z</time>
      </trkpt>
      <trkpt lat="59.9292123" lon="17.6409161">
        <ele>14.557</ele>
        <time>2013-05-16T16:07:49Z</time>
      </trkpt>
      <trkpt lat="59.9291302" lon="17.6409231">
        <ele>14.557</ele>
        <time>2013-05-16T16:07:50Z</time>
      </trkpt>
      <trkpt lat="59.9290494" lon="17.6409231">
        <ele>14.557</ele>
        <time>2013-05-16T16:07:51Z</time>
      </trkpt>
      <trkpt lat="59.9289718" lon="17.6409302">
        <ele>14.557</ele>
        <time>2013-05-16T16:07:52Z</time>
      </trkpt>
      <trkpt lat="59.9288959" lon="17.640937">
        <ele>15.0377</ele>
        <time>2013-05-16T16:07:53Z</time>
      </trkpt>
      <trkpt lat="59.9288211" lon="17.6409448">
        <ele>15.0377</ele>
        <time>2013-05-16T16:07:54Z</time>
      </trkpt>
      <trkpt lat="59.928747" lon="17.6409542">
        <ele>15.0377</ele>
        <time>2013-05-16T16:07:55Z</time>
      </trkpt>
      <trkpt lat="59.9286746" lon="17.6409661">
        <ele>15.5184</ele>
        <time>2013-05-16T16:07:56Z</time>
      </trkpt>
      <trkpt lat="59.9286031" lon="17.6409811">
        <ele>15.5184</ele>
        <time>2013-05-16T16:07:57Z</time>
      </trkpt>
      <trkpt lat="59.9285323" lon="17.6409952">
        <ele>15.999</ele>
        <time>2013-05-16T16:07:58Z</time>
      </trkpt>
      <trkpt lat="59.928462" lon="17.6410075">
        <ele>15.999</ele>
        <time>2013-05-16T16:07:59Z</time>
      </trkpt>
      <trkpt lat="59.9283911" lon="17.6410199">
        <ele>15.999</ele>
        <time>2013-05-16T16:08:00Z</time>
      </trkpt>
      <trkpt lat="59.9283198" lon="17.6410309">
        <ele>15.999</ele>
        <time>2013-05-16T16:08:01Z</time>
      </trkpt>
      <trkpt lat="59.9282497" lon="17.6410444">
        <ele>15.5184</ele>
        <time>2013-05-16T16:08:02Z</time>
      </trkpt>
      <trkpt lat="59.9281792" lon="17.6410526">
        <ele>15.999</ele>
        <time>2013-05-16T16:08:03Z</time>
      </trkpt>
      <trkpt lat="59.9281088" lon="17.6410622">
        <ele>15.5184</ele>
        <time>2013-05-16T16:08:04Z</time>
      </trkpt>
      <trkpt lat="59.9280384" lon="17.6410693">
        <ele>15.999</ele>
        <time>2013-05-16T16:08:05Z</time>
      </trkpt>
      <trkpt lat="59.9279691" lon="17.6410753">
        <ele>15.999</ele>
        <time>2013-05-16T16:08:06Z</time>
      </trkpt>
      <trkpt lat="59.9279003" lon="17.6410788">
        <ele>15.999</ele>
        <time>2013-05-16T16:08:07Z</time>
      </trkpt>
      <trkpt lat="59.9278318" lon="17.6410832">
        <ele>15.999</ele>
        <time>2013-05-16T16:08:08Z</time>
      </trkpt>
      <trkpt lat="59.9277635" lon="17.6410907">
        <ele>15.999</ele>
        <time>2013-05-16T16:08:09Z</time>
      </trkpt>
      <trkpt lat="59.9276948" lon="17.6410997">
        <ele>15.999</ele>
        <time>2013-05-16T16:08:10Z</time>
      </trkpt>
      <trkpt lat="59.9276249" lon="17.6411071">
        <ele>15.999</ele>
        <time>2013-05-16T16:08:11Z</time>
      </trkpt>
      <trkpt lat="59.9275547" lon="17.6411136">
        <ele>15.999</ele>
        <time>2013-05-16T16:08:12Z</time>
      </trkpt>
      <trkpt lat="59.9274852" lon="17.6411199">
        <ele>15.999</ele>
        <time>2013-05-16T16:08:13Z</time>
      </trkpt>
      <trkpt lat="59.9274162" lon="17.6411256">
        <ele>15.999</ele>
        <time>2013-05-16T16:08:14Z</time>
      </trkpt>
      <trkpt lat="59.9273463" lon="17.6411254">
        <ele>16.4797</ele>
        <time>2013-05-16T16:08:15Z</time>
      </trkpt>
      <trkpt lat="59.9272784" lon="17.6411306">
        <ele>15.999</ele>
        <time>2013-05-16T16:08:16Z</time>
      </trkpt>
      <trkpt lat="59.9272101" lon="17.6411395">
        <ele>15.999</ele>
        <time>2013-05-16T16:08:17Z</time>
      </trkpt>
      <trkpt lat="59.9271404" lon="17.6411458">
        <ele>16.4797</ele>
        <time>2013-05-16T16:08:18Z</time>
      </trkpt>
      <trkpt lat="59.9270707" lon="17.6411508">
        <ele>16.4797</ele>
        <time>2013-05-16T16:08:19Z</time>
      </trkpt>
      <trkpt lat="59.9270023" lon="17.641151">
        <ele>16.4797</ele>
        <time>2013-05-16T16:08:20Z</time>
      </trkpt>
      <trkpt lat="59.9269336" lon="17.6411505">
        <ele>16.4797</ele>
        <time>2013-05-16T16:08:21Z</time>
      </trkpt>
      <trkpt lat="59.9268669" lon="17.6411555">
        <ele>16.4797</ele>
        <time>2013-05-16T16:08:22Z</time>
      </trkpt>
      <trkpt lat="59.9268016" lon="17.641164">
        <ele>16.4797</ele>
        <time>2013-05-16T16:08:23Z</time>
      </trkpt>
      <trkpt lat="59.926737" lon="17.6411707">
        <ele>15.999</ele>
        <time>2013-05-16T16:08:24Z</time>
      </trkpt>
      <trkpt lat="59.9266715" lon="17.6411775">
        <ele>15.999</ele>
        <time>2013-05-16T16:08:25Z</time>
      </trkpt>
      <trkpt lat="59.9266036" lon="17.6411846">
        <ele>15.999</ele>
        <time>2013-05-16T16:08:26Z</time>
      </trkpt>
      <trkpt lat="59.926535" lon="17.6411944">
        <ele>15.999</ele>
        <time>2013-05-16T16:08:27Z</time>
      </trkpt>
      <trkpt lat="59.9264664" lon="17.6412045">
        <ele>15.999</ele>
        <time>2013-05-16T16:08:28Z</time>
      </trkpt>
      <trkpt lat="59.9263983" lon="17.6412137">
        <ele>16.4797</ele>
        <time>2013-05-16T16:08:29Z</time>
      </trkpt>
      <trkpt lat="59.9263296" lon="17.6412228">
        <ele>16.4797</ele>
        <time>2013-05-16T16:08:30Z</time>
      </trkpt>
      <trkpt lat="59.9262648" lon="17.6412401">
        <ele>16.4797</ele>
        <time>2013-05-16T16:08:31Z</time>
      </trkpt>
      <trkpt lat="59.9261947" lon="17.6412549">
        <ele>16.4797</ele>
        <time>2013-05-16T16:08:32Z</time>
      </trkpt>
      <trkpt lat="59.926128" lon="17.6412694">
        <ele>16.9604</ele>
        <time>2013-05-16T16:08:33Z</time>
      </trkpt>
      <trkpt lat="59.9260618" lon="17.6412819">
        <ele>16.9604</ele>
        <time>2013-05-16T16:08:34Z</time>
      </trkpt>
      <trkpt lat="59.9259953" lon="17.6412938">
        <ele>16.9604</ele>
        <time>2013-05-16T16:08:35Z</time>
      </trkpt>
      <trkpt lat="59.9259286" lon="17.6413062">
        <ele>16.9604</ele>
        <time>2013-05-16T16:08:36Z</time>
      </trkpt>
      <trkpt lat="59.925864" lon="17.64132">
        <ele>17.4412</ele>
        <time>2013-05-16T16:08:37Z</time>
      </trkpt>
      <trkpt lat="59.9258012" lon="17.6413322">
        <ele>17.4412</ele>
        <time>2013-05-16T16:08:38Z</time>
      </trkpt>
      <trkpt lat="59.9257391" lon="17.6413427">
        <ele>17.4412</ele>
        <time>2013-05-16T16:08:39Z</time>
      </trkpt>
      <trkpt lat="59.9256773" lon="17.6413516">
        <ele>17.4412</ele>
        <time>2013-05-16T16:08:40Z</time>
      </trkpt>
      <trkpt lat="59.925615" lon="17.6413618">
        <ele>17.4412</ele>
        <time>2013-05-16T16:08:41Z</time>
      </trkpt>
      <trkpt lat="59.9255523" lon="17.6413732">
        <ele>17.4412</ele>
        <time>2013-05-16T16:08:42Z</time>
      </trkpt>
      <trkpt lat="59.9254893" lon="17.641384">
        <ele>17.4412</ele>
        <time>2013-05-16T16:08:43Z</time>
      </trkpt>
      <trkpt lat="59.9254258" lon="17.6413919">
        <ele>17.4412</ele>
        <time>2013-05-16T16:08:44Z</time>
      </trkpt>
      <trkpt lat="59.9253625" lon="17.641398">
        <ele>17.4412</ele>
        <time>2013-05-16T16:08:45Z</time>
      </trkpt>
      <trkpt lat="59.9253009" lon="17.6414048">
        <ele>17.9218</ele>
        <time>2013-05-16T16:08:46Z</time>
      </trkpt>
      <trkpt lat="59.925241" lon="17.6414096">
        <ele>17.9218</ele>
        <time>2013-05-16T16:08:47Z</time>
      </trkpt>
      <trkpt lat="59.9251827" lon="17.6414109">
        <ele>17.9218</ele>
        <time>2013-05-16T16:08:48Z</time>
      </trkpt>
      <trkpt lat="59.9251245" lon="17.6414108">
        <ele>17.9218</ele>
        <time>2013-05-16T16:08:49Z</time>
      </trkpt>
      <trkpt lat="59.9250661" lon="17.6414116">
        <ele>18.4023</ele>
        <time>2013-05-16T16:08:50Z</time>
      </trkpt>
      <trkpt lat="59.925008" lon="17.6414142">
        <ele>18.4023</ele>
        <time>2013-05-16T16:08:51Z</time>
      </trkpt>
      <trkpt lat="59.92495" lon="17.6414173">
        <ele>18.4023</ele>
        <time>2013-05-16T16:08:52Z</time>
      </trkpt>
      <trkpt lat="59.9248924" lon="17.6414198">
        <ele>18.4023</ele>
        <time>2013-05-16T16:08:53Z</time>
      </trkpt>
      <trkpt lat="59.9248361" lon="17.6414229">
        <ele>18.4023</ele>
        <time>2013-05-16T16:08:54Z</time>
      </trkpt>
      <trkpt lat="59.9247813" lon="17.6414266">
        <ele>18.4023</ele>
        <time>2013-05-16T16:08:55Z</time>
      </trkpt>
      <trkpt lat="59.9247282" lon="17.6414328">
        <ele>18.4023</ele>
        <time>2013-05-16T16:08:56Z</time>
      </trkpt>
      <trkpt lat="59.9246756" lon="17.6414432">
        <ele>18.4023</ele>
        <time>2013-05-16T16:08:57Z</time>
      </trkpt>
      <trkpt lat="59.9246222" lon="17.6414571">
        <ele>18.4023</ele>
        <time>2013-05-16T16:08:58Z</time>
      </trkpt>
      <trkpt lat="59.9245662" lon="17.6414766">
        <ele>18.4023</ele>
        <time>2013-05-16T16:08:59Z</time>
      </trkpt>
      <trkpt lat="59.9245092" lon="17.6414911">
        <ele>18.4023</ele>
        <time>2013-05-16T16:09:00Z</time>
      </trkpt>
      <trkpt lat="59.9244534" lon="17.6415022">
        <ele>18.4023</ele>
        <time>2013-05-16T16:09:01Z</time>
      </trkpt>
      <trkpt lat="59.9243987" lon="17.6415091">
        <ele>18.4023</ele>
        <time>2013-05-16T16:09:02Z</time>
      </trkpt>
      <trkpt lat="59.9243457" lon="17.6415131">
        <ele>18.4023</ele>
        <time>2013-05-16T16:09:03Z</time>
      </trkpt>
      <trkpt lat="59.9242931" lon="17.6415184">
        <ele>18.4023</ele>
        <time>2013-05-16T16:09:04Z</time>
      </trkpt>
      <trkpt lat="59.924238" lon="17.6415174">
        <ele>18.4023</ele>
        <time>2013-05-16T16:09:05Z</time>
      </trkpt>
      <trkpt lat="59.9241825" lon="17.6415155">
        <ele>18.4023</ele>
        <time>2013-05-16T16:09:06Z</time>
      </trkpt>
      <trkpt lat="59.9241275" lon="17.6415171">
        <ele>18.4023</ele>
        <time>2013-05-16T16:09:07Z</time>
      </trkpt>
      <trkpt lat="59.9240716" lon="17.6415193">
        <ele>18.4023</ele>
        <time>2013-05-16T16:09:08Z</time>
      </trkpt>
      <trkpt lat="59.9240141" lon="17.6415219">
        <ele>17.9218</ele>
        <time>2013-05-16T16:09:09Z</time>
      </trkpt>
      <trkpt lat="59.9239559" lon="17.6415235">
        <ele>17.9218</ele>
        <time>2013-05-16T16:09:10Z</time>
      </trkpt>
      <trkpt lat="59.9238976" lon="17.6415318">
        <ele>17.9218</ele>
        <time>2013-05-16T16:09:11Z</time>
      </trkpt>
      <trkpt lat="59.9238388" lon="17.6415431">
        <ele>17.9218</ele>
        <time>2013-05-16T16:09:12Z</time>
      </trkpt>
      <trkpt lat="59.9237804" lon="17.6415529">
        <ele>17.9218</ele>
        <time>2013-05-16T16:09:13Z</time>
      </trkpt>
      <trkpt lat="59.9237224" lon="17.6415622">
        <ele>17.9218</ele>
        <time>2013-05-16T16:09:14Z</time>
      </trkpt>
      <trkpt lat="59.9236643" lon="17.6415716">
        <ele>18.4023</ele>
        <time>2013-05-16T16:09:15Z</time>
      </trkpt>
      <trkpt lat="59.923607" lon="17.6415797">
        <ele>18.4023</ele>
        <time>2013-05-16T16:09:16Z</time>
      </trkpt>
      <trkpt lat="59.9235506" lon="17.6415861">
        <ele>18.4023</ele>
        <time>2013-05-16T16:09:17Z</time>
      </trkpt>
      <trkpt lat="59.9234961" lon="17.641593">
        <ele>18.8831</ele>
        <time>2013-05-16T16:09:18Z</time>
      </trkpt>
      <trkpt lat="59.9234421" lon="17.6416027">
        <ele>18.8831</ele>
        <time>2013-05-16T16:09:19Z</time>
      </trkpt>
      <trkpt lat="59.9233874" lon="17.6416111">
        <ele>18.8831</ele>
        <time>2013-05-16T16:09:20Z</time>
      </trkpt>
      <trkpt lat="59.9233339" lon="17.6416229">
        <ele>19.3638</ele>
        <time>2013-05-16T16:09:21Z</time>
      </trkpt>
      <trkpt lat="59.92328" lon="17.6416321">
        <ele>19.3638</ele>
        <time>2013-05-16T16:09:22Z</time>
      </trkpt>
      <trkpt lat="59.9232271" lon="17.6416388">
        <ele>19.8444</ele>
        <time>2013-05-16T16:09:23Z</time>
      </trkpt>
      <trkpt lat="59.9231738" lon="17.6416488">
        <ele>19.8444</ele>
        <time>2013-05-16T16:09:24Z</time>
      </trkpt>
      <trkpt lat="59.9231199" lon="17.641659">
        <ele>19.8444</ele>
        <time>2013-05-16T16:09:25Z</time>
      </trkpt>
      <trkpt lat="59.923066" lon="17.6416674">
        <ele>20.325</ele>
        <time>2013-05-16T16:09:26Z</time>
      </trkpt>
      <trkpt lat="59.9230132" lon="17.6416769">
        <ele>20.325</ele>
        <time>2013-05-16T16:09:27Z</time>
      </trkpt>
      <trkpt lat="59.9229598" lon="17.641685">
        <ele>20.325</ele>
        <time>2013-05-16T16:09:28Z</time>
      </trkpt>
      <trkpt lat="59.9229055" lon="17.6416882">
        <ele>20.325</ele>
        <time>2013-05-16T16:09:29Z</time>
      </trkpt>
      <trkpt lat="59.9228499" lon="17.6416949">
        <ele>20.8057</ele>
        <time>2013-05-16T16:09:30Z</time>
      </trkpt>
      <trkpt lat="59.9227953" lon="17.6417043">
        <ele>21.2864</ele>
        <time>2013-05-16T16:09:31Z</time>
      </trkpt>
      <trkpt lat="59.9227404" lon="17.6417114">
        <ele>21.2864</ele>
        <time>2013-05-16T16:09:32Z</time>
      </trkpt>
      <trkpt lat="59.9226868" lon="17.6417203">
        <ele>21.2864</ele>
        <time>2013-05-16T16:09:33Z</time>
      </trkpt>
      <trkpt lat="59.9226349" lon="17.6417229">
        <ele>21.2864</ele>
        <time>2013-05-16T16:09:34Z</time>
      </trkpt>
      <trkpt lat="59.9225857" lon="17.641726">
        <ele>21.2864</ele>
        <time>2013-05-16T16:09:35Z</time>
      </trkpt>
      <trkpt lat="59.9225344" lon="17.6417328">
        <ele>21.2864</ele>
        <time>2013-05-16T16:09:36Z</time>
      </trkpt>
      <trkpt lat="59.9224818" lon="17.64174">
        <ele>21.2864</ele>
        <time>2013-05-16T16:09:37Z</time>
      </trkpt>
      <trkpt lat="59.9224275" lon="17.6417479">
        <ele>21.767</ele>
        <time>2013-05-16T16:09:38Z</time>
      </trkpt>
      <trkpt lat="59.9223738" lon="17.6417529">
        <ele>21.767</ele>
        <time>2013-05-16T16:09:39Z</time>
      </trkpt>
      <trkpt lat="59.9223197" lon="17.6417562">
        <ele>21.767</ele>
        <time>2013-05-16T16:09:40Z</time>
      </trkpt>
      <trkpt lat="59.9222641" lon="17.6417606">
        <ele>21.767</ele>
        <time>2013-05-16T16:09:41Z</time>
      </trkpt>
      <trkpt lat="59.9222073" lon="17.6417649">
        <ele>21.767</ele>
        <time>2013-05-16T16:09:42Z</time>
      </trkpt>
      <trkpt lat="59.9221497" lon="17.6417652">
        <ele>21.767</ele>
        <time>2013-05-16T16:09:43Z</time>
      </trkpt>
      <trkpt lat="59.9220917" lon="17.6417633">
        <ele>21.767</ele>
        <time>2013-05-16T16:09:44Z</time>
      </trkpt>
      <trkpt lat="59.9220327" lon="17.6417607">
        <ele>21.767</ele>
        <time>2013-05-16T16:09:45Z</time>
      </trkpt>
      <trkpt lat="59.9219731" lon="17.6417726">
        <ele>22.2476</ele>
        <time>2013-05-16T16:09:46Z</time>
      </trkpt>
      <trkpt lat="59.9219147" lon="17.6417857">
        <ele>22.2476</ele>
        <time>2013-05-16T16:09:47Z</time>
      </trkpt>
      <trkpt lat="59.9218586" lon="17.6417939">
        <ele>22.2476</ele>
        <time>2013-05-16T16:09:48Z</time>
      </trkpt>
      <trkpt lat="59.9218026" lon="17.6418016">
        <ele>22.7283</ele>
        <time>2013-05-16T16:09:49Z</time>
      </trkpt>
      <trkpt lat="59.921745" lon="17.6418088">
        <ele>23.209</ele>
        <time>2013-05-16T16:09:50Z</time>
      </trkpt>
      <trkpt lat="59.9216872" lon="17.6418151">
        <ele>23.209</ele>
        <time>2013-05-16T16:09:51Z</time>
      </trkpt>
      <trkpt lat="59.9216373" lon="17.6418175">
        <ele>24.1703</ele>
        <time>2013-05-16T16:09:52Z</time>
      </trkpt>
      <trkpt lat="59.9215834" lon="17.6418208">
        <ele>24.1703</ele>
        <time>2013-05-16T16:09:53Z</time>
      </trkpt>
      <trkpt lat="59.9215292" lon="17.641829">
        <ele>23.6896</ele>
        <time>2013-05-16T16:09:54Z</time>
      </trkpt>
      <trkpt lat="59.9214839" lon="17.6418444">
        <ele>23.209</ele>
        <time>2013-05-16T16:09:55Z</time>
      </trkpt>
      <trkpt lat="59.9214355" lon="17.6418503">
        <ele>22.7283</ele>
        <time>2013-05-16T16:09:56Z</time>
      </trkpt>
      <trkpt lat="59.9213865" lon="17.6418659">
        <ele>22.2476</ele>
        <time>2013-05-16T16:09:57Z</time>
      </trkpt>
      <trkpt lat="59.9213343" lon="17.6418769">
        <ele>22.2476</ele>
        <time>2013-05-16T16:09:58Z</time>
      </trkpt>
      <trkpt lat="59.9212759" lon="17.6418848">
        <ele>21.767</ele>
        <time>2013-05-16T16:09:59Z</time>
      </trkpt>
      <trkpt lat="59.9212152" lon="17.6418916">
        <ele>21.2864</ele>
        <time>2013-05-16T16:10:00Z</time>
      </trkpt>
      <trkpt lat="59.9211524" lon="17.6418954">
        <ele>20.8057</ele>
        <time>2013-05-16T16:10:01Z</time>
      </trkpt>
      <trkpt lat="59.921089" lon="17.6418954">
        <ele>20.325</ele>
        <time>2013-05-16T16:10:02Z</time>
      </trkpt>
      <trkpt lat="59.9210258" lon="17.6418891">
        <ele>19.3638</ele>
        <time>2013-05-16T16:10:03Z</time>
      </trkpt>
      <trkpt lat="59.9209609" lon="17.6418901">
        <ele>18.8831</ele>
        <time>2013-05-16T16:10:04Z</time>
      </trkpt>
      <trkpt lat="59.9208951" lon="17.6418938">
        <ele>18.8831</ele>
        <time>2013-05-16T16:10:05Z</time>
      </trkpt>
      <trkpt lat="59.9208302" lon="17.6418952">
        <ele>18.4023</ele>
        <time>2013-05-16T16:10:06Z</time>
      </trkpt>
      <trkpt lat="59.9207642" lon="17.6418924">
        <ele>17.9218</ele>
        <time>2013-05-16T16:10:07Z</time>
      </trkpt>
      <trkpt lat="59.9207014" lon="17.6418891">
        <ele>17.9218</ele>
        <time>2013-05-16T16:10:08Z</time>
      </trkpt>
      <trkpt lat="59.9206395" lon="17.6418892">
        <ele>17.4412</ele>
        <time>2013-05-16T16:10:09Z</time>
      </trkpt>
      <trkpt lat="59.920575" lon="17.6418888">
        <ele>17.4412</ele>
        <time>2013-05-16T16:10:10Z</time>
      </trkpt>
      <trkpt lat="59.9205088" lon="17.641885">
        <ele>16.9604</ele>
        <time>2013-05-16T16:10:11Z</time>
      </trkpt>
      <trkpt lat="59.9204435" lon="17.6418857">
        <ele>16.9604</ele>
        <time>2013-05-16T16:10:12Z</time>
      </trkpt>
      <trkpt lat="59.9203791" lon="17.6418912">
        <ele>16.9604</ele>
        <time>2013-05-16T16:10:13Z</time>
      </trkpt>
      <trkpt lat="59.9203158" lon="17.6418981">
        <ele>16.9604</ele>
        <time>2013-05-16T16:10:14Z</time>
      </trkpt>
      <trkpt lat="59.9202534" lon="17.6419026">
        <ele>16.9604</ele>
        <time>2013-05-16T16:10:15Z</time>
      </trkpt>
      <trkpt lat="59.9201922" lon="17.6419068">
        <ele>17.4412</ele>
        <time>2013-05-16T16:10:16Z</time>
      </trkpt>
      <trkpt lat="59.9201327" lon="17.6419114">
        <ele>17.4412</ele>
        <time>2013-05-16T16:10:17Z</time>
      </trkpt>
      <trkpt lat="59.9200735" lon="17.6419162">
        <ele>16.9604</ele>
        <time>2013-05-16T16:10:18Z</time>
      </trkpt>
      <trkpt lat="59.9200128" lon="17.6419226">
        <ele>16.9604</ele>
        <time>2013-05-16T16:10:19Z</time>
      </trkpt>
      <trkpt lat="59.9199511" lon="17.6419311">
        <ele>17.4412</ele>
        <time>2013-05-16T16:10:20Z</time>
      </trkpt>
      <trkpt lat="59.919888" lon="17.6419435">
        <ele>17.4412</ele>
        <time>2013-05-16T16:10:21Z</time>
      </trkpt>
      <trkpt lat="59.9198252" lon="17.6419596">
        <ele>17.4412</ele>
        <time>2013-05-16T16:10:22Z</time>
      </trkpt>
      <trkpt lat="59.9197634" lon="17.6419778">
        <ele>17.4412</ele>
        <time>2013-05-16T16:10:23Z</time>
      </trkpt>
      <trkpt lat="59.919703" lon="17.6419941">
        <ele>17.4412</ele>
        <time>2013-05-16T16:10:24Z</time>
      </trkpt>
      <trkpt lat="59.9196434" lon="17.6420088">
        <ele>17.9218</ele>
        <time>2013-05-16T16:10:25Z</time>
      </trkpt>
      <trkpt lat="59.9195849" lon="17.6420226">
        <ele>17.9218</ele>
        <time>2013-05-16T16:10:26Z</time>
      </trkpt>
      <trkpt lat="59.919527" lon="17.6420331">
        <ele>17.9218</ele>
        <time>2013-05-16T16:10:27Z</time>
      </trkpt>
      <trkpt lat="59.9194685" lon="17.6420405">
        <ele>17.9218</ele>
        <time>2013-05-16T16:10:28Z</time>
      </trkpt>
      <trkpt lat="59.919411" lon="17.6420511">
        <ele>17.4412</ele>
        <time>2013-05-16T16:10:29Z</time>
      </trkpt>
      <trkpt lat="59.9193528" lon="17.642058">
        <ele>17.4412</ele>
        <time>2013-05-16T16:10:30Z</time>
      </trkpt>
      <trkpt lat="59.9192948" lon="17.6420674">
        <ele>17.9218</ele>
        <time>2013-05-16T16:10:31Z</time>
      </trkpt>
      <trkpt lat="59.9192358" lon="17.642075">
        <ele>17.9218</ele>
        <time>2013-05-16T16:10:32Z</time>
      </trkpt>
      <trkpt lat="59.919176" lon="17.6420791">
        <ele>17.9218</ele>
        <time>2013-05-16T16:10:33Z</time>
      </trkpt>
      <trkpt lat="59.9191171" lon="17.6420818">
        <ele>17.9218</ele>
        <time>2013-05-16T16:10:34Z</time>
      </trkpt>
      <trkpt lat="59.9190565" lon="17.6420877">
        <ele>17.9218</ele>
        <time>2013-05-16T16:10:35Z</time>
      </trkpt>
      <trkpt lat="59.9189956" lon="17.6420934">
        <ele>17.9218</ele>
        <time>2013-05-16T16:10:36Z</time>
      </trkpt>
      <trkpt lat="59.9189348" lon="17.6420978">
        <ele>18.4023</ele>
        <time>2013-05-16T16:10:37Z</time>
      </trkpt>
      <trkpt lat="59.9188732" lon="17.6421037">
        <ele>18.4023</ele>
        <time>2013-05-16T16:10:38Z</time>
      </trkpt>
      <trkpt lat="59.9188126" lon="17.64211">
        <ele>18.4023</ele>
        <time>2013-05-16T16:10:39Z</time>
      </trkpt>
      <trkpt lat="59.9187507" lon="17.6421179">
        <ele>18.8831</ele>
        <time>2013-05-16T16:10:40Z</time>
      </trkpt>
      <trkpt lat="59.9186879" lon="17.6421262">
        <ele>18.8831</ele>
        <time>2013-05-16T16:10:41Z</time>
      </trkpt>
      <trkpt lat="59.9186255" lon="17.6421316">
        <ele>18.8831</ele>
        <time>2013-05-16T16:10:42Z</time>
      </trkpt>
      <trkpt lat="59.9185621" lon="17.6421377">
        <ele>18.8831</ele>
        <time>2013-05-16T16:10:43Z</time>
      </trkpt>
      <trkpt lat="59.9185004" lon="17.6421464">
        <ele>18.8831</ele>
        <time>2013-05-16T16:10:44Z</time>
      </trkpt>
      <trkpt lat="59.9184393" lon="17.6421547">
        <ele>18.8831</ele>
        <time>2013-05-16T16:10:45Z</time>
      </trkpt>
      <trkpt lat="59.9183772" lon="17.6421616">
        <ele>18.8831</ele>
        <time>2013-05-16T16:10:46Z</time>
      </trkpt>
      <trkpt lat="59.9183144" lon="17.6421679">
        <ele>18.8831</ele>
        <time>2013-05-16T16:10:47Z</time>
      </trkpt>
      <trkpt lat="59.9182511" lon="17.642172">
        <ele>18.8831</ele>
        <time>2013-05-16T16:10:48Z</time>
      </trkpt>
      <trkpt lat="59.9181853" lon="17.6421746">
        <ele>18.8831</ele>
        <time>2013-05-16T16:10:49Z</time>
      </trkpt>
      <trkpt lat="59.918118" lon="17.6421783">
        <ele>18.4023</ele>
        <time>2013-05-16T16:10:50Z</time>
      </trkpt>
      <trkpt lat="59.9180505" lon="17.6421851">
        <ele>18.4023</ele>
        <time>2013-05-16T16:10:51Z</time>
      </trkpt>
      <trkpt lat="59.9179822" lon="17.6421907">
        <ele>17.9218</ele>
        <time>2013-05-16T16:10:52Z</time>
      </trkpt>
      <trkpt lat="59.9179136" lon="17.6421949">
        <ele>17.9218</ele>
        <time>2013-05-16T16:10:53Z</time>
      </trkpt>
      <trkpt lat="59.9178459" lon="17.6421998">
        <ele>17.9218</ele>
        <time>2013-05-16T16:10:54Z</time>
      </trkpt>
      <trkpt lat="59.9177793" lon="17.6422045">
        <ele>17.9218</ele>
        <time>2013-05-16T16:10:55Z</time>
      </trkpt>
      <trkpt lat="59.9177136" lon="17.6422082">
        <ele>17.4412</ele>
        <time>2013-05-16T16:10:56Z</time>
      </trkpt>
      <trkpt lat="59.9176488" lon="17.6422088">
        <ele>17.4412</ele>
        <time>2013-05-16T16:10:57Z</time>
      </trkpt>
      <trkpt lat="59.9175861" lon="17.6422118">
        <ele>17.4412</ele>
        <time>2013-05-16T16:10:58Z</time>
      </trkpt>
      <trkpt lat="59.9175242" lon="17.642215">
        <ele>17.4412</ele>
        <time>2013-05-16T16:10:59Z</time>
      </trkpt>
      <trkpt lat="59.9174607" lon="17.6422149">
        <ele>16.9604</ele>
        <time>2013-05-16T16:11:00Z</time>
      </trkpt>
      <trkpt lat="59.9173971" lon="17.6422174">
        <ele>16.9604</ele>
        <time>2013-05-16T16:11:01Z</time>
      </trkpt>
      <trkpt lat="59.9173337" lon="17.6422212">
        <ele>16.9604</ele>
        <time>2013-05-16T16:11:02Z</time>
      </trkpt>
      <trkpt lat="59.9172701" lon="17.64222">
        <ele>16.9604</ele>
        <time>2013-05-16T16:11:03Z</time>
      </trkpt>
      <trkpt lat="59.9172063" lon="17.6422113">
        <ele>16.9604</ele>
        <time>2013-05-16T16:11:04Z</time>
      </trkpt>
      <trkpt lat="59.9171431" lon="17.6422102">
        <ele>16.9604</ele>
        <time>2013-05-16T16:11:05Z</time>
      </trkpt>
      <trkpt lat="59.9170811" lon="17.6422264">
        <ele>16.9604</ele>
        <time>2013-05-16T16:11:06Z</time>
      </trkpt>
      <trkpt lat="59.9170209" lon="17.6422493">
        <ele>16.9604</ele>
        <time>2013-05-16T16:11:07Z</time>
      </trkpt>
      <trkpt lat="59.9169614" lon="17.6422689">
        <ele>17.4412</ele>
        <time>2013-05-16T16:11:08Z</time>
      </trkpt>
      <trkpt lat="59.9169018" lon="17.6422822">
        <ele>17.4412</ele>
        <time>2013-05-16T16:11:09Z</time>
      </trkpt>
      <trkpt lat="59.9168417" lon="17.6422911">
        <ele>17.4412</ele>
        <time>2013-05-16T16:11:10Z</time>
      </trkpt>
      <trkpt lat="59.9167814" lon="17.6423">
        <ele>17.4412</ele>
        <time>2013-05-16T16:11:11Z</time>
      </trkpt>
      <trkpt lat="59.9167216" lon="17.6423088">
        <ele>17.4412</ele>
        <time>2013-05-16T16:11:12Z</time>
      </trkpt>
      <trkpt lat="59.9166626" lon="17.642317">
        <ele>17.4412</ele>
        <time>2013-05-16T16:11:13Z</time>
      </trkpt>
      <trkpt lat="59.916605" lon="17.6423252">
        <ele>17.4412</ele>
        <time>2013-05-16T16:11:14Z</time>
      </trkpt>
      <trkpt lat="59.9165479" lon="17.6423334">
        <ele>17.4412</ele>
        <time>2013-05-16T16:11:15Z</time>
      </trkpt>
      <trkpt lat="59.916491" lon="17.6423419">
        <ele>17.4412</ele>
        <time>2013-05-16T16:11:16Z</time>
      </trkpt>
      <trkpt lat="59.916433" lon="17.6423485">
        <ele>17.4412</ele>
        <time>2013-05-16T16:11:17Z</time>
      </trkpt>
      <trkpt lat="59.916374" lon="17.6423544">
        <ele>17.4412</ele>
        <time>2013-05-16T16:11:18Z</time>
      </trkpt>
      <trkpt lat="59.9163147" lon="17.6423632">
        <ele>17.4412</ele>
        <time>2013-05-16T16:11:19Z</time>
      </trkpt>
      <trkpt lat="59.9162556" lon="17.6423716">
        <ele>17.4412</ele>
        <time>2013-05-16T16:11:20Z</time>
      </trkpt>
      <trkpt lat="59.9161968" lon="17.6423766">
        <ele>16.9604</ele>
        <time>2013-05-16T16:11:21Z</time>
      </trkpt>
      <trkpt lat="59.9161365" lon="17.6423787">
        <ele>16.9604</ele>
        <time>2013-05-16T16:11:22Z</time>
      </trkpt>
      <trkpt lat="59.9160748" lon="17.6423797">
        <ele>16.4797</ele>
        <time>2013-05-16T16:11:23Z</time>
      </trkpt>
      <trkpt lat="59.9160119" lon="17.6423821">
        <ele>16.4797</ele>
        <time>2013-05-16T16:11:24Z</time>
      </trkpt>
      <trkpt lat="59.915948" lon="17.6423832">
        <ele>15.999</ele>
        <time>2013-05-16T16:11:25Z</time>
      </trkpt>
      <trkpt lat="59.9158827" lon="17.6423818">
        <ele>15.999</ele>
        <time>2013-05-16T16:11:26Z</time>
      </trkpt>
      <trkpt lat="59.9158161" lon="17.6423813">
        <ele>15.5184</ele>
        <time>2013-05-16T16:11:27Z</time>
      </trkpt>
      <trkpt lat="59.9157492" lon="17.6423812">
        <ele>15.5184</ele>
        <time>2013-05-16T16:11:28Z</time>
      </trkpt>
      <trkpt lat="59.9156815" lon="17.6423835">
        <ele>15.5184</ele>
        <time>2013-05-16T16:11:29Z</time>
      </trkpt>
      <trkpt lat="59.9156141" lon="17.6423916">
        <ele>15.5184</ele>
        <time>2013-05-16T16:11:30Z</time>
      </trkpt>
      <trkpt lat="59.9155467" lon="17.642404">
        <ele>15.0377</ele>
        <time>2013-05-16T16:11:31Z</time>
      </trkpt>
      <trkpt lat="59.9154794" lon="17.6424194">
        <ele>15.0377</ele>
        <time>2013-05-16T16:11:32Z</time>
      </trkpt>
      <trkpt lat="59.9154125" lon="17.6424377">
        <ele>15.0377</ele>
        <time>2013-05-16T16:11:33Z</time>
      </trkpt>
      <trkpt lat="59.9153472" lon="17.6424585">
        <ele>15.0377</ele>
        <time>2013-05-16T16:11:34Z</time>
      </trkpt>
      <trkpt lat="59.9152855" lon="17.6424901">
        <ele>15.0377</ele>
        <time>2013-05-16T16:11:35Z</time>
      </trkpt>
      <trkpt lat="59.9152282" lon="17.6425288">
        <ele>15.0377</ele>
        <time>2013-05-16T16:11:36Z</time>
      </trkpt>
      <trkpt lat="59.9151772" lon="17.642574">
        <ele>15.5184</ele>
        <time>2013-05-16T16:11:37Z</time>
      </trkpt>
      <trkpt lat="59.9151308" lon="17.6426108">
        <ele>15.999</ele>
        <time>2013-05-16T16:11:38Z</time>
      </trkpt>
      <trkpt lat="59.9150862" lon="17.6426324">
        <ele>16.4797</ele>
        <time>2013-05-16T16:11:39Z</time>
      </trkpt>
      <trkpt lat="59.9150374" lon="17.6426445">
        <ele>16.4797</ele>
        <time>2013-05-16T16:11:40Z</time>
      </trkpt>
      <trkpt lat="59.9149902" lon="17.6426481">
        <ele>16.4797</ele>
        <time>2013-05-16T16:11:41Z</time>
      </trkpt>
      <trkpt lat="59.9149417" lon="17.642646">
        <ele>16.9604</ele>
        <time>2013-05-16T16:11:42Z</time>
      </trkpt>
      <trkpt lat="59.9148917" lon="17.6426474">
        <ele>16.9604</ele>
        <time>2013-05-16T16:11:43Z</time>
      </trkpt>
      <trkpt lat="59.9148394" lon="17.6426512">
        <ele>16.9604</ele>
        <time>2013-05-16T16:11:44Z</time>
      </trkpt>
      <trkpt lat="59.9147851" lon="17.6426572">
        <ele>17.4412</ele>
        <time>2013-05-16T16:11:45Z</time>
      </trkpt>
      <trkpt lat="59.9147281" lon="17.6426645">
        <ele>16.9604</ele>
        <time>2013-05-16T16:11:46Z</time>
      </trkpt>
      <trkpt lat="59.9146705" lon="17.6426728">
        <ele>16.9604</ele>
        <time>2013-05-16T16:11:47Z</time>
      </trkpt>
      <trkpt lat="59.9146113" lon="17.6426826">
        <ele>17.4412</ele>
        <time>2013-05-16T16:11:48Z</time>
      </trkpt>
      <trkpt lat="59.9145542" lon="17.642693">
        <ele>17.4412</ele>
        <time>2013-05-16T16:11:49Z</time>
      </trkpt>
      <trkpt lat="59.9145003" lon="17.6427054">
        <ele>17.9218</ele>
        <time>2013-05-16T16:11:50Z</time>
      </trkpt>
      <trkpt lat="59.9144473" lon="17.6427123">
        <ele>17.9218</ele>
        <time>2013-05-16T16:11:51Z</time>
      </trkpt>
      <trkpt lat="59.9143968" lon="17.6427159">
        <ele>17.9218</ele>
        <time>2013-05-16T16:11:52Z</time>
      </trkpt>
      <trkpt lat="59.9143475" lon="17.6427221">
        <ele>17.9218</ele>
        <time>2013-05-16T16:11:53Z</time>
      </trkpt>
      <trkpt lat="59.914296" lon="17.6427309">
        <ele>18.4023</ele>
        <time>2013-05-16T16:11:54Z</time>
      </trkpt>
      <trkpt lat="59.9142432" lon="17.6427378">
        <ele>18.4023</ele>
        <time>2013-05-16T16:11:55Z</time>
      </trkpt>
      <trkpt lat="59.914191" lon="17.6427427">
        <ele>18.4023</ele>
        <time>2013-05-16T16:11:56Z</time>
      </trkpt>
      <trkpt lat="59.9141382" lon="17.6427588">
        <ele>18.8831</ele>
        <time>2013-05-16T16:11:57Z</time>
      </trkpt>
      <trkpt lat="59.9140857" lon="17.6427724">
        <ele>18.8831</ele>
        <time>2013-05-16T16:11:58Z</time>
      </trkpt>
      <trkpt lat="59.914032" lon="17.6427808">
        <ele>18.8831</ele>
        <time>2013-05-16T16:11:59Z</time>
      </trkpt>
      <trkpt lat="59.9139829" lon="17.6427832">
        <ele>19.3638</ele>
        <time>2013-05-16T16:12:00Z</time>
      </trkpt>
      <trkpt lat="59.9139314" lon="17.6427851">
        <ele>19.8444</ele>
        <time>2013-05-16T16:12:01Z</time>
      </trkpt>
      <trkpt lat="59.9138782" lon="17.6427875">
        <ele>19.8444</ele>
        <time>2013-05-16T16:12:02Z</time>
      </trkpt>
      <trkpt lat="59.9138217" lon="17.6427998">
        <ele>20.325</ele>
        <time>2013-05-16T16:12:03Z</time>
      </trkpt>
      <trkpt lat="59.9137672" lon="17.6428065">
        <ele>19.8444</ele>
        <time>2013-05-16T16:12:04Z</time>
      </trkpt>
      <trkpt lat="59.9137103" lon="17.6428193">
        <ele>19.8444</ele>
        <time>2013-05-16T16:12:05Z</time>
      </trkpt>
      <trkpt lat="59.9136537" lon="17.6428361">
        <ele>20.325</ele>
        <time>2013-05-16T16:12:06Z</time>
      </trkpt>
      <trkpt lat="59.9135969" lon="17.6428511">
        <ele>20.325</ele>
        <time>2013-05-16T16:12:07Z</time>
      </trkpt>
      <trkpt lat="59.9135399" lon="17.6428642">
        <ele>20.8057</ele>
        <time>2013-05-16T16:12:08Z</time>
      </trkpt>
      <trkpt lat="59.9134815" lon="17.6428725">
        <ele>20.325</ele>
        <time>2013-05-16T16:12:09Z</time>
      </trkpt>
      <trkpt lat="59.9134271" lon="17.6428815">
        <ele>21.2864</ele>
        <time>2013-05-16T16:12:10Z</time>
      </trkpt>
      <trkpt lat="59.9133726" lon="17.6428901">
        <ele>21.2864</ele>
        <time>2013-05-16T16:12:11Z</time>
      </trkpt>
      <trkpt lat="59.9133178" lon="17.6429058">
        <ele>21.767</ele>
        <time>2013-05-16T16:12:12Z</time>
      </trkpt>
      <trkpt lat="59.9132628" lon="17.6429277">
        <ele>22.2476</ele>
        <time>2013-05-16T16:12:13Z</time>
      </trkpt>
      <trkpt lat="59.9132083" lon="17.6429467">
        <ele>22.7283</ele>
        <time>2013-05-16T16:12:14Z</time>
      </trkpt>
      <trkpt lat="59.9131536" lon="17.6429589">
        <ele>23.209</ele>
        <time>2013-05-16T16:12:15Z</time>
      </trkpt>
      <trkpt lat="59.9130996" lon="17.642968">
        <ele>23.6896</ele>
        <time>2013-05-16T16:12:16Z</time>
      </trkpt>
      <trkpt lat="59.9130515" lon="17.6429745">
        <ele>24.651</ele>
        <time>2013-05-16T16:12:17Z</time>
      </trkpt>
      <trkpt lat="59.912997" lon="17.6429861">
        <ele>24.651</ele>
        <time>2013-05-16T16:12:18Z</time>
      </trkpt>
      <trkpt lat="59.9129435" lon="17.6429925">
        <ele>25.1317</ele>
        <time>2013-05-16T16:12:19Z</time>
      </trkpt>
      <trkpt lat="59.9128897" lon="17.6429992">
        <ele>25.6123</ele>
        <time>2013-05-16T16:12:20Z</time>
      </trkpt>
      <trkpt lat="59.9128272" lon="17.6430107">
        <ele>25.6123</ele>
        <time>2013-05-16T16:12:21Z</time>
      </trkpt>
      <trkpt lat="59.9127671" lon="17.6430136">
        <ele>25.6123</ele>
        <time>2013-05-16T16:12:22Z</time>
      </trkpt>
      <trkpt lat="59.9127012" lon="17.643007">
        <ele>24.651</ele>
        <time>2013-05-16T16:12:23Z</time>
      </trkpt>
      <trkpt lat="59.9126303" lon="17.6429861">
        <ele>23.6896</ele>
        <time>2013-05-16T16:12:24Z</time>
      </trkpt>
      <trkpt lat="59.9125605" lon="17.6429605">
        <ele>23.209</ele>
        <time>2013-05-16T16:12:25Z</time>
      </trkpt>
      <trkpt lat="59.9124869" lon="17.6429499">
        <ele>23.209</ele>
        <time>2013-05-16T16:12:26Z</time>
      </trkpt>
      <trkpt lat="59.9124163" lon="17.6429521">
        <ele>23.6896</ele>
        <time>2013-05-16T16:12:27Z</time>
      </trkpt>
      <trkpt lat="59.9123531" lon="17.642963">
        <ele>24.1703</ele>
        <time>2013-05-16T16:12:28Z</time>
      </trkpt>
      <trkpt lat="59.9122892" lon="17.6429796">
        <ele>25.1317</ele>
        <time>2013-05-16T16:12:29Z</time>
      </trkpt>
      <trkpt lat="59.9122231" lon="17.6430027">
        <ele>25.1317</ele>
        <time>2013-05-16T16:12:30Z</time>
      </trkpt>
      <trkpt lat="59.9121587" lon="17.6430284">
        <ele>25.1317</ele>
        <time>2013-05-16T16:12:31Z</time>
      </trkpt>
      <trkpt lat="59.9120972" lon="17.6430589">
        <ele>25.6123</ele>
        <time>2013-05-16T16:12:32Z</time>
      </trkpt>
      <trkpt lat="59.9120382" lon="17.6430809">
        <ele>26.0929</ele>
        <time>2013-05-16T16:12:33Z</time>
      </trkpt>
      <trkpt lat="59.9119807" lon="17.6430914">
        <ele>26.0929</ele>
        <time>2013-05-16T16:12:34Z</time>
      </trkpt>
      <trkpt lat="59.9119277" lon="17.6430991">
        <ele>27.0543</ele>
        <time>2013-05-16T16:12:35Z</time>
      </trkpt>
      <trkpt lat="59.9118718" lon="17.6431044">
        <ele>27.5349</ele>
        <time>2013-05-16T16:12:36Z</time>
      </trkpt>
      <trkpt lat="59.9118163" lon="17.6431128">
        <ele>27.5349</ele>
        <time>2013-05-16T16:12:37Z</time>
      </trkpt>
      <trkpt lat="59.9117575" lon="17.6431184">
        <ele>28.0155</ele>
        <time>2013-05-16T16:12:38Z</time>
      </trkpt>
      <trkpt lat="59.9116945" lon="17.64312">
        <ele>28.4962</ele>
        <time>2013-05-16T16:12:39Z</time>
      </trkpt>
      <trkpt lat="59.9116291" lon="17.6431267">
        <ele>28.4962</ele>
        <time>2013-05-16T16:12:40Z</time>
      </trkpt>
      <trkpt lat="59.9115614" lon="17.6431372">
        <ele>28.4962</ele>
        <time>2013-05-16T16:12:41Z</time>
      </trkpt>
      <trkpt lat="59.9114934" lon="17.6431576">
        <ele>28.0155</ele>
        <time>2013-05-16T16:12:42Z</time>
      </trkpt>
      <trkpt lat="59.911428" lon="17.6431759">
        <ele>28.0155</ele>
        <time>2013-05-16T16:12:43Z</time>
      </trkpt>
      <trkpt lat="59.9113618" lon="17.6431972">
        <ele>27.5349</ele>
        <time>2013-05-16T16:12:44Z</time>
      </trkpt>
      <trkpt lat="59.9112964" lon="17.6432219">
        <ele>27.0543</ele>
        <time>2013-05-16T16:12:45Z</time>
      </trkpt>
      <trkpt lat="59.911231" lon="17.6432478">
        <ele>26.5736</ele>
        <time>2013-05-16T16:12:46Z</time>
      </trkpt>
      <trkpt lat="59.9111667" lon="17.6432651">
        <ele>26.0929</ele>
        <time>2013-05-16T16:12:47Z</time>
      </trkpt>
      <trkpt lat="59.9111023" lon="17.6432758">
        <ele>25.6123</ele>
        <time>2013-05-16T16:12:48Z</time>
      </trkpt>
      <trkpt lat="59.9110378" lon="17.6432893">
        <ele>25.1317</ele>
        <time>2013-05-16T16:12:49Z</time>
      </trkpt>
      <trkpt lat="59.9109728" lon="17.6433007">
        <ele>24.651</ele>
        <time>2013-05-16T16:12:50Z</time>
      </trkpt>
      <trkpt lat="59.9109084" lon="17.6433143">
        <ele>24.651</ele>
        <time>2013-05-16T16:12:51Z</time>
      </trkpt>
      <trkpt lat="59.9108441" lon="17.6433324">
        <ele>24.1703</ele>
        <time>2013-05-16T16:12:52Z</time>
      </trkpt>
      <trkpt lat="59.9107789" lon="17.6433485">
        <ele>23.6896</ele>
        <time>2013-05-16T16:12:53Z</time>
      </trkpt>
      <trkpt lat="59.9107135" lon="17.6433628">
        <ele>24.1703</ele>
        <time>2013-05-16T16:12:54Z</time>
      </trkpt>
      <trkpt lat="59.9106473" lon="17.6433816">
        <ele>24.1703</ele>
        <time>2013-05-16T16:12:55Z</time>
      </trkpt>
      <trkpt lat="59.9105815" lon="17.6434117">
        <ele>24.1703</ele>
        <time>2013-05-16T16:12:56Z</time>
      </trkpt>
      <trkpt lat="59.9105199" lon="17.6434547">
        <ele>24.1703</ele>
        <time>2013-05-16T16:12:57Z</time>
      </trkpt>
      <trkpt lat="59.9104597" lon="17.6434995">
        <ele>24.1703</ele>
        <time>2013-05-16T16:12:58Z</time>
      </trkpt>
      <trkpt lat="59.9103987" lon="17.6435355">
        <ele>23.6896</ele>
        <time>2013-05-16T16:12:59Z</time>
      </trkpt>
      <trkpt lat="59.9103366" lon="17.6435495">
        <ele>23.6896</ele>
        <time>2013-05-16T16:13:00Z</time>
      </trkpt>
      <trkpt lat="59.9102738" lon="17.6435554">
        <ele>23.6896</ele>
        <time>2013-05-16T16:13:01Z</time>
      </trkpt>
      <trkpt lat="59.9102121" lon="17.6435602">
        <ele>23.6896</ele>
        <time>2013-05-16T16:13:02Z</time>
      </trkpt>
      <trkpt lat="59.910151" lon="17.6435627">
        <ele>23.6896</ele>
        <time>2013-05-16T16:13:03Z</time>
      </trkpt>
      <trkpt lat="59.9100883" lon="17.6435634">
        <ele>23.6896</ele>
        <time>2013-05-16T16:13:04Z</time>
      </trkpt>
      <trkpt lat="59.9100225" lon="17.643552">
        <ele>23.6896</ele>
        <time>2013-05-16T16:13:05Z</time>
      </trkpt>
      <trkpt lat="59.9099525" lon="17.6435229">
        <ele>23.6896</ele>
        <time>2013-05-16T16:13:06Z</time>
      </trkpt>
      <trkpt lat="59.9098791" lon="17.6434958">
        <ele>23.209</ele>
        <time>2013-05-16T16:13:07Z</time>
      </trkpt>
      <trkpt lat="59.9098059" lon="17.6434805">
        <ele>23.209</ele>
        <time>2013-05-16T16:13:08Z</time>
      </trkpt>
      <trkpt lat="59.9097323" lon="17.6434816">
        <ele>22.7283</ele>
        <time>2013-05-16T16:13:09Z</time>
      </trkpt>
      <trkpt lat="59.9096584" lon="17.6434958">
        <ele>22.7283</ele>
        <time>2013-05-16T16:13:10Z</time>
      </trkpt>
      <trkpt lat="59.9095845" lon="17.6435126">
        <ele>22.7283</ele>
        <time>2013-05-16T16:13:11Z</time>
      </trkpt>
      <trkpt lat="59.9095109" lon="17.6435293">
        <ele>22.7283</ele>
        <time>2013-05-16T16:13:12Z</time>
      </trkpt>
      <trkpt lat="59.9094376" lon="17.6435468">
        <ele>22.7283</ele>
        <time>2013-05-16T16:13:13Z</time>
      </trkpt>
      <trkpt lat="59.9093647" lon="17.6435635">
        <ele>22.7283</ele>
        <time>2013-05-16T16:13:14Z</time>
      </trkpt>
      <trkpt lat="59.9092923" lon="17.6435756">
        <ele>22.2476</ele>
        <time>2013-05-16T16:13:15Z</time>
      </trkpt>
      <trkpt lat="59.9092207" lon="17.6435861">
        <ele>22.2476</ele>
        <time>2013-05-16T16:13:16Z</time>
      </trkpt>
      <trkpt lat="59.9091498" lon="17.6435986">
        <ele>22.2476</ele>
        <time>2013-05-16T16:13:17Z</time>
      </trkpt>
      <trkpt lat="59.9090805" lon="17.6436091">
        <ele>22.2476</ele>
        <time>2013-05-16T16:13:18Z</time>
      </trkpt>
      <trkpt lat="59.9090135" lon="17.6436204">
        <ele>22.2476</ele>
        <time>2013-05-16T16:13:19Z</time>
      </trkpt>
      <trkpt lat="59.9089473" lon="17.6436312">
        <ele>22.2476</ele>
        <time>2013-05-16T16:13:20Z</time>
      </trkpt>
      <trkpt lat="59.908882" lon="17.6436386">
        <ele>22.2476</ele>
        <time>2013-05-16T16:13:21Z</time>
      </trkpt>
      <trkpt lat="59.9088182" lon="17.6436452">
        <ele>22.2476</ele>
        <time>2013-05-16T16:13:22Z</time>
      </trkpt>
      <trkpt lat="59.9087555" lon="17.6436535">
        <ele>22.2476</ele>
        <time>2013-05-16T16:13:23Z</time>
      </trkpt>
      <trkpt lat="59.9086934" lon="17.6436613">
        <ele>22.2476</ele>
        <time>2013-05-16T16:13:24Z</time>
      </trkpt>
      <trkpt lat="59.9086318" lon="17.6436657">
        <ele>22.2476</ele>
        <time>2013-05-16T16:13:25Z</time>
      </trkpt>
      <trkpt lat="59.9085707" lon="17.6436668">
        <ele>22.2476</ele>
        <time>2013-05-16T16:13:26Z</time>
      </trkpt>
      <trkpt lat="59.9085098" lon="17.6436691">
        <ele>22.2476</ele>
        <time>2013-05-16T16:13:27Z</time>
      </trkpt>
      <trkpt lat="59.9084498" lon="17.643672">
        <ele>22.7283</ele>
        <time>2013-05-16T16:13:28Z</time>
      </trkpt>
      <trkpt lat="59.9083915" lon="17.6436779">
        <ele>22.7283</ele>
        <time>2013-05-16T16:13:29Z</time>
      </trkpt>
      <trkpt lat="59.9083371" lon="17.6436974">
        <ele>23.209</ele>
        <time>2013-05-16T16:13:30Z</time>
      </trkpt>
      <trkpt lat="59.9082868" lon="17.6437286">
        <ele>23.209</ele>
        <time>2013-05-16T16:13:31Z</time>
      </trkpt>
      <trkpt lat="59.9082371" lon="17.6437591">
        <ele>23.209</ele>
        <time>2013-05-16T16:13:32Z</time>
      </trkpt>
      <trkpt lat="59.908185" lon="17.6437745">
        <ele>23.6896</ele>
        <time>2013-05-16T16:13:33Z</time>
      </trkpt>
      <trkpt lat="59.9081304" lon="17.643779">
        <ele>23.6896</ele>
        <time>2013-05-16T16:13:34Z</time>
      </trkpt>
      <trkpt lat="59.9080753" lon="17.6437789">
        <ele>23.209</ele>
        <time>2013-05-16T16:13:35Z</time>
      </trkpt>
      <trkpt lat="59.9080185" lon="17.6437762">
        <ele>23.209</ele>
        <time>2013-05-16T16:13:36Z</time>
      </trkpt>
      <trkpt lat="59.9079602" lon="17.643772">
        <ele>23.209</ele>
        <time>2013-05-16T16:13:37Z</time>
      </trkpt>
      <trkpt lat="59.9079013" lon="17.6437644">
        <ele>23.209</ele>
        <time>2013-05-16T16:13:38Z</time>
      </trkpt>
      <trkpt lat="59.9078419" lon="17.6437562">
        <ele>22.7283</ele>
        <time>2013-05-16T16:13:39Z</time>
      </trkpt>
      <trkpt lat="59.9077813" lon="17.6437483">
        <ele>22.7283</ele>
        <time>2013-05-16T16:13:40Z</time>
      </trkpt>
      <trkpt lat="59.9077201" lon="17.6437383">
        <ele>22.7283</ele>
        <time>2013-05-16T16:13:41Z</time>
      </trkpt>
      <trkpt lat="59.9076579" lon="17.6437262">
        <ele>22.2476</ele>
        <time>2013-05-16T16:13:42Z</time>
      </trkpt>
      <trkpt lat="59.9075947" lon="17.6437139">
        <ele>22.2476</ele>
        <time>2013-05-16T16:13:43Z</time>
      </trkpt>
      <trkpt lat="59.9075305" lon="17.6437015">
        <ele>22.2476</ele>
        <time>2013-05-16T16:13:44Z</time>
      </trkpt>
      <trkpt lat="59.9074652" lon="17.6436909">
        <ele>21.767</ele>
        <time>2013-05-16T16:13:45Z</time>
      </trkpt>
      <trkpt lat="59.9073994" lon="17.6436815">
        <ele>21.767</ele>
        <time>2013-05-16T16:13:46Z</time>
      </trkpt>
      <trkpt lat="59.9073331" lon="17.6436691">
        <ele>21.2864</ele>
        <time>2013-05-16T16:13:47Z</time>
      </trkpt>
      <trkpt lat="59.9072659" lon="17.6436559">
        <ele>21.2864</ele>
        <time>2013-05-16T16:13:48Z</time>
      </trkpt>
      <trkpt lat="59.9071984" lon="17.6436428">
        <ele>21.2864</ele>
        <time>2013-05-16T16:13:49Z</time>
      </trkpt>
      <trkpt lat="59.9071305" lon="17.6436285">
        <ele>20.8057</ele>
        <time>2013-05-16T16:13:50Z</time>
      </trkpt>
      <trkpt lat="59.9070615" lon="17.6436135">
        <ele>20.8057</ele>
        <time>2013-05-16T16:13:51Z</time>
      </trkpt>
      <trkpt lat="59.9069929" lon="17.6435986">
        <ele>20.8057</ele>
        <time>2013-05-16T16:13:52Z</time>
      </trkpt>
      <trkpt lat="59.9069257" lon="17.6435836">
        <ele>20.325</ele>
        <time>2013-05-16T16:13:53Z</time>
      </trkpt>
      <trkpt lat="59.9068596" lon="17.643564">
        <ele>20.325</ele>
        <time>2013-05-16T16:13:54Z</time>
      </trkpt>
      <trkpt lat="59.906794" lon="17.6435435">
        <ele>20.325</ele>
        <time>2013-05-16T16:13:55Z</time>
      </trkpt>
      <trkpt lat="59.9067291" lon="17.643528">
        <ele>20.325</ele>
        <time>2013-05-16T16:13:56Z</time>
      </trkpt>
      <trkpt lat="59.9066648" lon="17.6435146">
        <ele>19.8444</ele>
        <time>2013-05-16T16:13:57Z</time>
      </trkpt>
      <trkpt lat="59.9066012" lon="17.6435007">
        <ele>19.8444</ele>
        <time>2013-05-16T16:13:58Z</time>
      </trkpt>
      <trkpt lat="59.9065393" lon="17.6434819">
        <ele>19.3638</ele>
        <time>2013-05-16T16:13:59Z</time>
      </trkpt>
      <trkpt lat="59.906478" lon="17.6434582">
        <ele>19.3638</ele>
        <time>2013-05-16T16:14:00Z</time>
      </trkpt>
      <trkpt lat="59.9064171" lon="17.6434339">
        <ele>19.3638</ele>
        <time>2013-05-16T16:14:01Z</time>
      </trkpt>
      <trkpt lat="59.9063556" lon="17.6434109">
        <ele>18.8831</ele>
        <time>2013-05-16T16:14:02Z</time>
      </trkpt>
      <trkpt lat="59.9062938" lon="17.6433892">
        <ele>18.8831</ele>
        <time>2013-05-16T16:14:03Z</time>
      </trkpt>
      <trkpt lat="59.9062318" lon="17.6433667">
        <ele>18.8831</ele>
        <time>2013-05-16T16:14:04Z</time>
      </trkpt>
      <trkpt lat="59.9061696" lon="17.6433417">
        <ele>18.4023</ele>
        <time>2013-05-16T16:14:05Z</time>
      </trkpt>
      <trkpt lat="59.9061074" lon="17.6433171">
        <ele>18.4023</ele>
        <time>2013-05-16T16:14:06Z</time>
      </trkpt>
      <trkpt lat="59.9060448" lon="17.6432878">
        <ele>17.9218</ele>
        <time>2013-05-16T16:14:07Z</time>
      </trkpt>
      <trkpt lat="59.9059811" lon="17.6432572">
        <ele>17.4412</ele>
        <time>2013-05-16T16:14:08Z</time>
      </trkpt>
      <trkpt lat="59.9059152" lon="17.6432278">
        <ele>16.9604</ele>
        <time>2013-05-16T16:14:09Z</time>
      </trkpt>
      <trkpt lat="59.905848" lon="17.6432012">
        <ele>16.9604</ele>
        <time>2013-05-16T16:14:10Z</time>
      </trkpt>
      <trkpt lat="59.9057801" lon="17.6431747">
        <ele>16.9604</ele>
        <time>2013-05-16T16:14:11Z</time>
      </trkpt>
      <trkpt lat="59.9057131" lon="17.6431365">
        <ele>16.9604</ele>
        <time>2013-05-16T16:14:12Z</time>
      </trkpt>
      <trkpt lat="59.9056476" lon="17.6430988">
        <ele>16.4797</ele>
        <time>2013-05-16T16:14:13Z</time>
      </trkpt>
      <trkpt lat="59.9055823" lon="17.6430623">
        <ele>16.4797</ele>
        <time>2013-05-16T16:14:14Z</time>
      </trkpt>
      <trkpt lat="59.905516" lon="17.6430315">
        <ele>16.4797</ele>
        <time>2013-05-16T16:14:15Z</time>
      </trkpt>
      <trkpt lat="59.9054487" lon="17.6430065">
        <ele>16.4797</ele>
        <time>2013-05-16T16:14:16Z</time>
      </trkpt>
      <trkpt lat="59.9053827" lon="17.6429827">
        <ele>15.999</ele>
        <time>2013-05-16T16:14:17Z</time>
      </trkpt>
      <trkpt lat="59.9053206" lon="17.6429568">
        <ele>15.999</ele>
        <time>2013-05-16T16:14:18Z</time>
      </trkpt>
      <trkpt lat="59.9052594" lon="17.6429299">
        <ele>15.999</ele>
        <time>2013-05-16T16:14:19Z</time>
      </trkpt>
      <trkpt lat="59.9051984" lon="17.6429003">
        <ele>15.999</ele>
        <time>2013-05-16T16:14:20Z</time>
      </trkpt>
      <trkpt lat="59.9051405" lon="17.6428636">
        <ele>15.5184</ele>
        <time>2013-05-16T16:14:21Z</time>
      </trkpt>
      <trkpt lat="59.9050874" lon="17.642805">
        <ele>15.0377</ele>
        <time>2013-05-16T16:14:22Z</time>
      </trkpt>
      <trkpt lat="59.9050312" lon="17.6427629">
        <ele>15.0377</ele>
        <time>2013-05-16T16:14:23Z</time>
      </trkpt>
      <trkpt lat="59.904974" lon="17.6427339">
        <ele>14.557</ele>
        <time>2013-05-16T16:14:24Z</time>
      </trkpt>
      <trkpt lat="59.9049183" lon="17.6427008">
        <ele>14.557</ele>
        <time>2013-05-16T16:14:25Z</time>
      </trkpt>
      <trkpt lat="59.9048573" lon="17.6426745">
        <ele>14.557</ele>
        <time>2013-05-16T16:14:26Z</time>
      </trkpt>
      <trkpt lat="59.9048014" lon="17.642642">
        <ele>14.557</ele>
        <time>2013-05-16T16:14:27Z</time>
      </trkpt>
      <trkpt lat="59.9047444" lon="17.6426054">
        <ele>14.557</ele>
        <time>2013-05-16T16:14:28Z</time>
      </trkpt>
      <trkpt lat="59.9046865" lon="17.6425632">
        <ele>14.557</ele>
        <time>2013-05-16T16:14:29Z</time>
      </trkpt>
      <trkpt lat="59.9046306" lon="17.6425145">
        <ele>14.0764</ele>
        <time>2013-05-16T16:14:30Z</time>
      </trkpt>
      <trkpt lat="59.9045763" lon="17.6424668">
        <ele>14.0764</ele>
        <time>2013-05-16T16:14:31Z</time>
      </trkpt>
      <trkpt lat="59.9045223" lon="17.6424278">
        <ele>14.0764</ele>
        <time>2013-05-16T16:14:32Z</time>
      </trkpt>
      <trkpt lat="59.9044675" lon="17.6423973">
        <ele>13.5958</ele>
        <time>2013-05-16T16:14:33Z</time>
      </trkpt>
      <trkpt lat="59.9044145" lon="17.6423699">
        <ele>13.5958</ele>
        <time>2013-05-16T16:14:34Z</time>
      </trkpt>
      <trkpt lat="59.9043628" lon="17.6423428">
        <ele>13.5958</ele>
        <time>2013-05-16T16:14:35Z</time>
      </trkpt>
      <trkpt lat="59.9043129" lon="17.6423129">
        <ele>13.5958</ele>
        <time>2013-05-16T16:14:36Z</time>
      </trkpt>
      <trkpt lat="59.9042648" lon="17.6422833">
        <ele>13.5958</ele>
        <time>2013-05-16T16:14:37Z</time>
      </trkpt>
      <trkpt lat="59.9042188" lon="17.6422585">
        <ele>13.5958</ele>
        <time>2013-05-16T16:14:38Z</time>
      </trkpt>
      <trkpt lat="59.9041751" lon="17.6422377">
        <ele>13.5958</ele>
        <time>2013-05-16T16:14:39Z</time>
      </trkpt>
      <trkpt lat="59.9041359" lon="17.642215">
        <ele>13.1151</ele>
        <time>2013-05-16T16:14:40Z</time>
      </trkpt>
      <trkpt lat="59.9040976" lon="17.642193">
        <ele>13.1151</ele>
        <time>2013-05-16T16:14:41Z</time>
      </trkpt>
      <trkpt lat="59.9040624" lon="17.6421664">
        <ele>13.1151</ele>
        <time>2013-05-16T16:14:42Z</time>
      </trkpt>
      <trkpt lat="59.9040311" lon="17.64214">
        <ele>13.1151</ele>
        <time>2013-05-16T16:14:43Z</time>
      </trkpt>
      <trkpt lat="59.9039985" lon="17.6421229">
        <ele>13.1151</ele>
        <time>2013-05-16T16:14:44Z</time>
      </trkpt>
      <trkpt lat="59.9039653" lon="17.6421143">
        <ele>13.1151</ele>
        <time>2013-05-16T16:14:45Z</time>
      </trkpt>
      <trkpt lat="59.9039329" lon="17.6421052">
        <ele>13.5958</ele>
        <time>2013-05-16T16:14:46Z</time>
      </trkpt>
      <trkpt lat="59.9039042" lon="17.6420912">
        <ele>13.5958</ele>
        <time>2013-05-16T16:14:47Z</time>
      </trkpt>
      <trkpt lat="59.9038753" lon="17.6420793">
        <ele>13.5958</ele>
        <time>2013-05-16T16:14:48Z</time>
      </trkpt>
      <trkpt lat="59.9038484" lon="17.6420663">
        <ele>14.0764</ele>
        <time>2013-05-16T16:14:49Z</time>
      </trkpt>
      <trkpt lat="59.9038241" lon="17.6420544">
        <ele>14.0764</ele>
        <time>2013-05-16T16:14:50Z</time>
      </trkpt>
      <trkpt lat="59.9038008" lon="17.642041">
        <ele>14.0764</ele>
        <time>2013-05-16T16:14:51Z</time>
      </trkpt>
      <trkpt lat="59.9037785" lon="17.6420312">
        <ele>14.557</ele>
        <time>2013-05-16T16:14:52Z</time>
      </trkpt>
      <trkpt lat="59.9037562" lon="17.6420233">
        <ele>14.557</ele>
        <time>2013-05-16T16:14:53Z</time>
      </trkpt>
      <trkpt lat="59.9037327" lon="17.6420135">
        <ele>15.0377</ele>
        <time>2013-05-16T16:14:54Z</time>
      </trkpt>
      <trkpt lat="59.903705" lon="17.6420025">
        <ele>15.0377</ele>
        <time>2013-05-16T16:14:55Z</time>
      </trkpt>
      <trkpt lat="59.9036739" lon="17.6419856">
        <ele>15.5184</ele>
        <time>2013-05-16T16:14:56Z</time>
      </trkpt>
      <trkpt lat="59.9036392" lon="17.6419663">
        <ele>15.999</ele>
        <time>2013-05-16T16:14:57Z</time>
      </trkpt>
      <trkpt lat="59.9036027" lon="17.641959">
        <ele>16.4797</ele>
        <time>2013-05-16T16:14:58Z</time>
      </trkpt>
      <trkpt lat="59.903561" lon="17.641973">
        <ele>16.4797</ele>
        <time>2013-05-16T16:14:59Z</time>
      </trkpt>
      <trkpt lat="59.903516" lon="17.6419814">
        <ele>15.999</ele>
        <time>2013-05-16T16:15:00Z</time>
      </trkpt>
      <trkpt lat="59.9034654" lon="17.6419687">
        <ele>15.999</ele>
        <time>2013-05-16T16:15:01Z</time>
      </trkpt>
      <trkpt lat="59.9034103" lon="17.6419332">
        <ele>15.5184</ele>
        <time>2013-05-16T16:15:02Z</time>
      </trkpt>
      <trkpt lat="59.9033541" lon="17.6418964">
        <ele>15.0377</ele>
        <time>2013-05-16T16:15:03Z</time>
      </trkpt>
      <trkpt lat="59.9032995" lon="17.6418724">
        <ele>14.557</ele>
        <time>2013-05-16T16:15:04Z</time>
      </trkpt>
      <trkpt lat="59.9032459" lon="17.6418484">
        <ele>14.557</ele>
        <time>2013-05-16T16:15:05Z</time>
      </trkpt>
      <trkpt lat="59.9031942" lon="17.6418198">
        <ele>14.557</ele>
        <time>2013-05-16T16:15:06Z</time>
      </trkpt>
      <trkpt lat="59.903147" lon="17.6417935">
        <ele>14.557</ele>
        <time>2013-05-16T16:15:07Z</time>
      </trkpt>
      <trkpt lat="59.9031042" lon="17.6417727">
        <ele>14.0764</ele>
        <time>2013-05-16T16:15:08Z</time>
      </trkpt>
      <trkpt lat="59.903065" lon="17.6417494">
        <ele>14.0764</ele>
        <time>2013-05-16T16:15:09Z</time>
      </trkpt>
      <trkpt lat="59.9030272" lon="17.6417287">
        <ele>14.0764</ele>
        <time>2013-05-16T16:15:10Z</time>
      </trkpt>
      <trkpt lat="59.9029948" lon="17.6417079">
        <ele>13.5958</ele>
        <time>2013-05-16T16:15:11Z</time>
      </trkpt>
      <trkpt lat="59.9029688" lon="17.6416887">
        <ele>13.5958</ele>
        <time>2013-05-16T16:15:12Z</time>
      </trkpt>
      <trkpt lat="59.9029461" lon="17.64168">
        <ele>13.5958</ele>
        <time>2013-05-16T16:15:13Z</time>
      </trkpt>
      <trkpt lat="59.9029253" lon="17.6416783">
        <ele>13.5958</ele>
        <time>2013-05-16T16:15:14Z</time>
      </trkpt>
      <trkpt lat="59.9029055" lon="17.6416812">
        <ele>13.1151</ele>
        <time>2013-05-16T16:15:15Z</time>
      </trkpt>
      <trkpt lat="59.9028855" lon="17.6416873">
        <ele>13.1151</ele>
        <time>2013-05-16T16:15:16Z</time>
      </trkpt>
      <trkpt lat="59.9028641" lon="17.6416935">
        <ele>13.1151</ele>
        <time>2013-05-16T16:15:17Z</time>
      </trkpt>
      <trkpt lat="59.90284" lon="17.6416919">
        <ele>13.1151</ele>
        <time>2013-05-16T16:15:18Z</time>
      </trkpt>
      <trkpt lat="59.902818" lon="17.641674">
        <ele>13.1151</ele>
        <time>2013-05-16T16:15:19Z</time>
      </trkpt>
      <trkpt lat="59.9027998" lon="17.6416509">
        <ele>13.5958</ele>
        <time>2013-05-16T16:15:20Z</time>
      </trkpt>
      <trkpt lat="59.9027829" lon="17.6416317">
        <ele>14.0764</ele>
        <time>2013-05-16T16:15:21Z</time>
      </trkpt>
      <trkpt lat="59.9027675" lon="17.6416119">
        <ele>14.0764</ele>
        <time>2013-05-16T16:15:22Z</time>
      </trkpt>
      <trkpt lat="59.9027518" lon="17.6415958">
        <ele>14.0764</ele>
        <time>2013-05-16T16:15:23Z</time>
      </trkpt>
      <trkpt lat="59.9027341" lon="17.6415789">
        <ele>14.0764</ele>
        <time>2013-05-16T16:15:24Z</time>
      </trkpt>
      <trkpt lat="59.9027125" lon="17.6415622">
        <ele>14.0764</ele>
        <time>2013-05-16T16:15:25Z</time>
      </trkpt>
      <trkpt lat="59.902685" lon="17.6415466">
        <ele>14.0764</ele>
        <time>2013-05-16T16:15:26Z</time>
      </trkpt>
      <trkpt lat="59.9026497" lon="17.6415249">
        <ele>13.5958</ele>
        <time>2013-05-16T16:15:27Z</time>
      </trkpt>
      <trkpt lat="59.9026059" lon="17.6414965">
        <ele>13.5958</ele>
        <time>2013-05-16T16:15:28Z</time>
      </trkpt>
      <trkpt lat="59.9025534" lon="17.641467">
        <ele>13.5958</ele>
        <time>2013-05-16T16:15:29Z</time>
      </trkpt>
      <trkpt lat="59.9024953" lon="17.6414307">
        <ele>13.5958</ele>
        <time>2013-05-16T16:15:30Z</time>
      </trkpt>
      <trkpt lat="59.9024325" lon="17.6413846">
        <ele>13.5958</ele>
        <time>2013-05-16T16:15:31Z</time>
      </trkpt>
      <trkpt lat="59.9023667" lon="17.6413345">
        <ele>13.5958</ele>
        <time>2013-05-16T16:15:32Z</time>
      </trkpt>
      <trkpt lat="59.9022996" lon="17.6412843">
        <ele>13.5958</ele>
        <time>2013-05-16T16:15:33Z</time>
      </trkpt>
      <trkpt lat="59.9022315" lon="17.6412364">
        <ele>13.5958</ele>
        <time>2013-05-16T16:15:34Z</time>
      </trkpt>
      <trkpt lat="59.9021639" lon="17.6411897">
        <ele>13.1151</ele>
        <time>2013-05-16T16:15:35Z</time>
      </trkpt>
      <trkpt lat="59.9020976" lon="17.6411407">
        <ele>13.5958</ele>
        <time>2013-05-16T16:15:36Z</time>
      </trkpt>
      <trkpt lat="59.9020311" lon="17.64109">
        <ele>13.5958</ele>
        <time>2013-05-16T16:15:37Z</time>
      </trkpt>
      <trkpt lat="59.9019644" lon="17.6410385">
        <ele>13.5958</ele>
        <time>2013-05-16T16:15:38Z</time>
      </trkpt>
      <trkpt lat="59.9018987" lon="17.6409836">
        <ele>13.5958</ele>
        <time>2013-05-16T16:15:39Z</time>
      </trkpt>
      <trkpt lat="59.9018338" lon="17.6409273">
        <ele>13.5958</ele>
        <time>2013-05-16T16:15:40Z</time>
      </trkpt>
      <trkpt lat="59.901769" lon="17.6408714">
        <ele>13.5958</ele>
        <time>2013-05-16T16:15:41Z</time>
      </trkpt>
      <trkpt lat="59.9017054" lon="17.6408152">
        <ele>13.5958</ele>
        <time>2013-05-16T16:15:42Z</time>
      </trkpt>
      <trkpt lat="59.9016422" lon="17.640759">
        <ele>13.5958</ele>
        <time>2013-05-16T16:15:43Z</time>
      </trkpt>
      <trkpt lat="59.9015796" lon="17.6407002">
        <ele>13.5958</ele>
        <time>2013-05-16T16:15:44Z</time>
      </trkpt>
      <trkpt lat="59.9015185" lon="17.6406407">
        <ele>14.0764</ele>
        <time>2013-05-16T16:15:45Z</time>
      </trkpt>
      <trkpt lat="59.9014588" lon="17.6405838">
        <ele>14.0764</ele>
        <time>2013-05-16T16:15:46Z</time>
      </trkpt>
      <trkpt lat="59.9013996" lon="17.6405266">
        <ele>14.0764</ele>
        <time>2013-05-16T16:15:47Z</time>
      </trkpt>
      <trkpt lat="59.9013416" lon="17.6404686">
        <ele>14.0764</ele>
        <time>2013-05-16T16:15:48Z</time>
      </trkpt>
      <trkpt lat="59.9012853" lon="17.6404144">
        <ele>14.0764</ele>
        <time>2013-05-16T16:15:49Z</time>
      </trkpt>
      <trkpt lat="59.9012295" lon="17.6403611">
        <ele>14.0764</ele>
        <time>2013-05-16T16:15:50Z</time>
      </trkpt>
      <trkpt lat="59.9011745" lon="17.6403066">
        <ele>14.0764</ele>
        <time>2013-05-16T16:15:51Z</time>
      </trkpt>
      <trkpt lat="59.9011175" lon="17.6402518">
        <ele>14.0764</ele>
        <time>2013-05-16T16:15:52Z</time>
      </trkpt>
      <trkpt lat="59.9010585" lon="17.6401995">
        <ele>14.557</ele>
        <time>2013-05-16T16:15:53Z</time>
      </trkpt>
      <trkpt lat="59.9010023" lon="17.6401455">
        <ele>15.0377</ele>
        <time>2013-05-16T16:15:54Z</time>
      </trkpt>
      <trkpt lat="59.9009476" lon="17.6400875">
        <ele>15.0377</ele>
        <time>2013-05-16T16:15:55Z</time>
      </trkpt>
      <trkpt lat="59.9008933" lon="17.6400294">
        <ele>15.0377</ele>
        <time>2013-05-16T16:15:56Z</time>
      </trkpt>
      <trkpt lat="59.9008383" lon="17.6399727">
        <ele>15.0377</ele>
        <time>2013-05-16T16:15:57Z</time>
      </trkpt>
      <trkpt lat="59.9007834" lon="17.6399166">
        <ele>15.0377</ele>
        <time>2013-05-16T16:15:58Z</time>
      </trkpt>
      <trkpt lat="59.9007279" lon="17.6398616">
        <ele>15.0377</ele>
        <time>2013-05-16T16:15:59Z</time>
      </trkpt>
      <trkpt lat="59.9006726" lon="17.6398047">
        <ele>15.0377</ele>
        <time>2013-05-16T16:16:00Z</time>
      </trkpt>
      <trkpt lat="59.9006171" lon="17.6397467">
        <ele>15.0377</ele>
        <time>2013-05-16T16:16:01Z</time>
      </trkpt>
      <trkpt lat="59.9005617" lon="17.6396886">
        <ele>15.0377</ele>
        <time>2013-05-16T16:16:02Z</time>
      </trkpt>
      <trkpt lat="59.9005062" lon="17.6396306">
        <ele>15.5184</ele>
        <time>2013-05-16T16:16:03Z</time>
      </trkpt>
      <trkpt lat="59.9004503" lon="17.6395741">
        <ele>15.5184</ele>
        <time>2013-05-16T16:16:04Z</time>
      </trkpt>
      <trkpt lat="59.9003949" lon="17.6395151">
        <ele>15.5184</ele>
        <time>2013-05-16T16:16:05Z</time>
      </trkpt>
      <trkpt lat="59.9003394" lon="17.639456">
        <ele>15.5184</ele>
        <time>2013-05-16T16:16:06Z</time>
      </trkpt>
      <trkpt lat="59.9002812" lon="17.6393976">
        <ele>15.5184</ele>
        <time>2013-05-16T16:16:07Z</time>
      </trkpt>
      <trkpt lat="59.9002264" lon="17.6393442">
        <ele>15.0377</ele>
        <time>2013-05-16T16:16:08Z</time>
      </trkpt>
      <trkpt lat="59.9001732" lon="17.6392946">
        <ele>15.5184</ele>
        <time>2013-05-16T16:16:09Z</time>
      </trkpt>
      <trkpt lat="59.900125" lon="17.6392414">
        <ele>15.5184</ele>
        <time>2013-05-16T16:16:10Z</time>
      </trkpt>
      <trkpt lat="59.9000757" lon="17.6391848">
        <ele>15.5184</ele>
        <time>2013-05-16T16:16:11Z</time>
      </trkpt>
      <trkpt lat="59.9000244" lon="17.6391287">
        <ele>15.0377</ele>
        <time>2013-05-16T16:16:12Z</time>
      </trkpt>
      <trkpt lat="59.8999751" lon="17.6390799">
        <ele>14.557</ele>
        <time>2013-05-16T16:16:13Z</time>
      </trkpt>
      <trkpt lat="59.8999246" lon="17.6390334">
        <ele>15.0377</ele>
        <time>2013-05-16T16:16:14Z</time>
      </trkpt>
      <trkpt lat="59.8998742" lon="17.6389857">
        <ele>15.0377</ele>
        <time>2013-05-16T16:16:15Z</time>
      </trkpt>
      <trkpt lat="59.8998214" lon="17.6389297">
        <ele>15.999</ele>
        <time>2013-05-16T16:16:16Z</time>
      </trkpt>
      <trkpt lat="59.8997706" lon="17.6388763">
        <ele>16.4797</ele>
        <time>2013-05-16T16:16:17Z</time>
      </trkpt>
      <trkpt lat="59.8997171" lon="17.638825">
        <ele>16.4797</ele>
        <time>2013-05-16T16:16:18Z</time>
      </trkpt>
      <trkpt lat="59.8996653" lon="17.6387766">
        <ele>15.0377</ele>
        <time>2013-05-16T16:16:19Z</time>
      </trkpt>
      <trkpt lat="59.8996151" lon="17.6387267">
        <ele>15.0377</ele>
        <time>2013-05-16T16:16:20Z</time>
      </trkpt>
      <trkpt lat="59.8995665" lon="17.6386754">
        <ele>15.0377</ele>
        <time>2013-05-16T16:16:21Z</time>
      </trkpt>
      <trkpt lat="59.8995161" lon="17.6386209">
        <ele>14.557</ele>
        <time>2013-05-16T16:16:22Z</time>
      </trkpt>
      <trkpt lat="59.8994659" lon="17.6385708">
        <ele>15.0377</ele>
        <time>2013-05-16T16:16:23Z</time>
      </trkpt>
      <trkpt lat="59.8994105" lon="17.6385158">
        <ele>15.5184</ele>
        <time>2013-05-16T16:16:24Z</time>
      </trkpt>
      <trkpt lat="59.8993573" lon="17.6384644">
        <ele>15.999</ele>
        <time>2013-05-16T16:16:25Z</time>
      </trkpt>
      <trkpt lat="59.8993045" lon="17.6384126">
        <ele>15.999</ele>
        <time>2013-05-16T16:16:26Z</time>
      </trkpt>
      <trkpt lat="59.8992506" lon="17.6383603">
        <ele>15.999</ele>
        <time>2013-05-16T16:16:27Z</time>
      </trkpt>
      <trkpt lat="59.8991974" lon="17.6383142">
        <ele>15.999</ele>
        <time>2013-05-16T16:16:28Z</time>
      </trkpt>
      <trkpt lat="59.8991454" lon="17.638265">
        <ele>15.5184</ele>
        <time>2013-05-16T16:16:29Z</time>
      </trkpt>
      <trkpt lat="59.8990946" lon="17.6382122">
        <ele>16.4797</ele>
        <time>2013-05-16T16:16:30Z</time>
      </trkpt>
      <trkpt lat="59.8990474" lon="17.6381617">
        <ele>16.4797</ele>
        <time>2013-05-16T16:16:31Z</time>
      </trkpt>
      <trkpt lat="59.8990051" lon="17.6381168">
        <ele>16.4797</ele>
        <time>2013-05-16T16:16:32Z</time>
      </trkpt>
      <trkpt lat="59.8989621" lon="17.638073">
        <ele>15.999</ele>
        <time>2013-05-16T16:16:33Z</time>
      </trkpt>
      <trkpt lat="59.8989205" lon="17.6380283">
        <ele>16.9604</ele>
        <time>2013-05-16T16:16:34Z</time>
      </trkpt>
      <trkpt lat="59.8988813" lon="17.6379897">
        <ele>17.9218</ele>
        <time>2013-05-16T16:16:35Z</time>
      </trkpt>
      <trkpt lat="59.8988467" lon="17.637959">
        <ele>17.9218</ele>
        <time>2013-05-16T16:16:36Z</time>
      </trkpt>
      <trkpt lat="59.8988155" lon="17.6379439">
        <ele>18.4023</ele>
        <time>2013-05-16T16:16:37Z</time>
      </trkpt>
      <trkpt lat="59.8987885" lon="17.6379452">
        <ele>18.4023</ele>
        <time>2013-05-16T16:16:38Z</time>
      </trkpt>
      <trkpt lat="59.8987682" lon="17.6379487">
        <ele>19.8444</ele>
        <time>2013-05-16T16:16:39Z</time>
      </trkpt>
      <trkpt lat="59.8987549" lon="17.6379699">
        <ele>20.8057</ele>
        <time>2013-05-16T16:16:40Z</time>
      </trkpt>
      <trkpt lat="59.8987418" lon="17.6379886">
        <ele>20.8057</ele>
        <time>2013-05-16T16:16:41Z</time>
      </trkpt>
      <trkpt lat="59.8987218" lon="17.6380165">
        <ele>20.325</ele>
        <time>2013-05-16T16:16:42Z</time>
      </trkpt>
      <trkpt lat="59.898697" lon="17.6380407">
        <ele>19.8444</ele>
        <time>2013-05-16T16:16:43Z</time>
      </trkpt>
      <trkpt lat="59.8986684" lon="17.6380596">
        <ele>20.325</ele>
        <time>2013-05-16T16:16:44Z</time>
      </trkpt>
      <trkpt lat="59.8986412" lon="17.638084">
        <ele>20.8057</ele>
        <time>2013-05-16T16:16:45Z</time>
      </trkpt>
      <trkpt lat="59.898622" lon="17.6381041">
        <ele>22.7283</ele>
        <time>2013-05-16T16:16:46Z</time>
      </trkpt>
      <trkpt lat="59.8986027" lon="17.6381264">
        <ele>23.209</ele>
        <time>2013-05-16T16:16:47Z</time>
      </trkpt>
      <trkpt lat="59.8985808" lon="17.638146">
        <ele>23.209</ele>
        <time>2013-05-16T16:16:48Z</time>
      </trkpt>
      <trkpt lat="59.8985524" lon="17.6381522">
        <ele>22.2476</ele>
        <time>2013-05-16T16:16:49Z</time>
      </trkpt>
      <trkpt lat="59.8985205" lon="17.6381423">
        <ele>22.7283</ele>
        <time>2013-05-16T16:16:50Z</time>
      </trkpt>
      <trkpt lat="59.8984858" lon="17.6381192">
        <ele>22.2476</ele>
        <time>2013-05-16T16:16:51Z</time>
      </trkpt>
      <trkpt lat="59.8984446" lon="17.6380849">
        <ele>21.767</ele>
        <time>2013-05-16T16:16:52Z</time>
      </trkpt>
      <trkpt lat="59.8983999" lon="17.6380508">
        <ele>20.8057</ele>
        <time>2013-05-16T16:16:53Z</time>
      </trkpt>
      <trkpt lat="59.898355" lon="17.6380124">
        <ele>20.325</ele>
        <time>2013-05-16T16:16:54Z</time>
      </trkpt>
      <trkpt lat="59.8983052" lon="17.63797">
        <ele>19.8444</ele>
        <time>2013-05-16T16:16:55Z</time>
      </trkpt>
      <trkpt lat="59.8982532" lon="17.6379254">
        <ele>20.325</ele>
        <time>2013-05-16T16:16:56Z</time>
      </trkpt>
      <trkpt lat="59.898198" lon="17.6378853">
        <ele>19.8444</ele>
        <time>2013-05-16T16:16:57Z</time>
      </trkpt>
      <trkpt lat="59.8981446" lon="17.6378435">
        <ele>19.3638</ele>
        <time>2013-05-16T16:16:58Z</time>
      </trkpt>
      <trkpt lat="59.8980907" lon="17.6378019">
        <ele>19.3638</ele>
        <time>2013-05-16T16:16:59Z</time>
      </trkpt>
      <trkpt lat="59.8980296" lon="17.637777">
        <ele>19.3638</ele>
        <time>2013-05-16T16:17:00Z</time>
      </trkpt>
      <trkpt lat="59.897985" lon="17.6377165">
        <ele>18.8831</ele>
        <time>2013-05-16T16:17:01Z</time>
      </trkpt>
      <trkpt lat="59.8979425" lon="17.637638">
        <ele>18.8831</ele>
        <time>2013-05-16T16:17:02Z</time>
      </trkpt>
      <trkpt lat="59.8978898" lon="17.6375411">
        <ele>18.4023</ele>
        <time>2013-05-16T16:17:03Z</time>
      </trkpt>
      <trkpt lat="59.8978424" lon="17.6374525">
        <ele>19.3638</ele>
        <time>2013-05-16T16:17:04Z</time>
      </trkpt>
      <trkpt lat="59.8977974" lon="17.6373683">
        <ele>18.8831</ele>
        <time>2013-05-16T16:17:05Z</time>
      </trkpt>
      <trkpt lat="59.897755" lon="17.6372947">
        <ele>18.4023</ele>
        <time>2013-05-16T16:17:06Z</time>
      </trkpt>
      <trkpt lat="59.8977104" lon="17.6372165">
        <ele>17.9218</ele>
        <time>2013-05-16T16:17:07Z</time>
      </trkpt>
      <trkpt lat="59.8976539" lon="17.6371691">
        <ele>17.9218</ele>
        <time>2013-05-16T16:17:08Z</time>
      </trkpt>
      <trkpt lat="59.8975872" lon="17.6371312">
        <ele>17.9218</ele>
        <time>2013-05-16T16:17:09Z</time>
      </trkpt>
      <trkpt lat="59.8975306" lon="17.6370908">
        <ele>17.4412</ele>
        <time>2013-05-16T16:17:10Z</time>
      </trkpt>
      <trkpt lat="59.8974736" lon="17.6370531">
        <ele>17.4412</ele>
        <time>2013-05-16T16:17:11Z</time>
      </trkpt>
      <trkpt lat="59.897412" lon="17.6370204">
        <ele>17.4412</ele>
        <time>2013-05-16T16:17:12Z</time>
      </trkpt>
      <trkpt lat="59.8973525" lon="17.6369888">
        <ele>17.4412</ele>
        <time>2013-05-16T16:17:13Z</time>
      </trkpt>
      <trkpt lat="59.8972947" lon="17.6369592">
        <ele>17.4412</ele>
        <time>2013-05-16T16:17:14Z</time>
      </trkpt>
      <trkpt lat="59.8972403" lon="17.6369262">
        <ele>17.9218</ele>
        <time>2013-05-16T16:17:15Z</time>
      </trkpt>
      <trkpt lat="59.8971837" lon="17.6369005">
        <ele>18.4023</ele>
        <time>2013-05-16T16:17:16Z</time>
      </trkpt>
      <trkpt lat="59.8971276" lon="17.6368788">
        <ele>18.4023</ele>
        <time>2013-05-16T16:17:17Z</time>
      </trkpt>
      <trkpt lat="59.8970719" lon="17.6368598">
        <ele>18.8831</ele>
        <time>2013-05-16T16:17:18Z</time>
      </trkpt>
      <trkpt lat="59.8970207" lon="17.6368453">
        <ele>17.9218</ele>
        <time>2013-05-16T16:17:19Z</time>
      </trkpt>
      <trkpt lat="59.8969662" lon="17.6368117">
        <ele>18.4023</ele>
        <time>2013-05-16T16:17:20Z</time>
      </trkpt>
      <trkpt lat="59.8969132" lon="17.6367702">
        <ele>18.4023</ele>
        <time>2013-05-16T16:17:21Z</time>
      </trkpt>
      <trkpt lat="59.896861" lon="17.6367276">
        <ele>18.8831</ele>
        <time>2013-05-16T16:17:22Z</time>
      </trkpt>
      <trkpt lat="59.8968059" lon="17.6366913">
        <ele>19.8444</ele>
        <time>2013-05-16T16:17:23Z</time>
      </trkpt>
      <trkpt lat="59.8967528" lon="17.6366599">
        <ele>19.8444</ele>
        <time>2013-05-16T16:17:24Z</time>
      </trkpt>
      <trkpt lat="59.8967008" lon="17.6366429">
        <ele>18.4023</ele>
        <time>2013-05-16T16:17:25Z</time>
      </trkpt>
      <trkpt lat="59.8966474" lon="17.6366265">
        <ele>17.9218</ele>
        <time>2013-05-16T16:17:26Z</time>
      </trkpt>
      <trkpt lat="59.8965946" lon="17.6366091">
        <ele>17.4412</ele>
        <time>2013-05-16T16:17:27Z</time>
      </trkpt>
      <trkpt lat="59.8965394" lon="17.636593">
        <ele>17.4412</ele>
        <time>2013-05-16T16:17:28Z</time>
      </trkpt>
      <trkpt lat="59.8964829" lon="17.6365758">
        <ele>17.4412</ele>
        <time>2013-05-16T16:17:29Z</time>
      </trkpt>
      <trkpt lat="59.8964236" lon="17.6365532">
        <ele>17.4412</ele>
        <time>2013-05-16T16:17:30Z</time>
      </trkpt>
      <trkpt lat="59.8963632" lon="17.6365277">
        <ele>18.4023</ele>
        <time>2013-05-16T16:17:31Z</time>
      </trkpt>
      <trkpt lat="59.8963008" lon="17.6364972">
        <ele>18.8831</ele>
        <time>2013-05-16T16:17:32Z</time>
      </trkpt>
      <trkpt lat="59.8962358" lon="17.636476">
        <ele>18.8831</ele>
        <time>2013-05-16T16:17:33Z</time>
      </trkpt>
      <trkpt lat="59.8961695" lon="17.6364649">
        <ele>18.4023</ele>
        <time>2013-05-16T16:17:34Z</time>
      </trkpt>
      <trkpt lat="59.8961042" lon="17.6364354">
        <ele>18.4023</ele>
        <time>2013-05-16T16:17:35Z</time>
      </trkpt>
      <trkpt lat="59.8960382" lon="17.6364064">
        <ele>18.8831</ele>
        <time>2013-05-16T16:17:36Z</time>
      </trkpt>
      <trkpt lat="59.8959729" lon="17.6363823">
        <ele>19.8444</ele>
        <time>2013-05-16T16:17:37Z</time>
      </trkpt>
      <trkpt lat="59.8959088" lon="17.6363677">
        <ele>20.325</ele>
        <time>2013-05-16T16:17:38Z</time>
      </trkpt>
      <trkpt lat="59.8958447" lon="17.6363652">
        <ele>21.2864</ele>
        <time>2013-05-16T16:17:39Z</time>
      </trkpt>
      <trkpt lat="59.8957804" lon="17.6363681">
        <ele>21.767</ele>
        <time>2013-05-16T16:17:40Z</time>
      </trkpt>
      <trkpt lat="59.895716" lon="17.6363733">
        <ele>22.7283</ele>
        <time>2013-05-16T16:17:41Z</time>
      </trkpt>
      <trkpt lat="59.8956509" lon="17.6363825">
        <ele>23.6896</ele>
        <time>2013-05-16T16:17:42Z</time>
      </trkpt>
      <trkpt lat="59.8955858" lon="17.6363983">
        <ele>24.1703</ele>
        <time>2013-05-16T16:17:43Z</time>
      </trkpt>
      <trkpt lat="59.8955223" lon="17.6364229">
        <ele>25.1317</ele>
        <time>2013-05-16T16:17:44Z</time>
      </trkpt>
      <trkpt lat="59.8954584" lon="17.6364599">
        <ele>25.6123</ele>
        <time>2013-05-16T16:17:45Z</time>
      </trkpt>
      <trkpt lat="59.8953956" lon="17.6365014">
        <ele>26.5736</ele>
        <time>2013-05-16T16:17:46Z</time>
      </trkpt>
      <trkpt lat="59.8953318" lon="17.6365403">
        <ele>27.0543</ele>
        <time>2013-05-16T16:17:47Z</time>
      </trkpt>
      <trkpt lat="59.8952676" lon="17.6365789">
        <ele>27.5349</ele>
        <time>2013-05-16T16:17:48Z</time>
      </trkpt>
      <trkpt lat="59.8952044" lon="17.636621">
        <ele>27.5349</ele>
        <time>2013-05-16T16:17:49Z</time>
      </trkpt>
      <trkpt lat="59.8951389" lon="17.6366659">
        <ele>28.0155</ele>
        <time>2013-05-16T16:17:50Z</time>
      </trkpt>
      <trkpt lat="59.8950724" lon="17.636709">
        <ele>28.0155</ele>
        <time>2013-05-16T16:17:51Z</time>
      </trkpt>
      <trkpt lat="59.8950055" lon="17.6367519">
        <ele>28.0155</ele>
        <time>2013-05-16T16:17:52Z</time>
      </trkpt>
      <trkpt lat="59.8949371" lon="17.6367966">
        <ele>28.4962</ele>
        <time>2013-05-16T16:17:53Z</time>
      </trkpt>
      <trkpt lat="59.8948732" lon="17.6368355">
        <ele>28.4962</ele>
        <time>2013-05-16T16:17:54Z</time>
      </trkpt>
      <trkpt lat="59.8948088" lon="17.6368726">
        <ele>28.9769</ele>
        <time>2013-05-16T16:17:55Z</time>
      </trkpt>
      <trkpt lat="59.8947445" lon="17.636911">
        <ele>28.9769</ele>
        <time>2013-05-16T16:17:56Z</time>
      </trkpt>
      <trkpt lat="59.8946831" lon="17.6369515">
        <ele>28.9769</ele>
        <time>2013-05-16T16:17:57Z</time>
      </trkpt>
      <trkpt lat="59.894623" lon="17.6370001">
        <ele>28.9769</ele>
        <time>2013-05-16T16:17:58Z</time>
      </trkpt>
      <trkpt lat="59.8945543" lon="17.6370655">
        <ele>29.9381</ele>
        <time>2013-05-16T16:17:59Z</time>
      </trkpt>
      <trkpt lat="59.8944842" lon="17.6371379">
        <ele>31.3801</ele>
        <time>2013-05-16T16:18:00Z</time>
      </trkpt>
      <trkpt lat="59.8944186" lon="17.6371893">
        <ele>31.3801</ele>
        <time>2013-05-16T16:18:01Z</time>
      </trkpt>
      <trkpt lat="59.8943553" lon="17.6372536">
        <ele>31.8607</ele>
        <time>2013-05-16T16:18:02Z</time>
      </trkpt>
      <trkpt lat="59.8942922" lon="17.637296">
        <ele>31.8607</ele>
        <time>2013-05-16T16:18:03Z</time>
      </trkpt>
      <trkpt lat="59.8942219" lon="17.637336">
        <ele>32.3416</ele>
        <time>2013-05-16T16:18:04Z</time>
      </trkpt>
      <trkpt lat="59.8941594" lon="17.6373802">
        <ele>32.3416</ele>
        <time>2013-05-16T16:18:05Z</time>
      </trkpt>
      <trkpt lat="59.894097" lon="17.6374176">
        <ele>32.3416</ele>
        <time>2013-05-16T16:18:06Z</time>
      </trkpt>
      <trkpt lat="59.8940314" lon="17.6374695">
        <ele>32.8223</ele>
        <time>2013-05-16T16:18:07Z</time>
      </trkpt>
      <trkpt lat="59.8939675" lon="17.6375076">
        <ele>32.3416</ele>
        <time>2013-05-16T16:18:08Z</time>
      </trkpt>
      <trkpt lat="59.8939068" lon="17.6375523">
        <ele>32.3416</ele>
        <time>2013-05-16T16:18:09Z</time>
      </trkpt>
      <trkpt lat="59.8938426" lon="17.637598">
        <ele>32.3416</ele>
        <time>2013-05-16T16:18:10Z</time>
      </trkpt>
      <trkpt lat="59.8937764" lon="17.6376477">
        <ele>32.3416</ele>
        <time>2013-05-16T16:18:11Z</time>
      </trkpt>
      <trkpt lat="59.8937101" lon="17.6376988">
        <ele>32.3416</ele>
        <time>2013-05-16T16:18:12Z</time>
      </trkpt>
      <trkpt lat="59.8936466" lon="17.6377523">
        <ele>32.3416</ele>
        <time>2013-05-16T16:18:13Z</time>
      </trkpt>
      <trkpt lat="59.8935815" lon="17.6377908">
        <ele>31.8607</ele>
        <time>2013-05-16T16:18:14Z</time>
      </trkpt>
      <trkpt lat="59.8935161" lon="17.6378413">
        <ele>31.3801</ele>
        <time>2013-05-16T16:18:15Z</time>
      </trkpt>
      <trkpt lat="59.8934518" lon="17.6378879">
        <ele>31.3801</ele>
        <time>2013-05-16T16:18:16Z</time>
      </trkpt>
      <trkpt lat="59.8933891" lon="17.6379212">
        <ele>31.8607</ele>
        <time>2013-05-16T16:18:17Z</time>
      </trkpt>
      <trkpt lat="59.8933226" lon="17.6379578">
        <ele>31.3801</ele>
        <time>2013-05-16T16:18:18Z</time>
      </trkpt>
      <trkpt lat="59.8932608" lon="17.6379937">
        <ele>31.3801</ele>
        <time>2013-05-16T16:18:19Z</time>
      </trkpt>
      <trkpt lat="59.8932017" lon="17.6380237">
        <ele>31.3801</ele>
        <time>2013-05-16T16:18:20Z</time>
      </trkpt>
      <trkpt lat="59.8931446" lon="17.6380591">
        <ele>31.3801</ele>
        <time>2013-05-16T16:18:21Z</time>
      </trkpt>
      <trkpt lat="59.8930864" lon="17.6380881">
        <ele>30.8995</ele>
        <time>2013-05-16T16:18:22Z</time>
      </trkpt>
      <trkpt lat="59.8930241" lon="17.6381259">
        <ele>30.4188</ele>
        <time>2013-05-16T16:18:23Z</time>
      </trkpt>
      <trkpt lat="59.8929615" lon="17.6381631">
        <ele>29.4575</ele>
        <time>2013-05-16T16:18:24Z</time>
      </trkpt>
      <trkpt lat="59.8928973" lon="17.6381947">
        <ele>29.4575</ele>
        <time>2013-05-16T16:18:25Z</time>
      </trkpt>
      <trkpt lat="59.8928325" lon="17.6382207">
        <ele>28.9769</ele>
        <time>2013-05-16T16:18:26Z</time>
      </trkpt>
      <trkpt lat="59.8927619" lon="17.6382372">
        <ele>28.0155</ele>
        <time>2013-05-16T16:18:27Z</time>
      </trkpt>
      <trkpt lat="59.892686" lon="17.6382494">
        <ele>27.0543</ele>
        <time>2013-05-16T16:18:28Z</time>
      </trkpt>
      <trkpt lat="59.8926118" lon="17.6382423">
        <ele>26.0929</ele>
        <time>2013-05-16T16:18:29Z</time>
      </trkpt>
      <trkpt lat="59.8925363" lon="17.6382362">
        <ele>25.6123</ele>
        <time>2013-05-16T16:18:30Z</time>
      </trkpt>
      <trkpt lat="59.8924616" lon="17.6382316">
        <ele>24.651</ele>
        <time>2013-05-16T16:18:31Z</time>
      </trkpt>
      <trkpt lat="59.8923844" lon="17.6382282">
        <ele>24.1703</ele>
        <time>2013-05-16T16:18:32Z</time>
      </trkpt>
      <trkpt lat="59.8923041" lon="17.6382311">
        <ele>23.209</ele>
        <time>2013-05-16T16:18:33Z</time>
      </trkpt>
      <trkpt lat="59.8922217" lon="17.6382477">
        <ele>22.7283</ele>
        <time>2013-05-16T16:18:34Z</time>
      </trkpt>
      <trkpt lat="59.89214" lon="17.6382797">
        <ele>22.7283</ele>
        <time>2013-05-16T16:18:35Z</time>
      </trkpt>
      <trkpt lat="59.8920615" lon="17.6383346">
        <ele>23.209</ele>
        <time>2013-05-16T16:18:36Z</time>
      </trkpt>
      <trkpt lat="59.8919843" lon="17.6383936">
        <ele>22.7283</ele>
        <time>2013-05-16T16:18:37Z</time>
      </trkpt>
      <trkpt lat="59.8919027" lon="17.6384419">
        <ele>22.7283</ele>
        <time>2013-05-16T16:18:38Z</time>
      </trkpt>
      <trkpt lat="59.8918239" lon="17.6384631">
        <ele>21.767</ele>
        <time>2013-05-16T16:18:39Z</time>
      </trkpt>
      <trkpt lat="59.8917452" lon="17.6384786">
        <ele>21.2864</ele>
        <time>2013-05-16T16:18:40Z</time>
      </trkpt>
      <trkpt lat="59.8916644" lon="17.6384853">
        <ele>21.2864</ele>
        <time>2013-05-16T16:18:41Z</time>
      </trkpt>
      <trkpt lat="59.8915785" lon="17.6384909">
        <ele>21.2864</ele>
        <time>2013-05-16T16:18:42Z</time>
      </trkpt>
      <trkpt lat="59.8914898" lon="17.6384903">
        <ele>20.8057</ele>
        <time>2013-05-16T16:18:43Z</time>
      </trkpt>
      <trkpt lat="59.8914022" lon="17.6384872">
        <ele>20.325</ele>
        <time>2013-05-16T16:18:44Z</time>
      </trkpt>
      <trkpt lat="59.8913188" lon="17.6384822">
        <ele>20.8057</ele>
        <time>2013-05-16T16:18:45Z</time>
      </trkpt>
      <trkpt lat="59.8912373" lon="17.6384859">
        <ele>20.325</ele>
        <time>2013-05-16T16:18:46Z</time>
      </trkpt>
      <trkpt lat="59.8911514" lon="17.6384883">
        <ele>20.325</ele>
        <time>2013-05-16T16:18:47Z</time>
      </trkpt>
      <trkpt lat="59.8910639" lon="17.638481">
        <ele>20.325</ele>
        <time>2013-05-16T16:18:48Z</time>
      </trkpt>
      <trkpt lat="59.890978" lon="17.6384703">
        <ele>20.8057</ele>
        <time>2013-05-16T16:18:49Z</time>
      </trkpt>
      <trkpt lat="59.8908947" lon="17.638447">
        <ele>21.2864</ele>
        <time>2013-05-16T16:18:50Z</time>
      </trkpt>
      <trkpt lat="59.8908148" lon="17.6384268">
        <ele>21.767</ele>
        <time>2013-05-16T16:18:51Z</time>
      </trkpt>
      <trkpt lat="59.8907353" lon="17.6384064">
        <ele>22.7283</ele>
        <time>2013-05-16T16:18:52Z</time>
      </trkpt>
      <trkpt lat="59.8906563" lon="17.6383886">
        <ele>22.7283</ele>
        <time>2013-05-16T16:18:53Z</time>
      </trkpt>
      <trkpt lat="59.890575" lon="17.6383615">
        <ele>24.1703</ele>
        <time>2013-05-16T16:18:54Z</time>
      </trkpt>
      <trkpt lat="59.8904996" lon="17.6383266">
        <ele>24.651</ele>
        <time>2013-05-16T16:18:55Z</time>
      </trkpt>
      <trkpt lat="59.890419" lon="17.6382962">
        <ele>24.1703</ele>
        <time>2013-05-16T16:18:56Z</time>
      </trkpt>
      <trkpt lat="59.8903385" lon="17.6382629">
        <ele>23.6896</ele>
        <time>2013-05-16T16:18:57Z</time>
      </trkpt>
      <trkpt lat="59.8902593" lon="17.6382315">
        <ele>24.651</ele>
        <time>2013-05-16T16:18:58Z</time>
      </trkpt>
      <trkpt lat="59.8901812" lon="17.6381947">
        <ele>24.651</ele>
        <time>2013-05-16T16:18:59Z</time>
      </trkpt>
      <trkpt lat="59.8901029" lon="17.6381617">
        <ele>23.6896</ele>
        <time>2013-05-16T16:19:00Z</time>
      </trkpt>
      <trkpt lat="59.8900252" lon="17.6381289">
        <ele>22.2476</ele>
        <time>2013-05-16T16:19:01Z</time>
      </trkpt>
      <trkpt lat="59.8899472" lon="17.6380977">
        <ele>20.8057</ele>
        <time>2013-05-16T16:19:02Z</time>
      </trkpt>
      <trkpt lat="59.8898668" lon="17.6380596">
        <ele>20.325</ele>
        <time>2013-05-16T16:19:03Z</time>
      </trkpt>
      <trkpt lat="59.8897869" lon="17.6380217">
        <ele>19.8444</ele>
        <time>2013-05-16T16:19:04Z</time>
      </trkpt>
      <trkpt lat="59.8897071" lon="17.6379807">
        <ele>20.325</ele>
        <time>2013-05-16T16:19:05Z</time>
      </trkpt>
      <trkpt lat="59.8896249" lon="17.6379481">
        <ele>20.8057</ele>
        <time>2013-05-16T16:19:06Z</time>
      </trkpt>
      <trkpt lat="59.8895457" lon="17.6379205">
        <ele>19.8444</ele>
        <time>2013-05-16T16:19:07Z</time>
      </trkpt>
      <trkpt lat="59.8894729" lon="17.6378897">
        <ele>18.4023</ele>
        <time>2013-05-16T16:19:08Z</time>
      </trkpt>
      <trkpt lat="59.8894016" lon="17.6378601">
        <ele>17.4412</ele>
        <time>2013-05-16T16:19:09Z</time>
      </trkpt>
      <trkpt lat="59.8893324" lon="17.6378333">
        <ele>17.4412</ele>
        <time>2013-05-16T16:19:10Z</time>
      </trkpt>
      <trkpt lat="59.8892653" lon="17.6378078">
        <ele>17.4412</ele>
        <time>2013-05-16T16:19:11Z</time>
      </trkpt>
      <trkpt lat="59.8891941" lon="17.6377897">
        <ele>16.9604</ele>
        <time>2013-05-16T16:19:12Z</time>
      </trkpt>
      <trkpt lat="59.8891218" lon="17.6377761">
        <ele>16.9604</ele>
        <time>2013-05-16T16:19:13Z</time>
      </trkpt>
      <trkpt lat="59.8890521" lon="17.6377694">
        <ele>16.9604</ele>
        <time>2013-05-16T16:19:14Z</time>
      </trkpt>
      <trkpt lat="59.8889773" lon="17.6377763">
        <ele>17.9218</ele>
        <time>2013-05-16T16:19:15Z</time>
      </trkpt>
      <trkpt lat="59.8889054" lon="17.6377782">
        <ele>17.9218</ele>
        <time>2013-05-16T16:19:16Z</time>
      </trkpt>
      <trkpt lat="59.8888364" lon="17.6377824">
        <ele>17.9218</ele>
        <time>2013-05-16T16:19:17Z</time>
      </trkpt>
      <trkpt lat="59.8887657" lon="17.6377918">
        <ele>17.9218</ele>
        <time>2013-05-16T16:19:18Z</time>
      </trkpt>
      <trkpt lat="59.8886951" lon="17.637799">
        <ele>17.9218</ele>
        <time>2013-05-16T16:19:19Z</time>
      </trkpt>
      <trkpt lat="59.8886231" lon="17.6378088">
        <ele>18.4023</ele>
        <time>2013-05-16T16:19:20Z</time>
      </trkpt>
      <trkpt lat="59.8885495" lon="17.6378195">
        <ele>18.4023</ele>
        <time>2013-05-16T16:19:21Z</time>
      </trkpt>
      <trkpt lat="59.8884775" lon="17.637831">
        <ele>18.4023</ele>
        <time>2013-05-16T16:19:22Z</time>
      </trkpt>
      <trkpt lat="59.8884066" lon="17.6378413">
        <ele>17.9218</ele>
        <time>2013-05-16T16:19:23Z</time>
      </trkpt>
      <trkpt lat="59.8883351" lon="17.6378529">
        <ele>18.4023</ele>
        <time>2013-05-16T16:19:24Z</time>
      </trkpt>
      <trkpt lat="59.8882677" lon="17.6378602">
        <ele>18.4023</ele>
        <time>2013-05-16T16:19:25Z</time>
      </trkpt>
      <trkpt lat="59.8882012" lon="17.6378643">
        <ele>18.8831</ele>
        <time>2013-05-16T16:19:26Z</time>
      </trkpt>
      <trkpt lat="59.8881326" lon="17.637861">
        <ele>18.8831</ele>
        <time>2013-05-16T16:19:27Z</time>
      </trkpt>
      <trkpt lat="59.8880631" lon="17.6378527">
        <ele>19.3638</ele>
        <time>2013-05-16T16:19:28Z</time>
      </trkpt>
      <trkpt lat="59.8879881" lon="17.6378496">
        <ele>19.3638</ele>
        <time>2013-05-16T16:19:29Z</time>
      </trkpt>
      <trkpt lat="59.8879174" lon="17.6378405">
        <ele>19.3638</ele>
        <time>2013-05-16T16:19:30Z</time>
      </trkpt>
      <trkpt lat="59.887849" lon="17.6378283">
        <ele>19.8444</ele>
        <time>2013-05-16T16:19:31Z</time>
      </trkpt>
      <trkpt lat="59.8877768" lon="17.6378099">
        <ele>19.3638</ele>
        <time>2013-05-16T16:19:32Z</time>
      </trkpt>
      <trkpt lat="59.8877037" lon="17.6377908">
        <ele>18.8831</ele>
        <time>2013-05-16T16:19:33Z</time>
      </trkpt>
      <trkpt lat="59.887632" lon="17.6377663">
        <ele>18.4023</ele>
        <time>2013-05-16T16:19:34Z</time>
      </trkpt>
      <trkpt lat="59.8875607" lon="17.6377362">
        <ele>17.9218</ele>
        <time>2013-05-16T16:19:35Z</time>
      </trkpt>
      <trkpt lat="59.8874902" lon="17.6377035">
        <ele>17.4412</ele>
        <time>2013-05-16T16:19:36Z</time>
      </trkpt>
      <trkpt lat="59.8874177" lon="17.6376684">
        <ele>17.9218</ele>
        <time>2013-05-16T16:19:37Z</time>
      </trkpt>
      <trkpt lat="59.8873441" lon="17.637633">
        <ele>17.4412</ele>
        <time>2013-05-16T16:19:38Z</time>
      </trkpt>
      <trkpt lat="59.8872699" lon="17.6376011">
        <ele>17.4412</ele>
        <time>2013-05-16T16:19:39Z</time>
      </trkpt>
      <trkpt lat="59.887195" lon="17.6375693">
        <ele>17.9218</ele>
        <time>2013-05-16T16:19:40Z</time>
      </trkpt>
      <trkpt lat="59.8871219" lon="17.6375327">
        <ele>17.4412</ele>
        <time>2013-05-16T16:19:41Z</time>
      </trkpt>
      <trkpt lat="59.8870478" lon="17.6374959">
        <ele>17.4412</ele>
        <time>2013-05-16T16:19:42Z</time>
      </trkpt>
      <trkpt lat="59.8869722" lon="17.6374601">
        <ele>17.4412</ele>
        <time>2013-05-16T16:19:43Z</time>
      </trkpt>
      <trkpt lat="59.8868964" lon="17.6374281">
        <ele>16.9604</ele>
        <time>2013-05-16T16:19:44Z</time>
      </trkpt>
      <trkpt lat="59.8868208" lon="17.6373974">
        <ele>16.9604</ele>
        <time>2013-05-16T16:19:45Z</time>
      </trkpt>
      <trkpt lat="59.8867432" lon="17.63737">
        <ele>16.9604</ele>
        <time>2013-05-16T16:19:46Z</time>
      </trkpt>
      <trkpt lat="59.8866676" lon="17.6373334">
        <ele>16.9604</ele>
        <time>2013-05-16T16:19:47Z</time>
      </trkpt>
      <trkpt lat="59.8865947" lon="17.6373018">
        <ele>16.4797</ele>
        <time>2013-05-16T16:19:48Z</time>
      </trkpt>
      <trkpt lat="59.8865193" lon="17.6372685">
        <ele>16.4797</ele>
        <time>2013-05-16T16:19:49Z</time>
      </trkpt>
      <trkpt lat="59.8864388" lon="17.6372425">
        <ele>16.4797</ele>
        <time>2013-05-16T16:19:50Z</time>
      </trkpt>
      <trkpt lat="59.8863577" lon="17.637215">
        <ele>16.4797</ele>
        <time>2013-05-16T16:19:51Z</time>
      </trkpt>
      <trkpt lat="59.8862776" lon="17.6371867">
        <ele>16.4797</ele>
        <time>2013-05-16T16:19:52Z</time>
      </trkpt>
      <trkpt lat="59.8861998" lon="17.6371454">
        <ele>16.4797</ele>
        <time>2013-05-16T16:19:53Z</time>
      </trkpt>
      <trkpt lat="59.8861251" lon="17.6370929">
        <ele>15.999</ele>
        <time>2013-05-16T16:19:54Z</time>
      </trkpt>
      <trkpt lat="59.8860491" lon="17.6370324">
        <ele>15.999</ele>
        <time>2013-05-16T16:19:55Z</time>
      </trkpt>
      <trkpt lat="59.8859766" lon="17.6369738">
        <ele>15.5184</ele>
        <time>2013-05-16T16:19:56Z</time>
      </trkpt>
      <trkpt lat="59.8859061" lon="17.6369152">
        <ele>15.0377</ele>
        <time>2013-05-16T16:19:57Z</time>
      </trkpt>
      <trkpt lat="59.885831" lon="17.6368588">
        <ele>14.557</ele>
        <time>2013-05-16T16:19:58Z</time>
      </trkpt>
      <trkpt lat="59.8857528" lon="17.6368016">
        <ele>14.557</ele>
        <time>2013-05-16T16:19:59Z</time>
      </trkpt>
      <trkpt lat="59.8856776" lon="17.6367319">
        <ele>14.0764</ele>
        <time>2013-05-16T16:20:00Z</time>
      </trkpt>
      <trkpt lat="59.8856022" lon="17.6366587">
        <ele>14.0764</ele>
        <time>2013-05-16T16:20:01Z</time>
      </trkpt>
      <trkpt lat="59.8855134" lon="17.6365759">
        <ele>14.557</ele>
        <time>2013-05-16T16:20:02Z</time>
      </trkpt>
      <trkpt lat="59.8854392" lon="17.6364884">
        <ele>14.557</ele>
        <time>2013-05-16T16:20:03Z</time>
      </trkpt>
      <trkpt lat="59.8853529" lon="17.6364282">
        <ele>14.557</ele>
        <time>2013-05-16T16:20:04Z</time>
      </trkpt>
      <trkpt lat="59.8852647" lon="17.6363711">
        <ele>14.557</ele>
        <time>2013-05-16T16:20:05Z</time>
      </trkpt>
      <trkpt lat="59.8851859" lon="17.6363095">
        <ele>14.557</ele>
        <time>2013-05-16T16:20:06Z</time>
      </trkpt>
      <trkpt lat="59.8851172" lon="17.636237">
        <ele>14.557</ele>
        <time>2013-05-16T16:20:07Z</time>
      </trkpt>
      <trkpt lat="59.8850489" lon="17.6361662">
        <ele>14.0764</ele>
        <time>2013-05-16T16:20:08Z</time>
      </trkpt>
      <trkpt lat="59.8849788" lon="17.6360962">
        <ele>14.0764</ele>
        <time>2013-05-16T16:20:09Z</time>
      </trkpt>
      <trkpt lat="59.8849075" lon="17.6360264">
        <ele>14.0764</ele>
        <time>2013-05-16T16:20:10Z</time>
      </trkpt>
      <trkpt lat="59.8848347" lon="17.6359589">
        <ele>14.0764</ele>
        <time>2013-05-16T16:20:11Z</time>
      </trkpt>
      <trkpt lat="59.8847645" lon="17.6358876">
        <ele>14.0764</ele>
        <time>2013-05-16T16:20:12Z</time>
      </trkpt>
      <trkpt lat="59.8846941" lon="17.6358161">
        <ele>13.5958</ele>
        <time>2013-05-16T16:20:13Z</time>
      </trkpt>
      <trkpt lat="59.8846215" lon="17.6357466">
        <ele>13.5958</ele>
        <time>2013-05-16T16:20:14Z</time>
      </trkpt>
      <trkpt lat="59.8845475" lon="17.6356812">
        <ele>13.5958</ele>
        <time>2013-05-16T16:20:15Z</time>
      </trkpt>
      <trkpt lat="59.8844712" lon="17.63562">
        <ele>13.5958</ele>
        <time>2013-05-16T16:20:16Z</time>
      </trkpt>
      <trkpt lat="59.8843949" lon="17.6355631">
        <ele>13.5958</ele>
        <time>2013-05-16T16:20:17Z</time>
      </trkpt>
      <trkpt lat="59.8843178" lon="17.6355114">
        <ele>13.1151</ele>
        <time>2013-05-16T16:20:18Z</time>
      </trkpt>
      <trkpt lat="59.8842381" lon="17.6354639">
        <ele>13.5958</ele>
        <time>2013-05-16T16:20:19Z</time>
      </trkpt>
      <trkpt lat="59.8841572" lon="17.6354198">
        <ele>13.5958</ele>
        <time>2013-05-16T16:20:20Z</time>
      </trkpt>
      <trkpt lat="59.8840761" lon="17.6353828">
        <ele>13.5958</ele>
        <time>2013-05-16T16:20:21Z</time>
      </trkpt>
      <trkpt lat="59.8839973" lon="17.6353551">
        <ele>13.5958</ele>
        <time>2013-05-16T16:20:22Z</time>
      </trkpt>
      <trkpt lat="59.8839175" lon="17.6353405">
        <ele>13.5958</ele>
        <time>2013-05-16T16:20:23Z</time>
      </trkpt>
      <trkpt lat="59.8838373" lon="17.6353338">
        <ele>14.0764</ele>
        <time>2013-05-16T16:20:24Z</time>
      </trkpt>
      <trkpt lat="59.8837589" lon="17.6353333">
        <ele>14.0764</ele>
        <time>2013-05-16T16:20:25Z</time>
      </trkpt>
      <trkpt lat="59.8836818" lon="17.6353406">
        <ele>14.557</ele>
        <time>2013-05-16T16:20:26Z</time>
      </trkpt>
      <trkpt lat="59.8836122" lon="17.6353591">
        <ele>14.557</ele>
        <time>2013-05-16T16:20:27Z</time>
      </trkpt>
      <trkpt lat="59.8835531" lon="17.6353964">
        <ele>14.557</ele>
        <time>2013-05-16T16:20:28Z</time>
      </trkpt>
      <trkpt lat="59.8835072" lon="17.6354463">
        <ele>14.557</ele>
        <time>2013-05-16T16:20:29Z</time>
      </trkpt>
      <trkpt lat="59.88346" lon="17.6354897">
        <ele>14.0764</ele>
        <time>2013-05-16T16:20:30Z</time>
      </trkpt>
      <trkpt lat="59.8834078" lon="17.6355024">
        <ele>13.5958</ele>
        <time>2013-05-16T16:20:31Z</time>
      </trkpt>
      <trkpt lat="59.8833519" lon="17.6354994">
        <ele>13.5958</ele>
        <time>2013-05-16T16:20:32Z</time>
      </trkpt>
      <trkpt lat="59.8832928" lon="17.6354843">
        <ele>13.1151</ele>
        <time>2013-05-16T16:20:33Z</time>
      </trkpt>
      <trkpt lat="59.8832315" lon="17.6354834">
        <ele>13.5958</ele>
        <time>2013-05-16T16:20:34Z</time>
      </trkpt>
      <trkpt lat="59.883171" lon="17.6354865">
        <ele>13.5958</ele>
        <time>2013-05-16T16:20:35Z</time>
      </trkpt>
      <trkpt lat="59.8831093" lon="17.6354876">
        <ele>13.5958</ele>
        <time>2013-05-16T16:20:36Z</time>
      </trkpt>
      <trkpt lat="59.8830455" lon="17.6354866">
        <ele>13.1151</ele>
        <time>2013-05-16T16:20:37Z</time>
      </trkpt>
      <trkpt lat="59.8829798" lon="17.6354835">
        <ele>13.1151</ele>
        <time>2013-05-16T16:20:38Z</time>
      </trkpt>
      <trkpt lat="59.8829125" lon="17.6354835">
        <ele>13.1151</ele>
        <time>2013-05-16T16:20:39Z</time>
      </trkpt>
      <trkpt lat="59.8828431" lon="17.6354882">
        <ele>14.0764</ele>
        <time>2013-05-16T16:20:40Z</time>
      </trkpt>
      <trkpt lat="59.882774" lon="17.6354967">
        <ele>14.557</ele>
        <time>2013-05-16T16:20:41Z</time>
      </trkpt>
      <trkpt lat="59.8827074" lon="17.6355081">
        <ele>14.0764</ele>
        <time>2013-05-16T16:20:42Z</time>
      </trkpt>
      <trkpt lat="59.8826357" lon="17.63553">
        <ele>14.0764</ele>
        <time>2013-05-16T16:20:43Z</time>
      </trkpt>
      <trkpt lat="59.8825645" lon="17.6355477">
        <ele>14.0764</ele>
        <time>2013-05-16T16:20:44Z</time>
      </trkpt>
      <trkpt lat="59.8824946" lon="17.6355687">
        <ele>13.5958</ele>
        <time>2013-05-16T16:20:45Z</time>
      </trkpt>
      <trkpt lat="59.8824262" lon="17.6355905">
        <ele>13.1151</ele>
        <time>2013-05-16T16:20:46Z</time>
      </trkpt>
      <trkpt lat="59.8823567" lon="17.635616">
        <ele>12.6344</ele>
        <time>2013-05-16T16:20:47Z</time>
      </trkpt>
      <trkpt lat="59.8822863" lon="17.635641">
        <ele>12.6344</ele>
        <time>2013-05-16T16:20:48Z</time>
      </trkpt>
      <trkpt lat="59.8822136" lon="17.6356664">
        <ele>13.1151</ele>
        <time>2013-05-16T16:20:49Z</time>
      </trkpt>
      <trkpt lat="59.8821429" lon="17.6356903">
        <ele>12.6344</ele>
        <time>2013-05-16T16:20:50Z</time>
      </trkpt>
      <trkpt lat="59.8820734" lon="17.6357167">
        <ele>12.6344</ele>
        <time>2013-05-16T16:20:51Z</time>
      </trkpt>
      <trkpt lat="59.8820041" lon="17.6357388">
        <ele>12.1538</ele>
        <time>2013-05-16T16:20:52Z</time>
      </trkpt>
      <trkpt lat="59.8819382" lon="17.6357563">
        <ele>12.1538</ele>
        <time>2013-05-16T16:20:53Z</time>
      </trkpt>
      <trkpt lat="59.8818717" lon="17.6357739">
        <ele>11.6732</ele>
        <time>2013-05-16T16:20:54Z</time>
      </trkpt>
      <trkpt lat="59.8818045" lon="17.6357933">
        <ele>11.6732</ele>
        <time>2013-05-16T16:20:55Z</time>
      </trkpt>
      <trkpt lat="59.8817376" lon="17.6358145">
        <ele>11.6732</ele>
        <time>2013-05-16T16:20:56Z</time>
      </trkpt>
      <trkpt lat="59.8816699" lon="17.6358268">
        <ele>11.1925</ele>
        <time>2013-05-16T16:20:57Z</time>
      </trkpt>
      <trkpt lat="59.8816005" lon="17.6358222">
        <ele>10.7118</ele>
        <time>2013-05-16T16:20:58Z</time>
      </trkpt>
      <trkpt lat="59.8815319" lon="17.6357917">
        <ele>10.7118</ele>
        <time>2013-05-16T16:20:59Z</time>
      </trkpt>
      <trkpt lat="59.8814668" lon="17.6357346">
        <ele>10.2312</ele>
        <time>2013-05-16T16:21:00Z</time>
      </trkpt>
      <trkpt lat="59.8814045" lon="17.6356672">
        <ele>10.2312</ele>
        <time>2013-05-16T16:21:01Z</time>
      </trkpt>
      <trkpt lat="59.8813424" lon="17.635615">
        <ele>9.75061</ele>
        <time>2013-05-16T16:21:02Z</time>
      </trkpt>
      <trkpt lat="59.8812757" lon="17.6355859">
        <ele>9.75061</ele>
        <time>2013-05-16T16:21:03Z</time>
      </trkpt>
      <trkpt lat="59.8812034" lon="17.6355744">
        <ele>9.75061</ele>
        <time>2013-05-16T16:21:04Z</time>
      </trkpt>
      <trkpt lat="59.8811322" lon="17.6355802">
        <ele>9.2699</ele>
        <time>2013-05-16T16:21:05Z</time>
      </trkpt>
      <trkpt lat="59.8810612" lon="17.6355892">
        <ele>9.2699</ele>
        <time>2013-05-16T16:21:06Z</time>
      </trkpt>
      <trkpt lat="59.8809901" lon="17.6355952">
        <ele>9.2699</ele>
        <time>2013-05-16T16:21:07Z</time>
      </trkpt>
      <trkpt lat="59.8809194" lon="17.6356">
        <ele>9.2699</ele>
        <time>2013-05-16T16:21:08Z</time>
      </trkpt>
      <trkpt lat="59.8808483" lon="17.6356063">
        <ele>9.2699</ele>
        <time>2013-05-16T16:21:09Z</time>
      </trkpt>
      <trkpt lat="59.8807761" lon="17.6356145">
        <ele>8.78918</ele>
        <time>2013-05-16T16:21:10Z</time>
      </trkpt>
      <trkpt lat="59.8807039" lon="17.6356227">
        <ele>8.78918</ele>
        <time>2013-05-16T16:21:11Z</time>
      </trkpt>
      <trkpt lat="59.880631" lon="17.6356319">
        <ele>8.78918</ele>
        <time>2013-05-16T16:21:12Z</time>
      </trkpt>
      <trkpt lat="59.880557" lon="17.6356374">
        <ele>8.78918</ele>
        <time>2013-05-16T16:21:13Z</time>
      </trkpt>
      <trkpt lat="59.8804826" lon="17.6356414">
        <ele>8.78918</ele>
        <time>2013-05-16T16:21:14Z</time>
      </trkpt>
      <trkpt lat="59.8804089" lon="17.6356451">
        <ele>8.78918</ele>
        <time>2013-05-16T16:21:15Z</time>
      </trkpt>
      <trkpt lat="59.880336" lon="17.6356503">
        <ele>8.78918</ele>
        <time>2013-05-16T16:21:16Z</time>
      </trkpt>
      <trkpt lat="59.8802635" lon="17.635657">
        <ele>8.30859</ele>
        <time>2013-05-16T16:21:17Z</time>
      </trkpt>
      <trkpt lat="59.8801908" lon="17.6356627">
        <ele>8.30859</ele>
        <time>2013-05-16T16:21:18Z</time>
      </trkpt>
      <trkpt lat="59.8801179" lon="17.6356669">
        <ele>8.30859</ele>
        <time>2013-05-16T16:21:19Z</time>
      </trkpt>
      <trkpt lat="59.8800463" lon="17.6356701">
        <ele>8.30859</ele>
        <time>2013-05-16T16:21:20Z</time>
      </trkpt>
      <trkpt lat="59.8799749" lon="17.635672">
        <ele>8.30859</ele>
        <time>2013-05-16T16:21:21Z</time>
      </trkpt>
      <trkpt lat="59.8799035" lon="17.6356736">
        <ele>7.82788</ele>
        <time>2013-05-16T16:21:22Z</time>
      </trkpt>
      <trkpt lat="59.8798312" lon="17.6356798">
        <ele>7.82788</ele>
        <time>2013-05-16T16:21:23Z</time>
      </trkpt>
      <trkpt lat="59.8797578" lon="17.6356865">
        <ele>7.82788</ele>
        <time>2013-05-16T16:21:24Z</time>
      </trkpt>
      <trkpt lat="59.8796846" lon="17.6356906">
        <ele>7.82788</ele>
        <time>2013-05-16T16:21:25Z</time>
      </trkpt>
      <trkpt lat="59.8796122" lon="17.6356959">
        <ele>7.82788</ele>
        <time>2013-05-16T16:21:26Z</time>
      </trkpt>
      <trkpt lat="59.8795387" lon="17.6357042">
        <ele>7.82788</ele>
        <time>2013-05-16T16:21:27Z</time>
      </trkpt>
      <trkpt lat="59.8794647" lon="17.6357113">
        <ele>7.82788</ele>
        <time>2013-05-16T16:21:28Z</time>
      </trkpt>
      <trkpt lat="59.8793905" lon="17.6357151">
        <ele>7.82788</ele>
        <time>2013-05-16T16:21:29Z</time>
      </trkpt>
      <trkpt lat="59.8793156" lon="17.6357191">
        <ele>7.82788</ele>
        <time>2013-05-16T16:21:30Z</time>
      </trkpt>
      <trkpt lat="59.8792393" lon="17.6357236">
        <ele>7.82788</ele>
        <time>2013-05-16T16:21:31Z</time>
      </trkpt>
      <trkpt lat="59.8791625" lon="17.635729">
        <ele>7.34717</ele>
        <time>2013-05-16T16:21:32Z</time>
      </trkpt>
      <trkpt lat="59.8790864" lon="17.6357371">
        <ele>7.34717</ele>
        <time>2013-05-16T16:21:33Z</time>
      </trkpt>
      <trkpt lat="59.8790098" lon="17.6357412">
        <ele>7.34717</ele>
        <time>2013-05-16T16:21:34Z</time>
      </trkpt>
      <trkpt lat="59.8789348" lon="17.6357451">
        <ele>6.86646</ele>
        <time>2013-05-16T16:21:35Z</time>
      </trkpt>
      <trkpt lat="59.8788598" lon="17.6357518">
        <ele>6.86646</ele>
        <time>2013-05-16T16:21:36Z</time>
      </trkpt>
      <trkpt lat="59.8787851" lon="17.6357604">
        <ele>6.38586</ele>
        <time>2013-05-16T16:21:37Z</time>
      </trkpt>
      <trkpt lat="59.8787106" lon="17.6357638">
        <ele>6.38586</ele>
        <time>2013-05-16T16:21:38Z</time>
      </trkpt>
      <trkpt lat="59.8786364" lon="17.6357676">
        <ele>5.90527</ele>
        <time>2013-05-16T16:21:39Z</time>
      </trkpt>
      <trkpt lat="59.8785613" lon="17.6357704">
        <ele>4.94385</ele>
        <time>2013-05-16T16:21:40Z</time>
      </trkpt>
      <trkpt lat="59.8784829" lon="17.635772">
        <ele>4.94385</ele>
        <time>2013-05-16T16:21:41Z</time>
      </trkpt>
      <trkpt lat="59.878402" lon="17.6357746">
        <ele>4.46326</ele>
        <time>2013-05-16T16:21:42Z</time>
      </trkpt>
      <trkpt lat="59.8783194" lon="17.6357734">
        <ele>4.46326</ele>
        <time>2013-05-16T16:21:43Z</time>
      </trkpt>
      <trkpt lat="59.8782365" lon="17.635771">
        <ele>3.98267</ele>
        <time>2013-05-16T16:21:44Z</time>
      </trkpt>
      <trkpt lat="59.8781572" lon="17.635771">
        <ele>3.98267</ele>
        <time>2013-05-16T16:21:45Z</time>
      </trkpt>
      <trkpt lat="59.8780773" lon="17.6357726">
        <ele>3.50195</ele>
        <time>2013-05-16T16:21:46Z</time>
      </trkpt>
      <trkpt lat="59.8779972" lon="17.6357713">
        <ele>3.50195</ele>
        <time>2013-05-16T16:21:47Z</time>
      </trkpt>
      <trkpt lat="59.8779191" lon="17.6357658">
        <ele>3.50195</ele>
        <time>2013-05-16T16:21:48Z</time>
      </trkpt>
      <trkpt lat="59.8778379" lon="17.6357747">
        <ele>3.50195</ele>
        <time>2013-05-16T16:21:49Z</time>
      </trkpt>
      <trkpt lat="59.8777557" lon="17.6357832">
        <ele>3.98267</ele>
        <time>2013-05-16T16:21:50Z</time>
      </trkpt>
      <trkpt lat="59.8776737" lon="17.6357927">
        <ele>3.98267</ele>
        <time>2013-05-16T16:21:51Z</time>
      </trkpt>
      <trkpt lat="59.8775958" lon="17.6358065">
        <ele>4.46326</ele>
        <time>2013-05-16T16:21:52Z</time>
      </trkpt>
      <trkpt lat="59.8775157" lon="17.6358057">
        <ele>4.94385</ele>
        <time>2013-05-16T16:21:53Z</time>
      </trkpt>
      <trkpt lat="59.8774402" lon="17.6358119">
        <ele>4.94385</ele>
        <time>2013-05-16T16:21:54Z</time>
      </trkpt>
      <trkpt lat="59.8773658" lon="17.6358216">
        <ele>5.42456</ele>
        <time>2013-05-16T16:21:55Z</time>
      </trkpt>
      <trkpt lat="59.8772948" lon="17.635831">
        <ele>5.42456</ele>
        <time>2013-05-16T16:21:56Z</time>
      </trkpt>
      <trkpt lat="59.8772243" lon="17.6358373">
        <ele>5.90527</ele>
        <time>2013-05-16T16:21:57Z</time>
      </trkpt>
      <trkpt lat="59.8771528" lon="17.6358414">
        <ele>6.38586</ele>
        <time>2013-05-16T16:21:58Z</time>
      </trkpt>
      <trkpt lat="59.877082" lon="17.6358465">
        <ele>6.38586</ele>
        <time>2013-05-16T16:21:59Z</time>
      </trkpt>
      <trkpt lat="59.877014" lon="17.6358506">
        <ele>6.38586</ele>
        <time>2013-05-16T16:22:00Z</time>
      </trkpt>
      <trkpt lat="59.8769461" lon="17.635858">
        <ele>6.38586</ele>
        <time>2013-05-16T16:22:01Z</time>
      </trkpt>
      <trkpt lat="59.8768791" lon="17.6358642">
        <ele>6.38586</ele>
        <time>2013-05-16T16:22:02Z</time>
      </trkpt>
      <trkpt lat="59.8768135" lon="17.6358681">
        <ele>6.38586</ele>
        <time>2013-05-16T16:22:03Z</time>
      </trkpt>
      <trkpt lat="59.8767441" lon="17.635879">
        <ele>6.86646</ele>
        <time>2013-05-16T16:22:04Z</time>
      </trkpt>
      <trkpt lat="59.8766757" lon="17.6358886">
        <ele>6.86646</ele>
        <time>2013-05-16T16:22:05Z</time>
      </trkpt>
      <trkpt lat="59.8766097" lon="17.6358973">
        <ele>6.86646</ele>
        <time>2013-05-16T16:22:06Z</time>
      </trkpt>
      <trkpt lat="59.8765429" lon="17.6359076">
        <ele>6.38586</ele>
        <time>2013-05-16T16:22:07Z</time>
      </trkpt>
      <trkpt lat="59.8764784" lon="17.6359187">
        <ele>6.38586</ele>
        <time>2013-05-16T16:22:08Z</time>
      </trkpt>
      <trkpt lat="59.8764153" lon="17.6359278">
        <ele>6.38586</ele>
        <time>2013-05-16T16:22:09Z</time>
      </trkpt>
      <trkpt lat="59.8763499" lon="17.6359279">
        <ele>6.38586</ele>
        <time>2013-05-16T16:22:10Z</time>
      </trkpt>
      <trkpt lat="59.8762842" lon="17.6359351">
        <ele>6.38586</ele>
        <time>2013-05-16T16:22:11Z</time>
      </trkpt>
      <trkpt lat="59.8762179" lon="17.6359453">
        <ele>5.90527</ele>
        <time>2013-05-16T16:22:12Z</time>
      </trkpt>
      <trkpt lat="59.8761519" lon="17.6359572">
        <ele>5.90527</ele>
        <time>2013-05-16T16:22:13Z</time>
      </trkpt>
      <trkpt lat="59.876085" lon="17.6359658">
        <ele>5.42456</ele>
        <time>2013-05-16T16:22:14Z</time>
      </trkpt>
      <trkpt lat="59.8760199" lon="17.6359798">
        <ele>5.42456</ele>
        <time>2013-05-16T16:22:15Z</time>
      </trkpt>
      <trkpt lat="59.8759539" lon="17.6359909">
        <ele>5.42456</ele>
        <time>2013-05-16T16:22:16Z</time>
      </trkpt>
      <trkpt lat="59.8758866" lon="17.636001">
        <ele>5.42456</ele>
        <time>2013-05-16T16:22:17Z</time>
      </trkpt>
      <trkpt lat="59.8758195" lon="17.6360149">
        <ele>5.42456</ele>
        <time>2013-05-16T16:22:18Z</time>
      </trkpt>
      <trkpt lat="59.8757499" lon="17.6360382">
        <ele>5.42456</ele>
        <time>2013-05-16T16:22:19Z</time>
      </trkpt>
      <trkpt lat="59.8756811" lon="17.6360621">
        <ele>5.90527</ele>
        <time>2013-05-16T16:22:20Z</time>
      </trkpt>
      <trkpt lat="59.8756129" lon="17.6360867">
        <ele>6.38586</ele>
        <time>2013-05-16T16:22:21Z</time>
      </trkpt>
      <trkpt lat="59.8755478" lon="17.6361134">
        <ele>6.38586</ele>
        <time>2013-05-16T16:22:22Z</time>
      </trkpt>
      <trkpt lat="59.8754822" lon="17.6361434">
        <ele>6.38586</ele>
        <time>2013-05-16T16:22:23Z</time>
      </trkpt>
      <trkpt lat="59.875417" lon="17.636177">
        <ele>6.38586</ele>
        <time>2013-05-16T16:22:24Z</time>
      </trkpt>
      <trkpt lat="59.8753515" lon="17.6362071">
        <ele>6.38586</ele>
        <time>2013-05-16T16:22:25Z</time>
      </trkpt>
      <trkpt lat="59.8752853" lon="17.6362402">
        <ele>6.38586</ele>
        <time>2013-05-16T16:22:26Z</time>
      </trkpt>
      <trkpt lat="59.875218" lon="17.6362833">
        <ele>6.86646</ele>
        <time>2013-05-16T16:22:27Z</time>
      </trkpt>
      <trkpt lat="59.8751516" lon="17.6363258">
        <ele>6.86646</ele>
        <time>2013-05-16T16:22:28Z</time>
      </trkpt>
      <trkpt lat="59.8750859" lon="17.6363694">
        <ele>7.34717</ele>
        <time>2013-05-16T16:22:29Z</time>
      </trkpt>
      <trkpt lat="59.8750212" lon="17.6364205">
        <ele>7.34717</ele>
        <time>2013-05-16T16:22:30Z</time>
      </trkpt>
      <trkpt lat="59.8749554" lon="17.6364681">
        <ele>7.82788</ele>
        <time>2013-05-16T16:22:31Z</time>
      </trkpt>
      <trkpt lat="59.8748907" lon="17.6365193">
        <ele>7.82788</ele>
        <time>2013-05-16T16:22:32Z</time>
      </trkpt>
      <trkpt lat="59.8748258" lon="17.6365703">
        <ele>8.30859</ele>
        <time>2013-05-16T16:22:33Z</time>
      </trkpt>
      <trkpt lat="59.8747623" lon="17.6366239">
        <ele>8.30859</ele>
        <time>2013-05-16T16:22:34Z</time>
      </trkpt>
      <trkpt lat="59.8747022" lon="17.6366738">
        <ele>8.30859</ele>
        <time>2013-05-16T16:22:35Z</time>
      </trkpt>
      <trkpt lat="59.8746435" lon="17.6367231">
        <ele>7.82788</ele>
        <time>2013-05-16T16:22:36Z</time>
      </trkpt>
      <trkpt lat="59.8745866" lon="17.6367741">
        <ele>7.82788</ele>
        <time>2013-05-16T16:22:37Z</time>
      </trkpt>
      <trkpt lat="59.8745308" lon="17.6368265">
        <ele>7.34717</ele>
        <time>2013-05-16T16:22:38Z</time>
      </trkpt>
      <trkpt lat="59.8744774" lon="17.6368837">
        <ele>7.34717</ele>
        <time>2013-05-16T16:22:39Z</time>
      </trkpt>
      <trkpt lat="59.8744286" lon="17.6369489">
        <ele>6.86646</ele>
        <time>2013-05-16T16:22:40Z</time>
      </trkpt>
      <trkpt lat="59.8743835" lon="17.6370169">
        <ele>6.86646</ele>
        <time>2013-05-16T16:22:41Z</time>
      </trkpt>
      <trkpt lat="59.8743412" lon="17.6370976">
        <ele>6.38586</ele>
        <time>2013-05-16T16:22:42Z</time>
      </trkpt>
      <trkpt lat="59.8742966" lon="17.6371873">
        <ele>6.38586</ele>
        <time>2013-05-16T16:22:43Z</time>
      </trkpt>
      <trkpt lat="59.8742525" lon="17.6372805">
        <ele>6.38586</ele>
        <time>2013-05-16T16:22:44Z</time>
      </trkpt>
      <trkpt lat="59.8742077" lon="17.6373664">
        <ele>6.86646</ele>
        <time>2013-05-16T16:22:45Z</time>
      </trkpt>
      <trkpt lat="59.8741592" lon="17.6374374">
        <ele>7.34717</ele>
        <time>2013-05-16T16:22:46Z</time>
      </trkpt>
      <trkpt lat="59.8741089" lon="17.6375022">
        <ele>7.34717</ele>
        <time>2013-05-16T16:22:47Z</time>
      </trkpt>
      <trkpt lat="59.8740604" lon="17.6375758">
        <ele>7.34717</ele>
        <time>2013-05-16T16:22:48Z</time>
      </trkpt>
      <trkpt lat="59.8740086" lon="17.6376418">
        <ele>7.82788</ele>
        <time>2013-05-16T16:22:49Z</time>
      </trkpt>
      <trkpt lat="59.873952" lon="17.6376921">
        <ele>8.30859</ele>
        <time>2013-05-16T16:22:50Z</time>
      </trkpt>
      <trkpt lat="59.8738928" lon="17.6377521">
        <ele>8.78918</ele>
        <time>2013-05-16T16:22:51Z</time>
      </trkpt>
      <trkpt lat="59.8738298" lon="17.6378146">
        <ele>9.75061</ele>
        <time>2013-05-16T16:22:52Z</time>
      </trkpt>
      <trkpt lat="59.8737624" lon="17.6379051">
        <ele>9.75061</ele>
        <time>2013-05-16T16:22:53Z</time>
      </trkpt>
      <trkpt lat="59.873693" lon="17.6380103">
        <ele>9.75061</ele>
        <time>2013-05-16T16:22:54Z</time>
      </trkpt>
      <trkpt lat="59.8736209" lon="17.6381119">
        <ele>9.2699</ele>
        <time>2013-05-16T16:22:55Z</time>
      </trkpt>
      <trkpt lat="59.8735496" lon="17.6382071">
        <ele>8.78918</ele>
        <time>2013-05-16T16:22:56Z</time>
      </trkpt>
      <trkpt lat="59.8734807" lon="17.6382973">
        <ele>8.30859</ele>
        <time>2013-05-16T16:22:57Z</time>
      </trkpt>
      <trkpt lat="59.8734174" lon="17.6383848">
        <ele>7.82788</ele>
        <time>2013-05-16T16:22:58Z</time>
      </trkpt>
      <trkpt lat="59.8733604" lon="17.6384605">
        <ele>7.82788</ele>
        <time>2013-05-16T16:22:59Z</time>
      </trkpt>
      <trkpt lat="59.8733079" lon="17.6385274">
        <ele>7.82788</ele>
        <time>2013-05-16T16:23:00Z</time>
      </trkpt>
      <trkpt lat="59.8732671" lon="17.6385998">
        <ele>7.82788</ele>
        <time>2013-05-16T16:23:01Z</time>
      </trkpt>
      <trkpt lat="59.8732455" lon="17.638694">
        <ele>6.86646</ele>
        <time>2013-05-16T16:23:02Z</time>
      </trkpt>
      <trkpt lat="59.8732683" lon="17.6388708">
        <ele>5.90527</ele>
        <time>2013-05-16T16:23:03Z</time>
      </trkpt>
      <trkpt lat="59.8732702" lon="17.6389769">
        <ele>5.90527</ele>
        <time>2013-05-16T16:23:04Z</time>
      </trkpt>
      <trkpt lat="59.8732989" lon="17.6390545">
        <ele>5.90527</ele>
        <time>2013-05-16T16:23:05Z</time>
      </trkpt>
      <trkpt lat="59.8733362" lon="17.6391348">
        <ele>6.38586</ele>
        <time>2013-05-16T16:23:06Z</time>
      </trkpt>
      <trkpt lat="59.8733631" lon="17.6392184">
        <ele>6.86646</ele>
        <time>2013-05-16T16:23:07Z</time>
      </trkpt>
      <trkpt lat="59.8734038" lon="17.6393068">
        <ele>6.86646</ele>
        <time>2013-05-16T16:23:08Z</time>
      </trkpt>
      <trkpt lat="59.8734387" lon="17.6393898">
        <ele>6.86646</ele>
        <time>2013-05-16T16:23:09Z</time>
      </trkpt>
      <trkpt lat="59.8734773" lon="17.6394895">
        <ele>6.86646</ele>
        <time>2013-05-16T16:23:10Z</time>
      </trkpt>
      <trkpt lat="59.873519" lon="17.6395937">
        <ele>5.90527</ele>
        <time>2013-05-16T16:23:11Z</time>
      </trkpt>
      <trkpt lat="59.8735478" lon="17.6396933">
        <ele>5.42456</ele>
        <time>2013-05-16T16:23:12Z</time>
      </trkpt>
      <trkpt lat="59.8735771" lon="17.6397927">
        <ele>5.42456</ele>
        <time>2013-05-16T16:23:13Z</time>
      </trkpt>
      <trkpt lat="59.873593" lon="17.6398915">
        <ele>6.38586</ele>
        <time>2013-05-16T16:23:14Z</time>
      </trkpt>
      <trkpt lat="59.8736069" lon="17.6399889">
        <ele>6.86646</ele>
        <time>2013-05-16T16:23:15Z</time>
      </trkpt>
      <trkpt lat="59.8736122" lon="17.6400873">
        <ele>6.86646</ele>
        <time>2013-05-16T16:23:16Z</time>
      </trkpt>
      <trkpt lat="59.8736047" lon="17.6401824">
        <ele>6.86646</ele>
        <time>2013-05-16T16:23:17Z</time>
      </trkpt>
      <trkpt lat="59.8735871" lon="17.6402637">
        <ele>7.34717</ele>
        <time>2013-05-16T16:23:18Z</time>
      </trkpt>
      <trkpt lat="59.873564" lon="17.6403362">
        <ele>6.86646</ele>
        <time>2013-05-16T16:23:19Z</time>
      </trkpt>
      <trkpt lat="59.8735361" lon="17.6404061">
        <ele>7.34717</ele>
        <time>2013-05-16T16:23:20Z</time>
      </trkpt>
      <trkpt lat="59.8735082" lon="17.640479">
        <ele>7.34717</ele>
        <time>2013-05-16T16:23:21Z</time>
      </trkpt>
      <trkpt lat="59.8734791" lon="17.6405422">
        <ele>7.82788</ele>
        <time>2013-05-16T16:23:22Z</time>
      </trkpt>
      <trkpt lat="59.8734517" lon="17.6405994">
        <ele>7.82788</ele>
        <time>2013-05-16T16:23:23Z</time>
      </trkpt>
      <trkpt lat="59.8734252" lon="17.6406397">
        <ele>8.30859</ele>
        <time>2013-05-16T16:23:24Z</time>
      </trkpt>
      <trkpt lat="59.8733944" lon="17.6406523">
        <ele>8.30859</ele>
        <time>2013-05-16T16:23:25Z</time>
      </trkpt>
      <trkpt lat="59.8733625" lon="17.6406375">
        <ele>8.30859</ele>
        <time>2013-05-16T16:23:26Z</time>
      </trkpt>
      <trkpt lat="59.8733288" lon="17.6406071">
        <ele>7.82788</ele>
        <time>2013-05-16T16:23:27Z</time>
      </trkpt>
      <trkpt lat="59.8732936" lon="17.6405696">
        <ele>7.34717</ele>
        <time>2013-05-16T16:23:28Z</time>
      </trkpt>
      <trkpt lat="59.8732511" lon="17.6405334">
        <ele>7.34717</ele>
        <time>2013-05-16T16:23:29Z</time>
      </trkpt>
      <trkpt lat="59.8732035" lon="17.6405175">
        <ele>7.34717</ele>
        <time>2013-05-16T16:23:30Z</time>
      </trkpt>
      <trkpt lat="59.8731525" lon="17.6405088">
        <ele>6.86646</ele>
        <time>2013-05-16T16:23:31Z</time>
      </trkpt>
      <trkpt lat="59.8730983" lon="17.6404988">
        <ele>6.86646</ele>
        <time>2013-05-16T16:23:32Z</time>
      </trkpt>
      <trkpt lat="59.873046" lon="17.6404833">
        <ele>6.86646</ele>
        <time>2013-05-16T16:23:33Z</time>
      </trkpt>
      <trkpt lat="59.8729844" lon="17.6404795">
        <ele>7.34717</ele>
        <time>2013-05-16T16:23:34Z</time>
      </trkpt>
      <trkpt lat="59.8729248" lon="17.6404777">
        <ele>7.82788</ele>
        <time>2013-05-16T16:23:35Z</time>
      </trkpt>
      <trkpt lat="59.8728647" lon="17.640479">
        <ele>8.30859</ele>
        <time>2013-05-16T16:23:36Z</time>
      </trkpt>
      <trkpt lat="59.8728001" lon="17.6404874">
        <ele>8.78918</ele>
        <time>2013-05-16T16:23:37Z</time>
      </trkpt>
      <trkpt lat="59.8727301" lon="17.6405017">
        <ele>9.2699</ele>
        <time>2013-05-16T16:23:38Z</time>
      </trkpt>
      <trkpt lat="59.8726775" lon="17.6404941">
        <ele>10.2312</ele>
        <time>2013-05-16T16:23:39Z</time>
      </trkpt>
      <trkpt lat="59.8726135" lon="17.6405026">
        <ele>10.7118</ele>
        <time>2013-05-16T16:23:40Z</time>
      </trkpt>
      <trkpt lat="59.8725456" lon="17.6405133">
        <ele>10.7118</ele>
        <time>2013-05-16T16:23:41Z</time>
      </trkpt>
      <trkpt lat="59.8724815" lon="17.6405202">
        <ele>10.2312</ele>
        <time>2013-05-16T16:23:42Z</time>
      </trkpt>
      <trkpt lat="59.8724172" lon="17.6405336">
        <ele>9.75061</ele>
        <time>2013-05-16T16:23:43Z</time>
      </trkpt>
      <trkpt lat="59.8723564" lon="17.6405398">
        <ele>9.75061</ele>
        <time>2013-05-16T16:23:44Z</time>
      </trkpt>
      <trkpt lat="59.8722844" lon="17.6405219">
        <ele>9.2699</ele>
        <time>2013-05-16T16:23:45Z</time>
      </trkpt>
      <trkpt lat="59.8722177" lon="17.6405479">
        <ele>9.75061</ele>
        <time>2013-05-16T16:23:46Z</time>
      </trkpt>
      <trkpt lat="59.8721375" lon="17.640582">
        <ele>9.75061</ele>
        <time>2013-05-16T16:23:47Z</time>
      </trkpt>
      <trkpt lat="59.8720546" lon="17.6406061">
        <ele>10.2312</ele>
        <time>2013-05-16T16:23:48Z</time>
      </trkpt>
      <trkpt lat="59.8719889" lon="17.6406066">
        <ele>9.75061</ele>
        <time>2013-05-16T16:23:49Z</time>
      </trkpt>
      <trkpt lat="59.8719192" lon="17.6406201">
        <ele>8.78918</ele>
        <time>2013-05-16T16:23:50Z</time>
      </trkpt>
      <trkpt lat="59.8718651" lon="17.6406403">
        <ele>9.2699</ele>
        <time>2013-05-16T16:23:51Z</time>
      </trkpt>
      <trkpt lat="59.8717663" lon="17.6406703">
        <ele>9.75061</ele>
        <time>2013-05-16T16:23:52Z</time>
      </trkpt>
      <trkpt lat="59.871691" lon="17.6406625">
        <ele>10.2312</ele>
        <time>2013-05-16T16:23:53Z</time>
      </trkpt>
      <trkpt lat="59.8716413" lon="17.6406531">
        <ele>9.75061</ele>
        <time>2013-05-16T16:23:54Z</time>
      </trkpt>
      <trkpt lat="59.8715391" lon="17.6406847">
        <ele>9.75061</ele>
        <time>2013-05-16T16:23:55Z</time>
      </trkpt>
      <trkpt lat="59.87151" lon="17.6406245">
        <ele>10.2312</ele>
        <time>2013-05-16T16:23:56Z</time>
      </trkpt>
      <trkpt lat="59.8714729" lon="17.6405883">
        <ele>10.2312</ele>
        <time>2013-05-16T16:23:57Z</time>
      </trkpt>
      <trkpt lat="59.8714358" lon="17.6405971">
        <ele>10.2312</ele>
        <time>2013-05-16T16:23:58Z</time>
      </trkpt>
      <trkpt lat="59.8713567" lon="17.6406266">
        <ele>10.7118</ele>
        <time>2013-05-16T16:23:59Z</time>
      </trkpt>
      <trkpt lat="59.871264" lon="17.6406036">
        <ele>11.6732</ele>
        <time>2013-05-16T16:24:00Z</time>
      </trkpt>
      <trkpt lat="59.8711991" lon="17.6406019">
        <ele>11.6732</ele>
        <time>2013-05-16T16:24:01Z</time>
      </trkpt>
      <trkpt lat="59.8711507" lon="17.6405981">
        <ele>11.6732</ele>
        <time>2013-05-16T16:24:02Z</time>
      </trkpt>
      <trkpt lat="59.8710824" lon="17.6406494">
        <ele>12.6344</ele>
        <time>2013-05-16T16:24:03Z</time>
      </trkpt>
      <trkpt lat="59.8710377" lon="17.6406403">
        <ele>13.1151</ele>
        <time>2013-05-16T16:24:04Z</time>
      </trkpt>
      <trkpt lat="59.870956" lon="17.6406458">
        <ele>13.1151</ele>
        <time>2013-05-16T16:24:05Z</time>
      </trkpt>
      <trkpt lat="59.870885" lon="17.6406506">
        <ele>15.5184</ele>
        <time>2013-05-16T16:24:06Z</time>
      </trkpt>
      <trkpt lat="59.8708236" lon="17.6406465">
        <ele>16.4797</ele>
        <time>2013-05-16T16:24:07Z</time>
      </trkpt>
      <trkpt lat="59.8707568" lon="17.6406837">
        <ele>16.9604</ele>
        <time>2013-05-16T16:24:08Z</time>
      </trkpt>
      <trkpt lat="59.8706891" lon="17.6406982">
        <ele>17.4412</ele>
        <time>2013-05-16T16:24:09Z</time>
      </trkpt>
      <trkpt lat="59.870625" lon="17.6406817">
        <ele>17.4412</ele>
        <time>2013-05-16T16:24:10Z</time>
      </trkpt>
      <trkpt lat="59.8705666" lon="17.6406644">
        <ele>17.9218</ele>
        <time>2013-05-16T16:24:11Z</time>
      </trkpt>
      <trkpt lat="59.8705177" lon="17.6406459">
        <ele>17.9218</ele>
        <time>2013-05-16T16:24:12Z</time>
      </trkpt>
      <trkpt lat="59.8704657" lon="17.6406283">
        <ele>18.4023</ele>
        <time>2013-05-16T16:24:13Z</time>
      </trkpt>
      <trkpt lat="59.8703949" lon="17.6406313">
        <ele>18.8831</ele>
        <time>2013-05-16T16:24:14Z</time>
      </trkpt>
      <trkpt lat="59.870338" lon="17.6406206">
        <ele>19.3638</ele>
        <time>2013-05-16T16:24:15Z</time>
      </trkpt>
      <trkpt lat="59.8702258" lon="17.6406433">
        <ele>18.8831</ele>
        <time>2013-05-16T16:24:16Z</time>
      </trkpt>
      <trkpt lat="59.8701638" lon="17.6406952">
        <ele>18.4023</ele>
        <time>2013-05-16T16:24:17Z</time>
      </trkpt>
      <trkpt lat="59.8700903" lon="17.640673">
        <ele>17.4412</ele>
        <time>2013-05-16T16:24:18Z</time>
      </trkpt>
      <trkpt lat="59.8700196" lon="17.640661">
        <ele>16.4797</ele>
        <time>2013-05-16T16:24:19Z</time>
      </trkpt>
      <trkpt lat="59.8699524" lon="17.6406641">
        <ele>15.0377</ele>
        <time>2013-05-16T16:24:20Z</time>
      </trkpt>
      <trkpt lat="59.8698919" lon="17.6406611">
        <ele>14.0764</ele>
        <time>2013-05-16T16:24:21Z</time>
      </trkpt>
      <trkpt lat="59.8698322" lon="17.6406735">
        <ele>12.6344</ele>
        <time>2013-05-16T16:24:22Z</time>
      </trkpt>
      <trkpt lat="59.869781" lon="17.6406801">
        <ele>12.1538</ele>
        <time>2013-05-16T16:24:23Z</time>
      </trkpt>
      <trkpt lat="59.8697271" lon="17.6406921">
        <ele>11.6732</ele>
        <time>2013-05-16T16:24:24Z</time>
      </trkpt>
      <trkpt lat="59.8696632" lon="17.6407205">
        <ele>10.7118</ele>
        <time>2013-05-16T16:24:25Z</time>
      </trkpt>
      <trkpt lat="59.8695895" lon="17.6407085">
        <ele>10.2312</ele>
        <time>2013-05-16T16:24:26Z</time>
      </trkpt>
      <trkpt lat="59.8695265" lon="17.6406789">
        <ele>9.75061</ele>
        <time>2013-05-16T16:24:27Z</time>
      </trkpt>
      <trkpt lat="59.8694682" lon="17.6406263">
        <ele>8.78918</ele>
        <time>2013-05-16T16:24:28Z</time>
      </trkpt>
      <trkpt lat="59.8693992" lon="17.6406372">
        <ele>8.30859</ele>
        <time>2013-05-16T16:24:29Z</time>
      </trkpt>
      <trkpt lat="59.8693287" lon="17.6406541">
        <ele>8.30859</ele>
        <time>2013-05-16T16:24:30Z</time>
      </trkpt>
      <trkpt lat="59.8692563" lon="17.6406599">
        <ele>7.82788</ele>
        <time>2013-05-16T16:24:31Z</time>
      </trkpt>
      <trkpt lat="59.8691857" lon="17.6406568">
        <ele>7.34717</ele>
        <time>2013-05-16T16:24:32Z</time>
      </trkpt>
      <trkpt lat="59.8691128" lon="17.6406504">
        <ele>7.34717</ele>
        <time>2013-05-16T16:24:33Z</time>
      </trkpt>
      <trkpt lat="59.8690392" lon="17.6406237">
        <ele>7.34717</ele>
        <time>2013-05-16T16:24:34Z</time>
      </trkpt>
      <trkpt lat="59.8689658" lon="17.6406103">
        <ele>7.82788</ele>
        <time>2013-05-16T16:24:35Z</time>
      </trkpt>
      <trkpt lat="59.8688945" lon="17.6406085">
        <ele>8.30859</ele>
        <time>2013-05-16T16:24:36Z</time>
      </trkpt>
      <trkpt lat="59.8688144" lon="17.6405869">
        <ele>8.78918</ele>
        <time>2013-05-16T16:24:37Z</time>
      </trkpt>
      <trkpt lat="59.8687285" lon="17.6406107">
        <ele>9.2699</ele>
        <time>2013-05-16T16:24:38Z</time>
      </trkpt>
      <trkpt lat="59.8686513" lon="17.6405999">
        <ele>9.75061</ele>
        <time>2013-05-16T16:24:39Z</time>
      </trkpt>
      <trkpt lat="59.8685771" lon="17.6405966">
        <ele>9.75061</ele>
        <time>2013-05-16T16:24:40Z</time>
      </trkpt>
      <trkpt lat="59.8685041" lon="17.6406118">
        <ele>10.2312</ele>
        <time>2013-05-16T16:24:41Z</time>
      </trkpt>
      <trkpt lat="59.8684345" lon="17.6406464">
        <ele>10.2312</ele>
        <time>2013-05-16T16:24:42Z</time>
      </trkpt>
      <trkpt lat="59.8683192" lon="17.6407261">
        <ele>11.1925</ele>
        <time>2013-05-16T16:24:43Z</time>
      </trkpt>
      <trkpt lat="59.8682418" lon="17.6407771">
        <ele>11.6732</ele>
        <time>2013-05-16T16:24:44Z</time>
      </trkpt>
      <trkpt lat="59.8681731" lon="17.6407786">
        <ele>12.1538</ele>
        <time>2013-05-16T16:24:45Z</time>
      </trkpt>
      <trkpt lat="59.8681007" lon="17.6407687">
        <ele>12.6344</ele>
        <time>2013-05-16T16:24:46Z</time>
      </trkpt>
      <trkpt lat="59.8680304" lon="17.6407567">
        <ele>13.1151</ele>
        <time>2013-05-16T16:24:47Z</time>
      </trkpt>
      <trkpt lat="59.8679564" lon="17.640758">
        <ele>13.5958</ele>
        <time>2013-05-16T16:24:48Z</time>
      </trkpt>
      <trkpt lat="59.8678924" lon="17.6407598">
        <ele>13.5958</ele>
        <time>2013-05-16T16:24:49Z</time>
      </trkpt>
      <trkpt lat="59.8678189" lon="17.640774">
        <ele>14.557</ele>
        <time>2013-05-16T16:24:50Z</time>
      </trkpt>
      <trkpt lat="59.8677564" lon="17.6407651">
        <ele>15.0377</ele>
        <time>2013-05-16T16:24:51Z</time>
      </trkpt>
      <trkpt lat="59.8676909" lon="17.6407649">
        <ele>15.5184</ele>
        <time>2013-05-16T16:24:52Z</time>
      </trkpt>
      <trkpt lat="59.8676375" lon="17.6407516">
        <ele>14.557</ele>
        <time>2013-05-16T16:24:53Z</time>
      </trkpt>
      <trkpt lat="59.8675851" lon="17.6407516">
        <ele>13.5958</ele>
        <time>2013-05-16T16:24:54Z</time>
      </trkpt>
      <trkpt lat="59.8675391" lon="17.6407345">
        <ele>13.1151</ele>
        <time>2013-05-16T16:24:55Z</time>
      </trkpt>
      <trkpt lat="59.8674883" lon="17.6407304">
        <ele>13.5958</ele>
        <time>2013-05-16T16:24:56Z</time>
      </trkpt>
      <trkpt lat="59.8674397" lon="17.6407567">
        <ele>13.5958</ele>
        <time>2013-05-16T16:24:57Z</time>
      </trkpt>
      <trkpt lat="59.8674021" lon="17.6407718">
        <ele>13.1151</ele>
        <time>2013-05-16T16:24:58Z</time>
      </trkpt>
      <trkpt lat="59.8673617" lon="17.6408843">
        <ele>12.6344</ele>
        <time>2013-05-16T16:24:59Z</time>
      </trkpt>
      <trkpt lat="59.8673216" lon="17.6409453">
        <ele>12.1538</ele>
        <time>2013-05-16T16:25:00Z</time>
      </trkpt>
      <trkpt lat="59.8672957" lon="17.6409842">
        <ele>12.6344</ele>
        <time>2013-05-16T16:25:01Z</time>
      </trkpt>
      <trkpt lat="59.8672609" lon="17.641006">
        <ele>11.6732</ele>
        <time>2013-05-16T16:25:02Z</time>
      </trkpt>
      <trkpt lat="59.8672234" lon="17.6409878">
        <ele>10.7118</ele>
        <time>2013-05-16T16:25:03Z</time>
      </trkpt>
      <trkpt lat="59.8672016" lon="17.6409511">
        <ele>10.7118</ele>
        <time>2013-05-16T16:25:04Z</time>
      </trkpt>
      <trkpt lat="59.8671906" lon="17.6408604">
        <ele>10.7118</ele>
        <time>2013-05-16T16:25:05Z</time>
      </trkpt>
      <trkpt lat="59.8671899" lon="17.6407993">
        <ele>10.7118</ele>
        <time>2013-05-16T16:25:06Z</time>
      </trkpt>
      <trkpt lat="59.8671959" lon="17.640731">
        <ele>10.2312</ele>
        <time>2013-05-16T16:25:07Z</time>
      </trkpt>
      <trkpt lat="59.8672159" lon="17.6406926">
        <ele>9.2699</ele>
        <time>2013-05-16T16:25:08Z</time>
      </trkpt>
      <trkpt lat="59.8672433" lon="17.6406583">
        <ele>8.30859</ele>
        <time>2013-05-16T16:25:09Z</time>
      </trkpt>
      <trkpt lat="59.8672789" lon="17.6406411">
        <ele>7.82788</ele>
        <time>2013-05-16T16:25:10Z</time>
      </trkpt>
      <trkpt lat="59.8673241" lon="17.6406464">
        <ele>7.82788</ele>
        <time>2013-05-16T16:25:11Z</time>
      </trkpt>
      <trkpt lat="59.8673712" lon="17.6406615">
        <ele>8.30859</ele>
        <time>2013-05-16T16:25:12Z</time>
      </trkpt>
      <trkpt lat="59.8674193" lon="17.6406769">
        <ele>8.30859</ele>
        <time>2013-05-16T16:25:13Z</time>
      </trkpt>
      <trkpt lat="59.8674697" lon="17.6406807">
        <ele>8.78918</ele>
        <time>2013-05-16T16:25:14Z</time>
      </trkpt>
      <trkpt lat="59.8675194" lon="17.640689">
        <ele>9.2699</ele>
        <time>2013-05-16T16:25:15Z</time>
      </trkpt>
      <trkpt lat="59.8675741" lon="17.6406905">
        <ele>8.78918</ele>
        <time>2013-05-16T16:25:16Z</time>
      </trkpt>
      <trkpt lat="59.8676286" lon="17.6406921">
        <ele>8.78918</ele>
        <time>2013-05-16T16:25:17Z</time>
      </trkpt>
      <trkpt lat="59.8676878" lon="17.640688">
        <ele>8.30859</ele>
        <time>2013-05-16T16:25:18Z</time>
      </trkpt>
      <trkpt lat="59.8677483" lon="17.6406806">
        <ele>7.82788</ele>
        <time>2013-05-16T16:25:19Z</time>
      </trkpt>
      <trkpt lat="59.8678054" lon="17.6406785">
        <ele>7.34717</ele>
        <time>2013-05-16T16:25:20Z</time>
      </trkpt>
      <trkpt lat="59.8678591" lon="17.6406791">
        <ele>6.86646</ele>
        <time>2013-05-16T16:25:21Z</time>
      </trkpt>
      <trkpt lat="59.8679105" lon="17.6406742">
        <ele>7.34717</ele>
        <time>2013-05-16T16:25:22Z</time>
      </trkpt>
      <trkpt lat="59.8679658" lon="17.6406644">
        <ele>7.34717</ele>
        <time>2013-05-16T16:25:23Z</time>
      </trkpt>
      <trkpt lat="59.8680247" lon="17.6406325">
        <ele>6.86646</ele>
        <time>2013-05-16T16:25:24Z</time>
      </trkpt>
      <trkpt lat="59.868043" lon="17.6405242">
        <ele>6.86646</ele>
        <time>2013-05-16T16:25:25Z</time>
      </trkpt>
      <trkpt lat="59.8680458" lon="17.6404235">
        <ele>6.38586</ele>
        <time>2013-05-16T16:25:26Z</time>
      </trkpt>
      <trkpt lat="59.8680422" lon="17.6403118">
        <ele>6.38586</ele>
        <time>2013-05-16T16:25:27Z</time>
      </trkpt>
      <trkpt lat="59.8680343" lon="17.6401988">
        <ele>6.86646</ele>
        <time>2013-05-16T16:25:28Z</time>
      </trkpt>
      <trkpt lat="59.8680284" lon="17.640092">
        <ele>7.34717</ele>
        <time>2013-05-16T16:25:29Z</time>
      </trkpt>
      <trkpt lat="59.8680255" lon="17.6399872">
        <ele>7.82788</ele>
        <time>2013-05-16T16:25:30Z</time>
      </trkpt>
      <trkpt lat="59.8680209" lon="17.6398855">
        <ele>8.30859</ele>
        <time>2013-05-16T16:25:31Z</time>
      </trkpt>
      <trkpt lat="59.8680152" lon="17.6397895">
        <ele>8.78918</ele>
        <time>2013-05-16T16:25:32Z</time>
      </trkpt>
      <trkpt lat="59.8680037" lon="17.6396984">
        <ele>9.75061</ele>
        <time>2013-05-16T16:25:33Z</time>
      </trkpt>
      <trkpt lat="59.8679778" lon="17.6396056">
        <ele>10.2312</ele>
        <time>2013-05-16T16:25:34Z</time>
      </trkpt>
      <trkpt lat="59.8679533" lon="17.6395455">
        <ele>12.1538</ele>
        <time>2013-05-16T16:25:35Z</time>
      </trkpt>
      <trkpt lat="59.867915" lon="17.639508">
        <ele>13.5958</ele>
        <time>2013-05-16T16:25:36Z</time>
      </trkpt>
      <trkpt lat="59.8678711" lon="17.6394826">
        <ele>15.0377</ele>
        <time>2013-05-16T16:25:37Z</time>
      </trkpt>
      <trkpt lat="59.8678323" lon="17.6394873">
        <ele>15.5184</ele>
        <time>2013-05-16T16:25:38Z</time>
      </trkpt>
      <trkpt lat="59.8677927" lon="17.6395254">
        <ele>15.0377</ele>
        <time>2013-05-16T16:25:39Z</time>
      </trkpt>
      <trkpt lat="59.8677464" lon="17.6395571">
        <ele>15.0377</ele>
        <time>2013-05-16T16:25:40Z</time>
      </trkpt>
      <trkpt lat="59.8676979" lon="17.6395859">
        <ele>14.0764</ele>
        <time>2013-05-16T16:25:41Z</time>
      </trkpt>
      <trkpt lat="59.8676507" lon="17.6396175">
        <ele>14.0764</ele>
        <time>2013-05-16T16:25:42Z</time>
      </trkpt>
      <trkpt lat="59.8675966" lon="17.6396584">
        <ele>13.5958</ele>
        <time>2013-05-16T16:25:43Z</time>
      </trkpt>
      <trkpt lat="59.8675311" lon="17.6396872">
        <ele>13.5958</ele>
        <time>2013-05-16T16:25:44Z</time>
      </trkpt>
      <trkpt lat="59.867476" lon="17.6397036">
        <ele>12.6344</ele>
        <time>2013-05-16T16:25:45Z</time>
      </trkpt>
      <trkpt lat="59.8674199" lon="17.6397085">
        <ele>11.6732</ele>
        <time>2013-05-16T16:25:46Z</time>
      </trkpt>
      <trkpt lat="59.8673612" lon="17.6397162">
        <ele>11.1925</ele>
        <time>2013-05-16T16:25:47Z</time>
      </trkpt>
      <trkpt lat="59.867306" lon="17.6397248">
        <ele>10.7118</ele>
        <time>2013-05-16T16:25:48Z</time>
      </trkpt>
      <trkpt lat="59.867252" lon="17.6397351">
        <ele>10.2312</ele>
        <time>2013-05-16T16:25:49Z</time>
      </trkpt>
      <trkpt lat="59.8671951" lon="17.639752">
        <ele>10.7118</ele>
        <time>2013-05-16T16:25:50Z</time>
      </trkpt>
      <trkpt lat="59.8671403" lon="17.6397835">
        <ele>11.1925</ele>
        <time>2013-05-16T16:25:51Z</time>
      </trkpt>
      <trkpt lat="59.8670857" lon="17.6398188">
        <ele>11.6732</ele>
        <time>2013-05-16T16:25:52Z</time>
      </trkpt>
      <trkpt lat="59.867021" lon="17.6398485">
        <ele>13.1151</ele>
        <time>2013-05-16T16:25:53Z</time>
      </trkpt>
      <trkpt lat="59.866952" lon="17.6398735">
        <ele>14.0764</ele>
        <time>2013-05-16T16:25:54Z</time>
      </trkpt>
      <trkpt lat="59.8668827" lon="17.6398923">
        <ele>14.0764</ele>
        <time>2013-05-16T16:25:55Z</time>
      </trkpt>
      <trkpt lat="59.8668269" lon="17.6399233">
        <ele>14.557</ele>
        <time>2013-05-16T16:25:56Z</time>
      </trkpt>
      <trkpt lat="59.8667646" lon="17.6399555">
        <ele>14.557</ele>
        <time>2013-05-16T16:25:57Z</time>
      </trkpt>
      <trkpt lat="59.8667071" lon="17.6399907">
        <ele>14.557</ele>
        <time>2013-05-16T16:25:58Z</time>
      </trkpt>
      <trkpt lat="59.8666527" lon="17.6400302">
        <ele>14.557</ele>
        <time>2013-05-16T16:25:59Z</time>
      </trkpt>
      <trkpt lat="59.8666036" lon="17.6400804">
        <ele>13.5958</ele>
        <time>2013-05-16T16:26:00Z</time>
      </trkpt>
      <trkpt lat="59.8665569" lon="17.640136">
        <ele>13.1151</ele>
        <time>2013-05-16T16:26:01Z</time>
      </trkpt>
      <trkpt lat="59.8665144" lon="17.6401886">
        <ele>12.1538</ele>
        <time>2013-05-16T16:26:02Z</time>
      </trkpt>
      <trkpt lat="59.8664755" lon="17.6402341">
        <ele>11.6732</ele>
        <time>2013-05-16T16:26:03Z</time>
      </trkpt>
      <trkpt lat="59.866446" lon="17.6402787">
        <ele>11.1925</ele>
        <time>2013-05-16T16:26:04Z</time>
      </trkpt>
      <trkpt lat="59.8664233" lon="17.6403175">
        <ele>10.7118</ele>
        <time>2013-05-16T16:26:05Z</time>
      </trkpt>
      <trkpt lat="59.8664063" lon="17.6403477">
        <ele>10.7118</ele>
        <time>2013-05-16T16:26:06Z</time>
      </trkpt>
      <trkpt lat="59.8663925" lon="17.6403625">
        <ele>10.2312</ele>
        <time>2013-05-16T16:26:07Z</time>
      </trkpt>
      <trkpt lat="59.8663849" lon="17.6403879">
        <ele>10.2312</ele>
        <time>2013-05-16T16:26:08Z</time>
      </trkpt>
      <trkpt lat="59.8663834" lon="17.6404149">
        <ele>10.2312</ele>
        <time>2013-05-16T16:26:09Z</time>
      </trkpt>
      <trkpt lat="59.8663799" lon="17.6404492">
        <ele>10.7118</ele>
        <time>2013-05-16T16:26:10Z</time>
      </trkpt>
      <trkpt lat="59.8663791" lon="17.6404694">
        <ele>10.7118</ele>
        <time>2013-05-16T16:26:11Z</time>
      </trkpt>
      <trkpt lat="59.8663715" lon="17.6404947">
        <ele>11.1925</ele>
        <time>2013-05-16T16:26:12Z</time>
      </trkpt>
      <trkpt lat="59.8663638" lon="17.6405191">
        <ele>11.6732</ele>
        <time>2013-05-16T16:26:13Z</time>
      </trkpt>
      <trkpt lat="59.8663518" lon="17.6405476">
        <ele>11.6732</ele>
        <time>2013-05-16T16:26:14Z</time>
      </trkpt>
      <trkpt lat="59.8663367" lon="17.6405803">
        <ele>11.1925</ele>
        <time>2013-05-16T16:26:15Z</time>
      </trkpt>
      <trkpt lat="59.8663196" lon="17.640606">
        <ele>11.1925</ele>
        <time>2013-05-16T16:26:16Z</time>
      </trkpt>
      <trkpt lat="59.8663025" lon="17.6406349">
        <ele>11.1925</ele>
        <time>2013-05-16T16:26:17Z</time>
      </trkpt>
      <trkpt lat="59.8662881" lon="17.6406738">
        <ele>11.1925</ele>
        <time>2013-05-16T16:26:18Z</time>
      </trkpt>
      <trkpt lat="59.8662757" lon="17.640705">
        <ele>11.1925</ele>
        <time>2013-05-16T16:26:19Z</time>
      </trkpt>
      <trkpt lat="59.8662679" lon="17.6407335">
        <ele>11.1925</ele>
        <time>2013-05-16T16:26:20Z</time>
      </trkpt>
      <trkpt lat="59.8662587" lon="17.6407541">
        <ele>10.7118</ele>
        <time>2013-05-16T16:26:21Z</time>
      </trkpt>
      <trkpt lat="59.8662439" lon="17.6407713">
        <ele>10.7118</ele>
        <time>2013-05-16T16:26:22Z</time>
      </trkpt>
      <trkpt lat="59.8662216" lon="17.6408023">
        <ele>10.2312</ele>
        <time>2013-05-16T16:26:23Z</time>
      </trkpt>
      <trkpt lat="59.8661953" lon="17.640835">
        <ele>9.75061</ele>
        <time>2013-05-16T16:26:24Z</time>
      </trkpt>
      <trkpt lat="59.8661688" lon="17.6408605">
        <ele>10.2312</ele>
        <time>2013-05-16T16:26:25Z</time>
      </trkpt>
      <trkpt lat="59.8661418" lon="17.6408797">
        <ele>10.2312</ele>
        <time>2013-05-16T16:26:26Z</time>
      </trkpt>
      <trkpt lat="59.866114" lon="17.6408887">
        <ele>10.2312</ele>
        <time>2013-05-16T16:26:27Z</time>
      </trkpt>
      <trkpt lat="59.8660911" lon="17.6408889">
        <ele>10.7118</ele>
        <time>2013-05-16T16:26:28Z</time>
      </trkpt>
      <trkpt lat="59.866071" lon="17.6408884">
        <ele>11.1925</ele>
        <time>2013-05-16T16:26:29Z</time>
      </trkpt>
      <trkpt lat="59.866055" lon="17.6408983">
        <ele>11.6732</ele>
        <time>2013-05-16T16:26:30Z</time>
      </trkpt>
      <trkpt lat="59.8660389" lon="17.6409298">
        <ele>13.1151</ele>
        <time>2013-05-16T16:26:31Z</time>
      </trkpt>
      <trkpt lat="59.8660213" lon="17.6409592">
        <ele>14.0764</ele>
        <time>2013-05-16T16:26:32Z</time>
      </trkpt>
      <trkpt lat="59.8659979" lon="17.6409942">
        <ele>14.0764</ele>
        <time>2013-05-16T16:26:33Z</time>
      </trkpt>
      <trkpt lat="59.8659748" lon="17.6410351">
        <ele>14.557</ele>
        <time>2013-05-16T16:26:34Z</time>
      </trkpt>
      <trkpt lat="59.8659415" lon="17.6410841">
        <ele>14.0764</ele>
        <time>2013-05-16T16:26:35Z</time>
      </trkpt>
      <trkpt lat="59.8659047" lon="17.6411292">
        <ele>14.0764</ele>
        <time>2013-05-16T16:26:36Z</time>
      </trkpt>
      <trkpt lat="59.8658613" lon="17.6411957">
        <ele>14.0764</ele>
        <time>2013-05-16T16:26:37Z</time>
      </trkpt>
      <trkpt lat="59.8658282" lon="17.6412629">
        <ele>13.5958</ele>
        <time>2013-05-16T16:26:38Z</time>
      </trkpt>
      <trkpt lat="59.8658023" lon="17.6413031">
        <ele>12.6344</ele>
        <time>2013-05-16T16:26:39Z</time>
      </trkpt>
      <trkpt lat="59.8657738" lon="17.6413353">
        <ele>12.6344</ele>
        <time>2013-05-16T16:26:40Z</time>
      </trkpt>
      <trkpt lat="59.8657477" lon="17.6413677">
        <ele>11.6732</ele>
        <time>2013-05-16T16:26:41Z</time>
      </trkpt>
      <trkpt lat="59.8657101" lon="17.6414264">
        <ele>12.6344</ele>
        <time>2013-05-16T16:26:42Z</time>
      </trkpt>
      <trkpt lat="59.8656774" lon="17.6414747">
        <ele>12.1538</ele>
        <time>2013-05-16T16:26:43Z</time>
      </trkpt>
      <trkpt lat="59.8656514" lon="17.6415203">
        <ele>11.6732</ele>
        <time>2013-05-16T16:26:44Z</time>
      </trkpt>
      <trkpt lat="59.8656274" lon="17.6415635">
        <ele>12.6344</ele>
        <time>2013-05-16T16:26:45Z</time>
      </trkpt>
      <trkpt lat="59.8655949" lon="17.6416012">
        <ele>14.557</ele>
        <time>2013-05-16T16:26:46Z</time>
      </trkpt>
      <trkpt lat="59.8655648" lon="17.6416105">
        <ele>14.557</ele>
        <time>2013-05-16T16:26:47Z</time>
      </trkpt>
      <trkpt lat="59.8655369" lon="17.6416188">
        <ele>14.557</ele>
        <time>2013-05-16T16:26:48Z</time>
      </trkpt>
      <trkpt lat="59.8655063" lon="17.6416473">
        <ele>14.557</ele>
        <time>2013-05-16T16:26:49Z</time>
      </trkpt>
      <trkpt lat="59.8654686" lon="17.6416797">
        <ele>13.5958</ele>
        <time>2013-05-16T16:26:50Z</time>
      </trkpt>
      <trkpt lat="59.8654233" lon="17.64173">
        <ele>12.6344</ele>
        <time>2013-05-16T16:26:51Z</time>
      </trkpt>
      <trkpt lat="59.8653707" lon="17.6417824">
        <ele>12.1538</ele>
        <time>2013-05-16T16:26:52Z</time>
      </trkpt>
      <trkpt lat="59.8653171" lon="17.641853">
        <ele>13.5958</ele>
        <time>2013-05-16T16:26:53Z</time>
      </trkpt>
      <trkpt lat="59.8652847" lon="17.6419327">
        <ele>13.5958</ele>
        <time>2013-05-16T16:26:54Z</time>
      </trkpt>
      <trkpt lat="59.8652456" lon="17.6420162">
        <ele>14.557</ele>
        <time>2013-05-16T16:26:55Z</time>
      </trkpt>
      <trkpt lat="59.8651988" lon="17.6420903">
        <ele>15.0377</ele>
        <time>2013-05-16T16:26:56Z</time>
      </trkpt>
      <trkpt lat="59.8651565" lon="17.6421627">
        <ele>14.557</ele>
        <time>2013-05-16T16:26:57Z</time>
      </trkpt>
      <trkpt lat="59.8651115" lon="17.6422417">
        <ele>14.0764</ele>
        <time>2013-05-16T16:26:58Z</time>
      </trkpt>
      <trkpt lat="59.8650626" lon="17.642314">
        <ele>13.1151</ele>
        <time>2013-05-16T16:26:59Z</time>
      </trkpt>
      <trkpt lat="59.8650137" lon="17.6424034">
        <ele>12.6344</ele>
        <time>2013-05-16T16:27:00Z</time>
      </trkpt>
      <trkpt lat="59.8649656" lon="17.6425118">
        <ele>12.1538</ele>
        <time>2013-05-16T16:27:01Z</time>
      </trkpt>
      <trkpt lat="59.8649162" lon="17.6426086">
        <ele>12.1538</ele>
        <time>2013-05-16T16:27:02Z</time>
      </trkpt>
      <trkpt lat="59.8648698" lon="17.6427072">
        <ele>12.6344</ele>
        <time>2013-05-16T16:27:03Z</time>
      </trkpt>
      <trkpt lat="59.8648215" lon="17.6428086">
        <ele>13.1151</ele>
        <time>2013-05-16T16:27:04Z</time>
      </trkpt>
      <trkpt lat="59.86476" lon="17.642906">
        <ele>12.6344</ele>
        <time>2013-05-16T16:27:05Z</time>
      </trkpt>
      <trkpt lat="59.8647059" lon="17.6430156">
        <ele>12.1538</ele>
        <time>2013-05-16T16:27:06Z</time>
      </trkpt>
      <trkpt lat="59.864646" lon="17.6431194">
        <ele>11.6732</ele>
        <time>2013-05-16T16:27:07Z</time>
      </trkpt>
      <trkpt lat="59.8645843" lon="17.6432311">
        <ele>11.6732</ele>
        <time>2013-05-16T16:27:08Z</time>
      </trkpt>
      <trkpt lat="59.8645277" lon="17.6433355">
        <ele>10.7118</ele>
        <time>2013-05-16T16:27:09Z</time>
      </trkpt>
      <trkpt lat="59.8644738" lon="17.6434245">
        <ele>10.7118</ele>
        <time>2013-05-16T16:27:10Z</time>
      </trkpt>
      <trkpt lat="59.8644202" lon="17.643539">
        <ele>11.1925</ele>
        <time>2013-05-16T16:27:11Z</time>
      </trkpt>
      <trkpt lat="59.8643686" lon="17.6436611">
        <ele>10.7118</ele>
        <time>2013-05-16T16:27:12Z</time>
      </trkpt>
      <trkpt lat="59.8643155" lon="17.6437916">
        <ele>9.75061</ele>
        <time>2013-05-16T16:27:13Z</time>
      </trkpt>
      <trkpt lat="59.8642606" lon="17.6439005">
        <ele>10.7118</ele>
        <time>2013-05-16T16:27:14Z</time>
      </trkpt>
      <trkpt lat="59.8642096" lon="17.6440963">
        <ele>11.6732</ele>
        <time>2013-05-16T16:27:15Z</time>
      </trkpt>
      <trkpt lat="59.8641466" lon="17.6442569">
        <ele>13.1151</ele>
        <time>2013-05-16T16:27:16Z</time>
      </trkpt>
      <trkpt lat="59.8640908" lon="17.6443768">
        <ele>14.557</ele>
        <time>2013-05-16T16:27:17Z</time>
      </trkpt>
      <trkpt lat="59.8640025" lon="17.6444429">
        <ele>15.5184</ele>
        <time>2013-05-16T16:27:18Z</time>
      </trkpt>
      <trkpt lat="59.8639234" lon="17.6445229">
        <ele>15.5184</ele>
        <time>2013-05-16T16:27:19Z</time>
      </trkpt>
      <trkpt lat="59.863885" lon="17.644569">
        <ele>15.999</ele>
        <time>2013-05-16T16:27:20Z</time>
      </trkpt>
      <trkpt lat="59.863804" lon="17.6446691">
        <ele>15.999</ele>
        <time>2013-05-16T16:27:21Z</time>
      </trkpt>
      <trkpt lat="59.8637481" lon="17.6447491">
        <ele>16.9604</ele>
        <time>2013-05-16T16:27:22Z</time>
      </trkpt>
      <trkpt lat="59.8637093" lon="17.6448438">
        <ele>16.9604</ele>
        <time>2013-05-16T16:27:23Z</time>
      </trkpt>
      <trkpt lat="59.8636693" lon="17.6449541">
        <ele>17.9218</ele>
        <time>2013-05-16T16:27:24Z</time>
      </trkpt>
      <trkpt lat="59.8636333" lon="17.6450216">
        <ele>18.4023</ele>
        <time>2013-05-16T16:27:25Z</time>
      </trkpt>
      <trkpt lat="59.8635958" lon="17.6450984">
        <ele>19.3638</ele>
        <time>2013-05-16T16:27:26Z</time>
      </trkpt>
      <trkpt lat="59.8635569" lon="17.645148">
        <ele>18.8831</ele>
        <time>2013-05-16T16:27:27Z</time>
      </trkpt>
      <trkpt lat="59.8635261" lon="17.6451999">
        <ele>20.8057</ele>
        <time>2013-05-16T16:27:28Z</time>
      </trkpt>
      <trkpt lat="59.8634906" lon="17.6452748">
        <ele>23.209</ele>
        <time>2013-05-16T16:27:29Z</time>
      </trkpt>
      <trkpt lat="59.863471" lon="17.6453489">
        <ele>26.5736</ele>
        <time>2013-05-16T16:27:30Z</time>
      </trkpt>
      <trkpt lat="59.8634529" lon="17.645422">
        <ele>28.0155</ele>
        <time>2013-05-16T16:27:31Z</time>
      </trkpt>
      <trkpt lat="59.8634565" lon="17.6454614">
        <ele>28.9769</ele>
        <time>2013-05-16T16:27:32Z</time>
      </trkpt>
      <trkpt lat="59.8634567" lon="17.6455235">
        <ele>30.8995</ele>
        <time>2013-05-16T16:27:33Z</time>
      </trkpt>
      <trkpt lat="59.8634582" lon="17.6456062">
        <ele>31.3801</ele>
        <time>2013-05-16T16:27:34Z</time>
      </trkpt>
      <trkpt lat="59.863458" lon="17.6456684">
        <ele>30.8995</ele>
        <time>2013-05-16T16:27:35Z</time>
      </trkpt>
      <trkpt lat="59.8634521" lon="17.6457374">
        <ele>30.4188</ele>
        <time>2013-05-16T16:27:36Z</time>
      </trkpt>
      <trkpt lat="59.8634357" lon="17.6458022">
        <ele>31.3801</ele>
        <time>2013-05-16T16:27:37Z</time>
      </trkpt>
      <trkpt lat="59.8634292" lon="17.6458637">
        <ele>31.8607</ele>
        <time>2013-05-16T16:27:38Z</time>
      </trkpt>
      <trkpt lat="59.8634452" lon="17.64593">
        <ele>33.7834</ele>
        <time>2013-05-16T16:27:39Z</time>
      </trkpt>
      <trkpt lat="59.8634426" lon="17.6460229">
        <ele>34.2642</ele>
        <time>2013-05-16T16:27:40Z</time>
      </trkpt>
      <trkpt lat="59.8634473" lon="17.6461159">
        <ele>34.7449</ele>
        <time>2013-05-16T16:27:41Z</time>
      </trkpt>
      <trkpt lat="59.8634726" lon="17.6461919">
        <ele>35.2255</ele>
        <time>2013-05-16T16:27:42Z</time>
      </trkpt>
      <trkpt lat="59.863495" lon="17.6462771">
        <ele>35.7061</ele>
        <time>2013-05-16T16:27:43Z</time>
      </trkpt>
      <trkpt lat="59.8635287" lon="17.6463729">
        <ele>36.6675</ele>
        <time>2013-05-16T16:27:44Z</time>
      </trkpt>
      <trkpt lat="59.8635774" lon="17.6464715">
        <ele>36.6675</ele>
        <time>2013-05-16T16:27:45Z</time>
      </trkpt>
      <trkpt lat="59.8636224" lon="17.646571">
        <ele>36.1868</ele>
        <time>2013-05-16T16:27:46Z</time>
      </trkpt>
      <trkpt lat="59.8636793" lon="17.6466467">
        <ele>37.6287</ele>
        <time>2013-05-16T16:27:47Z</time>
      </trkpt>
      <trkpt lat="59.8637312" lon="17.6467314">
        <ele>38.1094</ele>
        <time>2013-05-16T16:27:48Z</time>
      </trkpt>
      <trkpt lat="59.8637659" lon="17.6468243">
        <ele>36.6675</ele>
        <time>2013-05-16T16:27:49Z</time>
      </trkpt>
      <trkpt lat="59.8637871" lon="17.6469222">
        <ele>35.7061</ele>
        <time>2013-05-16T16:27:50Z</time>
      </trkpt>
      <trkpt lat="59.8638162" lon="17.6470315">
        <ele>35.7061</ele>
        <time>2013-05-16T16:27:51Z</time>
      </trkpt>
      <trkpt lat="59.8638654" lon="17.6471263">
        <ele>33.7834</ele>
        <time>2013-05-16T16:27:52Z</time>
      </trkpt>
      <trkpt lat="59.8639254" lon="17.647201">
        <ele>32.3416</ele>
        <time>2013-05-16T16:27:53Z</time>
      </trkpt>
      <trkpt lat="59.8639827" lon="17.6472898">
        <ele>33.3029</ele>
        <time>2013-05-16T16:27:54Z</time>
      </trkpt>
      <trkpt lat="59.8640544" lon="17.6473625">
        <ele>30.4188</ele>
        <time>2013-05-16T16:27:55Z</time>
      </trkpt>
      <trkpt lat="59.8641376" lon="17.6474638">
        <ele>31.8607</ele>
        <time>2013-05-16T16:27:56Z</time>
      </trkpt>
      <trkpt lat="59.8642156" lon="17.6475346">
        <ele>32.3416</ele>
        <time>2013-05-16T16:27:57Z</time>
      </trkpt>
      <trkpt lat="59.8642687" lon="17.6476246">
        <ele>32.3416</ele>
        <time>2013-05-16T16:27:58Z</time>
      </trkpt>
      <trkpt lat="59.8643274" lon="17.647741">
        <ele>32.8223</ele>
        <time>2013-05-16T16:27:59Z</time>
      </trkpt>
      <trkpt lat="59.8643959" lon="17.6479191">
        <ele>31.8607</ele>
        <time>2013-05-16T16:28:00Z</time>
      </trkpt>
      <trkpt lat="59.8644482" lon="17.6480209">
        <ele>32.3416</ele>
        <time>2013-05-16T16:28:01Z</time>
      </trkpt>
      <trkpt lat="59.8644932" lon="17.6480989">
        <ele>31.8607</ele>
        <time>2013-05-16T16:28:02Z</time>
      </trkpt>
      <trkpt lat="59.8645393" lon="17.6481922">
        <ele>29.9381</ele>
        <time>2013-05-16T16:28:03Z</time>
      </trkpt>
      <trkpt lat="59.8645755" lon="17.6482781">
        <ele>27.5349</ele>
        <time>2013-05-16T16:28:04Z</time>
      </trkpt>
      <trkpt lat="59.8646085" lon="17.648388">
        <ele>26.5736</ele>
        <time>2013-05-16T16:28:05Z</time>
      </trkpt>
      <trkpt lat="59.8646455" lon="17.6484924">
        <ele>24.1703</ele>
        <time>2013-05-16T16:28:06Z</time>
      </trkpt>
      <trkpt lat="59.8647147" lon="17.6485653">
        <ele>23.209</ele>
        <time>2013-05-16T16:28:07Z</time>
      </trkpt>
      <trkpt lat="59.8647501" lon="17.6486534">
        <ele>21.767</ele>
        <time>2013-05-16T16:28:08Z</time>
      </trkpt>
      <trkpt lat="59.8647915" lon="17.6487399">
        <ele>20.325</ele>
        <time>2013-05-16T16:28:09Z</time>
      </trkpt>
      <trkpt lat="59.8648283" lon="17.6488697">
        <ele>19.3638</ele>
        <time>2013-05-16T16:28:10Z</time>
      </trkpt>
      <trkpt lat="59.8648594" lon="17.6489185">
        <ele>16.9604</ele>
        <time>2013-05-16T16:28:11Z</time>
      </trkpt>
      <trkpt lat="59.8649063" lon="17.6490016">
        <ele>14.557</ele>
        <time>2013-05-16T16:28:12Z</time>
      </trkpt>
      <trkpt lat="59.8649393" lon="17.649119">
        <ele>12.6344</ele>
        <time>2013-05-16T16:28:13Z</time>
      </trkpt>
      <trkpt lat="59.8649754" lon="17.6492119">
        <ele>11.1925</ele>
        <time>2013-05-16T16:28:14Z</time>
      </trkpt>
      <trkpt lat="59.8650032" lon="17.6493139">
        <ele>8.78918</ele>
        <time>2013-05-16T16:28:15Z</time>
      </trkpt>
      <trkpt lat="59.8650143" lon="17.6494087">
        <ele>7.34717</ele>
        <time>2013-05-16T16:28:16Z</time>
      </trkpt>
      <trkpt lat="59.8650661" lon="17.6494734">
        <ele>8.30859</ele>
        <time>2013-05-16T16:28:17Z</time>
      </trkpt>
      <trkpt lat="59.8651099" lon="17.6495305">
        <ele>8.78918</ele>
        <time>2013-05-16T16:28:18Z</time>
      </trkpt>
      <trkpt lat="59.8651427" lon="17.6495759">
        <ele>8.30859</ele>
        <time>2013-05-16T16:28:19Z</time>
      </trkpt>
      <trkpt lat="59.8651835" lon="17.6496105">
        <ele>8.78918</ele>
        <time>2013-05-16T16:28:20Z</time>
      </trkpt>
      <trkpt lat="59.8652059" lon="17.6496386">
        <ele>7.82788</ele>
        <time>2013-05-16T16:28:21Z</time>
      </trkpt>
      <trkpt lat="59.8652237" lon="17.6496484">
        <ele>6.86646</ele>
        <time>2013-05-16T16:28:22Z</time>
      </trkpt>
      <trkpt lat="59.8652386" lon="17.6496555">
        <ele>5.42456</ele>
        <time>2013-05-16T16:28:23Z</time>
      </trkpt>
      <trkpt lat="59.8652641" lon="17.6496661">
        <ele>5.90527</ele>
        <time>2013-05-16T16:28:24Z</time>
      </trkpt>
      <trkpt lat="59.8652919" lon="17.6496868">
        <ele>6.38586</ele>
        <time>2013-05-16T16:28:25Z</time>
      </trkpt>
      <trkpt lat="59.8653176" lon="17.6497148">
        <ele>5.90527</ele>
        <time>2013-05-16T16:28:26Z</time>
      </trkpt>
      <trkpt lat="59.8653246" lon="17.6497515">
        <ele>4.94385</ele>
        <time>2013-05-16T16:28:27Z</time>
      </trkpt>
      <trkpt lat="59.8653204" lon="17.6498048">
        <ele>4.94385</ele>
        <time>2013-05-16T16:28:28Z</time>
      </trkpt>
      <trkpt lat="59.8653141" lon="17.6498639">
        <ele>4.94385</ele>
        <time>2013-05-16T16:28:29Z</time>
      </trkpt>
      <trkpt lat="59.8653007" lon="17.6499293">
        <ele>4.94385</ele>
        <time>2013-05-16T16:28:30Z</time>
      </trkpt>
      <trkpt lat="59.8652737" lon="17.6499979">
        <ele>3.98267</ele>
        <time>2013-05-16T16:28:31Z</time>
      </trkpt>
      <trkpt lat="59.8652359" lon="17.6500623">
        <ele>3.50195</ele>
        <time>2013-05-16T16:28:32Z</time>
      </trkpt>
      <trkpt lat="59.8652039" lon="17.6501143">
        <ele>2.54065</ele>
        <time>2013-05-16T16:28:33Z</time>
      </trkpt>
      <trkpt lat="59.8651514" lon="17.6501779">
        <ele>3.50195</ele>
        <time>2013-05-16T16:28:34Z</time>
      </trkpt>
      <trkpt lat="59.8651038" lon="17.6502658">
        <ele>3.50195</ele>
        <time>2013-05-16T16:28:35Z</time>
      </trkpt>
      <trkpt lat="59.8650436" lon="17.650367">
        <ele>3.98267</ele>
        <time>2013-05-16T16:28:36Z</time>
      </trkpt>
      <trkpt lat="59.8649906" lon="17.6504814">
        <ele>3.98267</ele>
        <time>2013-05-16T16:28:37Z</time>
      </trkpt>
      <trkpt lat="59.8649004" lon="17.6506364">
        <ele>5.90527</ele>
        <time>2013-05-16T16:28:38Z</time>
      </trkpt>
      <trkpt lat="59.8648423" lon="17.6507217">
        <ele>6.38586</ele>
        <time>2013-05-16T16:28:39Z</time>
      </trkpt>
      <trkpt lat="59.8647817" lon="17.6508176">
        <ele>7.34717</ele>
        <time>2013-05-16T16:28:40Z</time>
      </trkpt>
      <trkpt lat="59.8647335" lon="17.6508745">
        <ele>7.82788</ele>
        <time>2013-05-16T16:28:41Z</time>
      </trkpt>
      <trkpt lat="59.8646693" lon="17.6509242">
        <ele>8.30859</ele>
        <time>2013-05-16T16:28:42Z</time>
      </trkpt>
      <trkpt lat="59.8646111" lon="17.6510111">
        <ele>10.2312</ele>
        <time>2013-05-16T16:28:43Z</time>
      </trkpt>
      <trkpt lat="59.864559" lon="17.6510788">
        <ele>11.6732</ele>
        <time>2013-05-16T16:28:44Z</time>
      </trkpt>
      <trkpt lat="59.8645206" lon="17.6511456">
        <ele>13.5958</ele>
        <time>2013-05-16T16:28:45Z</time>
      </trkpt>
      <trkpt lat="59.8644885" lon="17.6512294">
        <ele>13.1151</ele>
        <time>2013-05-16T16:28:46Z</time>
      </trkpt>
      <trkpt lat="59.8644612" lon="17.6512947">
        <ele>13.1151</ele>
        <time>2013-05-16T16:28:47Z</time>
      </trkpt>
      <trkpt lat="59.8644361" lon="17.6513392">
        <ele>13.1151</ele>
        <time>2013-05-16T16:28:48Z</time>
      </trkpt>
      <trkpt lat="59.8644168" lon="17.6513974">
        <ele>13.1151</ele>
        <time>2013-05-16T16:28:49Z</time>
      </trkpt>
      <trkpt lat="59.8644031" lon="17.6514392">
        <ele>14.0764</ele>
        <time>2013-05-16T16:28:50Z</time>
      </trkpt>
      <trkpt lat="59.8643951" lon="17.6514879">
        <ele>15.0377</ele>
        <time>2013-05-16T16:28:51Z</time>
      </trkpt>
      <trkpt lat="59.864387" lon="17.6515199">
        <ele>16.4797</ele>
        <time>2013-05-16T16:28:52Z</time>
      </trkpt>
      <trkpt lat="59.8643803" lon="17.6515414">
        <ele>17.9218</ele>
        <time>2013-05-16T16:28:53Z</time>
      </trkpt>
      <trkpt lat="59.8643637" lon="17.6515695">
        <ele>17.9218</ele>
        <time>2013-05-16T16:28:54Z</time>
      </trkpt>
      <trkpt lat="59.8643507" lon="17.6515957">
        <ele>17.9218</ele>
        <time>2013-05-16T16:28:55Z</time>
      </trkpt>
      <trkpt lat="59.8643372" lon="17.6516211">
        <ele>17.9218</ele>
        <time>2013-05-16T16:28:56Z</time>
      </trkpt>
      <trkpt lat="59.8643196" lon="17.6516479">
        <ele>17.9218</ele>
        <time>2013-05-16T16:28:57Z</time>
      </trkpt>
      <trkpt lat="59.8642935" lon="17.6516721">
        <ele>16.9604</ele>
        <time>2013-05-16T16:28:58Z</time>
      </trkpt>
      <trkpt lat="59.8642645" lon="17.6516894">
        <ele>16.4797</ele>
        <time>2013-05-16T16:28:59Z</time>
      </trkpt>
      <trkpt lat="59.8642342" lon="17.6517206">
        <ele>15.999</ele>
        <time>2013-05-16T16:29:00Z</time>
      </trkpt>
      <trkpt lat="59.8642088" lon="17.6517696">
        <ele>15.999</ele>
        <time>2013-05-16T16:29:01Z</time>
      </trkpt>
      <trkpt lat="59.8641754" lon="17.651826">
        <ele>15.999</ele>
        <time>2013-05-16T16:29:02Z</time>
      </trkpt>
      <trkpt lat="59.864139" lon="17.6518738">
        <ele>15.999</ele>
        <time>2013-05-16T16:29:03Z</time>
      </trkpt>
      <trkpt lat="59.8641025" lon="17.6519206">
        <ele>15.999</ele>
        <time>2013-05-16T16:29:04Z</time>
      </trkpt>
      <trkpt lat="59.8640679" lon="17.6519753">
        <ele>15.5184</ele>
        <time>2013-05-16T16:29:05Z</time>
      </trkpt>
      <trkpt lat="59.8640286" lon="17.6520452">
        <ele>15.5184</ele>
        <time>2013-05-16T16:29:06Z</time>
      </trkpt>
      <trkpt lat="59.8639829" lon="17.6521017">
        <ele>15.0377</ele>
        <time>2013-05-16T16:29:07Z</time>
      </trkpt>
      <trkpt lat="59.8639404" lon="17.6521753">
        <ele>14.557</ele>
        <time>2013-05-16T16:29:08Z</time>
      </trkpt>
      <trkpt lat="59.863889" lon="17.6522556">
        <ele>14.557</ele>
        <time>2013-05-16T16:29:09Z</time>
      </trkpt>
      <trkpt lat="59.8638321" lon="17.6523328">
        <ele>13.5958</ele>
        <time>2013-05-16T16:29:10Z</time>
      </trkpt>
      <trkpt lat="59.8637694" lon="17.6524006">
        <ele>12.6344</ele>
        <time>2013-05-16T16:29:11Z</time>
      </trkpt>
      <trkpt lat="59.8637128" lon="17.6524807">
        <ele>11.6732</ele>
        <time>2013-05-16T16:29:12Z</time>
      </trkpt>
      <trkpt lat="59.8636538" lon="17.6525646">
        <ele>11.6732</ele>
        <time>2013-05-16T16:29:13Z</time>
      </trkpt>
      <trkpt lat="59.8635992" lon="17.6526425">
        <ele>12.1538</ele>
        <time>2013-05-16T16:29:14Z</time>
      </trkpt>
      <trkpt lat="59.8635094" lon="17.65279">
        <ele>11.6732</ele>
        <time>2013-05-16T16:29:15Z</time>
      </trkpt>
      <trkpt lat="59.8634613" lon="17.6528575">
        <ele>12.1538</ele>
        <time>2013-05-16T16:29:16Z</time>
      </trkpt>
      <trkpt lat="59.8634078" lon="17.6529276">
        <ele>12.6344</ele>
        <time>2013-05-16T16:29:17Z</time>
      </trkpt>
      <trkpt lat="59.8633533" lon="17.6529973">
        <ele>12.6344</ele>
        <time>2013-05-16T16:29:18Z</time>
      </trkpt>
      <trkpt lat="59.8633001" lon="17.6530633">
        <ele>12.6344</ele>
        <time>2013-05-16T16:29:19Z</time>
      </trkpt>
      <trkpt lat="59.8632477" lon="17.6531196">
        <ele>12.1538</ele>
        <time>2013-05-16T16:29:20Z</time>
      </trkpt>
      <trkpt lat="59.8631986" lon="17.6531724">
        <ele>12.1538</ele>
        <time>2013-05-16T16:29:21Z</time>
      </trkpt>
      <trkpt lat="59.8631453" lon="17.6532217">
        <ele>11.6732</ele>
        <time>2013-05-16T16:29:22Z</time>
      </trkpt>
      <trkpt lat="59.8630957" lon="17.653273">
        <ele>11.1925</ele>
        <time>2013-05-16T16:29:23Z</time>
      </trkpt>
      <trkpt lat="59.8630431" lon="17.6533293">
        <ele>10.7118</ele>
        <time>2013-05-16T16:29:24Z</time>
      </trkpt>
      <trkpt lat="59.8629957" lon="17.6533687">
        <ele>10.7118</ele>
        <time>2013-05-16T16:29:25Z</time>
      </trkpt>
      <trkpt lat="59.8629459" lon="17.653473">
        <ele>9.75061</ele>
        <time>2013-05-16T16:29:26Z</time>
      </trkpt>
      <trkpt lat="59.8629278" lon="17.6535123">
        <ele>9.2699</ele>
        <time>2013-05-16T16:29:27Z</time>
      </trkpt>
      <trkpt lat="59.8629003" lon="17.6535665">
        <ele>8.78918</ele>
        <time>2013-05-16T16:29:28Z</time>
      </trkpt>
      <trkpt lat="59.862874" lon="17.6536165">
        <ele>8.78918</ele>
        <time>2013-05-16T16:29:29Z</time>
      </trkpt>
      <trkpt lat="59.862868" lon="17.6536615">
        <ele>8.30859</ele>
        <time>2013-05-16T16:29:30Z</time>
      </trkpt>
      <trkpt lat="59.8628521" lon="17.6537071">
        <ele>9.2699</ele>
        <time>2013-05-16T16:29:31Z</time>
      </trkpt>
      <trkpt lat="59.862848" lon="17.6537587">
        <ele>9.2699</ele>
        <time>2013-05-16T16:29:32Z</time>
      </trkpt>
      <trkpt lat="59.8628428" lon="17.6538231">
        <ele>9.2699</ele>
        <time>2013-05-16T16:29:33Z</time>
      </trkpt>
      <trkpt lat="59.8628519" lon="17.6538854">
        <ele>9.2699</ele>
        <time>2013-05-16T16:29:34Z</time>
      </trkpt>
      <trkpt lat="59.862862" lon="17.6539547">
        <ele>9.75061</ele>
        <time>2013-05-16T16:29:35Z</time>
      </trkpt>
      <trkpt lat="59.862879" lon="17.6540163">
        <ele>10.2312</ele>
        <time>2013-05-16T16:29:36Z</time>
      </trkpt>
      <trkpt lat="59.8628981" lon="17.6540733">
        <ele>11.6732</ele>
        <time>2013-05-16T16:29:37Z</time>
      </trkpt>
      <trkpt lat="59.8629215" lon="17.6541435">
        <ele>12.6344</ele>
        <time>2013-05-16T16:29:38Z</time>
      </trkpt>
      <trkpt lat="59.8629455" lon="17.6542207">
        <ele>13.5958</ele>
        <time>2013-05-16T16:29:39Z</time>
      </trkpt>
      <trkpt lat="59.8629644" lon="17.6543222">
        <ele>13.1151</ele>
        <time>2013-05-16T16:29:40Z</time>
      </trkpt>
      <trkpt lat="59.8629871" lon="17.6544296">
        <ele>13.1151</ele>
        <time>2013-05-16T16:29:41Z</time>
      </trkpt>
      <trkpt lat="59.8630075" lon="17.6545445">
        <ele>13.1151</ele>
        <time>2013-05-16T16:29:42Z</time>
      </trkpt>
      <trkpt lat="59.8630366" lon="17.654654">
        <ele>13.5958</ele>
        <time>2013-05-16T16:29:43Z</time>
      </trkpt>
      <trkpt lat="59.8630641" lon="17.6547809">
        <ele>12.6344</ele>
        <time>2013-05-16T16:29:44Z</time>
      </trkpt>
      <trkpt lat="59.8630978" lon="17.6549068">
        <ele>13.1151</ele>
        <time>2013-05-16T16:29:45Z</time>
      </trkpt>
      <trkpt lat="59.8631384" lon="17.6550264">
        <ele>13.1151</ele>
        <time>2013-05-16T16:29:46Z</time>
      </trkpt>
      <trkpt lat="59.863166" lon="17.6551441">
        <ele>13.5958</ele>
        <time>2013-05-16T16:29:47Z</time>
      </trkpt>
      <trkpt lat="59.8631909" lon="17.6552571">
        <ele>13.5958</ele>
        <time>2013-05-16T16:29:48Z</time>
      </trkpt>
      <trkpt lat="59.8632283" lon="17.6553708">
        <ele>15.0377</ele>
        <time>2013-05-16T16:29:49Z</time>
      </trkpt>
      <trkpt lat="59.8632655" lon="17.655513">
        <ele>15.999</ele>
        <time>2013-05-16T16:29:50Z</time>
      </trkpt>
      <trkpt lat="59.8632977" lon="17.6556434">
        <ele>16.9604</ele>
        <time>2013-05-16T16:29:51Z</time>
      </trkpt>
      <trkpt lat="59.8633245" lon="17.6557704">
        <ele>17.4412</ele>
        <time>2013-05-16T16:29:52Z</time>
      </trkpt>
      <trkpt lat="59.8633468" lon="17.655903">
        <ele>18.4023</ele>
        <time>2013-05-16T16:29:53Z</time>
      </trkpt>
      <trkpt lat="59.8633746" lon="17.6560189">
        <ele>19.3638</ele>
        <time>2013-05-16T16:29:54Z</time>
      </trkpt>
      <trkpt lat="59.8633997" lon="17.6561392">
        <ele>19.8444</ele>
        <time>2013-05-16T16:29:55Z</time>
      </trkpt>
      <trkpt lat="59.8634344" lon="17.6562553">
        <ele>20.8057</ele>
        <time>2013-05-16T16:29:56Z</time>
      </trkpt>
      <trkpt lat="59.8634541" lon="17.6563603">
        <ele>23.209</ele>
        <time>2013-05-16T16:29:57Z</time>
      </trkpt>
      <trkpt lat="59.8634898" lon="17.6564894">
        <ele>24.1703</ele>
        <time>2013-05-16T16:29:58Z</time>
      </trkpt>
      <trkpt lat="59.8635281" lon="17.6566343">
        <ele>25.6123</ele>
        <time>2013-05-16T16:29:59Z</time>
      </trkpt>
      <trkpt lat="59.863565" lon="17.6567627">
        <ele>26.5736</ele>
        <time>2013-05-16T16:30:00Z</time>
      </trkpt>
      <trkpt lat="59.8635959" lon="17.6568997">
        <ele>26.0929</ele>
        <time>2013-05-16T16:30:01Z</time>
      </trkpt>
      <trkpt lat="59.863611" lon="17.6570373">
        <ele>27.0543</ele>
        <time>2013-05-16T16:30:02Z</time>
      </trkpt>
      <trkpt lat="59.8636478" lon="17.6571658">
        <ele>28.4962</ele>
        <time>2013-05-16T16:30:03Z</time>
      </trkpt>
      <trkpt lat="59.8636815" lon="17.6572689">
        <ele>28.9769</ele>
        <time>2013-05-16T16:30:04Z</time>
      </trkpt>
      <trkpt lat="59.8637168" lon="17.6573951">
        <ele>29.4575</ele>
        <time>2013-05-16T16:30:05Z</time>
      </trkpt>
      <trkpt lat="59.8637481" lon="17.657518">
        <ele>30.4188</ele>
        <time>2013-05-16T16:30:06Z</time>
      </trkpt>
      <trkpt lat="59.8637787" lon="17.6575963">
        <ele>30.4188</ele>
        <time>2013-05-16T16:30:07Z</time>
      </trkpt>
      <trkpt lat="59.8638269" lon="17.6576403">
        <ele>32.3416</ele>
        <time>2013-05-16T16:30:08Z</time>
      </trkpt>
      <trkpt lat="59.8638437" lon="17.6577641">
        <ele>33.7834</ele>
        <time>2013-05-16T16:30:09Z</time>
      </trkpt>
      <trkpt lat="59.8638694" lon="17.657904">
        <ele>33.7834</ele>
        <time>2013-05-16T16:30:10Z</time>
      </trkpt>
      <trkpt lat="59.8638841" lon="17.6580926">
        <ele>33.3029</ele>
        <time>2013-05-16T16:30:11Z</time>
      </trkpt>
      <trkpt lat="59.8639004" lon="17.6582363">
        <ele>31.3801</ele>
        <time>2013-05-16T16:30:12Z</time>
      </trkpt>
      <trkpt lat="59.8639211" lon="17.6583675">
        <ele>30.8995</ele>
        <time>2013-05-16T16:30:13Z</time>
      </trkpt>
      <trkpt lat="59.8639259" lon="17.6584804">
        <ele>29.4575</ele>
        <time>2013-05-16T16:30:14Z</time>
      </trkpt>
      <trkpt lat="59.8639264" lon="17.6585878">
        <ele>27.0543</ele>
        <time>2013-05-16T16:30:15Z</time>
      </trkpt>
      <trkpt lat="59.8639425" lon="17.6587002">
        <ele>25.1317</ele>
        <time>2013-05-16T16:30:16Z</time>
      </trkpt>
      <trkpt lat="59.8639704" lon="17.6588048">
        <ele>23.209</ele>
        <time>2013-05-16T16:30:17Z</time>
      </trkpt>
      <trkpt lat="59.8639772" lon="17.6589183">
        <ele>22.2476</ele>
        <time>2013-05-16T16:30:18Z</time>
      </trkpt>
      <trkpt lat="59.8640268" lon="17.6590776">
        <ele>22.2476</ele>
        <time>2013-05-16T16:30:19Z</time>
      </trkpt>
      <trkpt lat="59.8640554" lon="17.6591959">
        <ele>20.8057</ele>
        <time>2013-05-16T16:30:20Z</time>
      </trkpt>
      <trkpt lat="59.8640988" lon="17.6593036">
        <ele>20.325</ele>
        <time>2013-05-16T16:30:21Z</time>
      </trkpt>
      <trkpt lat="59.8641026" lon="17.6594129">
        <ele>18.4023</ele>
        <time>2013-05-16T16:30:22Z</time>
      </trkpt>
      <trkpt lat="59.8641109" lon="17.6595738">
        <ele>15.999</ele>
        <time>2013-05-16T16:30:23Z</time>
      </trkpt>
      <trkpt lat="59.8641607" lon="17.6597106">
        <ele>15.999</ele>
        <time>2013-05-16T16:30:24Z</time>
      </trkpt>
      <trkpt lat="59.8641932" lon="17.6598515">
        <ele>16.9604</ele>
        <time>2013-05-16T16:30:25Z</time>
      </trkpt>
      <trkpt lat="59.8642274" lon="17.6599812">
        <ele>16.9604</ele>
        <time>2013-05-16T16:30:26Z</time>
      </trkpt>
      <trkpt lat="59.8642615" lon="17.6601064">
        <ele>16.4797</ele>
        <time>2013-05-16T16:30:27Z</time>
      </trkpt>
      <trkpt lat="59.8642957" lon="17.6602204">
        <ele>16.4797</ele>
        <time>2013-05-16T16:30:28Z</time>
      </trkpt>
      <trkpt lat="59.8643227" lon="17.660342">
        <ele>16.4797</ele>
        <time>2013-05-16T16:30:29Z</time>
      </trkpt>
      <trkpt lat="59.8643469" lon="17.6604681">
        <ele>16.4797</ele>
        <time>2013-05-16T16:30:30Z</time>
      </trkpt>
      <trkpt lat="59.8643754" lon="17.6605881">
        <ele>16.4797</ele>
        <time>2013-05-16T16:30:31Z</time>
      </trkpt>
      <trkpt lat="59.8644078" lon="17.6607028">
        <ele>16.4797</ele>
        <time>2013-05-16T16:30:32Z</time>
      </trkpt>
      <trkpt lat="59.8644397" lon="17.6608182">
        <ele>15.999</ele>
        <time>2013-05-16T16:30:33Z</time>
      </trkpt>
      <trkpt lat="59.8644641" lon="17.6609416">
        <ele>15.999</ele>
        <time>2013-05-16T16:30:34Z</time>
      </trkpt>
      <trkpt lat="59.8644899" lon="17.6610647">
        <ele>15.999</ele>
        <time>2013-05-16T16:30:35Z</time>
      </trkpt>
      <trkpt lat="59.8645165" lon="17.6611876">
        <ele>15.5184</ele>
        <time>2013-05-16T16:30:36Z</time>
      </trkpt>
      <trkpt lat="59.864546" lon="17.6613083">
        <ele>15.5184</ele>
        <time>2013-05-16T16:30:37Z</time>
      </trkpt>
      <trkpt lat="59.864574" lon="17.6614301">
        <ele>15.5184</ele>
        <time>2013-05-16T16:30:38Z</time>
      </trkpt>
      <trkpt lat="59.8646002" lon="17.6615544">
        <ele>15.5184</ele>
        <time>2013-05-16T16:30:39Z</time>
      </trkpt>
      <trkpt lat="59.8646282" lon="17.6616751">
        <ele>15.5184</ele>
        <time>2013-05-16T16:30:40Z</time>
      </trkpt>
      <trkpt lat="59.8646588" lon="17.6617889">
        <ele>15.5184</ele>
        <time>2013-05-16T16:30:41Z</time>
      </trkpt>
      <trkpt lat="59.864689" lon="17.6619029">
        <ele>15.0377</ele>
        <time>2013-05-16T16:30:42Z</time>
      </trkpt>
      <trkpt lat="59.8647159" lon="17.6620157">
        <ele>14.557</ele>
        <time>2013-05-16T16:30:43Z</time>
      </trkpt>
      <trkpt lat="59.8647421" lon="17.6621269">
        <ele>14.557</ele>
        <time>2013-05-16T16:30:44Z</time>
      </trkpt>
      <trkpt lat="59.8647693" lon="17.6622385">
        <ele>14.557</ele>
        <time>2013-05-16T16:30:45Z</time>
      </trkpt>
      <trkpt lat="59.8648028" lon="17.6623522">
        <ele>13.5958</ele>
        <time>2013-05-16T16:30:46Z</time>
      </trkpt>
      <trkpt lat="59.8648349" lon="17.6624651">
        <ele>13.1151</ele>
        <time>2013-05-16T16:30:47Z</time>
      </trkpt>
      <trkpt lat="59.8648681" lon="17.6625758">
        <ele>12.6344</ele>
        <time>2013-05-16T16:30:48Z</time>
      </trkpt>
      <trkpt lat="59.8649041" lon="17.6626816">
        <ele>11.6732</ele>
        <time>2013-05-16T16:30:49Z</time>
      </trkpt>
      <trkpt lat="59.8649388" lon="17.6627757">
        <ele>11.1925</ele>
        <time>2013-05-16T16:30:50Z</time>
      </trkpt>
      <trkpt lat="59.864968" lon="17.6628642">
        <ele>10.2312</ele>
        <time>2013-05-16T16:30:51Z</time>
      </trkpt>
      <trkpt lat="59.8649987" lon="17.6629582">
        <ele>8.78918</ele>
        <time>2013-05-16T16:30:52Z</time>
      </trkpt>
      <trkpt lat="59.8650294" lon="17.6630509">
        <ele>8.30859</ele>
        <time>2013-05-16T16:30:53Z</time>
      </trkpt>
      <trkpt lat="59.8650607" lon="17.6631463">
        <ele>7.34717</ele>
        <time>2013-05-16T16:30:54Z</time>
      </trkpt>
      <trkpt lat="59.8650946" lon="17.6632429">
        <ele>5.90527</ele>
        <time>2013-05-16T16:30:55Z</time>
      </trkpt>
      <trkpt lat="59.8651307" lon="17.6633406">
        <ele>3.98267</ele>
        <time>2013-05-16T16:30:56Z</time>
      </trkpt>
      <trkpt lat="59.8651628" lon="17.6634297">
        <ele>3.98267</ele>
        <time>2013-05-16T16:30:57Z</time>
      </trkpt>
      <trkpt lat="59.8651945" lon="17.6635201">
        <ele>3.98267</ele>
        <time>2013-05-16T16:30:58Z</time>
      </trkpt>
      <trkpt lat="59.8652287" lon="17.6636084">
        <ele>3.50195</ele>
        <time>2013-05-16T16:30:59Z</time>
      </trkpt>
      <trkpt lat="59.8652579" lon="17.6637001">
        <ele>3.02124</ele>
        <time>2013-05-16T16:31:00Z</time>
      </trkpt>
      <trkpt lat="59.8652892" lon="17.6637863">
        <ele>3.02124</ele>
        <time>2013-05-16T16:31:01Z</time>
      </trkpt>
      <trkpt lat="59.8653189" lon="17.6638705">
        <ele>3.02124</ele>
        <time>2013-05-16T16:31:02Z</time>
      </trkpt>
      <trkpt lat="59.8653494" lon="17.6639528">
        <ele>3.02124</ele>
        <time>2013-05-16T16:31:03Z</time>
      </trkpt>
      <trkpt lat="59.8653767" lon="17.6640269">
        <ele>3.50195</ele>
        <time>2013-05-16T16:31:04Z</time>
      </trkpt>
      <trkpt lat="59.8654049" lon="17.664094">
        <ele>3.50195</ele>
        <time>2013-05-16T16:31:05Z</time>
      </trkpt>
      <trkpt lat="59.8654338" lon="17.6641578">
        <ele>3.98267</ele>
        <time>2013-05-16T16:31:06Z</time>
      </trkpt>
      <trkpt lat="59.8654598" lon="17.6642228">
        <ele>4.46326</ele>
        <time>2013-05-16T16:31:07Z</time>
      </trkpt>
      <trkpt lat="59.8654861" lon="17.6642961">
        <ele>4.46326</ele>
        <time>2013-05-16T16:31:08Z</time>
      </trkpt>
      <trkpt lat="59.8655059" lon="17.6643742">
        <ele>4.46326</ele>
        <time>2013-05-16T16:31:09Z</time>
      </trkpt>
      <trkpt lat="59.8655169" lon="17.6644506">
        <ele>3.98267</ele>
        <time>2013-05-16T16:31:10Z</time>
      </trkpt>
      <trkpt lat="59.8655218" lon="17.664521">
        <ele>4.46326</ele>
        <time>2013-05-16T16:31:11Z</time>
      </trkpt>
      <trkpt lat="59.8655245" lon="17.6645845">
        <ele>4.46326</ele>
        <time>2013-05-16T16:31:12Z</time>
      </trkpt>
      <trkpt lat="59.8655339" lon="17.6646439">
        <ele>4.94385</ele>
        <time>2013-05-16T16:31:13Z</time>
      </trkpt>
      <trkpt lat="59.8655551" lon="17.6646925">
        <ele>4.94385</ele>
        <time>2013-05-16T16:31:14Z</time>
      </trkpt>
      <trkpt lat="59.8655744" lon="17.664732">
        <ele>5.42456</ele>
        <time>2013-05-16T16:31:15Z</time>
      </trkpt>
      <trkpt lat="59.8655969" lon="17.6647764">
        <ele>4.94385</ele>
        <time>2013-05-16T16:31:16Z</time>
      </trkpt>
      <trkpt lat="59.8656307" lon="17.6648276">
        <ele>6.38586</ele>
        <time>2013-05-16T16:31:17Z</time>
      </trkpt>
      <trkpt lat="59.8656674" lon="17.6648826">
        <ele>7.82788</ele>
        <time>2013-05-16T16:31:18Z</time>
      </trkpt>
      <trkpt lat="59.8657058" lon="17.6649371">
        <ele>9.75061</ele>
        <time>2013-05-16T16:31:19Z</time>
      </trkpt>
      <trkpt lat="59.8657491" lon="17.6649801">
        <ele>11.6732</ele>
        <time>2013-05-16T16:31:20Z</time>
      </trkpt>
      <trkpt lat="59.8657938" lon="17.665021">
        <ele>13.5958</ele>
        <time>2013-05-16T16:31:21Z</time>
      </trkpt>
      <trkpt lat="59.8658379" lon="17.6650779">
        <ele>13.1151</ele>
        <time>2013-05-16T16:31:22Z</time>
      </trkpt>
      <trkpt lat="59.8658821" lon="17.6651542">
        <ele>13.5958</ele>
        <time>2013-05-16T16:31:23Z</time>
      </trkpt>
      <trkpt lat="59.865969" lon="17.6652596">
        <ele>15.999</ele>
        <time>2013-05-16T16:31:24Z</time>
      </trkpt>
      <trkpt lat="59.8660248" lon="17.6653385">
        <ele>15.5184</ele>
        <time>2013-05-16T16:31:25Z</time>
      </trkpt>
      <trkpt lat="59.8660998" lon="17.6654394">
        <ele>17.4412</ele>
        <time>2013-05-16T16:31:26Z</time>
      </trkpt>
      <trkpt lat="59.8661497" lon="17.6656073">
        <ele>18.8831</ele>
        <time>2013-05-16T16:31:27Z</time>
      </trkpt>
      <trkpt lat="59.8662159" lon="17.6657293">
        <ele>18.8831</ele>
        <time>2013-05-16T16:31:28Z</time>
      </trkpt>
      <trkpt lat="59.8662333" lon="17.665849">
        <ele>18.4023</ele>
        <time>2013-05-16T16:31:29Z</time>
      </trkpt>
      <trkpt lat="59.8662961" lon="17.6659785">
        <ele>20.325</ele>
        <time>2013-05-16T16:31:30Z</time>
      </trkpt>
      <trkpt lat="59.8662851" lon="17.6661474">
        <ele>21.2864</ele>
        <time>2013-05-16T16:31:31Z</time>
      </trkpt>
      <trkpt lat="59.8663082" lon="17.6662323">
        <ele>18.8831</ele>
        <time>2013-05-16T16:31:32Z</time>
      </trkpt>
      <trkpt lat="59.8663523" lon="17.6663171">
        <ele>15.0377</ele>
        <time>2013-05-16T16:31:33Z</time>
      </trkpt>
      <trkpt lat="59.866364" lon="17.6664216">
        <ele>14.557</ele>
        <time>2013-05-16T16:31:34Z</time>
      </trkpt>
      <trkpt lat="59.8663606" lon="17.6665393">
        <ele>13.5958</ele>
        <time>2013-05-16T16:31:35Z</time>
      </trkpt>
      <trkpt lat="59.8663881" lon="17.6666486">
        <ele>14.0764</ele>
        <time>2013-05-16T16:31:36Z</time>
      </trkpt>
      <trkpt lat="59.8664259" lon="17.6667277">
        <ele>13.5958</ele>
        <time>2013-05-16T16:31:37Z</time>
      </trkpt>
      <trkpt lat="59.8664481" lon="17.6668169">
        <ele>13.1151</ele>
        <time>2013-05-16T16:31:38Z</time>
      </trkpt>
      <trkpt lat="59.8664517" lon="17.6669027">
        <ele>13.5958</ele>
        <time>2013-05-16T16:31:39Z</time>
      </trkpt>
      <trkpt lat="59.8664449" lon="17.6669575">
        <ele>12.6344</ele>
        <time>2013-05-16T16:31:40Z</time>
      </trkpt>
      <trkpt lat="59.8664155" lon="17.6670215">
        <ele>11.6732</ele>
        <time>2013-05-16T16:31:41Z</time>
      </trkpt>
      <trkpt lat="59.866379" lon="17.6670815">
        <ele>9.75061</ele>
        <time>2013-05-16T16:31:42Z</time>
      </trkpt>
      <trkpt lat="59.8663325" lon="17.6671663">
        <ele>8.78918</ele>
        <time>2013-05-16T16:31:43Z</time>
      </trkpt>
      <trkpt lat="59.8662938" lon="17.6672741">
        <ele>9.2699</ele>
        <time>2013-05-16T16:31:44Z</time>
      </trkpt>
      <trkpt lat="59.8662524" lon="17.6673701">
        <ele>8.78918</ele>
        <time>2013-05-16T16:31:45Z</time>
      </trkpt>
      <trkpt lat="59.8662009" lon="17.6674991">
        <ele>9.75061</ele>
        <time>2013-05-16T16:31:46Z</time>
      </trkpt>
      <trkpt lat="59.8661518" lon="17.6676193">
        <ele>10.7118</ele>
        <time>2013-05-16T16:31:47Z</time>
      </trkpt>
      <trkpt lat="59.8661321" lon="17.6677413">
        <ele>10.7118</ele>
        <time>2013-05-16T16:31:48Z</time>
      </trkpt>
      <trkpt lat="59.8661257" lon="17.6678981">
        <ele>10.7118</ele>
        <time>2013-05-16T16:31:49Z</time>
      </trkpt>
      <trkpt lat="59.8661369" lon="17.668088">
        <ele>10.2312</ele>
        <time>2013-05-16T16:31:50Z</time>
      </trkpt>
      <trkpt lat="59.8661347" lon="17.6682348">
        <ele>9.2699</ele>
        <time>2013-05-16T16:31:51Z</time>
      </trkpt>
      <trkpt lat="59.8661299" lon="17.6683661">
        <ele>9.2699</ele>
        <time>2013-05-16T16:31:52Z</time>
      </trkpt>
      <trkpt lat="59.8661323" lon="17.6685365">
        <ele>11.1925</ele>
        <time>2013-05-16T16:31:53Z</time>
      </trkpt>
      <trkpt lat="59.8661364" lon="17.668688">
        <ele>12.1538</ele>
        <time>2013-05-16T16:31:54Z</time>
      </trkpt>
      <trkpt lat="59.8661346" lon="17.6688308">
        <ele>12.1538</ele>
        <time>2013-05-16T16:31:55Z</time>
      </trkpt>
      <trkpt lat="59.8661218" lon="17.6689731">
        <ele>12.6344</ele>
        <time>2013-05-16T16:31:56Z</time>
      </trkpt>
      <trkpt lat="59.8661091" lon="17.6691132">
        <ele>13.1151</ele>
        <time>2013-05-16T16:31:57Z</time>
      </trkpt>
      <trkpt lat="59.8661001" lon="17.6692515">
        <ele>13.1151</ele>
        <time>2013-05-16T16:31:58Z</time>
      </trkpt>
      <trkpt lat="59.8660952" lon="17.6693912">
        <ele>13.1151</ele>
        <time>2013-05-16T16:31:59Z</time>
      </trkpt>
      <trkpt lat="59.8660845" lon="17.6695188">
        <ele>13.5958</ele>
        <time>2013-05-16T16:32:00Z</time>
      </trkpt>
      <trkpt lat="59.8660729" lon="17.6696508">
        <ele>14.0764</ele>
        <time>2013-05-16T16:32:01Z</time>
      </trkpt>
      <trkpt lat="59.8660579" lon="17.6697779">
        <ele>14.557</ele>
        <time>2013-05-16T16:32:02Z</time>
      </trkpt>
      <trkpt lat="59.8660416" lon="17.6699064">
        <ele>14.557</ele>
        <time>2013-05-16T16:32:03Z</time>
      </trkpt>
      <trkpt lat="59.8660284" lon="17.6700352">
        <ele>15.0377</ele>
        <time>2013-05-16T16:32:04Z</time>
      </trkpt>
      <trkpt lat="59.8660165" lon="17.6701672">
        <ele>15.5184</ele>
        <time>2013-05-16T16:32:05Z</time>
      </trkpt>
      <trkpt lat="59.8660104" lon="17.6703011">
        <ele>15.0377</ele>
        <time>2013-05-16T16:32:06Z</time>
      </trkpt>
      <trkpt lat="59.8660062" lon="17.6704399">
        <ele>14.557</ele>
        <time>2013-05-16T16:32:07Z</time>
      </trkpt>
      <trkpt lat="59.8659954" lon="17.6705714">
        <ele>14.0764</ele>
        <time>2013-05-16T16:32:08Z</time>
      </trkpt>
      <trkpt lat="59.865984" lon="17.6707012">
        <ele>14.0764</ele>
        <time>2013-05-16T16:32:09Z</time>
      </trkpt>
      <trkpt lat="59.8659725" lon="17.6708314">
        <ele>14.0764</ele>
        <time>2013-05-16T16:32:10Z</time>
      </trkpt>
      <trkpt lat="59.8659596" lon="17.6709621">
        <ele>13.5958</ele>
        <time>2013-05-16T16:32:11Z</time>
      </trkpt>
      <trkpt lat="59.8659524" lon="17.6710977">
        <ele>13.5958</ele>
        <time>2013-05-16T16:32:12Z</time>
      </trkpt>
      <trkpt lat="59.8659441" lon="17.6712333">
        <ele>12.6344</ele>
        <time>2013-05-16T16:32:13Z</time>
      </trkpt>
      <trkpt lat="59.8659357" lon="17.671362">
        <ele>12.6344</ele>
        <time>2013-05-16T16:32:14Z</time>
      </trkpt>
      <trkpt lat="59.8659256" lon="17.6714902">
        <ele>12.6344</ele>
        <time>2013-05-16T16:32:15Z</time>
      </trkpt>
      <trkpt lat="59.8659083" lon="17.6716196">
        <ele>12.6344</ele>
        <time>2013-05-16T16:32:16Z</time>
      </trkpt>
      <trkpt lat="59.8658917" lon="17.6717504">
        <ele>12.6344</ele>
        <time>2013-05-16T16:32:17Z</time>
      </trkpt>
      <trkpt lat="59.8658799" lon="17.6718809">
        <ele>12.6344</ele>
        <time>2013-05-16T16:32:18Z</time>
      </trkpt>
      <trkpt lat="59.8658674" lon="17.67201">
        <ele>12.6344</ele>
        <time>2013-05-16T16:32:19Z</time>
      </trkpt>
      <trkpt lat="59.8658576" lon="17.6721357">
        <ele>13.1151</ele>
        <time>2013-05-16T16:32:20Z</time>
      </trkpt>
      <trkpt lat="59.865847" lon="17.6722617">
        <ele>13.5958</ele>
        <time>2013-05-16T16:32:21Z</time>
      </trkpt>
      <trkpt lat="59.8658365" lon="17.6723845">
        <ele>13.5958</ele>
        <time>2013-05-16T16:32:22Z</time>
      </trkpt>
      <trkpt lat="59.8658274" lon="17.6725013">
        <ele>13.1151</ele>
        <time>2013-05-16T16:32:23Z</time>
      </trkpt>
      <trkpt lat="59.8658182" lon="17.6726135">
        <ele>13.5958</ele>
        <time>2013-05-16T16:32:24Z</time>
      </trkpt>
      <trkpt lat="59.865812" lon="17.6727258">
        <ele>13.5958</ele>
        <time>2013-05-16T16:32:25Z</time>
      </trkpt>
      <trkpt lat="59.8658072" lon="17.6728403">
        <ele>13.5958</ele>
        <time>2013-05-16T16:32:26Z</time>
      </trkpt>
      <trkpt lat="59.8658125" lon="17.6729584">
        <ele>13.5958</ele>
        <time>2013-05-16T16:32:27Z</time>
      </trkpt>
      <trkpt lat="59.8658217" lon="17.6730794">
        <ele>13.1151</ele>
        <time>2013-05-16T16:32:28Z</time>
      </trkpt>
      <trkpt lat="59.8658317" lon="17.6731882">
        <ele>13.5958</ele>
        <time>2013-05-16T16:32:29Z</time>
      </trkpt>
      <trkpt lat="59.8658457" lon="17.673292">
        <ele>13.5958</ele>
        <time>2013-05-16T16:32:30Z</time>
      </trkpt>
      <trkpt lat="59.8659028" lon="17.6734413">
        <ele>14.0764</ele>
        <time>2013-05-16T16:32:31Z</time>
      </trkpt>
      <trkpt lat="59.8659449" lon="17.6735381">
        <ele>14.557</ele>
        <time>2013-05-16T16:32:32Z</time>
      </trkpt>
      <trkpt lat="59.8659814" lon="17.6736546">
        <ele>14.557</ele>
        <time>2013-05-16T16:32:33Z</time>
      </trkpt>
      <trkpt lat="59.8660133" lon="17.6737741">
        <ele>14.0764</ele>
        <time>2013-05-16T16:32:34Z</time>
      </trkpt>
      <trkpt lat="59.8660696" lon="17.6738631">
        <ele>15.0377</ele>
        <time>2013-05-16T16:32:35Z</time>
      </trkpt>
      <trkpt lat="59.8660946" lon="17.6740212">
        <ele>17.4412</ele>
        <time>2013-05-16T16:32:36Z</time>
      </trkpt>
      <trkpt lat="59.8661643" lon="17.6741141">
        <ele>18.8831</ele>
        <time>2013-05-16T16:32:37Z</time>
      </trkpt>
      <trkpt lat="59.8662089" lon="17.6742254">
        <ele>20.8057</ele>
        <time>2013-05-16T16:32:38Z</time>
      </trkpt>
      <trkpt lat="59.8662226" lon="17.674327">
        <ele>21.2864</ele>
        <time>2013-05-16T16:32:39Z</time>
      </trkpt>
      <trkpt lat="59.8662705" lon="17.6744041">
        <ele>22.2476</ele>
        <time>2013-05-16T16:32:40Z</time>
      </trkpt>
      <trkpt lat="59.8663097" lon="17.6745203">
        <ele>22.2476</ele>
        <time>2013-05-16T16:32:41Z</time>
      </trkpt>
      <trkpt lat="59.8663725" lon="17.6746542">
        <ele>23.6896</ele>
        <time>2013-05-16T16:32:42Z</time>
      </trkpt>
      <trkpt lat="59.8663993" lon="17.6748238">
        <ele>25.1317</ele>
        <time>2013-05-16T16:32:43Z</time>
      </trkpt>
      <trkpt lat="59.8663884" lon="17.6750043">
        <ele>27.5349</ele>
        <time>2013-05-16T16:32:44Z</time>
      </trkpt>
      <trkpt lat="59.8663704" lon="17.6752238">
        <ele>28.9769</ele>
        <time>2013-05-16T16:32:45Z</time>
      </trkpt>
      <trkpt lat="59.8664062" lon="17.6751856">
        <ele>28.0155</ele>
        <time>2013-05-16T16:32:46Z</time>
      </trkpt>
      <trkpt lat="59.8664681" lon="17.6751799">
        <ele>25.6123</ele>
        <time>2013-05-16T16:32:47Z</time>
      </trkpt>
      <trkpt lat="59.8665102" lon="17.6753262">
        <ele>25.1317</ele>
        <time>2013-05-16T16:32:48Z</time>
      </trkpt>
      <trkpt lat="59.8665611" lon="17.6753729">
        <ele>27.0543</ele>
        <time>2013-05-16T16:32:49Z</time>
      </trkpt>
      <trkpt lat="59.866574" lon="17.6755345">
        <ele>28.9769</ele>
        <time>2013-05-16T16:32:50Z</time>
      </trkpt>
      <trkpt lat="59.8666261" lon="17.6756551">
        <ele>28.4962</ele>
        <time>2013-05-16T16:32:51Z</time>
      </trkpt>
      <trkpt lat="59.8666419" lon="17.6757229">
        <ele>25.6123</ele>
        <time>2013-05-16T16:32:52Z</time>
      </trkpt>
      <trkpt lat="59.8666507" lon="17.675839">
        <ele>25.6123</ele>
        <time>2013-05-16T16:32:53Z</time>
      </trkpt>
      <trkpt lat="59.8666895" lon="17.6759234">
        <ele>25.6123</ele>
        <time>2013-05-16T16:32:54Z</time>
      </trkpt>
      <trkpt lat="59.8667336" lon="17.6760181">
        <ele>25.1317</ele>
        <time>2013-05-16T16:32:55Z</time>
      </trkpt>
      <trkpt lat="59.8667615" lon="17.6761175">
        <ele>24.651</ele>
        <time>2013-05-16T16:32:56Z</time>
      </trkpt>
      <trkpt lat="59.86676" lon="17.6762518">
        <ele>24.1703</ele>
        <time>2013-05-16T16:32:57Z</time>
      </trkpt>
      <trkpt lat="59.8667853" lon="17.6763636">
        <ele>22.7283</ele>
        <time>2013-05-16T16:32:58Z</time>
      </trkpt>
      <trkpt lat="59.8668204" lon="17.6764698">
        <ele>22.2476</ele>
        <time>2013-05-16T16:32:59Z</time>
      </trkpt>
      <trkpt lat="59.8668896" lon="17.6765568">
        <ele>21.767</ele>
        <time>2013-05-16T16:33:00Z</time>
      </trkpt>
      <trkpt lat="59.8669138" lon="17.6766689">
        <ele>23.209</ele>
        <time>2013-05-16T16:33:01Z</time>
      </trkpt>
      <trkpt lat="59.8669375" lon="17.676772">
        <ele>21.767</ele>
        <time>2013-05-16T16:33:02Z</time>
      </trkpt>
      <trkpt lat="59.8669698" lon="17.6768787">
        <ele>20.325</ele>
        <time>2013-05-16T16:33:03Z</time>
      </trkpt>
      <trkpt lat="59.8670296" lon="17.6769969">
        <ele>20.325</ele>
        <time>2013-05-16T16:33:04Z</time>
      </trkpt>
      <trkpt lat="59.867078" lon="17.677147">
        <ele>21.767</ele>
        <time>2013-05-16T16:33:05Z</time>
      </trkpt>
      <trkpt lat="59.8671204" lon="17.6772486">
        <ele>22.2476</ele>
        <time>2013-05-16T16:33:06Z</time>
      </trkpt>
      <trkpt lat="59.8671624" lon="17.6773319">
        <ele>21.2864</ele>
        <time>2013-05-16T16:33:07Z</time>
      </trkpt>
      <trkpt lat="59.8671944" lon="17.6773809">
        <ele>18.8831</ele>
        <time>2013-05-16T16:33:08Z</time>
      </trkpt>
      <trkpt lat="59.8672084" lon="17.6774967">
        <ele>17.4412</ele>
        <time>2013-05-16T16:33:09Z</time>
      </trkpt>
      <trkpt lat="59.8672195" lon="17.6776286">
        <ele>16.9604</ele>
        <time>2013-05-16T16:33:10Z</time>
      </trkpt>
      <trkpt lat="59.8672516" lon="17.6777307">
        <ele>18.8831</ele>
        <time>2013-05-16T16:33:11Z</time>
      </trkpt>
      <trkpt lat="59.8672703" lon="17.6778562">
        <ele>20.8057</ele>
        <time>2013-05-16T16:33:12Z</time>
      </trkpt>
      <trkpt lat="59.8672828" lon="17.677986">
        <ele>21.767</ele>
        <time>2013-05-16T16:33:13Z</time>
      </trkpt>
      <trkpt lat="59.867297" lon="17.6781284">
        <ele>23.6896</ele>
        <time>2013-05-16T16:33:14Z</time>
      </trkpt>
      <trkpt lat="59.8673104" lon="17.6782617">
        <ele>25.1317</ele>
        <time>2013-05-16T16:33:15Z</time>
      </trkpt>
      <trkpt lat="59.8673302" lon="17.6783871">
        <ele>26.0929</ele>
        <time>2013-05-16T16:33:16Z</time>
      </trkpt>
      <trkpt lat="59.867343" lon="17.6785151">
        <ele>25.6123</ele>
        <time>2013-05-16T16:33:17Z</time>
      </trkpt>
      <trkpt lat="59.8673503" lon="17.6786392">
        <ele>24.1703</ele>
        <time>2013-05-16T16:33:18Z</time>
      </trkpt>
      <trkpt lat="59.8673526" lon="17.6787719">
        <ele>23.209</ele>
        <time>2013-05-16T16:33:19Z</time>
      </trkpt>
      <trkpt lat="59.8673689" lon="17.6788823">
        <ele>22.2476</ele>
        <time>2013-05-16T16:33:20Z</time>
      </trkpt>
      <trkpt lat="59.8673765" lon="17.6789869">
        <ele>21.767</ele>
        <time>2013-05-16T16:33:21Z</time>
      </trkpt>
      <trkpt lat="59.8673731" lon="17.6790849">
        <ele>21.2864</ele>
        <time>2013-05-16T16:33:22Z</time>
      </trkpt>
      <trkpt lat="59.8673641" lon="17.6791926">
        <ele>20.8057</ele>
        <time>2013-05-16T16:33:23Z</time>
      </trkpt>
      <trkpt lat="59.8673376" lon="17.6792807">
        <ele>20.325</ele>
        <time>2013-05-16T16:33:24Z</time>
      </trkpt>
      <trkpt lat="59.8672721" lon="17.6793381">
        <ele>20.325</ele>
        <time>2013-05-16T16:33:25Z</time>
      </trkpt>
      <trkpt lat="59.867219" lon="17.6793748">
        <ele>19.8444</ele>
        <time>2013-05-16T16:33:26Z</time>
      </trkpt>
      <trkpt lat="59.8671417" lon="17.6793533">
        <ele>20.325</ele>
        <time>2013-05-16T16:33:27Z</time>
      </trkpt>
      <trkpt lat="59.8670719" lon="17.6793444">
        <ele>19.3638</ele>
        <time>2013-05-16T16:33:28Z</time>
      </trkpt>
      <trkpt lat="59.8669998" lon="17.6793589">
        <ele>19.3638</ele>
        <time>2013-05-16T16:33:29Z</time>
      </trkpt>
      <trkpt lat="59.8669426" lon="17.6793515">
        <ele>19.3638</ele>
        <time>2013-05-16T16:33:30Z</time>
      </trkpt>
      <trkpt lat="59.86688" lon="17.6793543">
        <ele>18.8831</ele>
        <time>2013-05-16T16:33:31Z</time>
      </trkpt>
      <trkpt lat="59.8668273" lon="17.6793454">
        <ele>18.4023</ele>
        <time>2013-05-16T16:33:32Z</time>
      </trkpt>
      <trkpt lat="59.8667569" lon="17.6793841">
        <ele>19.8444</ele>
        <time>2013-05-16T16:33:33Z</time>
      </trkpt>
      <trkpt lat="59.8667003" lon="17.6794317">
        <ele>20.325</ele>
        <time>2013-05-16T16:33:34Z</time>
      </trkpt>
      <trkpt lat="59.8666429" lon="17.6794579">
        <ele>20.325</ele>
        <time>2013-05-16T16:33:35Z</time>
      </trkpt>
      <trkpt lat="59.8665852" lon="17.6794949">
        <ele>20.325</ele>
        <time>2013-05-16T16:33:36Z</time>
      </trkpt>
      <trkpt lat="59.8665196" lon="17.6795345">
        <ele>19.8444</ele>
        <time>2013-05-16T16:33:37Z</time>
      </trkpt>
      <trkpt lat="59.8664538" lon="17.6795721">
        <ele>19.8444</ele>
        <time>2013-05-16T16:33:38Z</time>
      </trkpt>
      <trkpt lat="59.8663855" lon="17.6796054">
        <ele>18.8831</ele>
        <time>2013-05-16T16:33:39Z</time>
      </trkpt>
      <trkpt lat="59.8663223" lon="17.679645">
        <ele>18.8831</ele>
        <time>2013-05-16T16:33:40Z</time>
      </trkpt>
      <trkpt lat="59.8662571" lon="17.6796814">
        <ele>18.4023</ele>
        <time>2013-05-16T16:33:41Z</time>
      </trkpt>
      <trkpt lat="59.8661825" lon="17.6797175">
        <ele>18.4023</ele>
        <time>2013-05-16T16:33:42Z</time>
      </trkpt>
      <trkpt lat="59.8661068" lon="17.6797489">
        <ele>18.8831</ele>
        <time>2013-05-16T16:33:43Z</time>
      </trkpt>
      <trkpt lat="59.866042" lon="17.679767">
        <ele>18.8831</ele>
        <time>2013-05-16T16:33:44Z</time>
      </trkpt>
      <trkpt lat="59.8659648" lon="17.6798289">
        <ele>19.3638</ele>
        <time>2013-05-16T16:33:45Z</time>
      </trkpt>
      <trkpt lat="59.865895" lon="17.6798588">
        <ele>18.8831</ele>
        <time>2013-05-16T16:33:46Z</time>
      </trkpt>
      <trkpt lat="59.8658307" lon="17.6798892">
        <ele>18.4023</ele>
        <time>2013-05-16T16:33:47Z</time>
      </trkpt>
      <trkpt lat="59.8657745" lon="17.6799303">
        <ele>19.3638</ele>
        <time>2013-05-16T16:33:48Z</time>
      </trkpt>
      <trkpt lat="59.865712" lon="17.6799628">
        <ele>19.8444</ele>
        <time>2013-05-16T16:33:49Z</time>
      </trkpt>
      <trkpt lat="59.86565" lon="17.6799862">
        <ele>21.767</ele>
        <time>2013-05-16T16:33:50Z</time>
      </trkpt>
      <trkpt lat="59.8655831" lon="17.6800171">
        <ele>21.767</ele>
        <time>2013-05-16T16:33:51Z</time>
      </trkpt>
      <trkpt lat="59.8655286" lon="17.6800702">
        <ele>21.767</ele>
        <time>2013-05-16T16:33:52Z</time>
      </trkpt>
      <trkpt lat="59.8654857" lon="17.6801432">
        <ele>21.767</ele>
        <time>2013-05-16T16:33:53Z</time>
      </trkpt>
      <trkpt lat="59.8654402" lon="17.6802022">
        <ele>21.2864</ele>
        <time>2013-05-16T16:33:54Z</time>
      </trkpt>
      <trkpt lat="59.8653929" lon="17.6802369">
        <ele>20.8057</ele>
        <time>2013-05-16T16:33:55Z</time>
      </trkpt>
      <trkpt lat="59.8653466" lon="17.6802544">
        <ele>20.325</ele>
        <time>2013-05-16T16:33:56Z</time>
      </trkpt>
      <trkpt lat="59.8653045" lon="17.6802794">
        <ele>19.3638</ele>
        <time>2013-05-16T16:33:57Z</time>
      </trkpt>
      <trkpt lat="59.8652696" lon="17.6803187">
        <ele>18.8831</ele>
        <time>2013-05-16T16:33:58Z</time>
      </trkpt>
      <trkpt lat="59.8652329" lon="17.6803598">
        <ele>17.9218</ele>
        <time>2013-05-16T16:33:59Z</time>
      </trkpt>
      <trkpt lat="59.8651945" lon="17.6804006">
        <ele>16.9604</ele>
        <time>2013-05-16T16:34:00Z</time>
      </trkpt>
      <trkpt lat="59.8651572" lon="17.6804517">
        <ele>15.999</ele>
        <time>2013-05-16T16:34:01Z</time>
      </trkpt>
      <trkpt lat="59.865118" lon="17.6805105">
        <ele>15.999</ele>
        <time>2013-05-16T16:34:02Z</time>
      </trkpt>
      <trkpt lat="59.8650833" lon="17.6805807">
        <ele>15.0377</ele>
        <time>2013-05-16T16:34:03Z</time>
      </trkpt>
      <trkpt lat="59.8650573" lon="17.6806669">
        <ele>15.0377</ele>
        <time>2013-05-16T16:34:04Z</time>
      </trkpt>
      <trkpt lat="59.8650432" lon="17.6807648">
        <ele>14.557</ele>
        <time>2013-05-16T16:34:05Z</time>
      </trkpt>
      <trkpt lat="59.8650361" lon="17.6808672">
        <ele>14.0764</ele>
        <time>2013-05-16T16:34:06Z</time>
      </trkpt>
      <trkpt lat="59.8650283" lon="17.6809688">
        <ele>13.5958</ele>
        <time>2013-05-16T16:34:07Z</time>
      </trkpt>
      <trkpt lat="59.8650162" lon="17.6810688">
        <ele>13.1151</ele>
        <time>2013-05-16T16:34:08Z</time>
      </trkpt>
      <trkpt lat="59.864998" lon="17.681158">
        <ele>12.1538</ele>
        <time>2013-05-16T16:34:09Z</time>
      </trkpt>
      <trkpt lat="59.8649644" lon="17.6812466">
        <ele>11.6732</ele>
        <time>2013-05-16T16:34:10Z</time>
      </trkpt>
      <trkpt lat="59.8649251" lon="17.6813305">
        <ele>11.6732</ele>
        <time>2013-05-16T16:34:11Z</time>
      </trkpt>
      <trkpt lat="59.8648776" lon="17.6814003">
        <ele>11.1925</ele>
        <time>2013-05-16T16:34:12Z</time>
      </trkpt>
      <trkpt lat="59.8648304" lon="17.6814719">
        <ele>10.7118</ele>
        <time>2013-05-16T16:34:13Z</time>
      </trkpt>
      <trkpt lat="59.8647841" lon="17.6815506">
        <ele>10.2312</ele>
        <time>2013-05-16T16:34:14Z</time>
      </trkpt>
      <trkpt lat="59.8647352" lon="17.6816295">
        <ele>10.2312</ele>
        <time>2013-05-16T16:34:15Z</time>
      </trkpt>
      <trkpt lat="59.8646827" lon="17.6817014">
        <ele>10.2312</ele>
        <time>2013-05-16T16:34:16Z</time>
      </trkpt>
      <trkpt lat="59.8646276" lon="17.6817666">
        <ele>9.75061</ele>
        <time>2013-05-16T16:34:17Z</time>
      </trkpt>
      <trkpt lat="59.8645693" lon="17.6818195">
        <ele>9.2699</ele>
        <time>2013-05-16T16:34:18Z</time>
      </trkpt>
      <trkpt lat="59.8645097" lon="17.6818701">
        <ele>8.78918</ele>
        <time>2013-05-16T16:34:19Z</time>
      </trkpt>
      <trkpt lat="59.8644471" lon="17.6819153">
        <ele>8.78918</ele>
        <time>2013-05-16T16:34:20Z</time>
      </trkpt>
      <trkpt lat="59.8643866" lon="17.6819646">
        <ele>8.78918</ele>
        <time>2013-05-16T16:34:21Z</time>
      </trkpt>
      <trkpt lat="59.8643274" lon="17.682018">
        <ele>8.78918</ele>
        <time>2013-05-16T16:34:22Z</time>
      </trkpt>
      <trkpt lat="59.8642679" lon="17.6820737">
        <ele>8.30859</ele>
        <time>2013-05-16T16:34:23Z</time>
      </trkpt>
      <trkpt lat="59.8642046" lon="17.6821214">
        <ele>8.30859</ele>
        <time>2013-05-16T16:34:24Z</time>
      </trkpt>
      <trkpt lat="59.8641407" lon="17.6821658">
        <ele>8.78918</ele>
        <time>2013-05-16T16:34:25Z</time>
      </trkpt>
      <trkpt lat="59.8640773" lon="17.6822101">
        <ele>8.78918</ele>
        <time>2013-05-16T16:34:26Z</time>
      </trkpt>
      <trkpt lat="59.8640176" lon="17.6822586">
        <ele>8.30859</ele>
        <time>2013-05-16T16:34:27Z</time>
      </trkpt>
      <trkpt lat="59.8639561" lon="17.6823038">
        <ele>8.78918</ele>
        <time>2013-05-16T16:34:28Z</time>
      </trkpt>
      <trkpt lat="59.8638936" lon="17.6823489">
        <ele>8.78918</ele>
        <time>2013-05-16T16:34:29Z</time>
      </trkpt>
      <trkpt lat="59.8638327" lon="17.6823965">
        <ele>8.78918</ele>
        <time>2013-05-16T16:34:30Z</time>
      </trkpt>
      <trkpt lat="59.8637716" lon="17.6824461">
        <ele>8.30859</ele>
        <time>2013-05-16T16:34:31Z</time>
      </trkpt>
      <trkpt lat="59.8637084" lon="17.6824929">
        <ele>8.30859</ele>
        <time>2013-05-16T16:34:32Z</time>
      </trkpt>
      <trkpt lat="59.8636447" lon="17.6825393">
        <ele>8.30859</ele>
        <time>2013-05-16T16:34:33Z</time>
      </trkpt>
      <trkpt lat="59.8635815" lon="17.6825938">
        <ele>7.82788</ele>
        <time>2013-05-16T16:34:34Z</time>
      </trkpt>
      <trkpt lat="59.8635151" lon="17.682653">
        <ele>8.30859</ele>
        <time>2013-05-16T16:34:35Z</time>
      </trkpt>
      <trkpt lat="59.8634529" lon="17.6827066">
        <ele>7.82788</ele>
        <time>2013-05-16T16:34:36Z</time>
      </trkpt>
      <trkpt lat="59.8633917" lon="17.6827532">
        <ele>7.82788</ele>
        <time>2013-05-16T16:34:37Z</time>
      </trkpt>
      <trkpt lat="59.8633323" lon="17.6827978">
        <ele>7.82788</ele>
        <time>2013-05-16T16:34:38Z</time>
      </trkpt>
      <trkpt lat="59.8632723" lon="17.6828359">
        <ele>7.34717</ele>
        <time>2013-05-16T16:34:39Z</time>
      </trkpt>
      <trkpt lat="59.8632091" lon="17.6828643">
        <ele>7.82788</ele>
        <time>2013-05-16T16:34:40Z</time>
      </trkpt>
      <trkpt lat="59.8631442" lon="17.6828973">
        <ele>8.30859</ele>
        <time>2013-05-16T16:34:41Z</time>
      </trkpt>
      <trkpt lat="59.8630794" lon="17.6829373">
        <ele>8.30859</ele>
        <time>2013-05-16T16:34:42Z</time>
      </trkpt>
      <trkpt lat="59.8630148" lon="17.6829732">
        <ele>8.78918</ele>
        <time>2013-05-16T16:34:43Z</time>
      </trkpt>
      <trkpt lat="59.8629509" lon="17.6830088">
        <ele>9.2699</ele>
        <time>2013-05-16T16:34:44Z</time>
      </trkpt>
      <trkpt lat="59.8628859" lon="17.6830423">
        <ele>10.2312</ele>
        <time>2013-05-16T16:34:45Z</time>
      </trkpt>
      <trkpt lat="59.8628231" lon="17.6830813">
        <ele>10.2312</ele>
        <time>2013-05-16T16:34:46Z</time>
      </trkpt>
      <trkpt lat="59.8627616" lon="17.6831259">
        <ele>10.7118</ele>
        <time>2013-05-16T16:34:47Z</time>
      </trkpt>
      <trkpt lat="59.8627037" lon="17.683172">
        <ele>11.1925</ele>
        <time>2013-05-16T16:34:48Z</time>
      </trkpt>
      <trkpt lat="59.8626476" lon="17.6832179">
        <ele>11.1925</ele>
        <time>2013-05-16T16:34:49Z</time>
      </trkpt>
      <trkpt lat="59.8625932" lon="17.6832663">
        <ele>11.1925</ele>
        <time>2013-05-16T16:34:50Z</time>
      </trkpt>
      <trkpt lat="59.8625381" lon="17.6833125">
        <ele>10.7118</ele>
        <time>2013-05-16T16:34:51Z</time>
      </trkpt>
      <trkpt lat="59.8624817" lon="17.6833543">
        <ele>10.7118</ele>
        <time>2013-05-16T16:34:52Z</time>
      </trkpt>
      <trkpt lat="59.8624242" lon="17.6833967">
        <ele>10.7118</ele>
        <time>2013-05-16T16:34:53Z</time>
      </trkpt>
      <trkpt lat="59.8623678" lon="17.6834414">
        <ele>10.7118</ele>
        <time>2013-05-16T16:34:54Z</time>
      </trkpt>
      <trkpt lat="59.8623106" lon="17.6834857">
        <ele>10.7118</ele>
        <time>2013-05-16T16:34:55Z</time>
      </trkpt>
      <trkpt lat="59.8622542" lon="17.6835342">
        <ele>10.7118</ele>
        <time>2013-05-16T16:34:56Z</time>
      </trkpt>
      <trkpt lat="59.8621952" lon="17.6835839">
        <ele>10.7118</ele>
        <time>2013-05-16T16:34:57Z</time>
      </trkpt>
      <trkpt lat="59.8621357" lon="17.6836352">
        <ele>10.7118</ele>
        <time>2013-05-16T16:34:58Z</time>
      </trkpt>
      <trkpt lat="59.8620726" lon="17.6836839">
        <ele>10.7118</ele>
        <time>2013-05-16T16:34:59Z</time>
      </trkpt>
      <trkpt lat="59.8620099" lon="17.6837286">
        <ele>10.7118</ele>
        <time>2013-05-16T16:35:00Z</time>
      </trkpt>
      <trkpt lat="59.8619457" lon="17.6837702">
        <ele>10.7118</ele>
        <time>2013-05-16T16:35:01Z</time>
      </trkpt>
      <trkpt lat="59.8618837" lon="17.6838148">
        <ele>10.7118</ele>
        <time>2013-05-16T16:35:02Z</time>
      </trkpt>
      <trkpt lat="59.8618242" lon="17.6838597">
        <ele>11.1925</ele>
        <time>2013-05-16T16:35:03Z</time>
      </trkpt>
      <trkpt lat="59.8617648" lon="17.6839075">
        <ele>11.1925</ele>
        <time>2013-05-16T16:35:04Z</time>
      </trkpt>
      <trkpt lat="59.8617047" lon="17.6839525">
        <ele>11.1925</ele>
        <time>2013-05-16T16:35:05Z</time>
      </trkpt>
      <trkpt lat="59.8616462" lon="17.6839998">
        <ele>11.1925</ele>
        <time>2013-05-16T16:35:06Z</time>
      </trkpt>
      <trkpt lat="59.8615862" lon="17.6840434">
        <ele>11.1925</ele>
        <time>2013-05-16T16:35:07Z</time>
      </trkpt>
      <trkpt lat="59.8615255" lon="17.6840785">
        <ele>11.1925</ele>
        <time>2013-05-16T16:35:08Z</time>
      </trkpt>
      <trkpt lat="59.8614671" lon="17.6841208">
        <ele>10.7118</ele>
        <time>2013-05-16T16:35:09Z</time>
      </trkpt>
      <trkpt lat="59.8614095" lon="17.684165">
        <ele>10.2312</ele>
        <time>2013-05-16T16:35:10Z</time>
      </trkpt>
      <trkpt lat="59.8613526" lon="17.6842106">
        <ele>10.2312</ele>
        <time>2013-05-16T16:35:11Z</time>
      </trkpt>
      <trkpt lat="59.8612954" lon="17.6842628">
        <ele>9.2699</ele>
        <time>2013-05-16T16:35:12Z</time>
      </trkpt>
      <trkpt lat="59.8612349" lon="17.6843069">
        <ele>9.2699</ele>
        <time>2013-05-16T16:35:13Z</time>
      </trkpt>
      <trkpt lat="59.8611773" lon="17.6843551">
        <ele>8.78918</ele>
        <time>2013-05-16T16:35:14Z</time>
      </trkpt>
      <trkpt lat="59.8611223" lon="17.6844096">
        <ele>7.82788</ele>
        <time>2013-05-16T16:35:15Z</time>
      </trkpt>
      <trkpt lat="59.8610664" lon="17.6844639">
        <ele>7.34717</ele>
        <time>2013-05-16T16:35:16Z</time>
      </trkpt>
      <trkpt lat="59.8610093" lon="17.6845212">
        <ele>6.86646</ele>
        <time>2013-05-16T16:35:17Z</time>
      </trkpt>
      <trkpt lat="59.8609489" lon="17.6845759">
        <ele>6.86646</ele>
        <time>2013-05-16T16:35:18Z</time>
      </trkpt>
      <trkpt lat="59.8608892" lon="17.6846315">
        <ele>6.86646</ele>
        <time>2013-05-16T16:35:19Z</time>
      </trkpt>
      <trkpt lat="59.8608303" lon="17.6846896">
        <ele>6.38586</ele>
        <time>2013-05-16T16:35:20Z</time>
      </trkpt>
      <trkpt lat="59.8607727" lon="17.6847462">
        <ele>6.38586</ele>
        <time>2013-05-16T16:35:21Z</time>
      </trkpt>
      <trkpt lat="59.8607133" lon="17.684803">
        <ele>6.38586</ele>
        <time>2013-05-16T16:35:22Z</time>
      </trkpt>
      <trkpt lat="59.8606526" lon="17.6848659">
        <ele>6.38586</ele>
        <time>2013-05-16T16:35:23Z</time>
      </trkpt>
      <trkpt lat="59.8605924" lon="17.6849299">
        <ele>6.38586</ele>
        <time>2013-05-16T16:35:24Z</time>
      </trkpt>
      <trkpt lat="59.8605351" lon="17.6849996">
        <ele>5.90527</ele>
        <time>2013-05-16T16:35:25Z</time>
      </trkpt>
      <trkpt lat="59.8604797" lon="17.6850715">
        <ele>5.42456</ele>
        <time>2013-05-16T16:35:26Z</time>
      </trkpt>
      <trkpt lat="59.8604211" lon="17.6851136">
        <ele>4.94385</ele>
        <time>2013-05-16T16:35:27Z</time>
      </trkpt>
      <trkpt lat="59.8603616" lon="17.6851643">
        <ele>4.94385</ele>
        <time>2013-05-16T16:35:28Z</time>
      </trkpt>
      <trkpt lat="59.8603083" lon="17.6852267">
        <ele>4.46326</ele>
        <time>2013-05-16T16:35:29Z</time>
      </trkpt>
      <trkpt lat="59.860252" lon="17.6852972">
        <ele>4.46326</ele>
        <time>2013-05-16T16:35:30Z</time>
      </trkpt>
      <trkpt lat="59.8601879" lon="17.6853704">
        <ele>4.46326</ele>
        <time>2013-05-16T16:35:31Z</time>
      </trkpt>
      <trkpt lat="59.860122" lon="17.6854344">
        <ele>4.46326</ele>
        <time>2013-05-16T16:35:32Z</time>
      </trkpt>
      <trkpt lat="59.8600622" lon="17.6854906">
        <ele>4.46326</ele>
        <time>2013-05-16T16:35:33Z</time>
      </trkpt>
      <trkpt lat="59.8600031" lon="17.6855472">
        <ele>4.46326</ele>
        <time>2013-05-16T16:35:34Z</time>
      </trkpt>
      <trkpt lat="59.8599461" lon="17.6856049">
        <ele>4.46326</ele>
        <time>2013-05-16T16:35:35Z</time>
      </trkpt>
      <trkpt lat="59.8598923" lon="17.6856574">
        <ele>4.46326</ele>
        <time>2013-05-16T16:35:36Z</time>
      </trkpt>
      <trkpt lat="59.8598414" lon="17.6857091">
        <ele>3.98267</ele>
        <time>2013-05-16T16:35:37Z</time>
      </trkpt>
      <trkpt lat="59.8597983" lon="17.6857686">
        <ele>4.46326</ele>
        <time>2013-05-16T16:35:38Z</time>
      </trkpt>
      <trkpt lat="59.859757" lon="17.6858285">
        <ele>4.46326</ele>
        <time>2013-05-16T16:35:39Z</time>
      </trkpt>
      <trkpt lat="59.8597176" lon="17.6858873">
        <ele>5.42456</ele>
        <time>2013-05-16T16:35:40Z</time>
      </trkpt>
      <trkpt lat="59.859682" lon="17.6859502">
        <ele>5.90527</ele>
        <time>2013-05-16T16:35:41Z</time>
      </trkpt>
      <trkpt lat="59.8596459" lon="17.6860138">
        <ele>6.38586</ele>
        <time>2013-05-16T16:35:42Z</time>
      </trkpt>
      <trkpt lat="59.8596081" lon="17.6860652">
        <ele>6.86646</ele>
        <time>2013-05-16T16:35:43Z</time>
      </trkpt>
      <trkpt lat="59.8595801" lon="17.6861179">
        <ele>6.86646</ele>
        <time>2013-05-16T16:35:44Z</time>
      </trkpt>
      <trkpt lat="59.8595714" lon="17.6861806">
        <ele>6.38586</ele>
        <time>2013-05-16T16:35:45Z</time>
      </trkpt>
      <trkpt lat="59.8595653" lon="17.6862416">
        <ele>6.38586</ele>
        <time>2013-05-16T16:35:46Z</time>
      </trkpt>
      <trkpt lat="59.8595623" lon="17.6862859">
        <ele>6.38586</ele>
        <time>2013-05-16T16:35:47Z</time>
      </trkpt>
      <trkpt lat="59.8595539" lon="17.6863298">
        <ele>6.86646</ele>
        <time>2013-05-16T16:35:48Z</time>
      </trkpt>
      <trkpt lat="59.8595467" lon="17.686357">
        <ele>6.86646</ele>
        <time>2013-05-16T16:35:49Z</time>
      </trkpt>
      <trkpt lat="59.8595348" lon="17.6863701">
        <ele>6.86646</ele>
        <time>2013-05-16T16:35:50Z</time>
      </trkpt>
      <trkpt lat="59.859525" lon="17.6863824">
        <ele>6.38586</ele>
        <time>2013-05-16T16:35:51Z</time>
      </trkpt>
      <trkpt lat="59.8595172" lon="17.6863976">
        <ele>6.38586</ele>
        <time>2013-05-16T16:35:52Z</time>
      </trkpt>
      <trkpt lat="59.8595108" lon="17.6864102">
        <ele>6.38586</ele>
        <time>2013-05-16T16:35:53Z</time>
      </trkpt>
      <trkpt lat="59.8595058" lon="17.6864213">
        <ele>6.38586</ele>
        <time>2013-05-16T16:35:54Z</time>
      </trkpt>
      <trkpt lat="59.859503" lon="17.686429">
        <ele>6.38586</ele>
        <time>2013-05-16T16:35:55Z</time>
      </trkpt>
      <trkpt lat="59.8595014" lon="17.6864295">
        <ele>6.86646</ele>
        <time>2013-05-16T16:35:56Z</time>
      </trkpt>
      <trkpt lat="59.8594999" lon="17.6864295">
        <ele>6.86646</ele>
        <time>2013-05-16T16:35:57Z</time>
      </trkpt>
      <trkpt lat="59.8594677" lon="17.6864971">
        <ele>8.30859</ele>
        <time>2013-05-16T16:36:22Z</time>
      </trkpt>
      <trkpt lat="59.8594508" lon="17.6865295">
        <ele>8.30859</ele>
        <time>2013-05-16T16:36:23Z</time>
      </trkpt>
      <trkpt lat="59.8594315" lon="17.6865712">
        <ele>8.30859</ele>
        <time>2013-05-16T16:36:24Z</time>
      </trkpt>
      <trkpt lat="59.8594059" lon="17.6866189">
        <ele>8.78918</ele>
        <time>2013-05-16T16:36:25Z</time>
      </trkpt>
      <trkpt lat="59.8593706" lon="17.6866585">
        <ele>8.78918</ele>
        <time>2013-05-16T16:36:26Z</time>
      </trkpt>
      <trkpt lat="59.8593287" lon="17.6866761">
        <ele>9.75061</ele>
        <time>2013-05-16T16:36:27Z</time>
      </trkpt>
      <trkpt lat="59.8592844" lon="17.6866863">
        <ele>10.2312</ele>
        <time>2013-05-16T16:36:28Z</time>
      </trkpt>
      <trkpt lat="59.859237" lon="17.6866914">
        <ele>10.7118</ele>
        <time>2013-05-16T16:36:29Z</time>
      </trkpt>
      <trkpt lat="59.8591916" lon="17.6866975">
        <ele>10.7118</ele>
        <time>2013-05-16T16:36:30Z</time>
      </trkpt>
      <trkpt lat="59.8591489" lon="17.6867069">
        <ele>11.1925</ele>
        <time>2013-05-16T16:36:31Z</time>
      </trkpt>
      <trkpt lat="59.8591068" lon="17.686712">
        <ele>10.7118</ele>
        <time>2013-05-16T16:36:32Z</time>
      </trkpt>
      <trkpt lat="59.8590644" lon="17.6867173">
        <ele>10.7118</ele>
        <time>2013-05-16T16:36:33Z</time>
      </trkpt>
      <trkpt lat="59.8590235" lon="17.6867323">
        <ele>10.2312</ele>
        <time>2013-05-16T16:36:34Z</time>
      </trkpt>
      <trkpt lat="59.8589867" lon="17.6867602">
        <ele>9.75061</ele>
        <time>2013-05-16T16:36:35Z</time>
      </trkpt>
      <trkpt lat="59.8589554" lon="17.6868095">
        <ele>10.2312</ele>
        <time>2013-05-16T16:36:36Z</time>
      </trkpt>
      <trkpt lat="59.8589411" lon="17.6868906">
        <ele>10.2312</ele>
        <time>2013-05-16T16:36:37Z</time>
      </trkpt>
      <trkpt lat="59.8589634" lon="17.6869903">
        <ele>10.2312</ele>
        <time>2013-05-16T16:36:38Z</time>
      </trkpt>
      <trkpt lat="59.8589991" lon="17.687101">
        <ele>10.7118</ele>
        <time>2013-05-16T16:36:39Z</time>
      </trkpt>
      <trkpt lat="59.8590442" lon="17.6872104">
        <ele>10.7118</ele>
        <time>2013-05-16T16:36:40Z</time>
      </trkpt>
      <trkpt lat="59.8590908" lon="17.68734">
        <ele>10.2312</ele>
        <time>2013-05-16T16:36:41Z</time>
      </trkpt>
      <trkpt lat="59.8591336" lon="17.6874689">
        <ele>10.7118</ele>
        <time>2013-05-16T16:36:42Z</time>
      </trkpt>
      <trkpt lat="59.8591725" lon="17.6875977">
        <ele>11.6732</ele>
        <time>2013-05-16T16:36:43Z</time>
      </trkpt>
      <trkpt lat="59.8592234" lon="17.6877161">
        <ele>11.6732</ele>
        <time>2013-05-16T16:36:44Z</time>
      </trkpt>
      <trkpt lat="59.8592673" lon="17.6878207">
        <ele>12.1538</ele>
        <time>2013-05-16T16:36:45Z</time>
      </trkpt>
      <trkpt lat="59.8592872" lon="17.687945">
        <ele>12.1538</ele>
        <time>2013-05-16T16:36:46Z</time>
      </trkpt>
      <trkpt lat="59.8592999" lon="17.6880702">
        <ele>12.1538</ele>
        <time>2013-05-16T16:36:47Z</time>
      </trkpt>
      <trkpt lat="59.8593207" lon="17.688184">
        <ele>12.6344</ele>
        <time>2013-05-16T16:36:48Z</time>
      </trkpt>
      <trkpt lat="59.8593411" lon="17.6882956">
        <ele>12.6344</ele>
        <time>2013-05-16T16:36:49Z</time>
      </trkpt>
      <trkpt lat="59.8593607" lon="17.6884042">
        <ele>12.6344</ele>
        <time>2013-05-16T16:36:50Z</time>
      </trkpt>
      <trkpt lat="59.8593747" lon="17.6885152">
        <ele>12.6344</ele>
        <time>2013-05-16T16:36:51Z</time>
      </trkpt>
      <trkpt lat="59.8593921" lon="17.6886396">
        <ele>11.6732</ele>
        <time>2013-05-16T16:36:52Z</time>
      </trkpt>
      <trkpt lat="59.859404" lon="17.688749">
        <ele>12.1538</ele>
        <time>2013-05-16T16:36:53Z</time>
      </trkpt>
      <trkpt lat="59.859432" lon="17.6888653">
        <ele>12.1538</ele>
        <time>2013-05-16T16:36:54Z</time>
      </trkpt>
      <trkpt lat="59.8594515" lon="17.6889794">
        <ele>12.1538</ele>
        <time>2013-05-16T16:36:55Z</time>
      </trkpt>
      <trkpt lat="59.8594761" lon="17.6890964">
        <ele>12.1538</ele>
        <time>2013-05-16T16:36:56Z</time>
      </trkpt>
      <trkpt lat="59.8595024" lon="17.6892151">
        <ele>12.1538</ele>
        <time>2013-05-16T16:36:57Z</time>
      </trkpt>
      <trkpt lat="59.859526" lon="17.6893368">
        <ele>12.1538</ele>
        <time>2013-05-16T16:36:58Z</time>
      </trkpt>
      <trkpt lat="59.8595489" lon="17.6894596">
        <ele>12.1538</ele>
        <time>2013-05-16T16:36:59Z</time>
      </trkpt>
      <trkpt lat="59.8595717" lon="17.6895825">
        <ele>12.1538</ele>
        <time>2013-05-16T16:37:00Z</time>
      </trkpt>
      <trkpt lat="59.8595915" lon="17.6897088">
        <ele>12.6344</ele>
        <time>2013-05-16T16:37:01Z</time>
      </trkpt>
      <trkpt lat="59.8596107" lon="17.6898368">
        <ele>12.1538</ele>
        <time>2013-05-16T16:37:02Z</time>
      </trkpt>
      <trkpt lat="59.8596268" lon="17.6899683">
        <ele>11.6732</ele>
        <time>2013-05-16T16:37:03Z</time>
      </trkpt>
      <trkpt lat="59.8596399" lon="17.6900972">
        <ele>12.1538</ele>
        <time>2013-05-16T16:37:04Z</time>
      </trkpt>
      <trkpt lat="59.8596601" lon="17.6902184">
        <ele>12.1538</ele>
        <time>2013-05-16T16:37:05Z</time>
      </trkpt>
      <trkpt lat="59.859667" lon="17.6903328">
        <ele>12.6344</ele>
        <time>2013-05-16T16:37:06Z</time>
      </trkpt>
      <trkpt lat="59.8596776" lon="17.6904916">
        <ele>13.5958</ele>
        <time>2013-05-16T16:37:07Z</time>
      </trkpt>
      <trkpt lat="59.8596898" lon="17.6906571">
        <ele>14.0764</ele>
        <time>2013-05-16T16:37:08Z</time>
      </trkpt>
      <trkpt lat="59.859725" lon="17.6907891">
        <ele>13.5958</ele>
        <time>2013-05-16T16:37:09Z</time>
      </trkpt>
      <trkpt lat="59.8597618" lon="17.6909151">
        <ele>13.1151</ele>
        <time>2013-05-16T16:37:10Z</time>
      </trkpt>
      <trkpt lat="59.8598197" lon="17.6910731">
        <ele>13.1151</ele>
        <time>2013-05-16T16:37:11Z</time>
      </trkpt>
      <trkpt lat="59.8598704" lon="17.6912348">
        <ele>14.0764</ele>
        <time>2013-05-16T16:37:12Z</time>
      </trkpt>
      <trkpt lat="59.8599047" lon="17.6913866">
        <ele>14.0764</ele>
        <time>2013-05-16T16:37:13Z</time>
      </trkpt>
      <trkpt lat="59.8599356" lon="17.6915384">
        <ele>14.0764</ele>
        <time>2013-05-16T16:37:14Z</time>
      </trkpt>
      <trkpt lat="59.8599668" lon="17.6916859">
        <ele>14.0764</ele>
        <time>2013-05-16T16:37:15Z</time>
      </trkpt>
      <trkpt lat="59.8599951" lon="17.691837">
        <ele>13.5958</ele>
        <time>2013-05-16T16:37:16Z</time>
      </trkpt>
      <trkpt lat="59.8600182" lon="17.6919896">
        <ele>13.5958</ele>
        <time>2013-05-16T16:37:17Z</time>
      </trkpt>
      <trkpt lat="59.8600367" lon="17.6921437">
        <ele>13.1151</ele>
        <time>2013-05-16T16:37:18Z</time>
      </trkpt>
      <trkpt lat="59.8600552" lon="17.6922952">
        <ele>12.1538</ele>
        <time>2013-05-16T16:37:19Z</time>
      </trkpt>
      <trkpt lat="59.8600739" lon="17.6924464">
        <ele>12.1538</ele>
        <time>2013-05-16T16:37:20Z</time>
      </trkpt>
      <trkpt lat="59.8600978" lon="17.6925934">
        <ele>11.6732</ele>
        <time>2013-05-16T16:37:21Z</time>
      </trkpt>
      <trkpt lat="59.860131" lon="17.6927327">
        <ele>12.1538</ele>
        <time>2013-05-16T16:37:22Z</time>
      </trkpt>
      <trkpt lat="59.8601802" lon="17.6928671">
        <ele>12.1538</ele>
        <time>2013-05-16T16:37:23Z</time>
      </trkpt>
      <trkpt lat="59.8602361" lon="17.6929787">
        <ele>11.6732</ele>
        <time>2013-05-16T16:37:24Z</time>
      </trkpt>
      <trkpt lat="59.8602925" lon="17.6930784">
        <ele>11.6732</ele>
        <time>2013-05-16T16:37:25Z</time>
      </trkpt>
      <trkpt lat="59.8603473" lon="17.6931871">
        <ele>10.7118</ele>
        <time>2013-05-16T16:37:26Z</time>
      </trkpt>
      <trkpt lat="59.8603971" lon="17.6933042">
        <ele>9.75061</ele>
        <time>2013-05-16T16:37:27Z</time>
      </trkpt>
      <trkpt lat="59.860439" lon="17.6934291">
        <ele>9.75061</ele>
        <time>2013-05-16T16:37:28Z</time>
      </trkpt>
      <trkpt lat="59.8604738" lon="17.6935612">
        <ele>9.75061</ele>
        <time>2013-05-16T16:37:29Z</time>
      </trkpt>
      <trkpt lat="59.8604947" lon="17.693698">
        <ele>10.7118</ele>
        <time>2013-05-16T16:37:30Z</time>
      </trkpt>
      <trkpt lat="59.8604972" lon="17.6938386">
        <ele>10.7118</ele>
        <time>2013-05-16T16:37:31Z</time>
      </trkpt>
      <trkpt lat="59.8605014" lon="17.6939876">
        <ele>10.2312</ele>
        <time>2013-05-16T16:37:32Z</time>
      </trkpt>
      <trkpt lat="59.8605107" lon="17.6941396">
        <ele>10.2312</ele>
        <time>2013-05-16T16:37:33Z</time>
      </trkpt>
      <trkpt lat="59.8605247" lon="17.6942919">
        <ele>10.2312</ele>
        <time>2013-05-16T16:37:34Z</time>
      </trkpt>
      <trkpt lat="59.8605408" lon="17.6944424">
        <ele>10.2312</ele>
        <time>2013-05-16T16:37:35Z</time>
      </trkpt>
      <trkpt lat="59.8605562" lon="17.694595">
        <ele>10.2312</ele>
        <time>2013-05-16T16:37:36Z</time>
      </trkpt>
      <trkpt lat="59.8605763" lon="17.6947511">
        <ele>10.7118</ele>
        <time>2013-05-16T16:37:37Z</time>
      </trkpt>
      <trkpt lat="59.860595" lon="17.6949035">
        <ele>11.1925</ele>
        <time>2013-05-16T16:37:38Z</time>
      </trkpt>
      <trkpt lat="59.860619" lon="17.6950535">
        <ele>11.6732</ele>
        <time>2013-05-16T16:37:39Z</time>
      </trkpt>
      <trkpt lat="59.8606431" lon="17.6952037">
        <ele>11.6732</ele>
        <time>2013-05-16T16:37:40Z</time>
      </trkpt>
      <trkpt lat="59.8606719" lon="17.6953525">
        <ele>12.6344</ele>
        <time>2013-05-16T16:37:41Z</time>
      </trkpt>
      <trkpt lat="59.8606982" lon="17.6955041">
        <ele>12.1538</ele>
        <time>2013-05-16T16:37:42Z</time>
      </trkpt>
      <trkpt lat="59.8607245" lon="17.6956465">
        <ele>12.1538</ele>
        <time>2013-05-16T16:37:43Z</time>
      </trkpt>
      <trkpt lat="59.8607515" lon="17.6957907">
        <ele>12.1538</ele>
        <time>2013-05-16T16:37:44Z</time>
      </trkpt>
      <trkpt lat="59.8607781" lon="17.6959311">
        <ele>12.1538</ele>
        <time>2013-05-16T16:37:45Z</time>
      </trkpt>
      <trkpt lat="59.860804" lon="17.6960667">
        <ele>12.1538</ele>
        <time>2013-05-16T16:37:46Z</time>
      </trkpt>
      <trkpt lat="59.8608275" lon="17.6962067">
        <ele>11.6732</ele>
        <time>2013-05-16T16:37:47Z</time>
      </trkpt>
      <trkpt lat="59.8608402" lon="17.6963505">
        <ele>11.6732</ele>
        <time>2013-05-16T16:37:48Z</time>
      </trkpt>
      <trkpt lat="59.8608416" lon="17.6965014">
        <ele>10.7118</ele>
        <time>2013-05-16T16:37:49Z</time>
      </trkpt>
      <trkpt lat="59.8608422" lon="17.6966561">
        <ele>10.2312</ele>
        <time>2013-05-16T16:37:50Z</time>
      </trkpt>
      <trkpt lat="59.8608363" lon="17.6967998">
        <ele>11.1925</ele>
        <time>2013-05-16T16:37:51Z</time>
      </trkpt>
      <trkpt lat="59.8608297" lon="17.6969408">
        <ele>11.1925</ele>
        <time>2013-05-16T16:37:52Z</time>
      </trkpt>
      <trkpt lat="59.8608276" lon="17.6970966">
        <ele>10.7118</ele>
        <time>2013-05-16T16:37:53Z</time>
      </trkpt>
      <trkpt lat="59.8608345" lon="17.6972384">
        <ele>10.7118</ele>
        <time>2013-05-16T16:37:54Z</time>
      </trkpt>
      <trkpt lat="59.8608641" lon="17.6973649">
        <ele>11.1925</ele>
        <time>2013-05-16T16:37:55Z</time>
      </trkpt>
      <trkpt lat="59.8608985" lon="17.6974877">
        <ele>12.1538</ele>
        <time>2013-05-16T16:37:56Z</time>
      </trkpt>
      <trkpt lat="59.8609359" lon="17.6976132">
        <ele>13.1151</ele>
        <time>2013-05-16T16:37:57Z</time>
      </trkpt>
      <trkpt lat="59.8609804" lon="17.6977258">
        <ele>14.0764</ele>
        <time>2013-05-16T16:37:58Z</time>
      </trkpt>
      <trkpt lat="59.8610329" lon="17.6978317">
        <ele>16.4797</ele>
        <time>2013-05-16T16:37:59Z</time>
      </trkpt>
      <trkpt lat="59.8610727" lon="17.6979457">
        <ele>16.9604</ele>
        <time>2013-05-16T16:38:00Z</time>
      </trkpt>
      <trkpt lat="59.8611205" lon="17.6980502">
        <ele>18.4023</ele>
        <time>2013-05-16T16:38:01Z</time>
      </trkpt>
      <trkpt lat="59.8611639" lon="17.6981635">
        <ele>19.3638</ele>
        <time>2013-05-16T16:38:02Z</time>
      </trkpt>
      <trkpt lat="59.8612096" lon="17.6982698">
        <ele>21.767</ele>
        <time>2013-05-16T16:38:03Z</time>
      </trkpt>
      <trkpt lat="59.8612462" lon="17.6983894">
        <ele>21.767</ele>
        <time>2013-05-16T16:38:04Z</time>
      </trkpt>
      <trkpt lat="59.8612982" lon="17.6984924">
        <ele>22.2476</ele>
        <time>2013-05-16T16:38:05Z</time>
      </trkpt>
      <trkpt lat="59.861356" lon="17.6985926">
        <ele>23.209</ele>
        <time>2013-05-16T16:38:06Z</time>
      </trkpt>
      <trkpt lat="59.8614136" lon="17.6986842">
        <ele>24.651</ele>
        <time>2013-05-16T16:38:07Z</time>
      </trkpt>
      <trkpt lat="59.861471" lon="17.6987775">
        <ele>25.6123</ele>
        <time>2013-05-16T16:38:08Z</time>
      </trkpt>
      <trkpt lat="59.8615219" lon="17.6988842">
        <ele>27.0543</ele>
        <time>2013-05-16T16:38:09Z</time>
      </trkpt>
      <trkpt lat="59.8615633" lon="17.6990117">
        <ele>26.0929</ele>
        <time>2013-05-16T16:38:10Z</time>
      </trkpt>
      <trkpt lat="59.8615963" lon="17.6991443">
        <ele>24.1703</ele>
        <time>2013-05-16T16:38:11Z</time>
      </trkpt>
      <trkpt lat="59.8616194" lon="17.699277">
        <ele>22.7283</ele>
        <time>2013-05-16T16:38:12Z</time>
      </trkpt>
      <trkpt lat="59.8616362" lon="17.6994126">
        <ele>21.2864</ele>
        <time>2013-05-16T16:38:13Z</time>
      </trkpt>
      <trkpt lat="59.8616517" lon="17.6995477">
        <ele>19.8444</ele>
        <time>2013-05-16T16:38:14Z</time>
      </trkpt>
      <trkpt lat="59.861659" lon="17.6996798">
        <ele>18.8831</ele>
        <time>2013-05-16T16:38:15Z</time>
      </trkpt>
      <trkpt lat="59.8616662" lon="17.6998124">
        <ele>16.4797</ele>
        <time>2013-05-16T16:38:16Z</time>
      </trkpt>
      <trkpt lat="59.8616601" lon="17.6999716">
        <ele>13.5958</ele>
        <time>2013-05-16T16:38:17Z</time>
      </trkpt>
      <trkpt lat="59.8616503" lon="17.700102">
        <ele>12.1538</ele>
        <time>2013-05-16T16:38:18Z</time>
      </trkpt>
      <trkpt lat="59.8616509" lon="17.7001798">
        <ele>11.1925</ele>
        <time>2013-05-16T16:38:19Z</time>
      </trkpt>
      <trkpt lat="59.8616508" lon="17.700349">
        <ele>11.6732</ele>
        <time>2013-05-16T16:38:20Z</time>
      </trkpt>
      <trkpt lat="59.8616778" lon="17.7005021">
        <ele>11.6732</ele>
        <time>2013-05-16T16:38:21Z</time>
      </trkpt>
      <trkpt lat="59.86167" lon="17.7006056">
        <ele>11.1925</ele>
        <time>2013-05-16T16:38:22Z</time>
      </trkpt>
      <trkpt lat="59.8616885" lon="17.7007321">
        <ele>11.1925</ele>
        <time>2013-05-16T16:38:23Z</time>
      </trkpt>
      <trkpt lat="59.8616959" lon="17.7008668">
        <ele>11.6732</ele>
        <time>2013-05-16T16:38:24Z</time>
      </trkpt>
      <trkpt lat="59.8617078" lon="17.7009965">
        <ele>11.6732</ele>
        <time>2013-05-16T16:38:25Z</time>
      </trkpt>
      <trkpt lat="59.8617216" lon="17.7011324">
        <ele>11.6732</ele>
        <time>2013-05-16T16:38:26Z</time>
      </trkpt>
      <trkpt lat="59.8617362" lon="17.7013156">
        <ele>11.6732</ele>
        <time>2013-05-16T16:38:27Z</time>
      </trkpt>
      <trkpt lat="59.8617644" lon="17.7014702">
        <ele>12.1538</ele>
        <time>2013-05-16T16:38:28Z</time>
      </trkpt>
      <trkpt lat="59.8617853" lon="17.7016001">
        <ele>13.1151</ele>
        <time>2013-05-16T16:38:29Z</time>
      </trkpt>
      <trkpt lat="59.8618148" lon="17.7017365">
        <ele>14.0764</ele>
        <time>2013-05-16T16:38:30Z</time>
      </trkpt>
      <trkpt lat="59.8618451" lon="17.7018701">
        <ele>14.557</ele>
        <time>2013-05-16T16:38:31Z</time>
      </trkpt>
      <trkpt lat="59.8618673" lon="17.7019971">
        <ele>15.0377</ele>
        <time>2013-05-16T16:38:32Z</time>
      </trkpt>
      <trkpt lat="59.8618933" lon="17.7021249">
        <ele>15.5184</ele>
        <time>2013-05-16T16:38:33Z</time>
      </trkpt>
      <trkpt lat="59.8619242" lon="17.7022514">
        <ele>15.999</ele>
        <time>2013-05-16T16:38:34Z</time>
      </trkpt>
      <trkpt lat="59.8619539" lon="17.7023739">
        <ele>17.4412</ele>
        <time>2013-05-16T16:38:35Z</time>
      </trkpt>
      <trkpt lat="59.8619787" lon="17.7024894">
        <ele>18.8831</ele>
        <time>2013-05-16T16:38:36Z</time>
      </trkpt>
      <trkpt lat="59.8620155" lon="17.7026109">
        <ele>16.9604</ele>
        <time>2013-05-16T16:38:37Z</time>
      </trkpt>
      <trkpt lat="59.8620526" lon="17.7027321">
        <ele>15.5184</ele>
        <time>2013-05-16T16:38:38Z</time>
      </trkpt>
      <trkpt lat="59.8620818" lon="17.7028559">
        <ele>14.557</ele>
        <time>2013-05-16T16:38:39Z</time>
      </trkpt>
      <trkpt lat="59.8620992" lon="17.7029822">
        <ele>14.557</ele>
        <time>2013-05-16T16:38:40Z</time>
      </trkpt>
      <trkpt lat="59.8621114" lon="17.7031071">
        <ele>14.557</ele>
        <time>2013-05-16T16:38:41Z</time>
      </trkpt>
      <trkpt lat="59.862121" lon="17.7032133">
        <ele>14.0764</ele>
        <time>2013-05-16T16:38:42Z</time>
      </trkpt>
      <trkpt lat="59.8621207" lon="17.7033141">
        <ele>14.0764</ele>
        <time>2013-05-16T16:38:43Z</time>
      </trkpt>
      <trkpt lat="59.862119" lon="17.7034159">
        <ele>14.557</ele>
        <time>2013-05-16T16:38:44Z</time>
      </trkpt>
      <trkpt lat="59.8621216" lon="17.703533">
        <ele>14.0764</ele>
        <time>2013-05-16T16:38:45Z</time>
      </trkpt>
      <trkpt lat="59.8621181" lon="17.7036314">
        <ele>15.0377</ele>
        <time>2013-05-16T16:38:46Z</time>
      </trkpt>
      <trkpt lat="59.8621102" lon="17.7037307">
        <ele>16.4797</ele>
        <time>2013-05-16T16:38:47Z</time>
      </trkpt>
      <trkpt lat="59.8621035" lon="17.7038254">
        <ele>16.9604</ele>
        <time>2013-05-16T16:38:48Z</time>
      </trkpt>
      <trkpt lat="59.8620973" lon="17.7039025">
        <ele>16.9604</ele>
        <time>2013-05-16T16:38:49Z</time>
      </trkpt>
      <trkpt lat="59.8620902" lon="17.7039704">
        <ele>16.4797</ele>
        <time>2013-05-16T16:38:50Z</time>
      </trkpt>
      <trkpt lat="59.8620735" lon="17.7040271">
        <ele>15.999</ele>
        <time>2013-05-16T16:38:51Z</time>
      </trkpt>
      <trkpt lat="59.8620418" lon="17.7040634">
        <ele>15.5184</ele>
        <time>2013-05-16T16:38:52Z</time>
      </trkpt>
      <trkpt lat="59.8620004" lon="17.7040719">
        <ele>15.5184</ele>
        <time>2013-05-16T16:38:53Z</time>
      </trkpt>
      <trkpt lat="59.8619617" lon="17.7040875">
        <ele>14.557</ele>
        <time>2013-05-16T16:38:54Z</time>
      </trkpt>
      <trkpt lat="59.8619229" lon="17.7040943">
        <ele>14.0764</ele>
        <time>2013-05-16T16:38:55Z</time>
      </trkpt>
      <trkpt lat="59.8618804" lon="17.7040763">
        <ele>13.1151</ele>
        <time>2013-05-16T16:38:56Z</time>
      </trkpt>
      <trkpt lat="59.8618266" lon="17.7040712">
        <ele>12.1538</ele>
        <time>2013-05-16T16:38:57Z</time>
      </trkpt>
      <trkpt lat="59.8617696" lon="17.7040538">
        <ele>11.6732</ele>
        <time>2013-05-16T16:38:58Z</time>
      </trkpt>
      <trkpt lat="59.8617094" lon="17.7040022">
        <ele>11.1925</ele>
        <time>2013-05-16T16:38:59Z</time>
      </trkpt>
      <trkpt lat="59.8616478" lon="17.703982">
        <ele>9.75061</ele>
        <time>2013-05-16T16:39:00Z</time>
      </trkpt>
      <trkpt lat="59.8615809" lon="17.7039478">
        <ele>8.78918</ele>
        <time>2013-05-16T16:39:01Z</time>
      </trkpt>
      <trkpt lat="59.8615128" lon="17.7039178">
        <ele>8.78918</ele>
        <time>2013-05-16T16:39:02Z</time>
      </trkpt>
      <trkpt lat="59.8614436" lon="17.7038966">
        <ele>8.30859</ele>
        <time>2013-05-16T16:39:03Z</time>
      </trkpt>
      <trkpt lat="59.861371" lon="17.7038616">
        <ele>8.30859</ele>
        <time>2013-05-16T16:39:04Z</time>
      </trkpt>
      <trkpt lat="59.8613027" lon="17.703835">
        <ele>8.78918</ele>
        <time>2013-05-16T16:39:05Z</time>
      </trkpt>
      <trkpt lat="59.8612253" lon="17.703798">
        <ele>10.2312</ele>
        <time>2013-05-16T16:39:06Z</time>
      </trkpt>
      <trkpt lat="59.861155" lon="17.7037452">
        <ele>11.1925</ele>
        <time>2013-05-16T16:39:07Z</time>
      </trkpt>
      <trkpt lat="59.8610884" lon="17.7037204">
        <ele>11.6732</ele>
        <time>2013-05-16T16:39:08Z</time>
      </trkpt>
      <trkpt lat="59.8610204" lon="17.7036997">
        <ele>12.1538</ele>
        <time>2013-05-16T16:39:09Z</time>
      </trkpt>
      <trkpt lat="59.8609542" lon="17.7036908">
        <ele>12.6344</ele>
        <time>2013-05-16T16:39:10Z</time>
      </trkpt>
      <trkpt lat="59.8608899" lon="17.7036865">
        <ele>13.1151</ele>
        <time>2013-05-16T16:39:11Z</time>
      </trkpt>
      <trkpt lat="59.8608322" lon="17.7036928">
        <ele>14.0764</ele>
        <time>2013-05-16T16:39:12Z</time>
      </trkpt>
      <trkpt lat="59.8607697" lon="17.7037126">
        <ele>13.5958</ele>
        <time>2013-05-16T16:39:13Z</time>
      </trkpt>
      <trkpt lat="59.8607004" lon="17.7037397">
        <ele>13.5958</ele>
        <time>2013-05-16T16:39:14Z</time>
      </trkpt>
      <trkpt lat="59.8606357" lon="17.7037696">
        <ele>14.557</ele>
        <time>2013-05-16T16:39:15Z</time>
      </trkpt>
      <trkpt lat="59.8605701" lon="17.7038091">
        <ele>14.557</ele>
        <time>2013-05-16T16:39:16Z</time>
      </trkpt>
      <trkpt lat="59.8605038" lon="17.7038391">
        <ele>15.0377</ele>
        <time>2013-05-16T16:39:17Z</time>
      </trkpt>
      <trkpt lat="59.8604381" lon="17.7038679">
        <ele>15.5184</ele>
        <time>2013-05-16T16:39:18Z</time>
      </trkpt>
      <trkpt lat="59.8603794" lon="17.7038854">
        <ele>16.9604</ele>
        <time>2013-05-16T16:39:19Z</time>
      </trkpt>
      <trkpt lat="59.8603157" lon="17.7038982">
        <ele>17.4412</ele>
        <time>2013-05-16T16:39:20Z</time>
      </trkpt>
      <trkpt lat="59.8602556" lon="17.7039074">
        <ele>16.9604</ele>
        <time>2013-05-16T16:39:21Z</time>
      </trkpt>
      <trkpt lat="59.8602036" lon="17.7039198">
        <ele>17.4412</ele>
        <time>2013-05-16T16:39:22Z</time>
      </trkpt>
      <trkpt lat="59.860138" lon="17.703955">
        <ele>18.8831</ele>
        <time>2013-05-16T16:39:23Z</time>
      </trkpt>
      <trkpt lat="59.8600811" lon="17.7039888">
        <ele>20.325</ele>
        <time>2013-05-16T16:39:24Z</time>
      </trkpt>
      <trkpt lat="59.8600189" lon="17.7040249">
        <ele>23.209</ele>
        <time>2013-05-16T16:39:25Z</time>
      </trkpt>
      <trkpt lat="59.8599647" lon="17.704067">
        <ele>25.6123</ele>
        <time>2013-05-16T16:39:26Z</time>
      </trkpt>
      <trkpt lat="59.859887" lon="17.7041079">
        <ele>27.0543</ele>
        <time>2013-05-16T16:39:27Z</time>
      </trkpt>
      <trkpt lat="59.8598232" lon="17.7041354">
        <ele>28.0155</ele>
        <time>2013-05-16T16:39:28Z</time>
      </trkpt>
      <trkpt lat="59.8597632" lon="17.7041715">
        <ele>28.4962</ele>
        <time>2013-05-16T16:39:29Z</time>
      </trkpt>
      <trkpt lat="59.8597016" lon="17.7042068">
        <ele>27.5349</ele>
        <time>2013-05-16T16:39:30Z</time>
      </trkpt>
      <trkpt lat="59.8596498" lon="17.7042301">
        <ele>28.0155</ele>
        <time>2013-05-16T16:39:31Z</time>
      </trkpt>
      <trkpt lat="59.859596" lon="17.7042498">
        <ele>28.9769</ele>
        <time>2013-05-16T16:39:32Z</time>
      </trkpt>
      <trkpt lat="59.8595346" lon="17.7042756">
        <ele>28.9769</ele>
        <time>2013-05-16T16:39:33Z</time>
      </trkpt>
      <trkpt lat="59.859482" lon="17.7042984">
        <ele>30.4188</ele>
        <time>2013-05-16T16:39:34Z</time>
      </trkpt>
      <trkpt lat="59.8594198" lon="17.7043271">
        <ele>30.8995</ele>
        <time>2013-05-16T16:39:35Z</time>
      </trkpt>
      <trkpt lat="59.8593659" lon="17.704358">
        <ele>29.9381</ele>
        <time>2013-05-16T16:39:36Z</time>
      </trkpt>
      <trkpt lat="59.8593289" lon="17.7044037">
        <ele>26.5736</ele>
        <time>2013-05-16T16:39:37Z</time>
      </trkpt>
      <trkpt lat="59.8592866" lon="17.7044615">
        <ele>23.6896</ele>
        <time>2013-05-16T16:39:38Z</time>
      </trkpt>
      <trkpt lat="59.859242" lon="17.7045175">
        <ele>20.8057</ele>
        <time>2013-05-16T16:39:39Z</time>
      </trkpt>
      <trkpt lat="59.8591901" lon="17.7045682">
        <ele>18.4023</ele>
        <time>2013-05-16T16:39:40Z</time>
      </trkpt>
      <trkpt lat="59.8591386" lon="17.7046264">
        <ele>16.9604</ele>
        <time>2013-05-16T16:39:41Z</time>
      </trkpt>
      <trkpt lat="59.8590943" lon="17.7046853">
        <ele>15.5184</ele>
        <time>2013-05-16T16:39:42Z</time>
      </trkpt>
      <trkpt lat="59.8590597" lon="17.7047431">
        <ele>13.5958</ele>
        <time>2013-05-16T16:39:43Z</time>
      </trkpt>
      <trkpt lat="59.8590328" lon="17.7048087">
        <ele>12.1538</ele>
        <time>2013-05-16T16:39:44Z</time>
      </trkpt>
      <trkpt lat="59.8590036" lon="17.7048719">
        <ele>11.6732</ele>
        <time>2013-05-16T16:39:45Z</time>
      </trkpt>
      <trkpt lat="59.8589826" lon="17.7049284">
        <ele>10.2312</ele>
        <time>2013-05-16T16:39:46Z</time>
      </trkpt>
      <trkpt lat="59.8589576" lon="17.7049823">
        <ele>11.6732</ele>
        <time>2013-05-16T16:39:47Z</time>
      </trkpt>
      <trkpt lat="59.8589292" lon="17.7050306">
        <ele>12.1538</ele>
        <time>2013-05-16T16:39:48Z</time>
      </trkpt>
      <trkpt lat="59.8589228" lon="17.705057">
        <ele>11.6732</ele>
        <time>2013-05-16T16:39:49Z</time>
      </trkpt>
      <trkpt lat="59.8589137" lon="17.7050692">
        <ele>11.6732</ele>
        <time>2013-05-16T16:39:50Z</time>
      </trkpt>
      <trkpt lat="59.8589039" lon="17.7050834">
        <ele>11.1925</ele>
        <time>2013-05-16T16:39:51Z</time>
      </trkpt>
      <trkpt lat="59.8588881" lon="17.7051097">
        <ele>10.7118</ele>
        <time>2013-05-16T16:39:52Z</time>
      </trkpt>
      <trkpt lat="59.8588527" lon="17.7051691">
        <ele>11.6732</ele>
        <time>2013-05-16T16:39:53Z</time>
      </trkpt>
      <trkpt lat="59.8588228" lon="17.7052403">
        <ele>12.1538</ele>
        <time>2013-05-16T16:39:54Z</time>
      </trkpt>
      <trkpt lat="59.8588028" lon="17.7053124">
        <ele>11.6732</ele>
        <time>2013-05-16T16:39:55Z</time>
      </trkpt>
      <trkpt lat="59.8587888" lon="17.7053946">
        <ele>10.2312</ele>
        <time>2013-05-16T16:39:56Z</time>
      </trkpt>
      <trkpt lat="59.8587733" lon="17.7054748">
        <ele>9.75061</ele>
        <time>2013-05-16T16:39:57Z</time>
      </trkpt>
      <trkpt lat="59.8587527" lon="17.7055669">
        <ele>9.75061</ele>
        <time>2013-05-16T16:39:58Z</time>
      </trkpt>
      <trkpt lat="59.8587303" lon="17.7056718">
        <ele>10.2312</ele>
        <time>2013-05-16T16:39:59Z</time>
      </trkpt>
      <trkpt lat="59.8587116" lon="17.7057918">
        <ele>9.75061</ele>
        <time>2013-05-16T16:40:00Z</time>
      </trkpt>
      <trkpt lat="59.8586868" lon="17.7059188">
        <ele>10.2312</ele>
        <time>2013-05-16T16:40:01Z</time>
      </trkpt>
      <trkpt lat="59.8586583" lon="17.7060499">
        <ele>10.7118</ele>
        <time>2013-05-16T16:40:02Z</time>
      </trkpt>
      <trkpt lat="59.8586312" lon="17.706188">
        <ele>11.1925</ele>
        <time>2013-05-16T16:40:03Z</time>
      </trkpt>
      <trkpt lat="59.8586101" lon="17.7063159">
        <ele>11.6732</ele>
        <time>2013-05-16T16:40:04Z</time>
      </trkpt>
      <trkpt lat="59.858588" lon="17.7064435">
        <ele>12.6344</ele>
        <time>2013-05-16T16:40:05Z</time>
      </trkpt>
      <trkpt lat="59.8585674" lon="17.7065674">
        <ele>13.1151</ele>
        <time>2013-05-16T16:40:06Z</time>
      </trkpt>
      <trkpt lat="59.8585464" lon="17.7066891">
        <ele>14.0764</ele>
        <time>2013-05-16T16:40:07Z</time>
      </trkpt>
      <trkpt lat="59.8585304" lon="17.7068146">
        <ele>14.557</ele>
        <time>2013-05-16T16:40:08Z</time>
      </trkpt>
      <trkpt lat="59.8585174" lon="17.7069414">
        <ele>15.0377</ele>
        <time>2013-05-16T16:40:09Z</time>
      </trkpt>
      <trkpt lat="59.8585038" lon="17.7070658">
        <ele>15.5184</ele>
        <time>2013-05-16T16:40:10Z</time>
      </trkpt>
      <trkpt lat="59.8584864" lon="17.7071874">
        <ele>16.9604</ele>
        <time>2013-05-16T16:40:11Z</time>
      </trkpt>
      <trkpt lat="59.8584703" lon="17.7073064">
        <ele>17.9218</ele>
        <time>2013-05-16T16:40:12Z</time>
      </trkpt>
      <trkpt lat="59.8584579" lon="17.7074326">
        <ele>18.8831</ele>
        <time>2013-05-16T16:40:13Z</time>
      </trkpt>
      <trkpt lat="59.8584449" lon="17.7075578">
        <ele>19.8444</ele>
        <time>2013-05-16T16:40:14Z</time>
      </trkpt>
      <trkpt lat="59.85843" lon="17.707683">
        <ele>19.8444</ele>
        <time>2013-05-16T16:40:15Z</time>
      </trkpt>
      <trkpt lat="59.8584155" lon="17.707808">
        <ele>18.4023</ele>
        <time>2013-05-16T16:40:16Z</time>
      </trkpt>
      <trkpt lat="59.8583989" lon="17.7079325">
        <ele>17.9218</ele>
        <time>2013-05-16T16:40:17Z</time>
      </trkpt>
      <trkpt lat="59.8583851" lon="17.7080541">
        <ele>18.4023</ele>
        <time>2013-05-16T16:40:18Z</time>
      </trkpt>
      <trkpt lat="59.8583677" lon="17.7081789">
        <ele>19.3638</ele>
        <time>2013-05-16T16:40:19Z</time>
      </trkpt>
      <trkpt lat="59.8583526" lon="17.7082974">
        <ele>19.8444</ele>
        <time>2013-05-16T16:40:20Z</time>
      </trkpt>
      <trkpt lat="59.8583376" lon="17.7084087">
        <ele>19.8444</ele>
        <time>2013-05-16T16:40:21Z</time>
      </trkpt>
      <trkpt lat="59.8583242" lon="17.7085282">
        <ele>20.325</ele>
        <time>2013-05-16T16:40:22Z</time>
      </trkpt>
      <trkpt lat="59.858308" lon="17.7086519">
        <ele>21.2864</ele>
        <time>2013-05-16T16:40:23Z</time>
      </trkpt>
      <trkpt lat="59.8582942" lon="17.7087654">
        <ele>21.2864</ele>
        <time>2013-05-16T16:40:24Z</time>
      </trkpt>
      <trkpt lat="59.8582859" lon="17.7088621">
        <ele>20.8057</ele>
        <time>2013-05-16T16:40:25Z</time>
      </trkpt>
      <trkpt lat="59.8582792" lon="17.7089653">
        <ele>21.2864</ele>
        <time>2013-05-16T16:40:26Z</time>
      </trkpt>
      <trkpt lat="59.8582668" lon="17.7090522">
        <ele>22.7283</ele>
        <time>2013-05-16T16:40:27Z</time>
      </trkpt>
      <trkpt lat="59.8582592" lon="17.7091367">
        <ele>23.6896</ele>
        <time>2013-05-16T16:40:28Z</time>
      </trkpt>
      <trkpt lat="59.8582599" lon="17.7092212">
        <ele>24.1703</ele>
        <time>2013-05-16T16:40:29Z</time>
      </trkpt>
      <trkpt lat="59.858253" lon="17.7093069">
        <ele>26.0929</ele>
        <time>2013-05-16T16:40:30Z</time>
      </trkpt>
      <trkpt lat="59.858244" lon="17.7093508">
        <ele>27.5349</ele>
        <time>2013-05-16T16:40:31Z</time>
      </trkpt>
      <trkpt lat="59.8582749" lon="17.7094029">
        <ele>26.0929</ele>
        <time>2013-05-16T16:40:32Z</time>
      </trkpt>
      <trkpt lat="59.8582837" lon="17.7094869">
        <ele>26.0929</ele>
        <time>2013-05-16T16:40:33Z</time>
      </trkpt>
      <trkpt lat="59.8582903" lon="17.70959">
        <ele>27.0543</ele>
        <time>2013-05-16T16:40:34Z</time>
      </trkpt>
      <trkpt lat="59.8583102" lon="17.7096905">
        <ele>26.5736</ele>
        <time>2013-05-16T16:40:35Z</time>
      </trkpt>
      <trkpt lat="59.8583279" lon="17.7098044">
        <ele>26.0929</ele>
        <time>2013-05-16T16:40:36Z</time>
      </trkpt>
      <trkpt lat="59.858339" lon="17.7099087">
        <ele>24.1703</ele>
        <time>2013-05-16T16:40:37Z</time>
      </trkpt>
      <trkpt lat="59.8583485" lon="17.7100148">
        <ele>24.1703</ele>
        <time>2013-05-16T16:40:38Z</time>
      </trkpt>
      <trkpt lat="59.8583637" lon="17.7101158">
        <ele>22.7283</ele>
        <time>2013-05-16T16:40:39Z</time>
      </trkpt>
      <trkpt lat="59.8583821" lon="17.7102182">
        <ele>21.767</ele>
        <time>2013-05-16T16:40:40Z</time>
      </trkpt>
      <trkpt lat="59.8584034" lon="17.7103142">
        <ele>19.3638</ele>
        <time>2013-05-16T16:40:41Z</time>
      </trkpt>
      <trkpt lat="59.858422" lon="17.7104139">
        <ele>18.4023</ele>
        <time>2013-05-16T16:40:42Z</time>
      </trkpt>
      <trkpt lat="59.8584428" lon="17.7105246">
        <ele>16.4797</ele>
        <time>2013-05-16T16:40:43Z</time>
      </trkpt>
      <trkpt lat="59.858462" lon="17.7106426">
        <ele>15.5184</ele>
        <time>2013-05-16T16:40:44Z</time>
      </trkpt>
      <trkpt lat="59.8584787" lon="17.7107607">
        <ele>14.557</ele>
        <time>2013-05-16T16:40:45Z</time>
      </trkpt>
      <trkpt lat="59.8584905" lon="17.7108783">
        <ele>14.0764</ele>
        <time>2013-05-16T16:40:46Z</time>
      </trkpt>
      <trkpt lat="59.8584929" lon="17.7109968">
        <ele>14.0764</ele>
        <time>2013-05-16T16:40:47Z</time>
      </trkpt>
      <trkpt lat="59.8584939" lon="17.711122">
        <ele>14.557</ele>
        <time>2013-05-16T16:40:48Z</time>
      </trkpt>
      <trkpt lat="59.8584934" lon="17.7112444">
        <ele>14.0764</ele>
        <time>2013-05-16T16:40:49Z</time>
      </trkpt>
      <trkpt lat="59.8584861" lon="17.7113652">
        <ele>14.557</ele>
        <time>2013-05-16T16:40:50Z</time>
      </trkpt>
      <trkpt lat="59.8584771" lon="17.711486">
        <ele>14.557</ele>
        <time>2013-05-16T16:40:51Z</time>
      </trkpt>
      <trkpt lat="59.8584651" lon="17.711604">
        <ele>14.557</ele>
        <time>2013-05-16T16:40:52Z</time>
      </trkpt>
      <trkpt lat="59.8584449" lon="17.7117163">
        <ele>14.557</ele>
        <time>2013-05-16T16:40:53Z</time>
      </trkpt>
      <trkpt lat="59.8584199" lon="17.7118335">
        <ele>15.0377</ele>
        <time>2013-05-16T16:40:54Z</time>
      </trkpt>
      <trkpt lat="59.8583937" lon="17.7119475">
        <ele>15.5184</ele>
        <time>2013-05-16T16:40:55Z</time>
      </trkpt>
      <trkpt lat="59.8583692" lon="17.7120553">
        <ele>15.0377</ele>
        <time>2013-05-16T16:40:56Z</time>
      </trkpt>
      <trkpt lat="59.8583432" lon="17.7121666">
        <ele>15.0377</ele>
        <time>2013-05-16T16:40:57Z</time>
      </trkpt>
      <trkpt lat="59.8583159" lon="17.712279">
        <ele>15.999</ele>
        <time>2013-05-16T16:40:58Z</time>
      </trkpt>
      <trkpt lat="59.8582905" lon="17.7124044">
        <ele>16.9604</ele>
        <time>2013-05-16T16:40:59Z</time>
      </trkpt>
      <trkpt lat="59.8582717" lon="17.7125359">
        <ele>17.9218</ele>
        <time>2013-05-16T16:41:00Z</time>
      </trkpt>
      <trkpt lat="59.8582564" lon="17.7126709">
        <ele>17.4412</ele>
        <time>2013-05-16T16:41:01Z</time>
      </trkpt>
      <trkpt lat="59.8582419" lon="17.7128099">
        <ele>17.4412</ele>
        <time>2013-05-16T16:41:02Z</time>
      </trkpt>
      <trkpt lat="59.8582289" lon="17.7129503">
        <ele>17.4412</ele>
        <time>2013-05-16T16:41:03Z</time>
      </trkpt>
      <trkpt lat="59.8582165" lon="17.7130912">
        <ele>16.9604</ele>
        <time>2013-05-16T16:41:04Z</time>
      </trkpt>
      <trkpt lat="59.8582023" lon="17.7132312">
        <ele>17.4412</ele>
        <time>2013-05-16T16:41:05Z</time>
      </trkpt>
      <trkpt lat="59.8581873" lon="17.7133703">
        <ele>17.4412</ele>
        <time>2013-05-16T16:41:06Z</time>
      </trkpt>
      <trkpt lat="59.8581703" lon="17.7135075">
        <ele>17.9218</ele>
        <time>2013-05-16T16:41:07Z</time>
      </trkpt>
      <trkpt lat="59.8581504" lon="17.7136428">
        <ele>18.4023</ele>
        <time>2013-05-16T16:41:08Z</time>
      </trkpt>
      <trkpt lat="59.8581279" lon="17.7137748">
        <ele>18.4023</ele>
        <time>2013-05-16T16:41:09Z</time>
      </trkpt>
      <trkpt lat="59.8581" lon="17.7138962">
        <ele>17.4412</ele>
        <time>2013-05-16T16:41:10Z</time>
      </trkpt>
      <trkpt lat="59.8580594" lon="17.7140072">
        <ele>16.9604</ele>
        <time>2013-05-16T16:41:11Z</time>
      </trkpt>
      <trkpt lat="59.8580153" lon="17.7141112">
        <ele>15.0377</ele>
        <time>2013-05-16T16:41:12Z</time>
      </trkpt>
      <trkpt lat="59.8579736" lon="17.7142166">
        <ele>14.0764</ele>
        <time>2013-05-16T16:41:13Z</time>
      </trkpt>
      <trkpt lat="59.8579263" lon="17.7143105">
        <ele>13.1151</ele>
        <time>2013-05-16T16:41:14Z</time>
      </trkpt>
      <trkpt lat="59.857885" lon="17.7144114">
        <ele>12.6344</ele>
        <time>2013-05-16T16:41:15Z</time>
      </trkpt>
      <trkpt lat="59.8578476" lon="17.7145153">
        <ele>12.1538</ele>
        <time>2013-05-16T16:41:16Z</time>
      </trkpt>
      <trkpt lat="59.8578117" lon="17.7146121">
        <ele>11.1925</ele>
        <time>2013-05-16T16:41:17Z</time>
      </trkpt>
      <trkpt lat="59.8577818" lon="17.7147187">
        <ele>11.1925</ele>
        <time>2013-05-16T16:41:18Z</time>
      </trkpt>
      <trkpt lat="59.8577523" lon="17.714825">
        <ele>10.7118</ele>
        <time>2013-05-16T16:41:19Z</time>
      </trkpt>
      <trkpt lat="59.8577283" lon="17.7149276">
        <ele>10.2312</ele>
        <time>2013-05-16T16:41:20Z</time>
      </trkpt>
      <trkpt lat="59.8577067" lon="17.7150366">
        <ele>9.75061</ele>
        <time>2013-05-16T16:41:21Z</time>
      </trkpt>
      <trkpt lat="59.857686" lon="17.7151483">
        <ele>9.75061</ele>
        <time>2013-05-16T16:41:22Z</time>
      </trkpt>
      <trkpt lat="59.8576666" lon="17.7152617">
        <ele>9.75061</ele>
        <time>2013-05-16T16:41:23Z</time>
      </trkpt>
      <trkpt lat="59.8576482" lon="17.715376">
        <ele>9.2699</ele>
        <time>2013-05-16T16:41:24Z</time>
      </trkpt>
      <trkpt lat="59.857631" lon="17.7154909">
        <ele>9.2699</ele>
        <time>2013-05-16T16:41:25Z</time>
      </trkpt>
      <trkpt lat="59.8576161" lon="17.7156075">
        <ele>9.2699</ele>
        <time>2013-05-16T16:41:26Z</time>
      </trkpt>
      <trkpt lat="59.8576031" lon="17.7157263">
        <ele>8.78918</ele>
        <time>2013-05-16T16:41:27Z</time>
      </trkpt>
      <trkpt lat="59.8575928" lon="17.7158479">
        <ele>8.78918</ele>
        <time>2013-05-16T16:41:28Z</time>
      </trkpt>
      <trkpt lat="59.8575855" lon="17.7159715">
        <ele>8.78918</ele>
        <time>2013-05-16T16:41:29Z</time>
      </trkpt>
      <trkpt lat="59.8575868" lon="17.7160894">
        <ele>8.78918</ele>
        <time>2013-05-16T16:41:30Z</time>
      </trkpt>
      <trkpt lat="59.8575884" lon="17.7162195">
        <ele>9.75061</ele>
        <time>2013-05-16T16:41:31Z</time>
      </trkpt>
      <trkpt lat="59.8575917" lon="17.7163473">
        <ele>10.7118</ele>
        <time>2013-05-16T16:41:32Z</time>
      </trkpt>
      <trkpt lat="59.8575979" lon="17.7164659">
        <ele>11.6732</ele>
        <time>2013-05-16T16:41:33Z</time>
      </trkpt>
      <trkpt lat="59.8576001" lon="17.716608">
        <ele>13.5958</ele>
        <time>2013-05-16T16:41:34Z</time>
      </trkpt>
      <trkpt lat="59.8576062" lon="17.7167469">
        <ele>14.0764</ele>
        <time>2013-05-16T16:41:35Z</time>
      </trkpt>
      <trkpt lat="59.8576119" lon="17.7168815">
        <ele>15.0377</ele>
        <time>2013-05-16T16:41:36Z</time>
      </trkpt>
      <trkpt lat="59.8576179" lon="17.7170115">
        <ele>15.0377</ele>
        <time>2013-05-16T16:41:37Z</time>
      </trkpt>
      <trkpt lat="59.857625" lon="17.7171382">
        <ele>14.557</ele>
        <time>2013-05-16T16:41:38Z</time>
      </trkpt>
      <trkpt lat="59.8576315" lon="17.7172628">
        <ele>14.0764</ele>
        <time>2013-05-16T16:41:39Z</time>
      </trkpt>
      <trkpt lat="59.8576358" lon="17.7173869">
        <ele>14.557</ele>
        <time>2013-05-16T16:41:40Z</time>
      </trkpt>
      <trkpt lat="59.8576403" lon="17.7175102">
        <ele>14.0764</ele>
        <time>2013-05-16T16:41:41Z</time>
      </trkpt>
      <trkpt lat="59.8576439" lon="17.7176306">
        <ele>13.5958</ele>
        <time>2013-05-16T16:41:42Z</time>
      </trkpt>
      <trkpt lat="59.8576473" lon="17.7177492">
        <ele>13.1151</ele>
        <time>2013-05-16T16:41:43Z</time>
      </trkpt>
      <trkpt lat="59.8576492" lon="17.7178672">
        <ele>12.6344</ele>
        <time>2013-05-16T16:41:44Z</time>
      </trkpt>
      <trkpt lat="59.85765" lon="17.7179842">
        <ele>12.6344</ele>
        <time>2013-05-16T16:41:45Z</time>
      </trkpt>
      <trkpt lat="59.8576498" lon="17.7181009">
        <ele>12.1538</ele>
        <time>2013-05-16T16:41:46Z</time>
      </trkpt>
      <trkpt lat="59.8576512" lon="17.7182181">
        <ele>11.6732</ele>
        <time>2013-05-16T16:41:47Z</time>
      </trkpt>
      <trkpt lat="59.8576502" lon="17.7183367">
        <ele>11.6732</ele>
        <time>2013-05-16T16:41:48Z</time>
      </trkpt>
      <trkpt lat="59.8576507" lon="17.718456">
        <ele>11.1925</ele>
        <time>2013-05-16T16:41:49Z</time>
      </trkpt>
      <trkpt lat="59.8576477" lon="17.7185755">
        <ele>12.1538</ele>
        <time>2013-05-16T16:41:50Z</time>
      </trkpt>
      <trkpt lat="59.8576517" lon="17.7186945">
        <ele>11.1925</ele>
        <time>2013-05-16T16:41:51Z</time>
      </trkpt>
      <trkpt lat="59.8576575" lon="17.7188169">
        <ele>10.2312</ele>
        <time>2013-05-16T16:41:52Z</time>
      </trkpt>
      <trkpt lat="59.8576595" lon="17.7189445">
        <ele>10.2312</ele>
        <time>2013-05-16T16:41:53Z</time>
      </trkpt>
      <trkpt lat="59.8576659" lon="17.7190701">
        <ele>9.2699</ele>
        <time>2013-05-16T16:41:54Z</time>
      </trkpt>
      <trkpt lat="59.8576716" lon="17.7191964">
        <ele>8.30859</ele>
        <time>2013-05-16T16:41:55Z</time>
      </trkpt>
      <trkpt lat="59.8576811" lon="17.7193171">
        <ele>7.34717</ele>
        <time>2013-05-16T16:41:56Z</time>
      </trkpt>
      <trkpt lat="59.8576894" lon="17.7194385">
        <ele>6.38586</ele>
        <time>2013-05-16T16:41:57Z</time>
      </trkpt>
      <trkpt lat="59.8576995" lon="17.7195488">
        <ele>4.94385</ele>
        <time>2013-05-16T16:41:58Z</time>
      </trkpt>
      <trkpt lat="59.8577082" lon="17.719661">
        <ele>3.98267</ele>
        <time>2013-05-16T16:41:59Z</time>
      </trkpt>
      <trkpt lat="59.8577184" lon="17.7197728">
        <ele>2.54065</ele>
        <time>2013-05-16T16:42:00Z</time>
      </trkpt>
      <trkpt lat="59.857725" lon="17.7198835">
        <ele>1.57935</ele>
        <time>2013-05-16T16:42:01Z</time>
      </trkpt>
      <trkpt lat="59.8577289" lon="17.7199962">
        <ele>1.57935</ele>
        <time>2013-05-16T16:42:02Z</time>
      </trkpt>
      <trkpt lat="59.8577347" lon="17.7201158">
        <ele>1.09863</ele>
        <time>2013-05-16T16:42:03Z</time>
      </trkpt>
      <trkpt lat="59.8577378" lon="17.7202314">
        <ele>1.57935</ele>
        <time>2013-05-16T16:42:04Z</time>
      </trkpt>
      <trkpt lat="59.8577389" lon="17.720344">
        <ele>2.06006</ele>
        <time>2013-05-16T16:42:05Z</time>
      </trkpt>
      <trkpt lat="59.8577383" lon="17.7204548">
        <ele>2.06006</ele>
        <time>2013-05-16T16:42:06Z</time>
      </trkpt>
      <trkpt lat="59.8577331" lon="17.7205579">
        <ele>2.54065</ele>
        <time>2013-05-16T16:42:07Z</time>
      </trkpt>
      <trkpt lat="59.85773" lon="17.720653">
        <ele>1.57935</ele>
        <time>2013-05-16T16:42:08Z</time>
      </trkpt>
      <trkpt lat="59.8577269" lon="17.7207541">
        <ele>2.06006</ele>
        <time>2013-05-16T16:42:09Z</time>
      </trkpt>
      <trkpt lat="59.8577237" lon="17.7208641">
        <ele>3.50195</ele>
        <time>2013-05-16T16:42:10Z</time>
      </trkpt>
      <trkpt lat="59.8577231" lon="17.7209591">
        <ele>4.46326</ele>
        <time>2013-05-16T16:42:11Z</time>
      </trkpt>
      <trkpt lat="59.8577176" lon="17.7210645">
        <ele>5.42456</ele>
        <time>2013-05-16T16:42:12Z</time>
      </trkpt>
      <trkpt lat="59.8577134" lon="17.7211578">
        <ele>5.90527</ele>
        <time>2013-05-16T16:42:13Z</time>
      </trkpt>
      <trkpt lat="59.857711" lon="17.7212517">
        <ele>5.90527</ele>
        <time>2013-05-16T16:42:14Z</time>
      </trkpt>
      <trkpt lat="59.8577077" lon="17.7213398">
        <ele>5.42456</ele>
        <time>2013-05-16T16:42:15Z</time>
      </trkpt>
      <trkpt lat="59.8576979" lon="17.7214447">
        <ele>5.90527</ele>
        <time>2013-05-16T16:42:16Z</time>
      </trkpt>
      <trkpt lat="59.8576844" lon="17.7215615">
        <ele>6.86646</ele>
        <time>2013-05-16T16:42:17Z</time>
      </trkpt>
      <trkpt lat="59.8576661" lon="17.7216923">
        <ele>8.30859</ele>
        <time>2013-05-16T16:42:18Z</time>
      </trkpt>
      <trkpt lat="59.8576492" lon="17.721805">
        <ele>8.78918</ele>
        <time>2013-05-16T16:42:19Z</time>
      </trkpt>
      <trkpt lat="59.85763" lon="17.7219242">
        <ele>9.75061</ele>
        <time>2013-05-16T16:42:20Z</time>
      </trkpt>
      <trkpt lat="59.8576005" lon="17.7220342">
        <ele>11.1925</ele>
        <time>2013-05-16T16:42:21Z</time>
      </trkpt>
      <trkpt lat="59.8575632" lon="17.7221191">
        <ele>11.6732</ele>
        <time>2013-05-16T16:42:22Z</time>
      </trkpt>
      <trkpt lat="59.8575283" lon="17.7221967">
        <ele>12.1538</ele>
        <time>2013-05-16T16:42:23Z</time>
      </trkpt>
      <trkpt lat="59.8574869" lon="17.7222682">
        <ele>12.6344</ele>
        <time>2013-05-16T16:42:24Z</time>
      </trkpt>
      <trkpt lat="59.8574439" lon="17.7223512">
        <ele>11.6732</ele>
        <time>2013-05-16T16:42:25Z</time>
      </trkpt>
      <trkpt lat="59.8574" lon="17.7224284">
        <ele>11.1925</ele>
        <time>2013-05-16T16:42:26Z</time>
      </trkpt>
      <trkpt lat="59.8573539" lon="17.7224989">
        <ele>10.7118</ele>
        <time>2013-05-16T16:42:27Z</time>
      </trkpt>
      <trkpt lat="59.8573108" lon="17.7225702">
        <ele>11.1925</ele>
        <time>2013-05-16T16:42:28Z</time>
      </trkpt>
      <trkpt lat="59.8572663" lon="17.7226379">
        <ele>11.6732</ele>
        <time>2013-05-16T16:42:29Z</time>
      </trkpt>
      <trkpt lat="59.8572189" lon="17.7227126">
        <ele>11.6732</ele>
        <time>2013-05-16T16:42:30Z</time>
      </trkpt>
      <trkpt lat="59.8571732" lon="17.7227897">
        <ele>11.1925</ele>
        <time>2013-05-16T16:42:31Z</time>
      </trkpt>
      <trkpt lat="59.8571275" lon="17.7228677">
        <ele>10.7118</ele>
        <time>2013-05-16T16:42:32Z</time>
      </trkpt>
      <trkpt lat="59.8570837" lon="17.7229505">
        <ele>10.7118</ele>
        <time>2013-05-16T16:42:33Z</time>
      </trkpt>
      <trkpt lat="59.8570364" lon="17.7230264">
        <ele>10.7118</ele>
        <time>2013-05-16T16:42:34Z</time>
      </trkpt>
      <trkpt lat="59.8569885" lon="17.7231117">
        <ele>10.7118</ele>
        <time>2013-05-16T16:42:35Z</time>
      </trkpt>
      <trkpt lat="59.8569399" lon="17.7231981">
        <ele>10.2312</ele>
        <time>2013-05-16T16:42:36Z</time>
      </trkpt>
      <trkpt lat="59.8568927" lon="17.7232906">
        <ele>10.2312</ele>
        <time>2013-05-16T16:42:37Z</time>
      </trkpt>
      <trkpt lat="59.8568454" lon="17.7233897">
        <ele>10.2312</ele>
        <time>2013-05-16T16:42:38Z</time>
      </trkpt>
      <trkpt lat="59.8567971" lon="17.7234864">
        <ele>9.75061</ele>
        <time>2013-05-16T16:42:39Z</time>
      </trkpt>
      <trkpt lat="59.8567469" lon="17.7235848">
        <ele>9.75061</ele>
        <time>2013-05-16T16:42:40Z</time>
      </trkpt>
      <trkpt lat="59.8566961" lon="17.7236745">
        <ele>8.78918</ele>
        <time>2013-05-16T16:42:41Z</time>
      </trkpt>
      <trkpt lat="59.8566454" lon="17.7237755">
        <ele>8.78918</ele>
        <time>2013-05-16T16:42:42Z</time>
      </trkpt>
      <trkpt lat="59.8565943" lon="17.7238861">
        <ele>8.78918</ele>
        <time>2013-05-16T16:42:43Z</time>
      </trkpt>
      <trkpt lat="59.8565444" lon="17.7239917">
        <ele>8.78918</ele>
        <time>2013-05-16T16:42:44Z</time>
      </trkpt>
      <trkpt lat="59.8564957" lon="17.7240978">
        <ele>8.78918</ele>
        <time>2013-05-16T16:42:45Z</time>
      </trkpt>
      <trkpt lat="59.8564483" lon="17.7241995">
        <ele>8.78918</ele>
        <time>2013-05-16T16:42:46Z</time>
      </trkpt>
      <trkpt lat="59.8564033" lon="17.7242952">
        <ele>8.30859</ele>
        <time>2013-05-16T16:42:47Z</time>
      </trkpt>
      <trkpt lat="59.85636" lon="17.7243906">
        <ele>8.30859</ele>
        <time>2013-05-16T16:42:48Z</time>
      </trkpt>
      <trkpt lat="59.8563189" lon="17.7244873">
        <ele>7.82788</ele>
        <time>2013-05-16T16:42:49Z</time>
      </trkpt>
      <trkpt lat="59.8562817" lon="17.7245775">
        <ele>7.34717</ele>
        <time>2013-05-16T16:42:50Z</time>
      </trkpt>
      <trkpt lat="59.8562469" lon="17.7246649">
        <ele>7.34717</ele>
        <time>2013-05-16T16:42:51Z</time>
      </trkpt>
      <trkpt lat="59.8562091" lon="17.7247602">
        <ele>6.86646</ele>
        <time>2013-05-16T16:42:52Z</time>
      </trkpt>
      <trkpt lat="59.8561692" lon="17.7248666">
        <ele>6.38586</ele>
        <time>2013-05-16T16:42:53Z</time>
      </trkpt>
      <trkpt lat="59.8561323" lon="17.7249546">
        <ele>6.38586</ele>
        <time>2013-05-16T16:42:54Z</time>
      </trkpt>
      <trkpt lat="59.8560905" lon="17.7250514">
        <ele>5.90527</ele>
        <time>2013-05-16T16:42:55Z</time>
      </trkpt>
      <trkpt lat="59.8560491" lon="17.7251535">
        <ele>5.90527</ele>
        <time>2013-05-16T16:42:56Z</time>
      </trkpt>
      <trkpt lat="59.8560076" lon="17.7252598">
        <ele>4.94385</ele>
        <time>2013-05-16T16:42:57Z</time>
      </trkpt>
      <trkpt lat="59.8559667" lon="17.7253598">
        <ele>4.94385</ele>
        <time>2013-05-16T16:42:58Z</time>
      </trkpt>
      <trkpt lat="59.8559264" lon="17.7254566">
        <ele>4.94385</ele>
        <time>2013-05-16T16:42:59Z</time>
      </trkpt>
      <trkpt lat="59.855888" lon="17.7255507">
        <ele>4.94385</ele>
        <time>2013-05-16T16:43:00Z</time>
      </trkpt>
      <trkpt lat="59.8558552" lon="17.7256294">
        <ele>4.46326</ele>
        <time>2013-05-16T16:43:01Z</time>
      </trkpt>
      <trkpt lat="59.8558211" lon="17.7257156">
        <ele>4.46326</ele>
        <time>2013-05-16T16:43:02Z</time>
      </trkpt>
      <trkpt lat="59.855788" lon="17.7258052">
        <ele>3.98267</ele>
        <time>2013-05-16T16:43:03Z</time>
      </trkpt>
      <trkpt lat="59.8557512" lon="17.7259104">
        <ele>4.46326</ele>
        <time>2013-05-16T16:43:04Z</time>
      </trkpt>
      <trkpt lat="59.8557168" lon="17.7260029">
        <ele>4.46326</ele>
        <time>2013-05-16T16:43:05Z</time>
      </trkpt>
      <trkpt lat="59.8556795" lon="17.7261099">
        <ele>4.46326</ele>
        <time>2013-05-16T16:43:06Z</time>
      </trkpt>
      <trkpt lat="59.8556423" lon="17.7262163">
        <ele>4.46326</ele>
        <time>2013-05-16T16:43:07Z</time>
      </trkpt>
      <trkpt lat="59.8556066" lon="17.7263236">
        <ele>4.94385</ele>
        <time>2013-05-16T16:43:08Z</time>
      </trkpt>
      <trkpt lat="59.855569" lon="17.7264274">
        <ele>4.94385</ele>
        <time>2013-05-16T16:43:09Z</time>
      </trkpt>
      <trkpt lat="59.8555329" lon="17.726533">
        <ele>4.94385</ele>
        <time>2013-05-16T16:43:10Z</time>
      </trkpt>
      <trkpt lat="59.8554968" lon="17.7266377">
        <ele>4.94385</ele>
        <time>2013-05-16T16:43:11Z</time>
      </trkpt>
      <trkpt lat="59.8554617" lon="17.7267397">
        <ele>5.42456</ele>
        <time>2013-05-16T16:43:12Z</time>
      </trkpt>
      <trkpt lat="59.8554259" lon="17.7268362">
        <ele>5.42456</ele>
        <time>2013-05-16T16:43:13Z</time>
      </trkpt>
      <trkpt lat="59.8553902" lon="17.7269263">
        <ele>5.90527</ele>
        <time>2013-05-16T16:43:14Z</time>
      </trkpt>
      <trkpt lat="59.8553543" lon="17.7270167">
        <ele>6.38586</ele>
        <time>2013-05-16T16:43:15Z</time>
      </trkpt>
      <trkpt lat="59.8553223" lon="17.7270913">
        <ele>5.90527</ele>
        <time>2013-05-16T16:43:16Z</time>
      </trkpt>
      <trkpt lat="59.8552903" lon="17.7271692">
        <ele>5.42456</ele>
        <time>2013-05-16T16:43:17Z</time>
      </trkpt>
      <trkpt lat="59.8552545" lon="17.7272515">
        <ele>5.90527</ele>
        <time>2013-05-16T16:43:18Z</time>
      </trkpt>
      <trkpt lat="59.8552196" lon="17.7273318">
        <ele>5.90527</ele>
        <time>2013-05-16T16:43:19Z</time>
      </trkpt>
      <trkpt lat="59.8551854" lon="17.7274153">
        <ele>5.90527</ele>
        <time>2013-05-16T16:43:20Z</time>
      </trkpt>
      <trkpt lat="59.8551487" lon="17.7275059">
        <ele>6.38586</ele>
        <time>2013-05-16T16:43:21Z</time>
      </trkpt>
      <trkpt lat="59.8551133" lon="17.7275888">
        <ele>6.38586</ele>
        <time>2013-05-16T16:43:22Z</time>
      </trkpt>
      <trkpt lat="59.8550793" lon="17.7276773">
        <ele>6.38586</ele>
        <time>2013-05-16T16:43:23Z</time>
      </trkpt>
      <trkpt lat="59.8550455" lon="17.7277644">
        <ele>6.38586</ele>
        <time>2013-05-16T16:43:24Z</time>
      </trkpt>
      <trkpt lat="59.8550106" lon="17.7278501">
        <ele>6.38586</ele>
        <time>2013-05-16T16:43:25Z</time>
      </trkpt>
      <trkpt lat="59.8549762" lon="17.7279354">
        <ele>6.38586</ele>
        <time>2013-05-16T16:43:26Z</time>
      </trkpt>
      <trkpt lat="59.854942" lon="17.7280214">
        <ele>6.86646</ele>
        <time>2013-05-16T16:43:27Z</time>
      </trkpt>
      <trkpt lat="59.8549085" lon="17.7281104">
        <ele>6.86646</ele>
        <time>2013-05-16T16:43:28Z</time>
      </trkpt>
      <trkpt lat="59.8548783" lon="17.7282061">
        <ele>6.86646</ele>
        <time>2013-05-16T16:43:29Z</time>
      </trkpt>
      <trkpt lat="59.8548456" lon="17.7282964">
        <ele>6.86646</ele>
        <time>2013-05-16T16:43:30Z</time>
      </trkpt>
      <trkpt lat="59.8548131" lon="17.728388">
        <ele>6.38586</ele>
        <time>2013-05-16T16:43:31Z</time>
      </trkpt>
      <trkpt lat="59.8547795" lon="17.7284813">
        <ele>6.86646</ele>
        <time>2013-05-16T16:43:32Z</time>
      </trkpt>
      <trkpt lat="59.854745" lon="17.7285787">
        <ele>6.38586</ele>
        <time>2013-05-16T16:43:33Z</time>
      </trkpt>
      <trkpt lat="59.8547091" lon="17.7286776">
        <ele>6.38586</ele>
        <time>2013-05-16T16:43:34Z</time>
      </trkpt>
      <trkpt lat="59.854672" lon="17.7287729">
        <ele>6.38586</ele>
        <time>2013-05-16T16:43:35Z</time>
      </trkpt>
      <trkpt lat="59.8546349" lon="17.7288703">
        <ele>6.38586</ele>
        <time>2013-05-16T16:43:36Z</time>
      </trkpt>
      <trkpt lat="59.8545966" lon="17.7289693">
        <ele>6.38586</ele>
        <time>2013-05-16T16:43:37Z</time>
      </trkpt>
      <trkpt lat="59.8545588" lon="17.7290695">
        <ele>6.38586</ele>
        <time>2013-05-16T16:43:38Z</time>
      </trkpt>
      <trkpt lat="59.8545216" lon="17.7291687">
        <ele>5.90527</ele>
        <time>2013-05-16T16:43:39Z</time>
      </trkpt>
      <trkpt lat="59.854485" lon="17.7292718">
        <ele>5.90527</ele>
        <time>2013-05-16T16:43:40Z</time>
      </trkpt>
      <trkpt lat="59.8544516" lon="17.7293576">
        <ele>5.42456</ele>
        <time>2013-05-16T16:43:41Z</time>
      </trkpt>
      <trkpt lat="59.8544174" lon="17.7294458">
        <ele>5.42456</ele>
        <time>2013-05-16T16:43:42Z</time>
      </trkpt>
      <trkpt lat="59.8543846" lon="17.7295307">
        <ele>4.94385</ele>
        <time>2013-05-16T16:43:43Z</time>
      </trkpt>
      <trkpt lat="59.8543503" lon="17.7296209">
        <ele>4.46326</ele>
        <time>2013-05-16T16:43:44Z</time>
      </trkpt>
      <trkpt lat="59.8543148" lon="17.7297117">
        <ele>4.46326</ele>
        <time>2013-05-16T16:43:45Z</time>
      </trkpt>
      <trkpt lat="59.8542804" lon="17.7297955">
        <ele>3.98267</ele>
        <time>2013-05-16T16:43:46Z</time>
      </trkpt>
      <trkpt lat="59.8542443" lon="17.7298982">
        <ele>3.98267</ele>
        <time>2013-05-16T16:43:47Z</time>
      </trkpt>
      <trkpt lat="59.854207" lon="17.7300037">
        <ele>3.50195</ele>
        <time>2013-05-16T16:43:48Z</time>
      </trkpt>
      <trkpt lat="59.8541695" lon="17.7301146">
        <ele>3.02124</ele>
        <time>2013-05-16T16:43:49Z</time>
      </trkpt>
      <trkpt lat="59.8541361" lon="17.7302228">
        <ele>2.54065</ele>
        <time>2013-05-16T16:43:50Z</time>
      </trkpt>
      <trkpt lat="59.8541053" lon="17.7303345">
        <ele>2.06006</ele>
        <time>2013-05-16T16:43:51Z</time>
      </trkpt>
      <trkpt lat="59.8540735" lon="17.7304538">
        <ele>1.57935</ele>
        <time>2013-05-16T16:43:52Z</time>
      </trkpt>
      <trkpt lat="59.8540428" lon="17.7305766">
        <ele>1.09863</ele>
        <time>2013-05-16T16:43:53Z</time>
      </trkpt>
      <trkpt lat="59.8540147" lon="17.7307051">
        <ele>0.618042</ele>
        <time>2013-05-16T16:43:54Z</time>
      </trkpt>
      <trkpt lat="59.8539883" lon="17.7308372">
        <ele>0.137451</ele>
        <time>2013-05-16T16:43:55Z</time>
      </trkpt>
      <trkpt lat="59.8539665" lon="17.7309803">
        <ele>0</ele>
        <time>2013-05-16T16:43:56Z</time>
      </trkpt>
      <trkpt lat="59.8539438" lon="17.7311211">
        <ele>0</ele>
        <time>2013-05-16T16:43:57Z</time>
      </trkpt>
      <trkpt lat="59.8539237" lon="17.7312675">
        <ele>0</ele>
        <time>2013-05-16T16:43:58Z</time>
      </trkpt>
      <trkpt lat="59.8539071" lon="17.7314167">
        <ele>0</ele>
        <time>2013-05-16T16:43:59Z</time>
      </trkpt>
      <trkpt lat="59.8538925" lon="17.731568">
        <ele>0</ele>
        <time>2013-05-16T16:44:00Z</time>
      </trkpt>
      <trkpt lat="59.8538787" lon="17.7317209">
        <ele>0</ele>
        <time>2013-05-16T16:44:01Z</time>
      </trkpt>
      <trkpt lat="59.8538657" lon="17.7318763">
        <ele>0</ele>
        <time>2013-05-16T16:44:02Z</time>
      </trkpt>
      <trkpt lat="59.8538515" lon="17.7320312">
        <ele>0</ele>
        <time>2013-05-16T16:44:03Z</time>
      </trkpt>
      <trkpt lat="59.8538363" lon="17.7321786">
        <ele>0</ele>
        <time>2013-05-16T16:44:04Z</time>
      </trkpt>
      <trkpt lat="59.8538202" lon="17.7323244">
        <ele>0</ele>
        <time>2013-05-16T16:44:05Z</time>
      </trkpt>
      <trkpt lat="59.8538041" lon="17.7324637">
        <ele>0</ele>
        <time>2013-05-16T16:44:06Z</time>
      </trkpt>
      <trkpt lat="59.8537885" lon="17.7325986">
        <ele>0</ele>
        <time>2013-05-16T16:44:07Z</time>
      </trkpt>
      <trkpt lat="59.8537627" lon="17.7328536">
        <ele>0</ele>
        <time>2013-05-16T16:44:10Z</time>
      </trkpt>
      <trkpt lat="59.853745" lon="17.7329787">
        <ele>0</ele>
        <time>2013-05-16T16:44:11Z</time>
      </trkpt>
      <trkpt lat="59.8537232" lon="17.7331017">
        <ele>0</ele>
        <time>2013-05-16T16:44:12Z</time>
      </trkpt>
      <trkpt lat="59.8537046" lon="17.7332247">
        <ele>0</ele>
        <time>2013-05-16T16:44:13Z</time>
      </trkpt>
      <trkpt lat="59.8536827" lon="17.7333372">
        <ele>0</ele>
        <time>2013-05-16T16:44:14Z</time>
      </trkpt>
      <trkpt lat="59.8536539" lon="17.7334578">
        <ele>0</ele>
        <time>2013-05-16T16:44:15Z</time>
      </trkpt>
      <trkpt lat="59.8536324" lon="17.7335716">
        <ele>0</ele>
        <time>2013-05-16T16:44:16Z</time>
      </trkpt>
      <trkpt lat="59.853602" lon="17.7336799">
        <ele>0.137451</ele>
        <time>2013-05-16T16:44:17Z</time>
      </trkpt>
      <trkpt lat="59.8535689" lon="17.7337872">
        <ele>2.54065</ele>
        <time>2013-05-16T16:44:18Z</time>
      </trkpt>
      <trkpt lat="59.8535239" lon="17.7338842">
        <ele>3.98267</ele>
        <time>2013-05-16T16:44:19Z</time>
      </trkpt>
      <trkpt lat="59.8534868" lon="17.7339701">
        <ele>4.94385</ele>
        <time>2013-05-16T16:44:20Z</time>
      </trkpt>
      <trkpt lat="59.8534517" lon="17.7340447">
        <ele>5.90527</ele>
        <time>2013-05-16T16:44:21Z</time>
      </trkpt>
      <trkpt lat="59.8534196" lon="17.7341091">
        <ele>5.90527</ele>
        <time>2013-05-16T16:44:22Z</time>
      </trkpt>
      <trkpt lat="59.8533871" lon="17.7341769">
        <ele>6.86646</ele>
        <time>2013-05-16T16:44:23Z</time>
      </trkpt>
      <trkpt lat="59.8533529" lon="17.7342363">
        <ele>9.2699</ele>
        <time>2013-05-16T16:44:24Z</time>
      </trkpt>
      <trkpt lat="59.8533218" lon="17.734271">
        <ele>9.75061</ele>
        <time>2013-05-16T16:44:25Z</time>
      </trkpt>
      <trkpt lat="59.8532926" lon="17.7343048">
        <ele>9.75061</ele>
        <time>2013-05-16T16:44:26Z</time>
      </trkpt>
      <trkpt lat="59.8532622" lon="17.7343455">
        <ele>11.1925</ele>
        <time>2013-05-16T16:44:27Z</time>
      </trkpt>
      <trkpt lat="59.8532311" lon="17.7343908">
        <ele>11.6732</ele>
        <time>2013-05-16T16:44:28Z</time>
      </trkpt>
      <trkpt lat="59.8531969" lon="17.7344357">
        <ele>12.1538</ele>
        <time>2013-05-16T16:44:29Z</time>
      </trkpt>
      <trkpt lat="59.853161" lon="17.7344771">
        <ele>13.1151</ele>
        <time>2013-05-16T16:44:30Z</time>
      </trkpt>
      <trkpt lat="59.8531263" lon="17.7345249">
        <ele>14.0764</ele>
        <time>2013-05-16T16:44:31Z</time>
      </trkpt>
      <trkpt lat="59.8530931" lon="17.734567">
        <ele>14.557</ele>
        <time>2013-05-16T16:44:32Z</time>
      </trkpt>
      <trkpt lat="59.8530591" lon="17.7346115">
        <ele>15.0377</ele>
        <time>2013-05-16T16:44:33Z</time>
      </trkpt>
      <trkpt lat="59.853025" lon="17.7346568">
        <ele>15.5184</ele>
        <time>2013-05-16T16:44:34Z</time>
      </trkpt>
      <trkpt lat="59.8529901" lon="17.7347027">
        <ele>15.999</ele>
        <time>2013-05-16T16:44:35Z</time>
      </trkpt>
      <trkpt lat="59.8529549" lon="17.7347511">
        <ele>15.999</ele>
        <time>2013-05-16T16:44:36Z</time>
      </trkpt>
      <trkpt lat="59.8529156" lon="17.7347937">
        <ele>15.999</ele>
        <time>2013-05-16T16:44:37Z</time>
      </trkpt>
      <trkpt lat="59.8528774" lon="17.7348371">
        <ele>15.999</ele>
        <time>2013-05-16T16:44:38Z</time>
      </trkpt>
      <trkpt lat="59.8528419" lon="17.7348801">
        <ele>15.999</ele>
        <time>2013-05-16T16:44:39Z</time>
      </trkpt>
      <trkpt lat="59.8528072" lon="17.7349205">
        <ele>15.999</ele>
        <time>2013-05-16T16:44:40Z</time>
      </trkpt>
      <trkpt lat="59.8527716" lon="17.7349612">
        <ele>15.999</ele>
        <time>2013-05-16T16:44:41Z</time>
      </trkpt>
      <trkpt lat="59.8527362" lon="17.7350025">
        <ele>15.999</ele>
        <time>2013-05-16T16:44:42Z</time>
      </trkpt>
      <trkpt lat="59.8527012" lon="17.7350434">
        <ele>15.999</ele>
        <time>2013-05-16T16:44:43Z</time>
      </trkpt>
      <trkpt lat="59.852667" lon="17.7350859">
        <ele>15.999</ele>
        <time>2013-05-16T16:44:44Z</time>
      </trkpt>
      <trkpt lat="59.8526328" lon="17.7351306">
        <ele>15.5184</ele>
        <time>2013-05-16T16:44:45Z</time>
      </trkpt>
      <trkpt lat="59.8525976" lon="17.7351764">
        <ele>15.5184</ele>
        <time>2013-05-16T16:44:46Z</time>
      </trkpt>
      <trkpt lat="59.8525624" lon="17.7352193">
        <ele>15.5184</ele>
        <time>2013-05-16T16:44:47Z</time>
      </trkpt>
      <trkpt lat="59.8525245" lon="17.735265">
        <ele>15.999</ele>
        <time>2013-05-16T16:44:48Z</time>
      </trkpt>
      <trkpt lat="59.852486" lon="17.7353116">
        <ele>15.999</ele>
        <time>2013-05-16T16:44:49Z</time>
      </trkpt>
      <trkpt lat="59.8524449" lon="17.7353625">
        <ele>15.999</ele>
        <time>2013-05-16T16:44:50Z</time>
      </trkpt>
      <trkpt lat="59.8524026" lon="17.7354144">
        <ele>16.4797</ele>
        <time>2013-05-16T16:44:51Z</time>
      </trkpt>
      <trkpt lat="59.8523614" lon="17.7354644">
        <ele>16.4797</ele>
        <time>2013-05-16T16:44:52Z</time>
      </trkpt>
      <trkpt lat="59.8523205" lon="17.7355165">
        <ele>16.9604</ele>
        <time>2013-05-16T16:44:53Z</time>
      </trkpt>
      <trkpt lat="59.8522774" lon="17.7355661">
        <ele>16.9604</ele>
        <time>2013-05-16T16:44:54Z</time>
      </trkpt>
      <trkpt lat="59.8522309" lon="17.7356177">
        <ele>17.4412</ele>
        <time>2013-05-16T16:44:55Z</time>
      </trkpt>
      <trkpt lat="59.8521894" lon="17.7356667">
        <ele>17.4412</ele>
        <time>2013-05-16T16:44:56Z</time>
      </trkpt>
      <trkpt lat="59.8521484" lon="17.7357209">
        <ele>17.9218</ele>
        <time>2013-05-16T16:44:57Z</time>
      </trkpt>
      <trkpt lat="59.8521071" lon="17.7357723">
        <ele>18.4023</ele>
        <time>2013-05-16T16:44:58Z</time>
      </trkpt>
      <trkpt lat="59.8520661" lon="17.7358184">
        <ele>18.4023</ele>
        <time>2013-05-16T16:44:59Z</time>
      </trkpt>
      <trkpt lat="59.8520252" lon="17.7358623">
        <ele>17.9218</ele>
        <time>2013-05-16T16:45:00Z</time>
      </trkpt>
      <trkpt lat="59.8519841" lon="17.7359128">
        <ele>17.9218</ele>
        <time>2013-05-16T16:45:01Z</time>
      </trkpt>
      <trkpt lat="59.8519449" lon="17.7359696">
        <ele>17.9218</ele>
        <time>2013-05-16T16:45:02Z</time>
      </trkpt>
      <trkpt lat="59.8519085" lon="17.7360219">
        <ele>17.9218</ele>
        <time>2013-05-16T16:45:03Z</time>
      </trkpt>
      <trkpt lat="59.8518734" lon="17.7360735">
        <ele>16.9604</ele>
        <time>2013-05-16T16:45:04Z</time>
      </trkpt>
      <trkpt lat="59.8518382" lon="17.7361293">
        <ele>16.9604</ele>
        <time>2013-05-16T16:45:05Z</time>
      </trkpt>
      <trkpt lat="59.8518036" lon="17.7361846">
        <ele>15.999</ele>
        <time>2013-05-16T16:45:06Z</time>
      </trkpt>
      <trkpt lat="59.8517681" lon="17.7362471">
        <ele>15.999</ele>
        <time>2013-05-16T16:45:07Z</time>
      </trkpt>
      <trkpt lat="59.8517335" lon="17.7363089">
        <ele>15.5184</ele>
        <time>2013-05-16T16:45:08Z</time>
      </trkpt>
      <trkpt lat="59.8516962" lon="17.7363747">
        <ele>15.5184</ele>
        <time>2013-05-16T16:45:09Z</time>
      </trkpt>
      <trkpt lat="59.8516531" lon="17.7364488">
        <ele>15.999</ele>
        <time>2013-05-16T16:45:10Z</time>
      </trkpt>
      <trkpt lat="59.8516127" lon="17.7365171">
        <ele>15.999</ele>
        <time>2013-05-16T16:45:11Z</time>
      </trkpt>
      <trkpt lat="59.8515729" lon="17.7365803">
        <ele>15.999</ele>
        <time>2013-05-16T16:45:12Z</time>
      </trkpt>
      <trkpt lat="59.8515357" lon="17.7366354">
        <ele>15.5184</ele>
        <time>2013-05-16T16:45:13Z</time>
      </trkpt>
      <trkpt lat="59.8514994" lon="17.7366871">
        <ele>15.5184</ele>
        <time>2013-05-16T16:45:14Z</time>
      </trkpt>
      <trkpt lat="59.8514593" lon="17.7367435">
        <ele>15.5184</ele>
        <time>2013-05-16T16:45:15Z</time>
      </trkpt>
      <trkpt lat="59.8514225" lon="17.736786">
        <ele>15.5184</ele>
        <time>2013-05-16T16:45:16Z</time>
      </trkpt>
      <trkpt lat="59.8513849" lon="17.7368275">
        <ele>15.0377</ele>
        <time>2013-05-16T16:45:17Z</time>
      </trkpt>
      <trkpt lat="59.8513429" lon="17.7368741">
        <ele>15.999</ele>
        <time>2013-05-16T16:45:18Z</time>
      </trkpt>
      <trkpt lat="59.8512989" lon="17.7369227">
        <ele>16.9604</ele>
        <time>2013-05-16T16:45:19Z</time>
      </trkpt>
      <trkpt lat="59.8512596" lon="17.736959">
        <ele>16.4797</ele>
        <time>2013-05-16T16:45:20Z</time>
      </trkpt>
      <trkpt lat="59.8512184" lon="17.7369963">
        <ele>16.4797</ele>
        <time>2013-05-16T16:45:21Z</time>
      </trkpt>
      <trkpt lat="59.8511771" lon="17.7370324">
        <ele>16.4797</ele>
        <time>2013-05-16T16:45:22Z</time>
      </trkpt>
      <trkpt lat="59.851141" lon="17.737058">
        <ele>15.999</ele>
        <time>2013-05-16T16:45:23Z</time>
      </trkpt>
      <trkpt lat="59.8510989" lon="17.7370906">
        <ele>15.999</ele>
        <time>2013-05-16T16:45:24Z</time>
      </trkpt>
      <trkpt lat="59.851049" lon="17.7371332">
        <ele>16.4797</ele>
        <time>2013-05-16T16:45:25Z</time>
      </trkpt>
      <trkpt lat="59.851003" lon="17.737173">
        <ele>16.4797</ele>
        <time>2013-05-16T16:45:26Z</time>
      </trkpt>
      <trkpt lat="59.8509566" lon="17.7372139">
        <ele>16.4797</ele>
        <time>2013-05-16T16:45:27Z</time>
      </trkpt>
      <trkpt lat="59.8509082" lon="17.7372538">
        <ele>16.4797</ele>
        <time>2013-05-16T16:45:28Z</time>
      </trkpt>
      <trkpt lat="59.8508595" lon="17.73729">
        <ele>15.999</ele>
        <time>2013-05-16T16:45:29Z</time>
      </trkpt>
      <trkpt lat="59.8508102" lon="17.7373258">
        <ele>15.999</ele>
        <time>2013-05-16T16:45:30Z</time>
      </trkpt>
      <trkpt lat="59.8507616" lon="17.7373598">
        <ele>15.5184</ele>
        <time>2013-05-16T16:45:31Z</time>
      </trkpt>
      <trkpt lat="59.8507126" lon="17.7373905">
        <ele>15.0377</ele>
        <time>2013-05-16T16:45:32Z</time>
      </trkpt>
      <trkpt lat="59.850664" lon="17.737421">
        <ele>14.557</ele>
        <time>2013-05-16T16:45:33Z</time>
      </trkpt>
      <trkpt lat="59.8506158" lon="17.7374494">
        <ele>14.0764</ele>
        <time>2013-05-16T16:45:34Z</time>
      </trkpt>
      <trkpt lat="59.8505666" lon="17.7374829">
        <ele>13.5958</ele>
        <time>2013-05-16T16:45:35Z</time>
      </trkpt>
      <trkpt lat="59.8505178" lon="17.7375152">
        <ele>13.5958</ele>
        <time>2013-05-16T16:45:36Z</time>
      </trkpt>
      <trkpt lat="59.8504653" lon="17.7375578">
        <ele>15.0377</ele>
        <time>2013-05-16T16:45:37Z</time>
      </trkpt>
      <trkpt lat="59.8504142" lon="17.7375852">
        <ele>15.999</ele>
        <time>2013-05-16T16:45:38Z</time>
      </trkpt>
      <trkpt lat="59.8503557" lon="17.7376173">
        <ele>17.4412</ele>
        <time>2013-05-16T16:45:39Z</time>
      </trkpt>
      <trkpt lat="59.8502957" lon="17.7376452">
        <ele>18.8831</ele>
        <time>2013-05-16T16:45:40Z</time>
      </trkpt>
      <trkpt lat="59.8502323" lon="17.7376789">
        <ele>20.8057</ele>
        <time>2013-05-16T16:45:41Z</time>
      </trkpt>
      <trkpt lat="59.8501738" lon="17.7377079">
        <ele>22.2476</ele>
        <time>2013-05-16T16:45:42Z</time>
      </trkpt>
      <trkpt lat="59.8501144" lon="17.7377362">
        <ele>23.6896</ele>
        <time>2013-05-16T16:45:43Z</time>
      </trkpt>
      <trkpt lat="59.8500516" lon="17.7377775">
        <ele>25.6123</ele>
        <time>2013-05-16T16:45:44Z</time>
      </trkpt>
      <trkpt lat="59.8499915" lon="17.7378033">
        <ele>26.5736</ele>
        <time>2013-05-16T16:45:45Z</time>
      </trkpt>
      <trkpt lat="59.8499317" lon="17.737831">
        <ele>28.0155</ele>
        <time>2013-05-16T16:45:46Z</time>
      </trkpt>
      <trkpt lat="59.8498744" lon="17.7378472">
        <ele>29.4575</ele>
        <time>2013-05-16T16:45:47Z</time>
      </trkpt>
      <trkpt lat="59.8498112" lon="17.7378771">
        <ele>30.8995</ele>
        <time>2013-05-16T16:45:48Z</time>
      </trkpt>
      <trkpt lat="59.8497527" lon="17.7379026">
        <ele>32.3416</ele>
        <time>2013-05-16T16:45:49Z</time>
      </trkpt>
      <trkpt lat="59.8496999" lon="17.7379239">
        <ele>32.8223</ele>
        <time>2013-05-16T16:45:50Z</time>
      </trkpt>
      <trkpt lat="59.8496506" lon="17.7379411">
        <ele>33.3029</ele>
        <time>2013-05-16T16:45:51Z</time>
      </trkpt>
      <trkpt lat="59.8495911" lon="17.7379746">
        <ele>34.7449</ele>
        <time>2013-05-16T16:45:52Z</time>
      </trkpt>
      <trkpt lat="59.8495382" lon="17.7379978">
        <ele>35.2255</ele>
        <time>2013-05-16T16:45:53Z</time>
      </trkpt>
      <trkpt lat="59.849485" lon="17.7380234">
        <ele>35.7061</ele>
        <time>2013-05-16T16:45:54Z</time>
      </trkpt>
      <trkpt lat="59.8494326" lon="17.7380519">
        <ele>36.6675</ele>
        <time>2013-05-16T16:45:55Z</time>
      </trkpt>
      <trkpt lat="59.8493812" lon="17.7380726">
        <ele>36.6675</ele>
        <time>2013-05-16T16:45:56Z</time>
      </trkpt>
      <trkpt lat="59.8493294" lon="17.7380938">
        <ele>36.6675</ele>
        <time>2013-05-16T16:45:57Z</time>
      </trkpt>
      <trkpt lat="59.8492757" lon="17.738122">
        <ele>37.1481</ele>
        <time>2013-05-16T16:45:58Z</time>
      </trkpt>
      <trkpt lat="59.8492263" lon="17.7381416">
        <ele>36.6675</ele>
        <time>2013-05-16T16:45:59Z</time>
      </trkpt>
      <trkpt lat="59.8491772" lon="17.7381583">
        <ele>36.1868</ele>
        <time>2013-05-16T16:46:00Z</time>
      </trkpt>
      <trkpt lat="59.84913" lon="17.7381748">
        <ele>35.7061</ele>
        <time>2013-05-16T16:46:01Z</time>
      </trkpt>
      <trkpt lat="59.8490837" lon="17.7381908">
        <ele>34.7449</ele>
        <time>2013-05-16T16:46:02Z</time>
      </trkpt>
      <trkpt lat="59.8490253" lon="17.7382291">
        <ele>35.7061</ele>
        <time>2013-05-16T16:46:03Z</time>
      </trkpt>
      <trkpt lat="59.8489763" lon="17.7382546">
        <ele>35.2255</ele>
        <time>2013-05-16T16:46:04Z</time>
      </trkpt>
      <trkpt lat="59.8489286" lon="17.7382766">
        <ele>34.7449</ele>
        <time>2013-05-16T16:46:05Z</time>
      </trkpt>
      <trkpt lat="59.848881" lon="17.7382976">
        <ele>34.2642</ele>
        <time>2013-05-16T16:46:06Z</time>
      </trkpt>
      <trkpt lat="59.8488321" lon="17.7383204">
        <ele>33.3029</ele>
        <time>2013-05-16T16:46:07Z</time>
      </trkpt>
      <trkpt lat="59.8487792" lon="17.7383551">
        <ele>33.3029</ele>
        <time>2013-05-16T16:46:08Z</time>
      </trkpt>
      <trkpt lat="59.8487247" lon="17.7383944">
        <ele>33.7834</ele>
        <time>2013-05-16T16:46:09Z</time>
      </trkpt>
      <trkpt lat="59.8486717" lon="17.7384245">
        <ele>33.7834</ele>
        <time>2013-05-16T16:46:10Z</time>
      </trkpt>
      <trkpt lat="59.8486245" lon="17.7384434">
        <ele>32.8223</ele>
        <time>2013-05-16T16:46:11Z</time>
      </trkpt>
      <trkpt lat="59.8485815" lon="17.7384562">
        <ele>31.8607</ele>
        <time>2013-05-16T16:46:12Z</time>
      </trkpt>
      <trkpt lat="59.8485359" lon="17.7384735">
        <ele>30.8995</ele>
        <time>2013-05-16T16:46:13Z</time>
      </trkpt>
      <trkpt lat="59.8484831" lon="17.7385017">
        <ele>30.4188</ele>
        <time>2013-05-16T16:46:14Z</time>
      </trkpt>
      <trkpt lat="59.8484276" lon="17.7385338">
        <ele>30.4188</ele>
        <time>2013-05-16T16:46:15Z</time>
      </trkpt>
      <trkpt lat="59.8483763" lon="17.7385597">
        <ele>30.4188</ele>
        <time>2013-05-16T16:46:16Z</time>
      </trkpt>
      <trkpt lat="59.8483337" lon="17.7385747">
        <ele>28.9769</ele>
        <time>2013-05-16T16:46:17Z</time>
      </trkpt>
      <trkpt lat="59.8482882" lon="17.7385895">
        <ele>27.5349</ele>
        <time>2013-05-16T16:46:18Z</time>
      </trkpt>
      <trkpt lat="59.8482426" lon="17.7386084">
        <ele>26.5736</ele>
        <time>2013-05-16T16:46:19Z</time>
      </trkpt>
      <trkpt lat="59.8481975" lon="17.738626">
        <ele>25.6123</ele>
        <time>2013-05-16T16:46:20Z</time>
      </trkpt>
      <trkpt lat="59.8481514" lon="17.7386478">
        <ele>24.651</ele>
        <time>2013-05-16T16:46:21Z</time>
      </trkpt>
      <trkpt lat="59.8481031" lon="17.7386773">
        <ele>24.651</ele>
        <time>2013-05-16T16:46:22Z</time>
      </trkpt>
      <trkpt lat="59.8480539" lon="17.7387076">
        <ele>24.1703</ele>
        <time>2013-05-16T16:46:23Z</time>
      </trkpt>
      <trkpt lat="59.848006" lon="17.7387206">
        <ele>23.6896</ele>
        <time>2013-05-16T16:46:24Z</time>
      </trkpt>
      <trkpt lat="59.8479562" lon="17.7387368">
        <ele>23.209</ele>
        <time>2013-05-16T16:46:25Z</time>
      </trkpt>
      <trkpt lat="59.8479069" lon="17.7387675">
        <ele>23.209</ele>
        <time>2013-05-16T16:46:26Z</time>
      </trkpt>
      <trkpt lat="59.8478597" lon="17.7388078">
        <ele>23.209</ele>
        <time>2013-05-16T16:46:27Z</time>
      </trkpt>
      <trkpt lat="59.8478161" lon="17.7388549">
        <ele>22.7283</ele>
        <time>2013-05-16T16:46:28Z</time>
      </trkpt>
      <trkpt lat="59.8477825" lon="17.7389227">
        <ele>21.767</ele>
        <time>2013-05-16T16:46:29Z</time>
      </trkpt>
      <trkpt lat="59.847763" lon="17.739004">
        <ele>20.325</ele>
        <time>2013-05-16T16:46:30Z</time>
      </trkpt>
      <trkpt lat="59.8477742" lon="17.7391635">
        <ele>19.8444</ele>
        <time>2013-05-16T16:46:31Z</time>
      </trkpt>
      <trkpt lat="59.8477786" lon="17.7392683">
        <ele>18.8831</ele>
        <time>2013-05-16T16:46:32Z</time>
      </trkpt>
      <trkpt lat="59.8477941" lon="17.73936">
        <ele>17.9218</ele>
        <time>2013-05-16T16:46:33Z</time>
      </trkpt>
      <trkpt lat="59.8477707" lon="17.7394481">
        <ele>19.3638</ele>
        <time>2013-05-16T16:46:34Z</time>
      </trkpt>
      <trkpt lat="59.8477593" lon="17.7395341">
        <ele>20.325</ele>
        <time>2013-05-16T16:46:35Z</time>
      </trkpt>
      <trkpt lat="59.8477516" lon="17.7396217">
        <ele>21.767</ele>
        <time>2013-05-16T16:46:36Z</time>
      </trkpt>
      <trkpt lat="59.8477599" lon="17.7397143">
        <ele>21.2864</ele>
        <time>2013-05-16T16:46:37Z</time>
      </trkpt>
      <trkpt lat="59.8477537" lon="17.7398081">
        <ele>22.2476</ele>
        <time>2013-05-16T16:46:38Z</time>
      </trkpt>
      <trkpt lat="59.8477574" lon="17.7398914">
        <ele>22.7283</ele>
        <time>2013-05-16T16:46:39Z</time>
      </trkpt>
      <trkpt lat="59.8477521" lon="17.7399902">
        <ele>24.651</ele>
        <time>2013-05-16T16:46:40Z</time>
      </trkpt>
      <trkpt lat="59.8477478" lon="17.7401078">
        <ele>25.6123</ele>
        <time>2013-05-16T16:46:41Z</time>
      </trkpt>
      <trkpt lat="59.8477445" lon="17.7402303">
        <ele>26.0929</ele>
        <time>2013-05-16T16:46:42Z</time>
      </trkpt>
      <trkpt lat="59.8477542" lon="17.7403252">
        <ele>24.1703</ele>
        <time>2013-05-16T16:46:43Z</time>
      </trkpt>
      <trkpt lat="59.8477567" lon="17.7404303">
        <ele>23.6896</ele>
        <time>2013-05-16T16:46:44Z</time>
      </trkpt>
      <trkpt lat="59.8477635" lon="17.7405313">
        <ele>22.2476</ele>
        <time>2013-05-16T16:46:45Z</time>
      </trkpt>
      <trkpt lat="59.847764" lon="17.7406324">
        <ele>22.2476</ele>
        <time>2013-05-16T16:46:46Z</time>
      </trkpt>
      <trkpt lat="59.847762" lon="17.7407343">
        <ele>22.7283</ele>
        <time>2013-05-16T16:46:47Z</time>
      </trkpt>
      <trkpt lat="59.847763" lon="17.7408348">
        <ele>22.7283</ele>
        <time>2013-05-16T16:46:48Z</time>
      </trkpt>
      <trkpt lat="59.8477635" lon="17.7409351">
        <ele>22.7283</ele>
        <time>2013-05-16T16:46:49Z</time>
      </trkpt>
      <trkpt lat="59.8477608" lon="17.7410321">
        <ele>23.6896</ele>
        <time>2013-05-16T16:46:50Z</time>
      </trkpt>
      <trkpt lat="59.8477603" lon="17.7411324">
        <ele>23.6896</ele>
        <time>2013-05-16T16:46:51Z</time>
      </trkpt>
      <trkpt lat="59.847766" lon="17.7412317">
        <ele>22.2476</ele>
        <time>2013-05-16T16:46:52Z</time>
      </trkpt>
      <trkpt lat="59.8477675" lon="17.7413341">
        <ele>21.767</ele>
        <time>2013-05-16T16:46:53Z</time>
      </trkpt>
      <trkpt lat="59.8477675" lon="17.7414391">
        <ele>21.767</ele>
        <time>2013-05-16T16:46:54Z</time>
      </trkpt>
      <trkpt lat="59.8477708" lon="17.7415415">
        <ele>21.2864</ele>
        <time>2013-05-16T16:46:55Z</time>
      </trkpt>
      <trkpt lat="59.8477727" lon="17.7416423">
        <ele>20.8057</ele>
        <time>2013-05-16T16:46:56Z</time>
      </trkpt>
      <trkpt lat="59.847775" lon="17.7417439">
        <ele>20.325</ele>
        <time>2013-05-16T16:46:57Z</time>
      </trkpt>
      <trkpt lat="59.8477795" lon="17.7418478">
        <ele>18.8831</ele>
        <time>2013-05-16T16:46:58Z</time>
      </trkpt>
      <trkpt lat="59.8477801" lon="17.7419454">
        <ele>18.8831</ele>
        <time>2013-05-16T16:46:59Z</time>
      </trkpt>
      <trkpt lat="59.8477745" lon="17.7420491">
        <ele>20.325</ele>
        <time>2013-05-16T16:47:00Z</time>
      </trkpt>
      <trkpt lat="59.8477697" lon="17.7421547">
        <ele>21.2864</ele>
        <time>2013-05-16T16:47:01Z</time>
      </trkpt>
      <trkpt lat="59.8477636" lon="17.7422624">
        <ele>23.209</ele>
        <time>2013-05-16T16:47:02Z</time>
      </trkpt>
      <trkpt lat="59.8477631" lon="17.7423651">
        <ele>24.1703</ele>
        <time>2013-05-16T16:47:03Z</time>
      </trkpt>
      <trkpt lat="59.8477664" lon="17.7424715">
        <ele>23.6896</ele>
        <time>2013-05-16T16:47:04Z</time>
      </trkpt>
      <trkpt lat="59.8477661" lon="17.7425798">
        <ele>23.209</ele>
        <time>2013-05-16T16:47:05Z</time>
      </trkpt>
      <trkpt lat="59.8477645" lon="17.7426873">
        <ele>23.209</ele>
        <time>2013-05-16T16:47:06Z</time>
      </trkpt>
      <trkpt lat="59.8477638" lon="17.7427925">
        <ele>23.209</ele>
        <time>2013-05-16T16:47:07Z</time>
      </trkpt>
      <trkpt lat="59.8477654" lon="17.7428957">
        <ele>22.7283</ele>
        <time>2013-05-16T16:47:08Z</time>
      </trkpt>
      <trkpt lat="59.8477708" lon="17.7429932">
        <ele>21.2864</ele>
        <time>2013-05-16T16:47:09Z</time>
      </trkpt>
      <trkpt lat="59.8477677" lon="17.743098">
        <ele>21.767</ele>
        <time>2013-05-16T16:47:10Z</time>
      </trkpt>
      <trkpt lat="59.8477644" lon="17.7432073">
        <ele>21.767</ele>
        <time>2013-05-16T16:47:11Z</time>
      </trkpt>
      <trkpt lat="59.8477635" lon="17.7433211">
        <ele>20.8057</ele>
        <time>2013-05-16T16:47:12Z</time>
      </trkpt>
      <trkpt lat="59.8477595" lon="17.7434392">
        <ele>20.325</ele>
        <time>2013-05-16T16:47:13Z</time>
      </trkpt>
      <trkpt lat="59.8477475" lon="17.7435564">
        <ele>22.2476</ele>
        <time>2013-05-16T16:47:14Z</time>
      </trkpt>
      <trkpt lat="59.8477392" lon="17.7436697">
        <ele>23.209</ele>
        <time>2013-05-16T16:47:15Z</time>
      </trkpt>
      <trkpt lat="59.8477328" lon="17.7437828">
        <ele>24.1703</ele>
        <time>2013-05-16T16:47:16Z</time>
      </trkpt>
      <trkpt lat="59.8477268" lon="17.7438968">
        <ele>25.1317</ele>
        <time>2013-05-16T16:47:17Z</time>
      </trkpt>
      <trkpt lat="59.8477237" lon="17.7440102">
        <ele>25.1317</ele>
        <time>2013-05-16T16:47:18Z</time>
      </trkpt>
      <trkpt lat="59.8477215" lon="17.7441236">
        <ele>24.651</ele>
        <time>2013-05-16T16:47:19Z</time>
      </trkpt>
      <trkpt lat="59.8477153" lon="17.7442391">
        <ele>26.0929</ele>
        <time>2013-05-16T16:47:20Z</time>
      </trkpt>
      <trkpt lat="59.8477154" lon="17.7443525">
        <ele>25.6123</ele>
        <time>2013-05-16T16:47:21Z</time>
      </trkpt>
      <trkpt lat="59.8477106" lon="17.7444655">
        <ele>26.0929</ele>
        <time>2013-05-16T16:47:22Z</time>
      </trkpt>
      <trkpt lat="59.8477056" lon="17.7445785">
        <ele>26.5736</ele>
        <time>2013-05-16T16:47:23Z</time>
      </trkpt>
      <trkpt lat="59.8477014" lon="17.7446928">
        <ele>27.0543</ele>
        <time>2013-05-16T16:47:24Z</time>
      </trkpt>
      <trkpt lat="59.8476981" lon="17.7448073">
        <ele>27.5349</ele>
        <time>2013-05-16T16:47:25Z</time>
      </trkpt>
      <trkpt lat="59.8476972" lon="17.7449192">
        <ele>27.5349</ele>
        <time>2013-05-16T16:47:26Z</time>
      </trkpt>
      <trkpt lat="59.8476977" lon="17.7450244">
        <ele>27.5349</ele>
        <time>2013-05-16T16:47:27Z</time>
      </trkpt>
      <trkpt lat="59.8476971" lon="17.7451338">
        <ele>27.5349</ele>
        <time>2013-05-16T16:47:28Z</time>
      </trkpt>
      <trkpt lat="59.8476955" lon="17.745242">
        <ele>27.5349</ele>
        <time>2013-05-16T16:47:29Z</time>
      </trkpt>
      <trkpt lat="59.8476946" lon="17.7453472">
        <ele>27.0543</ele>
        <time>2013-05-16T16:47:30Z</time>
      </trkpt>
      <trkpt lat="59.8476927" lon="17.7454529">
        <ele>27.0543</ele>
        <time>2013-05-16T16:47:31Z</time>
      </trkpt>
      <trkpt lat="59.8476921" lon="17.7455579">
        <ele>27.0543</ele>
        <time>2013-05-16T16:47:32Z</time>
      </trkpt>
      <trkpt lat="59.8476929" lon="17.7456625">
        <ele>27.0543</ele>
        <time>2013-05-16T16:47:33Z</time>
      </trkpt>
      <trkpt lat="59.8476923" lon="17.7457662">
        <ele>27.0543</ele>
        <time>2013-05-16T16:47:34Z</time>
      </trkpt>
      <trkpt lat="59.8476901" lon="17.745867">
        <ele>27.0543</ele>
        <time>2013-05-16T16:47:35Z</time>
      </trkpt>
      <trkpt lat="59.8476879" lon="17.7459657">
        <ele>27.0543</ele>
        <time>2013-05-16T16:47:36Z</time>
      </trkpt>
      <trkpt lat="59.8476863" lon="17.7460634">
        <ele>26.5736</ele>
        <time>2013-05-16T16:47:37Z</time>
      </trkpt>
      <trkpt lat="59.8476817" lon="17.7461605">
        <ele>27.5349</ele>
        <time>2013-05-16T16:47:38Z</time>
      </trkpt>
      <trkpt lat="59.8476774" lon="17.7462594">
        <ele>28.4962</ele>
        <time>2013-05-16T16:47:39Z</time>
      </trkpt>
      <trkpt lat="59.8476763" lon="17.7463569">
        <ele>28.4962</ele>
        <time>2013-05-16T16:47:40Z</time>
      </trkpt>
      <trkpt lat="59.8476744" lon="17.7464535">
        <ele>28.4962</ele>
        <time>2013-05-16T16:47:41Z</time>
      </trkpt>
      <trkpt lat="59.8476713" lon="17.7465529">
        <ele>28.9769</ele>
        <time>2013-05-16T16:47:42Z</time>
      </trkpt>
      <trkpt lat="59.8476695" lon="17.7466541">
        <ele>29.4575</ele>
        <time>2013-05-16T16:47:43Z</time>
      </trkpt>
      <trkpt lat="59.8476666" lon="17.746757">
        <ele>30.4188</ele>
        <time>2013-05-16T16:47:44Z</time>
      </trkpt>
      <trkpt lat="59.8476639" lon="17.7468586">
        <ele>30.8995</ele>
        <time>2013-05-16T16:47:45Z</time>
      </trkpt>
      <trkpt lat="59.8476686" lon="17.746954">
        <ele>29.9381</ele>
        <time>2013-05-16T16:47:46Z</time>
      </trkpt>
      <trkpt lat="59.8476692" lon="17.7470467">
        <ele>29.4575</ele>
        <time>2013-05-16T16:47:47Z</time>
      </trkpt>
      <trkpt lat="59.8476656" lon="17.7471385">
        <ele>29.4575</ele>
        <time>2013-05-16T16:47:48Z</time>
      </trkpt>
      <trkpt lat="59.8476666" lon="17.7472361">
        <ele>28.4962</ele>
        <time>2013-05-16T16:47:49Z</time>
      </trkpt>
      <trkpt lat="59.8476686" lon="17.7473316">
        <ele>28.0155</ele>
        <time>2013-05-16T16:47:50Z</time>
      </trkpt>
      <trkpt lat="59.8476675" lon="17.7474316">
        <ele>29.4575</ele>
        <time>2013-05-16T16:47:51Z</time>
      </trkpt>
      <trkpt lat="59.8476677" lon="17.7475176">
        <ele>28.9769</ele>
        <time>2013-05-16T16:47:52Z</time>
      </trkpt>
      <trkpt lat="59.847667" lon="17.7476145">
        <ele>28.0155</ele>
        <time>2013-05-16T16:47:53Z</time>
      </trkpt>
      <trkpt lat="59.8476725" lon="17.7477088">
        <ele>27.0543</ele>
        <time>2013-05-16T16:47:54Z</time>
      </trkpt>
      <trkpt lat="59.8476783" lon="17.7478056">
        <ele>26.5736</ele>
        <time>2013-05-16T16:47:55Z</time>
      </trkpt>
      <trkpt lat="59.8476758" lon="17.7479093">
        <ele>27.0543</ele>
        <time>2013-05-16T16:47:56Z</time>
      </trkpt>
      <trkpt lat="59.8476774" lon="17.7480144">
        <ele>26.5736</ele>
        <time>2013-05-16T16:47:57Z</time>
      </trkpt>
      <trkpt lat="59.8476766" lon="17.7481215">
        <ele>26.5736</ele>
        <time>2013-05-16T16:47:58Z</time>
      </trkpt>
      <trkpt lat="59.847674" lon="17.7482252">
        <ele>27.0543</ele>
        <time>2013-05-16T16:47:59Z</time>
      </trkpt>
      <trkpt lat="59.8476744" lon="17.7483264">
        <ele>28.0155</ele>
        <time>2013-05-16T16:48:00Z</time>
      </trkpt>
      <trkpt lat="59.847677" lon="17.7484253">
        <ele>28.0155</ele>
        <time>2013-05-16T16:48:01Z</time>
      </trkpt>
      <trkpt lat="59.8476738" lon="17.748531">
        <ele>29.9381</ele>
        <time>2013-05-16T16:48:02Z</time>
      </trkpt>
      <trkpt lat="59.8476675" lon="17.7486406">
        <ele>32.3416</ele>
        <time>2013-05-16T16:48:03Z</time>
      </trkpt>
      <trkpt lat="59.8476652" lon="17.7487479">
        <ele>33.7834</ele>
        <time>2013-05-16T16:48:04Z</time>
      </trkpt>
      <trkpt lat="59.8476666" lon="17.7488536">
        <ele>34.2642</ele>
        <time>2013-05-16T16:48:05Z</time>
      </trkpt>
      <trkpt lat="59.8476665" lon="17.7489608">
        <ele>35.2255</ele>
        <time>2013-05-16T16:48:06Z</time>
      </trkpt>
      <trkpt lat="59.8476686" lon="17.7490652">
        <ele>35.7061</ele>
        <time>2013-05-16T16:48:07Z</time>
      </trkpt>
      <trkpt lat="59.8476723" lon="17.749174">
        <ele>36.1868</ele>
        <time>2013-05-16T16:48:08Z</time>
      </trkpt>
      <trkpt lat="59.8476734" lon="17.7492847">
        <ele>37.1481</ele>
        <time>2013-05-16T16:48:09Z</time>
      </trkpt>
      <trkpt lat="59.8476761" lon="17.749396">
        <ele>37.6287</ele>
        <time>2013-05-16T16:48:10Z</time>
      </trkpt>
      <trkpt lat="59.8476775" lon="17.7495061">
        <ele>38.1094</ele>
        <time>2013-05-16T16:48:11Z</time>
      </trkpt>
      <trkpt lat="59.8476817" lon="17.7496105">
        <ele>38.5901</ele>
        <time>2013-05-16T16:48:12Z</time>
      </trkpt>
      <trkpt lat="59.8476846" lon="17.7497176">
        <ele>39.0707</ele>
        <time>2013-05-16T16:48:13Z</time>
      </trkpt>
      <trkpt lat="59.8476903" lon="17.7498222">
        <ele>39.0707</ele>
        <time>2013-05-16T16:48:14Z</time>
      </trkpt>
      <trkpt lat="59.847695" lon="17.7499172">
        <ele>39.5513</ele>
        <time>2013-05-16T16:48:15Z</time>
      </trkpt>
      <trkpt lat="59.847702" lon="17.7500088">
        <ele>39.5513</ele>
        <time>2013-05-16T16:48:16Z</time>
      </trkpt>
      <trkpt lat="59.8477091" lon="17.7501025">
        <ele>39.5513</ele>
        <time>2013-05-16T16:48:17Z</time>
      </trkpt>
      <trkpt lat="59.8477185" lon="17.7501872">
        <ele>37.6287</ele>
        <time>2013-05-16T16:48:18Z</time>
      </trkpt>
      <trkpt lat="59.8477214" lon="17.750262">
        <ele>37.1481</ele>
        <time>2013-05-16T16:48:19Z</time>
      </trkpt>
      <trkpt lat="59.8477179" lon="17.7503698">
        <ele>39.0707</ele>
        <time>2013-05-16T16:48:20Z</time>
      </trkpt>
      <trkpt lat="59.8477242" lon="17.7505061">
        <ele>40.0321</ele>
        <time>2013-05-16T16:48:21Z</time>
      </trkpt>
      <trkpt lat="59.8477348" lon="17.7506375">
        <ele>40.0321</ele>
        <time>2013-05-16T16:48:22Z</time>
      </trkpt>
      <trkpt lat="59.8477438" lon="17.7507717">
        <ele>40.0321</ele>
        <time>2013-05-16T16:48:23Z</time>
      </trkpt>
      <trkpt lat="59.8477614" lon="17.7508908">
        <ele>37.6287</ele>
        <time>2013-05-16T16:48:24Z</time>
      </trkpt>
      <trkpt lat="59.847791" lon="17.7510881">
        <ele>36.1868</ele>
        <time>2013-05-16T16:48:25Z</time>
      </trkpt>
      <trkpt lat="59.847812" lon="17.7512282">
        <ele>35.7061</ele>
        <time>2013-05-16T16:48:26Z</time>
      </trkpt>
      <trkpt lat="59.8478225" lon="17.7513457">
        <ele>33.7834</ele>
        <time>2013-05-16T16:48:27Z</time>
      </trkpt>
      <trkpt lat="59.8478449" lon="17.7514716">
        <ele>31.8607</ele>
        <time>2013-05-16T16:48:28Z</time>
      </trkpt>
      <trkpt lat="59.84785" lon="17.7515892">
        <ele>31.3801</ele>
        <time>2013-05-16T16:48:29Z</time>
      </trkpt>
      <trkpt lat="59.8478871" lon="17.7517211">
        <ele>27.5349</ele>
        <time>2013-05-16T16:48:30Z</time>
      </trkpt>
      <trkpt lat="59.8479157" lon="17.751858">
        <ele>24.651</ele>
        <time>2013-05-16T16:48:31Z</time>
      </trkpt>
      <trkpt lat="59.8479441" lon="17.7519957">
        <ele>21.2864</ele>
        <time>2013-05-16T16:48:32Z</time>
      </trkpt>
      <trkpt lat="59.847967" lon="17.7521347">
        <ele>19.3638</ele>
        <time>2013-05-16T16:48:33Z</time>
      </trkpt>
      <trkpt lat="59.8479863" lon="17.7522807">
        <ele>18.8831</ele>
        <time>2013-05-16T16:48:34Z</time>
      </trkpt>
      <trkpt lat="59.8479965" lon="17.7524304">
        <ele>18.8831</ele>
        <time>2013-05-16T16:48:35Z</time>
      </trkpt>
      <trkpt lat="59.8480122" lon="17.7525779">
        <ele>18.8831</ele>
        <time>2013-05-16T16:48:36Z</time>
      </trkpt>
      <trkpt lat="59.8480335" lon="17.7527222">
        <ele>16.9604</ele>
        <time>2013-05-16T16:48:37Z</time>
      </trkpt>
      <trkpt lat="59.8480566" lon="17.7528681">
        <ele>15.5184</ele>
        <time>2013-05-16T16:48:38Z</time>
      </trkpt>
      <trkpt lat="59.8480721" lon="17.7530228">
        <ele>15.5184</ele>
        <time>2013-05-16T16:48:39Z</time>
      </trkpt>
      <trkpt lat="59.8480879" lon="17.75318">
        <ele>15.999</ele>
        <time>2013-05-16T16:48:40Z</time>
      </trkpt>
      <trkpt lat="59.8481063" lon="17.7533339">
        <ele>15.5184</ele>
        <time>2013-05-16T16:48:41Z</time>
      </trkpt>
      <trkpt lat="59.8481176" lon="17.7534846">
        <ele>17.4412</ele>
        <time>2013-05-16T16:48:42Z</time>
      </trkpt>
      <trkpt lat="59.8481323" lon="17.7536385">
        <ele>18.4023</ele>
        <time>2013-05-16T16:48:43Z</time>
      </trkpt>
      <trkpt lat="59.8481505" lon="17.7537911">
        <ele>18.4023</ele>
        <time>2013-05-16T16:48:44Z</time>
      </trkpt>
      <trkpt lat="59.8481747" lon="17.7539405">
        <ele>16.4797</ele>
        <time>2013-05-16T16:48:45Z</time>
      </trkpt>
      <trkpt lat="59.8481945" lon="17.7540886">
        <ele>15.999</ele>
        <time>2013-05-16T16:48:46Z</time>
      </trkpt>
      <trkpt lat="59.8482054" lon="17.7542378">
        <ele>18.4023</ele>
        <time>2013-05-16T16:48:47Z</time>
      </trkpt>
      <trkpt lat="59.8482161" lon="17.7543849">
        <ele>20.325</ele>
        <time>2013-05-16T16:48:48Z</time>
      </trkpt>
      <trkpt lat="59.8482295" lon="17.7545277">
        <ele>21.2864</ele>
        <time>2013-05-16T16:48:49Z</time>
      </trkpt>
      <trkpt lat="59.8482422" lon="17.7546662">
        <ele>22.7283</ele>
        <time>2013-05-16T16:48:50Z</time>
      </trkpt>
      <trkpt lat="59.8482533" lon="17.7548035">
        <ele>24.1703</ele>
        <time>2013-05-16T16:48:51Z</time>
      </trkpt>
      <trkpt lat="59.8482634" lon="17.7549421">
        <ele>25.6123</ele>
        <time>2013-05-16T16:48:52Z</time>
      </trkpt>
      <trkpt lat="59.8482732" lon="17.755081">
        <ele>27.0543</ele>
        <time>2013-05-16T16:48:53Z</time>
      </trkpt>
      <trkpt lat="59.848284" lon="17.7552189">
        <ele>27.5349</ele>
        <time>2013-05-16T16:48:54Z</time>
      </trkpt>
      <trkpt lat="59.8482929" lon="17.7553583">
        <ele>28.9769</ele>
        <time>2013-05-16T16:48:55Z</time>
      </trkpt>
      <trkpt lat="59.8483028" lon="17.7554938">
        <ele>29.4575</ele>
        <time>2013-05-16T16:48:56Z</time>
      </trkpt>
      <trkpt lat="59.8483137" lon="17.755622">
        <ele>29.4575</ele>
        <time>2013-05-16T16:48:57Z</time>
      </trkpt>
      <trkpt lat="59.8483234" lon="17.7557497">
        <ele>29.9381</ele>
        <time>2013-05-16T16:48:58Z</time>
      </trkpt>
      <trkpt lat="59.8483328" lon="17.7558743">
        <ele>29.9381</ele>
        <time>2013-05-16T16:48:59Z</time>
      </trkpt>
      <trkpt lat="59.8483419" lon="17.7559978">
        <ele>30.4188</ele>
        <time>2013-05-16T16:49:00Z</time>
      </trkpt>
      <trkpt lat="59.8483507" lon="17.7561205">
        <ele>29.9381</ele>
        <time>2013-05-16T16:49:01Z</time>
      </trkpt>
      <trkpt lat="59.848359" lon="17.7562433">
        <ele>29.9381</ele>
        <time>2013-05-16T16:49:02Z</time>
      </trkpt>
      <trkpt lat="59.8483629" lon="17.756372">
        <ele>30.4188</ele>
        <time>2013-05-16T16:49:03Z</time>
      </trkpt>
      <trkpt lat="59.8483694" lon="17.7564992">
        <ele>29.9381</ele>
        <time>2013-05-16T16:49:04Z</time>
      </trkpt>
      <trkpt lat="59.8483775" lon="17.7566247">
        <ele>29.4575</ele>
        <time>2013-05-16T16:49:05Z</time>
      </trkpt>
      <trkpt lat="59.8483829" lon="17.7567494">
        <ele>28.9769</ele>
        <time>2013-05-16T16:49:06Z</time>
      </trkpt>
      <trkpt lat="59.8483873" lon="17.7568776">
        <ele>28.4962</ele>
        <time>2013-05-16T16:49:07Z</time>
      </trkpt>
      <trkpt lat="59.8483907" lon="17.7570126">
        <ele>28.9769</ele>
        <time>2013-05-16T16:49:08Z</time>
      </trkpt>
      <trkpt lat="59.8483924" lon="17.7571472">
        <ele>29.9381</ele>
        <time>2013-05-16T16:49:09Z</time>
      </trkpt>
      <trkpt lat="59.8483928" lon="17.7572796">
        <ele>29.9381</ele>
        <time>2013-05-16T16:49:10Z</time>
      </trkpt>
      <trkpt lat="59.8483919" lon="17.7574116">
        <ele>29.9381</ele>
        <time>2013-05-16T16:49:11Z</time>
      </trkpt>
      <trkpt lat="59.8483904" lon="17.7575358">
        <ele>29.4575</ele>
        <time>2013-05-16T16:49:12Z</time>
      </trkpt>
      <trkpt lat="59.8483886" lon="17.7576603">
        <ele>28.9769</ele>
        <time>2013-05-16T16:49:13Z</time>
      </trkpt>
      <trkpt lat="59.8483866" lon="17.7577861">
        <ele>28.4962</ele>
        <time>2013-05-16T16:49:14Z</time>
      </trkpt>
      <trkpt lat="59.8483839" lon="17.7579121">
        <ele>28.4962</ele>
        <time>2013-05-16T16:49:15Z</time>
      </trkpt>
      <trkpt lat="59.8483867" lon="17.7580275">
        <ele>27.5349</ele>
        <time>2013-05-16T16:49:16Z</time>
      </trkpt>
      <trkpt lat="59.8483913" lon="17.7581408">
        <ele>26.5736</ele>
        <time>2013-05-16T16:49:17Z</time>
      </trkpt>
      <trkpt lat="59.8483944" lon="17.7582542">
        <ele>25.6123</ele>
        <time>2013-05-16T16:49:18Z</time>
      </trkpt>
      <trkpt lat="59.8483948" lon="17.7583705">
        <ele>25.1317</ele>
        <time>2013-05-16T16:49:19Z</time>
      </trkpt>
      <trkpt lat="59.8483933" lon="17.7584885">
        <ele>24.651</ele>
        <time>2013-05-16T16:49:20Z</time>
      </trkpt>
      <trkpt lat="59.8483898" lon="17.7586112">
        <ele>24.1703</ele>
        <time>2013-05-16T16:49:21Z</time>
      </trkpt>
      <trkpt lat="59.8483851" lon="17.7587378">
        <ele>24.1703</ele>
        <time>2013-05-16T16:49:22Z</time>
      </trkpt>
      <trkpt lat="59.8483806" lon="17.7588667">
        <ele>24.1703</ele>
        <time>2013-05-16T16:49:23Z</time>
      </trkpt>
      <trkpt lat="59.8483742" lon="17.7589988">
        <ele>24.651</ele>
        <time>2013-05-16T16:49:24Z</time>
      </trkpt>
      <trkpt lat="59.8483678" lon="17.7591305">
        <ele>25.1317</ele>
        <time>2013-05-16T16:49:25Z</time>
      </trkpt>
      <trkpt lat="59.8483629" lon="17.7592607">
        <ele>25.1317</ele>
        <time>2013-05-16T16:49:26Z</time>
      </trkpt>
      <trkpt lat="59.8483582" lon="17.759389">
        <ele>25.1317</ele>
        <time>2013-05-16T16:49:27Z</time>
      </trkpt>
      <trkpt lat="59.8483546" lon="17.7595146">
        <ele>25.6123</ele>
        <time>2013-05-16T16:49:28Z</time>
      </trkpt>
      <trkpt lat="59.8483519" lon="17.759639">
        <ele>25.6123</ele>
        <time>2013-05-16T16:49:29Z</time>
      </trkpt>
      <trkpt lat="59.8483488" lon="17.7597628">
        <ele>25.6123</ele>
        <time>2013-05-16T16:49:30Z</time>
      </trkpt>
      <trkpt lat="59.8483448" lon="17.7598857">
        <ele>25.6123</ele>
        <time>2013-05-16T16:49:31Z</time>
      </trkpt>
      <trkpt lat="59.8483401" lon="17.7600098">
        <ele>25.6123</ele>
        <time>2013-05-16T16:49:32Z</time>
      </trkpt>
      <trkpt lat="59.8483374" lon="17.7601327">
        <ele>25.6123</ele>
        <time>2013-05-16T16:49:33Z</time>
      </trkpt>
      <trkpt lat="59.8483401" lon="17.7602589">
        <ele>23.6896</ele>
        <time>2013-05-16T16:49:34Z</time>
      </trkpt>
      <trkpt lat="59.8483409" lon="17.7603793">
        <ele>23.209</ele>
        <time>2013-05-16T16:49:35Z</time>
      </trkpt>
      <trkpt lat="59.8483389" lon="17.7604991">
        <ele>22.7283</ele>
        <time>2013-05-16T16:49:36Z</time>
      </trkpt>
      <trkpt lat="59.8483388" lon="17.7606222">
        <ele>22.2476</ele>
        <time>2013-05-16T16:49:37Z</time>
      </trkpt>
      <trkpt lat="59.8483374" lon="17.7607435">
        <ele>21.2864</ele>
        <time>2013-05-16T16:49:38Z</time>
      </trkpt>
      <trkpt lat="59.8483364" lon="17.7608679">
        <ele>20.325</ele>
        <time>2013-05-16T16:49:39Z</time>
      </trkpt>
      <trkpt lat="59.8483331" lon="17.760995">
        <ele>19.8444</ele>
        <time>2013-05-16T16:49:40Z</time>
      </trkpt>
      <trkpt lat="59.8483292" lon="17.7611171">
        <ele>19.8444</ele>
        <time>2013-05-16T16:49:41Z</time>
      </trkpt>
      <trkpt lat="59.8483256" lon="17.7612383">
        <ele>19.8444</ele>
        <time>2013-05-16T16:49:42Z</time>
      </trkpt>
      <trkpt lat="59.8483225" lon="17.7613594">
        <ele>20.325</ele>
        <time>2013-05-16T16:49:43Z</time>
      </trkpt>
      <trkpt lat="59.8483202" lon="17.7614819">
        <ele>20.325</ele>
        <time>2013-05-16T16:49:44Z</time>
      </trkpt>
      <trkpt lat="59.8483167" lon="17.7616055">
        <ele>20.8057</ele>
        <time>2013-05-16T16:49:45Z</time>
      </trkpt>
      <trkpt lat="59.848314" lon="17.7617246">
        <ele>20.8057</ele>
        <time>2013-05-16T16:49:46Z</time>
      </trkpt>
      <trkpt lat="59.848309" lon="17.7618526">
        <ele>21.2864</ele>
        <time>2013-05-16T16:49:47Z</time>
      </trkpt>
      <trkpt lat="59.8483079" lon="17.7619722">
        <ele>21.2864</ele>
        <time>2013-05-16T16:49:48Z</time>
      </trkpt>
      <trkpt lat="59.8483077" lon="17.7620903">
        <ele>21.2864</ele>
        <time>2013-05-16T16:49:49Z</time>
      </trkpt>
      <trkpt lat="59.8483079" lon="17.7622072">
        <ele>20.8057</ele>
        <time>2013-05-16T16:49:50Z</time>
      </trkpt>
      <trkpt lat="59.8483093" lon="17.7623244">
        <ele>20.325</ele>
        <time>2013-05-16T16:49:51Z</time>
      </trkpt>
      <trkpt lat="59.848309" lon="17.762442">
        <ele>20.325</ele>
        <time>2013-05-16T16:49:52Z</time>
      </trkpt>
      <trkpt lat="59.8483046" lon="17.762561">
        <ele>20.325</ele>
        <time>2013-05-16T16:49:53Z</time>
      </trkpt>
      <trkpt lat="59.8482976" lon="17.7626813">
        <ele>20.325</ele>
        <time>2013-05-16T16:49:54Z</time>
      </trkpt>
      <trkpt lat="59.8482893" lon="17.7627994">
        <ele>20.325</ele>
        <time>2013-05-16T16:49:55Z</time>
      </trkpt>
      <trkpt lat="59.8482739" lon="17.7629111">
        <ele>19.8444</ele>
        <time>2013-05-16T16:49:56Z</time>
      </trkpt>
      <trkpt lat="59.8482484" lon="17.76302">
        <ele>19.3638</ele>
        <time>2013-05-16T16:49:57Z</time>
      </trkpt>
      <trkpt lat="59.8482115" lon="17.7631232">
        <ele>19.8444</ele>
        <time>2013-05-16T16:49:58Z</time>
      </trkpt>
      <trkpt lat="59.8481685" lon="17.7632319">
        <ele>20.325</ele>
        <time>2013-05-16T16:49:59Z</time>
      </trkpt>
      <trkpt lat="59.8481199" lon="17.7633351">
        <ele>20.325</ele>
        <time>2013-05-16T16:50:00Z</time>
      </trkpt>
      <trkpt lat="59.8480689" lon="17.7634251">
        <ele>20.8057</ele>
        <time>2013-05-16T16:50:01Z</time>
      </trkpt>
      <trkpt lat="59.8480176" lon="17.7635165">
        <ele>21.2864</ele>
        <time>2013-05-16T16:50:02Z</time>
      </trkpt>
      <trkpt lat="59.8479671" lon="17.7636154">
        <ele>21.767</ele>
        <time>2013-05-16T16:50:03Z</time>
      </trkpt>
      <trkpt lat="59.8479178" lon="17.7637095">
        <ele>22.2476</ele>
        <time>2013-05-16T16:50:04Z</time>
      </trkpt>
      <trkpt lat="59.847865" lon="17.763814">
        <ele>22.2476</ele>
        <time>2013-05-16T16:50:05Z</time>
      </trkpt>
      <trkpt lat="59.8478113" lon="17.7639249">
        <ele>23.209</ele>
        <time>2013-05-16T16:50:06Z</time>
      </trkpt>
      <trkpt lat="59.8477564" lon="17.764038">
        <ele>23.6896</ele>
        <time>2013-05-16T16:50:07Z</time>
      </trkpt>
      <trkpt lat="59.8477056" lon="17.7641323">
        <ele>22.7283</ele>
        <time>2013-05-16T16:50:08Z</time>
      </trkpt>
      <trkpt lat="59.8476538" lon="17.7642285">
        <ele>22.7283</ele>
        <time>2013-05-16T16:50:09Z</time>
      </trkpt>
      <trkpt lat="59.8476019" lon="17.7643245">
        <ele>23.209</ele>
        <time>2013-05-16T16:50:10Z</time>
      </trkpt>
      <trkpt lat="59.8475515" lon="17.764418">
        <ele>23.6896</ele>
        <time>2013-05-16T16:50:11Z</time>
      </trkpt>
      <trkpt lat="59.8475046" lon="17.7645107">
        <ele>24.1703</ele>
        <time>2013-05-16T16:50:12Z</time>
      </trkpt>
      <trkpt lat="59.8474575" lon="17.7646052">
        <ele>24.651</ele>
        <time>2013-05-16T16:50:13Z</time>
      </trkpt>
      <trkpt lat="59.8474095" lon="17.7647041">
        <ele>24.651</ele>
        <time>2013-05-16T16:50:14Z</time>
      </trkpt>
      <trkpt lat="59.847363" lon="17.7647985">
        <ele>25.1317</ele>
        <time>2013-05-16T16:50:15Z</time>
      </trkpt>
      <trkpt lat="59.847317" lon="17.7648984">
        <ele>25.6123</ele>
        <time>2013-05-16T16:50:16Z</time>
      </trkpt>
      <trkpt lat="59.8472717" lon="17.7649935">
        <ele>26.0929</ele>
        <time>2013-05-16T16:50:17Z</time>
      </trkpt>
      <trkpt lat="59.8472273" lon="17.7650859">
        <ele>26.5736</ele>
        <time>2013-05-16T16:50:18Z</time>
      </trkpt>
      <trkpt lat="59.8471818" lon="17.7651769">
        <ele>27.0543</ele>
        <time>2013-05-16T16:50:19Z</time>
      </trkpt>
      <trkpt lat="59.8471363" lon="17.7652705">
        <ele>27.5349</ele>
        <time>2013-05-16T16:50:20Z</time>
      </trkpt>
      <trkpt lat="59.8470936" lon="17.7653623">
        <ele>28.0155</ele>
        <time>2013-05-16T16:50:21Z</time>
      </trkpt>
      <trkpt lat="59.8470541" lon="17.7654594">
        <ele>28.0155</ele>
        <time>2013-05-16T16:50:22Z</time>
      </trkpt>
      <trkpt lat="59.8470141" lon="17.7655639">
        <ele>28.0155</ele>
        <time>2013-05-16T16:50:23Z</time>
      </trkpt>
      <trkpt lat="59.8469962" lon="17.765676">
        <ele>27.5349</ele>
        <time>2013-05-16T16:50:24Z</time>
      </trkpt>
      <trkpt lat="59.8470049" lon="17.7657644">
        <ele>25.6123</ele>
        <time>2013-05-16T16:50:25Z</time>
      </trkpt>
      <trkpt lat="59.8470145" lon="17.7658755">
        <ele>24.1703</ele>
        <time>2013-05-16T16:50:26Z</time>
      </trkpt>
      <trkpt lat="59.8470492" lon="17.7659566">
        <ele>21.2864</ele>
        <time>2013-05-16T16:50:27Z</time>
      </trkpt>
      <trkpt lat="59.8470715" lon="17.766065">
        <ele>20.8057</ele>
        <time>2013-05-16T16:50:28Z</time>
      </trkpt>
      <trkpt lat="59.8471035" lon="17.7661594">
        <ele>18.8831</ele>
        <time>2013-05-16T16:50:29Z</time>
      </trkpt>
      <trkpt lat="59.8471268" lon="17.7662588">
        <ele>18.8831</ele>
        <time>2013-05-16T16:50:30Z</time>
      </trkpt>
      <trkpt lat="59.8471528" lon="17.7663518">
        <ele>17.9218</ele>
        <time>2013-05-16T16:50:31Z</time>
      </trkpt>
      <trkpt lat="59.8471797" lon="17.7664486">
        <ele>16.4797</ele>
        <time>2013-05-16T16:50:32Z</time>
      </trkpt>
      <trkpt lat="59.8472054" lon="17.7665431">
        <ele>15.5184</ele>
        <time>2013-05-16T16:50:33Z</time>
      </trkpt>
      <trkpt lat="59.8472294" lon="17.7666401">
        <ele>15.0377</ele>
        <time>2013-05-16T16:50:34Z</time>
      </trkpt>
      <trkpt lat="59.8472632" lon="17.7667317">
        <ele>11.6732</ele>
        <time>2013-05-16T16:50:35Z</time>
      </trkpt>
      <trkpt lat="59.847292" lon="17.7668312">
        <ele>9.2699</ele>
        <time>2013-05-16T16:50:36Z</time>
      </trkpt>
      <trkpt lat="59.8473139" lon="17.766944">
        <ele>8.30859</ele>
        <time>2013-05-16T16:50:37Z</time>
      </trkpt>
      <trkpt lat="59.8473418" lon="17.767055">
        <ele>5.42456</ele>
        <time>2013-05-16T16:50:38Z</time>
      </trkpt>
      <trkpt lat="59.8473709" lon="17.7671648">
        <ele>2.54065</ele>
        <time>2013-05-16T16:50:39Z</time>
      </trkpt>
      <trkpt lat="59.8473993" lon="17.767274">
        <ele>0.137451</ele>
        <time>2013-05-16T16:50:40Z</time>
      </trkpt>
      <trkpt lat="59.8474272" lon="17.7673859">
        <ele>0</ele>
        <time>2013-05-16T16:50:41Z</time>
      </trkpt>
      <trkpt lat="59.847458" lon="17.7674991">
        <ele>0</ele>
        <time>2013-05-16T16:50:42Z</time>
      </trkpt>
      <trkpt lat="59.8474843" lon="17.7676148">
        <ele>0</ele>
        <time>2013-05-16T16:50:43Z</time>
      </trkpt>
      <trkpt lat="59.8475108" lon="17.7677361">
        <ele>0</ele>
        <time>2013-05-16T16:50:44Z</time>
      </trkpt>
      <trkpt lat="59.8475459" lon="17.7678506">
        <ele>0</ele>
        <time>2013-05-16T16:50:45Z</time>
      </trkpt>
      <trkpt lat="59.8475781" lon="17.767968">
        <ele>0</ele>
        <time>2013-05-16T16:50:46Z</time>
      </trkpt>
      <trkpt lat="59.8476112" lon="17.7680868">
        <ele>0</ele>
        <time>2013-05-16T16:50:47Z</time>
      </trkpt>
      <trkpt lat="59.8476428" lon="17.7682049">
        <ele>0</ele>
        <time>2013-05-16T16:50:48Z</time>
      </trkpt>
      <trkpt lat="59.8476709" lon="17.7683228">
        <ele>0</ele>
        <time>2013-05-16T16:50:49Z</time>
      </trkpt>
      <trkpt lat="59.8476946" lon="17.7684416">
        <ele>0</ele>
        <time>2013-05-16T16:50:50Z</time>
      </trkpt>
      <trkpt lat="59.8477102" lon="17.7685633">
        <ele>0</ele>
        <time>2013-05-16T16:50:51Z</time>
      </trkpt>
      <trkpt lat="59.8477258" lon="17.7686856">
        <ele>0</ele>
        <time>2013-05-16T16:50:52Z</time>
      </trkpt>
      <trkpt lat="59.8477438" lon="17.7688063">
        <ele>0</ele>
        <time>2013-05-16T16:50:53Z</time>
      </trkpt>
      <trkpt lat="59.8477551" lon="17.7689276">
        <ele>0</ele>
        <time>2013-05-16T16:50:54Z</time>
      </trkpt>
      <trkpt lat="59.8477731" lon="17.7690461">
        <ele>0</ele>
        <time>2013-05-16T16:50:55Z</time>
      </trkpt>
      <trkpt lat="59.847791" lon="17.7691612">
        <ele>0</ele>
        <time>2013-05-16T16:50:56Z</time>
      </trkpt>
      <trkpt lat="59.8478039" lon="17.7692827">
        <ele>0</ele>
        <time>2013-05-16T16:50:57Z</time>
      </trkpt>
      <trkpt lat="59.8478253" lon="17.7694037">
        <ele>0</ele>
        <time>2013-05-16T16:50:58Z</time>
      </trkpt>
      <trkpt lat="59.8478503" lon="17.7695277">
        <ele>0</ele>
        <time>2013-05-16T16:50:59Z</time>
      </trkpt>
      <trkpt lat="59.8478727" lon="17.769647">
        <ele>0</ele>
        <time>2013-05-16T16:51:00Z</time>
      </trkpt>
      <trkpt lat="59.8478911" lon="17.7697595">
        <ele>0</ele>
        <time>2013-05-16T16:51:01Z</time>
      </trkpt>
      <trkpt lat="59.8479123" lon="17.7698698">
        <ele>0</ele>
        <time>2013-05-16T16:51:02Z</time>
      </trkpt>
      <trkpt lat="59.8479354" lon="17.7699796">
        <ele>0</ele>
        <time>2013-05-16T16:51:03Z</time>
      </trkpt>
      <trkpt lat="59.8479613" lon="17.7700775">
        <ele>0</ele>
        <time>2013-05-16T16:51:04Z</time>
      </trkpt>
      <trkpt lat="59.8479883" lon="17.7701783">
        <ele>0</ele>
        <time>2013-05-16T16:51:05Z</time>
      </trkpt>
      <trkpt lat="59.848011" lon="17.77028">
        <ele>0</ele>
        <time>2013-05-16T16:51:06Z</time>
      </trkpt>
      <trkpt lat="59.848036" lon="17.7703919">
        <ele>0</ele>
        <time>2013-05-16T16:51:07Z</time>
      </trkpt>
      <trkpt lat="59.8480511" lon="17.7705226">
        <ele>0</ele>
        <time>2013-05-16T16:51:08Z</time>
      </trkpt>
      <trkpt lat="59.8480608" lon="17.7706518">
        <ele>0</ele>
        <time>2013-05-16T16:51:09Z</time>
      </trkpt>
      <trkpt lat="59.8480624" lon="17.7707809">
        <ele>0</ele>
        <time>2013-05-16T16:51:10Z</time>
      </trkpt>
      <trkpt lat="59.8480654" lon="17.7709032">
        <ele>0</ele>
        <time>2013-05-16T16:51:11Z</time>
      </trkpt>
      <trkpt lat="59.8480705" lon="17.7710311">
        <ele>0</ele>
        <time>2013-05-16T16:51:12Z</time>
      </trkpt>
      <trkpt lat="59.8480805" lon="17.7711566">
        <ele>0</ele>
        <time>2013-05-16T16:51:13Z</time>
      </trkpt>
      <trkpt lat="59.8480982" lon="17.7712819">
        <ele>0</ele>
        <time>2013-05-16T16:51:14Z</time>
      </trkpt>
      <trkpt lat="59.8481137" lon="17.7714062">
        <ele>0</ele>
        <time>2013-05-16T16:51:15Z</time>
      </trkpt>
      <trkpt lat="59.8481312" lon="17.7715313">
        <ele>0</ele>
        <time>2013-05-16T16:51:16Z</time>
      </trkpt>
      <trkpt lat="59.8481459" lon="17.7716564">
        <ele>0</ele>
        <time>2013-05-16T16:51:17Z</time>
      </trkpt>
      <trkpt lat="59.848167" lon="17.7717774">
        <ele>0</ele>
        <time>2013-05-16T16:51:18Z</time>
      </trkpt>
      <trkpt lat="59.8481899" lon="17.7718952">
        <ele>0</ele>
        <time>2013-05-16T16:51:19Z</time>
      </trkpt>
      <trkpt lat="59.8482121" lon="17.7720131">
        <ele>0</ele>
        <time>2013-05-16T16:51:20Z</time>
      </trkpt>
      <trkpt lat="59.8482375" lon="17.7721322">
        <ele>0</ele>
        <time>2013-05-16T16:51:21Z</time>
      </trkpt>
      <trkpt lat="59.848265" lon="17.7722495">
        <ele>0</ele>
        <time>2013-05-16T16:51:22Z</time>
      </trkpt>
      <trkpt lat="59.8482853" lon="17.7723617">
        <ele>0</ele>
        <time>2013-05-16T16:51:23Z</time>
      </trkpt>
      <trkpt lat="59.8482989" lon="17.7724747">
        <ele>0.137451</ele>
        <time>2013-05-16T16:51:24Z</time>
      </trkpt>
      <trkpt lat="59.8483188" lon="17.7725819">
        <ele>0.137451</ele>
        <time>2013-05-16T16:51:25Z</time>
      </trkpt>
      <trkpt lat="59.8483452" lon="17.7726858">
        <ele>0</ele>
        <time>2013-05-16T16:51:26Z</time>
      </trkpt>
      <trkpt lat="59.8483663" lon="17.772796">
        <ele>0</ele>
        <time>2013-05-16T16:51:27Z</time>
      </trkpt>
      <trkpt lat="59.8483782" lon="17.772911">
        <ele>0</ele>
        <time>2013-05-16T16:51:28Z</time>
      </trkpt>
      <trkpt lat="59.8483912" lon="17.7730177">
        <ele>0.618042</ele>
        <time>2013-05-16T16:51:29Z</time>
      </trkpt>
      <trkpt lat="59.8484001" lon="17.7731222">
        <ele>2.06006</ele>
        <time>2013-05-16T16:51:30Z</time>
      </trkpt>
      <trkpt lat="59.8484094" lon="17.7732118">
        <ele>2.54065</ele>
        <time>2013-05-16T16:51:31Z</time>
      </trkpt>
      <trkpt lat="59.8484208" lon="17.7732949">
        <ele>2.06006</ele>
        <time>2013-05-16T16:51:32Z</time>
      </trkpt>
      <trkpt lat="59.8484307" lon="17.7733791">
        <ele>1.57935</ele>
        <time>2013-05-16T16:51:33Z</time>
      </trkpt>
      <trkpt lat="59.8484401" lon="17.7734636">
        <ele>1.57935</ele>
        <time>2013-05-16T16:51:34Z</time>
      </trkpt>
      <trkpt lat="59.8484499" lon="17.7735507">
        <ele>1.57935</ele>
        <time>2013-05-16T16:51:35Z</time>
      </trkpt>
      <trkpt lat="59.8484581" lon="17.7736383">
        <ele>2.06006</ele>
        <time>2013-05-16T16:51:36Z</time>
      </trkpt>
      <trkpt lat="59.8484674" lon="17.7737269">
        <ele>2.54065</ele>
        <time>2013-05-16T16:51:37Z</time>
      </trkpt>
      <trkpt lat="59.8484762" lon="17.7738196">
        <ele>3.50195</ele>
        <time>2013-05-16T16:51:38Z</time>
      </trkpt>
      <trkpt lat="59.8484836" lon="17.7739129">
        <ele>4.94385</ele>
        <time>2013-05-16T16:51:39Z</time>
      </trkpt>
      <trkpt lat="59.8484908" lon="17.774002">
        <ele>5.90527</ele>
        <time>2013-05-16T16:51:40Z</time>
      </trkpt>
      <trkpt lat="59.8484938" lon="17.7740922">
        <ele>8.30859</ele>
        <time>2013-05-16T16:51:41Z</time>
      </trkpt>
      <trkpt lat="59.8484999" lon="17.7741816">
        <ele>9.2699</ele>
        <time>2013-05-16T16:51:42Z</time>
      </trkpt>
      <trkpt lat="59.8485078" lon="17.7742748">
        <ele>9.75061</ele>
        <time>2013-05-16T16:51:43Z</time>
      </trkpt>
      <trkpt lat="59.8485146" lon="17.7743635">
        <ele>10.7118</ele>
        <time>2013-05-16T16:51:44Z</time>
      </trkpt>
      <trkpt lat="59.8485203" lon="17.7744529">
        <ele>11.6732</ele>
        <time>2013-05-16T16:51:45Z</time>
      </trkpt>
      <trkpt lat="59.8485286" lon="17.7745402">
        <ele>12.1538</ele>
        <time>2013-05-16T16:51:46Z</time>
      </trkpt>
      <trkpt lat="59.8485385" lon="17.7746268">
        <ele>12.1538</ele>
        <time>2013-05-16T16:51:47Z</time>
      </trkpt>
      <trkpt lat="59.8485481" lon="17.77472">
        <ele>12.1538</ele>
        <time>2013-05-16T16:51:48Z</time>
      </trkpt>
      <trkpt lat="59.8485562" lon="17.7748126">
        <ele>12.6344</ele>
        <time>2013-05-16T16:51:49Z</time>
      </trkpt>
      <trkpt lat="59.848565" lon="17.7749099">
        <ele>13.5958</ele>
        <time>2013-05-16T16:51:50Z</time>
      </trkpt>
      <trkpt lat="59.84858" lon="17.7749999">
        <ele>12.6344</ele>
        <time>2013-05-16T16:51:51Z</time>
      </trkpt>
      <trkpt lat="59.8485896" lon="17.7750866">
        <ele>13.1151</ele>
        <time>2013-05-16T16:51:52Z</time>
      </trkpt>
      <trkpt lat="59.848595" lon="17.775173">
        <ele>14.557</ele>
        <time>2013-05-16T16:51:53Z</time>
      </trkpt>
      <trkpt lat="59.8486011" lon="17.775255">
        <ele>15.0377</ele>
        <time>2013-05-16T16:51:54Z</time>
      </trkpt>
      <trkpt lat="59.8486102" lon="17.7753294">
        <ele>15.5184</ele>
        <time>2013-05-16T16:51:55Z</time>
      </trkpt>
      <trkpt lat="59.8486206" lon="17.7754045">
        <ele>15.999</ele>
        <time>2013-05-16T16:51:56Z</time>
      </trkpt>
      <trkpt lat="59.8486259" lon="17.7754797">
        <ele>15.999</ele>
        <time>2013-05-16T16:51:57Z</time>
      </trkpt>
      <trkpt lat="59.8486327" lon="17.7755565">
        <ele>15.999</ele>
        <time>2013-05-16T16:51:58Z</time>
      </trkpt>
      <trkpt lat="59.8486414" lon="17.7756357">
        <ele>15.999</ele>
        <time>2013-05-16T16:51:59Z</time>
      </trkpt>
      <trkpt lat="59.8486523" lon="17.775715">
        <ele>15.5184</ele>
        <time>2013-05-16T16:52:00Z</time>
      </trkpt>
      <trkpt lat="59.8486621" lon="17.7757906">
        <ele>14.557</ele>
        <time>2013-05-16T16:52:01Z</time>
      </trkpt>
      <trkpt lat="59.8486699" lon="17.7758662">
        <ele>14.0764</ele>
        <time>2013-05-16T16:52:02Z</time>
      </trkpt>
      <trkpt lat="59.848673" lon="17.7759484">
        <ele>14.0764</ele>
        <time>2013-05-16T16:52:03Z</time>
      </trkpt>
      <trkpt lat="59.8486755" lon="17.7760267">
        <ele>13.5958</ele>
        <time>2013-05-16T16:52:04Z</time>
      </trkpt>
      <trkpt lat="59.8486766" lon="17.7761056">
        <ele>13.1151</ele>
        <time>2013-05-16T16:52:05Z</time>
      </trkpt>
      <trkpt lat="59.8486777" lon="17.7761831">
        <ele>12.6344</ele>
        <time>2013-05-16T16:52:06Z</time>
      </trkpt>
      <trkpt lat="59.8486798" lon="17.7762628">
        <ele>12.1538</ele>
        <time>2013-05-16T16:52:07Z</time>
      </trkpt>
      <trkpt lat="59.8486819" lon="17.7763376">
        <ele>11.1925</ele>
        <time>2013-05-16T16:52:08Z</time>
      </trkpt>
      <trkpt lat="59.8486843" lon="17.7764136">
        <ele>10.7118</ele>
        <time>2013-05-16T16:52:09Z</time>
      </trkpt>
      <trkpt lat="59.8486872" lon="17.776493">
        <ele>10.2312</ele>
        <time>2013-05-16T16:52:10Z</time>
      </trkpt>
      <trkpt lat="59.848688" lon="17.7765578">
        <ele>9.2699</ele>
        <time>2013-05-16T16:52:11Z</time>
      </trkpt>
      <trkpt lat="59.848697" lon="17.7766324">
        <ele>9.75061</ele>
        <time>2013-05-16T16:52:12Z</time>
      </trkpt>
      <trkpt lat="59.8486999" lon="17.776704">
        <ele>8.78918</ele>
        <time>2013-05-16T16:52:13Z</time>
      </trkpt>
      <trkpt lat="59.8487002" lon="17.7767822">
        <ele>7.82788</ele>
        <time>2013-05-16T16:52:14Z</time>
      </trkpt>
      <trkpt lat="59.8487035" lon="17.7768549">
        <ele>6.86646</ele>
        <time>2013-05-16T16:52:15Z</time>
      </trkpt>
      <trkpt lat="59.8487149" lon="17.7769274">
        <ele>6.38586</ele>
        <time>2013-05-16T16:52:16Z</time>
      </trkpt>
      <trkpt lat="59.8487243" lon="17.7770127">
        <ele>6.86646</ele>
        <time>2013-05-16T16:52:17Z</time>
      </trkpt>
      <trkpt lat="59.8487337" lon="17.7771027">
        <ele>6.86646</ele>
        <time>2013-05-16T16:52:18Z</time>
      </trkpt>
      <trkpt lat="59.8487432" lon="17.7771975">
        <ele>7.82788</ele>
        <time>2013-05-16T16:52:19Z</time>
      </trkpt>
      <trkpt lat="59.8487478" lon="17.7772898">
        <ele>7.34717</ele>
        <time>2013-05-16T16:52:20Z</time>
      </trkpt>
      <trkpt lat="59.8487533" lon="17.7773804">
        <ele>7.34717</ele>
        <time>2013-05-16T16:52:21Z</time>
      </trkpt>
      <trkpt lat="59.8487559" lon="17.7774711">
        <ele>8.30859</ele>
        <time>2013-05-16T16:52:22Z</time>
      </trkpt>
      <trkpt lat="59.8487577" lon="17.7775632">
        <ele>8.78918</ele>
        <time>2013-05-16T16:52:23Z</time>
      </trkpt>
      <trkpt lat="59.8487626" lon="17.777657">
        <ele>9.2699</ele>
        <time>2013-05-16T16:52:24Z</time>
      </trkpt>
      <trkpt lat="59.8487679" lon="17.7777497">
        <ele>9.2699</ele>
        <time>2013-05-16T16:52:25Z</time>
      </trkpt>
      <trkpt lat="59.8487725" lon="17.7778454">
        <ele>9.2699</ele>
        <time>2013-05-16T16:52:26Z</time>
      </trkpt>
      <trkpt lat="59.8487783" lon="17.7779533">
        <ele>9.75061</ele>
        <time>2013-05-16T16:52:27Z</time>
      </trkpt>
      <trkpt lat="59.8487779" lon="17.7780641">
        <ele>11.1925</ele>
        <time>2013-05-16T16:52:28Z</time>
      </trkpt>
      <trkpt lat="59.8487783" lon="17.7781741">
        <ele>12.1538</ele>
        <time>2013-05-16T16:52:29Z</time>
      </trkpt>
      <trkpt lat="59.8487815" lon="17.7782769">
        <ele>12.1538</ele>
        <time>2013-05-16T16:52:30Z</time>
      </trkpt>
      <trkpt lat="59.8487838" lon="17.7783843">
        <ele>13.1151</ele>
        <time>2013-05-16T16:52:31Z</time>
      </trkpt>
      <trkpt lat="59.8487895" lon="17.7784864">
        <ele>13.1151</ele>
        <time>2013-05-16T16:52:32Z</time>
      </trkpt>
      <trkpt lat="59.8487945" lon="17.7785903">
        <ele>13.1151</ele>
        <time>2013-05-16T16:52:33Z</time>
      </trkpt>
      <trkpt lat="59.8488016" lon="17.7786914">
        <ele>13.1151</ele>
        <time>2013-05-16T16:52:34Z</time>
      </trkpt>
      <trkpt lat="59.8488102" lon="17.7787879">
        <ele>12.6344</ele>
        <time>2013-05-16T16:52:35Z</time>
      </trkpt>
      <trkpt lat="59.8488192" lon="17.7788834">
        <ele>12.1538</ele>
        <time>2013-05-16T16:52:36Z</time>
      </trkpt>
      <trkpt lat="59.8488271" lon="17.77898">
        <ele>11.6732</ele>
        <time>2013-05-16T16:52:37Z</time>
      </trkpt>
      <trkpt lat="59.8488353" lon="17.7790795">
        <ele>11.6732</ele>
        <time>2013-05-16T16:52:38Z</time>
      </trkpt>
      <trkpt lat="59.848845" lon="17.7791835">
        <ele>11.6732</ele>
        <time>2013-05-16T16:52:39Z</time>
      </trkpt>
      <trkpt lat="59.8488549" lon="17.7792891">
        <ele>11.1925</ele>
        <time>2013-05-16T16:52:40Z</time>
      </trkpt>
      <trkpt lat="59.8488652" lon="17.779394">
        <ele>11.1925</ele>
        <time>2013-05-16T16:52:41Z</time>
      </trkpt>
      <trkpt lat="59.8488758" lon="17.7794975">
        <ele>11.1925</ele>
        <time>2013-05-16T16:52:42Z</time>
      </trkpt>
      <trkpt lat="59.8488897" lon="17.7796047">
        <ele>11.1925</ele>
        <time>2013-05-16T16:52:43Z</time>
      </trkpt>
      <trkpt lat="59.848913" lon="17.7797161">
        <ele>11.1925</ele>
        <time>2013-05-16T16:52:44Z</time>
      </trkpt>
      <trkpt lat="59.8489353" lon="17.7798104">
        <ele>10.2312</ele>
        <time>2013-05-16T16:52:45Z</time>
      </trkpt>
      <trkpt lat="59.848959" lon="17.7799036">
        <ele>9.2699</ele>
        <time>2013-05-16T16:52:46Z</time>
      </trkpt>
      <trkpt lat="59.8489793" lon="17.7800016">
        <ele>8.78918</ele>
        <time>2013-05-16T16:52:47Z</time>
      </trkpt>
      <trkpt lat="59.8490008" lon="17.7801098">
        <ele>8.78918</ele>
        <time>2013-05-16T16:52:48Z</time>
      </trkpt>
      <trkpt lat="59.8490259" lon="17.7802274">
        <ele>7.82788</ele>
        <time>2013-05-16T16:52:49Z</time>
      </trkpt>
      <trkpt lat="59.8490487" lon="17.7803404">
        <ele>6.38586</ele>
        <time>2013-05-16T16:52:50Z</time>
      </trkpt>
      <trkpt lat="59.8490611" lon="17.7804569">
        <ele>7.34717</ele>
        <time>2013-05-16T16:52:51Z</time>
      </trkpt>
      <trkpt lat="59.849076" lon="17.7805713">
        <ele>7.34717</ele>
        <time>2013-05-16T16:52:52Z</time>
      </trkpt>
      <trkpt lat="59.849093" lon="17.7806869">
        <ele>7.34717</ele>
        <time>2013-05-16T16:52:53Z</time>
      </trkpt>
      <trkpt lat="59.8491067" lon="17.7808055">
        <ele>8.78918</ele>
        <time>2013-05-16T16:52:54Z</time>
      </trkpt>
      <trkpt lat="59.8491216" lon="17.7809178">
        <ele>9.2699</ele>
        <time>2013-05-16T16:52:55Z</time>
      </trkpt>
      <trkpt lat="59.8491395" lon="17.7810322">
        <ele>9.75061</ele>
        <time>2013-05-16T16:52:56Z</time>
      </trkpt>
      <trkpt lat="59.8491633" lon="17.7811472">
        <ele>9.2699</ele>
        <time>2013-05-16T16:52:57Z</time>
      </trkpt>
      <trkpt lat="59.8491942" lon="17.7812695">
        <ele>7.82788</ele>
        <time>2013-05-16T16:52:58Z</time>
      </trkpt>
      <trkpt lat="59.849226" lon="17.7813815">
        <ele>5.90527</ele>
        <time>2013-05-16T16:52:59Z</time>
      </trkpt>
      <trkpt lat="59.8492574" lon="17.7814924">
        <ele>4.46326</ele>
        <time>2013-05-16T16:53:00Z</time>
      </trkpt>
      <trkpt lat="59.8492869" lon="17.7816083">
        <ele>3.50195</ele>
        <time>2013-05-16T16:53:01Z</time>
      </trkpt>
      <trkpt lat="59.8493129" lon="17.7817328">
        <ele>3.02124</ele>
        <time>2013-05-16T16:53:02Z</time>
      </trkpt>
      <trkpt lat="59.8493409" lon="17.7818607">
        <ele>2.54065</ele>
        <time>2013-05-16T16:53:03Z</time>
      </trkpt>
      <trkpt lat="59.8493729" lon="17.7819849">
        <ele>1.09863</ele>
        <time>2013-05-16T16:53:04Z</time>
      </trkpt>
      <trkpt lat="59.8494054" lon="17.7821072">
        <ele>0</ele>
        <time>2013-05-16T16:53:05Z</time>
      </trkpt>
      <trkpt lat="59.8494377" lon="17.7822278">
        <ele>0</ele>
        <time>2013-05-16T16:53:06Z</time>
      </trkpt>
      <trkpt lat="59.8494709" lon="17.782346">
        <ele>0</ele>
        <time>2013-05-16T16:53:07Z</time>
      </trkpt>
      <trkpt lat="59.8495025" lon="17.78246">
        <ele>0</ele>
        <time>2013-05-16T16:53:08Z</time>
      </trkpt>
      <trkpt lat="59.8495248" lon="17.7825777">
        <ele>0</ele>
        <time>2013-05-16T16:53:09Z</time>
      </trkpt>
      <trkpt lat="59.8495429" lon="17.7827004">
        <ele>0</ele>
        <time>2013-05-16T16:53:10Z</time>
      </trkpt>
      <trkpt lat="59.849564" lon="17.7828319">
        <ele>0</ele>
        <time>2013-05-16T16:53:11Z</time>
      </trkpt>
      <trkpt lat="59.8495857" lon="17.7829512">
        <ele>0.618042</ele>
        <time>2013-05-16T16:53:12Z</time>
      </trkpt>
      <trkpt lat="59.8496139" lon="17.7830635">
        <ele>0.137451</ele>
        <time>2013-05-16T16:53:13Z</time>
      </trkpt>
      <trkpt lat="59.8496456" lon="17.7831729">
        <ele>0</ele>
        <time>2013-05-16T16:53:14Z</time>
      </trkpt>
      <trkpt lat="59.8496677" lon="17.7832831">
        <ele>0</ele>
        <time>2013-05-16T16:53:15Z</time>
      </trkpt>
      <trkpt lat="59.8496937" lon="17.7833894">
        <ele>0</ele>
        <time>2013-05-16T16:53:16Z</time>
      </trkpt>
      <trkpt lat="59.8497123" lon="17.7835046">
        <ele>1.09863</ele>
        <time>2013-05-16T16:53:17Z</time>
      </trkpt>
      <trkpt lat="59.8497297" lon="17.7836258">
        <ele>3.02124</ele>
        <time>2013-05-16T16:53:18Z</time>
      </trkpt>
      <trkpt lat="59.8497478" lon="17.7837421">
        <ele>5.42456</ele>
        <time>2013-05-16T16:53:19Z</time>
      </trkpt>
      <trkpt lat="59.8497599" lon="17.7838618">
        <ele>7.82788</ele>
        <time>2013-05-16T16:53:20Z</time>
      </trkpt>
      <trkpt lat="59.8497703" lon="17.7839799">
        <ele>10.7118</ele>
        <time>2013-05-16T16:53:21Z</time>
      </trkpt>
      <trkpt lat="59.849776" lon="17.784102">
        <ele>13.5958</ele>
        <time>2013-05-16T16:53:22Z</time>
      </trkpt>
      <trkpt lat="59.8497889" lon="17.7842166">
        <ele>15.0377</ele>
        <time>2013-05-16T16:53:23Z</time>
      </trkpt>
      <trkpt lat="59.8498066" lon="17.7843236">
        <ele>16.4797</ele>
        <time>2013-05-16T16:53:24Z</time>
      </trkpt>
      <trkpt lat="59.8498362" lon="17.7844279">
        <ele>16.9604</ele>
        <time>2013-05-16T16:53:25Z</time>
      </trkpt>
      <trkpt lat="59.8498655" lon="17.7845236">
        <ele>16.9604</ele>
        <time>2013-05-16T16:53:26Z</time>
      </trkpt>
      <trkpt lat="59.8498999" lon="17.7846285">
        <ele>16.9604</ele>
        <time>2013-05-16T16:53:27Z</time>
      </trkpt>
      <trkpt lat="59.8499319" lon="17.7847304">
        <ele>17.4412</ele>
        <time>2013-05-16T16:53:28Z</time>
      </trkpt>
      <trkpt lat="59.8499636" lon="17.7848335">
        <ele>18.4023</ele>
        <time>2013-05-16T16:53:29Z</time>
      </trkpt>
      <trkpt lat="59.8499873" lon="17.7849293">
        <ele>19.3638</ele>
        <time>2013-05-16T16:53:30Z</time>
      </trkpt>
      <trkpt lat="59.8500169" lon="17.785022">
        <ele>18.8831</ele>
        <time>2013-05-16T16:53:31Z</time>
      </trkpt>
      <trkpt lat="59.8500464" lon="17.7851148">
        <ele>19.8444</ele>
        <time>2013-05-16T16:53:32Z</time>
      </trkpt>
      <trkpt lat="59.8500801" lon="17.7851961">
        <ele>18.8831</ele>
        <time>2013-05-16T16:53:33Z</time>
      </trkpt>
      <trkpt lat="59.8501137" lon="17.7852758">
        <ele>18.4023</ele>
        <time>2013-05-16T16:53:34Z</time>
      </trkpt>
      <trkpt lat="59.8501453" lon="17.785365">
        <ele>19.8444</ele>
        <time>2013-05-16T16:53:35Z</time>
      </trkpt>
      <trkpt lat="59.8501852" lon="17.7854411">
        <ele>18.4023</ele>
        <time>2013-05-16T16:53:36Z</time>
      </trkpt>
      <trkpt lat="59.8502151" lon="17.785524">
        <ele>18.4023</ele>
        <time>2013-05-16T16:53:37Z</time>
      </trkpt>
      <trkpt lat="59.8502474" lon="17.785612">
        <ele>17.4412</ele>
        <time>2013-05-16T16:53:38Z</time>
      </trkpt>
      <trkpt lat="59.850284" lon="17.7857065">
        <ele>15.5184</ele>
        <time>2013-05-16T16:53:39Z</time>
      </trkpt>
      <trkpt lat="59.8503188" lon="17.7858145">
        <ele>16.9604</ele>
        <time>2013-05-16T16:53:40Z</time>
      </trkpt>
      <trkpt lat="59.8503562" lon="17.7859053">
        <ele>17.4412</ele>
        <time>2013-05-16T16:53:41Z</time>
      </trkpt>
      <trkpt lat="59.8503919" lon="17.7860046">
        <ele>17.4412</ele>
        <time>2013-05-16T16:53:42Z</time>
      </trkpt>
      <trkpt lat="59.8504188" lon="17.786088">
        <ele>17.9218</ele>
        <time>2013-05-16T16:53:43Z</time>
      </trkpt>
      <trkpt lat="59.8504472" lon="17.786177">
        <ele>17.9218</ele>
        <time>2013-05-16T16:53:44Z</time>
      </trkpt>
      <trkpt lat="59.850466" lon="17.7862641">
        <ele>18.8831</ele>
        <time>2013-05-16T16:53:45Z</time>
      </trkpt>
      <trkpt lat="59.8504889" lon="17.7863519">
        <ele>19.8444</ele>
        <time>2013-05-16T16:53:46Z</time>
      </trkpt>
      <trkpt lat="59.8505187" lon="17.7864332">
        <ele>18.4023</ele>
        <time>2013-05-16T16:53:47Z</time>
      </trkpt>
      <trkpt lat="59.8505445" lon="17.7865254">
        <ele>20.325</ele>
        <time>2013-05-16T16:53:48Z</time>
      </trkpt>
      <trkpt lat="59.8505748" lon="17.7866124">
        <ele>20.8057</ele>
        <time>2013-05-16T16:53:49Z</time>
      </trkpt>
      <trkpt lat="59.8506069" lon="17.7866921">
        <ele>21.767</ele>
        <time>2013-05-16T16:53:50Z</time>
      </trkpt>
      <trkpt lat="59.8506393" lon="17.7867652">
        <ele>21.2864</ele>
        <time>2013-05-16T16:53:51Z</time>
      </trkpt>
      <trkpt lat="59.8506716" lon="17.7868383">
        <ele>20.325</ele>
        <time>2013-05-16T16:53:52Z</time>
      </trkpt>
      <trkpt lat="59.8507094" lon="17.7869036">
        <ele>18.8831</ele>
        <time>2013-05-16T16:53:53Z</time>
      </trkpt>
      <trkpt lat="59.8507473" lon="17.7869698">
        <ele>17.4412</ele>
        <time>2013-05-16T16:53:54Z</time>
      </trkpt>
      <trkpt lat="59.8507802" lon="17.7870428">
        <ele>16.4797</ele>
        <time>2013-05-16T16:53:55Z</time>
      </trkpt>
      <trkpt lat="59.8508141" lon="17.7871136">
        <ele>14.557</ele>
        <time>2013-05-16T16:53:56Z</time>
      </trkpt>
      <trkpt lat="59.8508456" lon="17.7871879">
        <ele>14.0764</ele>
        <time>2013-05-16T16:53:57Z</time>
      </trkpt>
      <trkpt lat="59.8508865" lon="17.7872563">
        <ele>13.1151</ele>
        <time>2013-05-16T16:53:58Z</time>
      </trkpt>
      <trkpt lat="59.8509228" lon="17.7873324">
        <ele>11.6732</ele>
        <time>2013-05-16T16:53:59Z</time>
      </trkpt>
      <trkpt lat="59.8509555" lon="17.7874064">
        <ele>10.7118</ele>
        <time>2013-05-16T16:54:00Z</time>
      </trkpt>
      <trkpt lat="59.8509885" lon="17.7874743">
        <ele>9.2699</ele>
        <time>2013-05-16T16:54:01Z</time>
      </trkpt>
      <trkpt lat="59.8510099" lon="17.7875582">
        <ele>10.2312</ele>
        <time>2013-05-16T16:54:02Z</time>
      </trkpt>
      <trkpt lat="59.8510326" lon="17.787642">
        <ele>11.1925</ele>
        <time>2013-05-16T16:54:03Z</time>
      </trkpt>
      <trkpt lat="59.8510596" lon="17.7877131">
        <ele>10.7118</ele>
        <time>2013-05-16T16:54:04Z</time>
      </trkpt>
      <trkpt lat="59.851083" lon="17.7877972">
        <ele>11.6732</ele>
        <time>2013-05-16T16:54:05Z</time>
      </trkpt>
      <trkpt lat="59.8511124" lon="17.7878868">
        <ele>12.6344</ele>
        <time>2013-05-16T16:54:06Z</time>
      </trkpt>
      <trkpt lat="59.851146" lon="17.7879685">
        <ele>11.6732</ele>
        <time>2013-05-16T16:54:07Z</time>
      </trkpt>
      <trkpt lat="59.8511758" lon="17.7880519">
        <ele>12.1538</ele>
        <time>2013-05-16T16:54:08Z</time>
      </trkpt>
      <trkpt lat="59.8512104" lon="17.7881229">
        <ele>11.1925</ele>
        <time>2013-05-16T16:54:09Z</time>
      </trkpt>
      <trkpt lat="59.8512477" lon="17.7881959">
        <ele>10.7118</ele>
        <time>2013-05-16T16:54:10Z</time>
      </trkpt>
      <trkpt lat="59.8512825" lon="17.788272">
        <ele>11.6732</ele>
        <time>2013-05-16T16:54:11Z</time>
      </trkpt>
      <trkpt lat="59.8513191" lon="17.788348">
        <ele>11.1925</ele>
        <time>2013-05-16T16:54:12Z</time>
      </trkpt>
      <trkpt lat="59.8513501" lon="17.7884279">
        <ele>10.7118</ele>
        <time>2013-05-16T16:54:13Z</time>
      </trkpt>
      <trkpt lat="59.8513804" lon="17.7885124">
        <ele>11.1925</ele>
        <time>2013-05-16T16:54:14Z</time>
      </trkpt>
      <trkpt lat="59.8514205" lon="17.7885948">
        <ele>10.2312</ele>
        <time>2013-05-16T16:54:15Z</time>
      </trkpt>
      <trkpt lat="59.851457" lon="17.7886847">
        <ele>9.75061</ele>
        <time>2013-05-16T16:54:16Z</time>
      </trkpt>
      <trkpt lat="59.8514899" lon="17.788771">
        <ele>10.2312</ele>
        <time>2013-05-16T16:54:17Z</time>
      </trkpt>
      <trkpt lat="59.8515197" lon="17.7888583">
        <ele>11.1925</ele>
        <time>2013-05-16T16:54:18Z</time>
      </trkpt>
      <trkpt lat="59.8515533" lon="17.7889492">
        <ele>11.1925</ele>
        <time>2013-05-16T16:54:19Z</time>
      </trkpt>
      <trkpt lat="59.8515905" lon="17.7890356">
        <ele>10.7118</ele>
        <time>2013-05-16T16:54:20Z</time>
      </trkpt>
      <trkpt lat="59.8516218" lon="17.7891298">
        <ele>12.1538</ele>
        <time>2013-05-16T16:54:21Z</time>
      </trkpt>
      <trkpt lat="59.8516606" lon="17.7892237">
        <ele>11.6732</ele>
        <time>2013-05-16T16:54:22Z</time>
      </trkpt>
      <trkpt lat="59.8517023" lon="17.7893247">
        <ele>12.6344</ele>
        <time>2013-05-16T16:54:23Z</time>
      </trkpt>
      <trkpt lat="59.8517433" lon="17.789419">
        <ele>13.1151</ele>
        <time>2013-05-16T16:54:24Z</time>
      </trkpt>
      <trkpt lat="59.8517838" lon="17.7895099">
        <ele>14.557</ele>
        <time>2013-05-16T16:54:25Z</time>
      </trkpt>
      <trkpt lat="59.851822" lon="17.7896009">
        <ele>14.557</ele>
        <time>2013-05-16T16:54:26Z</time>
      </trkpt>
      <trkpt lat="59.8518589" lon="17.7897002">
        <ele>15.999</ele>
        <time>2013-05-16T16:54:27Z</time>
      </trkpt>
      <trkpt lat="59.8518963" lon="17.7898116">
        <ele>16.9604</ele>
        <time>2013-05-16T16:54:28Z</time>
      </trkpt>
      <trkpt lat="59.8519376" lon="17.7899243">
        <ele>17.4412</ele>
        <time>2013-05-16T16:54:29Z</time>
      </trkpt>
      <trkpt lat="59.8519811" lon="17.7900384">
        <ele>17.9218</ele>
        <time>2013-05-16T16:54:30Z</time>
      </trkpt>
      <trkpt lat="59.8520273" lon="17.7901691">
        <ele>18.8831</ele>
        <time>2013-05-16T16:54:31Z</time>
      </trkpt>
      <trkpt lat="59.8520775" lon="17.7902773">
        <ele>18.4023</ele>
        <time>2013-05-16T16:54:32Z</time>
      </trkpt>
      <trkpt lat="59.8521232" lon="17.7903875">
        <ele>18.8831</ele>
        <time>2013-05-16T16:54:33Z</time>
      </trkpt>
      <trkpt lat="59.8521687" lon="17.7904983">
        <ele>19.8444</ele>
        <time>2013-05-16T16:54:34Z</time>
      </trkpt>
      <trkpt lat="59.8522199" lon="17.7905929">
        <ele>19.3638</ele>
        <time>2013-05-16T16:54:35Z</time>
      </trkpt>
      <trkpt lat="59.8522739" lon="17.7906829">
        <ele>19.3638</ele>
        <time>2013-05-16T16:54:36Z</time>
      </trkpt>
      <trkpt lat="59.8523254" lon="17.7907782">
        <ele>17.9218</ele>
        <time>2013-05-16T16:54:37Z</time>
      </trkpt>
      <trkpt lat="59.8523638" lon="17.7908819">
        <ele>19.3638</ele>
        <time>2013-05-16T16:54:38Z</time>
      </trkpt>
      <trkpt lat="59.8523997" lon="17.7910024">
        <ele>22.7283</ele>
        <time>2013-05-16T16:54:39Z</time>
      </trkpt>
      <trkpt lat="59.8524384" lon="17.7911139">
        <ele>24.1703</ele>
        <time>2013-05-16T16:54:40Z</time>
      </trkpt>
      <trkpt lat="59.8524778" lon="17.79122">
        <ele>25.1317</ele>
        <time>2013-05-16T16:54:41Z</time>
      </trkpt>
      <trkpt lat="59.8525194" lon="17.7913222">
        <ele>24.651</ele>
        <time>2013-05-16T16:54:42Z</time>
      </trkpt>
      <trkpt lat="59.8525664" lon="17.7914263">
        <ele>23.6896</ele>
        <time>2013-05-16T16:54:43Z</time>
      </trkpt>
      <trkpt lat="59.8526135" lon="17.7915411">
        <ele>22.2476</ele>
        <time>2013-05-16T16:54:44Z</time>
      </trkpt>
      <trkpt lat="59.8526587" lon="17.7916532">
        <ele>20.8057</ele>
        <time>2013-05-16T16:54:45Z</time>
      </trkpt>
      <trkpt lat="59.8527012" lon="17.7917633">
        <ele>20.325</ele>
        <time>2013-05-16T16:54:46Z</time>
      </trkpt>
      <trkpt lat="59.8527466" lon="17.791871">
        <ele>18.8831</ele>
        <time>2013-05-16T16:54:47Z</time>
      </trkpt>
      <trkpt lat="59.8527911" lon="17.7919889">
        <ele>18.4023</ele>
        <time>2013-05-16T16:54:48Z</time>
      </trkpt>
      <trkpt lat="59.85283" lon="17.7921189">
        <ele>19.8444</ele>
        <time>2013-05-16T16:54:49Z</time>
      </trkpt>
      <trkpt lat="59.8528717" lon="17.7922394">
        <ele>21.2864</ele>
        <time>2013-05-16T16:54:50Z</time>
      </trkpt>
      <trkpt lat="59.8529216" lon="17.7923561">
        <ele>22.2476</ele>
        <time>2013-05-16T16:54:51Z</time>
      </trkpt>
      <trkpt lat="59.8529615" lon="17.7924943">
        <ele>23.209</ele>
        <time>2013-05-16T16:54:52Z</time>
      </trkpt>
      <trkpt lat="59.8530078" lon="17.7926265">
        <ele>24.1703</ele>
        <time>2013-05-16T16:54:53Z</time>
      </trkpt>
      <trkpt lat="59.8530529" lon="17.7927578">
        <ele>24.651</ele>
        <time>2013-05-16T16:54:54Z</time>
      </trkpt>
      <trkpt lat="59.8530968" lon="17.7928885">
        <ele>24.1703</ele>
        <time>2013-05-16T16:54:55Z</time>
      </trkpt>
      <trkpt lat="59.8531431" lon="17.7930113">
        <ele>23.209</ele>
        <time>2013-05-16T16:54:56Z</time>
      </trkpt>
      <trkpt lat="59.8531849" lon="17.7931396">
        <ele>23.209</ele>
        <time>2013-05-16T16:54:57Z</time>
      </trkpt>
      <trkpt lat="59.8532327" lon="17.7932698">
        <ele>24.1703</ele>
        <time>2013-05-16T16:54:58Z</time>
      </trkpt>
      <trkpt lat="59.8532737" lon="17.7933973">
        <ele>23.6896</ele>
        <time>2013-05-16T16:54:59Z</time>
      </trkpt>
      <trkpt lat="59.8533151" lon="17.7935126">
        <ele>22.7283</ele>
        <time>2013-05-16T16:55:00Z</time>
      </trkpt>
      <trkpt lat="59.8533581" lon="17.7936148">
        <ele>21.2864</ele>
        <time>2013-05-16T16:55:01Z</time>
      </trkpt>
      <trkpt lat="59.853392" lon="17.793708">
        <ele>18.4023</ele>
        <time>2013-05-16T16:55:02Z</time>
      </trkpt>
      <trkpt lat="59.8534324" lon="17.7938084">
        <ele>16.9604</ele>
        <time>2013-05-16T16:55:03Z</time>
      </trkpt>
      <trkpt lat="59.8534689" lon="17.7939167">
        <ele>16.9604</ele>
        <time>2013-05-16T16:55:04Z</time>
      </trkpt>
      <trkpt lat="59.8535072" lon="17.794034">
        <ele>17.4412</ele>
        <time>2013-05-16T16:55:05Z</time>
      </trkpt>
      <trkpt lat="59.8535439" lon="17.7941506">
        <ele>15.5184</ele>
        <time>2013-05-16T16:55:06Z</time>
      </trkpt>
      <trkpt lat="59.8535823" lon="17.7942653">
        <ele>15.0377</ele>
        <time>2013-05-16T16:55:07Z</time>
      </trkpt>
      <trkpt lat="59.8536155" lon="17.7943753">
        <ele>15.5184</ele>
        <time>2013-05-16T16:55:08Z</time>
      </trkpt>
      <trkpt lat="59.8536575" lon="17.7944583">
        <ele>14.0764</ele>
        <time>2013-05-16T16:55:09Z</time>
      </trkpt>
      <trkpt lat="59.8537028" lon="17.7945408">
        <ele>11.6732</ele>
        <time>2013-05-16T16:55:10Z</time>
      </trkpt>
      <trkpt lat="59.8537332" lon="17.7946524">
        <ele>11.6732</ele>
        <time>2013-05-16T16:55:11Z</time>
      </trkpt>
      <trkpt lat="59.8537679" lon="17.7947561">
        <ele>11.6732</ele>
        <time>2013-05-16T16:55:12Z</time>
      </trkpt>
      <trkpt lat="59.8537988" lon="17.7948555">
        <ele>12.1538</ele>
        <time>2013-05-16T16:55:13Z</time>
      </trkpt>
      <trkpt lat="59.8538274" lon="17.7949575">
        <ele>13.1151</ele>
        <time>2013-05-16T16:55:14Z</time>
      </trkpt>
      <trkpt lat="59.85386" lon="17.7950704">
        <ele>13.1151</ele>
        <time>2013-05-16T16:55:15Z</time>
      </trkpt>
      <trkpt lat="59.8538936" lon="17.7951914">
        <ele>12.6344</ele>
        <time>2013-05-16T16:55:16Z</time>
      </trkpt>
      <trkpt lat="59.8539278" lon="17.795315">
        <ele>11.1925</ele>
        <time>2013-05-16T16:55:17Z</time>
      </trkpt>
      <trkpt lat="59.8539631" lon="17.7954419">
        <ele>10.7118</ele>
        <time>2013-05-16T16:55:18Z</time>
      </trkpt>
      <trkpt lat="59.8539973" lon="17.7955714">
        <ele>10.2312</ele>
        <time>2013-05-16T16:55:19Z</time>
      </trkpt>
      <trkpt lat="59.8540356" lon="17.7957024">
        <ele>14.0764</ele>
        <time>2013-05-16T16:55:20Z</time>
      </trkpt>
      <trkpt lat="59.8540585" lon="17.7958229">
        <ele>16.9604</ele>
        <time>2013-05-16T16:55:21Z</time>
      </trkpt>
      <trkpt lat="59.8540863" lon="17.7959341">
        <ele>17.4412</ele>
        <time>2013-05-16T16:55:22Z</time>
      </trkpt>
      <trkpt lat="59.8541143" lon="17.7960622">
        <ele>18.4023</ele>
        <time>2013-05-16T16:55:23Z</time>
      </trkpt>
      <trkpt lat="59.8541459" lon="17.7961798">
        <ele>16.4797</ele>
        <time>2013-05-16T16:55:24Z</time>
      </trkpt>
      <trkpt lat="59.8541761" lon="17.796305">
        <ele>16.9604</ele>
        <time>2013-05-16T16:55:25Z</time>
      </trkpt>
      <trkpt lat="59.8542029" lon="17.7964265">
        <ele>18.8831</ele>
        <time>2013-05-16T16:55:26Z</time>
      </trkpt>
      <trkpt lat="59.8542319" lon="17.7965417">
        <ele>19.3638</ele>
        <time>2013-05-16T16:55:27Z</time>
      </trkpt>
      <trkpt lat="59.8542609" lon="17.7966597">
        <ele>20.325</ele>
        <time>2013-05-16T16:55:28Z</time>
      </trkpt>
      <trkpt lat="59.8542936" lon="17.7967763">
        <ele>21.767</ele>
        <time>2013-05-16T16:55:29Z</time>
      </trkpt>
      <trkpt lat="59.8543389" lon="17.7969037">
        <ele>23.6896</ele>
        <time>2013-05-16T16:55:30Z</time>
      </trkpt>
      <trkpt lat="59.8543795" lon="17.7970188">
        <ele>24.651</ele>
        <time>2013-05-16T16:55:31Z</time>
      </trkpt>
      <trkpt lat="59.854422" lon="17.7971539">
        <ele>25.1317</ele>
        <time>2013-05-16T16:55:32Z</time>
      </trkpt>
      <trkpt lat="59.8544551" lon="17.7972937">
        <ele>25.6123</ele>
        <time>2013-05-16T16:55:33Z</time>
      </trkpt>
      <trkpt lat="59.8544898" lon="17.7974239">
        <ele>24.651</ele>
        <time>2013-05-16T16:55:34Z</time>
      </trkpt>
      <trkpt lat="59.8545127" lon="17.7975622">
        <ele>26.0929</ele>
        <time>2013-05-16T16:55:35Z</time>
      </trkpt>
      <trkpt lat="59.854536" lon="17.7976934">
        <ele>26.5736</ele>
        <time>2013-05-16T16:55:36Z</time>
      </trkpt>
      <trkpt lat="59.8545503" lon="17.7978196">
        <ele>27.0543</ele>
        <time>2013-05-16T16:55:37Z</time>
      </trkpt>
      <trkpt lat="59.8545487" lon="17.7979317">
        <ele>27.5349</ele>
        <time>2013-05-16T16:55:38Z</time>
      </trkpt>
      <trkpt lat="59.8545375" lon="17.7980491">
        <ele>28.9769</ele>
        <time>2013-05-16T16:55:39Z</time>
      </trkpt>
      <trkpt lat="59.8545313" lon="17.7981589">
        <ele>29.9381</ele>
        <time>2013-05-16T16:55:40Z</time>
      </trkpt>
      <trkpt lat="59.8545321" lon="17.7982643">
        <ele>29.9381</ele>
        <time>2013-05-16T16:55:41Z</time>
      </trkpt>
      <trkpt lat="59.854542" lon="17.7983707">
        <ele>29.9381</ele>
        <time>2013-05-16T16:55:42Z</time>
      </trkpt>
      <trkpt lat="59.8545633" lon="17.7984783">
        <ele>29.9381</ele>
        <time>2013-05-16T16:55:43Z</time>
      </trkpt>
      <trkpt lat="59.8545879" lon="17.7985877">
        <ele>30.8995</ele>
        <time>2013-05-16T16:55:44Z</time>
      </trkpt>
      <trkpt lat="59.8546247" lon="17.7986814">
        <ele>30.8995</ele>
        <time>2013-05-16T16:55:45Z</time>
      </trkpt>
      <trkpt lat="59.8546639" lon="17.7987845">
        <ele>31.3801</ele>
        <time>2013-05-16T16:55:46Z</time>
      </trkpt>
      <trkpt lat="59.8547096" lon="17.798904">
        <ele>30.4188</ele>
        <time>2013-05-16T16:55:47Z</time>
      </trkpt>
      <trkpt lat="59.8547499" lon="17.7990218">
        <ele>29.4575</ele>
        <time>2013-05-16T16:55:48Z</time>
      </trkpt>
      <trkpt lat="59.8547841" lon="17.7991532">
        <ele>29.4575</ele>
        <time>2013-05-16T16:55:49Z</time>
      </trkpt>
      <trkpt lat="59.8548209" lon="17.7992871">
        <ele>28.9769</ele>
        <time>2013-05-16T16:55:50Z</time>
      </trkpt>
      <trkpt lat="59.8548629" lon="17.7994036">
        <ele>27.0543</ele>
        <time>2013-05-16T16:55:51Z</time>
      </trkpt>
      <trkpt lat="59.8548934" lon="17.7995293">
        <ele>27.0543</ele>
        <time>2013-05-16T16:55:52Z</time>
      </trkpt>
      <trkpt lat="59.8549269" lon="17.799661">
        <ele>26.5736</ele>
        <time>2013-05-16T16:55:53Z</time>
      </trkpt>
      <trkpt lat="59.8549627" lon="17.7997787">
        <ele>26.5736</ele>
        <time>2013-05-16T16:55:54Z</time>
      </trkpt>
      <trkpt lat="59.8549968" lon="17.7998859">
        <ele>25.6123</ele>
        <time>2013-05-16T16:55:55Z</time>
      </trkpt>
      <trkpt lat="59.8550342" lon="17.8000084">
        <ele>25.1317</ele>
        <time>2013-05-16T16:55:56Z</time>
      </trkpt>
      <trkpt lat="59.8550712" lon="17.8001446">
        <ele>25.6123</ele>
        <time>2013-05-16T16:55:57Z</time>
      </trkpt>
      <trkpt lat="59.8551068" lon="17.8002724">
        <ele>24.651</ele>
        <time>2013-05-16T16:55:58Z</time>
      </trkpt>
      <trkpt lat="59.8551446" lon="17.8003894">
        <ele>23.6896</ele>
        <time>2013-05-16T16:55:59Z</time>
      </trkpt>
      <trkpt lat="59.8551843" lon="17.8005171">
        <ele>23.6896</ele>
        <time>2013-05-16T16:56:00Z</time>
      </trkpt>
      <trkpt lat="59.8552261" lon="17.8006396">
        <ele>24.651</ele>
        <time>2013-05-16T16:56:01Z</time>
      </trkpt>
      <trkpt lat="59.8552565" lon="17.8007898">
        <ele>25.1317</ele>
        <time>2013-05-16T16:56:02Z</time>
      </trkpt>
      <trkpt lat="59.8552841" lon="17.8009395">
        <ele>26.0929</ele>
        <time>2013-05-16T16:56:03Z</time>
      </trkpt>
      <trkpt lat="59.8553098" lon="17.8010766">
        <ele>26.5736</ele>
        <time>2013-05-16T16:56:04Z</time>
      </trkpt>
      <trkpt lat="59.8553456" lon="17.8011941">
        <ele>24.651</ele>
        <time>2013-05-16T16:56:05Z</time>
      </trkpt>
      <trkpt lat="59.8553773" lon="17.8013232">
        <ele>23.209</ele>
        <time>2013-05-16T16:56:06Z</time>
      </trkpt>
      <trkpt lat="59.8554084" lon="17.8014627">
        <ele>22.2476</ele>
        <time>2013-05-16T16:56:07Z</time>
      </trkpt>
      <trkpt lat="59.85544" lon="17.8015964">
        <ele>20.8057</ele>
        <time>2013-05-16T16:56:08Z</time>
      </trkpt>
      <trkpt lat="59.8554741" lon="17.8017334">
        <ele>18.8831</ele>
        <time>2013-05-16T16:56:09Z</time>
      </trkpt>
      <trkpt lat="59.8555129" lon="17.8018744">
        <ele>16.9604</ele>
        <time>2013-05-16T16:56:10Z</time>
      </trkpt>
      <trkpt lat="59.8555533" lon="17.8020102">
        <ele>15.5184</ele>
        <time>2013-05-16T16:56:11Z</time>
      </trkpt>
      <trkpt lat="59.8555869" lon="17.802147">
        <ele>14.0764</ele>
        <time>2013-05-16T16:56:12Z</time>
      </trkpt>
      <trkpt lat="59.8556207" lon="17.8022905">
        <ele>13.1151</ele>
        <time>2013-05-16T16:56:13Z</time>
      </trkpt>
      <trkpt lat="59.8556579" lon="17.8024235">
        <ele>11.1925</ele>
        <time>2013-05-16T16:56:14Z</time>
      </trkpt>
      <trkpt lat="59.8556946" lon="17.8025691">
        <ele>10.2312</ele>
        <time>2013-05-16T16:56:15Z</time>
      </trkpt>
      <trkpt lat="59.8557352" lon="17.8027121">
        <ele>8.78918</ele>
        <time>2013-05-16T16:56:16Z</time>
      </trkpt>
      <trkpt lat="59.8557791" lon="17.8028547">
        <ele>6.86646</ele>
        <time>2013-05-16T16:56:17Z</time>
      </trkpt>
      <trkpt lat="59.8558251" lon="17.8030021">
        <ele>5.90527</ele>
        <time>2013-05-16T16:56:18Z</time>
      </trkpt>
      <trkpt lat="59.8558662" lon="17.8031405">
        <ele>3.98267</ele>
        <time>2013-05-16T16:56:19Z</time>
      </trkpt>
      <trkpt lat="59.8559127" lon="17.8032892">
        <ele>3.02124</ele>
        <time>2013-05-16T16:56:20Z</time>
      </trkpt>
      <trkpt lat="59.8559579" lon="17.8034399">
        <ele>2.06006</ele>
        <time>2013-05-16T16:56:21Z</time>
      </trkpt>
      <trkpt lat="59.856004" lon="17.8035936">
        <ele>0.137451</ele>
        <time>2013-05-16T16:56:22Z</time>
      </trkpt>
      <trkpt lat="59.8560499" lon="17.8037486">
        <ele>0</ele>
        <time>2013-05-16T16:56:23Z</time>
      </trkpt>
      <trkpt lat="59.8560941" lon="17.8039052">
        <ele>0</ele>
        <time>2013-05-16T16:56:24Z</time>
      </trkpt>
      <trkpt lat="59.8561382" lon="17.804061">
        <ele>0</ele>
        <time>2013-05-16T16:56:25Z</time>
      </trkpt>
      <trkpt lat="59.8561848" lon="17.8042154">
        <ele>0</ele>
        <time>2013-05-16T16:56:26Z</time>
      </trkpt>
      <trkpt lat="59.8562315" lon="17.8043687">
        <ele>0</ele>
        <time>2013-05-16T16:56:27Z</time>
      </trkpt>
      <trkpt lat="59.85628" lon="17.8045231">
        <ele>0</ele>
        <time>2013-05-16T16:56:28Z</time>
      </trkpt>
      <trkpt lat="59.8563288" lon="17.8046795">
        <ele>0</ele>
        <time>2013-05-16T16:56:29Z</time>
      </trkpt>
      <trkpt lat="59.8563786" lon="17.804835">
        <ele>0</ele>
        <time>2013-05-16T16:56:30Z</time>
      </trkpt>
      <trkpt lat="59.8564279" lon="17.8049929">
        <ele>0</ele>
        <time>2013-05-16T16:56:31Z</time>
      </trkpt>
      <trkpt lat="59.8564764" lon="17.8051518">
        <ele>0</ele>
        <time>2013-05-16T16:56:32Z</time>
      </trkpt>
      <trkpt lat="59.8565232" lon="17.8053118">
        <ele>0</ele>
        <time>2013-05-16T16:56:33Z</time>
      </trkpt>
      <trkpt lat="59.8565734" lon="17.8054747">
        <ele>0</ele>
        <time>2013-05-16T16:56:34Z</time>
      </trkpt>
      <trkpt lat="59.8566237" lon="17.8056366">
        <ele>0</ele>
        <time>2013-05-16T16:56:35Z</time>
      </trkpt>
      <trkpt lat="59.8566691" lon="17.805799">
        <ele>0</ele>
        <time>2013-05-16T16:56:36Z</time>
      </trkpt>
      <trkpt lat="59.8567162" lon="17.8059637">
        <ele>0</ele>
        <time>2013-05-16T16:56:37Z</time>
      </trkpt>
      <trkpt lat="59.8567653" lon="17.8061289">
        <ele>0</ele>
        <time>2013-05-16T16:56:38Z</time>
      </trkpt>
      <trkpt lat="59.8568131" lon="17.8062932">
        <ele>0</ele>
        <time>2013-05-16T16:56:39Z</time>
      </trkpt>
      <trkpt lat="59.8568624" lon="17.8064567">
        <ele>0</ele>
        <time>2013-05-16T16:56:40Z</time>
      </trkpt>
      <trkpt lat="59.8569156" lon="17.8066143">
        <ele>0</ele>
        <time>2013-05-16T16:56:41Z</time>
      </trkpt>
      <trkpt lat="59.8569671" lon="17.8067692">
        <ele>0</ele>
        <time>2013-05-16T16:56:42Z</time>
      </trkpt>
      <trkpt lat="59.8570176" lon="17.8069215">
        <ele>0</ele>
        <time>2013-05-16T16:56:43Z</time>
      </trkpt>
      <trkpt lat="59.8570668" lon="17.8070684">
        <ele>0</ele>
        <time>2013-05-16T16:56:44Z</time>
      </trkpt>
      <trkpt lat="59.8571119" lon="17.807212">
        <ele>0</ele>
        <time>2013-05-16T16:56:45Z</time>
      </trkpt>
      <trkpt lat="59.8571515" lon="17.8073571">
        <ele>0</ele>
        <time>2013-05-16T16:56:46Z</time>
      </trkpt>
      <trkpt lat="59.8571934" lon="17.8074997">
        <ele>0</ele>
        <time>2013-05-16T16:56:47Z</time>
      </trkpt>
      <trkpt lat="59.8572334" lon="17.8076431">
        <ele>0</ele>
        <time>2013-05-16T16:56:48Z</time>
      </trkpt>
      <trkpt lat="59.857273" lon="17.8077869">
        <ele>0</ele>
        <time>2013-05-16T16:56:49Z</time>
      </trkpt>
      <trkpt lat="59.8573128" lon="17.8079281">
        <ele>0</ele>
        <time>2013-05-16T16:56:50Z</time>
      </trkpt>
      <trkpt lat="59.8573524" lon="17.8080683">
        <ele>0</ele>
        <time>2013-05-16T16:56:51Z</time>
      </trkpt>
      <trkpt lat="59.8573913" lon="17.8082068">
        <ele>0</ele>
        <time>2013-05-16T16:56:52Z</time>
      </trkpt>
      <trkpt lat="59.8574287" lon="17.8083473">
        <ele>0</ele>
        <time>2013-05-16T16:56:53Z</time>
      </trkpt>
      <trkpt lat="59.8574622" lon="17.8084884">
        <ele>0</ele>
        <time>2013-05-16T16:56:54Z</time>
      </trkpt>
      <trkpt lat="59.8574983" lon="17.8086309">
        <ele>0</ele>
        <time>2013-05-16T16:56:55Z</time>
      </trkpt>
      <trkpt lat="59.8575297" lon="17.8087758">
        <ele>0</ele>
        <time>2013-05-16T16:56:56Z</time>
      </trkpt>
      <trkpt lat="59.8575589" lon="17.8089205">
        <ele>0.137451</ele>
        <time>2013-05-16T16:56:57Z</time>
      </trkpt>
      <trkpt lat="59.8575906" lon="17.8090666">
        <ele>0.618042</ele>
        <time>2013-05-16T16:56:58Z</time>
      </trkpt>
      <trkpt lat="59.8576151" lon="17.8092183">
        <ele>2.54065</ele>
        <time>2013-05-16T16:56:59Z</time>
      </trkpt>
      <trkpt lat="59.8576425" lon="17.8093687">
        <ele>3.50195</ele>
        <time>2013-05-16T16:57:00Z</time>
      </trkpt>
      <trkpt lat="59.8576709" lon="17.8095167">
        <ele>4.46326</ele>
        <time>2013-05-16T16:57:01Z</time>
      </trkpt>
      <trkpt lat="59.857699" lon="17.8096566">
        <ele>3.98267</ele>
        <time>2013-05-16T16:57:02Z</time>
      </trkpt>
      <trkpt lat="59.8577217" lon="17.8097989">
        <ele>4.94385</ele>
        <time>2013-05-16T16:57:03Z</time>
      </trkpt>
      <trkpt lat="59.8577394" lon="17.8099408">
        <ele>5.42456</ele>
        <time>2013-05-16T16:57:04Z</time>
      </trkpt>
      <trkpt lat="59.8577581" lon="17.810082">
        <ele>5.90527</ele>
        <time>2013-05-16T16:57:05Z</time>
      </trkpt>
      <trkpt lat="59.8577786" lon="17.8102194">
        <ele>4.94385</ele>
        <time>2013-05-16T16:57:06Z</time>
      </trkpt>
      <trkpt lat="59.8577927" lon="17.810356">
        <ele>4.94385</ele>
        <time>2013-05-16T16:57:07Z</time>
      </trkpt>
      <trkpt lat="59.8578036" lon="17.8104953">
        <ele>5.42456</ele>
        <time>2013-05-16T16:57:08Z</time>
      </trkpt>
      <trkpt lat="59.8578153" lon="17.8106392">
        <ele>5.90527</ele>
        <time>2013-05-16T16:57:09Z</time>
      </trkpt>
      <trkpt lat="59.8578225" lon="17.8107771">
        <ele>7.34717</ele>
        <time>2013-05-16T16:57:10Z</time>
      </trkpt>
      <trkpt lat="59.8578326" lon="17.8109094">
        <ele>7.34717</ele>
        <time>2013-05-16T16:57:11Z</time>
      </trkpt>
      <trkpt lat="59.8578439" lon="17.8110356">
        <ele>8.30859</ele>
        <time>2013-05-16T16:57:12Z</time>
      </trkpt>
      <trkpt lat="59.8578496" lon="17.8111454">
        <ele>6.86646</ele>
        <time>2013-05-16T16:57:13Z</time>
      </trkpt>
      <trkpt lat="59.8578554" lon="17.811266">
        <ele>7.34717</ele>
        <time>2013-05-16T16:57:14Z</time>
      </trkpt>
      <trkpt lat="59.8578606" lon="17.8113938">
        <ele>8.30859</ele>
        <time>2013-05-16T16:57:15Z</time>
      </trkpt>
      <trkpt lat="59.8578708" lon="17.8115279">
        <ele>9.75061</ele>
        <time>2013-05-16T16:57:16Z</time>
      </trkpt>
      <trkpt lat="59.8578802" lon="17.8116425">
        <ele>9.2699</ele>
        <time>2013-05-16T16:57:17Z</time>
      </trkpt>
      <trkpt lat="59.8578868" lon="17.8117567">
        <ele>8.30859</ele>
        <time>2013-05-16T16:57:18Z</time>
      </trkpt>
      <trkpt lat="59.857889" lon="17.8118765">
        <ele>9.2699</ele>
        <time>2013-05-16T16:57:19Z</time>
      </trkpt>
      <trkpt lat="59.8578873" lon="17.812002">
        <ele>9.75061</ele>
        <time>2013-05-16T16:57:20Z</time>
      </trkpt>
      <trkpt lat="59.857885" lon="17.8121312">
        <ele>10.2312</ele>
        <time>2013-05-16T16:57:21Z</time>
      </trkpt>
      <trkpt lat="59.8578822" lon="17.8122518">
        <ele>10.2312</ele>
        <time>2013-05-16T16:57:22Z</time>
      </trkpt>
      <trkpt lat="59.857876" lon="17.8123792">
        <ele>11.1925</ele>
        <time>2013-05-16T16:57:23Z</time>
      </trkpt>
      <trkpt lat="59.857869" lon="17.8125117">
        <ele>12.1538</ele>
        <time>2013-05-16T16:57:24Z</time>
      </trkpt>
      <trkpt lat="59.8578626" lon="17.8126351">
        <ele>12.6344</ele>
        <time>2013-05-16T16:57:25Z</time>
      </trkpt>
      <trkpt lat="59.8578543" lon="17.812753">
        <ele>12.6344</ele>
        <time>2013-05-16T16:57:26Z</time>
      </trkpt>
      <trkpt lat="59.8578449" lon="17.8128686">
        <ele>13.1151</ele>
        <time>2013-05-16T16:57:27Z</time>
      </trkpt>
      <trkpt lat="59.8578355" lon="17.8129806">
        <ele>13.5958</ele>
        <time>2013-05-16T16:57:28Z</time>
      </trkpt>
      <trkpt lat="59.8578259" lon="17.8130933">
        <ele>13.5958</ele>
        <time>2013-05-16T16:57:29Z</time>
      </trkpt>
      <trkpt lat="59.8578137" lon="17.8132157">
        <ele>14.0764</ele>
        <time>2013-05-16T16:57:30Z</time>
      </trkpt>
      <trkpt lat="59.8577999" lon="17.8133453">
        <ele>15.0377</ele>
        <time>2013-05-16T16:57:31Z</time>
      </trkpt>
      <trkpt lat="59.8577849" lon="17.8134794">
        <ele>15.5184</ele>
        <time>2013-05-16T16:57:32Z</time>
      </trkpt>
      <trkpt lat="59.8577704" lon="17.8135997">
        <ele>15.5184</ele>
        <time>2013-05-16T16:57:33Z</time>
      </trkpt>
      <trkpt lat="59.8577566" lon="17.8137087">
        <ele>15.5184</ele>
        <time>2013-05-16T16:57:34Z</time>
      </trkpt>
      <trkpt lat="59.8577428" lon="17.813811">
        <ele>15.0377</ele>
        <time>2013-05-16T16:57:35Z</time>
      </trkpt>
      <trkpt lat="59.8577281" lon="17.8139119">
        <ele>15.0377</ele>
        <time>2013-05-16T16:57:36Z</time>
      </trkpt>
      <trkpt lat="59.8577136" lon="17.8140062">
        <ele>14.557</ele>
        <time>2013-05-16T16:57:37Z</time>
      </trkpt>
      <trkpt lat="59.8577006" lon="17.8140934">
        <ele>14.0764</ele>
        <time>2013-05-16T16:57:38Z</time>
      </trkpt>
      <trkpt lat="59.8576879" lon="17.8141741">
        <ele>14.0764</ele>
        <time>2013-05-16T16:57:39Z</time>
      </trkpt>
      <trkpt lat="59.8576755" lon="17.8142483">
        <ele>13.5958</ele>
        <time>2013-05-16T16:57:40Z</time>
      </trkpt>
      <trkpt lat="59.8576638" lon="17.8143197">
        <ele>13.1151</ele>
        <time>2013-05-16T16:57:41Z</time>
      </trkpt>
      <trkpt lat="59.8576543" lon="17.8144067">
        <ele>13.5958</ele>
        <time>2013-05-16T16:57:42Z</time>
      </trkpt>
      <trkpt lat="59.8576436" lon="17.8144724">
        <ele>13.1151</ele>
        <time>2013-05-16T16:57:43Z</time>
      </trkpt>
      <trkpt lat="59.8576342" lon="17.8145394">
        <ele>12.6344</ele>
        <time>2013-05-16T16:57:44Z</time>
      </trkpt>
      <trkpt lat="59.857629" lon="17.8145958">
        <ele>12.6344</ele>
        <time>2013-05-16T16:57:45Z</time>
      </trkpt>
      <trkpt lat="59.8576332" lon="17.8146507">
        <ele>12.1538</ele>
        <time>2013-05-16T16:57:46Z</time>
      </trkpt>
      <trkpt lat="59.857642" lon="17.814722">
        <ele>12.6344</ele>
        <time>2013-05-16T16:57:47Z</time>
      </trkpt>
      <trkpt lat="59.8576586" lon="17.8147894">
        <ele>12.1538</ele>
        <time>2013-05-16T16:57:48Z</time>
      </trkpt>
      <trkpt lat="59.8576863" lon="17.814847">
        <ele>11.6732</ele>
        <time>2013-05-16T16:57:49Z</time>
      </trkpt>
      <trkpt lat="59.8577248" lon="17.8148951">
        <ele>10.7118</ele>
        <time>2013-05-16T16:57:50Z</time>
      </trkpt>
      <trkpt lat="59.8577699" lon="17.8149351">
        <ele>10.7118</ele>
        <time>2013-05-16T16:57:51Z</time>
      </trkpt>
      <trkpt lat="59.8578166" lon="17.8149753">
        <ele>11.1925</ele>
        <time>2013-05-16T16:57:52Z</time>
      </trkpt>
      <trkpt lat="59.8578682" lon="17.8150106">
        <ele>12.1538</ele>
        <time>2013-05-16T16:57:53Z</time>
      </trkpt>
      <trkpt lat="59.8579215" lon="17.8150377">
        <ele>12.6344</ele>
        <time>2013-05-16T16:57:54Z</time>
      </trkpt>
      <trkpt lat="59.857973" lon="17.8150693">
        <ele>13.1151</ele>
        <time>2013-05-16T16:57:55Z</time>
      </trkpt>
      <trkpt lat="59.8580279" lon="17.8150946">
        <ele>12.6344</ele>
        <time>2013-05-16T16:57:56Z</time>
      </trkpt>
      <trkpt lat="59.8580795" lon="17.8151195">
        <ele>12.6344</ele>
        <time>2013-05-16T16:57:57Z</time>
      </trkpt>
      <trkpt lat="59.8581304" lon="17.8151486">
        <ele>12.1538</ele>
        <time>2013-05-16T16:57:58Z</time>
      </trkpt>
      <trkpt lat="59.8581792" lon="17.8151879">
        <ele>12.6344</ele>
        <time>2013-05-16T16:57:59Z</time>
      </trkpt>
      <trkpt lat="59.8582246" lon="17.8152267">
        <ele>12.6344</ele>
        <time>2013-05-16T16:58:00Z</time>
      </trkpt>
      <trkpt lat="59.8582677" lon="17.8152708">
        <ele>13.1151</ele>
        <time>2013-05-16T16:58:01Z</time>
      </trkpt>
      <trkpt lat="59.85832" lon="17.8153053">
        <ele>13.5958</ele>
        <time>2013-05-16T16:58:02Z</time>
      </trkpt>
      <trkpt lat="59.8583771" lon="17.8153323">
        <ele>13.1151</ele>
        <time>2013-05-16T16:58:03Z</time>
      </trkpt>
      <trkpt lat="59.8584376" lon="17.8153794">
        <ele>14.557</ele>
        <time>2013-05-16T16:58:04Z</time>
      </trkpt>
      <trkpt lat="59.8585022" lon="17.8154312">
        <ele>15.5184</ele>
        <time>2013-05-16T16:58:05Z</time>
      </trkpt>
      <trkpt lat="59.8585621" lon="17.8154817">
        <ele>14.557</ele>
        <time>2013-05-16T16:58:06Z</time>
      </trkpt>
      <trkpt lat="59.8586256" lon="17.8155313">
        <ele>13.5958</ele>
        <time>2013-05-16T16:58:07Z</time>
      </trkpt>
      <trkpt lat="59.8586918" lon="17.8155883">
        <ele>13.5958</ele>
        <time>2013-05-16T16:58:08Z</time>
      </trkpt>
      <trkpt lat="59.8587566" lon="17.8156431">
        <ele>14.0764</ele>
        <time>2013-05-16T16:58:09Z</time>
      </trkpt>
      <trkpt lat="59.8588236" lon="17.8156956">
        <ele>14.557</ele>
        <time>2013-05-16T16:58:10Z</time>
      </trkpt>
      <trkpt lat="59.8588884" lon="17.8157715">
        <ele>15.999</ele>
        <time>2013-05-16T16:58:11Z</time>
      </trkpt>
      <trkpt lat="59.858958" lon="17.8158525">
        <ele>17.4412</ele>
        <time>2013-05-16T16:58:12Z</time>
      </trkpt>
      <trkpt lat="59.8590345" lon="17.8159431">
        <ele>19.3638</ele>
        <time>2013-05-16T16:58:13Z</time>
      </trkpt>
      <trkpt lat="59.8591048" lon="17.8160154">
        <ele>20.8057</ele>
        <time>2013-05-16T16:58:14Z</time>
      </trkpt>
      <trkpt lat="59.859174" lon="17.81608">
        <ele>20.8057</ele>
        <time>2013-05-16T16:58:15Z</time>
      </trkpt>
      <trkpt lat="59.8592468" lon="17.8161322">
        <ele>20.325</ele>
        <time>2013-05-16T16:58:16Z</time>
      </trkpt>
      <trkpt lat="59.859325" lon="17.8161771">
        <ele>19.3638</ele>
        <time>2013-05-16T16:58:17Z</time>
      </trkpt>
      <trkpt lat="59.8594077" lon="17.8162182">
        <ele>17.9218</ele>
        <time>2013-05-16T16:58:18Z</time>
      </trkpt>
      <trkpt lat="59.859485" lon="17.8162504">
        <ele>16.9604</ele>
        <time>2013-05-16T16:58:19Z</time>
      </trkpt>
      <trkpt lat="59.8595507" lon="17.8162841">
        <ele>19.3638</ele>
        <time>2013-05-16T16:58:20Z</time>
      </trkpt>
      <trkpt lat="59.8596167" lon="17.8163351">
        <ele>17.4412</ele>
        <time>2013-05-16T16:58:21Z</time>
      </trkpt>
      <trkpt lat="59.859684" lon="17.8163825">
        <ele>15.5184</ele>
        <time>2013-05-16T16:58:22Z</time>
      </trkpt>
      <trkpt lat="59.859744" lon="17.8164275">
        <ele>14.0764</ele>
        <time>2013-05-16T16:58:23Z</time>
      </trkpt>
      <trkpt lat="59.8598039" lon="17.8164768">
        <ele>15.999</ele>
        <time>2013-05-16T16:58:24Z</time>
      </trkpt>
      <trkpt lat="59.85987" lon="17.8165317">
        <ele>15.5184</ele>
        <time>2013-05-16T16:58:25Z</time>
      </trkpt>
      <trkpt lat="59.8599265" lon="17.8166004">
        <ele>14.0764</ele>
        <time>2013-05-16T16:58:26Z</time>
      </trkpt>
      <trkpt lat="59.8599782" lon="17.8166807">
        <ele>15.0377</ele>
        <time>2013-05-16T16:58:27Z</time>
      </trkpt>
      <trkpt lat="59.8600372" lon="17.8167517">
        <ele>11.1925</ele>
        <time>2013-05-16T16:58:28Z</time>
      </trkpt>
      <trkpt lat="59.860094" lon="17.8168147">
        <ele>11.1925</ele>
        <time>2013-05-16T16:58:29Z</time>
      </trkpt>
      <trkpt lat="59.8601471" lon="17.8168807">
        <ele>12.1538</ele>
        <time>2013-05-16T16:58:30Z</time>
      </trkpt>
      <trkpt lat="59.8601826" lon="17.8169661">
        <ele>13.1151</ele>
        <time>2013-05-16T16:58:31Z</time>
      </trkpt>
      <trkpt lat="59.8602305" lon="17.8170548">
        <ele>13.5958</ele>
        <time>2013-05-16T16:58:32Z</time>
      </trkpt>
      <trkpt lat="59.8602751" lon="17.8171413">
        <ele>15.5184</ele>
        <time>2013-05-16T16:58:33Z</time>
      </trkpt>
      <trkpt lat="59.8603262" lon="17.8172262">
        <ele>15.5184</ele>
        <time>2013-05-16T16:58:34Z</time>
      </trkpt>
      <trkpt lat="59.8603784" lon="17.8173127">
        <ele>16.4797</ele>
        <time>2013-05-16T16:58:35Z</time>
      </trkpt>
      <trkpt lat="59.8604325" lon="17.8173962">
        <ele>16.9604</ele>
        <time>2013-05-16T16:58:36Z</time>
      </trkpt>
      <trkpt lat="59.8604946" lon="17.8174697">
        <ele>14.0764</ele>
        <time>2013-05-16T16:58:37Z</time>
      </trkpt>
      <trkpt lat="59.8605609" lon="17.817535">
        <ele>14.0764</ele>
        <time>2013-05-16T16:58:38Z</time>
      </trkpt>
      <trkpt lat="59.8606178" lon="17.8176107">
        <ele>14.557</ele>
        <time>2013-05-16T16:58:39Z</time>
      </trkpt>
      <trkpt lat="59.8606723" lon="17.8176788">
        <ele>15.0377</ele>
        <time>2013-05-16T16:58:40Z</time>
      </trkpt>
      <trkpt lat="59.8607351" lon="17.8177412">
        <ele>13.5958</ele>
        <time>2013-05-16T16:58:41Z</time>
      </trkpt>
      <trkpt lat="59.860789" lon="17.8178007">
        <ele>14.557</ele>
        <time>2013-05-16T16:58:42Z</time>
      </trkpt>
      <trkpt lat="59.8608355" lon="17.8178533">
        <ele>14.0764</ele>
        <time>2013-05-16T16:58:43Z</time>
      </trkpt>
      <trkpt lat="59.8608831" lon="17.8179199">
        <ele>14.0764</ele>
        <time>2013-05-16T16:58:44Z</time>
      </trkpt>
      <trkpt lat="59.8609231" lon="17.817985">
        <ele>15.0377</ele>
        <time>2013-05-16T16:58:45Z</time>
      </trkpt>
      <trkpt lat="59.8609633" lon="17.8180414">
        <ele>16.4797</ele>
        <time>2013-05-16T16:58:46Z</time>
      </trkpt>
      <trkpt lat="59.8610028" lon="17.8180974">
        <ele>17.9218</ele>
        <time>2013-05-16T16:58:47Z</time>
      </trkpt>
      <trkpt lat="59.861055" lon="17.8181545">
        <ele>18.8831</ele>
        <time>2013-05-16T16:58:48Z</time>
      </trkpt>
      <trkpt lat="59.8611029" lon="17.8182118">
        <ele>20.8057</ele>
        <time>2013-05-16T16:58:49Z</time>
      </trkpt>
      <trkpt lat="59.8611546" lon="17.8182584">
        <ele>23.209</ele>
        <time>2013-05-16T16:58:50Z</time>
      </trkpt>
      <trkpt lat="59.8612079" lon="17.8183043">
        <ele>23.209</ele>
        <time>2013-05-16T16:58:51Z</time>
      </trkpt>
      <trkpt lat="59.8612718" lon="17.8183455">
        <ele>21.767</ele>
        <time>2013-05-16T16:58:52Z</time>
      </trkpt>
      <trkpt lat="59.8613446" lon="17.8183912">
        <ele>19.3638</ele>
        <time>2013-05-16T16:58:53Z</time>
      </trkpt>
      <trkpt lat="59.8614193" lon="17.818428">
        <ele>18.8831</ele>
        <time>2013-05-16T16:58:54Z</time>
      </trkpt>
      <trkpt lat="59.8614872" lon="17.8184642">
        <ele>16.9604</ele>
        <time>2013-05-16T16:58:55Z</time>
      </trkpt>
      <trkpt lat="59.8615396" lon="17.8185093">
        <ele>14.557</ele>
        <time>2013-05-16T16:58:56Z</time>
      </trkpt>
      <trkpt lat="59.8615928" lon="17.8185569">
        <ele>16.4797</ele>
        <time>2013-05-16T16:58:57Z</time>
      </trkpt>
      <trkpt lat="59.8616451" lon="17.8185998">
        <ele>18.8831</ele>
        <time>2013-05-16T16:58:58Z</time>
      </trkpt>
      <trkpt lat="59.8616882" lon="17.8186249">
        <ele>21.2864</ele>
        <time>2013-05-16T16:58:59Z</time>
      </trkpt>
      <trkpt lat="59.8617348" lon="17.8186307">
        <ele>24.1703</ele>
        <time>2013-05-16T16:59:00Z</time>
      </trkpt>
      <trkpt lat="59.861791" lon="17.8186601">
        <ele>27.0543</ele>
        <time>2013-05-16T16:59:01Z</time>
      </trkpt>
      <trkpt lat="59.8618658" lon="17.8186907">
        <ele>28.9769</ele>
        <time>2013-05-16T16:59:02Z</time>
      </trkpt>
      <trkpt lat="59.8619425" lon="17.8187243">
        <ele>29.4575</ele>
        <time>2013-05-16T16:59:03Z</time>
      </trkpt>
      <trkpt lat="59.8620208" lon="17.8187653">
        <ele>29.9381</ele>
        <time>2013-05-16T16:59:04Z</time>
      </trkpt>
      <trkpt lat="59.8620988" lon="17.8188202">
        <ele>32.3416</ele>
        <time>2013-05-16T16:59:05Z</time>
      </trkpt>
      <trkpt lat="59.8621762" lon="17.8188937">
        <ele>33.7834</ele>
        <time>2013-05-16T16:59:06Z</time>
      </trkpt>
      <trkpt lat="59.8622621" lon="17.8189818">
        <ele>34.7449</ele>
        <time>2013-05-16T16:59:07Z</time>
      </trkpt>
      <trkpt lat="59.8623507" lon="17.8190748">
        <ele>34.2642</ele>
        <time>2013-05-16T16:59:08Z</time>
      </trkpt>
      <trkpt lat="59.8624217" lon="17.8191851">
        <ele>33.7834</ele>
        <time>2013-05-16T16:59:09Z</time>
      </trkpt>
      <trkpt lat="59.8624697" lon="17.8193126">
        <ele>33.3029</ele>
        <time>2013-05-16T16:59:10Z</time>
      </trkpt>
      <trkpt lat="59.8624995" lon="17.8194543">
        <ele>32.3416</ele>
        <time>2013-05-16T16:59:11Z</time>
      </trkpt>
      <trkpt lat="59.8625232" lon="17.8196034">
        <ele>32.3416</ele>
        <time>2013-05-16T16:59:12Z</time>
      </trkpt>
      <trkpt lat="59.8625465" lon="17.8197482">
        <ele>31.3801</ele>
        <time>2013-05-16T16:59:13Z</time>
      </trkpt>
      <trkpt lat="59.862572" lon="17.8198902">
        <ele>28.9769</ele>
        <time>2013-05-16T16:59:14Z</time>
      </trkpt>
      <trkpt lat="59.8626029" lon="17.8200347">
        <ele>28.0155</ele>
        <time>2013-05-16T16:59:15Z</time>
      </trkpt>
      <trkpt lat="59.8626305" lon="17.8201797">
        <ele>28.9769</ele>
        <time>2013-05-16T16:59:16Z</time>
      </trkpt>
      <trkpt lat="59.8626402" lon="17.8203382">
        <ele>28.0155</ele>
        <time>2013-05-16T16:59:17Z</time>
      </trkpt>
      <trkpt lat="59.8626603" lon="17.8204912">
        <ele>27.0543</ele>
        <time>2013-05-16T16:59:18Z</time>
      </trkpt>
      <trkpt lat="59.8626884" lon="17.8206441">
        <ele>25.6123</ele>
        <time>2013-05-16T16:59:19Z</time>
      </trkpt>
      <trkpt lat="59.8627245" lon="17.8207972">
        <ele>24.1703</ele>
        <time>2013-05-16T16:59:20Z</time>
      </trkpt>
      <trkpt lat="59.8627657" lon="17.8209518">
        <ele>22.2476</ele>
        <time>2013-05-16T16:59:21Z</time>
      </trkpt>
      <trkpt lat="59.8628024" lon="17.8211139">
        <ele>21.2864</ele>
        <time>2013-05-16T16:59:22Z</time>
      </trkpt>
      <trkpt lat="59.8628402" lon="17.8212802">
        <ele>21.2864</ele>
        <time>2013-05-16T16:59:23Z</time>
      </trkpt>
      <trkpt lat="59.8628941" lon="17.8214573">
        <ele>21.2864</ele>
        <time>2013-05-16T16:59:24Z</time>
      </trkpt>
      <trkpt lat="59.8629427" lon="17.8216282">
        <ele>21.767</ele>
        <time>2013-05-16T16:59:25Z</time>
      </trkpt>
      <trkpt lat="59.8629957" lon="17.8217966">
        <ele>21.2864</ele>
        <time>2013-05-16T16:59:26Z</time>
      </trkpt>
      <trkpt lat="59.8630484" lon="17.821964">
        <ele>22.2476</ele>
        <time>2013-05-16T16:59:27Z</time>
      </trkpt>
      <trkpt lat="59.8630998" lon="17.8221271">
        <ele>21.767</ele>
        <time>2013-05-16T16:59:28Z</time>
      </trkpt>
      <trkpt lat="59.8631513" lon="17.8222922">
        <ele>22.2476</ele>
        <time>2013-05-16T16:59:29Z</time>
      </trkpt>
      <trkpt lat="59.863209" lon="17.8224493">
        <ele>21.2864</ele>
        <time>2013-05-16T16:59:30Z</time>
      </trkpt>
      <trkpt lat="59.8632651" lon="17.8226071">
        <ele>20.8057</ele>
        <time>2013-05-16T16:59:31Z</time>
      </trkpt>
      <trkpt lat="59.8633194" lon="17.8227647">
        <ele>21.2864</ele>
        <time>2013-05-16T16:59:32Z</time>
      </trkpt>
      <trkpt lat="59.8633748" lon="17.8229177">
        <ele>21.2864</ele>
        <time>2013-05-16T16:59:33Z</time>
      </trkpt>
      <trkpt lat="59.8634297" lon="17.8230689">
        <ele>21.2864</ele>
        <time>2013-05-16T16:59:34Z</time>
      </trkpt>
      <trkpt lat="59.8634866" lon="17.823217">
        <ele>21.767</ele>
        <time>2013-05-16T16:59:35Z</time>
      </trkpt>
      <trkpt lat="59.8635448" lon="17.8233616">
        <ele>21.2864</ele>
        <time>2013-05-16T16:59:36Z</time>
      </trkpt>
      <trkpt lat="59.8636027" lon="17.8235057">
        <ele>21.767</ele>
        <time>2013-05-16T16:59:37Z</time>
      </trkpt>
      <trkpt lat="59.8636628" lon="17.823647">
        <ele>21.2864</ele>
        <time>2013-05-16T16:59:38Z</time>
      </trkpt>
      <trkpt lat="59.8637207" lon="17.8237861">
        <ele>21.767</ele>
        <time>2013-05-16T16:59:39Z</time>
      </trkpt>
      <trkpt lat="59.8637771" lon="17.8239231">
        <ele>22.2476</ele>
        <time>2013-05-16T16:59:40Z</time>
      </trkpt>
      <trkpt lat="59.8638331" lon="17.8240552">
        <ele>22.7283</ele>
        <time>2013-05-16T16:59:41Z</time>
      </trkpt>
      <trkpt lat="59.8638849" lon="17.8241804">
        <ele>22.7283</ele>
        <time>2013-05-16T16:59:42Z</time>
      </trkpt>
      <trkpt lat="59.8639351" lon="17.8243036">
        <ele>22.7283</ele>
        <time>2013-05-16T16:59:43Z</time>
      </trkpt>
      <trkpt lat="59.8639856" lon="17.8244266">
        <ele>23.209</ele>
        <time>2013-05-16T16:59:44Z</time>
      </trkpt>
      <trkpt lat="59.8640363" lon="17.8245471">
        <ele>23.6896</ele>
        <time>2013-05-16T16:59:45Z</time>
      </trkpt>
      <trkpt lat="59.864088" lon="17.8246659">
        <ele>23.6896</ele>
        <time>2013-05-16T16:59:46Z</time>
      </trkpt>
      <trkpt lat="59.8641371" lon="17.8247864">
        <ele>23.6896</ele>
        <time>2013-05-16T16:59:47Z</time>
      </trkpt>
      <trkpt lat="59.8641858" lon="17.8249035">
        <ele>23.6896</ele>
        <time>2013-05-16T16:59:48Z</time>
      </trkpt>
      <trkpt lat="59.8642321" lon="17.8250074">
        <ele>22.7283</ele>
        <time>2013-05-16T16:59:49Z</time>
      </trkpt>
      <trkpt lat="59.8642797" lon="17.8251122">
        <ele>21.767</ele>
        <time>2013-05-16T16:59:50Z</time>
      </trkpt>
      <trkpt lat="59.8643252" lon="17.8252251">
        <ele>22.7283</ele>
        <time>2013-05-16T16:59:51Z</time>
      </trkpt>
      <trkpt lat="59.8643755" lon="17.8253327">
        <ele>22.2476</ele>
        <time>2013-05-16T16:59:52Z</time>
      </trkpt>
      <trkpt lat="59.8644217" lon="17.825447">
        <ele>22.7283</ele>
        <time>2013-05-16T16:59:53Z</time>
      </trkpt>
      <trkpt lat="59.8644702" lon="17.8255521">
        <ele>21.767</ele>
        <time>2013-05-16T16:59:54Z</time>
      </trkpt>
      <trkpt lat="59.8645129" lon="17.8256527">
        <ele>19.8444</ele>
        <time>2013-05-16T16:59:55Z</time>
      </trkpt>
      <trkpt lat="59.8645522" lon="17.8257546">
        <ele>18.8831</ele>
        <time>2013-05-16T16:59:56Z</time>
      </trkpt>
      <trkpt lat="59.8645951" lon="17.8258417">
        <ele>17.4412</ele>
        <time>2013-05-16T16:59:57Z</time>
      </trkpt>
      <trkpt lat="59.8646449" lon="17.8259271">
        <ele>15.5184</ele>
        <time>2013-05-16T16:59:58Z</time>
      </trkpt>
      <trkpt lat="59.8646914" lon="17.8260162">
        <ele>14.0764</ele>
        <time>2013-05-16T16:59:59Z</time>
      </trkpt>
      <trkpt lat="59.8647504" lon="17.8260459">
        <ele>12.6344</ele>
        <time>2013-05-16T17:00:00Z</time>
      </trkpt>
      <trkpt lat="59.8648029" lon="17.8261251">
        <ele>11.6732</ele>
        <time>2013-05-16T17:00:01Z</time>
      </trkpt>
      <trkpt lat="59.8648485" lon="17.8262149">
        <ele>11.1925</ele>
        <time>2013-05-16T17:00:02Z</time>
      </trkpt>
      <trkpt lat="59.8649029" lon="17.8262889">
        <ele>10.7118</ele>
        <time>2013-05-16T17:00:03Z</time>
      </trkpt>
      <trkpt lat="59.8649604" lon="17.8263549">
        <ele>10.2312</ele>
        <time>2013-05-16T17:00:04Z</time>
      </trkpt>
      <trkpt lat="59.8650167" lon="17.8264319">
        <ele>9.2699</ele>
        <time>2013-05-16T17:00:05Z</time>
      </trkpt>
      <trkpt lat="59.8650868" lon="17.8264932">
        <ele>10.7118</ele>
        <time>2013-05-16T17:00:06Z</time>
      </trkpt>
      <trkpt lat="59.8651646" lon="17.8265376">
        <ele>11.1925</ele>
        <time>2013-05-16T17:00:07Z</time>
      </trkpt>
      <trkpt lat="59.8652432" lon="17.8265685">
        <ele>11.6732</ele>
        <time>2013-05-16T17:00:08Z</time>
      </trkpt>
      <trkpt lat="59.8653235" lon="17.826595">
        <ele>11.6732</ele>
        <time>2013-05-16T17:00:09Z</time>
      </trkpt>
      <trkpt lat="59.8654032" lon="17.826621">
        <ele>12.1538</ele>
        <time>2013-05-16T17:00:10Z</time>
      </trkpt>
      <trkpt lat="59.8654836" lon="17.8266463">
        <ele>12.6344</ele>
        <time>2013-05-16T17:00:11Z</time>
      </trkpt>
      <trkpt lat="59.8655663" lon="17.8266664">
        <ele>13.1151</ele>
        <time>2013-05-16T17:00:12Z</time>
      </trkpt>
      <trkpt lat="59.865646" lon="17.8266811">
        <ele>13.1151</ele>
        <time>2013-05-16T17:00:13Z</time>
      </trkpt>
      <trkpt lat="59.8657244" lon="17.8266997">
        <ele>13.5958</ele>
        <time>2013-05-16T17:00:14Z</time>
      </trkpt>
      <trkpt lat="59.8658025" lon="17.8267167">
        <ele>14.557</ele>
        <time>2013-05-16T17:00:15Z</time>
      </trkpt>
      <trkpt lat="59.865883" lon="17.8267276">
        <ele>14.557</ele>
        <time>2013-05-16T17:00:16Z</time>
      </trkpt>
      <trkpt lat="59.8659611" lon="17.8267425">
        <ele>15.0377</ele>
        <time>2013-05-16T17:00:17Z</time>
      </trkpt>
      <trkpt lat="59.8660364" lon="17.8267553">
        <ele>15.5184</ele>
        <time>2013-05-16T17:00:18Z</time>
      </trkpt>
      <trkpt lat="59.8661062" lon="17.8267716">
        <ele>16.9604</ele>
        <time>2013-05-16T17:00:19Z</time>
      </trkpt>
      <trkpt lat="59.8661782" lon="17.8267828">
        <ele>18.4023</ele>
        <time>2013-05-16T17:00:20Z</time>
      </trkpt>
      <trkpt lat="59.8662402" lon="17.8267901">
        <ele>20.325</ele>
        <time>2013-05-16T17:00:21Z</time>
      </trkpt>
      <trkpt lat="59.8663056" lon="17.8267856">
        <ele>21.767</ele>
        <time>2013-05-16T17:00:22Z</time>
      </trkpt>
      <trkpt lat="59.8663709" lon="17.8267865">
        <ele>22.2476</ele>
        <time>2013-05-16T17:00:23Z</time>
      </trkpt>
      <trkpt lat="59.8664347" lon="17.8267722">
        <ele>22.2476</ele>
        <time>2013-05-16T17:00:24Z</time>
      </trkpt>
      <trkpt lat="59.8665154" lon="17.8267328">
        <ele>19.8444</ele>
        <time>2013-05-16T17:00:25Z</time>
      </trkpt>
      <trkpt lat="59.8665843" lon="17.826712">
        <ele>20.325</ele>
        <time>2013-05-16T17:00:26Z</time>
      </trkpt>
      <trkpt lat="59.8666564" lon="17.8266774">
        <ele>18.4023</ele>
        <time>2013-05-16T17:00:27Z</time>
      </trkpt>
      <trkpt lat="59.8667218" lon="17.82664">
        <ele>16.4797</ele>
        <time>2013-05-16T17:00:28Z</time>
      </trkpt>
      <trkpt lat="59.8667848" lon="17.8266016">
        <ele>15.999</ele>
        <time>2013-05-16T17:00:29Z</time>
      </trkpt>
      <trkpt lat="59.8668553" lon="17.8265592">
        <ele>16.9604</ele>
        <time>2013-05-16T17:00:30Z</time>
      </trkpt>
      <trkpt lat="59.8669204" lon="17.8265111">
        <ele>16.9604</ele>
        <time>2013-05-16T17:00:31Z</time>
      </trkpt>
      <trkpt lat="59.8669838" lon="17.8264603">
        <ele>16.9604</ele>
        <time>2013-05-16T17:00:32Z</time>
      </trkpt>
      <trkpt lat="59.8670464" lon="17.8263976">
        <ele>15.999</ele>
        <time>2013-05-16T17:00:33Z</time>
      </trkpt>
      <trkpt lat="59.8671188" lon="17.8263566">
        <ele>15.999</ele>
        <time>2013-05-16T17:00:34Z</time>
      </trkpt>
      <trkpt lat="59.8671876" lon="17.8263006">
        <ele>15.0377</ele>
        <time>2013-05-16T17:00:35Z</time>
      </trkpt>
      <trkpt lat="59.867256" lon="17.8262519">
        <ele>14.0764</ele>
        <time>2013-05-16T17:00:36Z</time>
      </trkpt>
      <trkpt lat="59.8673241" lon="17.8262214">
        <ele>14.0764</ele>
        <time>2013-05-16T17:00:37Z</time>
      </trkpt>
      <trkpt lat="59.867391" lon="17.8261988">
        <ele>13.1151</ele>
        <time>2013-05-16T17:00:38Z</time>
      </trkpt>
      <trkpt lat="59.8674427" lon="17.8261635">
        <ele>13.1151</ele>
        <time>2013-05-16T17:00:39Z</time>
      </trkpt>
      <trkpt lat="59.8675058" lon="17.8261412">
        <ele>13.5958</ele>
        <time>2013-05-16T17:00:40Z</time>
      </trkpt>
      <trkpt lat="59.8675639" lon="17.8261106">
        <ele>13.5958</ele>
        <time>2013-05-16T17:00:41Z</time>
      </trkpt>
      <trkpt lat="59.8676152" lon="17.8260676">
        <ele>14.0764</ele>
        <time>2013-05-16T17:00:42Z</time>
      </trkpt>
      <trkpt lat="59.8676582" lon="17.8260127">
        <ele>14.0764</ele>
        <time>2013-05-16T17:00:43Z</time>
      </trkpt>
      <trkpt lat="59.8677084" lon="17.8259759">
        <ele>13.5958</ele>
        <time>2013-05-16T17:00:44Z</time>
      </trkpt>
      <trkpt lat="59.8677597" lon="17.8259317">
        <ele>13.5958</ele>
        <time>2013-05-16T17:00:45Z</time>
      </trkpt>
      <trkpt lat="59.8678098" lon="17.8258925">
        <ele>13.1151</ele>
        <time>2013-05-16T17:00:46Z</time>
      </trkpt>
      <trkpt lat="59.8678585" lon="17.8258354">
        <ele>12.6344</ele>
        <time>2013-05-16T17:00:47Z</time>
      </trkpt>
      <trkpt lat="59.8679094" lon="17.8257906">
        <ele>12.1538</ele>
        <time>2013-05-16T17:00:48Z</time>
      </trkpt>
      <trkpt lat="59.8679623" lon="17.8257497">
        <ele>12.6344</ele>
        <time>2013-05-16T17:00:49Z</time>
      </trkpt>
      <trkpt lat="59.8680193" lon="17.8257226">
        <ele>12.6344</ele>
        <time>2013-05-16T17:00:50Z</time>
      </trkpt>
      <trkpt lat="59.8680771" lon="17.8256864">
        <ele>13.1151</ele>
        <time>2013-05-16T17:00:51Z</time>
      </trkpt>
      <trkpt lat="59.8681322" lon="17.8256412">
        <ele>12.6344</ele>
        <time>2013-05-16T17:00:52Z</time>
      </trkpt>
      <trkpt lat="59.8681855" lon="17.8256014">
        <ele>12.1538</ele>
        <time>2013-05-16T17:00:53Z</time>
      </trkpt>
      <trkpt lat="59.8682426" lon="17.8255864">
        <ele>13.1151</ele>
        <time>2013-05-16T17:00:54Z</time>
      </trkpt>
      <trkpt lat="59.8683089" lon="17.8255948">
        <ele>14.0764</ele>
        <time>2013-05-16T17:00:55Z</time>
      </trkpt>
      <trkpt lat="59.8683757" lon="17.8256242">
        <ele>15.0377</ele>
        <time>2013-05-16T17:00:56Z</time>
      </trkpt>
      <trkpt lat="59.8684393" lon="17.8256739">
        <ele>15.5184</ele>
        <time>2013-05-16T17:00:57Z</time>
      </trkpt>
      <trkpt lat="59.8685037" lon="17.8257506">
        <ele>16.4797</ele>
        <time>2013-05-16T17:00:58Z</time>
      </trkpt>
      <trkpt lat="59.8685619" lon="17.8258314">
        <ele>17.4412</ele>
        <time>2013-05-16T17:00:59Z</time>
      </trkpt>
      <trkpt lat="59.8686222" lon="17.8258989">
        <ele>18.4023</ele>
        <time>2013-05-16T17:01:00Z</time>
      </trkpt>
      <trkpt lat="59.868678" lon="17.8259738">
        <ele>19.3638</ele>
        <time>2013-05-16T17:01:01Z</time>
      </trkpt>
      <trkpt lat="59.8687299" lon="17.826061">
        <ele>19.8444</ele>
        <time>2013-05-16T17:01:02Z</time>
      </trkpt>
      <trkpt lat="59.8687787" lon="17.8261614">
        <ele>19.8444</ele>
        <time>2013-05-16T17:01:03Z</time>
      </trkpt>
      <trkpt lat="59.8688266" lon="17.8262572">
        <ele>19.8444</ele>
        <time>2013-05-16T17:01:04Z</time>
      </trkpt>
      <trkpt lat="59.8688724" lon="17.8263551">
        <ele>20.325</ele>
        <time>2013-05-16T17:01:05Z</time>
      </trkpt>
      <trkpt lat="59.868921" lon="17.8264433">
        <ele>19.8444</ele>
        <time>2013-05-16T17:01:06Z</time>
      </trkpt>
      <trkpt lat="59.8689662" lon="17.8265334">
        <ele>19.3638</ele>
        <time>2013-05-16T17:01:07Z</time>
      </trkpt>
      <trkpt lat="59.8690097" lon="17.826623">
        <ele>18.8831</ele>
        <time>2013-05-16T17:01:08Z</time>
      </trkpt>
      <trkpt lat="59.8690547" lon="17.826712">
        <ele>18.8831</ele>
        <time>2013-05-16T17:01:09Z</time>
      </trkpt>
      <trkpt lat="59.8691038" lon="17.8268036">
        <ele>19.3638</ele>
        <time>2013-05-16T17:01:10Z</time>
      </trkpt>
      <trkpt lat="59.869154" lon="17.8268934">
        <ele>19.8444</ele>
        <time>2013-05-16T17:01:11Z</time>
      </trkpt>
      <trkpt lat="59.8692029" lon="17.8269766">
        <ele>19.8444</ele>
        <time>2013-05-16T17:01:12Z</time>
      </trkpt>
      <trkpt lat="59.8692542" lon="17.8270613">
        <ele>20.8057</ele>
        <time>2013-05-16T17:01:13Z</time>
      </trkpt>
      <trkpt lat="59.8693034" lon="17.8271467">
        <ele>20.8057</ele>
        <time>2013-05-16T17:01:14Z</time>
      </trkpt>
      <trkpt lat="59.8693495" lon="17.827229">
        <ele>20.325</ele>
        <time>2013-05-16T17:01:15Z</time>
      </trkpt>
      <trkpt lat="59.8693959" lon="17.8273145">
        <ele>20.8057</ele>
        <time>2013-05-16T17:01:16Z</time>
      </trkpt>
      <trkpt lat="59.8694494" lon="17.8274039">
        <ele>20.325</ele>
        <time>2013-05-16T17:01:17Z</time>
      </trkpt>
      <trkpt lat="59.8694977" lon="17.8275015">
        <ele>20.8057</ele>
        <time>2013-05-16T17:01:18Z</time>
      </trkpt>
      <trkpt lat="59.8695458" lon="17.8275967">
        <ele>21.2864</ele>
        <time>2013-05-16T17:01:19Z</time>
      </trkpt>
      <trkpt lat="59.8695939" lon="17.827689">
        <ele>21.767</ele>
        <time>2013-05-16T17:01:20Z</time>
      </trkpt>
      <trkpt lat="59.8696449" lon="17.827775">
        <ele>22.2476</ele>
        <time>2013-05-16T17:01:21Z</time>
      </trkpt>
      <trkpt lat="59.8696971" lon="17.8278666">
        <ele>21.767</ele>
        <time>2013-05-16T17:01:22Z</time>
      </trkpt>
      <trkpt lat="59.8697518" lon="17.8279716">
        <ele>21.2864</ele>
        <time>2013-05-16T17:01:23Z</time>
      </trkpt>
      <trkpt lat="59.8698101" lon="17.8280691">
        <ele>21.2864</ele>
        <time>2013-05-16T17:01:24Z</time>
      </trkpt>
      <trkpt lat="59.8698707" lon="17.8281479">
        <ele>21.2864</ele>
        <time>2013-05-16T17:01:25Z</time>
      </trkpt>
      <trkpt lat="59.8699326" lon="17.8282215">
        <ele>21.2864</ele>
        <time>2013-05-16T17:01:26Z</time>
      </trkpt>
      <trkpt lat="59.869997" lon="17.8282973">
        <ele>21.2864</ele>
        <time>2013-05-16T17:01:27Z</time>
      </trkpt>
      <trkpt lat="59.8700637" lon="17.8283736">
        <ele>21.2864</ele>
        <time>2013-05-16T17:01:28Z</time>
      </trkpt>
      <trkpt lat="59.8701294" lon="17.8284407">
        <ele>21.2864</ele>
        <time>2013-05-16T17:01:29Z</time>
      </trkpt>
      <trkpt lat="59.8701966" lon="17.8285063">
        <ele>20.8057</ele>
        <time>2013-05-16T17:01:30Z</time>
      </trkpt>
      <trkpt lat="59.8702674" lon="17.8285717">
        <ele>20.8057</ele>
        <time>2013-05-16T17:01:31Z</time>
      </trkpt>
      <trkpt lat="59.87034" lon="17.8286364">
        <ele>21.2864</ele>
        <time>2013-05-16T17:01:32Z</time>
      </trkpt>
      <trkpt lat="59.8704131" lon="17.8287043">
        <ele>21.2864</ele>
        <time>2013-05-16T17:01:33Z</time>
      </trkpt>
      <trkpt lat="59.8704871" lon="17.8287758">
        <ele>21.2864</ele>
        <time>2013-05-16T17:01:34Z</time>
      </trkpt>
      <trkpt lat="59.8705605" lon="17.8288483">
        <ele>21.2864</ele>
        <time>2013-05-16T17:01:35Z</time>
      </trkpt>
      <trkpt lat="59.870634" lon="17.8289193">
        <ele>21.2864</ele>
        <time>2013-05-16T17:01:36Z</time>
      </trkpt>
      <trkpt lat="59.8707068" lon="17.8289867">
        <ele>21.2864</ele>
        <time>2013-05-16T17:01:37Z</time>
      </trkpt>
      <trkpt lat="59.8707796" lon="17.8290534">
        <ele>21.767</ele>
        <time>2013-05-16T17:01:38Z</time>
      </trkpt>
      <trkpt lat="59.8708517" lon="17.8291206">
        <ele>21.767</ele>
        <time>2013-05-16T17:01:39Z</time>
      </trkpt>
      <trkpt lat="59.8709231" lon="17.8291882">
        <ele>21.2864</ele>
        <time>2013-05-16T17:01:40Z</time>
      </trkpt>
      <trkpt lat="59.8709932" lon="17.8292566">
        <ele>21.2864</ele>
        <time>2013-05-16T17:01:41Z</time>
      </trkpt>
      <trkpt lat="59.8710616" lon="17.8293237">
        <ele>21.2864</ele>
        <time>2013-05-16T17:01:42Z</time>
      </trkpt>
      <trkpt lat="59.8711298" lon="17.8293876">
        <ele>21.2864</ele>
        <time>2013-05-16T17:01:43Z</time>
      </trkpt>
      <trkpt lat="59.8711973" lon="17.8294478">
        <ele>21.2864</ele>
        <time>2013-05-16T17:01:44Z</time>
      </trkpt>
      <trkpt lat="59.8712631" lon="17.8295036">
        <ele>21.2864</ele>
        <time>2013-05-16T17:01:45Z</time>
      </trkpt>
      <trkpt lat="59.8713273" lon="17.8295626">
        <ele>20.8057</ele>
        <time>2013-05-16T17:01:46Z</time>
      </trkpt>
      <trkpt lat="59.8713905" lon="17.8296238">
        <ele>20.325</ele>
        <time>2013-05-16T17:01:47Z</time>
      </trkpt>
      <trkpt lat="59.8714547" lon="17.8296875">
        <ele>20.8057</ele>
        <time>2013-05-16T17:01:48Z</time>
      </trkpt>
      <trkpt lat="59.8715185" lon="17.8297489">
        <ele>20.325</ele>
        <time>2013-05-16T17:01:49Z</time>
      </trkpt>
      <trkpt lat="59.8715824" lon="17.8298065">
        <ele>20.325</ele>
        <time>2013-05-16T17:01:50Z</time>
      </trkpt>
      <trkpt lat="59.8716449" lon="17.8298622">
        <ele>20.325</ele>
        <time>2013-05-16T17:01:51Z</time>
      </trkpt>
      <trkpt lat="59.8717045" lon="17.8299176">
        <ele>20.325</ele>
        <time>2013-05-16T17:01:52Z</time>
      </trkpt>
      <trkpt lat="59.8717624" lon="17.8299714">
        <ele>20.325</ele>
        <time>2013-05-16T17:01:53Z</time>
      </trkpt>
      <trkpt lat="59.8718189" lon="17.8300237">
        <ele>19.8444</ele>
        <time>2013-05-16T17:01:54Z</time>
      </trkpt>
      <trkpt lat="59.8718723" lon="17.8300733">
        <ele>20.325</ele>
        <time>2013-05-16T17:01:55Z</time>
      </trkpt>
      <trkpt lat="59.8719245" lon="17.8301212">
        <ele>20.325</ele>
        <time>2013-05-16T17:01:56Z</time>
      </trkpt>
      <trkpt lat="59.8719758" lon="17.8301677">
        <ele>20.325</ele>
        <time>2013-05-16T17:01:57Z</time>
      </trkpt>
      <trkpt lat="59.8720267" lon="17.8302152">
        <ele>20.325</ele>
        <time>2013-05-16T17:01:58Z</time>
      </trkpt>
      <trkpt lat="59.8720762" lon="17.830262">
        <ele>20.325</ele>
        <time>2013-05-16T17:01:59Z</time>
      </trkpt>
      <trkpt lat="59.8721255" lon="17.8303055">
        <ele>20.325</ele>
        <time>2013-05-16T17:02:00Z</time>
      </trkpt>
      <trkpt lat="59.8721726" lon="17.8303516">
        <ele>20.325</ele>
        <time>2013-05-16T17:02:01Z</time>
      </trkpt>
      <trkpt lat="59.8722219" lon="17.8303977">
        <ele>20.325</ele>
        <time>2013-05-16T17:02:02Z</time>
      </trkpt>
      <trkpt lat="59.872272" lon="17.8304443">
        <ele>20.8057</ele>
        <time>2013-05-16T17:02:03Z</time>
      </trkpt>
      <trkpt lat="59.8723198" lon="17.8304816">
        <ele>20.325</ele>
        <time>2013-05-16T17:02:04Z</time>
      </trkpt>
      <trkpt lat="59.8723689" lon="17.8305188">
        <ele>18.8831</ele>
        <time>2013-05-16T17:02:05Z</time>
      </trkpt>
      <trkpt lat="59.872418" lon="17.8305547">
        <ele>19.3638</ele>
        <time>2013-05-16T17:02:06Z</time>
      </trkpt>
      <trkpt lat="59.8724669" lon="17.8305857">
        <ele>18.8831</ele>
        <time>2013-05-16T17:02:07Z</time>
      </trkpt>
      <trkpt lat="59.8725081" lon="17.8306057">
        <ele>17.9218</ele>
        <time>2013-05-16T17:02:08Z</time>
      </trkpt>
      <trkpt lat="59.8725488" lon="17.8306223">
        <ele>16.9604</ele>
        <time>2013-05-16T17:02:09Z</time>
      </trkpt>
      <trkpt lat="59.8725897" lon="17.8306432">
        <ele>16.4797</ele>
        <time>2013-05-16T17:02:10Z</time>
      </trkpt>
      <trkpt lat="59.8726322" lon="17.8306642">
        <ele>15.999</ele>
        <time>2013-05-16T17:02:11Z</time>
      </trkpt>
      <trkpt lat="59.872678" lon="17.830679">
        <ele>16.4797</ele>
        <time>2013-05-16T17:02:12Z</time>
      </trkpt>
      <trkpt lat="59.8727218" lon="17.8306944">
        <ele>17.4412</ele>
        <time>2013-05-16T17:02:13Z</time>
      </trkpt>
      <trkpt lat="59.8727631" lon="17.8307142">
        <ele>17.9218</ele>
        <time>2013-05-16T17:02:14Z</time>
      </trkpt>
      <trkpt lat="59.8728044" lon="17.8307316">
        <ele>17.4412</ele>
        <time>2013-05-16T17:02:15Z</time>
      </trkpt>
      <trkpt lat="59.8728486" lon="17.8307464">
        <ele>17.4412</ele>
        <time>2013-05-16T17:02:16Z</time>
      </trkpt>
      <trkpt lat="59.8728912" lon="17.8307611">
        <ele>17.9218</ele>
        <time>2013-05-16T17:02:17Z</time>
      </trkpt>
      <trkpt lat="59.8729304" lon="17.8307809">
        <ele>17.4412</ele>
        <time>2013-05-16T17:02:18Z</time>
      </trkpt>
      <trkpt lat="59.8729679" lon="17.8308079">
        <ele>16.9604</ele>
        <time>2013-05-16T17:02:19Z</time>
      </trkpt>
      <trkpt lat="59.8730106" lon="17.8308338">
        <ele>15.999</ele>
        <time>2013-05-16T17:02:20Z</time>
      </trkpt>
      <trkpt lat="59.8730549" lon="17.8308604">
        <ele>15.5184</ele>
        <time>2013-05-16T17:02:21Z</time>
      </trkpt>
      <trkpt lat="59.8730974" lon="17.8308899">
        <ele>13.5958</ele>
        <time>2013-05-16T17:02:22Z</time>
      </trkpt>
      <trkpt lat="59.8731424" lon="17.830926">
        <ele>13.1151</ele>
        <time>2013-05-16T17:02:23Z</time>
      </trkpt>
      <trkpt lat="59.8731896" lon="17.8309649">
        <ele>13.1151</ele>
        <time>2013-05-16T17:02:24Z</time>
      </trkpt>
      <trkpt lat="59.8732396" lon="17.8310066">
        <ele>14.0764</ele>
        <time>2013-05-16T17:02:25Z</time>
      </trkpt>
      <trkpt lat="59.8732847" lon="17.8310468">
        <ele>14.0764</ele>
        <time>2013-05-16T17:02:26Z</time>
      </trkpt>
      <trkpt lat="59.8733289" lon="17.8310871">
        <ele>13.5958</ele>
        <time>2013-05-16T17:02:27Z</time>
      </trkpt>
      <trkpt lat="59.8733773" lon="17.8311326">
        <ele>15.999</ele>
        <time>2013-05-16T17:02:28Z</time>
      </trkpt>
      <trkpt lat="59.8734193" lon="17.8311703">
        <ele>15.5184</ele>
        <time>2013-05-16T17:02:29Z</time>
      </trkpt>
      <trkpt lat="59.8734651" lon="17.8312083">
        <ele>15.999</ele>
        <time>2013-05-16T17:02:30Z</time>
      </trkpt>
      <trkpt lat="59.8735126" lon="17.8312493">
        <ele>16.4797</ele>
        <time>2013-05-16T17:02:31Z</time>
      </trkpt>
      <trkpt lat="59.8735563" lon="17.831282">
        <ele>16.9604</ele>
        <time>2013-05-16T17:02:32Z</time>
      </trkpt>
      <trkpt lat="59.8735954" lon="17.8313135">
        <ele>17.9218</ele>
        <time>2013-05-16T17:02:33Z</time>
      </trkpt>
      <trkpt lat="59.8736319" lon="17.8313496">
        <ele>18.4023</ele>
        <time>2013-05-16T17:02:34Z</time>
      </trkpt>
      <trkpt lat="59.8736635" lon="17.831385">
        <ele>18.8831</ele>
        <time>2013-05-16T17:02:35Z</time>
      </trkpt>
      <trkpt lat="59.8736955" lon="17.8314301">
        <ele>19.3638</ele>
        <time>2013-05-16T17:02:36Z</time>
      </trkpt>
      <trkpt lat="59.8737281" lon="17.8314767">
        <ele>19.8444</ele>
        <time>2013-05-16T17:02:37Z</time>
      </trkpt>
      <trkpt lat="59.873762" lon="17.8315217">
        <ele>20.325</ele>
        <time>2013-05-16T17:02:38Z</time>
      </trkpt>
      <trkpt lat="59.8737992" lon="17.8315672">
        <ele>21.2864</ele>
        <time>2013-05-16T17:02:39Z</time>
      </trkpt>
      <trkpt lat="59.8738353" lon="17.831616">
        <ele>23.209</ele>
        <time>2013-05-16T17:02:40Z</time>
      </trkpt>
      <trkpt lat="59.8738691" lon="17.8316514">
        <ele>24.1703</ele>
        <time>2013-05-16T17:02:41Z</time>
      </trkpt>
      <trkpt lat="59.873907" lon="17.8316933">
        <ele>25.1317</ele>
        <time>2013-05-16T17:02:42Z</time>
      </trkpt>
      <trkpt lat="59.873944" lon="17.8317341">
        <ele>26.0929</ele>
        <time>2013-05-16T17:02:43Z</time>
      </trkpt>
      <trkpt lat="59.8739779" lon="17.8317757">
        <ele>27.0543</ele>
        <time>2013-05-16T17:02:44Z</time>
      </trkpt>
      <trkpt lat="59.8740209" lon="17.831837">
        <ele>25.1317</ele>
        <time>2013-05-16T17:02:45Z</time>
      </trkpt>
      <trkpt lat="59.8740656" lon="17.8319122">
        <ele>26.5736</ele>
        <time>2013-05-16T17:02:46Z</time>
      </trkpt>
      <trkpt lat="59.874106" lon="17.8319735">
        <ele>27.5349</ele>
        <time>2013-05-16T17:02:47Z</time>
      </trkpt>
      <trkpt lat="59.8741458" lon="17.8320274">
        <ele>28.9769</ele>
        <time>2013-05-16T17:02:48Z</time>
      </trkpt>
      <trkpt lat="59.8741888" lon="17.8320801">
        <ele>30.4188</ele>
        <time>2013-05-16T17:02:49Z</time>
      </trkpt>
      <trkpt lat="59.8742378" lon="17.8321361">
        <ele>32.3416</ele>
        <time>2013-05-16T17:02:50Z</time>
      </trkpt>
      <trkpt lat="59.874282" lon="17.8321932">
        <ele>32.3416</ele>
        <time>2013-05-16T17:02:51Z</time>
      </trkpt>
      <trkpt lat="59.8743287" lon="17.8322405">
        <ele>29.9381</ele>
        <time>2013-05-16T17:02:52Z</time>
      </trkpt>
      <trkpt lat="59.8743758" lon="17.8322844">
        <ele>27.5349</ele>
        <time>2013-05-16T17:02:53Z</time>
      </trkpt>
      <trkpt lat="59.8744301" lon="17.8323261">
        <ele>24.1703</ele>
        <time>2013-05-16T17:02:54Z</time>
      </trkpt>
      <trkpt lat="59.8744812" lon="17.8323597">
        <ele>21.2864</ele>
        <time>2013-05-16T17:02:55Z</time>
      </trkpt>
      <trkpt lat="59.8745361" lon="17.8323986">
        <ele>20.8057</ele>
        <time>2013-05-16T17:02:56Z</time>
      </trkpt>
      <trkpt lat="59.8745954" lon="17.8324255">
        <ele>18.8831</ele>
        <time>2013-05-16T17:02:57Z</time>
      </trkpt>
      <trkpt lat="59.8746648" lon="17.8324503">
        <ele>19.3638</ele>
        <time>2013-05-16T17:02:58Z</time>
      </trkpt>
      <trkpt lat="59.8747369" lon="17.8324595">
        <ele>17.4412</ele>
        <time>2013-05-16T17:02:59Z</time>
      </trkpt>
      <trkpt lat="59.8748073" lon="17.8324701">
        <ele>15.0377</ele>
        <time>2013-05-16T17:03:00Z</time>
      </trkpt>
      <trkpt lat="59.8748759" lon="17.8324908">
        <ele>15.0377</ele>
        <time>2013-05-16T17:03:01Z</time>
      </trkpt>
      <trkpt lat="59.8749378" lon="17.8325158">
        <ele>14.0764</ele>
        <time>2013-05-16T17:03:02Z</time>
      </trkpt>
      <trkpt lat="59.8750005" lon="17.8325381">
        <ele>14.0764</ele>
        <time>2013-05-16T17:03:03Z</time>
      </trkpt>
      <trkpt lat="59.8750677" lon="17.8325557">
        <ele>13.5958</ele>
        <time>2013-05-16T17:03:04Z</time>
      </trkpt>
      <trkpt lat="59.875137" lon="17.8325728">
        <ele>13.5958</ele>
        <time>2013-05-16T17:03:05Z</time>
      </trkpt>
      <trkpt lat="59.875209" lon="17.8325909">
        <ele>13.1151</ele>
        <time>2013-05-16T17:03:06Z</time>
      </trkpt>
      <trkpt lat="59.8752828" lon="17.8326095">
        <ele>13.5958</ele>
        <time>2013-05-16T17:03:07Z</time>
      </trkpt>
      <trkpt lat="59.8753522" lon="17.8326355">
        <ele>12.1538</ele>
        <time>2013-05-16T17:03:08Z</time>
      </trkpt>
      <trkpt lat="59.8754224" lon="17.832662">
        <ele>10.7118</ele>
        <time>2013-05-16T17:03:09Z</time>
      </trkpt>
      <trkpt lat="59.8754935" lon="17.832706">
        <ele>11.1925</ele>
        <time>2013-05-16T17:03:10Z</time>
      </trkpt>
      <trkpt lat="59.875559" lon="17.8327561">
        <ele>12.6344</ele>
        <time>2013-05-16T17:03:11Z</time>
      </trkpt>
      <trkpt lat="59.8756299" lon="17.8327904">
        <ele>12.1538</ele>
        <time>2013-05-16T17:03:12Z</time>
      </trkpt>
      <trkpt lat="59.875689" lon="17.8328411">
        <ele>13.1151</ele>
        <time>2013-05-16T17:03:13Z</time>
      </trkpt>
      <trkpt lat="59.8757484" lon="17.8328946">
        <ele>13.5958</ele>
        <time>2013-05-16T17:03:14Z</time>
      </trkpt>
      <trkpt lat="59.8758096" lon="17.8329427">
        <ele>12.6344</ele>
        <time>2013-05-16T17:03:15Z</time>
      </trkpt>
      <trkpt lat="59.8758706" lon="17.8330016">
        <ele>12.6344</ele>
        <time>2013-05-16T17:03:16Z</time>
      </trkpt>
      <trkpt lat="59.8759344" lon="17.8330593">
        <ele>12.1538</ele>
        <time>2013-05-16T17:03:17Z</time>
      </trkpt>
      <trkpt lat="59.8760033" lon="17.8331041">
        <ele>11.6732</ele>
        <time>2013-05-16T17:03:18Z</time>
      </trkpt>
      <trkpt lat="59.8760739" lon="17.8331332">
        <ele>9.75061</ele>
        <time>2013-05-16T17:03:19Z</time>
      </trkpt>
      <trkpt lat="59.8761422" lon="17.8331789">
        <ele>8.30859</ele>
        <time>2013-05-16T17:03:20Z</time>
      </trkpt>
      <trkpt lat="59.8762049" lon="17.8332118">
        <ele>8.78918</ele>
        <time>2013-05-16T17:03:21Z</time>
      </trkpt>
      <trkpt lat="59.8762669" lon="17.8332607">
        <ele>9.75061</ele>
        <time>2013-05-16T17:03:22Z</time>
      </trkpt>
      <trkpt lat="59.8763148" lon="17.8333126">
        <ele>11.1925</ele>
        <time>2013-05-16T17:03:23Z</time>
      </trkpt>
      <trkpt lat="59.8763614" lon="17.8333659">
        <ele>12.1538</ele>
        <time>2013-05-16T17:03:24Z</time>
      </trkpt>
      <trkpt lat="59.8764153" lon="17.833411">
        <ele>12.6344</ele>
        <time>2013-05-16T17:03:25Z</time>
      </trkpt>
      <trkpt lat="59.8764685" lon="17.8334551">
        <ele>13.1151</ele>
        <time>2013-05-16T17:03:26Z</time>
      </trkpt>
      <trkpt lat="59.8765217" lon="17.8334928">
        <ele>13.5958</ele>
        <time>2013-05-16T17:03:27Z</time>
      </trkpt>
      <trkpt lat="59.8765705" lon="17.833528">
        <ele>13.5958</ele>
        <time>2013-05-16T17:03:28Z</time>
      </trkpt>
      <trkpt lat="59.8766297" lon="17.8335643">
        <ele>13.1151</ele>
        <time>2013-05-16T17:03:29Z</time>
      </trkpt>
      <trkpt lat="59.8766882" lon="17.8336073">
        <ele>14.557</ele>
        <time>2013-05-16T17:03:30Z</time>
      </trkpt>
      <trkpt lat="59.8767457" lon="17.8336523">
        <ele>15.0377</ele>
        <time>2013-05-16T17:03:31Z</time>
      </trkpt>
      <trkpt lat="59.8768045" lon="17.8337093">
        <ele>16.4797</ele>
        <time>2013-05-16T17:03:32Z</time>
      </trkpt>
      <trkpt lat="59.8768762" lon="17.8337601">
        <ele>17.9218</ele>
        <time>2013-05-16T17:03:33Z</time>
      </trkpt>
      <trkpt lat="59.8769497" lon="17.8338093">
        <ele>19.3638</ele>
        <time>2013-05-16T17:03:34Z</time>
      </trkpt>
      <trkpt lat="59.877021" lon="17.8338683">
        <ele>20.8057</ele>
        <time>2013-05-16T17:03:35Z</time>
      </trkpt>
      <trkpt lat="59.8770908" lon="17.8339305">
        <ele>21.767</ele>
        <time>2013-05-16T17:03:36Z</time>
      </trkpt>
      <trkpt lat="59.8771605" lon="17.8339954">
        <ele>21.2864</ele>
        <time>2013-05-16T17:03:37Z</time>
      </trkpt>
      <trkpt lat="59.8772236" lon="17.8340723">
        <ele>20.8057</ele>
        <time>2013-05-16T17:03:38Z</time>
      </trkpt>
      <trkpt lat="59.877284" lon="17.8341522">
        <ele>20.325</ele>
        <time>2013-05-16T17:03:39Z</time>
      </trkpt>
      <trkpt lat="59.8773429" lon="17.834235">
        <ele>20.8057</ele>
        <time>2013-05-16T17:03:40Z</time>
      </trkpt>
      <trkpt lat="59.8774014" lon="17.8343176">
        <ele>20.325</ele>
        <time>2013-05-16T17:03:41Z</time>
      </trkpt>
      <trkpt lat="59.8774614" lon="17.8343945">
        <ele>20.325</ele>
        <time>2013-05-16T17:03:42Z</time>
      </trkpt>
      <trkpt lat="59.877519" lon="17.8344749">
        <ele>20.325</ele>
        <time>2013-05-16T17:03:43Z</time>
      </trkpt>
      <trkpt lat="59.8775743" lon="17.8345506">
        <ele>20.325</ele>
        <time>2013-05-16T17:03:44Z</time>
      </trkpt>
      <trkpt lat="59.8776273" lon="17.8346227">
        <ele>20.325</ele>
        <time>2013-05-16T17:03:45Z</time>
      </trkpt>
      <trkpt lat="59.8776817" lon="17.8346946">
        <ele>20.325</ele>
        <time>2013-05-16T17:03:46Z</time>
      </trkpt>
      <trkpt lat="59.8777387" lon="17.8347754">
        <ele>21.2864</ele>
        <time>2013-05-16T17:03:47Z</time>
      </trkpt>
      <trkpt lat="59.8777968" lon="17.8348458">
        <ele>22.2476</ele>
        <time>2013-05-16T17:03:48Z</time>
      </trkpt>
      <trkpt lat="59.8778589" lon="17.8349219">
        <ele>23.209</ele>
        <time>2013-05-16T17:03:49Z</time>
      </trkpt>
      <trkpt lat="59.8779261" lon="17.8349948">
        <ele>25.1317</ele>
        <time>2013-05-16T17:03:50Z</time>
      </trkpt>
      <trkpt lat="59.8779961" lon="17.8350691">
        <ele>26.5736</ele>
        <time>2013-05-16T17:03:51Z</time>
      </trkpt>
      <trkpt lat="59.8780674" lon="17.8351425">
        <ele>26.5736</ele>
        <time>2013-05-16T17:03:52Z</time>
      </trkpt>
      <trkpt lat="59.8781397" lon="17.8352044">
        <ele>26.0929</ele>
        <time>2013-05-16T17:03:53Z</time>
      </trkpt>
      <trkpt lat="59.8782111" lon="17.8352639">
        <ele>24.651</ele>
        <time>2013-05-16T17:03:54Z</time>
      </trkpt>
      <trkpt lat="59.878271" lon="17.8353089">
        <ele>21.767</ele>
        <time>2013-05-16T17:03:55Z</time>
      </trkpt>
      <trkpt lat="59.8783296" lon="17.8353664">
        <ele>19.3638</ele>
        <time>2013-05-16T17:03:56Z</time>
      </trkpt>
      <trkpt lat="59.878387" lon="17.835429">
        <ele>19.3638</ele>
        <time>2013-05-16T17:03:57Z</time>
      </trkpt>
      <trkpt lat="59.8784367" lon="17.8354966">
        <ele>16.9604</ele>
        <time>2013-05-16T17:03:58Z</time>
      </trkpt>
      <trkpt lat="59.8784873" lon="17.8355613">
        <ele>14.0764</ele>
        <time>2013-05-16T17:03:59Z</time>
      </trkpt>
      <trkpt lat="59.8785419" lon="17.8356232">
        <ele>12.6344</ele>
        <time>2013-05-16T17:04:00Z</time>
      </trkpt>
      <trkpt lat="59.8785937" lon="17.8356818">
        <ele>10.7118</ele>
        <time>2013-05-16T17:04:01Z</time>
      </trkpt>
      <trkpt lat="59.8786545" lon="17.8357395">
        <ele>10.2312</ele>
        <time>2013-05-16T17:04:02Z</time>
      </trkpt>
      <trkpt lat="59.8787089" lon="17.8357865">
        <ele>8.78918</ele>
        <time>2013-05-16T17:04:03Z</time>
      </trkpt>
      <trkpt lat="59.8787663" lon="17.83582">
        <ele>8.30859</ele>
        <time>2013-05-16T17:04:04Z</time>
      </trkpt>
      <trkpt lat="59.8788253" lon="17.8358497">
        <ele>7.82788</ele>
        <time>2013-05-16T17:04:05Z</time>
      </trkpt>
      <trkpt lat="59.8788893" lon="17.8358715">
        <ele>6.86646</ele>
        <time>2013-05-16T17:04:06Z</time>
      </trkpt>
      <trkpt lat="59.8789596" lon="17.835882">
        <ele>8.30859</ele>
        <time>2013-05-16T17:04:07Z</time>
      </trkpt>
      <trkpt lat="59.8790281" lon="17.8358996">
        <ele>8.78918</ele>
        <time>2013-05-16T17:04:08Z</time>
      </trkpt>
      <trkpt lat="59.8791035" lon="17.835904">
        <ele>9.2699</ele>
        <time>2013-05-16T17:04:09Z</time>
      </trkpt>
      <trkpt lat="59.8791757" lon="17.8359019">
        <ele>10.2312</ele>
        <time>2013-05-16T17:04:10Z</time>
      </trkpt>
      <trkpt lat="59.879249" lon="17.8358901">
        <ele>10.7118</ele>
        <time>2013-05-16T17:04:11Z</time>
      </trkpt>
      <trkpt lat="59.8793244" lon="17.8358873">
        <ele>10.2312</ele>
        <time>2013-05-16T17:04:12Z</time>
      </trkpt>
      <trkpt lat="59.8793936" lon="17.8358804">
        <ele>8.30859</ele>
        <time>2013-05-16T17:04:13Z</time>
      </trkpt>
      <trkpt lat="59.8794677" lon="17.8358689">
        <ele>7.34717</ele>
        <time>2013-05-16T17:04:14Z</time>
      </trkpt>
      <trkpt lat="59.879546" lon="17.8358609">
        <ele>8.30859</ele>
        <time>2013-05-16T17:04:15Z</time>
      </trkpt>
      <trkpt lat="59.8796118" lon="17.835871">
        <ele>8.30859</ele>
        <time>2013-05-16T17:04:16Z</time>
      </trkpt>
      <trkpt lat="59.8796732" lon="17.8358791">
        <ele>7.34717</ele>
        <time>2013-05-16T17:04:17Z</time>
      </trkpt>
      <trkpt lat="59.8797483" lon="17.8358894">
        <ele>8.78918</ele>
        <time>2013-05-16T17:04:18Z</time>
      </trkpt>
      <trkpt lat="59.8798247" lon="17.8359143">
        <ele>8.30859</ele>
        <time>2013-05-16T17:04:19Z</time>
      </trkpt>
      <trkpt lat="59.8799098" lon="17.8359633">
        <ele>9.2699</ele>
        <time>2013-05-16T17:04:20Z</time>
      </trkpt>
      <trkpt lat="59.8799963" lon="17.836026">
        <ele>11.6732</ele>
        <time>2013-05-16T17:04:21Z</time>
      </trkpt>
      <trkpt lat="59.8800733" lon="17.8360969">
        <ele>13.1151</ele>
        <time>2013-05-16T17:04:22Z</time>
      </trkpt>
      <trkpt lat="59.880146" lon="17.836166">
        <ele>14.557</ele>
        <time>2013-05-16T17:04:23Z</time>
      </trkpt>
      <trkpt lat="59.8802236" lon="17.8362358">
        <ele>15.5184</ele>
        <time>2013-05-16T17:04:24Z</time>
      </trkpt>
      <trkpt lat="59.8802961" lon="17.8363123">
        <ele>14.557</ele>
        <time>2013-05-16T17:04:25Z</time>
      </trkpt>
      <trkpt lat="59.8803698" lon="17.8363888">
        <ele>15.0377</ele>
        <time>2013-05-16T17:04:26Z</time>
      </trkpt>
      <trkpt lat="59.8804401" lon="17.8364587">
        <ele>15.999</ele>
        <time>2013-05-16T17:04:27Z</time>
      </trkpt>
      <trkpt lat="59.8805054" lon="17.8365361">
        <ele>17.9218</ele>
        <time>2013-05-16T17:04:28Z</time>
      </trkpt>
      <trkpt lat="59.8805684" lon="17.83662">
        <ele>19.8444</ele>
        <time>2013-05-16T17:04:29Z</time>
      </trkpt>
      <trkpt lat="59.8806323" lon="17.8367024">
        <ele>19.8444</ele>
        <time>2013-05-16T17:04:30Z</time>
      </trkpt>
      <trkpt lat="59.8807" lon="17.8367889">
        <ele>20.8057</ele>
        <time>2013-05-16T17:04:31Z</time>
      </trkpt>
      <trkpt lat="59.8807576" lon="17.8368805">
        <ele>21.2864</ele>
        <time>2013-05-16T17:04:32Z</time>
      </trkpt>
      <trkpt lat="59.8808135" lon="17.8369687">
        <ele>21.767</ele>
        <time>2013-05-16T17:04:33Z</time>
      </trkpt>
      <trkpt lat="59.8808669" lon="17.8370607">
        <ele>21.2864</ele>
        <time>2013-05-16T17:04:34Z</time>
      </trkpt>
      <trkpt lat="59.8809239" lon="17.8371577">
        <ele>22.7283</ele>
        <time>2013-05-16T17:04:35Z</time>
      </trkpt>
      <trkpt lat="59.8809817" lon="17.8372531">
        <ele>21.767</ele>
        <time>2013-05-16T17:04:36Z</time>
      </trkpt>
      <trkpt lat="59.881038" lon="17.8373369">
        <ele>20.325</ele>
        <time>2013-05-16T17:04:37Z</time>
      </trkpt>
      <trkpt lat="59.881099" lon="17.8374214">
        <ele>19.8444</ele>
        <time>2013-05-16T17:04:38Z</time>
      </trkpt>
      <trkpt lat="59.8811592" lon="17.8375172">
        <ele>19.3638</ele>
        <time>2013-05-16T17:04:39Z</time>
      </trkpt>
      <trkpt lat="59.881225" lon="17.8376133">
        <ele>19.8444</ele>
        <time>2013-05-16T17:04:40Z</time>
      </trkpt>
      <trkpt lat="59.8812886" lon="17.8376991">
        <ele>18.4023</ele>
        <time>2013-05-16T17:04:41Z</time>
      </trkpt>
      <trkpt lat="59.8813532" lon="17.8377855">
        <ele>17.4412</ele>
        <time>2013-05-16T17:04:42Z</time>
      </trkpt>
      <trkpt lat="59.881412" lon="17.837862">
        <ele>16.4797</ele>
        <time>2013-05-16T17:04:43Z</time>
      </trkpt>
      <trkpt lat="59.8814692" lon="17.8379433">
        <ele>16.9604</ele>
        <time>2013-05-16T17:04:44Z</time>
      </trkpt>
      <trkpt lat="59.8815334" lon="17.8380124">
        <ele>16.9604</ele>
        <time>2013-05-16T17:04:45Z</time>
      </trkpt>
      <trkpt lat="59.8815973" lon="17.8380813">
        <ele>15.5184</ele>
        <time>2013-05-16T17:04:46Z</time>
      </trkpt>
      <trkpt lat="59.8816503" lon="17.8381575">
        <ele>15.0377</ele>
        <time>2013-05-16T17:04:47Z</time>
      </trkpt>
      <trkpt lat="59.8817013" lon="17.8382383">
        <ele>14.0764</ele>
        <time>2013-05-16T17:04:48Z</time>
      </trkpt>
      <trkpt lat="59.8817517" lon="17.8383232">
        <ele>14.557</ele>
        <time>2013-05-16T17:04:49Z</time>
      </trkpt>
      <trkpt lat="59.8817951" lon="17.8384098">
        <ele>15.5184</ele>
        <time>2013-05-16T17:04:50Z</time>
      </trkpt>
      <trkpt lat="59.8818403" lon="17.8385066">
        <ele>16.9604</ele>
        <time>2013-05-16T17:04:51Z</time>
      </trkpt>
      <trkpt lat="59.8818885" lon="17.8385886">
        <ele>16.9604</ele>
        <time>2013-05-16T17:04:52Z</time>
      </trkpt>
      <trkpt lat="59.8819403" lon="17.8386739">
        <ele>17.9218</ele>
        <time>2013-05-16T17:04:53Z</time>
      </trkpt>
      <trkpt lat="59.8819958" lon="17.8387429">
        <ele>16.9604</ele>
        <time>2013-05-16T17:04:54Z</time>
      </trkpt>
      <trkpt lat="59.8820428" lon="17.8388086">
        <ele>17.9218</ele>
        <time>2013-05-16T17:04:55Z</time>
      </trkpt>
      <trkpt lat="59.8820972" lon="17.838866">
        <ele>17.9218</ele>
        <time>2013-05-16T17:04:56Z</time>
      </trkpt>
      <trkpt lat="59.8821559" lon="17.8389213">
        <ele>18.4023</ele>
        <time>2013-05-16T17:04:57Z</time>
      </trkpt>
      <trkpt lat="59.8822185" lon="17.8389646">
        <ele>16.9604</ele>
        <time>2013-05-16T17:04:58Z</time>
      </trkpt>
      <trkpt lat="59.8822872" lon="17.8389915">
        <ele>15.999</ele>
        <time>2013-05-16T17:04:59Z</time>
      </trkpt>
      <trkpt lat="59.882351" lon="17.8390104">
        <ele>14.557</ele>
        <time>2013-05-16T17:05:00Z</time>
      </trkpt>
      <trkpt lat="59.8824147" lon="17.8390208">
        <ele>13.5958</ele>
        <time>2013-05-16T17:05:01Z</time>
      </trkpt>
      <trkpt lat="59.8824708" lon="17.8390355">
        <ele>13.5958</ele>
        <time>2013-05-16T17:05:02Z</time>
      </trkpt>
      <trkpt lat="59.8825297" lon="17.8390524">
        <ele>12.1538</ele>
        <time>2013-05-16T17:05:03Z</time>
      </trkpt>
      <trkpt lat="59.8825819" lon="17.8390655">
        <ele>11.1925</ele>
        <time>2013-05-16T17:05:04Z</time>
      </trkpt>
      <trkpt lat="59.8826267" lon="17.8390827">
        <ele>12.1538</ele>
        <time>2013-05-16T17:05:05Z</time>
      </trkpt>
      <trkpt lat="59.8826701" lon="17.8390997">
        <ele>13.5958</ele>
        <time>2013-05-16T17:05:06Z</time>
      </trkpt>
      <trkpt lat="59.882716" lon="17.8391111">
        <ele>14.557</ele>
        <time>2013-05-16T17:05:07Z</time>
      </trkpt>
      <trkpt lat="59.882753" lon="17.8391363">
        <ele>16.9604</ele>
        <time>2013-05-16T17:05:08Z</time>
      </trkpt>
      <trkpt lat="59.8827894" lon="17.8391634">
        <ele>17.4412</ele>
        <time>2013-05-16T17:05:09Z</time>
      </trkpt>
      <trkpt lat="59.8828271" lon="17.8391965">
        <ele>18.4023</ele>
        <time>2013-05-16T17:05:10Z</time>
      </trkpt>
      <trkpt lat="59.882864" lon="17.8392264">
        <ele>17.9218</ele>
        <time>2013-05-16T17:05:11Z</time>
      </trkpt>
      <trkpt lat="59.8829002" lon="17.8392696">
        <ele>18.8831</ele>
        <time>2013-05-16T17:05:12Z</time>
      </trkpt>
      <trkpt lat="59.8829391" lon="17.8393226">
        <ele>20.325</ele>
        <time>2013-05-16T17:05:13Z</time>
      </trkpt>
      <trkpt lat="59.8829789" lon="17.8393955">
        <ele>23.209</ele>
        <time>2013-05-16T17:05:14Z</time>
      </trkpt>
      <trkpt lat="59.8830285" lon="17.8394622">
        <ele>25.6123</ele>
        <time>2013-05-16T17:05:15Z</time>
      </trkpt>
      <trkpt lat="59.883082" lon="17.8395292">
        <ele>27.0543</ele>
        <time>2013-05-16T17:05:16Z</time>
      </trkpt>
      <trkpt lat="59.8831367" lon="17.8396069">
        <ele>28.0155</ele>
        <time>2013-05-16T17:05:17Z</time>
      </trkpt>
      <trkpt lat="59.883199" lon="17.8396851">
        <ele>26.0929</ele>
        <time>2013-05-16T17:05:18Z</time>
      </trkpt>
      <trkpt lat="59.8832596" lon="17.8397711">
        <ele>26.5736</ele>
        <time>2013-05-16T17:05:19Z</time>
      </trkpt>
      <trkpt lat="59.8833222" lon="17.8398617">
        <ele>27.0543</ele>
        <time>2013-05-16T17:05:20Z</time>
      </trkpt>
      <trkpt lat="59.8833867" lon="17.8399575">
        <ele>28.0155</ele>
        <time>2013-05-16T17:05:21Z</time>
      </trkpt>
      <trkpt lat="59.883454" lon="17.8400504">
        <ele>28.0155</ele>
        <time>2013-05-16T17:05:22Z</time>
      </trkpt>
      <trkpt lat="59.8835228" lon="17.8401419">
        <ele>28.4962</ele>
        <time>2013-05-16T17:05:23Z</time>
      </trkpt>
      <trkpt lat="59.8835931" lon="17.8402314">
        <ele>28.4962</ele>
        <time>2013-05-16T17:05:24Z</time>
      </trkpt>
      <trkpt lat="59.8836646" lon="17.8403221">
        <ele>28.4962</ele>
        <time>2013-05-16T17:05:25Z</time>
      </trkpt>
      <trkpt lat="59.8837371" lon="17.8404117">
        <ele>28.4962</ele>
        <time>2013-05-16T17:05:26Z</time>
      </trkpt>
      <trkpt lat="59.8838099" lon="17.8405045">
        <ele>28.0155</ele>
        <time>2013-05-16T17:05:27Z</time>
      </trkpt>
      <trkpt lat="59.8838833" lon="17.8405993">
        <ele>28.4962</ele>
        <time>2013-05-16T17:05:28Z</time>
      </trkpt>
      <trkpt lat="59.8839569" lon="17.8406905">
        <ele>28.0155</ele>
        <time>2013-05-16T17:05:29Z</time>
      </trkpt>
      <trkpt lat="59.8840309" lon="17.8407822">
        <ele>28.0155</ele>
        <time>2013-05-16T17:05:30Z</time>
      </trkpt>
      <trkpt lat="59.8841055" lon="17.840876">
        <ele>28.0155</ele>
        <time>2013-05-16T17:05:31Z</time>
      </trkpt>
      <trkpt lat="59.8841758" lon="17.8409594">
        <ele>27.0543</ele>
        <time>2013-05-16T17:05:32Z</time>
      </trkpt>
      <trkpt lat="59.8842464" lon="17.8410421">
        <ele>27.0543</ele>
        <time>2013-05-16T17:05:33Z</time>
      </trkpt>
      <trkpt lat="59.8843173" lon="17.8411195">
        <ele>26.5736</ele>
        <time>2013-05-16T17:05:34Z</time>
      </trkpt>
      <trkpt lat="59.8843898" lon="17.8411965">
        <ele>26.5736</ele>
        <time>2013-05-16T17:05:35Z</time>
      </trkpt>
      <trkpt lat="59.8844633" lon="17.8412644">
        <ele>26.5736</ele>
        <time>2013-05-16T17:05:36Z</time>
      </trkpt>
      <trkpt lat="59.8845382" lon="17.8413231">
        <ele>26.0929</ele>
        <time>2013-05-16T17:05:37Z</time>
      </trkpt>
      <trkpt lat="59.8846135" lon="17.8413728">
        <ele>26.0929</ele>
        <time>2013-05-16T17:05:38Z</time>
      </trkpt>
      <trkpt lat="59.8846888" lon="17.8414174">
        <ele>26.0929</ele>
        <time>2013-05-16T17:05:39Z</time>
      </trkpt>
      <trkpt lat="59.8847665" lon="17.8414585">
        <ele>26.0929</ele>
        <time>2013-05-16T17:05:40Z</time>
      </trkpt>
      <trkpt lat="59.8848454" lon="17.8414898">
        <ele>26.0929</ele>
        <time>2013-05-16T17:05:41Z</time>
      </trkpt>
      <trkpt lat="59.8849234" lon="17.8415099">
        <ele>26.0929</ele>
        <time>2013-05-16T17:05:42Z</time>
      </trkpt>
      <trkpt lat="59.8849999" lon="17.8415197">
        <ele>26.0929</ele>
        <time>2013-05-16T17:05:43Z</time>
      </trkpt>
      <trkpt lat="59.8850763" lon="17.8415235">
        <ele>26.5736</ele>
        <time>2013-05-16T17:05:44Z</time>
      </trkpt>
      <trkpt lat="59.8851524" lon="17.8415124">
        <ele>24.651</ele>
        <time>2013-05-16T17:05:45Z</time>
      </trkpt>
      <trkpt lat="59.8852251" lon="17.8415078">
        <ele>22.7283</ele>
        <time>2013-05-16T17:05:46Z</time>
      </trkpt>
      <trkpt lat="59.8852909" lon="17.8415151">
        <ele>22.2476</ele>
        <time>2013-05-16T17:05:47Z</time>
      </trkpt>
      <trkpt lat="59.8853576" lon="17.8415124">
        <ele>20.8057</ele>
        <time>2013-05-16T17:05:48Z</time>
      </trkpt>
      <trkpt lat="59.8854226" lon="17.8415084">
        <ele>20.325</ele>
        <time>2013-05-16T17:05:49Z</time>
      </trkpt>
      <trkpt lat="59.8854875" lon="17.8415">
        <ele>17.4412</ele>
        <time>2013-05-16T17:05:50Z</time>
      </trkpt>
      <trkpt lat="59.8855543" lon="17.8414923">
        <ele>17.4412</ele>
        <time>2013-05-16T17:05:51Z</time>
      </trkpt>
      <trkpt lat="59.8856234" lon="17.8414872">
        <ele>16.9604</ele>
        <time>2013-05-16T17:05:52Z</time>
      </trkpt>
      <trkpt lat="59.8856824" lon="17.841486">
        <ele>15.999</ele>
        <time>2013-05-16T17:05:53Z</time>
      </trkpt>
      <trkpt lat="59.8857517" lon="17.8414783">
        <ele>15.999</ele>
        <time>2013-05-16T17:05:54Z</time>
      </trkpt>
      <trkpt lat="59.8858223" lon="17.8414873">
        <ele>15.999</ele>
        <time>2013-05-16T17:05:55Z</time>
      </trkpt>
      <trkpt lat="59.8858958" lon="17.8414799">
        <ele>16.9604</ele>
        <time>2013-05-16T17:05:56Z</time>
      </trkpt>
      <trkpt lat="59.8859713" lon="17.8414606">
        <ele>17.9218</ele>
        <time>2013-05-16T17:05:57Z</time>
      </trkpt>
      <trkpt lat="59.8860398" lon="17.8414478">
        <ele>18.4023</ele>
        <time>2013-05-16T17:05:58Z</time>
      </trkpt>
      <trkpt lat="59.8861097" lon="17.8414354">
        <ele>17.9218</ele>
        <time>2013-05-16T17:05:59Z</time>
      </trkpt>
      <trkpt lat="59.8861838" lon="17.8414116">
        <ele>16.9604</ele>
        <time>2013-05-16T17:06:00Z</time>
      </trkpt>
      <trkpt lat="59.8862641" lon="17.8413783">
        <ele>16.4797</ele>
        <time>2013-05-16T17:06:01Z</time>
      </trkpt>
      <trkpt lat="59.8863468" lon="17.8413483">
        <ele>15.999</ele>
        <time>2013-05-16T17:06:02Z</time>
      </trkpt>
      <trkpt lat="59.8864232" lon="17.8413078">
        <ele>15.999</ele>
        <time>2013-05-16T17:06:03Z</time>
      </trkpt>
      <trkpt lat="59.8864868" lon="17.8412781">
        <ele>15.999</ele>
        <time>2013-05-16T17:06:04Z</time>
      </trkpt>
      <trkpt lat="59.8865505" lon="17.8412588">
        <ele>15.999</ele>
        <time>2013-05-16T17:06:05Z</time>
      </trkpt>
      <trkpt lat="59.8866251" lon="17.8412226">
        <ele>15.999</ele>
        <time>2013-05-16T17:06:06Z</time>
      </trkpt>
      <trkpt lat="59.8866838" lon="17.8411889">
        <ele>13.1151</ele>
        <time>2013-05-16T17:06:07Z</time>
      </trkpt>
      <trkpt lat="59.8867448" lon="17.8411531">
        <ele>10.7118</ele>
        <time>2013-05-16T17:06:08Z</time>
      </trkpt>
      <trkpt lat="59.8868128" lon="17.8411428">
        <ele>10.2312</ele>
        <time>2013-05-16T17:06:09Z</time>
      </trkpt>
      <trkpt lat="59.886865" lon="17.8411687">
        <ele>7.82788</ele>
        <time>2013-05-16T17:06:10Z</time>
      </trkpt>
      <trkpt lat="59.886923" lon="17.8412023">
        <ele>4.94385</ele>
        <time>2013-05-16T17:06:11Z</time>
      </trkpt>
      <trkpt lat="59.8869871" lon="17.8412389">
        <ele>2.54065</ele>
        <time>2013-05-16T17:06:12Z</time>
      </trkpt>
      <trkpt lat="59.8870466" lon="17.8412862">
        <ele>0.618042</ele>
        <time>2013-05-16T17:06:13Z</time>
      </trkpt>
      <trkpt lat="59.8871069" lon="17.8413503">
        <ele>0.618042</ele>
        <time>2013-05-16T17:06:14Z</time>
      </trkpt>
      <trkpt lat="59.8871715" lon="17.8414204">
        <ele>2.54065</ele>
        <time>2013-05-16T17:06:15Z</time>
      </trkpt>
      <trkpt lat="59.8872317" lon="17.8415002">
        <ele>4.46326</ele>
        <time>2013-05-16T17:06:16Z</time>
      </trkpt>
      <trkpt lat="59.887283" lon="17.8415955">
        <ele>5.90527</ele>
        <time>2013-05-16T17:06:17Z</time>
      </trkpt>
      <trkpt lat="59.8873286" lon="17.8416989">
        <ele>5.90527</ele>
        <time>2013-05-16T17:06:18Z</time>
      </trkpt>
      <trkpt lat="59.8874177" lon="17.841908">
        <ele>8.30859</ele>
        <time>2013-05-16T17:06:19Z</time>
      </trkpt>
      <trkpt lat="59.8874669" lon="17.8420082">
        <ele>8.78918</ele>
        <time>2013-05-16T17:06:20Z</time>
      </trkpt>
      <trkpt lat="59.8875223" lon="17.842109">
        <ele>9.75061</ele>
        <time>2013-05-16T17:06:21Z</time>
      </trkpt>
      <trkpt lat="59.8875819" lon="17.8422063">
        <ele>10.7118</ele>
        <time>2013-05-16T17:06:22Z</time>
      </trkpt>
      <trkpt lat="59.8876402" lon="17.8423031">
        <ele>10.7118</ele>
        <time>2013-05-16T17:06:23Z</time>
      </trkpt>
      <trkpt lat="59.8877008" lon="17.8423933">
        <ele>11.6732</ele>
        <time>2013-05-16T17:06:24Z</time>
      </trkpt>
      <trkpt lat="59.8877644" lon="17.8424769">
        <ele>12.6344</ele>
        <time>2013-05-16T17:06:25Z</time>
      </trkpt>
      <trkpt lat="59.8878289" lon="17.8425544">
        <ele>13.5958</ele>
        <time>2013-05-16T17:06:26Z</time>
      </trkpt>
      <trkpt lat="59.887893" lon="17.8426274">
        <ele>14.0764</ele>
        <time>2013-05-16T17:06:27Z</time>
      </trkpt>
      <trkpt lat="59.8879571" lon="17.8426972">
        <ele>15.5184</ele>
        <time>2013-05-16T17:06:28Z</time>
      </trkpt>
      <trkpt lat="59.8880187" lon="17.8427629">
        <ele>15.999</ele>
        <time>2013-05-16T17:06:29Z</time>
      </trkpt>
      <trkpt lat="59.8880833" lon="17.8428284">
        <ele>17.4412</ele>
        <time>2013-05-16T17:06:30Z</time>
      </trkpt>
      <trkpt lat="59.8881511" lon="17.8428847">
        <ele>16.9604</ele>
        <time>2013-05-16T17:06:31Z</time>
      </trkpt>
      <trkpt lat="59.8882157" lon="17.8429449">
        <ele>17.9218</ele>
        <time>2013-05-16T17:06:32Z</time>
      </trkpt>
      <trkpt lat="59.8882826" lon="17.8429988">
        <ele>19.3638</ele>
        <time>2013-05-16T17:06:33Z</time>
      </trkpt>
      <trkpt lat="59.8883517" lon="17.8430443">
        <ele>20.325</ele>
        <time>2013-05-16T17:06:34Z</time>
      </trkpt>
      <trkpt lat="59.8884236" lon="17.8430859">
        <ele>21.2864</ele>
        <time>2013-05-16T17:06:35Z</time>
      </trkpt>
      <trkpt lat="59.8884936" lon="17.8431283">
        <ele>22.2476</ele>
        <time>2013-05-16T17:06:36Z</time>
      </trkpt>
      <trkpt lat="59.8885616" lon="17.8431633">
        <ele>21.2864</ele>
        <time>2013-05-16T17:06:37Z</time>
      </trkpt>
      <trkpt lat="59.8886272" lon="17.8431858">
        <ele>21.2864</ele>
        <time>2013-05-16T17:06:38Z</time>
      </trkpt>
      <trkpt lat="59.888693" lon="17.8431983">
        <ele>20.8057</ele>
        <time>2013-05-16T17:06:39Z</time>
      </trkpt>
      <trkpt lat="59.8887679" lon="17.8431955">
        <ele>20.8057</ele>
        <time>2013-05-16T17:06:40Z</time>
      </trkpt>
      <trkpt lat="59.8888399" lon="17.8432038">
        <ele>19.3638</ele>
        <time>2013-05-16T17:06:41Z</time>
      </trkpt>
      <trkpt lat="59.888904" lon="17.8432231">
        <ele>18.8831</ele>
        <time>2013-05-16T17:06:42Z</time>
      </trkpt>
      <trkpt lat="59.8889629" lon="17.8432552">
        <ele>18.8831</ele>
        <time>2013-05-16T17:06:43Z</time>
      </trkpt>
      <trkpt lat="59.8890192" lon="17.8432987">
        <ele>17.9218</ele>
        <time>2013-05-16T17:06:44Z</time>
      </trkpt>
      <trkpt lat="59.8890762" lon="17.8433361">
        <ele>15.999</ele>
        <time>2013-05-16T17:06:45Z</time>
      </trkpt>
      <trkpt lat="59.8891371" lon="17.8433755">
        <ele>14.0764</ele>
        <time>2013-05-16T17:06:46Z</time>
      </trkpt>
      <trkpt lat="59.8892007" lon="17.8434065">
        <ele>14.557</ele>
        <time>2013-05-16T17:06:47Z</time>
      </trkpt>
      <trkpt lat="59.8892639" lon="17.8434324">
        <ele>15.0377</ele>
        <time>2013-05-16T17:06:48Z</time>
      </trkpt>
      <trkpt lat="59.8893245" lon="17.8434478">
        <ele>14.557</ele>
        <time>2013-05-16T17:06:49Z</time>
      </trkpt>
      <trkpt lat="59.889383" lon="17.8434581">
        <ele>15.5184</ele>
        <time>2013-05-16T17:06:50Z</time>
      </trkpt>
      <trkpt lat="59.8894489" lon="17.8434454">
        <ele>16.9604</ele>
        <time>2013-05-16T17:06:51Z</time>
      </trkpt>
      <trkpt lat="59.8895155" lon="17.8434049">
        <ele>17.9218</ele>
        <time>2013-05-16T17:06:52Z</time>
      </trkpt>
      <trkpt lat="59.8895799" lon="17.8433317">
        <ele>18.4023</ele>
        <time>2013-05-16T17:06:53Z</time>
      </trkpt>
      <trkpt lat="59.8896338" lon="17.8432465">
        <ele>17.4412</ele>
        <time>2013-05-16T17:06:54Z</time>
      </trkpt>
      <trkpt lat="59.8896809" lon="17.8431545">
        <ele>15.999</ele>
        <time>2013-05-16T17:06:55Z</time>
      </trkpt>
      <trkpt lat="59.8897167" lon="17.8430475">
        <ele>13.5958</ele>
        <time>2013-05-16T17:06:56Z</time>
      </trkpt>
      <trkpt lat="59.8897384" lon="17.8429148">
        <ele>12.6344</ele>
        <time>2013-05-16T17:06:57Z</time>
      </trkpt>
      <trkpt lat="59.889749" lon="17.8427936">
        <ele>11.1925</ele>
        <time>2013-05-16T17:06:58Z</time>
      </trkpt>
      <trkpt lat="59.8897369" lon="17.8425729">
        <ele>10.2312</ele>
        <time>2013-05-16T17:06:59Z</time>
      </trkpt>
      <trkpt lat="59.8897209" lon="17.8424023">
        <ele>10.7118</ele>
        <time>2013-05-16T17:07:00Z</time>
      </trkpt>
      <trkpt lat="59.8897135" lon="17.8422454">
        <ele>11.6732</ele>
        <time>2013-05-16T17:07:01Z</time>
      </trkpt>
      <trkpt lat="59.8897171" lon="17.8421216">
        <ele>10.7118</ele>
        <time>2013-05-16T17:07:02Z</time>
      </trkpt>
      <trkpt lat="59.8897309" lon="17.8419907">
        <ele>10.7118</ele>
        <time>2013-05-16T17:07:03Z</time>
      </trkpt>
      <trkpt lat="59.8897368" lon="17.8418835">
        <ele>9.2699</ele>
        <time>2013-05-16T17:07:04Z</time>
      </trkpt>
      <trkpt lat="59.8897455" lon="17.8417768">
        <ele>8.30859</ele>
        <time>2013-05-16T17:07:05Z</time>
      </trkpt>
      <trkpt lat="59.8897613" lon="17.8416512">
        <ele>7.82788</ele>
        <time>2013-05-16T17:07:06Z</time>
      </trkpt>
      <trkpt lat="59.8897762" lon="17.8415354">
        <ele>4.46326</ele>
        <time>2013-05-16T17:07:07Z</time>
      </trkpt>
      <trkpt lat="59.8897954" lon="17.8414189">
        <ele>2.54065</ele>
        <time>2013-05-16T17:07:08Z</time>
      </trkpt>
      <trkpt lat="59.8898176" lon="17.8413044">
        <ele>1.57935</ele>
        <time>2013-05-16T17:07:09Z</time>
      </trkpt>
      <trkpt lat="59.8898335" lon="17.841195">
        <ele>1.09863</ele>
        <time>2013-05-16T17:07:10Z</time>
      </trkpt>
      <trkpt lat="59.889856" lon="17.8411032">
        <ele>0.618042</ele>
        <time>2013-05-16T17:07:11Z</time>
      </trkpt>
      <trkpt lat="59.8898876" lon="17.8410122">
        <ele>1.57935</ele>
        <time>2013-05-16T17:07:12Z</time>
      </trkpt>
      <trkpt lat="59.8899357" lon="17.8409459">
        <ele>2.06006</ele>
        <time>2013-05-16T17:07:13Z</time>
      </trkpt>
      <trkpt lat="59.8900019" lon="17.8408946">
        <ele>4.46326</ele>
        <time>2013-05-16T17:07:14Z</time>
      </trkpt>
      <trkpt lat="59.8900816" lon="17.8408692">
        <ele>7.82788</ele>
        <time>2013-05-16T17:07:15Z</time>
      </trkpt>
      <trkpt lat="59.8901653" lon="17.8408729">
        <ele>9.2699</ele>
        <time>2013-05-16T17:07:16Z</time>
      </trkpt>
      <trkpt lat="59.8902399" lon="17.8409115">
        <ele>10.2312</ele>
        <time>2013-05-16T17:07:17Z</time>
      </trkpt>
      <trkpt lat="59.8903099" lon="17.8409702">
        <ele>9.75061</ele>
        <time>2013-05-16T17:07:18Z</time>
      </trkpt>
      <trkpt lat="59.8903771" lon="17.8410384">
        <ele>10.7118</ele>
        <time>2013-05-16T17:07:19Z</time>
      </trkpt>
      <trkpt lat="59.890437" lon="17.8411225">
        <ele>10.2312</ele>
        <time>2013-05-16T17:07:20Z</time>
      </trkpt>
      <trkpt lat="59.8905" lon="17.8412091">
        <ele>11.1925</ele>
        <time>2013-05-16T17:07:21Z</time>
      </trkpt>
      <trkpt lat="59.8905559" lon="17.8412861">
        <ele>10.7118</ele>
        <time>2013-05-16T17:07:22Z</time>
      </trkpt>
      <trkpt lat="59.8906084" lon="17.8413584">
        <ele>10.2312</ele>
        <time>2013-05-16T17:07:23Z</time>
      </trkpt>
      <trkpt lat="59.8906636" lon="17.8414524">
        <ele>11.6732</ele>
        <time>2013-05-16T17:07:24Z</time>
      </trkpt>
      <trkpt lat="59.8907138" lon="17.841535">
        <ele>12.1538</ele>
        <time>2013-05-16T17:07:25Z</time>
      </trkpt>
      <trkpt lat="59.8907665" lon="17.8416139">
        <ele>13.1151</ele>
        <time>2013-05-16T17:07:26Z</time>
      </trkpt>
      <trkpt lat="59.8908177" lon="17.8416818">
        <ele>14.0764</ele>
        <time>2013-05-16T17:07:27Z</time>
      </trkpt>
      <trkpt lat="59.8908687" lon="17.8417441">
        <ele>14.557</ele>
        <time>2013-05-16T17:07:28Z</time>
      </trkpt>
      <trkpt lat="59.890925" lon="17.8418006">
        <ele>14.557</ele>
        <time>2013-05-16T17:07:29Z</time>
      </trkpt>
      <trkpt lat="59.8909758" lon="17.8418608">
        <ele>13.5958</ele>
        <time>2013-05-16T17:07:30Z</time>
      </trkpt>
      <trkpt lat="59.8910308" lon="17.8419209">
        <ele>13.5958</ele>
        <time>2013-05-16T17:07:31Z</time>
      </trkpt>
      <trkpt lat="59.8910831" lon="17.8419802">
        <ele>13.5958</ele>
        <time>2013-05-16T17:07:32Z</time>
      </trkpt>
      <trkpt lat="59.8911332" lon="17.8420316">
        <ele>11.6732</ele>
        <time>2013-05-16T17:07:33Z</time>
      </trkpt>
      <trkpt lat="59.8911821" lon="17.8420875">
        <ele>11.6732</ele>
        <time>2013-05-16T17:07:34Z</time>
      </trkpt>
      <trkpt lat="59.8912365" lon="17.8421342">
        <ele>11.1925</ele>
        <time>2013-05-16T17:07:35Z</time>
      </trkpt>
      <trkpt lat="59.8912903" lon="17.842177">
        <ele>10.2312</ele>
        <time>2013-05-16T17:07:36Z</time>
      </trkpt>
      <trkpt lat="59.8913473" lon="17.8422125">
        <ele>8.78918</ele>
        <time>2013-05-16T17:07:37Z</time>
      </trkpt>
      <trkpt lat="59.8914096" lon="17.842235">
        <ele>8.30859</ele>
        <time>2013-05-16T17:07:38Z</time>
      </trkpt>
      <trkpt lat="59.8914794" lon="17.8422487">
        <ele>8.78918</ele>
        <time>2013-05-16T17:07:39Z</time>
      </trkpt>
      <trkpt lat="59.8915443" lon="17.8422605">
        <ele>7.82788</ele>
        <time>2013-05-16T17:07:40Z</time>
      </trkpt>
      <trkpt lat="59.8916162" lon="17.8422623">
        <ele>6.86646</ele>
        <time>2013-05-16T17:07:41Z</time>
      </trkpt>
      <trkpt lat="59.8916809" lon="17.8422601">
        <ele>5.90527</ele>
        <time>2013-05-16T17:07:42Z</time>
      </trkpt>
      <trkpt lat="59.8917539" lon="17.842268">
        <ele>5.42456</ele>
        <time>2013-05-16T17:07:43Z</time>
      </trkpt>
      <trkpt lat="59.8918317" lon="17.8422913">
        <ele>6.86646</ele>
        <time>2013-05-16T17:07:44Z</time>
      </trkpt>
      <trkpt lat="59.8918991" lon="17.8423124">
        <ele>6.86646</ele>
        <time>2013-05-16T17:07:45Z</time>
      </trkpt>
      <trkpt lat="59.8919657" lon="17.8423315">
        <ele>6.38586</ele>
        <time>2013-05-16T17:07:46Z</time>
      </trkpt>
      <trkpt lat="59.8920373" lon="17.8423605">
        <ele>6.86646</ele>
        <time>2013-05-16T17:07:47Z</time>
      </trkpt>
      <trkpt lat="59.8921067" lon="17.8424091">
        <ele>7.34717</ele>
        <time>2013-05-16T17:07:48Z</time>
      </trkpt>
      <trkpt lat="59.8921761" lon="17.8424558">
        <ele>7.82788</ele>
        <time>2013-05-16T17:07:49Z</time>
      </trkpt>
      <trkpt lat="59.8922448" lon="17.842494">
        <ele>5.90527</ele>
        <time>2013-05-16T17:07:50Z</time>
      </trkpt>
      <trkpt lat="59.8923171" lon="17.8425325">
        <ele>5.42456</ele>
        <time>2013-05-16T17:07:51Z</time>
      </trkpt>
      <trkpt lat="59.8923864" lon="17.842572">
        <ele>4.46326</ele>
        <time>2013-05-16T17:07:52Z</time>
      </trkpt>
      <trkpt lat="59.8924526" lon="17.8426166">
        <ele>6.38586</ele>
        <time>2013-05-16T17:07:53Z</time>
      </trkpt>
      <trkpt lat="59.8925201" lon="17.842661">
        <ele>7.82788</ele>
        <time>2013-05-16T17:07:54Z</time>
      </trkpt>
      <trkpt lat="59.8925973" lon="17.8426946">
        <ele>8.78918</ele>
        <time>2013-05-16T17:07:55Z</time>
      </trkpt>
      <trkpt lat="59.8926797" lon="17.842723">
        <ele>9.75061</ele>
        <time>2013-05-16T17:07:56Z</time>
      </trkpt>
      <trkpt lat="59.8927662" lon="17.8427619">
        <ele>10.7118</ele>
        <time>2013-05-16T17:07:57Z</time>
      </trkpt>
      <trkpt lat="59.8928532" lon="17.8428056">
        <ele>10.7118</ele>
        <time>2013-05-16T17:07:58Z</time>
      </trkpt>
      <trkpt lat="59.8929386" lon="17.8428515">
        <ele>10.7118</ele>
        <time>2013-05-16T17:07:59Z</time>
      </trkpt>
      <trkpt lat="59.8930195" lon="17.8428973">
        <ele>10.2312</ele>
        <time>2013-05-16T17:08:00Z</time>
      </trkpt>
      <trkpt lat="59.893108" lon="17.8429478">
        <ele>9.2699</ele>
        <time>2013-05-16T17:08:01Z</time>
      </trkpt>
      <trkpt lat="59.8931887" lon="17.8430009">
        <ele>9.2699</ele>
        <time>2013-05-16T17:08:02Z</time>
      </trkpt>
      <trkpt lat="59.8932723" lon="17.8430387">
        <ele>7.82788</ele>
        <time>2013-05-16T17:08:03Z</time>
      </trkpt>
      <trkpt lat="59.8933567" lon="17.8430695">
        <ele>6.86646</ele>
        <time>2013-05-16T17:08:04Z</time>
      </trkpt>
      <trkpt lat="59.8934415" lon="17.8431008">
        <ele>6.86646</ele>
        <time>2013-05-16T17:08:05Z</time>
      </trkpt>
      <trkpt lat="59.8935569" lon="17.8430883">
        <ele>6.86646</ele>
        <time>2013-05-16T17:08:06Z</time>
      </trkpt>
      <trkpt lat="59.8936379" lon="17.8431075">
        <ele>5.42456</ele>
        <time>2013-05-16T17:08:07Z</time>
      </trkpt>
      <trkpt lat="59.8937284" lon="17.8431002">
        <ele>4.94385</ele>
        <time>2013-05-16T17:08:08Z</time>
      </trkpt>
      <trkpt lat="59.8938139" lon="17.8430963">
        <ele>4.46326</ele>
        <time>2013-05-16T17:08:09Z</time>
      </trkpt>
      <trkpt lat="59.8938901" lon="17.84311">
        <ele>3.98267</ele>
        <time>2013-05-16T17:08:10Z</time>
      </trkpt>
      <trkpt lat="59.8939678" lon="17.8431581">
        <ele>2.54065</ele>
        <time>2013-05-16T17:08:11Z</time>
      </trkpt>
      <trkpt lat="59.89404" lon="17.8431462">
        <ele>2.06006</ele>
        <time>2013-05-16T17:08:12Z</time>
      </trkpt>
      <trkpt lat="59.8941258" lon="17.843134">
        <ele>2.54065</ele>
        <time>2013-05-16T17:08:13Z</time>
      </trkpt>
      <trkpt lat="59.8941938" lon="17.8431511">
        <ele>1.57935</ele>
        <time>2013-05-16T17:08:14Z</time>
      </trkpt>
      <trkpt lat="59.8942725" lon="17.8431664">
        <ele>0.137451</ele>
        <time>2013-05-16T17:08:15Z</time>
      </trkpt>
      <trkpt lat="59.894356" lon="17.843177">
        <ele>0.618042</ele>
        <time>2013-05-16T17:08:16Z</time>
      </trkpt>
      <trkpt lat="59.8944422" lon="17.8431949">
        <ele>0.137451</ele>
        <time>2013-05-16T17:08:17Z</time>
      </trkpt>
      <trkpt lat="59.8945086" lon="17.8432113">
        <ele>0</ele>
        <time>2013-05-16T17:08:18Z</time>
      </trkpt>
      <trkpt lat="59.8945745" lon="17.8432157">
        <ele>0</ele>
        <time>2013-05-16T17:08:19Z</time>
      </trkpt>
      <trkpt lat="59.89466" lon="17.8432222">
        <ele>0</ele>
        <time>2013-05-16T17:08:20Z</time>
      </trkpt>
      <trkpt lat="59.8947403" lon="17.8432353">
        <ele>0</ele>
        <time>2013-05-16T17:08:21Z</time>
      </trkpt>
      <trkpt lat="59.8948313" lon="17.8432531">
        <ele>0</ele>
        <time>2013-05-16T17:08:22Z</time>
      </trkpt>
      <trkpt lat="59.8949121" lon="17.8432657">
        <ele>0</ele>
        <time>2013-05-16T17:08:23Z</time>
      </trkpt>
      <trkpt lat="59.8949898" lon="17.8432468">
        <ele>0</ele>
        <time>2013-05-16T17:08:24Z</time>
      </trkpt>
      <trkpt lat="59.895068" lon="17.8432296">
        <ele>0</ele>
        <time>2013-05-16T17:08:25Z</time>
      </trkpt>
      <trkpt lat="59.895134" lon="17.8431973">
        <ele>0</ele>
        <time>2013-05-16T17:08:26Z</time>
      </trkpt>
      <trkpt lat="59.8952049" lon="17.8431598">
        <ele>0</ele>
        <time>2013-05-16T17:08:27Z</time>
      </trkpt>
      <trkpt lat="59.8952754" lon="17.8431164">
        <ele>0</ele>
        <time>2013-05-16T17:08:28Z</time>
      </trkpt>
      <trkpt lat="59.8953448" lon="17.8430765">
        <ele>0</ele>
        <time>2013-05-16T17:08:29Z</time>
      </trkpt>
      <trkpt lat="59.895418" lon="17.843031">
        <ele>0</ele>
        <time>2013-05-16T17:08:30Z</time>
      </trkpt>
      <trkpt lat="59.8954977" lon="17.8429948">
        <ele>0</ele>
        <time>2013-05-16T17:08:31Z</time>
      </trkpt>
      <trkpt lat="59.8955775" lon="17.84295">
        <ele>0</ele>
        <time>2013-05-16T17:08:32Z</time>
      </trkpt>
      <trkpt lat="59.8956494" lon="17.8429112">
        <ele>0</ele>
        <time>2013-05-16T17:08:33Z</time>
      </trkpt>
      <trkpt lat="59.8957224" lon="17.8428771">
        <ele>0</ele>
        <time>2013-05-16T17:08:34Z</time>
      </trkpt>
      <trkpt lat="59.8958427" lon="17.8428713">
        <ele>0</ele>
        <time>2013-05-16T17:08:35Z</time>
      </trkpt>
      <trkpt lat="59.8959306" lon="17.8428836">
        <ele>0</ele>
        <time>2013-05-16T17:08:36Z</time>
      </trkpt>
      <trkpt lat="59.8960176" lon="17.8428796">
        <ele>0.618042</ele>
        <time>2013-05-16T17:08:37Z</time>
      </trkpt>
      <trkpt lat="59.8960964" lon="17.8428661">
        <ele>1.09863</ele>
        <time>2013-05-16T17:08:38Z</time>
      </trkpt>
      <trkpt lat="59.8961815" lon="17.842876">
        <ele>2.06006</ele>
        <time>2013-05-16T17:08:39Z</time>
      </trkpt>
      <trkpt lat="59.8962648" lon="17.8428899">
        <ele>3.50195</ele>
        <time>2013-05-16T17:08:40Z</time>
      </trkpt>
      <trkpt lat="59.8963571" lon="17.8429098">
        <ele>5.90527</ele>
        <time>2013-05-16T17:08:41Z</time>
      </trkpt>
      <trkpt lat="59.8964417" lon="17.8429416">
        <ele>9.2699</ele>
        <time>2013-05-16T17:08:42Z</time>
      </trkpt>
      <trkpt lat="59.896529" lon="17.8429667">
        <ele>12.6344</ele>
        <time>2013-05-16T17:08:43Z</time>
      </trkpt>
      <trkpt lat="59.8966092" lon="17.8429644">
        <ele>14.557</ele>
        <time>2013-05-16T17:08:44Z</time>
      </trkpt>
      <trkpt lat="59.8966636" lon="17.8429532">
        <ele>13.5958</ele>
        <time>2013-05-16T17:08:45Z</time>
      </trkpt>
      <trkpt lat="59.8967262" lon="17.8429538">
        <ele>14.557</ele>
        <time>2013-05-16T17:08:46Z</time>
      </trkpt>
      <trkpt lat="59.8967767" lon="17.8429495">
        <ele>15.5184</ele>
        <time>2013-05-16T17:08:47Z</time>
      </trkpt>
      <trkpt lat="59.8968272" lon="17.8429404">
        <ele>17.4412</ele>
        <time>2013-05-16T17:08:48Z</time>
      </trkpt>
      <trkpt lat="59.8968668" lon="17.8429055">
        <ele>16.9604</ele>
        <time>2013-05-16T17:08:49Z</time>
      </trkpt>
      <trkpt lat="59.8969163" lon="17.8428749">
        <ele>17.4412</ele>
        <time>2013-05-16T17:08:50Z</time>
      </trkpt>
      <trkpt lat="59.89696" lon="17.8428557">
        <ele>17.9218</ele>
        <time>2013-05-16T17:08:51Z</time>
      </trkpt>
      <trkpt lat="59.8970071" lon="17.8428325">
        <ele>18.4023</ele>
        <time>2013-05-16T17:08:52Z</time>
      </trkpt>
      <trkpt lat="59.8970489" lon="17.8427878">
        <ele>16.9604</ele>
        <time>2013-05-16T17:08:53Z</time>
      </trkpt>
      <trkpt lat="59.8970979" lon="17.842743">
        <ele>16.4797</ele>
        <time>2013-05-16T17:08:54Z</time>
      </trkpt>
      <trkpt lat="59.8971392" lon="17.8427082">
        <ele>17.4412</ele>
        <time>2013-05-16T17:08:55Z</time>
      </trkpt>
      <trkpt lat="59.8971801" lon="17.84267">
        <ele>20.325</ele>
        <time>2013-05-16T17:08:56Z</time>
      </trkpt>
      <trkpt lat="59.8972174" lon="17.8426318">
        <ele>21.2864</ele>
        <time>2013-05-16T17:08:57Z</time>
      </trkpt>
      <trkpt lat="59.897251" lon="17.842602">
        <ele>22.2476</ele>
        <time>2013-05-16T17:08:58Z</time>
      </trkpt>
      <trkpt lat="59.8972828" lon="17.8425888">
        <ele>23.209</ele>
        <time>2013-05-16T17:08:59Z</time>
      </trkpt>
      <trkpt lat="59.8973151" lon="17.8425647">
        <ele>23.209</ele>
        <time>2013-05-16T17:09:00Z</time>
      </trkpt>
      <trkpt lat="59.8973421" lon="17.8425417">
        <ele>23.209</ele>
        <time>2013-05-16T17:09:01Z</time>
      </trkpt>
      <trkpt lat="59.8973804" lon="17.8425231">
        <ele>24.1703</ele>
        <time>2013-05-16T17:09:02Z</time>
      </trkpt>
      <trkpt lat="59.8974184" lon="17.842494">
        <ele>24.651</ele>
        <time>2013-05-16T17:09:03Z</time>
      </trkpt>
      <trkpt lat="59.8974619" lon="17.8424653">
        <ele>26.0929</ele>
        <time>2013-05-16T17:09:04Z</time>
      </trkpt>
      <trkpt lat="59.8974938" lon="17.8424486">
        <ele>24.651</ele>
        <time>2013-05-16T17:09:05Z</time>
      </trkpt>
      <trkpt lat="59.897521" lon="17.8424269">
        <ele>23.6896</ele>
        <time>2013-05-16T17:09:06Z</time>
      </trkpt>
      <trkpt lat="59.8975542" lon="17.8424062">
        <ele>23.6896</ele>
        <time>2013-05-16T17:09:07Z</time>
      </trkpt>
      <trkpt lat="59.897594" lon="17.8423882">
        <ele>25.6123</ele>
        <time>2013-05-16T17:09:08Z</time>
      </trkpt>
      <trkpt lat="59.8976438" lon="17.8423725">
        <ele>26.5736</ele>
        <time>2013-05-16T17:09:09Z</time>
      </trkpt>
      <trkpt lat="59.8976876" lon="17.842359">
        <ele>25.1317</ele>
        <time>2013-05-16T17:09:10Z</time>
      </trkpt>
      <trkpt lat="59.8977494" lon="17.8423695">
        <ele>27.0543</ele>
        <time>2013-05-16T17:09:11Z</time>
      </trkpt>
      <trkpt lat="59.8978224" lon="17.8423585">
        <ele>30.4188</ele>
        <time>2013-05-16T17:09:12Z</time>
      </trkpt>
      <trkpt lat="59.8978868" lon="17.8423447">
        <ele>31.8607</ele>
        <time>2013-05-16T17:09:13Z</time>
      </trkpt>
      <trkpt lat="59.8979429" lon="17.8423259">
        <ele>32.3416</ele>
        <time>2013-05-16T17:09:14Z</time>
      </trkpt>
      <trkpt lat="59.897999" lon="17.842326">
        <ele>32.3416</ele>
        <time>2013-05-16T17:09:15Z</time>
      </trkpt>
      <trkpt lat="59.8980597" lon="17.8423286">
        <ele>33.7834</ele>
        <time>2013-05-16T17:09:16Z</time>
      </trkpt>
      <trkpt lat="59.8981079" lon="17.8423336">
        <ele>32.8223</ele>
        <time>2013-05-16T17:09:17Z</time>
      </trkpt>
      <trkpt lat="59.898156" lon="17.8423467">
        <ele>33.3029</ele>
        <time>2013-05-16T17:09:18Z</time>
      </trkpt>
      <trkpt lat="59.8982088" lon="17.8423641">
        <ele>34.2642</ele>
        <time>2013-05-16T17:09:19Z</time>
      </trkpt>
      <trkpt lat="59.8982628" lon="17.8423737">
        <ele>36.1868</ele>
        <time>2013-05-16T17:09:20Z</time>
      </trkpt>
      <trkpt lat="59.8983211" lon="17.8423674">
        <ele>37.6287</ele>
        <time>2013-05-16T17:09:21Z</time>
      </trkpt>
      <trkpt lat="59.8983735" lon="17.8423601">
        <ele>37.6287</ele>
        <time>2013-05-16T17:09:22Z</time>
      </trkpt>
      <trkpt lat="59.8984296" lon="17.8423568">
        <ele>39.0707</ele>
        <time>2013-05-16T17:09:23Z</time>
      </trkpt>
      <trkpt lat="59.8984969" lon="17.8423568">
        <ele>41.9547</ele>
        <time>2013-05-16T17:09:24Z</time>
      </trkpt>
      <trkpt lat="59.8985586" lon="17.8423559">
        <ele>43.3966</ele>
        <time>2013-05-16T17:09:25Z</time>
      </trkpt>
      <trkpt lat="59.8986158" lon="17.8423511">
        <ele>44.8386</ele>
        <time>2013-05-16T17:09:26Z</time>
      </trkpt>
      <trkpt lat="59.8986571" lon="17.8423259">
        <ele>43.8773</ele>
        <time>2013-05-16T17:09:27Z</time>
      </trkpt>
      <trkpt lat="59.8987072" lon="17.8423031">
        <ele>44.8386</ele>
        <time>2013-05-16T17:09:28Z</time>
      </trkpt>
      <trkpt lat="59.8987686" lon="17.8422812">
        <ele>46.2806</ele>
        <time>2013-05-16T17:09:29Z</time>
      </trkpt>
      <trkpt lat="59.8988319" lon="17.8422537">
        <ele>46.2806</ele>
        <time>2013-05-16T17:09:30Z</time>
      </trkpt>
      <trkpt lat="59.8988854" lon="17.8422226">
        <ele>46.2806</ele>
        <time>2013-05-16T17:09:31Z</time>
      </trkpt>
      <trkpt lat="59.8989429" lon="17.8421858">
        <ele>46.2806</ele>
        <time>2013-05-16T17:09:32Z</time>
      </trkpt>
      <trkpt lat="59.8989911" lon="17.8421363">
        <ele>45.3192</ele>
        <time>2013-05-16T17:09:33Z</time>
      </trkpt>
      <trkpt lat="59.8990331" lon="17.8420952">
        <ele>44.358</ele>
        <time>2013-05-16T17:09:34Z</time>
      </trkpt>
      <trkpt lat="59.8990877" lon="17.8420623">
        <ele>44.358</ele>
        <time>2013-05-16T17:09:35Z</time>
      </trkpt>
      <trkpt lat="59.8991395" lon="17.8420159">
        <ele>44.358</ele>
        <time>2013-05-16T17:09:36Z</time>
      </trkpt>
      <trkpt lat="59.8991831" lon="17.8419667">
        <ele>43.3966</ele>
        <time>2013-05-16T17:09:37Z</time>
      </trkpt>
      <trkpt lat="59.8992307" lon="17.8419119">
        <ele>43.3966</ele>
        <time>2013-05-16T17:09:38Z</time>
      </trkpt>
      <trkpt lat="59.8992863" lon="17.8418559">
        <ele>43.8773</ele>
        <time>2013-05-16T17:09:39Z</time>
      </trkpt>
      <trkpt lat="59.8993359" lon="17.8417932">
        <ele>42.916</ele>
        <time>2013-05-16T17:09:40Z</time>
      </trkpt>
      <trkpt lat="59.89939" lon="17.8417281">
        <ele>41.9547</ele>
        <time>2013-05-16T17:09:41Z</time>
      </trkpt>
      <trkpt lat="59.8994449" lon="17.8416632">
        <ele>40.5128</ele>
        <time>2013-05-16T17:09:42Z</time>
      </trkpt>
      <trkpt lat="59.89951" lon="17.84161">
        <ele>38.5901</ele>
        <time>2013-05-16T17:09:43Z</time>
      </trkpt>
      <trkpt lat="59.8995733" lon="17.8415715">
        <ele>38.1094</ele>
        <time>2013-05-16T17:09:44Z</time>
      </trkpt>
      <trkpt lat="59.8996348" lon="17.8415371">
        <ele>37.1481</ele>
        <time>2013-05-16T17:09:45Z</time>
      </trkpt>
      <trkpt lat="59.899709" lon="17.8415204">
        <ele>37.6287</ele>
        <time>2013-05-16T17:09:46Z</time>
      </trkpt>
      <trkpt lat="59.8997939" lon="17.8415095">
        <ele>38.1094</ele>
        <time>2013-05-16T17:09:47Z</time>
      </trkpt>
      <trkpt lat="59.8998763" lon="17.8415111">
        <ele>37.6287</ele>
        <time>2013-05-16T17:09:48Z</time>
      </trkpt>
      <trkpt lat="59.8999692" lon="17.8415047">
        <ele>38.5901</ele>
        <time>2013-05-16T17:09:49Z</time>
      </trkpt>
      <trkpt lat="59.9000654" lon="17.841499">
        <ele>39.0707</ele>
        <time>2013-05-16T17:09:50Z</time>
      </trkpt>
      <trkpt lat="59.9001497" lon="17.841477">
        <ele>34.2642</ele>
        <time>2013-05-16T17:09:51Z</time>
      </trkpt>
      <trkpt lat="59.9002405" lon="17.8414627">
        <ele>30.8995</ele>
        <time>2013-05-16T17:09:52Z</time>
      </trkpt>
      <trkpt lat="59.9003442" lon="17.8414587">
        <ele>28.4962</ele>
        <time>2013-05-16T17:09:53Z</time>
      </trkpt>
      <trkpt lat="59.9004482" lon="17.8414552">
        <ele>25.6123</ele>
        <time>2013-05-16T17:09:54Z</time>
      </trkpt>
      <trkpt lat="59.9005525" lon="17.8414511">
        <ele>23.209</ele>
        <time>2013-05-16T17:09:55Z</time>
      </trkpt>
      <trkpt lat="59.9006535" lon="17.8414601">
        <ele>21.2864</ele>
        <time>2013-05-16T17:09:56Z</time>
      </trkpt>
      <trkpt lat="59.9007488" lon="17.8414743">
        <ele>18.4023</ele>
        <time>2013-05-16T17:09:57Z</time>
      </trkpt>
      <trkpt lat="59.900844" lon="17.8414941">
        <ele>16.4797</ele>
        <time>2013-05-16T17:09:58Z</time>
      </trkpt>
      <trkpt lat="59.9009471" lon="17.8415091">
        <ele>15.0377</ele>
        <time>2013-05-16T17:09:59Z</time>
      </trkpt>
      <trkpt lat="59.9010474" lon="17.8415148">
        <ele>13.1151</ele>
        <time>2013-05-16T17:10:00Z</time>
      </trkpt>
      <trkpt lat="59.9011475" lon="17.8415301">
        <ele>12.1538</ele>
        <time>2013-05-16T17:10:01Z</time>
      </trkpt>
      <trkpt lat="59.9012444" lon="17.8415494">
        <ele>10.7118</ele>
        <time>2013-05-16T17:10:02Z</time>
      </trkpt>
      <trkpt lat="59.9013428" lon="17.8415739">
        <ele>8.78918</ele>
        <time>2013-05-16T17:10:03Z</time>
      </trkpt>
      <trkpt lat="59.9014379" lon="17.8415929">
        <ele>7.34717</ele>
        <time>2013-05-16T17:10:04Z</time>
      </trkpt>
      <trkpt lat="59.901534" lon="17.8416117">
        <ele>5.90527</ele>
        <time>2013-05-16T17:10:05Z</time>
      </trkpt>
      <trkpt lat="59.9016273" lon="17.8416245">
        <ele>5.90527</ele>
        <time>2013-05-16T17:10:06Z</time>
      </trkpt>
      <trkpt lat="59.9017168" lon="17.8416401">
        <ele>6.38586</ele>
        <time>2013-05-16T17:10:07Z</time>
      </trkpt>
      <trkpt lat="59.9018018" lon="17.8416566">
        <ele>5.90527</ele>
        <time>2013-05-16T17:10:08Z</time>
      </trkpt>
      <trkpt lat="59.9018781" lon="17.8416758">
        <ele>5.90527</ele>
        <time>2013-05-16T17:10:09Z</time>
      </trkpt>
      <trkpt lat="59.9019567" lon="17.8416892">
        <ele>6.38586</ele>
        <time>2013-05-16T17:10:10Z</time>
      </trkpt>
      <trkpt lat="59.9020353" lon="17.8416948">
        <ele>6.86646</ele>
        <time>2013-05-16T17:10:11Z</time>
      </trkpt>
      <trkpt lat="59.9021099" lon="17.8416841">
        <ele>6.38586</ele>
        <time>2013-05-16T17:10:12Z</time>
      </trkpt>
      <trkpt lat="59.9021928" lon="17.8416566">
        <ele>5.90527</ele>
        <time>2013-05-16T17:10:13Z</time>
      </trkpt>
      <trkpt lat="59.9022742" lon="17.8416264">
        <ele>4.94385</ele>
        <time>2013-05-16T17:10:14Z</time>
      </trkpt>
      <trkpt lat="59.9023679" lon="17.8415998">
        <ele>5.42456</ele>
        <time>2013-05-16T17:10:15Z</time>
      </trkpt>
      <trkpt lat="59.9024539" lon="17.8415718">
        <ele>3.98267</ele>
        <time>2013-05-16T17:10:16Z</time>
      </trkpt>
      <trkpt lat="59.9025517" lon="17.8415274">
        <ele>3.98267</ele>
        <time>2013-05-16T17:10:17Z</time>
      </trkpt>
      <trkpt lat="59.9026489" lon="17.8415048">
        <ele>4.94385</ele>
        <time>2013-05-16T17:10:18Z</time>
      </trkpt>
      <trkpt lat="59.9027543" lon="17.8414628">
        <ele>5.90527</ele>
        <time>2013-05-16T17:10:19Z</time>
      </trkpt>
      <trkpt lat="59.9028513" lon="17.8414102">
        <ele>6.38586</ele>
        <time>2013-05-16T17:10:20Z</time>
      </trkpt>
      <trkpt lat="59.9029471" lon="17.8413555">
        <ele>6.86646</ele>
        <time>2013-05-16T17:10:21Z</time>
      </trkpt>
      <trkpt lat="59.9030371" lon="17.8413109">
        <ele>6.86646</ele>
        <time>2013-05-16T17:10:22Z</time>
      </trkpt>
      <trkpt lat="59.9031262" lon="17.8412848">
        <ele>7.34717</ele>
        <time>2013-05-16T17:10:23Z</time>
      </trkpt>
      <trkpt lat="59.9032095" lon="17.8412971">
        <ele>8.30859</ele>
        <time>2013-05-16T17:10:24Z</time>
      </trkpt>
      <trkpt lat="59.903294" lon="17.841351">
        <ele>10.2312</ele>
        <time>2013-05-16T17:10:25Z</time>
      </trkpt>
      <trkpt lat="59.9033712" lon="17.8414098">
        <ele>10.2312</ele>
        <time>2013-05-16T17:10:26Z</time>
      </trkpt>
      <trkpt lat="59.9034429" lon="17.8415063">
        <ele>10.7118</ele>
        <time>2013-05-16T17:10:27Z</time>
      </trkpt>
      <trkpt lat="59.9035143" lon="17.8416282">
        <ele>10.7118</ele>
        <time>2013-05-16T17:10:28Z</time>
      </trkpt>
      <trkpt lat="59.9035839" lon="17.8417472">
        <ele>10.2312</ele>
        <time>2013-05-16T17:10:29Z</time>
      </trkpt>
      <trkpt lat="59.9036519" lon="17.8418488">
        <ele>9.75061</ele>
        <time>2013-05-16T17:10:30Z</time>
      </trkpt>
      <trkpt lat="59.9037241" lon="17.8419493">
        <ele>10.7118</ele>
        <time>2013-05-16T17:10:31Z</time>
      </trkpt>
      <trkpt lat="59.9037946" lon="17.8420233">
        <ele>11.6732</ele>
        <time>2013-05-16T17:10:32Z</time>
      </trkpt>
      <trkpt lat="59.9038718" lon="17.8420798">
        <ele>11.6732</ele>
        <time>2013-05-16T17:10:33Z</time>
      </trkpt>
      <trkpt lat="59.9039558" lon="17.8420901">
        <ele>11.6732</ele>
        <time>2013-05-16T17:10:34Z</time>
      </trkpt>
      <trkpt lat="59.9040479" lon="17.8420768">
        <ele>12.6344</ele>
        <time>2013-05-16T17:10:35Z</time>
      </trkpt>
      <trkpt lat="59.904143" lon="17.8420765">
        <ele>14.0764</ele>
        <time>2013-05-16T17:10:36Z</time>
      </trkpt>
      <trkpt lat="59.9042604" lon="17.8420178">
        <ele>15.5184</ele>
        <time>2013-05-16T17:10:37Z</time>
      </trkpt>
      <trkpt lat="59.9043737" lon="17.8419496">
        <ele>16.9604</ele>
        <time>2013-05-16T17:10:38Z</time>
      </trkpt>
      <trkpt lat="59.9044705" lon="17.8418847">
        <ele>17.4412</ele>
        <time>2013-05-16T17:10:39Z</time>
      </trkpt>
      <trkpt lat="59.9045584" lon="17.8418208">
        <ele>17.4412</ele>
        <time>2013-05-16T17:10:40Z</time>
      </trkpt>
      <trkpt lat="59.9046457" lon="17.8417612">
        <ele>16.4797</ele>
        <time>2013-05-16T17:10:41Z</time>
      </trkpt>
      <trkpt lat="59.9047301" lon="17.8416943">
        <ele>15.999</ele>
        <time>2013-05-16T17:10:42Z</time>
      </trkpt>
      <trkpt lat="59.9048125" lon="17.8416328">
        <ele>15.0377</ele>
        <time>2013-05-16T17:10:43Z</time>
      </trkpt>
      <trkpt lat="59.9048865" lon="17.8415836">
        <ele>15.5184</ele>
        <time>2013-05-16T17:10:44Z</time>
      </trkpt>
      <trkpt lat="59.9049737" lon="17.8415235">
        <ele>15.5184</ele>
        <time>2013-05-16T17:10:45Z</time>
      </trkpt>
      <trkpt lat="59.9050673" lon="17.8414927">
        <ele>16.9604</ele>
        <time>2013-05-16T17:10:46Z</time>
      </trkpt>
      <trkpt lat="59.905158" lon="17.841454">
        <ele>15.5184</ele>
        <time>2013-05-16T17:10:47Z</time>
      </trkpt>
      <trkpt lat="59.9052625" lon="17.8414202">
        <ele>15.0377</ele>
        <time>2013-05-16T17:10:48Z</time>
      </trkpt>
      <trkpt lat="59.905372" lon="17.8413955">
        <ele>14.0764</ele>
        <time>2013-05-16T17:10:49Z</time>
      </trkpt>
      <trkpt lat="59.9054827" lon="17.8413593">
        <ele>13.1151</ele>
        <time>2013-05-16T17:10:50Z</time>
      </trkpt>
      <trkpt lat="59.9055853" lon="17.841325">
        <ele>12.1538</ele>
        <time>2013-05-16T17:10:51Z</time>
      </trkpt>
      <trkpt lat="59.9056885" lon="17.8412755">
        <ele>11.1925</ele>
        <time>2013-05-16T17:10:52Z</time>
      </trkpt>
      <trkpt lat="59.9057925" lon="17.841211">
        <ele>10.2312</ele>
        <time>2013-05-16T17:10:53Z</time>
      </trkpt>
      <trkpt lat="59.9058861" lon="17.8411111">
        <ele>8.30859</ele>
        <time>2013-05-16T17:10:54Z</time>
      </trkpt>
      <trkpt lat="59.9059853" lon="17.840994">
        <ele>7.82788</ele>
        <time>2013-05-16T17:10:55Z</time>
      </trkpt>
      <trkpt lat="59.9060752" lon="17.8408561">
        <ele>7.34717</ele>
        <time>2013-05-16T17:10:56Z</time>
      </trkpt>
      <trkpt lat="59.9061539" lon="17.8407144">
        <ele>6.38586</ele>
        <time>2013-05-16T17:10:57Z</time>
      </trkpt>
      <trkpt lat="59.9062311" lon="17.8405849">
        <ele>5.42456</ele>
        <time>2013-05-16T17:10:58Z</time>
      </trkpt>
      <trkpt lat="59.90631" lon="17.8404729">
        <ele>4.94385</ele>
        <time>2013-05-16T17:10:59Z</time>
      </trkpt>
      <trkpt lat="59.9063876" lon="17.8403756">
        <ele>3.50195</ele>
        <time>2013-05-16T17:11:00Z</time>
      </trkpt>
      <trkpt lat="59.9064695" lon="17.8402897">
        <ele>3.02124</ele>
        <time>2013-05-16T17:11:01Z</time>
      </trkpt>
      <trkpt lat="59.9065556" lon="17.8402141">
        <ele>3.50195</ele>
        <time>2013-05-16T17:11:02Z</time>
      </trkpt>
      <trkpt lat="59.9066545" lon="17.840134">
        <ele>6.38586</ele>
        <time>2013-05-16T17:11:03Z</time>
      </trkpt>
      <trkpt lat="59.9067509" lon="17.8400559">
        <ele>8.30859</ele>
        <time>2013-05-16T17:11:04Z</time>
      </trkpt>
      <trkpt lat="59.9068441" lon="17.8399896">
        <ele>9.75061</ele>
        <time>2013-05-16T17:11:05Z</time>
      </trkpt>
      <trkpt lat="59.9069514" lon="17.8399423">
        <ele>11.6732</ele>
        <time>2013-05-16T17:11:06Z</time>
      </trkpt>
      <trkpt lat="59.907038" lon="17.8398706">
        <ele>13.1151</ele>
        <time>2013-05-16T17:11:07Z</time>
      </trkpt>
      <trkpt lat="59.907129" lon="17.839797">
        <ele>13.1151</ele>
        <time>2013-05-16T17:11:08Z</time>
      </trkpt>
      <trkpt lat="59.9072109" lon="17.8397401">
        <ele>13.5958</ele>
        <time>2013-05-16T17:11:09Z</time>
      </trkpt>
      <trkpt lat="59.9072844" lon="17.8396937">
        <ele>13.1151</ele>
        <time>2013-05-16T17:11:10Z</time>
      </trkpt>
      <trkpt lat="59.9073486" lon="17.8396545">
        <ele>12.1538</ele>
        <time>2013-05-16T17:11:11Z</time>
      </trkpt>
      <trkpt lat="59.9074124" lon="17.8395976">
        <ele>12.1538</ele>
        <time>2013-05-16T17:11:12Z</time>
      </trkpt>
      <trkpt lat="59.9074781" lon="17.8395421">
        <ele>13.1151</ele>
        <time>2013-05-16T17:11:13Z</time>
      </trkpt>
      <trkpt lat="59.9075505" lon="17.8394687">
        <ele>13.5958</ele>
        <time>2013-05-16T17:11:14Z</time>
      </trkpt>
      <trkpt lat="59.9076077" lon="17.8394038">
        <ele>14.557</ele>
        <time>2013-05-16T17:11:15Z</time>
      </trkpt>
      <trkpt lat="59.9076614" lon="17.8393302">
        <ele>15.0377</ele>
        <time>2013-05-16T17:11:16Z</time>
      </trkpt>
      <trkpt lat="59.9077159" lon="17.8392661">
        <ele>15.0377</ele>
        <time>2013-05-16T17:11:17Z</time>
      </trkpt>
      <trkpt lat="59.9077662" lon="17.8391941">
        <ele>15.0377</ele>
        <time>2013-05-16T17:11:18Z</time>
      </trkpt>
      <trkpt lat="59.9078229" lon="17.8391316">
        <ele>15.0377</ele>
        <time>2013-05-16T17:11:19Z</time>
      </trkpt>
      <trkpt lat="59.9078896" lon="17.8390627">
        <ele>14.557</ele>
        <time>2013-05-16T17:11:20Z</time>
      </trkpt>
      <trkpt lat="59.9079603" lon="17.838975">
        <ele>13.5958</ele>
        <time>2013-05-16T17:11:21Z</time>
      </trkpt>
      <trkpt lat="59.9080262" lon="17.8388905">
        <ele>12.6344</ele>
        <time>2013-05-16T17:11:22Z</time>
      </trkpt>
      <trkpt lat="59.9080892" lon="17.8388303">
        <ele>11.1925</ele>
        <time>2013-05-16T17:11:23Z</time>
      </trkpt>
      <trkpt lat="59.9081557" lon="17.8387822">
        <ele>9.75061</ele>
        <time>2013-05-16T17:11:24Z</time>
      </trkpt>
      <trkpt lat="59.9082327" lon="17.8387406">
        <ele>9.2699</ele>
        <time>2013-05-16T17:11:25Z</time>
      </trkpt>
      <trkpt lat="59.9083099" lon="17.8387215">
        <ele>7.82788</ele>
        <time>2013-05-16T17:11:26Z</time>
      </trkpt>
      <trkpt lat="59.9083836" lon="17.8387103">
        <ele>5.90527</ele>
        <time>2013-05-16T17:11:27Z</time>
      </trkpt>
      <trkpt lat="59.908466" lon="17.8387133">
        <ele>4.94385</ele>
        <time>2013-05-16T17:11:28Z</time>
      </trkpt>
      <trkpt lat="59.9085487" lon="17.8387481">
        <ele>3.98267</ele>
        <time>2013-05-16T17:11:29Z</time>
      </trkpt>
      <trkpt lat="59.9086321" lon="17.8388126">
        <ele>3.02124</ele>
        <time>2013-05-16T17:11:30Z</time>
      </trkpt>
      <trkpt lat="59.9087214" lon="17.838907">
        <ele>3.02124</ele>
        <time>2013-05-16T17:11:31Z</time>
      </trkpt>
      <trkpt lat="59.9088005" lon="17.8390225">
        <ele>2.54065</ele>
        <time>2013-05-16T17:11:32Z</time>
      </trkpt>
      <trkpt lat="59.9088747" lon="17.8391542">
        <ele>1.57935</ele>
        <time>2013-05-16T17:11:33Z</time>
      </trkpt>
      <trkpt lat="59.908954" lon="17.8393323">
        <ele>1.57935</ele>
        <time>2013-05-16T17:11:34Z</time>
      </trkpt>
      <trkpt lat="59.909023" lon="17.8394913">
        <ele>0.137451</ele>
        <time>2013-05-16T17:11:35Z</time>
      </trkpt>
      <trkpt lat="59.9090944" lon="17.8396742">
        <ele>0</ele>
        <time>2013-05-16T17:11:36Z</time>
      </trkpt>
      <trkpt lat="59.9091829" lon="17.8398964">
        <ele>0</ele>
        <time>2013-05-16T17:11:37Z</time>
      </trkpt>
      <trkpt lat="59.9092553" lon="17.8400643">
        <ele>0</ele>
        <time>2013-05-16T17:11:38Z</time>
      </trkpt>
      <trkpt lat="59.909326" lon="17.8402319">
        <ele>0</ele>
        <time>2013-05-16T17:11:39Z</time>
      </trkpt>
      <trkpt lat="59.9093897" lon="17.8404099">
        <ele>0</ele>
        <time>2013-05-16T17:11:40Z</time>
      </trkpt>
      <trkpt lat="59.9094451" lon="17.8405833">
        <ele>0</ele>
        <time>2013-05-16T17:11:41Z</time>
      </trkpt>
      <trkpt lat="59.9094979" lon="17.8407543">
        <ele>0</ele>
        <time>2013-05-16T17:11:42Z</time>
      </trkpt>
      <trkpt lat="59.9095507" lon="17.8409252">
        <ele>0</ele>
        <time>2013-05-16T17:11:43Z</time>
      </trkpt>
      <trkpt lat="59.9095919" lon="17.841107">
        <ele>0</ele>
        <time>2013-05-16T17:11:44Z</time>
      </trkpt>
      <trkpt lat="59.909623" lon="17.8413006">
        <ele>0</ele>
        <time>2013-05-16T17:11:45Z</time>
      </trkpt>
      <trkpt lat="59.9096423" lon="17.8414929">
        <ele>0</ele>
        <time>2013-05-16T17:11:46Z</time>
      </trkpt>
      <trkpt lat="59.9096506" lon="17.841684">
        <ele>0.618042</ele>
        <time>2013-05-16T17:11:47Z</time>
      </trkpt>
      <trkpt lat="59.9096538" lon="17.8418555">
        <ele>1.57935</ele>
        <time>2013-05-16T17:11:48Z</time>
      </trkpt>
      <trkpt lat="59.9096427" lon="17.8420229">
        <ele>3.02124</ele>
        <time>2013-05-16T17:11:49Z</time>
      </trkpt>
      <trkpt lat="59.9096258" lon="17.8421749">
        <ele>3.98267</ele>
        <time>2013-05-16T17:11:50Z</time>
      </trkpt>
      <trkpt lat="59.9096132" lon="17.842321">
        <ele>5.42456</ele>
        <time>2013-05-16T17:11:51Z</time>
      </trkpt>
      <trkpt lat="59.9096016" lon="17.8424583">
        <ele>5.90527</ele>
        <time>2013-05-16T17:11:52Z</time>
      </trkpt>
      <trkpt lat="59.9095893" lon="17.8425936">
        <ele>6.38586</ele>
        <time>2013-05-16T17:11:53Z</time>
      </trkpt>
      <trkpt lat="59.9095855" lon="17.8427189">
        <ele>6.38586</ele>
        <time>2013-05-16T17:11:54Z</time>
      </trkpt>
      <trkpt lat="59.9095951" lon="17.8428516">
        <ele>7.34717</ele>
        <time>2013-05-16T17:11:55Z</time>
      </trkpt>
      <trkpt lat="59.909621" lon="17.8429875">
        <ele>8.30859</ele>
        <time>2013-05-16T17:11:56Z</time>
      </trkpt>
      <trkpt lat="59.9096536" lon="17.8430852">
        <ele>7.34717</ele>
        <time>2013-05-16T17:11:57Z</time>
      </trkpt>
      <trkpt lat="59.9096935" lon="17.8431749">
        <ele>6.86646</ele>
        <time>2013-05-16T17:11:58Z</time>
      </trkpt>
      <trkpt lat="59.9097448" lon="17.8432475">
        <ele>6.86646</ele>
        <time>2013-05-16T17:11:59Z</time>
      </trkpt>
      <trkpt lat="59.9097987" lon="17.8433073">
        <ele>6.86646</ele>
        <time>2013-05-16T17:12:00Z</time>
      </trkpt>
      <trkpt lat="59.9098558" lon="17.8433698">
        <ele>7.34717</ele>
        <time>2013-05-16T17:12:01Z</time>
      </trkpt>
      <trkpt lat="59.9099131" lon="17.8434265">
        <ele>7.34717</ele>
        <time>2013-05-16T17:12:02Z</time>
      </trkpt>
      <trkpt lat="59.9099686" lon="17.8434835">
        <ele>6.86646</ele>
        <time>2013-05-16T17:12:03Z</time>
      </trkpt>
      <trkpt lat="59.9100291" lon="17.8435444">
        <ele>7.82788</ele>
        <time>2013-05-16T17:12:04Z</time>
      </trkpt>
      <trkpt lat="59.9100893" lon="17.8436262">
        <ele>8.78918</ele>
        <time>2013-05-16T17:12:05Z</time>
      </trkpt>
      <trkpt lat="59.9101639" lon="17.8437033">
        <ele>10.7118</ele>
        <time>2013-05-16T17:12:06Z</time>
      </trkpt>
      <trkpt lat="59.9102403" lon="17.8437702">
        <ele>11.6732</ele>
        <time>2013-05-16T17:12:07Z</time>
      </trkpt>
      <trkpt lat="59.9103168" lon="17.8438384">
        <ele>11.6732</ele>
        <time>2013-05-16T17:12:08Z</time>
      </trkpt>
      <trkpt lat="59.9104019" lon="17.8438911">
        <ele>10.2312</ele>
        <time>2013-05-16T17:12:09Z</time>
      </trkpt>
      <trkpt lat="59.9104829" lon="17.8439513">
        <ele>9.2699</ele>
        <time>2013-05-16T17:12:10Z</time>
      </trkpt>
      <trkpt lat="59.910565" lon="17.8440094">
        <ele>8.78918</ele>
        <time>2013-05-16T17:12:11Z</time>
      </trkpt>
      <trkpt lat="59.9106469" lon="17.8440679">
        <ele>9.75061</ele>
        <time>2013-05-16T17:12:12Z</time>
      </trkpt>
      <trkpt lat="59.9107317" lon="17.844129">
        <ele>9.75061</ele>
        <time>2013-05-16T17:12:13Z</time>
      </trkpt>
      <trkpt lat="59.9108082" lon="17.8442079">
        <ele>9.75061</ele>
        <time>2013-05-16T17:12:14Z</time>
      </trkpt>
      <trkpt lat="59.9108862" lon="17.8442781">
        <ele>8.30859</ele>
        <time>2013-05-16T17:12:15Z</time>
      </trkpt>
      <trkpt lat="59.910984" lon="17.8443285">
        <ele>9.75061</ele>
        <time>2013-05-16T17:12:16Z</time>
      </trkpt>
      <trkpt lat="59.9110788" lon="17.844362">
        <ele>9.75061</ele>
        <time>2013-05-16T17:12:17Z</time>
      </trkpt>
      <trkpt lat="59.9111739" lon="17.8443824">
        <ele>10.2312</ele>
        <time>2013-05-16T17:12:18Z</time>
      </trkpt>
      <trkpt lat="59.9112706" lon="17.8443927">
        <ele>10.7118</ele>
        <time>2013-05-16T17:12:19Z</time>
      </trkpt>
      <trkpt lat="59.9113649" lon="17.8443944">
        <ele>10.7118</ele>
        <time>2013-05-16T17:12:20Z</time>
      </trkpt>
      <trkpt lat="59.9114607" lon="17.8443917">
        <ele>11.1925</ele>
        <time>2013-05-16T17:12:21Z</time>
      </trkpt>
      <trkpt lat="59.9115544" lon="17.8443835">
        <ele>11.1925</ele>
        <time>2013-05-16T17:12:22Z</time>
      </trkpt>
      <trkpt lat="59.9116505" lon="17.8443689">
        <ele>12.1538</ele>
        <time>2013-05-16T17:12:23Z</time>
      </trkpt>
      <trkpt lat="59.9117491" lon="17.8443466">
        <ele>13.5958</ele>
        <time>2013-05-16T17:12:24Z</time>
      </trkpt>
      <trkpt lat="59.9118446" lon="17.8443136">
        <ele>14.557</ele>
        <time>2013-05-16T17:12:25Z</time>
      </trkpt>
      <trkpt lat="59.9119388" lon="17.8442808">
        <ele>15.999</ele>
        <time>2013-05-16T17:12:26Z</time>
      </trkpt>
      <trkpt lat="59.9120256" lon="17.8442211">
        <ele>15.5184</ele>
        <time>2013-05-16T17:12:27Z</time>
      </trkpt>
      <trkpt lat="59.9121133" lon="17.8441455">
        <ele>15.999</ele>
        <time>2013-05-16T17:12:28Z</time>
      </trkpt>
      <trkpt lat="59.9122013" lon="17.8440621">
        <ele>16.9604</ele>
        <time>2013-05-16T17:12:29Z</time>
      </trkpt>
      <trkpt lat="59.9122811" lon="17.8439778">
        <ele>17.4412</ele>
        <time>2013-05-16T17:12:30Z</time>
      </trkpt>
      <trkpt lat="59.9123623" lon="17.8438928">
        <ele>17.9218</ele>
        <time>2013-05-16T17:12:31Z</time>
      </trkpt>
      <trkpt lat="59.9124436" lon="17.8438073">
        <ele>18.8831</ele>
        <time>2013-05-16T17:12:32Z</time>
      </trkpt>
      <trkpt lat="59.9125231" lon="17.8437286">
        <ele>19.3638</ele>
        <time>2013-05-16T17:12:33Z</time>
      </trkpt>
      <trkpt lat="59.912605" lon="17.8436533">
        <ele>19.8444</ele>
        <time>2013-05-16T17:12:34Z</time>
      </trkpt>
      <trkpt lat="59.9126907" lon="17.8435751">
        <ele>19.8444</ele>
        <time>2013-05-16T17:12:35Z</time>
      </trkpt>
      <trkpt lat="59.9127716" lon="17.8435075">
        <ele>19.3638</ele>
        <time>2013-05-16T17:12:36Z</time>
      </trkpt>
      <trkpt lat="59.9128583" lon="17.843455">
        <ele>18.8831</ele>
        <time>2013-05-16T17:12:37Z</time>
      </trkpt>
      <trkpt lat="59.9129474" lon="17.8434118">
        <ele>17.9218</ele>
        <time>2013-05-16T17:12:38Z</time>
      </trkpt>
      <trkpt lat="59.9130359" lon="17.8433728">
        <ele>16.9604</ele>
        <time>2013-05-16T17:12:39Z</time>
      </trkpt>
      <trkpt lat="59.9131274" lon="17.843337">
        <ele>15.5184</ele>
        <time>2013-05-16T17:12:40Z</time>
      </trkpt>
      <trkpt lat="59.9132161" lon="17.843311">
        <ele>14.0764</ele>
        <time>2013-05-16T17:12:41Z</time>
      </trkpt>
      <trkpt lat="59.9133041" lon="17.8432873">
        <ele>12.1538</ele>
        <time>2013-05-16T17:12:42Z</time>
      </trkpt>
      <trkpt lat="59.9133972" lon="17.843255">
        <ele>11.1925</ele>
        <time>2013-05-16T17:12:43Z</time>
      </trkpt>
      <trkpt lat="59.9134902" lon="17.8432165">
        <ele>10.7118</ele>
        <time>2013-05-16T17:12:44Z</time>
      </trkpt>
      <trkpt lat="59.9135797" lon="17.8431682">
        <ele>10.7118</ele>
        <time>2013-05-16T17:12:45Z</time>
      </trkpt>
      <trkpt lat="59.913672" lon="17.8431081">
        <ele>10.7118</ele>
        <time>2013-05-16T17:12:46Z</time>
      </trkpt>
      <trkpt lat="59.9137616" lon="17.8430369">
        <ele>10.7118</ele>
        <time>2013-05-16T17:12:47Z</time>
      </trkpt>
      <trkpt lat="59.9138528" lon="17.8429631">
        <ele>11.1925</ele>
        <time>2013-05-16T17:12:48Z</time>
      </trkpt>
      <trkpt lat="59.9139425" lon="17.8428841">
        <ele>11.6732</ele>
        <time>2013-05-16T17:12:49Z</time>
      </trkpt>
      <trkpt lat="59.9140326" lon="17.8428">
        <ele>12.1538</ele>
        <time>2013-05-16T17:12:50Z</time>
      </trkpt>
      <trkpt lat="59.9141248" lon="17.8427119">
        <ele>13.1151</ele>
        <time>2013-05-16T17:12:51Z</time>
      </trkpt>
      <trkpt lat="59.9142153" lon="17.8426165">
        <ele>13.5958</ele>
        <time>2013-05-16T17:12:52Z</time>
      </trkpt>
      <trkpt lat="59.914297" lon="17.8425196">
        <ele>12.6344</ele>
        <time>2013-05-16T17:12:53Z</time>
      </trkpt>
      <trkpt lat="59.914387" lon="17.8424207">
        <ele>14.0764</ele>
        <time>2013-05-16T17:12:54Z</time>
      </trkpt>
      <trkpt lat="59.9144739" lon="17.8423207">
        <ele>14.557</ele>
        <time>2013-05-16T17:12:55Z</time>
      </trkpt>
      <trkpt lat="59.9145671" lon="17.8422169">
        <ele>15.0377</ele>
        <time>2013-05-16T17:12:56Z</time>
      </trkpt>
      <trkpt lat="59.9146656" lon="17.8421077">
        <ele>16.4797</ele>
        <time>2013-05-16T17:12:57Z</time>
      </trkpt>
      <trkpt lat="59.9147593" lon="17.8420128">
        <ele>17.4412</ele>
        <time>2013-05-16T17:12:58Z</time>
      </trkpt>
      <trkpt lat="59.9148606" lon="17.8419441">
        <ele>18.4023</ele>
        <time>2013-05-16T17:12:59Z</time>
      </trkpt>
      <trkpt lat="59.9149568" lon="17.8418952">
        <ele>18.8831</ele>
        <time>2013-05-16T17:13:00Z</time>
      </trkpt>
      <trkpt lat="59.9150525" lon="17.8418588">
        <ele>19.8444</ele>
        <time>2013-05-16T17:13:01Z</time>
      </trkpt>
      <trkpt lat="59.915137" lon="17.8418386">
        <ele>20.8057</ele>
        <time>2013-05-16T17:13:02Z</time>
      </trkpt>
      <trkpt lat="59.9152208" lon="17.8418316">
        <ele>21.767</ele>
        <time>2013-05-16T17:13:03Z</time>
      </trkpt>
      <trkpt lat="59.9152984" lon="17.8418473">
        <ele>22.2476</ele>
        <time>2013-05-16T17:13:04Z</time>
      </trkpt>
      <trkpt lat="59.9153623" lon="17.8419064">
        <ele>22.2476</ele>
        <time>2013-05-16T17:13:05Z</time>
      </trkpt>
      <trkpt lat="59.9154343" lon="17.8419489">
        <ele>23.209</ele>
        <time>2013-05-16T17:13:06Z</time>
      </trkpt>
      <trkpt lat="59.915512" lon="17.8419861">
        <ele>23.6896</ele>
        <time>2013-05-16T17:13:07Z</time>
      </trkpt>
      <trkpt lat="59.9155933" lon="17.8419922">
        <ele>24.1703</ele>
        <time>2013-05-16T17:13:08Z</time>
      </trkpt>
      <trkpt lat="59.915674" lon="17.8419923">
        <ele>24.651</ele>
        <time>2013-05-16T17:13:09Z</time>
      </trkpt>
      <trkpt lat="59.9157477" lon="17.8419907">
        <ele>24.1703</ele>
        <time>2013-05-16T17:13:10Z</time>
      </trkpt>
      <trkpt lat="59.9158072" lon="17.8419975">
        <ele>22.2476</ele>
        <time>2013-05-16T17:13:11Z</time>
      </trkpt>
      <trkpt lat="59.9158777" lon="17.841997">
        <ele>21.767</ele>
        <time>2013-05-16T17:13:12Z</time>
      </trkpt>
      <trkpt lat="59.9159486" lon="17.84201">
        <ele>21.2864</ele>
        <time>2013-05-16T17:13:13Z</time>
      </trkpt>
      <trkpt lat="59.916019" lon="17.8420377">
        <ele>20.8057</ele>
        <time>2013-05-16T17:13:14Z</time>
      </trkpt>
      <trkpt lat="59.9160874" lon="17.8420735">
        <ele>20.8057</ele>
        <time>2013-05-16T17:13:15Z</time>
      </trkpt>
      <trkpt lat="59.9161643" lon="17.8421126">
        <ele>21.767</ele>
        <time>2013-05-16T17:13:16Z</time>
      </trkpt>
      <trkpt lat="59.9162215" lon="17.8421808">
        <ele>21.767</ele>
        <time>2013-05-16T17:13:17Z</time>
      </trkpt>
      <trkpt lat="59.9162681" lon="17.8422513">
        <ele>19.8444</ele>
        <time>2013-05-16T17:13:18Z</time>
      </trkpt>
      <trkpt lat="59.9163126" lon="17.8423273">
        <ele>18.8831</ele>
        <time>2013-05-16T17:13:19Z</time>
      </trkpt>
      <trkpt lat="59.9163553" lon="17.8423992">
        <ele>16.9604</ele>
        <time>2013-05-16T17:13:20Z</time>
      </trkpt>
      <trkpt lat="59.9163953" lon="17.8424652">
        <ele>15.5184</ele>
        <time>2013-05-16T17:13:21Z</time>
      </trkpt>
      <trkpt lat="59.9164323" lon="17.8425274">
        <ele>13.5958</ele>
        <time>2013-05-16T17:13:22Z</time>
      </trkpt>
      <trkpt lat="59.9164686" lon="17.8425914">
        <ele>12.1538</ele>
        <time>2013-05-16T17:13:23Z</time>
      </trkpt>
      <trkpt lat="59.9165087" lon="17.8426582">
        <ele>11.6732</ele>
        <time>2013-05-16T17:13:24Z</time>
      </trkpt>
      <trkpt lat="59.916554" lon="17.8427279">
        <ele>11.6732</ele>
        <time>2013-05-16T17:13:25Z</time>
      </trkpt>
      <trkpt lat="59.9166024" lon="17.8427976">
        <ele>13.1151</ele>
        <time>2013-05-16T17:13:26Z</time>
      </trkpt>
      <trkpt lat="59.9166483" lon="17.8428635">
        <ele>14.0764</ele>
        <time>2013-05-16T17:13:27Z</time>
      </trkpt>
      <trkpt lat="59.916693" lon="17.8429232">
        <ele>14.557</ele>
        <time>2013-05-16T17:13:28Z</time>
      </trkpt>
      <trkpt lat="59.9167387" lon="17.8429775">
        <ele>15.5184</ele>
        <time>2013-05-16T17:13:29Z</time>
      </trkpt>
      <trkpt lat="59.9167806" lon="17.8430198">
        <ele>15.5184</ele>
        <time>2013-05-16T17:13:30Z</time>
      </trkpt>
      <trkpt lat="59.9168211" lon="17.8430559">
        <ele>15.5184</ele>
        <time>2013-05-16T17:13:31Z</time>
      </trkpt>
      <trkpt lat="59.9168578" lon="17.8430861">
        <ele>14.0764</ele>
        <time>2013-05-16T17:13:32Z</time>
      </trkpt>
      <trkpt lat="59.9168914" lon="17.8431122">
        <ele>12.6344</ele>
        <time>2013-05-16T17:13:33Z</time>
      </trkpt>
      <trkpt lat="59.9169194" lon="17.8431376">
        <ele>11.1925</ele>
        <time>2013-05-16T17:13:34Z</time>
      </trkpt>
      <trkpt lat="59.9169462" lon="17.843164">
        <ele>10.7118</ele>
        <time>2013-05-16T17:13:35Z</time>
      </trkpt>
      <trkpt lat="59.9169715" lon="17.8431764">
        <ele>10.2312</ele>
        <time>2013-05-16T17:13:36Z</time>
      </trkpt>
      <trkpt lat="59.9169964" lon="17.8431649">
        <ele>10.7118</ele>
        <time>2013-05-16T17:13:37Z</time>
      </trkpt>
      <trkpt lat="59.9170085" lon="17.8431479">
        <ele>10.2312</ele>
        <time>2013-05-16T17:13:38Z</time>
      </trkpt>
      <trkpt lat="59.9170083" lon="17.8431312">
        <ele>9.2699</ele>
        <time>2013-05-16T17:13:39Z</time>
      </trkpt>
      <trkpt lat="59.9170017" lon="17.8431216">
        <ele>7.82788</ele>
        <time>2013-05-16T17:13:40Z</time>
      </trkpt>
      <trkpt lat="59.9169981" lon="17.8431152">
        <ele>6.86646</ele>
        <time>2013-05-16T17:13:41Z</time>
      </trkpt>
      <trkpt lat="59.916996" lon="17.8431107">
        <ele>6.38586</ele>
        <time>2013-05-16T17:13:42Z</time>
      </trkpt>
      <trkpt lat="59.9169946" lon="17.843107">
        <ele>5.90527</ele>
        <time>2013-05-16T17:13:43Z</time>
      </trkpt>
      <trkpt lat="59.9169496" lon="17.8429775">
        <ele>0</ele>
        <time>2013-05-16T17:15:43Z</time>
      </trkpt>
      <trkpt lat="59.9169524" lon="17.8429812">
        <ele>0</ele>
        <time>2013-05-16T17:15:44Z</time>
      </trkpt>
      <trkpt lat="59.9169438" lon="17.8429746">
        <ele>0</ele>
        <time>2013-05-16T17:15:45Z</time>
      </trkpt>
      <trkpt lat="59.9169572" lon="17.8429732">
        <ele>0</ele>
        <time>2013-05-16T17:15:46Z</time>
      </trkpt>
      <trkpt lat="59.9169717" lon="17.8429694">
        <ele>0</ele>
        <time>2013-05-16T17:15:47Z</time>
      </trkpt>
      <trkpt lat="59.916981" lon="17.8429714">
        <ele>0</ele>
        <time>2013-05-16T17:15:48Z</time>
      </trkpt>
      <trkpt lat="59.9169929" lon="17.8429693">
        <ele>0</ele>
        <time>2013-05-16T17:15:49Z</time>
      </trkpt>
      <trkpt lat="59.9169981" lon="17.8429727">
        <ele>0.618042</ele>
        <time>2013-05-16T17:15:50Z</time>
      </trkpt>
      <trkpt lat="59.9170007" lon="17.842974">
        <ele>0.137451</ele>
        <time>2013-05-16T17:15:51Z</time>
      </trkpt>
      <trkpt lat="59.9170095" lon="17.8429791">
        <ele>2.06006</ele>
        <time>2013-05-16T17:15:52Z</time>
      </trkpt>
      <trkpt lat="59.9170256" lon="17.8429901">
        <ele>6.86646</ele>
        <time>2013-05-16T17:15:53Z</time>
      </trkpt>
      <trkpt lat="59.917041" lon="17.843001">
        <ele>10.7118</ele>
        <time>2013-05-16T17:15:54Z</time>
      </trkpt>
      <trkpt lat="59.9170508" lon="17.8430072">
        <ele>13.1151</ele>
        <time>2013-05-16T17:15:55Z</time>
      </trkpt>
      <trkpt lat="59.9170583" lon="17.8430126">
        <ele>14.557</ele>
        <time>2013-05-16T17:15:56Z</time>
      </trkpt>
      <trkpt lat="59.9170648" lon="17.8430159">
        <ele>15.5184</ele>
        <time>2013-05-16T17:15:57Z</time>
      </trkpt>
      <trkpt lat="59.9170699" lon="17.8430181">
        <ele>16.4797</ele>
        <time>2013-05-16T17:15:58Z</time>
      </trkpt>
      <trkpt lat="59.9170727" lon="17.8430175">
        <ele>16.4797</ele>
        <time>2013-05-16T17:15:59Z</time>
      </trkpt>
      <trkpt lat="59.9170779" lon="17.8430204">
        <ele>17.4412</ele>
        <time>2013-05-16T17:16:00Z</time>
      </trkpt>
      <trkpt lat="59.917081" lon="17.8430242">
        <ele>17.9218</ele>
        <time>2013-05-16T17:16:01Z</time>
      </trkpt>
      <trkpt lat="59.9170826" lon="17.8430267">
        <ele>17.4412</ele>
        <time>2013-05-16T17:16:02Z</time>
      </trkpt>
      <trkpt lat="59.9170889" lon="17.8431298">
        <ele>25.1317</ele>
        <time>2013-05-16T17:19:49Z</time>
      </trkpt>
      <trkpt lat="59.9170984" lon="17.8431242">
        <ele>24.651</ele>
        <time>2013-05-16T17:19:50Z</time>
      </trkpt>
      <trkpt lat="59.9171088" lon="17.8431265">
        <ele>25.1317</ele>
        <time>2013-05-16T17:19:51Z</time>
      </trkpt>
      <trkpt lat="59.9171155" lon="17.8431319">
        <ele>26.5736</ele>
        <time>2013-05-16T17:19:52Z</time>
      </trkpt>
      <trkpt lat="59.917121" lon="17.8431417">
        <ele>27.0543</ele>
        <time>2013-05-16T17:19:53Z</time>
      </trkpt>
      <trkpt lat="59.9171318" lon="17.8431433">
        <ele>29.9381</ele>
        <time>2013-05-16T17:19:54Z</time>
      </trkpt>
      <trkpt lat="59.9171362" lon="17.8431439">
        <ele>29.9381</ele>
        <time>2013-05-16T17:19:55Z</time>
      </trkpt>
      <trkpt lat="59.9171396" lon="17.8431465">
        <ele>31.3801</ele>
        <time>2013-05-16T17:19:56Z</time>
      </trkpt>
      <trkpt lat="59.9171489" lon="17.8431424">
        <ele>32.8223</ele>
        <time>2013-05-16T17:19:57Z</time>
      </trkpt>
      <trkpt lat="59.9171587" lon="17.843131">
        <ele>33.3029</ele>
        <time>2013-05-16T17:19:58Z</time>
      </trkpt>
      <trkpt lat="59.9171706" lon="17.8431236">
        <ele>35.2255</ele>
        <time>2013-05-16T17:19:59Z</time>
      </trkpt>
      <trkpt lat="59.917172" lon="17.8431203">
        <ele>35.2255</ele>
        <time>2013-05-16T17:20:00Z</time>
      </trkpt>
      <trkpt lat="59.9171871" lon="17.8431236">
        <ele>39.0707</ele>
        <time>2013-05-16T17:20:01Z</time>
      </trkpt>
      <trkpt lat="59.9171909" lon="17.8431309">
        <ele>42.4354</ele>
        <time>2013-05-16T17:20:02Z</time>
      </trkpt>
      <trkpt lat="59.9171979" lon="17.8431283">
        <ele>43.3966</ele>
        <time>2013-05-16T17:20:03Z</time>
      </trkpt>
      <trkpt lat="59.9172048" lon="17.8431253">
        <ele>44.8386</ele>
        <time>2013-05-16T17:20:04Z</time>
      </trkpt>
      <trkpt lat="59.917196" lon="17.843131">
        <ele>44.358</ele>
        <time>2013-05-16T17:20:05Z</time>
      </trkpt>
      <trkpt lat="59.9171937" lon="17.8431242">
        <ele>43.3966</ele>
        <time>2013-05-16T17:20:06Z</time>
      </trkpt>
      <trkpt lat="59.9171845" lon="17.8431281">
        <ele>42.4354</ele>
        <time>2013-05-16T17:20:07Z</time>
      </trkpt>
      <trkpt lat="59.917187" lon="17.8431262">
        <ele>42.4354</ele>
        <time>2013-05-16T17:20:08Z</time>
      </trkpt>
      <trkpt lat="59.917185" lon="17.8431247">
        <ele>41.474</ele>
        <time>2013-05-16T17:20:09Z</time>
      </trkpt>
      <trkpt lat="59.9170767" lon="17.8430209">
        <ele>2.06006</ele>
        <time>2013-05-16T17:23:32Z</time>
      </trkpt>
      <trkpt lat="59.9171012" lon="17.8429932">
        <ele>2.54065</ele>
        <time>2013-05-16T17:23:33Z</time>
      </trkpt>
      <trkpt lat="59.9171333" lon="17.8429614">
        <ele>4.94385</ele>
        <time>2013-05-16T17:23:34Z</time>
      </trkpt>
      <trkpt lat="59.9171732" lon="17.8429277">
        <ele>6.86646</ele>
        <time>2013-05-16T17:23:35Z</time>
      </trkpt>
      <trkpt lat="59.9172139" lon="17.842893">
        <ele>7.34717</ele>
        <time>2013-05-16T17:23:36Z</time>
      </trkpt>
      <trkpt lat="59.9172593" lon="17.8428548">
        <ele>8.78918</ele>
        <time>2013-05-16T17:23:37Z</time>
      </trkpt>
      <trkpt lat="59.9173096" lon="17.8428123">
        <ele>9.2699</ele>
        <time>2013-05-16T17:23:38Z</time>
      </trkpt>
      <trkpt lat="59.9173673" lon="17.8427673">
        <ele>10.7118</ele>
        <time>2013-05-16T17:23:39Z</time>
      </trkpt>
      <trkpt lat="59.9174268" lon="17.8427241">
        <ele>11.1925</ele>
        <time>2013-05-16T17:23:40Z</time>
      </trkpt>
      <trkpt lat="59.9174886" lon="17.8426697">
        <ele>12.1538</ele>
        <time>2013-05-16T17:23:41Z</time>
      </trkpt>
      <trkpt lat="59.9175484" lon="17.8426175">
        <ele>13.1151</ele>
        <time>2013-05-16T17:23:42Z</time>
      </trkpt>
      <trkpt lat="59.917605" lon="17.8425594">
        <ele>13.5958</ele>
        <time>2013-05-16T17:23:43Z</time>
      </trkpt>
      <trkpt lat="59.9176592" lon="17.8425081">
        <ele>12.6344</ele>
        <time>2013-05-16T17:23:44Z</time>
      </trkpt>
      <trkpt lat="59.9177149" lon="17.8424486">
        <ele>11.6732</ele>
        <time>2013-05-16T17:23:45Z</time>
      </trkpt>
      <trkpt lat="59.91777" lon="17.8423838">
        <ele>11.1925</ele>
        <time>2013-05-16T17:23:46Z</time>
      </trkpt>
      <trkpt lat="59.917829" lon="17.8423185">
        <ele>10.2312</ele>
        <time>2013-05-16T17:23:47Z</time>
      </trkpt>
      <trkpt lat="59.9178892" lon="17.8422538">
        <ele>9.75061</ele>
        <time>2013-05-16T17:23:48Z</time>
      </trkpt>
      <trkpt lat="59.9179512" lon="17.842185">
        <ele>8.78918</ele>
        <time>2013-05-16T17:23:49Z</time>
      </trkpt>
      <trkpt lat="59.9180145" lon="17.8421144">
        <ele>8.30859</ele>
        <time>2013-05-16T17:23:50Z</time>
      </trkpt>
      <trkpt lat="59.9180824" lon="17.842041">
        <ele>7.82788</ele>
        <time>2013-05-16T17:23:51Z</time>
      </trkpt>
      <trkpt lat="59.9181482" lon="17.8419638">
        <ele>6.86646</ele>
        <time>2013-05-16T17:23:52Z</time>
      </trkpt>
      <trkpt lat="59.9182179" lon="17.841888">
        <ele>6.38586</ele>
        <time>2013-05-16T17:23:53Z</time>
      </trkpt>
      <trkpt lat="59.9182904" lon="17.8418131">
        <ele>6.38586</ele>
        <time>2013-05-16T17:23:54Z</time>
      </trkpt>
      <trkpt lat="59.9183645" lon="17.8417403">
        <ele>5.90527</ele>
        <time>2013-05-16T17:23:55Z</time>
      </trkpt>
      <trkpt lat="59.9184404" lon="17.8416696">
        <ele>5.90527</ele>
        <time>2013-05-16T17:23:56Z</time>
      </trkpt>
      <trkpt lat="59.9185178" lon="17.8415995">
        <ele>5.90527</ele>
        <time>2013-05-16T17:23:57Z</time>
      </trkpt>
      <trkpt lat="59.9185957" lon="17.8415319">
        <ele>5.90527</ele>
        <time>2013-05-16T17:23:58Z</time>
      </trkpt>
      <trkpt lat="59.918673" lon="17.8414677">
        <ele>5.90527</ele>
        <time>2013-05-16T17:23:59Z</time>
      </trkpt>
      <trkpt lat="59.9187511" lon="17.841408">
        <ele>5.90527</ele>
        <time>2013-05-16T17:24:00Z</time>
      </trkpt>
      <trkpt lat="59.9188287" lon="17.8413514">
        <ele>6.38586</ele>
        <time>2013-05-16T17:24:01Z</time>
      </trkpt>
      <trkpt lat="59.918907" lon="17.8412975">
        <ele>6.38586</ele>
        <time>2013-05-16T17:24:02Z</time>
      </trkpt>
      <trkpt lat="59.9189846" lon="17.8412448">
        <ele>6.86646</ele>
        <time>2013-05-16T17:24:03Z</time>
      </trkpt>
      <trkpt lat="59.9190601" lon="17.8411909">
        <ele>6.86646</ele>
        <time>2013-05-16T17:24:04Z</time>
      </trkpt>
      <trkpt lat="59.9191359" lon="17.8411365">
        <ele>6.86646</ele>
        <time>2013-05-16T17:24:05Z</time>
      </trkpt>
      <trkpt lat="59.9192111" lon="17.8410825">
        <ele>6.86646</ele>
        <time>2013-05-16T17:24:06Z</time>
      </trkpt>
      <trkpt lat="59.9192858" lon="17.8410307">
        <ele>6.86646</ele>
        <time>2013-05-16T17:24:07Z</time>
      </trkpt>
      <trkpt lat="59.9193609" lon="17.8409785">
        <ele>7.34717</ele>
        <time>2013-05-16T17:24:08Z</time>
      </trkpt>
      <trkpt lat="59.9194365" lon="17.8409299">
        <ele>7.34717</ele>
        <time>2013-05-16T17:24:09Z</time>
      </trkpt>
      <trkpt lat="59.9195126" lon="17.8408838">
        <ele>7.34717</ele>
        <time>2013-05-16T17:24:10Z</time>
      </trkpt>
      <trkpt lat="59.9195867" lon="17.8408408">
        <ele>7.82788</ele>
        <time>2013-05-16T17:24:11Z</time>
      </trkpt>
      <trkpt lat="59.9196597" lon="17.8408027">
        <ele>7.82788</ele>
        <time>2013-05-16T17:24:12Z</time>
      </trkpt>
      <trkpt lat="59.9197335" lon="17.8407724">
        <ele>7.82788</ele>
        <time>2013-05-16T17:24:13Z</time>
      </trkpt>
      <trkpt lat="59.9198081" lon="17.8407518">
        <ele>8.30859</ele>
        <time>2013-05-16T17:24:14Z</time>
      </trkpt>
      <trkpt lat="59.9198829" lon="17.8407418">
        <ele>8.30859</ele>
        <time>2013-05-16T17:24:15Z</time>
      </trkpt>
      <trkpt lat="59.9199574" lon="17.8407397">
        <ele>8.30859</ele>
        <time>2013-05-16T17:24:16Z</time>
      </trkpt>
      <trkpt lat="59.9200324" lon="17.8407387">
        <ele>8.30859</ele>
        <time>2013-05-16T17:24:17Z</time>
      </trkpt>
      <trkpt lat="59.9201083" lon="17.8407387">
        <ele>8.78918</ele>
        <time>2013-05-16T17:24:18Z</time>
      </trkpt>
      <trkpt lat="59.920186" lon="17.8407422">
        <ele>9.75061</ele>
        <time>2013-05-16T17:24:19Z</time>
      </trkpt>
      <trkpt lat="59.9202558" lon="17.8407442">
        <ele>10.2312</ele>
        <time>2013-05-16T17:24:20Z</time>
      </trkpt>
      <trkpt lat="59.9203251" lon="17.8407486">
        <ele>10.2312</ele>
        <time>2013-05-16T17:24:21Z</time>
      </trkpt>
      <trkpt lat="59.9203889" lon="17.840751">
        <ele>10.2312</ele>
        <time>2013-05-16T17:24:22Z</time>
      </trkpt>
      <trkpt lat="59.9204546" lon="17.8407481">
        <ele>9.75061</ele>
        <time>2013-05-16T17:24:23Z</time>
      </trkpt>
      <trkpt lat="59.9205247" lon="17.8407417">
        <ele>9.75061</ele>
        <time>2013-05-16T17:24:24Z</time>
      </trkpt>
      <trkpt lat="59.9205956" lon="17.8407324">
        <ele>9.75061</ele>
        <time>2013-05-16T17:24:25Z</time>
      </trkpt>
      <trkpt lat="59.9206682" lon="17.8407259">
        <ele>9.2699</ele>
        <time>2013-05-16T17:24:26Z</time>
      </trkpt>
      <trkpt lat="59.9207423" lon="17.8407256">
        <ele>9.2699</ele>
        <time>2013-05-16T17:24:27Z</time>
      </trkpt>
      <trkpt lat="59.9208172" lon="17.8407259">
        <ele>9.2699</ele>
        <time>2013-05-16T17:24:28Z</time>
      </trkpt>
      <trkpt lat="59.9208925" lon="17.8407232">
        <ele>8.78918</ele>
        <time>2013-05-16T17:24:29Z</time>
      </trkpt>
      <trkpt lat="59.9209682" lon="17.8407224">
        <ele>8.78918</ele>
        <time>2013-05-16T17:24:30Z</time>
      </trkpt>
      <trkpt lat="59.9210444" lon="17.8407228">
        <ele>8.78918</ele>
        <time>2013-05-16T17:24:31Z</time>
      </trkpt>
      <trkpt lat="59.9211214" lon="17.840722">
        <ele>8.30859</ele>
        <time>2013-05-16T17:24:32Z</time>
      </trkpt>
      <trkpt lat="59.9211987" lon="17.8407184">
        <ele>8.30859</ele>
        <time>2013-05-16T17:24:33Z</time>
      </trkpt>
      <trkpt lat="59.9212759" lon="17.8407119">
        <ele>8.30859</ele>
        <time>2013-05-16T17:24:34Z</time>
      </trkpt>
      <trkpt lat="59.9213525" lon="17.8407017">
        <ele>8.30859</ele>
        <time>2013-05-16T17:24:35Z</time>
      </trkpt>
      <trkpt lat="59.9214282" lon="17.840689">
        <ele>8.30859</ele>
        <time>2013-05-16T17:24:36Z</time>
      </trkpt>
      <trkpt lat="59.9215038" lon="17.8406758">
        <ele>7.82788</ele>
        <time>2013-05-16T17:24:37Z</time>
      </trkpt>
      <trkpt lat="59.9215794" lon="17.8406589">
        <ele>7.82788</ele>
        <time>2013-05-16T17:24:38Z</time>
      </trkpt>
      <trkpt lat="59.921655" lon="17.8406372">
        <ele>7.82788</ele>
        <time>2013-05-16T17:24:39Z</time>
      </trkpt>
      <trkpt lat="59.9217312" lon="17.8406164">
        <ele>7.82788</ele>
        <time>2013-05-16T17:24:40Z</time>
      </trkpt>
      <trkpt lat="59.9218079" lon="17.8405978">
        <ele>7.82788</ele>
        <time>2013-05-16T17:24:41Z</time>
      </trkpt>
      <trkpt lat="59.9218848" lon="17.8405782">
        <ele>7.82788</ele>
        <time>2013-05-16T17:24:42Z</time>
      </trkpt>
      <trkpt lat="59.921962" lon="17.8405568">
        <ele>7.82788</ele>
        <time>2013-05-16T17:24:43Z</time>
      </trkpt>
      <trkpt lat="59.9220395" lon="17.8405331">
        <ele>7.82788</ele>
        <time>2013-05-16T17:24:44Z</time>
      </trkpt>
      <trkpt lat="59.9221172" lon="17.8405102">
        <ele>7.82788</ele>
        <time>2013-05-16T17:24:45Z</time>
      </trkpt>
      <trkpt lat="59.9221948" lon="17.8404869">
        <ele>7.82788</ele>
        <time>2013-05-16T17:24:46Z</time>
      </trkpt>
      <trkpt lat="59.9222714" lon="17.8404596">
        <ele>7.82788</ele>
        <time>2013-05-16T17:24:47Z</time>
      </trkpt>
      <trkpt lat="59.9223466" lon="17.8404279">
        <ele>7.82788</ele>
        <time>2013-05-16T17:24:48Z</time>
      </trkpt>
      <trkpt lat="59.9224233" lon="17.8403951">
        <ele>7.82788</ele>
        <time>2013-05-16T17:24:49Z</time>
      </trkpt>
      <trkpt lat="59.9224989" lon="17.8403595">
        <ele>8.30859</ele>
        <time>2013-05-16T17:24:50Z</time>
      </trkpt>
      <trkpt lat="59.922573" lon="17.8403221">
        <ele>8.30859</ele>
        <time>2013-05-16T17:24:51Z</time>
      </trkpt>
      <trkpt lat="59.9226463" lon="17.8402847">
        <ele>8.30859</ele>
        <time>2013-05-16T17:24:52Z</time>
      </trkpt>
      <trkpt lat="59.9227185" lon="17.8402471">
        <ele>8.30859</ele>
        <time>2013-05-16T17:24:53Z</time>
      </trkpt>
      <trkpt lat="59.9227912" lon="17.8402087">
        <ele>8.30859</ele>
        <time>2013-05-16T17:24:54Z</time>
      </trkpt>
      <trkpt lat="59.9228647" lon="17.8401705">
        <ele>8.78918</ele>
        <time>2013-05-16T17:24:55Z</time>
      </trkpt>
      <trkpt lat="59.9229391" lon="17.8401306">
        <ele>8.78918</ele>
        <time>2013-05-16T17:24:56Z</time>
      </trkpt>
      <trkpt lat="59.9230144" lon="17.8400886">
        <ele>8.78918</ele>
        <time>2013-05-16T17:24:57Z</time>
      </trkpt>
      <trkpt lat="59.9230894" lon="17.840045">
        <ele>8.78918</ele>
        <time>2013-05-16T17:24:58Z</time>
      </trkpt>
      <trkpt lat="59.923162" lon="17.8399984">
        <ele>8.30859</ele>
        <time>2013-05-16T17:24:59Z</time>
      </trkpt>
      <trkpt lat="59.923236" lon="17.8399539">
        <ele>8.30859</ele>
        <time>2013-05-16T17:25:00Z</time>
      </trkpt>
      <trkpt lat="59.9233104" lon="17.8399109">
        <ele>7.82788</ele>
        <time>2013-05-16T17:25:01Z</time>
      </trkpt>
      <trkpt lat="59.9233847" lon="17.8398698">
        <ele>7.82788</ele>
        <time>2013-05-16T17:25:02Z</time>
      </trkpt>
      <trkpt lat="59.9234592" lon="17.8398312">
        <ele>7.82788</ele>
        <time>2013-05-16T17:25:03Z</time>
      </trkpt>
      <trkpt lat="59.9235333" lon="17.8397952">
        <ele>7.82788</ele>
        <time>2013-05-16T17:25:04Z</time>
      </trkpt>
      <trkpt lat="59.9236077" lon="17.8397613">
        <ele>8.30859</ele>
        <time>2013-05-16T17:25:05Z</time>
      </trkpt>
      <trkpt lat="59.923681" lon="17.8397281">
        <ele>8.30859</ele>
        <time>2013-05-16T17:25:06Z</time>
      </trkpt>
      <trkpt lat="59.923754" lon="17.8396954">
        <ele>8.30859</ele>
        <time>2013-05-16T17:25:07Z</time>
      </trkpt>
      <trkpt lat="59.9238276" lon="17.8396621">
        <ele>8.30859</ele>
        <time>2013-05-16T17:25:08Z</time>
      </trkpt>
      <trkpt lat="59.9239015" lon="17.839629">
        <ele>8.30859</ele>
        <time>2013-05-16T17:25:09Z</time>
      </trkpt>
      <trkpt lat="59.9239766" lon="17.8395976">
        <ele>8.30859</ele>
        <time>2013-05-16T17:25:10Z</time>
      </trkpt>
      <trkpt lat="59.9240528" lon="17.8395707">
        <ele>8.78918</ele>
        <time>2013-05-16T17:25:11Z</time>
      </trkpt>
      <trkpt lat="59.9241286" lon="17.8395452">
        <ele>8.78918</ele>
        <time>2013-05-16T17:25:12Z</time>
      </trkpt>
      <trkpt lat="59.9242042" lon="17.8395188">
        <ele>8.78918</ele>
        <time>2013-05-16T17:25:13Z</time>
      </trkpt>
      <trkpt lat="59.9242799" lon="17.8394939">
        <ele>8.78918</ele>
        <time>2013-05-16T17:25:14Z</time>
      </trkpt>
      <trkpt lat="59.9243565" lon="17.839473">
        <ele>8.78918</ele>
        <time>2013-05-16T17:25:15Z</time>
      </trkpt>
      <trkpt lat="59.9244334" lon="17.8394546">
        <ele>8.78918</ele>
        <time>2013-05-16T17:25:16Z</time>
      </trkpt>
      <trkpt lat="59.9245102" lon="17.839439">
        <ele>9.2699</ele>
        <time>2013-05-16T17:25:17Z</time>
      </trkpt>
      <trkpt lat="59.9245875" lon="17.839425">
        <ele>9.2699</ele>
        <time>2013-05-16T17:25:18Z</time>
      </trkpt>
      <trkpt lat="59.924666" lon="17.8394142">
        <ele>9.2699</ele>
        <time>2013-05-16T17:25:19Z</time>
      </trkpt>
      <trkpt lat="59.9247442" lon="17.8394077">
        <ele>9.75061</ele>
        <time>2013-05-16T17:25:20Z</time>
      </trkpt>
      <trkpt lat="59.9248217" lon="17.8394016">
        <ele>9.75061</ele>
        <time>2013-05-16T17:25:21Z</time>
      </trkpt>
      <trkpt lat="59.9248989" lon="17.8393964">
        <ele>10.2312</ele>
        <time>2013-05-16T17:25:22Z</time>
      </trkpt>
      <trkpt lat="59.9249756" lon="17.8393924">
        <ele>10.2312</ele>
        <time>2013-05-16T17:25:23Z</time>
      </trkpt>
      <trkpt lat="59.9250526" lon="17.8393896">
        <ele>10.2312</ele>
        <time>2013-05-16T17:25:24Z</time>
      </trkpt>
      <trkpt lat="59.9251302" lon="17.8393908">
        <ele>10.7118</ele>
        <time>2013-05-16T17:25:25Z</time>
      </trkpt>
      <trkpt lat="59.9252091" lon="17.839395">
        <ele>10.7118</ele>
        <time>2013-05-16T17:25:26Z</time>
      </trkpt>
      <trkpt lat="59.9252899" lon="17.8394002">
        <ele>10.7118</ele>
        <time>2013-05-16T17:25:27Z</time>
      </trkpt>
      <trkpt lat="59.9253722" lon="17.8394067">
        <ele>11.1925</ele>
        <time>2013-05-16T17:25:28Z</time>
      </trkpt>
      <trkpt lat="59.9254558" lon="17.8394136">
        <ele>11.1925</ele>
        <time>2013-05-16T17:25:29Z</time>
      </trkpt>
      <trkpt lat="59.9255405" lon="17.839421">
        <ele>11.1925</ele>
        <time>2013-05-16T17:25:30Z</time>
      </trkpt>
      <trkpt lat="59.9256252" lon="17.8394188">
        <ele>11.1925</ele>
        <time>2013-05-16T17:25:31Z</time>
      </trkpt>
      <trkpt lat="59.9257091" lon="17.8393908">
        <ele>11.1925</ele>
        <time>2013-05-16T17:25:32Z</time>
      </trkpt>
      <trkpt lat="59.9257888" lon="17.8393303">
        <ele>10.7118</ele>
        <time>2013-05-16T17:25:33Z</time>
      </trkpt>
      <trkpt lat="59.9258622" lon="17.8392444">
        <ele>10.7118</ele>
        <time>2013-05-16T17:25:34Z</time>
      </trkpt>
      <trkpt lat="59.92593" lon="17.8391423">
        <ele>10.7118</ele>
        <time>2013-05-16T17:25:35Z</time>
      </trkpt>
      <trkpt lat="59.9259934" lon="17.8390308">
        <ele>10.7118</ele>
        <time>2013-05-16T17:25:36Z</time>
      </trkpt>
      <trkpt lat="59.9260528" lon="17.8389141">
        <ele>11.1925</ele>
        <time>2013-05-16T17:25:37Z</time>
      </trkpt>
      <trkpt lat="59.9261111" lon="17.8387958">
        <ele>11.1925</ele>
        <time>2013-05-16T17:25:38Z</time>
      </trkpt>
      <trkpt lat="59.9261673" lon="17.8386787">
        <ele>11.1925</ele>
        <time>2013-05-16T17:25:39Z</time>
      </trkpt>
      <trkpt lat="59.9262213" lon="17.8385603">
        <ele>11.6732</ele>
        <time>2013-05-16T17:25:40Z</time>
      </trkpt>
      <trkpt lat="59.9262731" lon="17.8384435">
        <ele>11.6732</ele>
        <time>2013-05-16T17:25:41Z</time>
      </trkpt>
      <trkpt lat="59.9263252" lon="17.8383308">
        <ele>12.1538</ele>
        <time>2013-05-16T17:25:42Z</time>
      </trkpt>
      <trkpt lat="59.9263757" lon="17.8382191">
        <ele>12.6344</ele>
        <time>2013-05-16T17:25:43Z</time>
      </trkpt>
      <trkpt lat="59.9264244" lon="17.8381174">
        <ele>12.6344</ele>
        <time>2013-05-16T17:25:44Z</time>
      </trkpt>
      <trkpt lat="59.9264756" lon="17.8380223">
        <ele>13.1151</ele>
        <time>2013-05-16T17:25:45Z</time>
      </trkpt>
      <trkpt lat="59.9265311" lon="17.8379404">
        <ele>13.5958</ele>
        <time>2013-05-16T17:25:46Z</time>
      </trkpt>
      <trkpt lat="59.9265923" lon="17.8378736">
        <ele>14.0764</ele>
        <time>2013-05-16T17:25:47Z</time>
      </trkpt>
      <trkpt lat="59.9266707" lon="17.8378141">
        <ele>15.0377</ele>
        <time>2013-05-16T17:25:48Z</time>
      </trkpt>
      <trkpt lat="59.9267413" lon="17.8377627">
        <ele>15.5184</ele>
        <time>2013-05-16T17:25:49Z</time>
      </trkpt>
      <trkpt lat="59.9267954" lon="17.8377156">
        <ele>15.999</ele>
        <time>2013-05-16T17:25:50Z</time>
      </trkpt>
      <trkpt lat="59.9268477" lon="17.8376633">
        <ele>16.4797</ele>
        <time>2013-05-16T17:25:51Z</time>
      </trkpt>
      <trkpt lat="59.9269009" lon="17.8376047">
        <ele>17.4412</ele>
        <time>2013-05-16T17:25:52Z</time>
      </trkpt>
      <trkpt lat="59.9269502" lon="17.8375484">
        <ele>17.9218</ele>
        <time>2013-05-16T17:25:53Z</time>
      </trkpt>
      <trkpt lat="59.9269957" lon="17.8375001">
        <ele>18.8831</ele>
        <time>2013-05-16T17:25:54Z</time>
      </trkpt>
      <trkpt lat="59.9270732" lon="17.837432">
        <ele>19.8444</ele>
        <time>2013-05-16T17:25:55Z</time>
      </trkpt>
      <trkpt lat="59.9271352" lon="17.8373666">
        <ele>21.2864</ele>
        <time>2013-05-16T17:25:56Z</time>
      </trkpt>
      <trkpt lat="59.9271956" lon="17.8372968">
        <ele>22.2476</ele>
        <time>2013-05-16T17:25:57Z</time>
      </trkpt>
      <trkpt lat="59.9272552" lon="17.8372179">
        <ele>22.7283</ele>
        <time>2013-05-16T17:25:58Z</time>
      </trkpt>
      <trkpt lat="59.9273204" lon="17.8371421">
        <ele>23.209</ele>
        <time>2013-05-16T17:25:59Z</time>
      </trkpt>
      <trkpt lat="59.927383" lon="17.837066">
        <ele>23.6896</ele>
        <time>2013-05-16T17:26:00Z</time>
      </trkpt>
      <trkpt lat="59.9274365" lon="17.8370008">
        <ele>23.6896</ele>
        <time>2013-05-16T17:26:01Z</time>
      </trkpt>
      <trkpt lat="59.9274883" lon="17.8369354">
        <ele>23.6896</ele>
        <time>2013-05-16T17:26:02Z</time>
      </trkpt>
      <trkpt lat="59.9275438" lon="17.8368692">
        <ele>24.1703</ele>
        <time>2013-05-16T17:26:03Z</time>
      </trkpt>
      <trkpt lat="59.9275936" lon="17.8367944">
        <ele>24.1703</ele>
        <time>2013-05-16T17:26:04Z</time>
      </trkpt>
      <trkpt lat="59.9276351" lon="17.836719">
        <ele>23.6896</ele>
        <time>2013-05-16T17:26:05Z</time>
      </trkpt>
      <trkpt lat="59.9276762" lon="17.8366531">
        <ele>23.209</ele>
        <time>2013-05-16T17:26:06Z</time>
      </trkpt>
      <trkpt lat="59.927714" lon="17.8365894">
        <ele>22.7283</ele>
        <time>2013-05-16T17:26:07Z</time>
      </trkpt>
      <trkpt lat="59.9277494" lon="17.836519">
        <ele>22.7283</ele>
        <time>2013-05-16T17:26:08Z</time>
      </trkpt>
      <trkpt lat="59.9277695" lon="17.8364469">
        <ele>23.209</ele>
        <time>2013-05-16T17:26:09Z</time>
      </trkpt>
      <trkpt lat="59.9277728" lon="17.8363786">
        <ele>23.6896</ele>
        <time>2013-05-16T17:26:10Z</time>
      </trkpt>
      <trkpt lat="59.9277567" lon="17.8363219">
        <ele>24.1703</ele>
        <time>2013-05-16T17:26:11Z</time>
      </trkpt>
      <trkpt lat="59.9277287" lon="17.836279">
        <ele>23.6896</ele>
        <time>2013-05-16T17:26:12Z</time>
      </trkpt>
      <trkpt lat="59.9276928" lon="17.8362495">
        <ele>23.209</ele>
        <time>2013-05-16T17:26:13Z</time>
      </trkpt>
      <trkpt lat="59.9276557" lon="17.8362376">
        <ele>22.7283</ele>
        <time>2013-05-16T17:26:14Z</time>
      </trkpt>
      <trkpt lat="59.9276153" lon="17.8362253">
        <ele>22.7283</ele>
        <time>2013-05-16T17:26:15Z</time>
      </trkpt>
      <trkpt lat="59.9275684" lon="17.8362091">
        <ele>22.7283</ele>
        <time>2013-05-16T17:26:16Z</time>
      </trkpt>
      <trkpt lat="59.9275267" lon="17.8361973">
        <ele>22.7283</ele>
        <time>2013-05-16T17:26:17Z</time>
      </trkpt>
      <trkpt lat="59.9274907" lon="17.8361858">
        <ele>22.7283</ele>
        <time>2013-05-16T17:26:18Z</time>
      </trkpt>
      <trkpt lat="59.9274564" lon="17.8361702">
        <ele>22.2476</ele>
        <time>2013-05-16T17:26:19Z</time>
      </trkpt>
      <trkpt lat="59.9274291" lon="17.8361527">
        <ele>22.2476</ele>
        <time>2013-05-16T17:26:20Z</time>
      </trkpt>
      <trkpt lat="59.9274039" lon="17.8361248">
        <ele>22.2476</ele>
        <time>2013-05-16T17:26:21Z</time>
      </trkpt>
      <trkpt lat="59.9273753" lon="17.8360953">
        <ele>22.7283</ele>
        <time>2013-05-16T17:26:22Z</time>
      </trkpt>
      <trkpt lat="59.9273475" lon="17.8360662">
        <ele>22.7283</ele>
        <time>2013-05-16T17:26:23Z</time>
      </trkpt>
      <trkpt lat="59.9273271" lon="17.8360383">
        <ele>22.7283</ele>
        <time>2013-05-16T17:26:24Z</time>
      </trkpt>
      <trkpt lat="59.9273081" lon="17.8360072">
        <ele>22.7283</ele>
        <time>2013-05-16T17:26:25Z</time>
      </trkpt>
      <trkpt lat="59.9272918" lon="17.8359708">
        <ele>22.7283</ele>
        <time>2013-05-16T17:26:26Z</time>
      </trkpt>
      <trkpt lat="59.927278" lon="17.8359298">
        <ele>22.2476</ele>
        <time>2013-05-16T17:26:27Z</time>
      </trkpt>
      <trkpt lat="59.9272701" lon="17.8358875">
        <ele>22.2476</ele>
        <time>2013-05-16T17:26:28Z</time>
      </trkpt>
      <trkpt lat="59.9272631" lon="17.8358423">
        <ele>21.767</ele>
        <time>2013-05-16T17:26:29Z</time>
      </trkpt>
      <trkpt lat="59.9272645" lon="17.8358046">
        <ele>21.2864</ele>
        <time>2013-05-16T17:26:30Z</time>
      </trkpt>
      <trkpt lat="59.9272676" lon="17.8357746">
        <ele>21.2864</ele>
        <time>2013-05-16T17:26:31Z</time>
      </trkpt>
      <trkpt lat="59.9272747" lon="17.8357554">
        <ele>20.8057</ele>
        <time>2013-05-16T17:26:32Z</time>
      </trkpt>
      <trkpt lat="59.9272773" lon="17.8357404">
        <ele>20.8057</ele>
        <time>2013-05-16T17:26:33Z</time>
      </trkpt>
      <trkpt lat="59.9272749" lon="17.8357383">
        <ele>21.2864</ele>
        <time>2013-05-16T17:26:34Z</time>
      </trkpt>
      <trkpt lat="59.9272738" lon="17.8357409">
        <ele>21.2864</ele>
        <time>2013-05-16T17:26:35Z</time>
      </trkpt>
      <trkpt lat="59.9316429" lon="17.8301941">
        <ele>24.651</ele>
        <time>2013-05-16T18:00:47Z</time>
      </trkpt>
      <trkpt lat="59.9316843" lon="17.8300623">
        <ele>25.1317</ele>
        <time>2013-05-16T18:00:48Z</time>
      </trkpt>
      <trkpt lat="59.9317227" lon="17.8299226">
        <ele>25.1317</ele>
        <time>2013-05-16T18:00:49Z</time>
      </trkpt>
      <trkpt lat="59.9317643" lon="17.8297791">
        <ele>25.1317</ele>
        <time>2013-05-16T18:00:50Z</time>
      </trkpt>
      <trkpt lat="59.9319615" lon="17.8290374">
        <ele>23.6896</ele>
        <time>2013-05-16T18:00:55Z</time>
      </trkpt>
      <trkpt lat="59.9320036" lon="17.828886">
        <ele>23.6896</ele>
        <time>2013-05-16T18:00:56Z</time>
      </trkpt>
      <trkpt lat="59.9320482" lon="17.8287358">
        <ele>23.6896</ele>
        <time>2013-05-16T18:00:57Z</time>
      </trkpt>
      <trkpt lat="59.9320964" lon="17.8285913">
        <ele>23.6896</ele>
        <time>2013-05-16T18:00:58Z</time>
      </trkpt>
      <trkpt lat="59.9321473" lon="17.8284527">
        <ele>23.6896</ele>
        <time>2013-05-16T18:00:59Z</time>
      </trkpt>
      <trkpt lat="59.9322023" lon="17.8283203">
        <ele>23.6896</ele>
        <time>2013-05-16T18:01:00Z</time>
      </trkpt>
      <trkpt lat="59.9322598" lon="17.8281895">
        <ele>23.6896</ele>
        <time>2013-05-16T18:01:01Z</time>
      </trkpt>
      <trkpt lat="59.9323186" lon="17.8280588">
        <ele>23.209</ele>
        <time>2013-05-16T18:01:02Z</time>
      </trkpt>
      <trkpt lat="59.9323799" lon="17.827931">
        <ele>23.209</ele>
        <time>2013-05-16T18:01:03Z</time>
      </trkpt>
      <trkpt lat="59.9324438" lon="17.827804">
        <ele>23.209</ele>
        <time>2013-05-16T18:01:04Z</time>
      </trkpt>
      <trkpt lat="59.9325103" lon="17.8276759">
        <ele>23.209</ele>
        <time>2013-05-16T18:01:05Z</time>
      </trkpt>
      <trkpt lat="59.9325814" lon="17.8275486">
        <ele>22.7283</ele>
        <time>2013-05-16T18:01:06Z</time>
      </trkpt>
      <trkpt lat="59.9326558" lon="17.8274218">
        <ele>22.7283</ele>
        <time>2013-05-16T18:01:07Z</time>
      </trkpt>
      <trkpt lat="59.9327311" lon="17.8272938">
        <ele>22.7283</ele>
        <time>2013-05-16T18:01:08Z</time>
      </trkpt>
      <trkpt lat="59.9328061" lon="17.8271637">
        <ele>22.7283</ele>
        <time>2013-05-16T18:01:09Z</time>
      </trkpt>
      <trkpt lat="59.9328824" lon="17.8270332">
        <ele>22.7283</ele>
        <time>2013-05-16T18:01:10Z</time>
      </trkpt>
      <trkpt lat="59.9329585" lon="17.8269053">
        <ele>22.7283</ele>
        <time>2013-05-16T18:01:11Z</time>
      </trkpt>
      <trkpt lat="59.9330337" lon="17.8267828">
        <ele>22.7283</ele>
        <time>2013-05-16T18:01:12Z</time>
      </trkpt>
      <trkpt lat="59.9331104" lon="17.8266675">
        <ele>22.7283</ele>
        <time>2013-05-16T18:01:13Z</time>
      </trkpt>
      <trkpt lat="59.9331885" lon="17.8265593">
        <ele>22.7283</ele>
        <time>2013-05-16T18:01:14Z</time>
      </trkpt>
      <trkpt lat="59.9332681" lon="17.8264571">
        <ele>22.7283</ele>
        <time>2013-05-16T18:01:15Z</time>
      </trkpt>
      <trkpt lat="59.9333494" lon="17.8263645">
        <ele>22.7283</ele>
        <time>2013-05-16T18:01:16Z</time>
      </trkpt>
      <trkpt lat="59.9334324" lon="17.8262814">
        <ele>23.209</ele>
        <time>2013-05-16T18:01:17Z</time>
      </trkpt>
      <trkpt lat="59.9335158" lon="17.8262059">
        <ele>23.209</ele>
        <time>2013-05-16T18:01:18Z</time>
      </trkpt>
      <trkpt lat="59.9335988" lon="17.8261376">
        <ele>23.209</ele>
        <time>2013-05-16T18:01:19Z</time>
      </trkpt>
      <trkpt lat="59.9336822" lon="17.8260786">
        <ele>23.6896</ele>
        <time>2013-05-16T18:01:20Z</time>
      </trkpt>
      <trkpt lat="59.9337659" lon="17.8260277">
        <ele>23.6896</ele>
        <time>2013-05-16T18:01:21Z</time>
      </trkpt>
      <trkpt lat="59.9338499" lon="17.8259811">
        <ele>23.6896</ele>
        <time>2013-05-16T18:01:22Z</time>
      </trkpt>
      <trkpt lat="59.9339345" lon="17.8259382">
        <ele>23.6896</ele>
        <time>2013-05-16T18:01:23Z</time>
      </trkpt>
      <trkpt lat="59.9340203" lon="17.8258968">
        <ele>23.209</ele>
        <time>2013-05-16T18:01:24Z</time>
      </trkpt>
      <trkpt lat="59.9341068" lon="17.8258564">
        <ele>23.209</ele>
        <time>2013-05-16T18:01:25Z</time>
      </trkpt>
      <trkpt lat="59.9341948" lon="17.8258184">
        <ele>23.209</ele>
        <time>2013-05-16T18:01:26Z</time>
      </trkpt>
      <trkpt lat="59.9342837" lon="17.8257802">
        <ele>23.209</ele>
        <time>2013-05-16T18:01:27Z</time>
      </trkpt>
      <trkpt lat="59.9343723" lon="17.8257407">
        <ele>22.7283</ele>
        <time>2013-05-16T18:01:28Z</time>
      </trkpt>
      <trkpt lat="59.9344595" lon="17.8257008">
        <ele>22.7283</ele>
        <time>2013-05-16T18:01:29Z</time>
      </trkpt>
      <trkpt lat="59.9345448" lon="17.8256635">
        <ele>22.7283</ele>
        <time>2013-05-16T18:01:30Z</time>
      </trkpt>
      <trkpt lat="59.9346285" lon="17.8256277">
        <ele>22.7283</ele>
        <time>2013-05-16T18:01:31Z</time>
      </trkpt>
      <trkpt lat="59.9347102" lon="17.8255905">
        <ele>22.7283</ele>
        <time>2013-05-16T18:01:32Z</time>
      </trkpt>
      <trkpt lat="59.9347907" lon="17.8255538">
        <ele>22.7283</ele>
        <time>2013-05-16T18:01:33Z</time>
      </trkpt>
      <trkpt lat="59.934871" lon="17.8255185">
        <ele>22.2476</ele>
        <time>2013-05-16T18:01:34Z</time>
      </trkpt>
      <trkpt lat="59.9349518" lon="17.8254834">
        <ele>22.2476</ele>
        <time>2013-05-16T18:01:35Z</time>
      </trkpt>
      <trkpt lat="59.9350331" lon="17.8254486">
        <ele>22.2476</ele>
        <time>2013-05-16T18:01:36Z</time>
      </trkpt>
      <trkpt lat="59.9351146" lon="17.8254139">
        <ele>22.2476</ele>
        <time>2013-05-16T18:01:37Z</time>
      </trkpt>
      <trkpt lat="59.9351963" lon="17.8253793">
        <ele>22.2476</ele>
        <time>2013-05-16T18:01:38Z</time>
      </trkpt>
      <trkpt lat="59.9352777" lon="17.8253455">
        <ele>22.2476</ele>
        <time>2013-05-16T18:01:39Z</time>
      </trkpt>
      <trkpt lat="59.9353588" lon="17.8253101">
        <ele>22.2476</ele>
        <time>2013-05-16T18:01:40Z</time>
      </trkpt>
      <trkpt lat="59.9354391" lon="17.8252736">
        <ele>22.2476</ele>
        <time>2013-05-16T18:01:41Z</time>
      </trkpt>
      <trkpt lat="59.9355191" lon="17.8252382">
        <ele>22.7283</ele>
        <time>2013-05-16T18:01:42Z</time>
      </trkpt>
      <trkpt lat="59.9355988" lon="17.8252032">
        <ele>22.7283</ele>
        <time>2013-05-16T18:01:43Z</time>
      </trkpt>
      <trkpt lat="59.9356786" lon="17.825168">
        <ele>22.7283</ele>
        <time>2013-05-16T18:01:44Z</time>
      </trkpt>
      <trkpt lat="59.935759" lon="17.8251345">
        <ele>22.7283</ele>
        <time>2013-05-16T18:01:45Z</time>
      </trkpt>
      <trkpt lat="59.9358403" lon="17.8251024">
        <ele>22.7283</ele>
        <time>2013-05-16T18:01:46Z</time>
      </trkpt>
      <trkpt lat="59.9359219" lon="17.8250685">
        <ele>22.7283</ele>
        <time>2013-05-16T18:01:47Z</time>
      </trkpt>
      <trkpt lat="59.9360034" lon="17.8250342">
        <ele>23.209</ele>
        <time>2013-05-16T18:01:48Z</time>
      </trkpt>
      <trkpt lat="59.9360843" lon="17.8249985">
        <ele>23.209</ele>
        <time>2013-05-16T18:01:49Z</time>
      </trkpt>
      <trkpt lat="59.9361648" lon="17.8249636">
        <ele>23.209</ele>
        <time>2013-05-16T18:01:50Z</time>
      </trkpt>
      <trkpt lat="59.9362439" lon="17.8249314">
        <ele>23.6896</ele>
        <time>2013-05-16T18:01:51Z</time>
      </trkpt>
      <trkpt lat="59.9363214" lon="17.8248983">
        <ele>23.6896</ele>
        <time>2013-05-16T18:01:52Z</time>
      </trkpt>
      <trkpt lat="59.9363971" lon="17.8248637">
        <ele>23.6896</ele>
        <time>2013-05-16T18:01:53Z</time>
      </trkpt>
      <trkpt lat="59.9364716" lon="17.824826">
        <ele>23.6896</ele>
        <time>2013-05-16T18:01:54Z</time>
      </trkpt>
      <trkpt lat="59.9365437" lon="17.8247778">
        <ele>24.1703</ele>
        <time>2013-05-16T18:01:55Z</time>
      </trkpt>
      <trkpt lat="59.9366134" lon="17.8247163">
        <ele>24.1703</ele>
        <time>2013-05-16T18:01:56Z</time>
      </trkpt>
      <trkpt lat="59.9366808" lon="17.8246436">
        <ele>24.1703</ele>
        <time>2013-05-16T18:01:57Z</time>
      </trkpt>
      <trkpt lat="59.9367463" lon="17.8245587">
        <ele>24.1703</ele>
        <time>2013-05-16T18:01:58Z</time>
      </trkpt>
      <trkpt lat="59.9368097" lon="17.824464">
        <ele>24.1703</ele>
        <time>2013-05-16T18:01:59Z</time>
      </trkpt>
      <trkpt lat="59.9368695" lon="17.8243607">
        <ele>24.1703</ele>
        <time>2013-05-16T18:02:00Z</time>
      </trkpt>
      <trkpt lat="59.936925" lon="17.824252">
        <ele>24.1703</ele>
        <time>2013-05-16T18:02:01Z</time>
      </trkpt>
      <trkpt lat="59.9369768" lon="17.8241401">
        <ele>24.1703</ele>
        <time>2013-05-16T18:02:02Z</time>
      </trkpt>
      <trkpt lat="59.9370254" lon="17.8240241">
        <ele>24.1703</ele>
        <time>2013-05-16T18:02:03Z</time>
      </trkpt>
      <trkpt lat="59.9370721" lon="17.8239039">
        <ele>24.1703</ele>
        <time>2013-05-16T18:02:04Z</time>
      </trkpt>
      <trkpt lat="59.9371185" lon="17.8237805">
        <ele>24.1703</ele>
        <time>2013-05-16T18:02:05Z</time>
      </trkpt>
      <trkpt lat="59.9371658" lon="17.8236553">
        <ele>24.1703</ele>
        <time>2013-05-16T18:02:06Z</time>
      </trkpt>
      <trkpt lat="59.9372135" lon="17.8235284">
        <ele>24.1703</ele>
        <time>2013-05-16T18:02:07Z</time>
      </trkpt>
      <trkpt lat="59.9372618" lon="17.8234007">
        <ele>24.1703</ele>
        <time>2013-05-16T18:02:08Z</time>
      </trkpt>
      <trkpt lat="59.9373104" lon="17.8232713">
        <ele>24.1703</ele>
        <time>2013-05-16T18:02:09Z</time>
      </trkpt>
      <trkpt lat="59.9373588" lon="17.8231393">
        <ele>24.1703</ele>
        <time>2013-05-16T18:02:10Z</time>
      </trkpt>
      <trkpt lat="59.937407" lon="17.8230052">
        <ele>23.6896</ele>
        <time>2013-05-16T18:02:11Z</time>
      </trkpt>
      <trkpt lat="59.9374548" lon="17.8228697">
        <ele>23.6896</ele>
        <time>2013-05-16T18:02:12Z</time>
      </trkpt>
      <trkpt lat="59.9375025" lon="17.8227315">
        <ele>23.6896</ele>
        <time>2013-05-16T18:02:13Z</time>
      </trkpt>
      <trkpt lat="59.937551" lon="17.8225911">
        <ele>23.6896</ele>
        <time>2013-05-16T18:02:14Z</time>
      </trkpt>
      <trkpt lat="59.9376003" lon="17.8224482">
        <ele>23.6896</ele>
        <time>2013-05-16T18:02:15Z</time>
      </trkpt>
      <trkpt lat="59.9376505" lon="17.8223025">
        <ele>23.6896</ele>
        <time>2013-05-16T18:02:16Z</time>
      </trkpt>
      <trkpt lat="59.937702" lon="17.8221557">
        <ele>23.6896</ele>
        <time>2013-05-16T18:02:17Z</time>
      </trkpt>
      <trkpt lat="59.9377552" lon="17.8220101">
        <ele>23.6896</ele>
        <time>2013-05-16T18:02:18Z</time>
      </trkpt>
      <trkpt lat="59.9378091" lon="17.8218649">
        <ele>23.6896</ele>
        <time>2013-05-16T18:02:19Z</time>
      </trkpt>
      <trkpt lat="59.9378641" lon="17.8217193">
        <ele>23.6896</ele>
        <time>2013-05-16T18:02:20Z</time>
      </trkpt>
      <trkpt lat="59.93792" lon="17.8215737">
        <ele>23.6896</ele>
        <time>2013-05-16T18:02:21Z</time>
      </trkpt>
      <trkpt lat="59.9379766" lon="17.8214314">
        <ele>23.6896</ele>
        <time>2013-05-16T18:02:22Z</time>
      </trkpt>
      <trkpt lat="59.9380348" lon="17.8212946">
        <ele>24.1703</ele>
        <time>2013-05-16T18:02:23Z</time>
      </trkpt>
      <trkpt lat="59.9380942" lon="17.8211639">
        <ele>24.1703</ele>
        <time>2013-05-16T18:02:24Z</time>
      </trkpt>
      <trkpt lat="59.9381546" lon="17.8210382">
        <ele>24.1703</ele>
        <time>2013-05-16T18:02:25Z</time>
      </trkpt>
      <trkpt lat="59.9382136" lon="17.8209134">
        <ele>24.651</ele>
        <time>2013-05-16T18:02:26Z</time>
      </trkpt>
      <trkpt lat="59.9382713" lon="17.820789">
        <ele>24.651</ele>
        <time>2013-05-16T18:02:27Z</time>
      </trkpt>
      <trkpt lat="59.938328" lon="17.8206653">
        <ele>25.1317</ele>
        <time>2013-05-16T18:02:28Z</time>
      </trkpt>
      <trkpt lat="59.9383831" lon="17.8205431">
        <ele>25.1317</ele>
        <time>2013-05-16T18:02:29Z</time>
      </trkpt>
      <trkpt lat="59.9384381" lon="17.8204233">
        <ele>25.6123</ele>
        <time>2013-05-16T18:02:30Z</time>
      </trkpt>
      <trkpt lat="59.938493" lon="17.8203048">
        <ele>25.6123</ele>
        <time>2013-05-16T18:02:31Z</time>
      </trkpt>
      <trkpt lat="59.9385468" lon="17.8201877">
        <ele>25.6123</ele>
        <time>2013-05-16T18:02:32Z</time>
      </trkpt>
      <trkpt lat="59.9385986" lon="17.8200731">
        <ele>26.0929</ele>
        <time>2013-05-16T18:02:33Z</time>
      </trkpt>
      <trkpt lat="59.9386488" lon="17.8199613">
        <ele>26.0929</ele>
        <time>2013-05-16T18:02:34Z</time>
      </trkpt>
      <trkpt lat="59.9386975" lon="17.8198521">
        <ele>26.5736</ele>
        <time>2013-05-16T18:02:35Z</time>
      </trkpt>
      <trkpt lat="59.938745" lon="17.8197464">
        <ele>26.5736</ele>
        <time>2013-05-16T18:02:36Z</time>
      </trkpt>
      <trkpt lat="59.9387865" lon="17.8196371">
        <ele>26.5736</ele>
        <time>2013-05-16T18:02:37Z</time>
      </trkpt>
      <trkpt lat="59.938831" lon="17.819534">
        <ele>26.5736</ele>
        <time>2013-05-16T18:02:38Z</time>
      </trkpt>
      <trkpt lat="59.9388777" lon="17.8194312">
        <ele>26.5736</ele>
        <time>2013-05-16T18:02:39Z</time>
      </trkpt>
      <trkpt lat="59.9389266" lon="17.8193279">
        <ele>26.5736</ele>
        <time>2013-05-16T18:02:40Z</time>
      </trkpt>
      <trkpt lat="59.9389755" lon="17.8192222">
        <ele>26.5736</ele>
        <time>2013-05-16T18:02:41Z</time>
      </trkpt>
      <trkpt lat="59.939027" lon="17.819117">
        <ele>26.5736</ele>
        <time>2013-05-16T18:02:42Z</time>
      </trkpt>
      <trkpt lat="59.9390819" lon="17.8190152">
        <ele>26.5736</ele>
        <time>2013-05-16T18:02:43Z</time>
      </trkpt>
      <trkpt lat="59.9391394" lon="17.8189179">
        <ele>26.0929</ele>
        <time>2013-05-16T18:02:44Z</time>
      </trkpt>
      <trkpt lat="59.9392" lon="17.8188259">
        <ele>26.0929</ele>
        <time>2013-05-16T18:02:45Z</time>
      </trkpt>
      <trkpt lat="59.9392634" lon="17.8187426">
        <ele>26.0929</ele>
        <time>2013-05-16T18:02:46Z</time>
      </trkpt>
      <trkpt lat="59.939328" lon="17.818672">
        <ele>26.0929</ele>
        <time>2013-05-16T18:02:47Z</time>
      </trkpt>
      <trkpt lat="59.9393923" lon="17.8186125">
        <ele>26.0929</ele>
        <time>2013-05-16T18:02:48Z</time>
      </trkpt>
      <trkpt lat="59.9394575" lon="17.8185623">
        <ele>26.0929</ele>
        <time>2013-05-16T18:02:49Z</time>
      </trkpt>
      <trkpt lat="59.9395226" lon="17.8185274">
        <ele>26.0929</ele>
        <time>2013-05-16T18:02:50Z</time>
      </trkpt>
      <trkpt lat="59.9395873" lon="17.818506">
        <ele>26.0929</ele>
        <time>2013-05-16T18:02:51Z</time>
      </trkpt>
      <trkpt lat="59.939649" lon="17.8184933">
        <ele>26.0929</ele>
        <time>2013-05-16T18:02:52Z</time>
      </trkpt>
      <trkpt lat="59.9397065" lon="17.8184902">
        <ele>26.0929</ele>
        <time>2013-05-16T18:02:53Z</time>
      </trkpt>
      <trkpt lat="59.9397605" lon="17.8184959">
        <ele>26.5736</ele>
        <time>2013-05-16T18:02:54Z</time>
      </trkpt>
      <trkpt lat="59.9398121" lon="17.8185084">
        <ele>26.5736</ele>
        <time>2013-05-16T18:02:55Z</time>
      </trkpt>
      <trkpt lat="59.939863" lon="17.8185297">
        <ele>26.0929</ele>
        <time>2013-05-16T18:02:56Z</time>
      </trkpt>
      <trkpt lat="59.9399149" lon="17.8185539">
        <ele>26.0929</ele>
        <time>2013-05-16T18:02:57Z</time>
      </trkpt>
      <trkpt lat="59.9399682" lon="17.8185845">
        <ele>26.0929</ele>
        <time>2013-05-16T18:02:58Z</time>
      </trkpt>
      <trkpt lat="59.9400221" lon="17.8186309">
        <ele>26.0929</ele>
        <time>2013-05-16T18:02:59Z</time>
      </trkpt>
      <trkpt lat="59.9400789" lon="17.8186847">
        <ele>26.0929</ele>
        <time>2013-05-16T18:03:00Z</time>
      </trkpt>
      <trkpt lat="59.9401388" lon="17.8187424">
        <ele>26.0929</ele>
        <time>2013-05-16T18:03:01Z</time>
      </trkpt>
      <trkpt lat="59.9402004" lon="17.8188057">
        <ele>26.0929</ele>
        <time>2013-05-16T18:03:02Z</time>
      </trkpt>
      <trkpt lat="59.9402625" lon="17.8188751">
        <ele>25.6123</ele>
        <time>2013-05-16T18:03:03Z</time>
      </trkpt>
      <trkpt lat="59.9403262" lon="17.8189497">
        <ele>25.6123</ele>
        <time>2013-05-16T18:03:04Z</time>
      </trkpt>
      <trkpt lat="59.9403903" lon="17.8190277">
        <ele>25.6123</ele>
        <time>2013-05-16T18:03:05Z</time>
      </trkpt>
      <trkpt lat="59.9404553" lon="17.8191074">
        <ele>25.6123</ele>
        <time>2013-05-16T18:03:06Z</time>
      </trkpt>
      <trkpt lat="59.9405205" lon="17.8191885">
        <ele>25.6123</ele>
        <time>2013-05-16T18:03:07Z</time>
      </trkpt>
      <trkpt lat="59.9405858" lon="17.8192703">
        <ele>25.1317</ele>
        <time>2013-05-16T18:03:08Z</time>
      </trkpt>
      <trkpt lat="59.9406515" lon="17.8193517">
        <ele>25.1317</ele>
        <time>2013-05-16T18:03:09Z</time>
      </trkpt>
      <trkpt lat="59.9407174" lon="17.8194336">
        <ele>25.1317</ele>
        <time>2013-05-16T18:03:10Z</time>
      </trkpt>
      <trkpt lat="59.9407842" lon="17.8195163">
        <ele>25.1317</ele>
        <time>2013-05-16T18:03:11Z</time>
      </trkpt>
      <trkpt lat="59.940852" lon="17.8195992">
        <ele>25.1317</ele>
        <time>2013-05-16T18:03:12Z</time>
      </trkpt>
      <trkpt lat="59.9409201" lon="17.8196838">
        <ele>25.1317</ele>
        <time>2013-05-16T18:03:13Z</time>
      </trkpt>
      <trkpt lat="59.9409888" lon="17.8197697">
        <ele>25.1317</ele>
        <time>2013-05-16T18:03:14Z</time>
      </trkpt>
      <trkpt lat="59.9410581" lon="17.8198547">
        <ele>25.1317</ele>
        <time>2013-05-16T18:03:15Z</time>
      </trkpt>
      <trkpt lat="59.9411279" lon="17.8199394">
        <ele>25.1317</ele>
        <time>2013-05-16T18:03:16Z</time>
      </trkpt>
      <trkpt lat="59.9411975" lon="17.820025">
        <ele>24.651</ele>
        <time>2013-05-16T18:03:17Z</time>
      </trkpt>
      <trkpt lat="59.9412669" lon="17.8201129">
        <ele>24.651</ele>
        <time>2013-05-16T18:03:18Z</time>
      </trkpt>
      <trkpt lat="59.9413369" lon="17.8201996">
        <ele>25.1317</ele>
        <time>2013-05-16T18:03:19Z</time>
      </trkpt>
      <trkpt lat="59.9414073" lon="17.8202844">
        <ele>25.1317</ele>
        <time>2013-05-16T18:03:20Z</time>
      </trkpt>
      <trkpt lat="59.9414773" lon="17.8203705">
        <ele>25.1317</ele>
        <time>2013-05-16T18:03:21Z</time>
      </trkpt>
      <trkpt lat="59.9415471" lon="17.8204572">
        <ele>25.1317</ele>
        <time>2013-05-16T18:03:22Z</time>
      </trkpt>
      <trkpt lat="59.941616" lon="17.8205432">
        <ele>25.1317</ele>
        <time>2013-05-16T18:03:23Z</time>
      </trkpt>
      <trkpt lat="59.9416844" lon="17.8206285">
        <ele>25.1317</ele>
        <time>2013-05-16T18:03:24Z</time>
      </trkpt>
      <trkpt lat="59.9417521" lon="17.820712">
        <ele>25.6123</ele>
        <time>2013-05-16T18:03:25Z</time>
      </trkpt>
      <trkpt lat="59.941818" lon="17.8207941">
        <ele>25.6123</ele>
        <time>2013-05-16T18:03:26Z</time>
      </trkpt>
      <trkpt lat="59.9418822" lon="17.8208752">
        <ele>25.6123</ele>
        <time>2013-05-16T18:03:27Z</time>
      </trkpt>
      <trkpt lat="59.9419445" lon="17.8209533">
        <ele>26.0929</ele>
        <time>2013-05-16T18:03:28Z</time>
      </trkpt>
      <trkpt lat="59.942005" lon="17.8210289">
        <ele>26.0929</ele>
        <time>2013-05-16T18:03:29Z</time>
      </trkpt>
      <trkpt lat="59.9420641" lon="17.8211041">
        <ele>26.5736</ele>
        <time>2013-05-16T18:03:30Z</time>
      </trkpt>
      <trkpt lat="59.9421226" lon="17.821178">
        <ele>27.0543</ele>
        <time>2013-05-16T18:03:31Z</time>
      </trkpt>
      <trkpt lat="59.9421807" lon="17.8212486">
        <ele>27.0543</ele>
        <time>2013-05-16T18:03:32Z</time>
      </trkpt>
      <trkpt lat="59.9422377" lon="17.821319">
        <ele>27.5349</ele>
        <time>2013-05-16T18:03:33Z</time>
      </trkpt>
      <trkpt lat="59.9422931" lon="17.821389">
        <ele>27.5349</ele>
        <time>2013-05-16T18:03:34Z</time>
      </trkpt>
      <trkpt lat="59.9423471" lon="17.8214568">
        <ele>28.0155</ele>
        <time>2013-05-16T18:03:35Z</time>
      </trkpt>
      <trkpt lat="59.9423993" lon="17.8215217">
        <ele>28.4962</ele>
        <time>2013-05-16T18:03:36Z</time>
      </trkpt>
      <trkpt lat="59.9424494" lon="17.8215843">
        <ele>28.4962</ele>
        <time>2013-05-16T18:03:37Z</time>
      </trkpt>
      <trkpt lat="59.9424978" lon="17.8216453">
        <ele>28.4962</ele>
        <time>2013-05-16T18:03:38Z</time>
      </trkpt>
      <trkpt lat="59.9425458" lon="17.8217056">
        <ele>28.9769</ele>
        <time>2013-05-16T18:03:39Z</time>
      </trkpt>
      <trkpt lat="59.9425942" lon="17.8217648">
        <ele>28.9769</ele>
        <time>2013-05-16T18:03:40Z</time>
      </trkpt>
      <trkpt lat="59.942642" lon="17.8218241">
        <ele>28.9769</ele>
        <time>2013-05-16T18:03:41Z</time>
      </trkpt>
      <trkpt lat="59.9426886" lon="17.8218842">
        <ele>29.4575</ele>
        <time>2013-05-16T18:03:42Z</time>
      </trkpt>
      <trkpt lat="59.9427349" lon="17.8219432">
        <ele>29.4575</ele>
        <time>2013-05-16T18:03:43Z</time>
      </trkpt>
      <trkpt lat="59.9427808" lon="17.8220012">
        <ele>29.4575</ele>
        <time>2013-05-16T18:03:44Z</time>
      </trkpt>
      <trkpt lat="59.9428259" lon="17.8220577">
        <ele>29.9381</ele>
        <time>2013-05-16T18:03:45Z</time>
      </trkpt>
      <trkpt lat="59.9428706" lon="17.822113">
        <ele>29.9381</ele>
        <time>2013-05-16T18:03:46Z</time>
      </trkpt>
      <trkpt lat="59.9429152" lon="17.8221678">
        <ele>29.9381</ele>
        <time>2013-05-16T18:03:47Z</time>
      </trkpt>
      <trkpt lat="59.9429594" lon="17.8222224">
        <ele>30.4188</ele>
        <time>2013-05-16T18:03:48Z</time>
      </trkpt>
      <trkpt lat="59.9430032" lon="17.8222768">
        <ele>30.4188</ele>
        <time>2013-05-16T18:03:49Z</time>
      </trkpt>
      <trkpt lat="59.9430468" lon="17.8223323">
        <ele>30.4188</ele>
        <time>2013-05-16T18:03:50Z</time>
      </trkpt>
      <trkpt lat="59.9430908" lon="17.8223886">
        <ele>30.8995</ele>
        <time>2013-05-16T18:03:51Z</time>
      </trkpt>
      <trkpt lat="59.9431348" lon="17.8224447">
        <ele>30.8995</ele>
        <time>2013-05-16T18:03:52Z</time>
      </trkpt>
      <trkpt lat="59.9431788" lon="17.822499">
        <ele>31.3801</ele>
        <time>2013-05-16T18:03:53Z</time>
      </trkpt>
      <trkpt lat="59.9432224" lon="17.8225529">
        <ele>31.3801</ele>
        <time>2013-05-16T18:03:54Z</time>
      </trkpt>
      <trkpt lat="59.9432663" lon="17.822608">
        <ele>31.8607</ele>
        <time>2013-05-16T18:03:55Z</time>
      </trkpt>
      <trkpt lat="59.9433111" lon="17.8226634">
        <ele>31.8607</ele>
        <time>2013-05-16T18:03:56Z</time>
      </trkpt>
      <trkpt lat="59.9433564" lon="17.8227192">
        <ele>32.3416</ele>
        <time>2013-05-16T18:03:57Z</time>
      </trkpt>
      <trkpt lat="59.9434011" lon="17.8227761">
        <ele>32.3416</ele>
        <time>2013-05-16T18:03:58Z</time>
      </trkpt>
      <trkpt lat="59.9434451" lon="17.8228328">
        <ele>32.8223</ele>
        <time>2013-05-16T18:03:59Z</time>
      </trkpt>
      <trkpt lat="59.9434892" lon="17.8228874">
        <ele>32.8223</ele>
        <time>2013-05-16T18:04:00Z</time>
      </trkpt>
      <trkpt lat="59.9435325" lon="17.8229404">
        <ele>33.3029</ele>
        <time>2013-05-16T18:04:01Z</time>
      </trkpt>
      <trkpt lat="59.9435746" lon="17.8229938">
        <ele>33.3029</ele>
        <time>2013-05-16T18:04:02Z</time>
      </trkpt>
      <trkpt lat="59.9436164" lon="17.8230474">
        <ele>33.3029</ele>
        <time>2013-05-16T18:04:03Z</time>
      </trkpt>
      <trkpt lat="59.9436583" lon="17.8231005">
        <ele>33.7834</ele>
        <time>2013-05-16T18:04:04Z</time>
      </trkpt>
      <trkpt lat="59.9436996" lon="17.8231519">
        <ele>33.7834</ele>
        <time>2013-05-16T18:04:05Z</time>
      </trkpt>
      <trkpt lat="59.9437409" lon="17.823203">
        <ele>34.2642</ele>
        <time>2013-05-16T18:04:06Z</time>
      </trkpt>
      <trkpt lat="59.9437824" lon="17.8232543">
        <ele>34.2642</ele>
        <time>2013-05-16T18:04:07Z</time>
      </trkpt>
      <trkpt lat="59.9438248" lon="17.8233062">
        <ele>34.7449</ele>
        <time>2013-05-16T18:04:08Z</time>
      </trkpt>
      <trkpt lat="59.9438678" lon="17.8233598">
        <ele>34.7449</ele>
        <time>2013-05-16T18:04:09Z</time>
      </trkpt>
      <trkpt lat="59.9439115" lon="17.8234131">
        <ele>35.2255</ele>
        <time>2013-05-16T18:04:10Z</time>
      </trkpt>
      <trkpt lat="59.9439553" lon="17.8234656">
        <ele>35.7061</ele>
        <time>2013-05-16T18:04:11Z</time>
      </trkpt>
      <trkpt lat="59.9439982" lon="17.8235185">
        <ele>36.1868</ele>
        <time>2013-05-16T18:04:12Z</time>
      </trkpt>
      <trkpt lat="59.9440408" lon="17.8235729">
        <ele>36.1868</ele>
        <time>2013-05-16T18:04:13Z</time>
      </trkpt>
      <trkpt lat="59.9440813" lon="17.8236299">
        <ele>36.1868</ele>
        <time>2013-05-16T18:04:14Z</time>
      </trkpt>
      <trkpt lat="59.9441227" lon="17.8236823">
        <ele>36.6675</ele>
        <time>2013-05-16T18:04:15Z</time>
      </trkpt>
      <trkpt lat="59.9441634" lon="17.8237375">
        <ele>37.1481</ele>
        <time>2013-05-16T18:04:16Z</time>
      </trkpt>
      <trkpt lat="59.9442045" lon="17.8237822">
        <ele>37.1481</ele>
        <time>2013-05-16T18:04:17Z</time>
      </trkpt>
      <trkpt lat="59.9442448" lon="17.8238359">
        <ele>37.6287</ele>
        <time>2013-05-16T18:04:18Z</time>
      </trkpt>
      <trkpt lat="59.9442905" lon="17.8238873">
        <ele>37.6287</ele>
        <time>2013-05-16T18:04:19Z</time>
      </trkpt>
      <trkpt lat="59.9443362" lon="17.8239428">
        <ele>37.6287</ele>
        <time>2013-05-16T18:04:20Z</time>
      </trkpt>
      <trkpt lat="59.9443816" lon="17.8239956">
        <ele>37.1481</ele>
        <time>2013-05-16T18:04:21Z</time>
      </trkpt>
      <trkpt lat="59.9444263" lon="17.8240542">
        <ele>37.1481</ele>
        <time>2013-05-16T18:04:22Z</time>
      </trkpt>
      <trkpt lat="59.9444717" lon="17.8241074">
        <ele>36.6675</ele>
        <time>2013-05-16T18:04:23Z</time>
      </trkpt>
      <trkpt lat="59.944518" lon="17.8241578">
        <ele>36.6675</ele>
        <time>2013-05-16T18:04:24Z</time>
      </trkpt>
      <trkpt lat="59.9445649" lon="17.8242085">
        <ele>36.6675</ele>
        <time>2013-05-16T18:04:25Z</time>
      </trkpt>
      <trkpt lat="59.9446126" lon="17.8242583">
        <ele>36.1868</ele>
        <time>2013-05-16T18:04:26Z</time>
      </trkpt>
      <trkpt lat="59.9446623" lon="17.8243072">
        <ele>36.1868</ele>
        <time>2013-05-16T18:04:27Z</time>
      </trkpt>
      <trkpt lat="59.9447132" lon="17.8243596">
        <ele>36.1868</ele>
        <time>2013-05-16T18:04:28Z</time>
      </trkpt>
      <trkpt lat="59.9447651" lon="17.8244162">
        <ele>35.7061</ele>
        <time>2013-05-16T18:04:29Z</time>
      </trkpt>
      <trkpt lat="59.9448189" lon="17.8244715">
        <ele>35.7061</ele>
        <time>2013-05-16T18:04:30Z</time>
      </trkpt>
      <trkpt lat="59.9448734" lon="17.8245269">
        <ele>35.7061</ele>
        <time>2013-05-16T18:04:31Z</time>
      </trkpt>
      <trkpt lat="59.9449295" lon="17.8245815">
        <ele>35.7061</ele>
        <time>2013-05-16T18:04:32Z</time>
      </trkpt>
      <trkpt lat="59.9449855" lon="17.8246375">
        <ele>35.2255</ele>
        <time>2013-05-16T18:04:33Z</time>
      </trkpt>
      <trkpt lat="59.9450431" lon="17.8246969">
        <ele>34.2642</ele>
        <time>2013-05-16T18:04:34Z</time>
      </trkpt>
      <trkpt lat="59.945102" lon="17.8247571">
        <ele>33.7834</ele>
        <time>2013-05-16T18:04:35Z</time>
      </trkpt>
      <trkpt lat="59.9451614" lon="17.8248181">
        <ele>33.3029</ele>
        <time>2013-05-16T18:04:36Z</time>
      </trkpt>
      <trkpt lat="59.945222" lon="17.8248807">
        <ele>32.8223</ele>
        <time>2013-05-16T18:04:37Z</time>
      </trkpt>
      <trkpt lat="59.9452837" lon="17.8249454">
        <ele>32.8223</ele>
        <time>2013-05-16T18:04:38Z</time>
      </trkpt>
      <trkpt lat="59.9453462" lon="17.8250089">
        <ele>32.8223</ele>
        <time>2013-05-16T18:04:39Z</time>
      </trkpt>
      <trkpt lat="59.9454088" lon="17.825071">
        <ele>32.8223</ele>
        <time>2013-05-16T18:04:40Z</time>
      </trkpt>
      <trkpt lat="59.9454714" lon="17.8251336">
        <ele>32.3416</ele>
        <time>2013-05-16T18:04:41Z</time>
      </trkpt>
      <trkpt lat="59.9455341" lon="17.8251998">
        <ele>32.3416</ele>
        <time>2013-05-16T18:04:42Z</time>
      </trkpt>
      <trkpt lat="59.9455973" lon="17.8252673">
        <ele>32.3416</ele>
        <time>2013-05-16T18:04:43Z</time>
      </trkpt>
      <trkpt lat="59.9456618" lon="17.8253337">
        <ele>31.8607</ele>
        <time>2013-05-16T18:04:44Z</time>
      </trkpt>
      <trkpt lat="59.9457271" lon="17.8253997">
        <ele>31.8607</ele>
        <time>2013-05-16T18:04:45Z</time>
      </trkpt>
      <trkpt lat="59.9457933" lon="17.8254671">
        <ele>31.8607</ele>
        <time>2013-05-16T18:04:46Z</time>
      </trkpt>
      <trkpt lat="59.9458591" lon="17.8255366">
        <ele>31.3801</ele>
        <time>2013-05-16T18:04:47Z</time>
      </trkpt>
      <trkpt lat="59.9459249" lon="17.8256057">
        <ele>31.3801</ele>
        <time>2013-05-16T18:04:48Z</time>
      </trkpt>
      <trkpt lat="59.9459916" lon="17.8256748">
        <ele>31.3801</ele>
        <time>2013-05-16T18:04:49Z</time>
      </trkpt>
      <trkpt lat="59.9460581" lon="17.8257447">
        <ele>30.8995</ele>
        <time>2013-05-16T18:04:50Z</time>
      </trkpt>
      <trkpt lat="59.9461251" lon="17.8258154">
        <ele>30.8995</ele>
        <time>2013-05-16T18:04:51Z</time>
      </trkpt>
      <trkpt lat="59.9461921" lon="17.8258856">
        <ele>30.8995</ele>
        <time>2013-05-16T18:04:52Z</time>
      </trkpt>
      <trkpt lat="59.9462595" lon="17.8259545">
        <ele>30.4188</ele>
        <time>2013-05-16T18:04:53Z</time>
      </trkpt>
      <trkpt lat="59.9463264" lon="17.8260234">
        <ele>30.4188</ele>
        <time>2013-05-16T18:04:54Z</time>
      </trkpt>
      <trkpt lat="59.9463931" lon="17.826093">
        <ele>30.4188</ele>
        <time>2013-05-16T18:04:55Z</time>
      </trkpt>
      <trkpt lat="59.94646" lon="17.8261622">
        <ele>30.4188</ele>
        <time>2013-05-16T18:04:56Z</time>
      </trkpt>
      <trkpt lat="59.9465272" lon="17.8262296">
        <ele>30.4188</ele>
        <time>2013-05-16T18:04:57Z</time>
      </trkpt>
      <trkpt lat="59.9465937" lon="17.8262962">
        <ele>29.9381</ele>
        <time>2013-05-16T18:04:58Z</time>
      </trkpt>
      <trkpt lat="59.9466604" lon="17.8263639">
        <ele>29.9381</ele>
        <time>2013-05-16T18:04:59Z</time>
      </trkpt>
      <trkpt lat="59.9467263" lon="17.8264334">
        <ele>29.9381</ele>
        <time>2013-05-16T18:05:00Z</time>
      </trkpt>
      <trkpt lat="59.9467921" lon="17.8265028">
        <ele>29.9381</ele>
        <time>2013-05-16T18:05:01Z</time>
      </trkpt>
      <trkpt lat="59.9468581" lon="17.826571">
        <ele>29.4575</ele>
        <time>2013-05-16T18:05:02Z</time>
      </trkpt>
      <trkpt lat="59.9469241" lon="17.8266383">
        <ele>29.4575</ele>
        <time>2013-05-16T18:05:03Z</time>
      </trkpt>
      <trkpt lat="59.9469899" lon="17.8267047">
        <ele>29.4575</ele>
        <time>2013-05-16T18:05:04Z</time>
      </trkpt>
      <trkpt lat="59.9470551" lon="17.8267715">
        <ele>29.4575</ele>
        <time>2013-05-16T18:05:05Z</time>
      </trkpt>
      <trkpt lat="59.9471194" lon="17.8268388">
        <ele>29.4575</ele>
        <time>2013-05-16T18:05:06Z</time>
      </trkpt>
      <trkpt lat="59.947183" lon="17.8269047">
        <ele>29.4575</ele>
        <time>2013-05-16T18:05:07Z</time>
      </trkpt>
      <trkpt lat="59.9472459" lon="17.8269698">
        <ele>29.4575</ele>
        <time>2013-05-16T18:05:08Z</time>
      </trkpt>
      <trkpt lat="59.9473085" lon="17.8270351">
        <ele>29.4575</ele>
        <time>2013-05-16T18:05:09Z</time>
      </trkpt>
      <trkpt lat="59.9473706" lon="17.8270999">
        <ele>29.4575</ele>
        <time>2013-05-16T18:05:10Z</time>
      </trkpt>
      <trkpt lat="59.9474321" lon="17.8271635">
        <ele>29.4575</ele>
        <time>2013-05-16T18:05:11Z</time>
      </trkpt>
      <trkpt lat="59.9474928" lon="17.8272254">
        <ele>29.4575</ele>
        <time>2013-05-16T18:05:12Z</time>
      </trkpt>
      <trkpt lat="59.9475527" lon="17.8272874">
        <ele>29.4575</ele>
        <time>2013-05-16T18:05:13Z</time>
      </trkpt>
      <trkpt lat="59.9476121" lon="17.8273488">
        <ele>29.4575</ele>
        <time>2013-05-16T18:05:14Z</time>
      </trkpt>
      <trkpt lat="59.9476717" lon="17.8274093">
        <ele>29.4575</ele>
        <time>2013-05-16T18:05:15Z</time>
      </trkpt>
      <trkpt lat="59.947731" lon="17.8274699">
        <ele>29.4575</ele>
        <time>2013-05-16T18:05:16Z</time>
      </trkpt>
      <trkpt lat="59.9477907" lon="17.8275319">
        <ele>29.4575</ele>
        <time>2013-05-16T18:05:17Z</time>
      </trkpt>
      <trkpt lat="59.9478518" lon="17.827594">
        <ele>29.4575</ele>
        <time>2013-05-16T18:05:18Z</time>
      </trkpt>
      <trkpt lat="59.9479135" lon="17.8276557">
        <ele>29.4575</ele>
        <time>2013-05-16T18:05:19Z</time>
      </trkpt>
      <trkpt lat="59.9479756" lon="17.8277189">
        <ele>29.4575</ele>
        <time>2013-05-16T18:05:20Z</time>
      </trkpt>
      <trkpt lat="59.9480382" lon="17.8277839">
        <ele>29.4575</ele>
        <time>2013-05-16T18:05:21Z</time>
      </trkpt>
      <trkpt lat="59.9480998" lon="17.8278502">
        <ele>28.9769</ele>
        <time>2013-05-16T18:05:22Z</time>
      </trkpt>
      <trkpt lat="59.9481622" lon="17.8279178">
        <ele>28.4962</ele>
        <time>2013-05-16T18:05:23Z</time>
      </trkpt>
      <trkpt lat="59.9482259" lon="17.8279822">
        <ele>28.9769</ele>
        <time>2013-05-16T18:05:24Z</time>
      </trkpt>
      <trkpt lat="59.9482916" lon="17.8280458">
        <ele>29.4575</ele>
        <time>2013-05-16T18:05:25Z</time>
      </trkpt>
      <trkpt lat="59.9483564" lon="17.8281122">
        <ele>29.4575</ele>
        <time>2013-05-16T18:05:26Z</time>
      </trkpt>
      <trkpt lat="59.9484209" lon="17.8281795">
        <ele>29.4575</ele>
        <time>2013-05-16T18:05:27Z</time>
      </trkpt>
      <trkpt lat="59.9484848" lon="17.8282451">
        <ele>29.4575</ele>
        <time>2013-05-16T18:05:28Z</time>
      </trkpt>
      <trkpt lat="59.9485479" lon="17.828306">
        <ele>29.4575</ele>
        <time>2013-05-16T18:05:29Z</time>
      </trkpt>
      <trkpt lat="59.9486098" lon="17.8283645">
        <ele>29.4575</ele>
        <time>2013-05-16T18:05:30Z</time>
      </trkpt>
      <trkpt lat="59.9486702" lon="17.828423">
        <ele>29.4575</ele>
        <time>2013-05-16T18:05:31Z</time>
      </trkpt>
      <trkpt lat="59.9487309" lon="17.8284694">
        <ele>28.9769</ele>
        <time>2013-05-16T18:05:32Z</time>
      </trkpt>
      <trkpt lat="59.9487929" lon="17.8285049">
        <ele>28.9769</ele>
        <time>2013-05-16T18:05:33Z</time>
      </trkpt>
      <trkpt lat="59.9488547" lon="17.8285459">
        <ele>28.4962</ele>
        <time>2013-05-16T18:05:34Z</time>
      </trkpt>
      <trkpt lat="59.9489172" lon="17.8285932">
        <ele>28.0155</ele>
        <time>2013-05-16T18:05:35Z</time>
      </trkpt>
      <trkpt lat="59.9489801" lon="17.8286463">
        <ele>28.0155</ele>
        <time>2013-05-16T18:05:36Z</time>
      </trkpt>
      <trkpt lat="59.949041" lon="17.8287058">
        <ele>27.0543</ele>
        <time>2013-05-16T18:05:37Z</time>
      </trkpt>
      <trkpt lat="59.9491013" lon="17.8287692">
        <ele>26.5736</ele>
        <time>2013-05-16T18:05:38Z</time>
      </trkpt>
      <trkpt lat="59.949161" lon="17.8288346">
        <ele>26.0929</ele>
        <time>2013-05-16T18:05:39Z</time>
      </trkpt>
      <trkpt lat="59.9492198" lon="17.8288986">
        <ele>25.6123</ele>
        <time>2013-05-16T18:05:40Z</time>
      </trkpt>
      <trkpt lat="59.949278" lon="17.8289582">
        <ele>25.1317</ele>
        <time>2013-05-16T18:05:41Z</time>
      </trkpt>
      <trkpt lat="59.949336" lon="17.8290155">
        <ele>24.651</ele>
        <time>2013-05-16T18:05:42Z</time>
      </trkpt>
      <trkpt lat="59.9493932" lon="17.8290773">
        <ele>24.1703</ele>
        <time>2013-05-16T18:05:43Z</time>
      </trkpt>
      <trkpt lat="59.9494468" lon="17.8291465">
        <ele>23.6896</ele>
        <time>2013-05-16T18:05:44Z</time>
      </trkpt>
      <trkpt lat="59.9494984" lon="17.8292205">
        <ele>23.6896</ele>
        <time>2013-05-16T18:05:45Z</time>
      </trkpt>
      <trkpt lat="59.9495473" lon="17.8292968">
        <ele>23.6896</ele>
        <time>2013-05-16T18:05:46Z</time>
      </trkpt>
      <trkpt lat="59.9495943" lon="17.8293737">
        <ele>23.209</ele>
        <time>2013-05-16T18:05:47Z</time>
      </trkpt>
      <trkpt lat="59.9496411" lon="17.8294467">
        <ele>23.209</ele>
        <time>2013-05-16T18:05:48Z</time>
      </trkpt>
      <trkpt lat="59.949685" lon="17.8295191">
        <ele>23.6896</ele>
        <time>2013-05-16T18:05:49Z</time>
      </trkpt>
      <trkpt lat="59.9497272" lon="17.8295896">
        <ele>23.6896</ele>
        <time>2013-05-16T18:05:50Z</time>
      </trkpt>
      <trkpt lat="59.9497691" lon="17.8296572">
        <ele>23.6896</ele>
        <time>2013-05-16T18:05:51Z</time>
      </trkpt>
      <trkpt lat="59.9498111" lon="17.8297212">
        <ele>23.6896</ele>
        <time>2013-05-16T18:05:52Z</time>
      </trkpt>
      <trkpt lat="59.949858" lon="17.829762">
        <ele>23.6896</ele>
        <time>2013-05-16T18:05:53Z</time>
      </trkpt>
      <trkpt lat="59.9499107" lon="17.8297558">
        <ele>24.1703</ele>
        <time>2013-05-16T18:05:54Z</time>
      </trkpt>
      <trkpt lat="59.9499592" lon="17.8297041">
        <ele>24.1703</ele>
        <time>2013-05-16T18:05:55Z</time>
      </trkpt>
      <trkpt lat="59.9499972" lon="17.8296156">
        <ele>24.1703</ele>
        <time>2013-05-16T18:05:56Z</time>
      </trkpt>
      <trkpt lat="59.9500233" lon="17.8295027">
        <ele>23.6896</ele>
        <time>2013-05-16T18:05:57Z</time>
      </trkpt>
      <trkpt lat="59.9500437" lon="17.8293735">
        <ele>24.1703</ele>
        <time>2013-05-16T18:05:58Z</time>
      </trkpt>
      <trkpt lat="59.9500581" lon="17.829238">
        <ele>24.651</ele>
        <time>2013-05-16T18:05:59Z</time>
      </trkpt>
      <trkpt lat="59.950067" lon="17.8290959">
        <ele>24.651</ele>
        <time>2013-05-16T18:06:00Z</time>
      </trkpt>
      <trkpt lat="59.9500718" lon="17.8289498">
        <ele>25.1317</ele>
        <time>2013-05-16T18:06:01Z</time>
      </trkpt>
      <trkpt lat="59.9500726" lon="17.8288043">
        <ele>24.651</ele>
        <time>2013-05-16T18:06:02Z</time>
      </trkpt>
      <trkpt lat="59.9500741" lon="17.8286604">
        <ele>24.651</ele>
        <time>2013-05-16T18:06:03Z</time>
      </trkpt>
      <trkpt lat="59.9500725" lon="17.8285166">
        <ele>24.651</ele>
        <time>2013-05-16T18:06:04Z</time>
      </trkpt>
      <trkpt lat="59.9500718" lon="17.8283708">
        <ele>24.1703</ele>
        <time>2013-05-16T18:06:05Z</time>
      </trkpt>
      <trkpt lat="59.950072" lon="17.8282229">
        <ele>24.1703</ele>
        <time>2013-05-16T18:06:06Z</time>
      </trkpt>
      <trkpt lat="59.9500724" lon="17.8280692">
        <ele>24.1703</ele>
        <time>2013-05-16T18:06:07Z</time>
      </trkpt>
      <trkpt lat="59.9500713" lon="17.8279118">
        <ele>23.6896</ele>
        <time>2013-05-16T18:06:08Z</time>
      </trkpt>
      <trkpt lat="59.9500706" lon="17.827753">
        <ele>23.6896</ele>
        <time>2013-05-16T18:06:09Z</time>
      </trkpt>
      <trkpt lat="59.9500711" lon="17.8275926">
        <ele>23.209</ele>
        <time>2013-05-16T18:06:10Z</time>
      </trkpt>
      <trkpt lat="59.9500715" lon="17.82743">
        <ele>23.209</ele>
        <time>2013-05-16T18:06:11Z</time>
      </trkpt>
      <trkpt lat="59.9500731" lon="17.8272647">
        <ele>23.209</ele>
        <time>2013-05-16T18:06:12Z</time>
      </trkpt>
      <trkpt lat="59.9500767" lon="17.827097">
        <ele>22.7283</ele>
        <time>2013-05-16T18:06:13Z</time>
      </trkpt>
      <trkpt lat="59.9500829" lon="17.8269271">
        <ele>22.7283</ele>
        <time>2013-05-16T18:06:14Z</time>
      </trkpt>
      <trkpt lat="59.9500931" lon="17.8267556">
        <ele>22.2476</ele>
        <time>2013-05-16T18:06:15Z</time>
      </trkpt>
      <trkpt lat="59.9501072" lon="17.8265825">
        <ele>22.2476</ele>
        <time>2013-05-16T18:06:16Z</time>
      </trkpt>
      <trkpt lat="59.9501254" lon="17.8264084">
        <ele>22.2476</ele>
        <time>2013-05-16T18:06:17Z</time>
      </trkpt>
      <trkpt lat="59.9501497" lon="17.8262345">
        <ele>21.767</ele>
        <time>2013-05-16T18:06:18Z</time>
      </trkpt>
      <trkpt lat="59.9501804" lon="17.8260639">
        <ele>21.767</ele>
        <time>2013-05-16T18:06:19Z</time>
      </trkpt>
      <trkpt lat="59.9502165" lon="17.8258975">
        <ele>22.2476</ele>
        <time>2013-05-16T18:06:20Z</time>
      </trkpt>
      <trkpt lat="59.9502544" lon="17.8257343">
        <ele>22.2476</ele>
        <time>2013-05-16T18:06:21Z</time>
      </trkpt>
      <trkpt lat="59.9502927" lon="17.8255712">
        <ele>22.2476</ele>
        <time>2013-05-16T18:06:22Z</time>
      </trkpt>
      <trkpt lat="59.950331" lon="17.8254073">
        <ele>22.2476</ele>
        <time>2013-05-16T18:06:23Z</time>
      </trkpt>
      <trkpt lat="59.9503692" lon="17.825243">
        <ele>22.7283</ele>
        <time>2013-05-16T18:06:24Z</time>
      </trkpt>
      <trkpt lat="59.9504065" lon="17.8250763">
        <ele>22.7283</ele>
        <time>2013-05-16T18:06:25Z</time>
      </trkpt>
      <trkpt lat="59.9504438" lon="17.8249086">
        <ele>22.7283</ele>
        <time>2013-05-16T18:06:26Z</time>
      </trkpt>
      <trkpt lat="59.9504816" lon="17.8247403">
        <ele>22.7283</ele>
        <time>2013-05-16T18:06:27Z</time>
      </trkpt>
      <trkpt lat="59.950518" lon="17.8245688">
        <ele>23.209</ele>
        <time>2013-05-16T18:06:28Z</time>
      </trkpt>
      <trkpt lat="59.9505553" lon="17.8243987">
        <ele>23.209</ele>
        <time>2013-05-16T18:06:29Z</time>
      </trkpt>
      <trkpt lat="59.9505933" lon="17.8242293">
        <ele>23.209</ele>
        <time>2013-05-16T18:06:30Z</time>
      </trkpt>
      <trkpt lat="59.9506305" lon="17.8240615">
        <ele>23.6896</ele>
        <time>2013-05-16T18:06:31Z</time>
      </trkpt>
      <trkpt lat="59.950662" lon="17.8238864">
        <ele>23.209</ele>
        <time>2013-05-16T18:06:32Z</time>
      </trkpt>
      <trkpt lat="59.9506843" lon="17.8236753">
        <ele>23.209</ele>
        <time>2013-05-16T18:06:33Z</time>
      </trkpt>
      <trkpt lat="59.9507031" lon="17.8234912">
        <ele>23.209</ele>
        <time>2013-05-16T18:06:34Z</time>
      </trkpt>
      <trkpt lat="59.9507226" lon="17.8233097">
        <ele>22.7283</ele>
        <time>2013-05-16T18:06:35Z</time>
      </trkpt>
      <trkpt lat="59.9507409" lon="17.8231326">
        <ele>22.7283</ele>
        <time>2013-05-16T18:06:36Z</time>
      </trkpt>
      <trkpt lat="59.9507627" lon="17.8229604">
        <ele>22.7283</ele>
        <time>2013-05-16T18:06:37Z</time>
      </trkpt>
      <trkpt lat="59.9507782" lon="17.8227783">
        <ele>22.7283</ele>
        <time>2013-05-16T18:06:38Z</time>
      </trkpt>
      <trkpt lat="59.9507962" lon="17.8225895">
        <ele>22.7283</ele>
        <time>2013-05-16T18:06:39Z</time>
      </trkpt>
      <trkpt lat="59.9508093" lon="17.8224037">
        <ele>22.2476</ele>
        <time>2013-05-16T18:06:40Z</time>
      </trkpt>
      <trkpt lat="59.9508279" lon="17.8222214">
        <ele>21.767</ele>
        <time>2013-05-16T18:06:41Z</time>
      </trkpt>
      <trkpt lat="59.9508458" lon="17.8220399">
        <ele>21.767</ele>
        <time>2013-05-16T18:06:42Z</time>
      </trkpt>
      <trkpt lat="59.9508655" lon="17.8218598">
        <ele>21.767</ele>
        <time>2013-05-16T18:06:43Z</time>
      </trkpt>
      <trkpt lat="59.9508858" lon="17.8216781">
        <ele>21.767</ele>
        <time>2013-05-16T18:06:44Z</time>
      </trkpt>
      <trkpt lat="59.9509102" lon="17.8215007">
        <ele>21.767</ele>
        <time>2013-05-16T18:06:45Z</time>
      </trkpt>
      <trkpt lat="59.95093" lon="17.821314">
        <ele>21.2864</ele>
        <time>2013-05-16T18:06:46Z</time>
      </trkpt>
      <trkpt lat="59.9509481" lon="17.8211273">
        <ele>21.2864</ele>
        <time>2013-05-16T18:06:47Z</time>
      </trkpt>
      <trkpt lat="59.9509638" lon="17.8209391">
        <ele>21.2864</ele>
        <time>2013-05-16T18:06:48Z</time>
      </trkpt>
      <trkpt lat="59.9509768" lon="17.8207508">
        <ele>21.2864</ele>
        <time>2013-05-16T18:06:49Z</time>
      </trkpt>
      <trkpt lat="59.9509889" lon="17.8205632">
        <ele>21.2864</ele>
        <time>2013-05-16T18:06:50Z</time>
      </trkpt>
      <trkpt lat="59.9510002" lon="17.8203763">
        <ele>21.2864</ele>
        <time>2013-05-16T18:06:51Z</time>
      </trkpt>
      <trkpt lat="59.9510086" lon="17.820188">
        <ele>21.2864</ele>
        <time>2013-05-16T18:06:52Z</time>
      </trkpt>
      <trkpt lat="59.9510164" lon="17.8199989">
        <ele>21.2864</ele>
        <time>2013-05-16T18:06:53Z</time>
      </trkpt>
      <trkpt lat="59.9510232" lon="17.81981">
        <ele>21.2864</ele>
        <time>2013-05-16T18:06:54Z</time>
      </trkpt>
      <trkpt lat="59.9510276" lon="17.8196214">
        <ele>21.767</ele>
        <time>2013-05-16T18:06:55Z</time>
      </trkpt>
      <trkpt lat="59.9510325" lon="17.8194339">
        <ele>21.767</ele>
        <time>2013-05-16T18:06:56Z</time>
      </trkpt>
      <trkpt lat="59.9510371" lon="17.8192459">
        <ele>22.2476</ele>
        <time>2013-05-16T18:06:57Z</time>
      </trkpt>
      <trkpt lat="59.9510412" lon="17.8190569">
        <ele>22.2476</ele>
        <time>2013-05-16T18:06:58Z</time>
      </trkpt>
      <trkpt lat="59.951049" lon="17.8188682">
        <ele>22.7283</ele>
        <time>2013-05-16T18:06:59Z</time>
      </trkpt>
      <trkpt lat="59.9510623" lon="17.8186813">
        <ele>23.209</ele>
        <time>2013-05-16T18:07:00Z</time>
      </trkpt>
      <trkpt lat="59.9510794" lon="17.8184964">
        <ele>23.209</ele>
        <time>2013-05-16T18:07:01Z</time>
      </trkpt>
      <trkpt lat="59.9510982" lon="17.818313">
        <ele>23.209</ele>
        <time>2013-05-16T18:07:02Z</time>
      </trkpt>
      <trkpt lat="59.9511174" lon="17.8181284">
        <ele>22.7283</ele>
        <time>2013-05-16T18:07:03Z</time>
      </trkpt>
      <trkpt lat="59.9511356" lon="17.8179417">
        <ele>22.7283</ele>
        <time>2013-05-16T18:07:04Z</time>
      </trkpt>
      <trkpt lat="59.9511537" lon="17.8177552">
        <ele>22.7283</ele>
        <time>2013-05-16T18:07:05Z</time>
      </trkpt>
      <trkpt lat="59.9511723" lon="17.8175713">
        <ele>22.7283</ele>
        <time>2013-05-16T18:07:06Z</time>
      </trkpt>
      <trkpt lat="59.9511912" lon="17.8173906">
        <ele>23.209</ele>
        <time>2013-05-16T18:07:07Z</time>
      </trkpt>
      <trkpt lat="59.9512101" lon="17.8172124">
        <ele>23.209</ele>
        <time>2013-05-16T18:07:08Z</time>
      </trkpt>
      <trkpt lat="59.9512287" lon="17.8170342">
        <ele>23.209</ele>
        <time>2013-05-16T18:07:09Z</time>
      </trkpt>
      <trkpt lat="59.9512459" lon="17.8168543">
        <ele>23.209</ele>
        <time>2013-05-16T18:07:10Z</time>
      </trkpt>
      <trkpt lat="59.9512633" lon="17.8166733">
        <ele>22.7283</ele>
        <time>2013-05-16T18:07:11Z</time>
      </trkpt>
      <trkpt lat="59.951282" lon="17.8164921">
        <ele>22.7283</ele>
        <time>2013-05-16T18:07:12Z</time>
      </trkpt>
      <trkpt lat="59.9512996" lon="17.8163094">
        <ele>22.7283</ele>
        <time>2013-05-16T18:07:13Z</time>
      </trkpt>
      <trkpt lat="59.9513153" lon="17.8161251">
        <ele>22.7283</ele>
        <time>2013-05-16T18:07:14Z</time>
      </trkpt>
      <trkpt lat="59.9513298" lon="17.8159395">
        <ele>22.2476</ele>
        <time>2013-05-16T18:07:15Z</time>
      </trkpt>
      <trkpt lat="59.9513417" lon="17.8157514">
        <ele>22.2476</ele>
        <time>2013-05-16T18:07:16Z</time>
      </trkpt>
      <trkpt lat="59.9513506" lon="17.8155614">
        <ele>22.2476</ele>
        <time>2013-05-16T18:07:17Z</time>
      </trkpt>
      <trkpt lat="59.9513582" lon="17.8153702">
        <ele>22.2476</ele>
        <time>2013-05-16T18:07:18Z</time>
      </trkpt>
      <trkpt lat="59.9513649" lon="17.8151784">
        <ele>22.2476</ele>
        <time>2013-05-16T18:07:19Z</time>
      </trkpt>
      <trkpt lat="59.9513701" lon="17.8149853">
        <ele>22.2476</ele>
        <time>2013-05-16T18:07:20Z</time>
      </trkpt>
      <trkpt lat="59.9513739" lon="17.8147915">
        <ele>22.2476</ele>
        <time>2013-05-16T18:07:21Z</time>
      </trkpt>
      <trkpt lat="59.9513774" lon="17.8145978">
        <ele>22.2476</ele>
        <time>2013-05-16T18:07:22Z</time>
      </trkpt>
      <trkpt lat="59.95138" lon="17.8144026">
        <ele>22.2476</ele>
        <time>2013-05-16T18:07:23Z</time>
      </trkpt>
      <trkpt lat="59.9513825" lon="17.8142062">
        <ele>22.2476</ele>
        <time>2013-05-16T18:07:24Z</time>
      </trkpt>
      <trkpt lat="59.9513851" lon="17.814009">
        <ele>22.2476</ele>
        <time>2013-05-16T18:07:25Z</time>
      </trkpt>
      <trkpt lat="59.9513869" lon="17.8138116">
        <ele>22.2476</ele>
        <time>2013-05-16T18:07:26Z</time>
      </trkpt>
      <trkpt lat="59.9513878" lon="17.813614">
        <ele>21.767</ele>
        <time>2013-05-16T18:07:27Z</time>
      </trkpt>
      <trkpt lat="59.9513878" lon="17.8134157">
        <ele>21.767</ele>
        <time>2013-05-16T18:07:28Z</time>
      </trkpt>
      <trkpt lat="59.9513878" lon="17.8132174">
        <ele>21.767</ele>
        <time>2013-05-16T18:07:29Z</time>
      </trkpt>
      <trkpt lat="59.9513886" lon="17.8130182">
        <ele>21.767</ele>
        <time>2013-05-16T18:07:30Z</time>
      </trkpt>
      <trkpt lat="59.9513905" lon="17.8128181">
        <ele>21.767</ele>
        <time>2013-05-16T18:07:31Z</time>
      </trkpt>
      <trkpt lat="59.9513919" lon="17.8126173">
        <ele>21.767</ele>
        <time>2013-05-16T18:07:32Z</time>
      </trkpt>
      <trkpt lat="59.951393" lon="17.8124166">
        <ele>22.2476</ele>
        <time>2013-05-16T18:07:33Z</time>
      </trkpt>
      <trkpt lat="59.9513956" lon="17.8122171">
        <ele>22.7283</ele>
        <time>2013-05-16T18:07:34Z</time>
      </trkpt>
      <trkpt lat="59.9514028" lon="17.8120192">
        <ele>23.209</ele>
        <time>2013-05-16T18:07:35Z</time>
      </trkpt>
      <trkpt lat="59.9514155" lon="17.8118227">
        <ele>23.209</ele>
        <time>2013-05-16T18:07:36Z</time>
      </trkpt>
      <trkpt lat="59.9514337" lon="17.8116281">
        <ele>23.6896</ele>
        <time>2013-05-16T18:07:37Z</time>
      </trkpt>
      <trkpt lat="59.9514562" lon="17.8114355">
        <ele>24.1703</ele>
        <time>2013-05-16T18:07:38Z</time>
      </trkpt>
      <trkpt lat="59.9514819" lon="17.8112441">
        <ele>24.1703</ele>
        <time>2013-05-16T18:07:39Z</time>
      </trkpt>
      <trkpt lat="59.9515096" lon="17.8110532">
        <ele>24.651</ele>
        <time>2013-05-16T18:07:40Z</time>
      </trkpt>
      <trkpt lat="59.9515391" lon="17.8108638">
        <ele>25.1317</ele>
        <time>2013-05-16T18:07:41Z</time>
      </trkpt>
      <trkpt lat="59.9515722" lon="17.8106765">
        <ele>25.1317</ele>
        <time>2013-05-16T18:07:42Z</time>
      </trkpt>
      <trkpt lat="59.9516088" lon="17.8104917">
        <ele>25.6123</ele>
        <time>2013-05-16T18:07:43Z</time>
      </trkpt>
      <trkpt lat="59.9516479" lon="17.8103083">
        <ele>26.0929</ele>
        <time>2013-05-16T18:07:44Z</time>
      </trkpt>
      <trkpt lat="59.9516908" lon="17.8101316">
        <ele>25.6123</ele>
        <time>2013-05-16T18:07:45Z</time>
      </trkpt>
      <trkpt lat="59.9517353" lon="17.8099559">
        <ele>25.6123</ele>
        <time>2013-05-16T18:07:46Z</time>
      </trkpt>
      <trkpt lat="59.9517811" lon="17.8097819">
        <ele>25.1317</ele>
        <time>2013-05-16T18:07:47Z</time>
      </trkpt>
      <trkpt lat="59.9518277" lon="17.8096079">
        <ele>25.1317</ele>
        <time>2013-05-16T18:07:48Z</time>
      </trkpt>
      <trkpt lat="59.9518747" lon="17.8094343">
        <ele>25.1317</ele>
        <time>2013-05-16T18:07:49Z</time>
      </trkpt>
      <trkpt lat="59.9519206" lon="17.8092625">
        <ele>25.1317</ele>
        <time>2013-05-16T18:07:50Z</time>
      </trkpt>
      <trkpt lat="59.9519662" lon="17.8090931">
        <ele>24.651</ele>
        <time>2013-05-16T18:07:51Z</time>
      </trkpt>
      <trkpt lat="59.9520123" lon="17.8089262">
        <ele>24.651</ele>
        <time>2013-05-16T18:07:52Z</time>
      </trkpt>
      <trkpt lat="59.952058" lon="17.8087597">
        <ele>24.651</ele>
        <time>2013-05-16T18:07:53Z</time>
      </trkpt>
      <trkpt lat="59.9521029" lon="17.8085941">
        <ele>24.1703</ele>
        <time>2013-05-16T18:07:54Z</time>
      </trkpt>
      <trkpt lat="59.9521471" lon="17.8084292">
        <ele>23.6896</ele>
        <time>2013-05-16T18:07:55Z</time>
      </trkpt>
      <trkpt lat="59.9521907" lon="17.8082643">
        <ele>23.6896</ele>
        <time>2013-05-16T18:07:56Z</time>
      </trkpt>
      <trkpt lat="59.9522345" lon="17.8081021">
        <ele>23.6896</ele>
        <time>2013-05-16T18:07:57Z</time>
      </trkpt>
      <trkpt lat="59.9522775" lon="17.807942">
        <ele>23.6896</ele>
        <time>2013-05-16T18:07:58Z</time>
      </trkpt>
      <trkpt lat="59.9523202" lon="17.8077773">
        <ele>24.1703</ele>
        <time>2013-05-16T18:07:59Z</time>
      </trkpt>
      <trkpt lat="59.9523626" lon="17.807612">
        <ele>24.651</ele>
        <time>2013-05-16T18:08:00Z</time>
      </trkpt>
      <trkpt lat="59.9524041" lon="17.8074456">
        <ele>24.651</ele>
        <time>2013-05-16T18:08:01Z</time>
      </trkpt>
      <trkpt lat="59.9524459" lon="17.8072815">
        <ele>25.1317</ele>
        <time>2013-05-16T18:08:02Z</time>
      </trkpt>
      <trkpt lat="59.9524865" lon="17.8071207">
        <ele>25.6123</ele>
        <time>2013-05-16T18:08:03Z</time>
      </trkpt>
      <trkpt lat="59.9525251" lon="17.8069602">
        <ele>25.6123</ele>
        <time>2013-05-16T18:08:04Z</time>
      </trkpt>
      <trkpt lat="59.9525633" lon="17.8068038">
        <ele>25.6123</ele>
        <time>2013-05-16T18:08:05Z</time>
      </trkpt>
      <trkpt lat="59.9525997" lon="17.8066519">
        <ele>26.0929</ele>
        <time>2013-05-16T18:08:06Z</time>
      </trkpt>
      <trkpt lat="59.9526311" lon="17.806491">
        <ele>25.6123</ele>
        <time>2013-05-16T18:08:07Z</time>
      </trkpt>
      <trkpt lat="59.9526603" lon="17.8063273">
        <ele>25.6123</ele>
        <time>2013-05-16T18:08:08Z</time>
      </trkpt>
      <trkpt lat="59.952689" lon="17.8061637">
        <ele>25.1317</ele>
        <time>2013-05-16T18:08:09Z</time>
      </trkpt>
      <trkpt lat="59.9527175" lon="17.806">
        <ele>25.1317</ele>
        <time>2013-05-16T18:08:10Z</time>
      </trkpt>
      <trkpt lat="59.9527445" lon="17.8058414">
        <ele>25.1317</ele>
        <time>2013-05-16T18:08:11Z</time>
      </trkpt>
      <trkpt lat="59.9527657" lon="17.8056777">
        <ele>25.1317</ele>
        <time>2013-05-16T18:08:12Z</time>
      </trkpt>
      <trkpt lat="59.9527842" lon="17.8055134">
        <ele>25.6123</ele>
        <time>2013-05-16T18:08:13Z</time>
      </trkpt>
      <trkpt lat="59.9528043" lon="17.8053529">
        <ele>26.0929</ele>
        <time>2013-05-16T18:08:14Z</time>
      </trkpt>
      <trkpt lat="59.9528231" lon="17.8051918">
        <ele>26.0929</ele>
        <time>2013-05-16T18:08:15Z</time>
      </trkpt>
      <trkpt lat="59.9528418" lon="17.8050328">
        <ele>26.0929</ele>
        <time>2013-05-16T18:08:16Z</time>
      </trkpt>
      <trkpt lat="59.9528595" lon="17.8048732">
        <ele>26.0929</ele>
        <time>2013-05-16T18:08:17Z</time>
      </trkpt>
      <trkpt lat="59.952879" lon="17.8047137">
        <ele>26.5736</ele>
        <time>2013-05-16T18:08:18Z</time>
      </trkpt>
      <trkpt lat="59.9529015" lon="17.8045653">
        <ele>26.5736</ele>
        <time>2013-05-16T18:08:19Z</time>
      </trkpt>
      <trkpt lat="59.9529289" lon="17.8044288">
        <ele>27.0543</ele>
        <time>2013-05-16T18:08:20Z</time>
      </trkpt>
      <trkpt lat="59.9529662" lon="17.8042979">
        <ele>27.5349</ele>
        <time>2013-05-16T18:08:21Z</time>
      </trkpt>
      <trkpt lat="59.9530092" lon="17.8041818">
        <ele>28.4962</ele>
        <time>2013-05-16T18:08:22Z</time>
      </trkpt>
      <trkpt lat="59.9530599" lon="17.8040792">
        <ele>29.9381</ele>
        <time>2013-05-16T18:08:23Z</time>
      </trkpt>
      <trkpt lat="59.9531143" lon="17.8039886">
        <ele>30.4188</ele>
        <time>2013-05-16T18:08:24Z</time>
      </trkpt>
      <trkpt lat="59.9531692" lon="17.8039025">
        <ele>31.3801</ele>
        <time>2013-05-16T18:08:25Z</time>
      </trkpt>
      <trkpt lat="59.9532184" lon="17.8038158">
        <ele>31.8607</ele>
        <time>2013-05-16T18:08:26Z</time>
      </trkpt>
      <trkpt lat="59.9532648" lon="17.803715">
        <ele>32.3416</ele>
        <time>2013-05-16T18:08:27Z</time>
      </trkpt>
      <trkpt lat="59.9533139" lon="17.8036073">
        <ele>33.3029</ele>
        <time>2013-05-16T18:08:28Z</time>
      </trkpt>
      <trkpt lat="59.9533622" lon="17.8034995">
        <ele>33.7834</ele>
        <time>2013-05-16T18:08:29Z</time>
      </trkpt>
      <trkpt lat="59.9534065" lon="17.8034035">
        <ele>34.7449</ele>
        <time>2013-05-16T18:08:30Z</time>
      </trkpt>
      <trkpt lat="59.9534479" lon="17.8033017">
        <ele>34.7449</ele>
        <time>2013-05-16T18:08:31Z</time>
      </trkpt>
      <trkpt lat="59.9534883" lon="17.8031679">
        <ele>36.1868</ele>
        <time>2013-05-16T18:08:32Z</time>
      </trkpt>
      <trkpt lat="59.9535216" lon="17.8030316">
        <ele>36.1868</ele>
        <time>2013-05-16T18:08:33Z</time>
      </trkpt>
      <trkpt lat="59.9535485" lon="17.8028903">
        <ele>34.2642</ele>
        <time>2013-05-16T18:08:34Z</time>
      </trkpt>
      <trkpt lat="59.9535743" lon="17.8027406">
        <ele>33.3029</ele>
        <time>2013-05-16T18:08:35Z</time>
      </trkpt>
      <trkpt lat="59.9535992" lon="17.8025907">
        <ele>32.8223</ele>
        <time>2013-05-16T18:08:36Z</time>
      </trkpt>
      <trkpt lat="59.9536243" lon="17.8024337">
        <ele>31.3801</ele>
        <time>2013-05-16T18:08:37Z</time>
      </trkpt>
      <trkpt lat="59.9536536" lon="17.8022765">
        <ele>30.4188</ele>
        <time>2013-05-16T18:08:38Z</time>
      </trkpt>
      <trkpt lat="59.9536847" lon="17.8021141">
        <ele>30.4188</ele>
        <time>2013-05-16T18:08:39Z</time>
      </trkpt>
      <trkpt lat="59.9537212" lon="17.8019619">
        <ele>29.9381</ele>
        <time>2013-05-16T18:08:40Z</time>
      </trkpt>
      <trkpt lat="59.9537622" lon="17.8018097">
        <ele>29.4575</ele>
        <time>2013-05-16T18:08:41Z</time>
      </trkpt>
      <trkpt lat="59.953811" lon="17.8016782">
        <ele>28.0155</ele>
        <time>2013-05-16T18:08:42Z</time>
      </trkpt>
      <trkpt lat="59.9538649" lon="17.8015434">
        <ele>26.5736</ele>
        <time>2013-05-16T18:08:43Z</time>
      </trkpt>
      <trkpt lat="59.9539265" lon="17.8014107">
        <ele>25.6123</ele>
        <time>2013-05-16T18:08:44Z</time>
      </trkpt>
      <trkpt lat="59.9539871" lon="17.801273">
        <ele>24.651</ele>
        <time>2013-05-16T18:08:45Z</time>
      </trkpt>
      <trkpt lat="59.9540471" lon="17.8011431">
        <ele>22.7283</ele>
        <time>2013-05-16T18:08:46Z</time>
      </trkpt>
      <trkpt lat="59.9541064" lon="17.8010045">
        <ele>21.2864</ele>
        <time>2013-05-16T18:08:47Z</time>
      </trkpt>
      <trkpt lat="59.9541664" lon="17.8008583">
        <ele>20.325</ele>
        <time>2013-05-16T18:08:48Z</time>
      </trkpt>
      <trkpt lat="59.9542256" lon="17.8007204">
        <ele>18.8831</ele>
        <time>2013-05-16T18:08:49Z</time>
      </trkpt>
      <trkpt lat="59.9542784" lon="17.8005767">
        <ele>17.9218</ele>
        <time>2013-05-16T18:08:50Z</time>
      </trkpt>
      <trkpt lat="59.9543348" lon="17.8004407">
        <ele>16.9604</ele>
        <time>2013-05-16T18:08:51Z</time>
      </trkpt>
      <trkpt lat="59.9543897" lon="17.8003034">
        <ele>15.999</ele>
        <time>2013-05-16T18:08:52Z</time>
      </trkpt>
      <trkpt lat="59.9544451" lon="17.8001614">
        <ele>15.999</ele>
        <time>2013-05-16T18:08:53Z</time>
      </trkpt>
      <trkpt lat="59.9545014" lon="17.8000128">
        <ele>16.4797</ele>
        <time>2013-05-16T18:08:54Z</time>
      </trkpt>
      <trkpt lat="59.9545597" lon="17.7998636">
        <ele>17.9218</ele>
        <time>2013-05-16T18:08:55Z</time>
      </trkpt>
      <trkpt lat="59.9546192" lon="17.7997216">
        <ele>17.9218</ele>
        <time>2013-05-16T18:08:56Z</time>
      </trkpt>
      <trkpt lat="59.9546803" lon="17.7995829">
        <ele>19.8444</ele>
        <time>2013-05-16T18:08:57Z</time>
      </trkpt>
      <trkpt lat="59.9547414" lon="17.7994553">
        <ele>20.8057</ele>
        <time>2013-05-16T18:08:58Z</time>
      </trkpt>
      <trkpt lat="59.954802" lon="17.7993293">
        <ele>23.6896</ele>
        <time>2013-05-16T18:08:59Z</time>
      </trkpt>
      <trkpt lat="59.9548603" lon="17.7992114">
        <ele>24.1703</ele>
        <time>2013-05-16T18:09:00Z</time>
      </trkpt>
      <trkpt lat="59.9549209" lon="17.7990988">
        <ele>25.1317</ele>
        <time>2013-05-16T18:09:01Z</time>
      </trkpt>
      <trkpt lat="59.9549823" lon="17.7989907">
        <ele>25.6123</ele>
        <time>2013-05-16T18:09:02Z</time>
      </trkpt>
      <trkpt lat="59.9550434" lon="17.7988817">
        <ele>25.1317</ele>
        <time>2013-05-16T18:09:03Z</time>
      </trkpt>
      <trkpt lat="59.9551066" lon="17.7987583">
        <ele>25.1317</ele>
        <time>2013-05-16T18:09:04Z</time>
      </trkpt>
      <trkpt lat="59.9551671" lon="17.7986295">
        <ele>25.1317</ele>
        <time>2013-05-16T18:09:05Z</time>
      </trkpt>
      <trkpt lat="59.9552252" lon="17.7984935">
        <ele>25.1317</ele>
        <time>2013-05-16T18:09:06Z</time>
      </trkpt>
      <trkpt lat="59.9552791" lon="17.7983462">
        <ele>25.1317</ele>
        <time>2013-05-16T18:09:07Z</time>
      </trkpt>
      <trkpt lat="59.9553298" lon="17.7981894">
        <ele>25.1317</ele>
        <time>2013-05-16T18:09:08Z</time>
      </trkpt>
      <trkpt lat="59.955377" lon="17.7980278">
        <ele>24.651</ele>
        <time>2013-05-16T18:09:09Z</time>
      </trkpt>
      <trkpt lat="59.9554255" lon="17.797868">
        <ele>24.651</ele>
        <time>2013-05-16T18:09:10Z</time>
      </trkpt>
      <trkpt lat="59.9554744" lon="17.7977076">
        <ele>24.651</ele>
        <time>2013-05-16T18:09:11Z</time>
      </trkpt>
      <trkpt lat="59.9555237" lon="17.797547">
        <ele>24.651</ele>
        <time>2013-05-16T18:09:12Z</time>
      </trkpt>
      <trkpt lat="59.9555734" lon="17.7973761">
        <ele>25.1317</ele>
        <time>2013-05-16T18:09:13Z</time>
      </trkpt>
      <trkpt lat="59.9556216" lon="17.7972057">
        <ele>25.1317</ele>
        <time>2013-05-16T18:09:14Z</time>
      </trkpt>
      <trkpt lat="59.9556672" lon="17.797032">
        <ele>25.6123</ele>
        <time>2013-05-16T18:09:15Z</time>
      </trkpt>
      <trkpt lat="59.95571" lon="17.7968559">
        <ele>26.0929</ele>
        <time>2013-05-16T18:09:16Z</time>
      </trkpt>
      <trkpt lat="59.9557484" lon="17.7966843">
        <ele>26.0929</ele>
        <time>2013-05-16T18:09:17Z</time>
      </trkpt>
      <trkpt lat="59.955784" lon="17.796503">
        <ele>26.0929</ele>
        <time>2013-05-16T18:09:18Z</time>
      </trkpt>
      <trkpt lat="59.9558152" lon="17.7963264">
        <ele>25.6123</ele>
        <time>2013-05-16T18:09:19Z</time>
      </trkpt>
      <trkpt lat="59.9558447" lon="17.7961499">
        <ele>25.6123</ele>
        <time>2013-05-16T18:09:20Z</time>
      </trkpt>
      <trkpt lat="59.9558758" lon="17.7959781">
        <ele>25.6123</ele>
        <time>2013-05-16T18:09:21Z</time>
      </trkpt>
      <trkpt lat="59.9559065" lon="17.7958022">
        <ele>26.0929</ele>
        <time>2013-05-16T18:09:22Z</time>
      </trkpt>
      <trkpt lat="59.9559385" lon="17.7956206">
        <ele>26.0929</ele>
        <time>2013-05-16T18:09:23Z</time>
      </trkpt>
      <trkpt lat="59.9559701" lon="17.7954424">
        <ele>25.6123</ele>
        <time>2013-05-16T18:09:24Z</time>
      </trkpt>
      <trkpt lat="59.9560003" lon="17.7952615">
        <ele>24.651</ele>
        <time>2013-05-16T18:09:25Z</time>
      </trkpt>
      <trkpt lat="59.9560312" lon="17.7950882">
        <ele>25.1317</ele>
        <time>2013-05-16T18:09:26Z</time>
      </trkpt>
      <trkpt lat="59.9560642" lon="17.7949151">
        <ele>25.1317</ele>
        <time>2013-05-16T18:09:27Z</time>
      </trkpt>
      <trkpt lat="59.9561009" lon="17.7947494">
        <ele>24.1703</ele>
        <time>2013-05-16T18:09:28Z</time>
      </trkpt>
      <trkpt lat="59.9561424" lon="17.794587">
        <ele>23.6896</ele>
        <time>2013-05-16T18:09:29Z</time>
      </trkpt>
      <trkpt lat="59.9561871" lon="17.7944388">
        <ele>22.2476</ele>
        <time>2013-05-16T18:09:30Z</time>
      </trkpt>
      <trkpt lat="59.9562339" lon="17.7942928">
        <ele>20.8057</ele>
        <time>2013-05-16T18:09:31Z</time>
      </trkpt>
      <trkpt lat="59.9562771" lon="17.7941334">
        <ele>20.8057</ele>
        <time>2013-05-16T18:09:32Z</time>
      </trkpt>
      <trkpt lat="59.956316" lon="17.7939493">
        <ele>20.8057</ele>
        <time>2013-05-16T18:09:33Z</time>
      </trkpt>
      <trkpt lat="59.9563529" lon="17.7937716">
        <ele>21.2864</ele>
        <time>2013-05-16T18:09:34Z</time>
      </trkpt>
      <trkpt lat="59.9563892" lon="17.793596">
        <ele>21.767</ele>
        <time>2013-05-16T18:09:35Z</time>
      </trkpt>
      <trkpt lat="59.9564252" lon="17.7934297">
        <ele>22.2476</ele>
        <time>2013-05-16T18:09:36Z</time>
      </trkpt>
      <trkpt lat="59.9564592" lon="17.7932658">
        <ele>22.7283</ele>
        <time>2013-05-16T18:09:37Z</time>
      </trkpt>
      <trkpt lat="59.9564948" lon="17.7930994">
        <ele>23.209</ele>
        <time>2013-05-16T18:09:38Z</time>
      </trkpt>
      <trkpt lat="59.9565273" lon="17.7929353">
        <ele>22.2476</ele>
        <time>2013-05-16T18:09:39Z</time>
      </trkpt>
      <trkpt lat="59.9565555" lon="17.7927687">
        <ele>20.8057</ele>
        <time>2013-05-16T18:09:40Z</time>
      </trkpt>
      <trkpt lat="59.9565832" lon="17.7926007">
        <ele>19.8444</ele>
        <time>2013-05-16T18:09:41Z</time>
      </trkpt>
      <trkpt lat="59.9566114" lon="17.7924305">
        <ele>19.3638</ele>
        <time>2013-05-16T18:09:42Z</time>
      </trkpt>
      <trkpt lat="59.9566397" lon="17.7922639">
        <ele>19.3638</ele>
        <time>2013-05-16T18:09:43Z</time>
      </trkpt>
      <trkpt lat="59.9566656" lon="17.7920803">
        <ele>19.3638</ele>
        <time>2013-05-16T18:09:44Z</time>
      </trkpt>
      <trkpt lat="59.9566915" lon="17.7919019">
        <ele>19.8444</ele>
        <time>2013-05-16T18:09:45Z</time>
      </trkpt>
      <trkpt lat="59.9567177" lon="17.7917272">
        <ele>20.325</ele>
        <time>2013-05-16T18:09:46Z</time>
      </trkpt>
      <trkpt lat="59.9567443" lon="17.7915573">
        <ele>21.2864</ele>
        <time>2013-05-16T18:09:47Z</time>
      </trkpt>
      <trkpt lat="59.9567648" lon="17.7913878">
        <ele>21.2864</ele>
        <time>2013-05-16T18:09:48Z</time>
      </trkpt>
      <trkpt lat="59.956775" lon="17.7912186">
        <ele>21.767</ele>
        <time>2013-05-16T18:09:49Z</time>
      </trkpt>
      <trkpt lat="59.9567757" lon="17.7910662">
        <ele>20.8057</ele>
        <time>2013-05-16T18:09:50Z</time>
      </trkpt>
      <trkpt lat="59.9567619" lon="17.7909087">
        <ele>21.2864</ele>
        <time>2013-05-16T18:09:51Z</time>
      </trkpt>
      <trkpt lat="59.9567279" lon="17.7907426">
        <ele>21.767</ele>
        <time>2013-05-16T18:09:52Z</time>
      </trkpt>
      <trkpt lat="59.9566829" lon="17.7905668">
        <ele>22.2476</ele>
        <time>2013-05-16T18:09:53Z</time>
      </trkpt>
      <trkpt lat="59.9566312" lon="17.7903664">
        <ele>22.7283</ele>
        <time>2013-05-16T18:09:54Z</time>
      </trkpt>
      <trkpt lat="59.9565954" lon="17.7901707">
        <ele>22.7283</ele>
        <time>2013-05-16T18:09:55Z</time>
      </trkpt>
      <trkpt lat="59.9565792" lon="17.789963">
        <ele>22.7283</ele>
        <time>2013-05-16T18:09:56Z</time>
      </trkpt>
      <trkpt lat="59.9565811" lon="17.7897613">
        <ele>23.209</ele>
        <time>2013-05-16T18:09:57Z</time>
      </trkpt>
      <trkpt lat="59.9566088" lon="17.7895812">
        <ele>23.6896</ele>
        <time>2013-05-16T18:09:58Z</time>
      </trkpt>
      <trkpt lat="59.9566705" lon="17.7894353">
        <ele>24.651</ele>
        <time>2013-05-16T18:09:59Z</time>
      </trkpt>
      <trkpt lat="59.956763" lon="17.7893578">
        <ele>22.2476</ele>
        <time>2013-05-16T18:10:00Z</time>
      </trkpt>
      <trkpt lat="59.9568523" lon="17.7893045">
        <ele>22.7283</ele>
        <time>2013-05-16T18:10:01Z</time>
      </trkpt>
      <trkpt lat="59.9569362" lon="17.7892211">
        <ele>22.7283</ele>
        <time>2013-05-16T18:10:02Z</time>
      </trkpt>
      <trkpt lat="59.9570201" lon="17.7891198">
        <ele>21.767</ele>
        <time>2013-05-16T18:10:03Z</time>
      </trkpt>
      <trkpt lat="59.9570952" lon="17.788989">
        <ele>21.2864</ele>
        <time>2013-05-16T18:10:04Z</time>
      </trkpt>
      <trkpt lat="59.9571724" lon="17.7888605">
        <ele>22.2476</ele>
        <time>2013-05-16T18:10:05Z</time>
      </trkpt>
      <trkpt lat="59.9572422" lon="17.7887186">
        <ele>23.6896</ele>
        <time>2013-05-16T18:10:06Z</time>
      </trkpt>
      <trkpt lat="59.9572909" lon="17.7885921">
        <ele>23.209</ele>
        <time>2013-05-16T18:10:07Z</time>
      </trkpt>
      <trkpt lat="59.9573522" lon="17.7884596">
        <ele>25.1317</ele>
        <time>2013-05-16T18:10:08Z</time>
      </trkpt>
      <trkpt lat="59.957419" lon="17.7883136">
        <ele>27.5349</ele>
        <time>2013-05-16T18:10:09Z</time>
      </trkpt>
      <trkpt lat="59.9574687" lon="17.7881653">
        <ele>28.0155</ele>
        <time>2013-05-16T18:10:10Z</time>
      </trkpt>
      <trkpt lat="59.9575131" lon="17.7880018">
        <ele>28.4962</ele>
        <time>2013-05-16T18:10:11Z</time>
      </trkpt>
      <trkpt lat="59.9575547" lon="17.7878323">
        <ele>28.0155</ele>
        <time>2013-05-16T18:10:12Z</time>
      </trkpt>
      <trkpt lat="59.9575856" lon="17.7876437">
        <ele>26.0929</ele>
        <time>2013-05-16T18:10:13Z</time>
      </trkpt>
      <trkpt lat="59.9576213" lon="17.7874614">
        <ele>26.0929</ele>
        <time>2013-05-16T18:10:14Z</time>
      </trkpt>
      <trkpt lat="59.957651" lon="17.7872762">
        <ele>27.0543</ele>
        <time>2013-05-16T18:10:15Z</time>
      </trkpt>
      <trkpt lat="59.9576822" lon="17.7871123">
        <ele>27.0543</ele>
        <time>2013-05-16T18:10:16Z</time>
      </trkpt>
      <trkpt lat="59.9577111" lon="17.7869483">
        <ele>26.0929</ele>
        <time>2013-05-16T18:10:17Z</time>
      </trkpt>
      <trkpt lat="59.957751" lon="17.7867812">
        <ele>25.6123</ele>
        <time>2013-05-16T18:10:18Z</time>
      </trkpt>
      <trkpt lat="59.9578069" lon="17.786631">
        <ele>24.651</ele>
        <time>2013-05-16T18:10:19Z</time>
      </trkpt>
      <trkpt lat="59.9578795" lon="17.7865077">
        <ele>25.1317</ele>
        <time>2013-05-16T18:10:20Z</time>
      </trkpt>
      <trkpt lat="59.9579581" lon="17.7863953">
        <ele>25.1317</ele>
        <time>2013-05-16T18:10:21Z</time>
      </trkpt>
      <trkpt lat="59.9580386" lon="17.7862896">
        <ele>25.6123</ele>
        <time>2013-05-16T18:10:22Z</time>
      </trkpt>
      <trkpt lat="59.9581189" lon="17.7861902">
        <ele>25.6123</ele>
        <time>2013-05-16T18:10:23Z</time>
      </trkpt>
      <trkpt lat="59.9581977" lon="17.7860959">
        <ele>25.6123</ele>
        <time>2013-05-16T18:10:24Z</time>
      </trkpt>
      <trkpt lat="59.9582763" lon="17.7860056">
        <ele>25.6123</ele>
        <time>2013-05-16T18:10:25Z</time>
      </trkpt>
      <trkpt lat="59.9583545" lon="17.7859182">
        <ele>26.0929</ele>
        <time>2013-05-16T18:10:26Z</time>
      </trkpt>
      <trkpt lat="59.9584321" lon="17.785831">
        <ele>26.5736</ele>
        <time>2013-05-16T18:10:27Z</time>
      </trkpt>
      <trkpt lat="59.9585073" lon="17.7857443">
        <ele>26.5736</ele>
        <time>2013-05-16T18:10:28Z</time>
      </trkpt>
      <trkpt lat="59.9585829" lon="17.7856736">
        <ele>27.0543</ele>
        <time>2013-05-16T18:10:29Z</time>
      </trkpt>
      <trkpt lat="59.9586596" lon="17.7856088">
        <ele>29.4575</ele>
        <time>2013-05-16T18:10:30Z</time>
      </trkpt>
      <trkpt lat="59.9587351" lon="17.7855466">
        <ele>29.4575</ele>
        <time>2013-05-16T18:10:31Z</time>
      </trkpt>
      <trkpt lat="59.9588109" lon="17.7854852">
        <ele>29.4575</ele>
        <time>2013-05-16T18:10:32Z</time>
      </trkpt>
      <trkpt lat="59.9588873" lon="17.7854245">
        <ele>29.4575</ele>
        <time>2013-05-16T18:10:33Z</time>
      </trkpt>
      <trkpt lat="59.9589645" lon="17.7853664">
        <ele>28.4962</ele>
        <time>2013-05-16T18:10:34Z</time>
      </trkpt>
      <trkpt lat="59.9590423" lon="17.785321">
        <ele>27.5349</ele>
        <time>2013-05-16T18:10:35Z</time>
      </trkpt>
      <trkpt lat="59.959118" lon="17.7852601">
        <ele>27.5349</ele>
        <time>2013-05-16T18:10:36Z</time>
      </trkpt>
      <trkpt lat="59.9591926" lon="17.7851903">
        <ele>28.0155</ele>
        <time>2013-05-16T18:10:37Z</time>
      </trkpt>
      <trkpt lat="59.959265" lon="17.7851149">
        <ele>28.0155</ele>
        <time>2013-05-16T18:10:38Z</time>
      </trkpt>
      <trkpt lat="59.9593328" lon="17.7850263">
        <ele>29.4575</ele>
        <time>2013-05-16T18:10:39Z</time>
      </trkpt>
      <trkpt lat="59.9593953" lon="17.7849388">
        <ele>29.4575</ele>
        <time>2013-05-16T18:10:40Z</time>
      </trkpt>
      <trkpt lat="59.9594549" lon="17.7848457">
        <ele>30.4188</ele>
        <time>2013-05-16T18:10:41Z</time>
      </trkpt>
      <trkpt lat="59.9595152" lon="17.7847425">
        <ele>30.8995</ele>
        <time>2013-05-16T18:10:42Z</time>
      </trkpt>
      <trkpt lat="59.9595758" lon="17.7846429">
        <ele>32.3416</ele>
        <time>2013-05-16T18:10:43Z</time>
      </trkpt>
      <trkpt lat="59.9596338" lon="17.784546">
        <ele>32.8223</ele>
        <time>2013-05-16T18:10:44Z</time>
      </trkpt>
      <trkpt lat="59.9596908" lon="17.7844334">
        <ele>34.2642</ele>
        <time>2013-05-16T18:10:45Z</time>
      </trkpt>
      <trkpt lat="59.9597504" lon="17.7843317">
        <ele>35.2255</ele>
        <time>2013-05-16T18:10:46Z</time>
      </trkpt>
      <trkpt lat="59.9598097" lon="17.7842279">
        <ele>35.7061</ele>
        <time>2013-05-16T18:10:47Z</time>
      </trkpt>
      <trkpt lat="59.959865" lon="17.784118">
        <ele>36.1868</ele>
        <time>2013-05-16T18:10:48Z</time>
      </trkpt>
      <trkpt lat="59.9599184" lon="17.7839941">
        <ele>36.1868</ele>
        <time>2013-05-16T18:10:49Z</time>
      </trkpt>
      <trkpt lat="59.9599717" lon="17.7838612">
        <ele>37.1481</ele>
        <time>2013-05-16T18:10:50Z</time>
      </trkpt>
      <trkpt lat="59.9600209" lon="17.7837261">
        <ele>37.6287</ele>
        <time>2013-05-16T18:10:51Z</time>
      </trkpt>
      <trkpt lat="59.9600695" lon="17.7835885">
        <ele>38.1094</ele>
        <time>2013-05-16T18:10:52Z</time>
      </trkpt>
      <trkpt lat="59.9601152" lon="17.783459">
        <ele>38.1094</ele>
        <time>2013-05-16T18:10:53Z</time>
      </trkpt>
      <trkpt lat="59.960159" lon="17.783328">
        <ele>38.1094</ele>
        <time>2013-05-16T18:10:54Z</time>
      </trkpt>
      <trkpt lat="59.9602008" lon="17.783195">
        <ele>38.5901</ele>
        <time>2013-05-16T18:10:55Z</time>
      </trkpt>
      <trkpt lat="59.9602407" lon="17.7830693">
        <ele>40.0321</ele>
        <time>2013-05-16T18:10:56Z</time>
      </trkpt>
      <trkpt lat="59.9602857" lon="17.7829449">
        <ele>40.5128</ele>
        <time>2013-05-16T18:10:57Z</time>
      </trkpt>
      <trkpt lat="59.9603287" lon="17.7828304">
        <ele>40.5128</ele>
        <time>2013-05-16T18:10:58Z</time>
      </trkpt>
      <trkpt lat="59.9603727" lon="17.7827079">
        <ele>40.9934</ele>
        <time>2013-05-16T18:10:59Z</time>
      </trkpt>
      <trkpt lat="59.9604137" lon="17.7825784">
        <ele>40.5128</ele>
        <time>2013-05-16T18:11:00Z</time>
      </trkpt>
      <trkpt lat="59.9604534" lon="17.7824428">
        <ele>39.5513</ele>
        <time>2013-05-16T18:11:01Z</time>
      </trkpt>
      <trkpt lat="59.9604973" lon="17.7823036">
        <ele>39.0707</ele>
        <time>2013-05-16T18:11:02Z</time>
      </trkpt>
      <trkpt lat="59.9605364" lon="17.7821658">
        <ele>38.5901</ele>
        <time>2013-05-16T18:11:03Z</time>
      </trkpt>
      <trkpt lat="59.960583" lon="17.7820263">
        <ele>38.5901</ele>
        <time>2013-05-16T18:11:04Z</time>
      </trkpt>
      <trkpt lat="59.9606363" lon="17.7819">
        <ele>38.1094</ele>
        <time>2013-05-16T18:11:05Z</time>
      </trkpt>
      <trkpt lat="59.9606957" lon="17.7817798">
        <ele>37.6287</ele>
        <time>2013-05-16T18:11:06Z</time>
      </trkpt>
      <trkpt lat="59.9607576" lon="17.781668">
        <ele>37.6287</ele>
        <time>2013-05-16T18:11:07Z</time>
      </trkpt>
      <trkpt lat="59.9608211" lon="17.781554">
        <ele>38.1094</ele>
        <time>2013-05-16T18:11:08Z</time>
      </trkpt>
      <trkpt lat="59.9608839" lon="17.7814416">
        <ele>38.1094</ele>
        <time>2013-05-16T18:11:09Z</time>
      </trkpt>
      <trkpt lat="59.9609456" lon="17.7813276">
        <ele>38.1094</ele>
        <time>2013-05-16T18:11:10Z</time>
      </trkpt>
      <trkpt lat="59.9610073" lon="17.7812148">
        <ele>38.1094</ele>
        <time>2013-05-16T18:11:11Z</time>
      </trkpt>
      <trkpt lat="59.9610689" lon="17.7811032">
        <ele>38.1094</ele>
        <time>2013-05-16T18:11:12Z</time>
      </trkpt>
      <trkpt lat="59.96113" lon="17.7809907">
        <ele>38.1094</ele>
        <time>2013-05-16T18:11:13Z</time>
      </trkpt>
      <trkpt lat="59.9611904" lon="17.780877">
        <ele>38.1094</ele>
        <time>2013-05-16T18:11:14Z</time>
      </trkpt>
      <trkpt lat="59.9612505" lon="17.7807625">
        <ele>37.6287</ele>
        <time>2013-05-16T18:11:15Z</time>
      </trkpt>
      <trkpt lat="59.9613114" lon="17.7806474">
        <ele>37.6287</ele>
        <time>2013-05-16T18:11:16Z</time>
      </trkpt>
      <trkpt lat="59.9613738" lon="17.7805334">
        <ele>37.6287</ele>
        <time>2013-05-16T18:11:17Z</time>
      </trkpt>
      <trkpt lat="59.9614354" lon="17.7804195">
        <ele>37.6287</ele>
        <time>2013-05-16T18:11:18Z</time>
      </trkpt>
      <trkpt lat="59.9614958" lon="17.780304">
        <ele>37.6287</ele>
        <time>2013-05-16T18:11:19Z</time>
      </trkpt>
      <trkpt lat="59.9615557" lon="17.7801844">
        <ele>37.6287</ele>
        <time>2013-05-16T18:11:20Z</time>
      </trkpt>
      <trkpt lat="59.9616138" lon="17.7800606">
        <ele>37.6287</ele>
        <time>2013-05-16T18:11:21Z</time>
      </trkpt>
      <trkpt lat="59.9616706" lon="17.7799324">
        <ele>37.1481</ele>
        <time>2013-05-16T18:11:22Z</time>
      </trkpt>
      <trkpt lat="59.9617267" lon="17.7798014">
        <ele>37.1481</ele>
        <time>2013-05-16T18:11:23Z</time>
      </trkpt>
      <trkpt lat="59.9617831" lon="17.7796693">
        <ele>36.6675</ele>
        <time>2013-05-16T18:11:24Z</time>
      </trkpt>
      <trkpt lat="59.9618412" lon="17.7795347">
        <ele>36.6675</ele>
        <time>2013-05-16T18:11:25Z</time>
      </trkpt>
      <trkpt lat="59.9619003" lon="17.7793997">
        <ele>36.1868</ele>
        <time>2013-05-16T18:11:26Z</time>
      </trkpt>
      <trkpt lat="59.9619604" lon="17.7792653">
        <ele>35.7061</ele>
        <time>2013-05-16T18:11:27Z</time>
      </trkpt>
      <trkpt lat="59.96202" lon="17.7791312">
        <ele>35.7061</ele>
        <time>2013-05-16T18:11:28Z</time>
      </trkpt>
      <trkpt lat="59.96208" lon="17.7789962">
        <ele>35.7061</ele>
        <time>2013-05-16T18:11:29Z</time>
      </trkpt>
      <trkpt lat="59.9621402" lon="17.7788593">
        <ele>35.7061</ele>
        <time>2013-05-16T18:11:30Z</time>
      </trkpt>
      <trkpt lat="59.9621998" lon="17.7787199">
        <ele>35.2255</ele>
        <time>2013-05-16T18:11:31Z</time>
      </trkpt>
      <trkpt lat="59.9622606" lon="17.7785775">
        <ele>35.7061</ele>
        <time>2013-05-16T18:11:32Z</time>
      </trkpt>
      <trkpt lat="59.9623186" lon="17.7784383">
        <ele>35.2255</ele>
        <time>2013-05-16T18:11:33Z</time>
      </trkpt>
      <trkpt lat="59.9623767" lon="17.7782999">
        <ele>34.7449</ele>
        <time>2013-05-16T18:11:34Z</time>
      </trkpt>
      <trkpt lat="59.962437" lon="17.7781636">
        <ele>34.7449</ele>
        <time>2013-05-16T18:11:35Z</time>
      </trkpt>
      <trkpt lat="59.9625001" lon="17.7780279">
        <ele>34.7449</ele>
        <time>2013-05-16T18:11:36Z</time>
      </trkpt>
      <trkpt lat="59.962564" lon="17.7778948">
        <ele>34.7449</ele>
        <time>2013-05-16T18:11:37Z</time>
      </trkpt>
      <trkpt lat="59.9626297" lon="17.7777606">
        <ele>34.7449</ele>
        <time>2013-05-16T18:11:38Z</time>
      </trkpt>
      <trkpt lat="59.9626949" lon="17.7776274">
        <ele>34.2642</ele>
        <time>2013-05-16T18:11:39Z</time>
      </trkpt>
      <trkpt lat="59.9627585" lon="17.7774964">
        <ele>34.2642</ele>
        <time>2013-05-16T18:11:40Z</time>
      </trkpt>
      <trkpt lat="59.9628216" lon="17.7773634">
        <ele>34.2642</ele>
        <time>2013-05-16T18:11:41Z</time>
      </trkpt>
      <trkpt lat="59.9628824" lon="17.7772282">
        <ele>34.2642</ele>
        <time>2013-05-16T18:11:42Z</time>
      </trkpt>
      <trkpt lat="59.9629392" lon="17.7770893">
        <ele>34.2642</ele>
        <time>2013-05-16T18:11:43Z</time>
      </trkpt>
      <trkpt lat="59.9629933" lon="17.7769457">
        <ele>34.2642</ele>
        <time>2013-05-16T18:11:44Z</time>
      </trkpt>
      <trkpt lat="59.9630473" lon="17.7767918">
        <ele>35.2255</ele>
        <time>2013-05-16T18:11:45Z</time>
      </trkpt>
      <trkpt lat="59.9630978" lon="17.7766416">
        <ele>35.2255</ele>
        <time>2013-05-16T18:11:46Z</time>
      </trkpt>
      <trkpt lat="59.9631393" lon="17.7764993">
        <ele>32.3416</ele>
        <time>2013-05-16T18:11:47Z</time>
      </trkpt>
      <trkpt lat="59.9631804" lon="17.7763547">
        <ele>30.4188</ele>
        <time>2013-05-16T18:11:48Z</time>
      </trkpt>
      <trkpt lat="59.9632252" lon="17.7762079">
        <ele>29.4575</ele>
        <time>2013-05-16T18:11:49Z</time>
      </trkpt>
      <trkpt lat="59.9632744" lon="17.776053">
        <ele>30.4188</ele>
        <time>2013-05-16T18:11:50Z</time>
      </trkpt>
      <trkpt lat="59.9633201" lon="17.7759015">
        <ele>29.9381</ele>
        <time>2013-05-16T18:11:51Z</time>
      </trkpt>
      <trkpt lat="59.9633683" lon="17.7757505">
        <ele>29.9381</ele>
        <time>2013-05-16T18:11:52Z</time>
      </trkpt>
      <trkpt lat="59.9634175" lon="17.775599">
        <ele>30.4188</ele>
        <time>2013-05-16T18:11:53Z</time>
      </trkpt>
      <trkpt lat="59.9634681" lon="17.7754446">
        <ele>30.8995</ele>
        <time>2013-05-16T18:11:54Z</time>
      </trkpt>
      <trkpt lat="59.9635176" lon="17.7752841">
        <ele>31.3801</ele>
        <time>2013-05-16T18:11:55Z</time>
      </trkpt>
      <trkpt lat="59.9635631" lon="17.7751187">
        <ele>31.8607</ele>
        <time>2013-05-16T18:11:56Z</time>
      </trkpt>
      <trkpt lat="59.9636069" lon="17.7749411">
        <ele>32.8223</ele>
        <time>2013-05-16T18:11:57Z</time>
      </trkpt>
      <trkpt lat="59.9636402" lon="17.774769">
        <ele>33.3029</ele>
        <time>2013-05-16T18:11:58Z</time>
      </trkpt>
      <trkpt lat="59.963668" lon="17.7745956">
        <ele>33.7834</ele>
        <time>2013-05-16T18:11:59Z</time>
      </trkpt>
      <trkpt lat="59.9636966" lon="17.7744253">
        <ele>34.2642</ele>
        <time>2013-05-16T18:12:00Z</time>
      </trkpt>
      <trkpt lat="59.9637281" lon="17.774262">
        <ele>34.7449</ele>
        <time>2013-05-16T18:12:01Z</time>
      </trkpt>
      <trkpt lat="59.9637593" lon="17.7741045">
        <ele>35.7061</ele>
        <time>2013-05-16T18:12:02Z</time>
      </trkpt>
      <trkpt lat="59.9637895" lon="17.7739464">
        <ele>35.7061</ele>
        <time>2013-05-16T18:12:03Z</time>
      </trkpt>
      <trkpt lat="59.9638193" lon="17.773786">
        <ele>36.1868</ele>
        <time>2013-05-16T18:12:04Z</time>
      </trkpt>
      <trkpt lat="59.9638481" lon="17.7736238">
        <ele>36.6675</ele>
        <time>2013-05-16T18:12:05Z</time>
      </trkpt>
      <trkpt lat="59.9638712" lon="17.7734561">
        <ele>35.2255</ele>
        <time>2013-05-16T18:12:06Z</time>
      </trkpt>
      <trkpt lat="59.9638905" lon="17.7732856">
        <ele>34.2642</ele>
        <time>2013-05-16T18:12:07Z</time>
      </trkpt>
      <trkpt lat="59.9639055" lon="17.7731156">
        <ele>33.7834</ele>
        <time>2013-05-16T18:12:08Z</time>
      </trkpt>
      <trkpt lat="59.9639159" lon="17.7729494">
        <ele>33.7834</ele>
        <time>2013-05-16T18:12:09Z</time>
      </trkpt>
      <trkpt lat="59.9639163" lon="17.7727806">
        <ele>33.7834</ele>
        <time>2013-05-16T18:12:10Z</time>
      </trkpt>
      <trkpt lat="59.9639038" lon="17.772608">
        <ele>33.7834</ele>
        <time>2013-05-16T18:12:11Z</time>
      </trkpt>
      <trkpt lat="59.9638811" lon="17.7724359">
        <ele>33.3029</ele>
        <time>2013-05-16T18:12:12Z</time>
      </trkpt>
      <trkpt lat="59.9638527" lon="17.772268">
        <ele>33.3029</ele>
        <time>2013-05-16T18:12:13Z</time>
      </trkpt>
      <trkpt lat="59.9638196" lon="17.7721091">
        <ele>32.8223</ele>
        <time>2013-05-16T18:12:14Z</time>
      </trkpt>
      <trkpt lat="59.9637842" lon="17.7719662">
        <ele>32.3416</ele>
        <time>2013-05-16T18:12:15Z</time>
      </trkpt>
      <trkpt lat="59.9637484" lon="17.7718267">
        <ele>32.3416</ele>
        <time>2013-05-16T18:12:16Z</time>
      </trkpt>
      <trkpt lat="59.9637147" lon="17.7716922">
        <ele>31.8607</ele>
        <time>2013-05-16T18:12:17Z</time>
      </trkpt>
      <trkpt lat="59.9636839" lon="17.7715553">
        <ele>31.3801</ele>
        <time>2013-05-16T18:12:18Z</time>
      </trkpt>
      <trkpt lat="59.9636542" lon="17.7714161">
        <ele>30.8995</ele>
        <time>2013-05-16T18:12:19Z</time>
      </trkpt>
      <trkpt lat="59.963625" lon="17.7712814">
        <ele>30.8995</ele>
        <time>2013-05-16T18:12:20Z</time>
      </trkpt>
      <trkpt lat="59.9635972" lon="17.7711508">
        <ele>30.8995</ele>
        <time>2013-05-16T18:12:21Z</time>
      </trkpt>
      <trkpt lat="59.9635703" lon="17.7710213">
        <ele>30.8995</ele>
        <time>2013-05-16T18:12:22Z</time>
      </trkpt>
      <trkpt lat="59.9635455" lon="17.7708912">
        <ele>30.8995</ele>
        <time>2013-05-16T18:12:23Z</time>
      </trkpt>
      <trkpt lat="59.9635268" lon="17.7707576">
        <ele>30.8995</ele>
        <time>2013-05-16T18:12:24Z</time>
      </trkpt>
      <trkpt lat="59.9635109" lon="17.7706151">
        <ele>31.8607</ele>
        <time>2013-05-16T18:12:25Z</time>
      </trkpt>
      <trkpt lat="59.9635018" lon="17.7704836">
        <ele>32.8223</ele>
        <time>2013-05-16T18:12:26Z</time>
      </trkpt>
      <trkpt lat="59.9634935" lon="17.7703592">
        <ele>33.3029</ele>
        <time>2013-05-16T18:12:27Z</time>
      </trkpt>
      <trkpt lat="59.9634886" lon="17.7702312">
        <ele>32.3416</ele>
        <time>2013-05-16T18:12:28Z</time>
      </trkpt>
      <trkpt lat="59.9634849" lon="17.7700986">
        <ele>31.8607</ele>
        <time>2013-05-16T18:12:29Z</time>
      </trkpt>
      <trkpt lat="59.9634875" lon="17.7699402">
        <ele>32.3416</ele>
        <time>2013-05-16T18:12:30Z</time>
      </trkpt>
      <trkpt lat="59.9634922" lon="17.7697765">
        <ele>34.7449</ele>
        <time>2013-05-16T18:12:31Z</time>
      </trkpt>
      <trkpt lat="59.9635064" lon="17.7696176">
        <ele>35.2255</ele>
        <time>2013-05-16T18:12:32Z</time>
      </trkpt>
      <trkpt lat="59.9635325" lon="17.7694549">
        <ele>36.1868</ele>
        <time>2013-05-16T18:12:33Z</time>
      </trkpt>
      <trkpt lat="59.9635694" lon="17.7693104">
        <ele>33.7834</ele>
        <time>2013-05-16T18:12:34Z</time>
      </trkpt>
      <trkpt lat="59.9636064" lon="17.7691799">
        <ele>33.3029</ele>
        <time>2013-05-16T18:12:35Z</time>
      </trkpt>
      <trkpt lat="59.9636442" lon="17.7690317">
        <ele>30.8995</ele>
        <time>2013-05-16T18:12:36Z</time>
      </trkpt>
      <trkpt lat="59.9636817" lon="17.7688762">
        <ele>29.4575</ele>
        <time>2013-05-16T18:12:37Z</time>
      </trkpt>
      <trkpt lat="59.9637184" lon="17.7687194">
        <ele>27.5349</ele>
        <time>2013-05-16T18:12:38Z</time>
      </trkpt>
      <trkpt lat="59.9637579" lon="17.7685711">
        <ele>26.5736</ele>
        <time>2013-05-16T18:12:39Z</time>
      </trkpt>
      <trkpt lat="59.9637998" lon="17.7684424">
        <ele>26.5736</ele>
        <time>2013-05-16T18:12:40Z</time>
      </trkpt>
      <trkpt lat="59.9638375" lon="17.7683028">
        <ele>26.5736</ele>
        <time>2013-05-16T18:12:41Z</time>
      </trkpt>
      <trkpt lat="59.9638729" lon="17.7681628">
        <ele>27.5349</ele>
        <time>2013-05-16T18:12:42Z</time>
      </trkpt>
      <trkpt lat="59.9639072" lon="17.7680267">
        <ele>29.9381</ele>
        <time>2013-05-16T18:12:43Z</time>
      </trkpt>
      <trkpt lat="59.9639396" lon="17.7679048">
        <ele>30.8995</ele>
        <time>2013-05-16T18:12:44Z</time>
      </trkpt>
      <trkpt lat="59.9639687" lon="17.7677866">
        <ele>31.8607</ele>
        <time>2013-05-16T18:12:45Z</time>
      </trkpt>
      <trkpt lat="59.9639962" lon="17.7676693">
        <ele>33.3029</ele>
        <time>2013-05-16T18:12:46Z</time>
      </trkpt>
      <trkpt lat="59.9640196" lon="17.7675496">
        <ele>34.7449</ele>
        <time>2013-05-16T18:12:47Z</time>
      </trkpt>
      <trkpt lat="59.9640411" lon="17.7674274">
        <ele>35.2255</ele>
        <time>2013-05-16T18:12:48Z</time>
      </trkpt>
      <trkpt lat="59.9640609" lon="17.7673056">
        <ele>36.1868</ele>
        <time>2013-05-16T18:12:49Z</time>
      </trkpt>
      <trkpt lat="59.9640802" lon="17.7671757">
        <ele>37.1481</ele>
        <time>2013-05-16T18:12:50Z</time>
      </trkpt>
      <trkpt lat="59.9640935" lon="17.7670475">
        <ele>37.6287</ele>
        <time>2013-05-16T18:12:51Z</time>
      </trkpt>
      <trkpt lat="59.9641022" lon="17.7669107">
        <ele>36.6675</ele>
        <time>2013-05-16T18:12:52Z</time>
      </trkpt>
      <trkpt lat="59.9641056" lon="17.7667796">
        <ele>35.7061</ele>
        <time>2013-05-16T18:12:53Z</time>
      </trkpt>
      <trkpt lat="59.9641014" lon="17.7666514">
        <ele>34.2642</ele>
        <time>2013-05-16T18:12:54Z</time>
      </trkpt>
      <trkpt lat="59.9640926" lon="17.7665147">
        <ele>33.3029</ele>
        <time>2013-05-16T18:12:55Z</time>
      </trkpt>
      <trkpt lat="59.9640889" lon="17.7663788">
        <ele>32.8223</ele>
        <time>2013-05-16T18:12:56Z</time>
      </trkpt>
      <trkpt lat="59.9640905" lon="17.7662364">
        <ele>32.8223</ele>
        <time>2013-05-16T18:12:57Z</time>
      </trkpt>
      <trkpt lat="59.9640879" lon="17.7660898">
        <ele>32.3416</ele>
        <time>2013-05-16T18:12:58Z</time>
      </trkpt>
      <trkpt lat="59.9640876" lon="17.7659334">
        <ele>31.8607</ele>
        <time>2013-05-16T18:12:59Z</time>
      </trkpt>
      <trkpt lat="59.9640924" lon="17.7657587">
        <ele>31.3801</ele>
        <time>2013-05-16T18:13:00Z</time>
      </trkpt>
      <trkpt lat="59.9640916" lon="17.7655708">
        <ele>31.3801</ele>
        <time>2013-05-16T18:13:01Z</time>
      </trkpt>
      <trkpt lat="59.9640972" lon="17.7653761">
        <ele>30.4188</ele>
        <time>2013-05-16T18:13:02Z</time>
      </trkpt>
      <trkpt lat="59.9641096" lon="17.7651699">
        <ele>28.9769</ele>
        <time>2013-05-16T18:13:03Z</time>
      </trkpt>
      <trkpt lat="59.9641309" lon="17.7649493">
        <ele>27.5349</ele>
        <time>2013-05-16T18:13:04Z</time>
      </trkpt>
      <trkpt lat="59.9641646" lon="17.7647397">
        <ele>26.0929</ele>
        <time>2013-05-16T18:13:05Z</time>
      </trkpt>
      <trkpt lat="59.9642075" lon="17.7645446">
        <ele>25.1317</ele>
        <time>2013-05-16T18:13:06Z</time>
      </trkpt>
      <trkpt lat="59.9642553" lon="17.7643497">
        <ele>25.6123</ele>
        <time>2013-05-16T18:13:07Z</time>
      </trkpt>
      <trkpt lat="59.9643049" lon="17.7641666">
        <ele>26.5736</ele>
        <time>2013-05-16T18:13:08Z</time>
      </trkpt>
      <trkpt lat="59.9643587" lon="17.7639913">
        <ele>26.5736</ele>
        <time>2013-05-16T18:13:09Z</time>
      </trkpt>
      <trkpt lat="59.964407" lon="17.7638097">
        <ele>26.0929</ele>
        <time>2013-05-16T18:13:10Z</time>
      </trkpt>
      <trkpt lat="59.9644498" lon="17.7636152">
        <ele>27.5349</ele>
        <time>2013-05-16T18:13:11Z</time>
      </trkpt>
      <trkpt lat="59.9644915" lon="17.7634199">
        <ele>28.0155</ele>
        <time>2013-05-16T18:13:12Z</time>
      </trkpt>
      <trkpt lat="59.964537" lon="17.7632164">
        <ele>29.9381</ele>
        <time>2013-05-16T18:13:13Z</time>
      </trkpt>
      <trkpt lat="59.9645851" lon="17.7630196">
        <ele>30.8995</ele>
        <time>2013-05-16T18:13:14Z</time>
      </trkpt>
      <trkpt lat="59.9646327" lon="17.7628321">
        <ele>32.8223</ele>
        <time>2013-05-16T18:13:15Z</time>
      </trkpt>
      <trkpt lat="59.9646797" lon="17.7626616">
        <ele>31.8607</ele>
        <time>2013-05-16T18:13:16Z</time>
      </trkpt>
      <trkpt lat="59.964728" lon="17.7625073">
        <ele>30.8995</ele>
        <time>2013-05-16T18:13:17Z</time>
      </trkpt>
      <trkpt lat="59.964782" lon="17.7623551">
        <ele>30.4188</ele>
        <time>2013-05-16T18:13:18Z</time>
      </trkpt>
      <trkpt lat="59.9648377" lon="17.7622123">
        <ele>29.4575</ele>
        <time>2013-05-16T18:13:19Z</time>
      </trkpt>
      <trkpt lat="59.9648939" lon="17.7620714">
        <ele>28.4962</ele>
        <time>2013-05-16T18:13:20Z</time>
      </trkpt>
      <trkpt lat="59.9649487" lon="17.7619378">
        <ele>27.0543</ele>
        <time>2013-05-16T18:13:21Z</time>
      </trkpt>
      <trkpt lat="59.9650021" lon="17.7618019">
        <ele>26.5736</ele>
        <time>2013-05-16T18:13:22Z</time>
      </trkpt>
      <trkpt lat="59.9650565" lon="17.7616622">
        <ele>25.6123</ele>
        <time>2013-05-16T18:13:23Z</time>
      </trkpt>
      <trkpt lat="59.9651125" lon="17.7615242">
        <ele>25.6123</ele>
        <time>2013-05-16T18:13:24Z</time>
      </trkpt>
      <trkpt lat="59.9651705" lon="17.7613967">
        <ele>26.0929</ele>
        <time>2013-05-16T18:13:25Z</time>
      </trkpt>
      <trkpt lat="59.9652254" lon="17.7612646">
        <ele>25.1317</ele>
        <time>2013-05-16T18:13:26Z</time>
      </trkpt>
      <trkpt lat="59.9652824" lon="17.7611392">
        <ele>23.209</ele>
        <time>2013-05-16T18:13:27Z</time>
      </trkpt>
      <trkpt lat="59.9653492" lon="17.7610305">
        <ele>20.325</ele>
        <time>2013-05-16T18:13:28Z</time>
      </trkpt>
      <trkpt lat="59.9654088" lon="17.7609138">
        <ele>17.9218</ele>
        <time>2013-05-16T18:13:29Z</time>
      </trkpt>
      <trkpt lat="59.9654741" lon="17.7607983">
        <ele>15.999</ele>
        <time>2013-05-16T18:13:30Z</time>
      </trkpt>
      <trkpt lat="59.9655446" lon="17.7606803">
        <ele>15.999</ele>
        <time>2013-05-16T18:13:31Z</time>
      </trkpt>
      <trkpt lat="59.965617" lon="17.7605803">
        <ele>15.5184</ele>
        <time>2013-05-16T18:13:32Z</time>
      </trkpt>
      <trkpt lat="59.9656914" lon="17.7604741">
        <ele>15.5184</ele>
        <time>2013-05-16T18:13:33Z</time>
      </trkpt>
      <trkpt lat="59.965762" lon="17.7603704">
        <ele>14.0764</ele>
        <time>2013-05-16T18:13:34Z</time>
      </trkpt>
      <trkpt lat="59.9658304" lon="17.7602565">
        <ele>12.6344</ele>
        <time>2013-05-16T18:13:35Z</time>
      </trkpt>
      <trkpt lat="59.9658982" lon="17.7601346">
        <ele>11.6732</ele>
        <time>2013-05-16T18:13:36Z</time>
      </trkpt>
      <trkpt lat="59.9659711" lon="17.760046">
        <ele>11.1925</ele>
        <time>2013-05-16T18:13:37Z</time>
      </trkpt>
      <trkpt lat="59.9660414" lon="17.759939">
        <ele>10.7118</ele>
        <time>2013-05-16T18:13:38Z</time>
      </trkpt>
      <trkpt lat="59.9661105" lon="17.7598359">
        <ele>10.2312</ele>
        <time>2013-05-16T18:13:39Z</time>
      </trkpt>
      <trkpt lat="59.9661765" lon="17.7597052">
        <ele>8.78918</ele>
        <time>2013-05-16T18:13:40Z</time>
      </trkpt>
      <trkpt lat="59.9662429" lon="17.759579">
        <ele>7.82788</ele>
        <time>2013-05-16T18:13:41Z</time>
      </trkpt>
      <trkpt lat="59.9663087" lon="17.759426">
        <ele>8.78918</ele>
        <time>2013-05-16T18:13:42Z</time>
      </trkpt>
      <trkpt lat="59.9663759" lon="17.7593192">
        <ele>8.78918</ele>
        <time>2013-05-16T18:13:43Z</time>
      </trkpt>
      <trkpt lat="59.9664422" lon="17.7592449">
        <ele>8.78918</ele>
        <time>2013-05-16T18:13:44Z</time>
      </trkpt>
      <trkpt lat="59.9665047" lon="17.7591521">
        <ele>8.78918</ele>
        <time>2013-05-16T18:13:45Z</time>
      </trkpt>
      <trkpt lat="59.9665746" lon="17.7590789">
        <ele>10.2312</ele>
        <time>2013-05-16T18:13:46Z</time>
      </trkpt>
      <trkpt lat="59.9666493" lon="17.7590145">
        <ele>10.7118</ele>
        <time>2013-05-16T18:13:47Z</time>
      </trkpt>
      <trkpt lat="59.9667238" lon="17.7589497">
        <ele>11.1925</ele>
        <time>2013-05-16T18:13:48Z</time>
      </trkpt>
      <trkpt lat="59.9667996" lon="17.7588873">
        <ele>11.6732</ele>
        <time>2013-05-16T18:13:49Z</time>
      </trkpt>
      <trkpt lat="59.9668773" lon="17.7588382">
        <ele>10.7118</ele>
        <time>2013-05-16T18:13:50Z</time>
      </trkpt>
      <trkpt lat="59.9669507" lon="17.7587781">
        <ele>11.6732</ele>
        <time>2013-05-16T18:13:51Z</time>
      </trkpt>
      <trkpt lat="59.9670243" lon="17.7587401">
        <ele>12.1538</ele>
        <time>2013-05-16T18:13:52Z</time>
      </trkpt>
      <trkpt lat="59.9670965" lon="17.7586966">
        <ele>13.1151</ele>
        <time>2013-05-16T18:13:53Z</time>
      </trkpt>
      <trkpt lat="59.9671694" lon="17.7586752">
        <ele>13.5958</ele>
        <time>2013-05-16T18:13:54Z</time>
      </trkpt>
      <trkpt lat="59.9672389" lon="17.7586433">
        <ele>13.5958</ele>
        <time>2013-05-16T18:13:55Z</time>
      </trkpt>
      <trkpt lat="59.9673068" lon="17.7585959">
        <ele>13.5958</ele>
        <time>2013-05-16T18:13:56Z</time>
      </trkpt>
      <trkpt lat="59.967374" lon="17.7585507">
        <ele>13.5958</ele>
        <time>2013-05-16T18:13:57Z</time>
      </trkpt>
      <trkpt lat="59.9674407" lon="17.7584871">
        <ele>14.557</ele>
        <time>2013-05-16T18:13:58Z</time>
      </trkpt>
      <trkpt lat="59.9675098" lon="17.7584403">
        <ele>15.0377</ele>
        <time>2013-05-16T18:13:59Z</time>
      </trkpt>
      <trkpt lat="59.9675778" lon="17.7583793">
        <ele>15.5184</ele>
        <time>2013-05-16T18:14:00Z</time>
      </trkpt>
      <trkpt lat="59.9676456" lon="17.7583373">
        <ele>15.0377</ele>
        <time>2013-05-16T18:14:01Z</time>
      </trkpt>
      <trkpt lat="59.967714" lon="17.7582668">
        <ele>15.999</ele>
        <time>2013-05-16T18:14:02Z</time>
      </trkpt>
      <trkpt lat="59.9677821" lon="17.758202">
        <ele>15.0377</ele>
        <time>2013-05-16T18:14:03Z</time>
      </trkpt>
      <trkpt lat="59.9678506" lon="17.7581389">
        <ele>15.5184</ele>
        <time>2013-05-16T18:14:04Z</time>
      </trkpt>
      <trkpt lat="59.967918" lon="17.7580822">
        <ele>15.5184</ele>
        <time>2013-05-16T18:14:05Z</time>
      </trkpt>
      <trkpt lat="59.9679826" lon="17.757986">
        <ele>16.9604</ele>
        <time>2013-05-16T18:14:06Z</time>
      </trkpt>
      <trkpt lat="59.96805" lon="17.7579037">
        <ele>16.4797</ele>
        <time>2013-05-16T18:14:07Z</time>
      </trkpt>
      <trkpt lat="59.9681129" lon="17.7577841">
        <ele>17.9218</ele>
        <time>2013-05-16T18:14:08Z</time>
      </trkpt>
      <trkpt lat="59.9681744" lon="17.757685">
        <ele>18.4023</ele>
        <time>2013-05-16T18:14:09Z</time>
      </trkpt>
      <trkpt lat="59.9682284" lon="17.7575394">
        <ele>20.325</ele>
        <time>2013-05-16T18:14:10Z</time>
      </trkpt>
      <trkpt lat="59.9682811" lon="17.7574238">
        <ele>22.2476</ele>
        <time>2013-05-16T18:14:11Z</time>
      </trkpt>
      <trkpt lat="59.9683318" lon="17.7573204">
        <ele>23.6896</ele>
        <time>2013-05-16T18:14:12Z</time>
      </trkpt>
      <trkpt lat="59.9683848" lon="17.7572115">
        <ele>25.1317</ele>
        <time>2013-05-16T18:14:13Z</time>
      </trkpt>
      <trkpt lat="59.9684391" lon="17.7571158">
        <ele>25.6123</ele>
        <time>2013-05-16T18:14:14Z</time>
      </trkpt>
      <trkpt lat="59.9684923" lon="17.7570165">
        <ele>27.0543</ele>
        <time>2013-05-16T18:14:15Z</time>
      </trkpt>
      <trkpt lat="59.9685453" lon="17.7569345">
        <ele>27.0543</ele>
        <time>2013-05-16T18:14:16Z</time>
      </trkpt>
      <trkpt lat="59.9685961" lon="17.7568501">
        <ele>27.5349</ele>
        <time>2013-05-16T18:14:17Z</time>
      </trkpt>
      <trkpt lat="59.9686466" lon="17.7567582">
        <ele>28.4962</ele>
        <time>2013-05-16T18:14:18Z</time>
      </trkpt>
      <trkpt lat="59.9686966" lon="17.7566657">
        <ele>28.9769</ele>
        <time>2013-05-16T18:14:19Z</time>
      </trkpt>
      <trkpt lat="59.9687447" lon="17.7565671">
        <ele>29.9381</ele>
        <time>2013-05-16T18:14:20Z</time>
      </trkpt>
      <trkpt lat="59.9687903" lon="17.7564734">
        <ele>30.4188</ele>
        <time>2013-05-16T18:14:21Z</time>
      </trkpt>
      <trkpt lat="59.9688349" lon="17.7563791">
        <ele>30.8995</ele>
        <time>2013-05-16T18:14:22Z</time>
      </trkpt>
      <trkpt lat="59.9688797" lon="17.756287">
        <ele>31.3801</ele>
        <time>2013-05-16T18:14:23Z</time>
      </trkpt>
      <trkpt lat="59.9689248" lon="17.7561881">
        <ele>32.8223</ele>
        <time>2013-05-16T18:14:24Z</time>
      </trkpt>
      <trkpt lat="59.9689705" lon="17.7560833">
        <ele>33.7834</ele>
        <time>2013-05-16T18:14:25Z</time>
      </trkpt>
      <trkpt lat="59.9690167" lon="17.7559768">
        <ele>34.2642</ele>
        <time>2013-05-16T18:14:26Z</time>
      </trkpt>
      <trkpt lat="59.9690641" lon="17.7558717">
        <ele>34.7449</ele>
        <time>2013-05-16T18:14:27Z</time>
      </trkpt>
      <trkpt lat="59.969112" lon="17.7557664">
        <ele>35.7061</ele>
        <time>2013-05-16T18:14:28Z</time>
      </trkpt>
      <trkpt lat="59.9691597" lon="17.7556597">
        <ele>36.1868</ele>
        <time>2013-05-16T18:14:29Z</time>
      </trkpt>
      <trkpt lat="59.9692077" lon="17.7555533">
        <ele>37.1481</ele>
        <time>2013-05-16T18:14:30Z</time>
      </trkpt>
      <trkpt lat="59.9692555" lon="17.7554453">
        <ele>37.6287</ele>
        <time>2013-05-16T18:14:31Z</time>
      </trkpt>
      <trkpt lat="59.9693045" lon="17.7553303">
        <ele>39.0707</ele>
        <time>2013-05-16T18:14:32Z</time>
      </trkpt>
      <trkpt lat="59.9693539" lon="17.7552154">
        <ele>40.0321</ele>
        <time>2013-05-16T18:14:33Z</time>
      </trkpt>
      <trkpt lat="59.9694034" lon="17.7551007">
        <ele>41.474</ele>
        <time>2013-05-16T18:14:34Z</time>
      </trkpt>
      <trkpt lat="59.9694539" lon="17.7549894">
        <ele>42.4354</ele>
        <time>2013-05-16T18:14:35Z</time>
      </trkpt>
      <trkpt lat="59.9695056" lon="17.7548787">
        <ele>42.916</ele>
        <time>2013-05-16T18:14:36Z</time>
      </trkpt>
      <trkpt lat="59.9695607" lon="17.7547701">
        <ele>43.3966</ele>
        <time>2013-05-16T18:14:37Z</time>
      </trkpt>
      <trkpt lat="59.9696159" lon="17.7546608">
        <ele>43.8773</ele>
        <time>2013-05-16T18:14:38Z</time>
      </trkpt>
      <trkpt lat="59.9696704" lon="17.7545548">
        <ele>43.8773</ele>
        <time>2013-05-16T18:14:39Z</time>
      </trkpt>
      <trkpt lat="59.9697233" lon="17.7544554">
        <ele>43.3966</ele>
        <time>2013-05-16T18:14:40Z</time>
      </trkpt>
      <trkpt lat="59.9697754" lon="17.7543548">
        <ele>42.4354</ele>
        <time>2013-05-16T18:14:41Z</time>
      </trkpt>
      <trkpt lat="59.9698304" lon="17.7542539">
        <ele>40.9934</ele>
        <time>2013-05-16T18:14:42Z</time>
      </trkpt>
      <trkpt lat="59.969885" lon="17.7541566">
        <ele>40.0321</ele>
        <time>2013-05-16T18:14:43Z</time>
      </trkpt>
      <trkpt lat="59.9699371" lon="17.7540705">
        <ele>34.2642</ele>
        <time>2013-05-16T18:14:44Z</time>
      </trkpt>
      <trkpt lat="59.9699907" lon="17.7539829">
        <ele>29.4575</ele>
        <time>2013-05-16T18:14:45Z</time>
      </trkpt>
      <trkpt lat="59.9700424" lon="17.7538721">
        <ele>28.0155</ele>
        <time>2013-05-16T18:14:46Z</time>
      </trkpt>
      <trkpt lat="59.9700916" lon="17.7537503">
        <ele>26.5736</ele>
        <time>2013-05-16T18:14:47Z</time>
      </trkpt>
      <trkpt lat="59.9701404" lon="17.7536333">
        <ele>26.0929</ele>
        <time>2013-05-16T18:14:48Z</time>
      </trkpt>
      <trkpt lat="59.9701868" lon="17.7535089">
        <ele>23.6896</ele>
        <time>2013-05-16T18:14:49Z</time>
      </trkpt>
      <trkpt lat="59.9702308" lon="17.753382">
        <ele>21.767</ele>
        <time>2013-05-16T18:14:50Z</time>
      </trkpt>
      <trkpt lat="59.9702753" lon="17.7532577">
        <ele>20.325</ele>
        <time>2013-05-16T18:14:51Z</time>
      </trkpt>
      <trkpt lat="59.9703205" lon="17.7531323">
        <ele>19.3638</ele>
        <time>2013-05-16T18:14:52Z</time>
      </trkpt>
      <trkpt lat="59.9703681" lon="17.7530168">
        <ele>19.8444</ele>
        <time>2013-05-16T18:14:53Z</time>
      </trkpt>
      <trkpt lat="59.9704125" lon="17.752891">
        <ele>19.8444</ele>
        <time>2013-05-16T18:14:54Z</time>
      </trkpt>
      <trkpt lat="59.970455" lon="17.7527809">
        <ele>19.3638</ele>
        <time>2013-05-16T18:14:55Z</time>
      </trkpt>
      <trkpt lat="59.9704998" lon="17.7526664">
        <ele>18.8831</ele>
        <time>2013-05-16T18:14:56Z</time>
      </trkpt>
      <trkpt lat="59.9705488" lon="17.7525542">
        <ele>18.4023</ele>
        <time>2013-05-16T18:14:57Z</time>
      </trkpt>
      <trkpt lat="59.9705993" lon="17.752449">
        <ele>18.4023</ele>
        <time>2013-05-16T18:14:58Z</time>
      </trkpt>
      <trkpt lat="59.9706534" lon="17.7523469">
        <ele>17.9218</ele>
        <time>2013-05-16T18:14:59Z</time>
      </trkpt>
      <trkpt lat="59.9707106" lon="17.7522399">
        <ele>17.4412</ele>
        <time>2013-05-16T18:15:00Z</time>
      </trkpt>
      <trkpt lat="59.9707722" lon="17.7521455">
        <ele>17.4412</ele>
        <time>2013-05-16T18:15:01Z</time>
      </trkpt>
      <trkpt lat="59.9708358" lon="17.7520453">
        <ele>17.9218</ele>
        <time>2013-05-16T18:15:02Z</time>
      </trkpt>
      <trkpt lat="59.9708997" lon="17.7519429">
        <ele>18.4023</ele>
        <time>2013-05-16T18:15:03Z</time>
      </trkpt>
      <trkpt lat="59.9709632" lon="17.751831">
        <ele>17.9218</ele>
        <time>2013-05-16T18:15:04Z</time>
      </trkpt>
      <trkpt lat="59.9710271" lon="17.7517415">
        <ele>16.9604</ele>
        <time>2013-05-16T18:15:05Z</time>
      </trkpt>
      <trkpt lat="59.9710929" lon="17.7516503">
        <ele>17.9218</ele>
        <time>2013-05-16T18:15:06Z</time>
      </trkpt>
      <trkpt lat="59.9711602" lon="17.7515535">
        <ele>18.8831</ele>
        <time>2013-05-16T18:15:07Z</time>
      </trkpt>
      <trkpt lat="59.9712287" lon="17.7514648">
        <ele>20.325</ele>
        <time>2013-05-16T18:15:08Z</time>
      </trkpt>
      <trkpt lat="59.9712902" lon="17.7513758">
        <ele>21.767</ele>
        <time>2013-05-16T18:15:09Z</time>
      </trkpt>
      <trkpt lat="59.9713567" lon="17.7512994">
        <ele>22.2476</ele>
        <time>2013-05-16T18:15:10Z</time>
      </trkpt>
      <trkpt lat="59.9714249" lon="17.7512286">
        <ele>21.767</ele>
        <time>2013-05-16T18:15:11Z</time>
      </trkpt>
      <trkpt lat="59.9714939" lon="17.751169">
        <ele>21.767</ele>
        <time>2013-05-16T18:15:12Z</time>
      </trkpt>
      <trkpt lat="59.9715596" lon="17.7511177">
        <ele>20.325</ele>
        <time>2013-05-16T18:15:13Z</time>
      </trkpt>
      <trkpt lat="59.9716216" lon="17.751049">
        <ele>19.8444</ele>
        <time>2013-05-16T18:15:14Z</time>
      </trkpt>
      <trkpt lat="59.9716792" lon="17.7509669">
        <ele>18.4023</ele>
        <time>2013-05-16T18:15:15Z</time>
      </trkpt>
      <trkpt lat="59.9717342" lon="17.7508717">
        <ele>18.4023</ele>
        <time>2013-05-16T18:15:16Z</time>
      </trkpt>
      <trkpt lat="59.9717885" lon="17.7507738">
        <ele>18.8831</ele>
        <time>2013-05-16T18:15:17Z</time>
      </trkpt>
      <trkpt lat="59.9718456" lon="17.7506781">
        <ele>18.4023</ele>
        <time>2013-05-16T18:15:18Z</time>
      </trkpt>
      <trkpt lat="59.9718957" lon="17.7505573">
        <ele>18.8831</ele>
        <time>2013-05-16T18:15:19Z</time>
      </trkpt>
      <trkpt lat="59.9719477" lon="17.7504397">
        <ele>20.8057</ele>
        <time>2013-05-16T18:15:20Z</time>
      </trkpt>
      <trkpt lat="59.9720003" lon="17.7503227">
        <ele>21.767</ele>
        <time>2013-05-16T18:15:21Z</time>
      </trkpt>
      <trkpt lat="59.9720507" lon="17.7502097">
        <ele>22.7283</ele>
        <time>2013-05-16T18:15:22Z</time>
      </trkpt>
      <trkpt lat="59.9720966" lon="17.7501042">
        <ele>23.209</ele>
        <time>2013-05-16T18:15:23Z</time>
      </trkpt>
      <trkpt lat="59.9721398" lon="17.7500009">
        <ele>22.7283</ele>
        <time>2013-05-16T18:15:24Z</time>
      </trkpt>
      <trkpt lat="59.9721808" lon="17.7498777">
        <ele>23.209</ele>
        <time>2013-05-16T18:15:25Z</time>
      </trkpt>
      <trkpt lat="59.9722267" lon="17.749758">
        <ele>22.7283</ele>
        <time>2013-05-16T18:15:26Z</time>
      </trkpt>
      <trkpt lat="59.9722744" lon="17.7496363">
        <ele>23.6896</ele>
        <time>2013-05-16T18:15:27Z</time>
      </trkpt>
      <trkpt lat="59.9723174" lon="17.7495165">
        <ele>24.1703</ele>
        <time>2013-05-16T18:15:28Z</time>
      </trkpt>
      <trkpt lat="59.9723639" lon="17.7494099">
        <ele>24.651</ele>
        <time>2013-05-16T18:15:29Z</time>
      </trkpt>
      <trkpt lat="59.9724112" lon="17.7492945">
        <ele>26.0929</ele>
        <time>2013-05-16T18:15:30Z</time>
      </trkpt>
      <trkpt lat="59.9724585" lon="17.7491814">
        <ele>26.0929</ele>
        <time>2013-05-16T18:15:31Z</time>
      </trkpt>
      <trkpt lat="59.9725065" lon="17.7490717">
        <ele>25.6123</ele>
        <time>2013-05-16T18:15:32Z</time>
      </trkpt>
      <trkpt lat="59.9725573" lon="17.7489596">
        <ele>25.6123</ele>
        <time>2013-05-16T18:15:33Z</time>
      </trkpt>
      <trkpt lat="59.9726091" lon="17.7488629">
        <ele>23.6896</ele>
        <time>2013-05-16T18:15:34Z</time>
      </trkpt>
      <trkpt lat="59.972661" lon="17.7487572">
        <ele>22.2476</ele>
        <time>2013-05-16T18:15:35Z</time>
      </trkpt>
      <trkpt lat="59.9727089" lon="17.7486394">
        <ele>22.2476</ele>
        <time>2013-05-16T18:15:36Z</time>
      </trkpt>
      <trkpt lat="59.9727552" lon="17.7485231">
        <ele>21.2864</ele>
        <time>2013-05-16T18:15:37Z</time>
      </trkpt>
      <trkpt lat="59.972808" lon="17.7484061">
        <ele>20.8057</ele>
        <time>2013-05-16T18:15:38Z</time>
      </trkpt>
      <trkpt lat="59.972866" lon="17.7482813">
        <ele>20.8057</ele>
        <time>2013-05-16T18:15:39Z</time>
      </trkpt>
      <trkpt lat="59.9729267" lon="17.7481677">
        <ele>20.8057</ele>
        <time>2013-05-16T18:15:40Z</time>
      </trkpt>
      <trkpt lat="59.9729877" lon="17.7480622">
        <ele>20.325</ele>
        <time>2013-05-16T18:15:41Z</time>
      </trkpt>
      <trkpt lat="59.9730533" lon="17.7479655">
        <ele>20.325</ele>
        <time>2013-05-16T18:15:42Z</time>
      </trkpt>
      <trkpt lat="59.9731214" lon="17.747874">
        <ele>21.2864</ele>
        <time>2013-05-16T18:15:43Z</time>
      </trkpt>
      <trkpt lat="59.9731883" lon="17.747773">
        <ele>21.767</ele>
        <time>2013-05-16T18:15:44Z</time>
      </trkpt>
      <trkpt lat="59.973254" lon="17.7476776">
        <ele>21.767</ele>
        <time>2013-05-16T18:15:45Z</time>
      </trkpt>
      <trkpt lat="59.9733203" lon="17.7475974">
        <ele>21.767</ele>
        <time>2013-05-16T18:15:46Z</time>
      </trkpt>
      <trkpt lat="59.9733876" lon="17.7475295">
        <ele>21.767</ele>
        <time>2013-05-16T18:15:47Z</time>
      </trkpt>
      <trkpt lat="59.973454" lon="17.7474651">
        <ele>21.767</ele>
        <time>2013-05-16T18:15:48Z</time>
      </trkpt>
      <trkpt lat="59.9735207" lon="17.7474165">
        <ele>21.2864</ele>
        <time>2013-05-16T18:15:49Z</time>
      </trkpt>
      <trkpt lat="59.9735846" lon="17.747371">
        <ele>20.8057</ele>
        <time>2013-05-16T18:15:50Z</time>
      </trkpt>
      <trkpt lat="59.9736491" lon="17.7473249">
        <ele>18.8831</ele>
        <time>2013-05-16T18:15:51Z</time>
      </trkpt>
      <trkpt lat="59.9737113" lon="17.7472632">
        <ele>20.8057</ele>
        <time>2013-05-16T18:15:52Z</time>
      </trkpt>
      <trkpt lat="59.9737736" lon="17.7472073">
        <ele>21.2864</ele>
        <time>2013-05-16T18:15:53Z</time>
      </trkpt>
      <trkpt lat="59.9738324" lon="17.7471434">
        <ele>21.2864</ele>
        <time>2013-05-16T18:15:54Z</time>
      </trkpt>
      <trkpt lat="59.97389" lon="17.7470654">
        <ele>21.2864</ele>
        <time>2013-05-16T18:15:55Z</time>
      </trkpt>
      <trkpt lat="59.9739474" lon="17.7469764">
        <ele>21.767</ele>
        <time>2013-05-16T18:15:56Z</time>
      </trkpt>
      <trkpt lat="59.9740045" lon="17.7468883">
        <ele>21.767</ele>
        <time>2013-05-16T18:15:57Z</time>
      </trkpt>
      <trkpt lat="59.9740637" lon="17.7468105">
        <ele>20.8057</ele>
        <time>2013-05-16T18:15:58Z</time>
      </trkpt>
      <trkpt lat="59.9741222" lon="17.7467366">
        <ele>20.8057</ele>
        <time>2013-05-16T18:15:59Z</time>
      </trkpt>
      <trkpt lat="59.9741813" lon="17.7466608">
        <ele>20.325</ele>
        <time>2013-05-16T18:16:00Z</time>
      </trkpt>
      <trkpt lat="59.9742383" lon="17.7465945">
        <ele>19.8444</ele>
        <time>2013-05-16T18:16:01Z</time>
      </trkpt>
      <trkpt lat="59.9742958" lon="17.7465159">
        <ele>19.3638</ele>
        <time>2013-05-16T18:16:02Z</time>
      </trkpt>
      <trkpt lat="59.9743532" lon="17.7464315">
        <ele>19.8444</ele>
        <time>2013-05-16T18:16:03Z</time>
      </trkpt>
      <trkpt lat="59.974409" lon="17.7463535">
        <ele>19.8444</ele>
        <time>2013-05-16T18:16:04Z</time>
      </trkpt>
      <trkpt lat="59.9744645" lon="17.7462872">
        <ele>19.8444</ele>
        <time>2013-05-16T18:16:05Z</time>
      </trkpt>
      <trkpt lat="59.9745164" lon="17.7462158">
        <ele>19.8444</ele>
        <time>2013-05-16T18:16:06Z</time>
      </trkpt>
      <trkpt lat="59.9745672" lon="17.7461444">
        <ele>19.3638</ele>
        <time>2013-05-16T18:16:07Z</time>
      </trkpt>
      <trkpt lat="59.9746164" lon="17.7460662">
        <ele>19.3638</ele>
        <time>2013-05-16T18:16:08Z</time>
      </trkpt>
      <trkpt lat="59.9746612" lon="17.7459843">
        <ele>19.3638</ele>
        <time>2013-05-16T18:16:09Z</time>
      </trkpt>
      <trkpt lat="59.9747044" lon="17.7459086">
        <ele>18.4023</ele>
        <time>2013-05-16T18:16:10Z</time>
      </trkpt>
      <trkpt lat="59.9747485" lon="17.7458164">
        <ele>17.9218</ele>
        <time>2013-05-16T18:16:11Z</time>
      </trkpt>
      <trkpt lat="59.974793" lon="17.7457202">
        <ele>17.9218</ele>
        <time>2013-05-16T18:16:12Z</time>
      </trkpt>
      <trkpt lat="59.974837" lon="17.7456134">
        <ele>17.9218</ele>
        <time>2013-05-16T18:16:13Z</time>
      </trkpt>
      <trkpt lat="59.9748798" lon="17.7455006">
        <ele>17.9218</ele>
        <time>2013-05-16T18:16:14Z</time>
      </trkpt>
      <trkpt lat="59.9749203" lon="17.7453763">
        <ele>16.9604</ele>
        <time>2013-05-16T18:16:15Z</time>
      </trkpt>
      <trkpt lat="59.9749617" lon="17.7452636">
        <ele>16.4797</ele>
        <time>2013-05-16T18:16:16Z</time>
      </trkpt>
      <trkpt lat="59.9750035" lon="17.7451543">
        <ele>16.4797</ele>
        <time>2013-05-16T18:16:17Z</time>
      </trkpt>
      <trkpt lat="59.975042" lon="17.7450232">
        <ele>16.4797</ele>
        <time>2013-05-16T18:16:18Z</time>
      </trkpt>
      <trkpt lat="59.9750806" lon="17.7448928">
        <ele>15.999</ele>
        <time>2013-05-16T18:16:19Z</time>
      </trkpt>
      <trkpt lat="59.9751168" lon="17.7447649">
        <ele>15.0377</ele>
        <time>2013-05-16T18:16:20Z</time>
      </trkpt>
      <trkpt lat="59.975151" lon="17.7446401">
        <ele>14.557</ele>
        <time>2013-05-16T18:16:21Z</time>
      </trkpt>
      <trkpt lat="59.9751847" lon="17.744512">
        <ele>15.0377</ele>
        <time>2013-05-16T18:16:22Z</time>
      </trkpt>
      <trkpt lat="59.9752151" lon="17.7443825">
        <ele>15.0377</ele>
        <time>2013-05-16T18:16:23Z</time>
      </trkpt>
      <trkpt lat="59.9752425" lon="17.7442495">
        <ele>15.0377</ele>
        <time>2013-05-16T18:16:24Z</time>
      </trkpt>
      <trkpt lat="59.9752699" lon="17.7441107">
        <ele>15.5184</ele>
        <time>2013-05-16T18:16:25Z</time>
      </trkpt>
      <trkpt lat="59.975297" lon="17.7439724">
        <ele>15.5184</ele>
        <time>2013-05-16T18:16:26Z</time>
      </trkpt>
      <trkpt lat="59.9753266" lon="17.743825">
        <ele>16.9604</ele>
        <time>2013-05-16T18:16:27Z</time>
      </trkpt>
      <trkpt lat="59.9753545" lon="17.7436787">
        <ele>18.4023</ele>
        <time>2013-05-16T18:16:28Z</time>
      </trkpt>
      <trkpt lat="59.9753831" lon="17.7435326">
        <ele>19.8444</ele>
        <time>2013-05-16T18:16:29Z</time>
      </trkpt>
      <trkpt lat="59.9754091" lon="17.7433858">
        <ele>20.8057</ele>
        <time>2013-05-16T18:16:30Z</time>
      </trkpt>
      <trkpt lat="59.9754409" lon="17.7432394">
        <ele>20.8057</ele>
        <time>2013-05-16T18:16:31Z</time>
      </trkpt>
      <trkpt lat="59.9754784" lon="17.7431007">
        <ele>21.2864</ele>
        <time>2013-05-16T18:16:32Z</time>
      </trkpt>
      <trkpt lat="59.9755173" lon="17.7429621">
        <ele>22.2476</ele>
        <time>2013-05-16T18:16:33Z</time>
      </trkpt>
      <trkpt lat="59.9755566" lon="17.7428254">
        <ele>23.209</ele>
        <time>2013-05-16T18:16:34Z</time>
      </trkpt>
      <trkpt lat="59.9756134" lon="17.7426576">
        <ele>24.1703</ele>
        <time>2013-05-16T18:16:35Z</time>
      </trkpt>
      <trkpt lat="59.975656" lon="17.7425115">
        <ele>25.1317</ele>
        <time>2013-05-16T18:16:36Z</time>
      </trkpt>
      <trkpt lat="59.9756911" lon="17.7423592">
        <ele>25.6123</ele>
        <time>2013-05-16T18:16:37Z</time>
      </trkpt>
      <trkpt lat="59.9757256" lon="17.7422071">
        <ele>26.0929</ele>
        <time>2013-05-16T18:16:38Z</time>
      </trkpt>
      <trkpt lat="59.9757602" lon="17.7420568">
        <ele>27.0543</ele>
        <time>2013-05-16T18:16:39Z</time>
      </trkpt>
      <trkpt lat="59.9757952" lon="17.7419087">
        <ele>27.5349</ele>
        <time>2013-05-16T18:16:40Z</time>
      </trkpt>
      <trkpt lat="59.9758304" lon="17.7417574">
        <ele>27.5349</ele>
        <time>2013-05-16T18:16:41Z</time>
      </trkpt>
      <trkpt lat="59.9758633" lon="17.7416132">
        <ele>27.5349</ele>
        <time>2013-05-16T18:16:42Z</time>
      </trkpt>
      <trkpt lat="59.9758959" lon="17.7414728">
        <ele>27.5349</ele>
        <time>2013-05-16T18:16:43Z</time>
      </trkpt>
      <trkpt lat="59.9759316" lon="17.7413339">
        <ele>27.5349</ele>
        <time>2013-05-16T18:16:44Z</time>
      </trkpt>
      <trkpt lat="59.9759694" lon="17.7411948">
        <ele>27.5349</ele>
        <time>2013-05-16T18:16:45Z</time>
      </trkpt>
      <trkpt lat="59.9760067" lon="17.7410524">
        <ele>26.5736</ele>
        <time>2013-05-16T18:16:46Z</time>
      </trkpt>
      <trkpt lat="59.9760415" lon="17.7408995">
        <ele>26.0929</ele>
        <time>2013-05-16T18:16:47Z</time>
      </trkpt>
      <trkpt lat="59.9760822" lon="17.7407596">
        <ele>25.6123</ele>
        <time>2013-05-16T18:16:48Z</time>
      </trkpt>
      <trkpt lat="59.9761242" lon="17.7406272">
        <ele>25.1317</ele>
        <time>2013-05-16T18:16:49Z</time>
      </trkpt>
      <trkpt lat="59.9761694" lon="17.7404811">
        <ele>24.651</ele>
        <time>2013-05-16T18:16:50Z</time>
      </trkpt>
      <trkpt lat="59.9762067" lon="17.7403143">
        <ele>25.6123</ele>
        <time>2013-05-16T18:16:51Z</time>
      </trkpt>
      <trkpt lat="59.9762533" lon="17.7401593">
        <ele>25.6123</ele>
        <time>2013-05-16T18:16:52Z</time>
      </trkpt>
      <trkpt lat="59.9763015" lon="17.7400137">
        <ele>24.651</ele>
        <time>2013-05-16T18:16:53Z</time>
      </trkpt>
      <trkpt lat="59.9763516" lon="17.7398708">
        <ele>23.6896</ele>
        <time>2013-05-16T18:16:54Z</time>
      </trkpt>
      <trkpt lat="59.9764083" lon="17.7397423">
        <ele>22.7283</ele>
        <time>2013-05-16T18:16:55Z</time>
      </trkpt>
      <trkpt lat="59.9764733" lon="17.7396242">
        <ele>22.2476</ele>
        <time>2013-05-16T18:16:56Z</time>
      </trkpt>
      <trkpt lat="59.9765491" lon="17.739525">
        <ele>22.2476</ele>
        <time>2013-05-16T18:16:57Z</time>
      </trkpt>
      <trkpt lat="59.9766314" lon="17.7394596">
        <ele>22.7283</ele>
        <time>2013-05-16T18:16:58Z</time>
      </trkpt>
      <trkpt lat="59.9767122" lon="17.7394036">
        <ele>22.2476</ele>
        <time>2013-05-16T18:16:59Z</time>
      </trkpt>
      <trkpt lat="59.976796" lon="17.7393662">
        <ele>22.2476</ele>
        <time>2013-05-16T18:17:00Z</time>
      </trkpt>
      <trkpt lat="59.9768768" lon="17.7393363">
        <ele>22.7283</ele>
        <time>2013-05-16T18:17:01Z</time>
      </trkpt>
      <trkpt lat="59.9769567" lon="17.7393114">
        <ele>22.7283</ele>
        <time>2013-05-16T18:17:02Z</time>
      </trkpt>
      <trkpt lat="59.9770374" lon="17.7392958">
        <ele>22.7283</ele>
        <time>2013-05-16T18:17:03Z</time>
      </trkpt>
      <trkpt lat="59.9771137" lon="17.739302">
        <ele>20.8057</ele>
        <time>2013-05-16T18:17:04Z</time>
      </trkpt>
      <trkpt lat="59.9771895" lon="17.7392974">
        <ele>20.325</ele>
        <time>2013-05-16T18:17:05Z</time>
      </trkpt>
      <trkpt lat="59.9772642" lon="17.7392879">
        <ele>20.8057</ele>
        <time>2013-05-16T18:17:06Z</time>
      </trkpt>
      <trkpt lat="59.9773354" lon="17.739263">
        <ele>21.767</ele>
        <time>2013-05-16T18:17:07Z</time>
      </trkpt>
      <trkpt lat="59.9774091" lon="17.7392361">
        <ele>21.2864</ele>
        <time>2013-05-16T18:17:08Z</time>
      </trkpt>
      <trkpt lat="59.9774816" lon="17.7391967">
        <ele>21.767</ele>
        <time>2013-05-16T18:17:09Z</time>
      </trkpt>
      <trkpt lat="59.9775535" lon="17.7391593">
        <ele>21.767</ele>
        <time>2013-05-16T18:17:10Z</time>
      </trkpt>
      <trkpt lat="59.9776254" lon="17.739136">
        <ele>23.6896</ele>
        <time>2013-05-16T18:17:11Z</time>
      </trkpt>
      <trkpt lat="59.977695" lon="17.7391274">
        <ele>25.1317</ele>
        <time>2013-05-16T18:17:12Z</time>
      </trkpt>
      <trkpt lat="59.9777576" lon="17.739131">
        <ele>26.0929</ele>
        <time>2013-05-16T18:17:13Z</time>
      </trkpt>
      <trkpt lat="59.9778181" lon="17.7391507">
        <ele>26.5736</ele>
        <time>2013-05-16T18:17:14Z</time>
      </trkpt>
      <trkpt lat="59.9778809" lon="17.7391801">
        <ele>27.5349</ele>
        <time>2013-05-16T18:17:15Z</time>
      </trkpt>
      <trkpt lat="59.9779411" lon="17.7392023">
        <ele>28.4962</ele>
        <time>2013-05-16T18:17:16Z</time>
      </trkpt>
      <trkpt lat="59.9779964" lon="17.7392317">
        <ele>29.4575</ele>
        <time>2013-05-16T18:17:17Z</time>
      </trkpt>
      <trkpt lat="59.978055" lon="17.7392501">
        <ele>29.9381</ele>
        <time>2013-05-16T18:17:18Z</time>
      </trkpt>
      <trkpt lat="59.9781125" lon="17.7392642">
        <ele>31.3801</ele>
        <time>2013-05-16T18:17:19Z</time>
      </trkpt>
      <trkpt lat="59.9781642" lon="17.7392778">
        <ele>32.3416</ele>
        <time>2013-05-16T18:17:20Z</time>
      </trkpt>
      <trkpt lat="59.9782187" lon="17.7392917">
        <ele>33.3029</ele>
        <time>2013-05-16T18:17:21Z</time>
      </trkpt>
      <trkpt lat="59.9782719" lon="17.739303">
        <ele>33.7834</ele>
        <time>2013-05-16T18:17:22Z</time>
      </trkpt>
      <trkpt lat="59.9783325" lon="17.7393174">
        <ele>35.7061</ele>
        <time>2013-05-16T18:17:23Z</time>
      </trkpt>
      <trkpt lat="59.9783866" lon="17.7393372">
        <ele>33.3029</ele>
        <time>2013-05-16T18:17:24Z</time>
      </trkpt>
      <trkpt lat="59.978435" lon="17.7393586">
        <ele>31.3801</ele>
        <time>2013-05-16T18:17:25Z</time>
      </trkpt>
      <trkpt lat="59.9784928" lon="17.7393682">
        <ele>31.8607</ele>
        <time>2013-05-16T18:17:26Z</time>
      </trkpt>
      <trkpt lat="59.978551" lon="17.7393805">
        <ele>29.9381</ele>
        <time>2013-05-16T18:17:27Z</time>
      </trkpt>
      <trkpt lat="59.9786116" lon="17.7393915">
        <ele>28.9769</ele>
        <time>2013-05-16T18:17:28Z</time>
      </trkpt>
      <trkpt lat="59.9786713" lon="17.7393953">
        <ele>26.5736</ele>
        <time>2013-05-16T18:17:29Z</time>
      </trkpt>
      <trkpt lat="59.978737" lon="17.7394026">
        <ele>25.1317</ele>
        <time>2013-05-16T18:17:30Z</time>
      </trkpt>
      <trkpt lat="59.9788013" lon="17.7394046">
        <ele>24.1703</ele>
        <time>2013-05-16T18:17:31Z</time>
      </trkpt>
      <trkpt lat="59.9788663" lon="17.7393869">
        <ele>25.1317</ele>
        <time>2013-05-16T18:17:32Z</time>
      </trkpt>
      <trkpt lat="59.9789266" lon="17.7393647">
        <ele>24.651</ele>
        <time>2013-05-16T18:17:33Z</time>
      </trkpt>
      <trkpt lat="59.9789814" lon="17.7393406">
        <ele>23.6896</ele>
        <time>2013-05-16T18:17:34Z</time>
      </trkpt>
      <trkpt lat="59.9790382" lon="17.739317">
        <ele>23.209</ele>
        <time>2013-05-16T18:17:35Z</time>
      </trkpt>
      <trkpt lat="59.97908" lon="17.7392927">
        <ele>20.8057</ele>
        <time>2013-05-16T18:17:36Z</time>
      </trkpt>
    </trkseg>
  </trk>
</gpx>